<?xml version="1.0" encoding="UTF-8" standalone="no" ?>
<gpx xmlns="http://www.topografix.com/GPX/1/1" xmlns:xsi="http://www.w3.org/2001/XMLSchema-instance" xsi:schemaLocation="http://www.topografix.com/GPX/1/1 http://www.topografix.com/GPX/1/1/gpx.xsd" version="1.1" creator="VisuGPX - https://www.visugpx.com">
  <metadata>
    <name>2024-09-09-46-esclauzel</name>
    <desc><![CDATA[Randonnée de 10 km avec un petit dénivelé de 360m. Un circuit sur des sentiers souvent ombragés, avec de temps à autre une vue dégagée sur la campagne d'Esclauzel.
Un petit détour jusqu'au lac de Roufin vous donnera un peu de fraicheur]]></desc>
  </metadata>
  <trk>
    <name><![CDATA[20240313_140757.gpx]]></name>
    <trkseg>
      <trkpt lat="44.42223" lon="1.6205">
        <ele>359</ele>
        <time>2024-03-13T13:07:59Z</time>
      </trkpt>
      <trkpt lat="44.4222" lon="1.62049">
        <ele>358</ele>
        <time>2024-03-13T13:08:01Z</time>
      </trkpt>
      <trkpt lat="44.42219" lon="1.6205">
        <ele>358</ele>
        <time>2024-03-13T13:08:03Z</time>
      </trkpt>
      <trkpt lat="44.42218" lon="1.6205">
        <ele>355</ele>
        <time>2024-03-13T13:08:05Z</time>
      </trkpt>
      <trkpt lat="44.42218" lon="1.6205">
        <ele>355</ele>
        <time>2024-03-13T13:08:06Z</time>
      </trkpt>
      <trkpt lat="44.42218" lon="1.62047">
        <ele>354</ele>
        <time>2024-03-13T13:08:08Z</time>
      </trkpt>
      <trkpt lat="44.42218" lon="1.62046">
        <ele>354</ele>
        <time>2024-03-13T13:08:09Z</time>
      </trkpt>
      <trkpt lat="44.42218" lon="1.62045">
        <ele>353</ele>
        <time>2024-03-13T13:08:10Z</time>
      </trkpt>
      <trkpt lat="44.42218" lon="1.62044">
        <ele>352</ele>
        <time>2024-03-13T13:08:11Z</time>
      </trkpt>
      <trkpt lat="44.42218" lon="1.62044">
        <ele>352</ele>
        <time>2024-03-13T13:08:12Z</time>
      </trkpt>
      <trkpt lat="44.42218" lon="1.62043">
        <ele>351</ele>
        <time>2024-03-13T13:08:13Z</time>
      </trkpt>
      <trkpt lat="44.42218" lon="1.62041">
        <ele>351</ele>
        <time>2024-03-13T13:08:14Z</time>
      </trkpt>
      <trkpt lat="44.42216" lon="1.62038">
        <ele>350</ele>
        <time>2024-03-13T13:08:16Z</time>
      </trkpt>
      <trkpt lat="44.42215" lon="1.62036">
        <ele>349</ele>
        <time>2024-03-13T13:08:18Z</time>
      </trkpt>
      <trkpt lat="44.42213" lon="1.62033">
        <ele>351</ele>
        <time>2024-03-13T13:08:20Z</time>
      </trkpt>
      <trkpt lat="44.42213" lon="1.62032">
        <ele>350</ele>
        <time>2024-03-13T13:08:21Z</time>
      </trkpt>
      <trkpt lat="44.42213" lon="1.62032">
        <ele>349</ele>
        <time>2024-03-13T13:08:22Z</time>
      </trkpt>
      <trkpt lat="44.42212" lon="1.6203">
        <ele>349</ele>
        <time>2024-03-13T13:08:23Z</time>
      </trkpt>
      <trkpt lat="44.42212" lon="1.62025">
        <ele>349</ele>
        <time>2024-03-13T13:08:25Z</time>
      </trkpt>
      <trkpt lat="44.42212" lon="1.6202">
        <ele>349</ele>
        <time>2024-03-13T13:08:27Z</time>
      </trkpt>
      <trkpt lat="44.42213" lon="1.62016">
        <ele>348</ele>
        <time>2024-03-13T13:08:29Z</time>
      </trkpt>
      <trkpt lat="44.42214" lon="1.62015">
        <ele>347</ele>
        <time>2024-03-13T13:08:30Z</time>
      </trkpt>
      <trkpt lat="44.42215" lon="1.62013">
        <ele>347</ele>
        <time>2024-03-13T13:08:31Z</time>
      </trkpt>
      <trkpt lat="44.42216" lon="1.62012">
        <ele>347</ele>
        <time>2024-03-13T13:08:32Z</time>
      </trkpt>
      <trkpt lat="44.42216" lon="1.6201">
        <ele>347</ele>
        <time>2024-03-13T13:08:33Z</time>
      </trkpt>
      <trkpt lat="44.42217" lon="1.62009">
        <ele>348</ele>
        <time>2024-03-13T13:08:34Z</time>
      </trkpt>
      <trkpt lat="44.42218" lon="1.62007">
        <ele>348</ele>
        <time>2024-03-13T13:08:35Z</time>
      </trkpt>
      <trkpt lat="44.42218" lon="1.62006">
        <ele>348</ele>
        <time>2024-03-13T13:08:36Z</time>
      </trkpt>
      <trkpt lat="44.42218" lon="1.62005">
        <ele>348</ele>
        <time>2024-03-13T13:08:37Z</time>
      </trkpt>
      <trkpt lat="44.42219" lon="1.62004">
        <ele>348</ele>
        <time>2024-03-13T13:08:38Z</time>
      </trkpt>
      <trkpt lat="44.4222" lon="1.62002">
        <ele>349</ele>
        <time>2024-03-13T13:08:39Z</time>
      </trkpt>
      <trkpt lat="44.4222" lon="1.62001">
        <ele>349</ele>
        <time>2024-03-13T13:08:40Z</time>
      </trkpt>
      <trkpt lat="44.42221" lon="1.62">
        <ele>348</ele>
        <time>2024-03-13T13:08:41Z</time>
      </trkpt>
      <trkpt lat="44.42221" lon="1.61999">
        <ele>348</ele>
        <time>2024-03-13T13:08:42Z</time>
      </trkpt>
      <trkpt lat="44.42221" lon="1.61998">
        <ele>348</ele>
        <time>2024-03-13T13:08:43Z</time>
      </trkpt>
      <trkpt lat="44.42223" lon="1.61998">
        <ele>348</ele>
        <time>2024-03-13T13:08:44Z</time>
      </trkpt>
      <trkpt lat="44.42224" lon="1.61997">
        <ele>348</ele>
        <time>2024-03-13T13:08:45Z</time>
      </trkpt>
      <trkpt lat="44.42225" lon="1.61996">
        <ele>348</ele>
        <time>2024-03-13T13:08:46Z</time>
      </trkpt>
      <trkpt lat="44.42226" lon="1.61995">
        <ele>348</ele>
        <time>2024-03-13T13:08:47Z</time>
      </trkpt>
      <trkpt lat="44.42227" lon="1.61994">
        <ele>348</ele>
        <time>2024-03-13T13:08:48Z</time>
      </trkpt>
      <trkpt lat="44.42229" lon="1.61993">
        <ele>349</ele>
        <time>2024-03-13T13:08:49Z</time>
      </trkpt>
      <trkpt lat="44.4223" lon="1.61992">
        <ele>349</ele>
        <time>2024-03-13T13:08:50Z</time>
      </trkpt>
      <trkpt lat="44.42231" lon="1.61991">
        <ele>348</ele>
        <time>2024-03-13T13:08:51Z</time>
      </trkpt>
      <trkpt lat="44.42232" lon="1.61991">
        <ele>348</ele>
        <time>2024-03-13T13:08:52Z</time>
      </trkpt>
      <trkpt lat="44.42233" lon="1.6199">
        <ele>348</ele>
        <time>2024-03-13T13:08:53Z</time>
      </trkpt>
      <trkpt lat="44.42234" lon="1.6199">
        <ele>348</ele>
        <time>2024-03-13T13:08:54Z</time>
      </trkpt>
      <trkpt lat="44.42235" lon="1.61989">
        <ele>349</ele>
        <time>2024-03-13T13:08:55Z</time>
      </trkpt>
      <trkpt lat="44.42236" lon="1.61989">
        <ele>349</ele>
        <time>2024-03-13T13:08:56Z</time>
      </trkpt>
      <trkpt lat="44.42237" lon="1.61988">
        <ele>349</ele>
        <time>2024-03-13T13:08:57Z</time>
      </trkpt>
      <trkpt lat="44.42237" lon="1.61988">
        <ele>349</ele>
        <time>2024-03-13T13:08:58Z</time>
      </trkpt>
      <trkpt lat="44.42238" lon="1.61988">
        <ele>349</ele>
        <time>2024-03-13T13:08:59Z</time>
      </trkpt>
      <trkpt lat="44.42239" lon="1.61987">
        <ele>349</ele>
        <time>2024-03-13T13:09:00Z</time>
      </trkpt>
      <trkpt lat="44.42241" lon="1.61987">
        <ele>349</ele>
        <time>2024-03-13T13:09:01Z</time>
      </trkpt>
      <trkpt lat="44.42242" lon="1.61986">
        <ele>348</ele>
        <time>2024-03-13T13:09:02Z</time>
      </trkpt>
      <trkpt lat="44.42242" lon="1.61986">
        <ele>348</ele>
        <time>2024-03-13T13:09:03Z</time>
      </trkpt>
      <trkpt lat="44.42243" lon="1.61985">
        <ele>349</ele>
        <time>2024-03-13T13:09:04Z</time>
      </trkpt>
      <trkpt lat="44.42244" lon="1.61985">
        <ele>349</ele>
        <time>2024-03-13T13:09:05Z</time>
      </trkpt>
      <trkpt lat="44.42244" lon="1.61984">
        <ele>348</ele>
        <time>2024-03-13T13:09:06Z</time>
      </trkpt>
      <trkpt lat="44.42245" lon="1.61984">
        <ele>348</ele>
        <time>2024-03-13T13:09:07Z</time>
      </trkpt>
      <trkpt lat="44.42245" lon="1.61984">
        <ele>348</ele>
        <time>2024-03-13T13:09:08Z</time>
      </trkpt>
      <trkpt lat="44.42246" lon="1.61984">
        <ele>348</ele>
        <time>2024-03-13T13:09:09Z</time>
      </trkpt>
      <trkpt lat="44.42247" lon="1.61983">
        <ele>348</ele>
        <time>2024-03-13T13:09:10Z</time>
      </trkpt>
      <trkpt lat="44.42248" lon="1.61983">
        <ele>348</ele>
        <time>2024-03-13T13:09:11Z</time>
      </trkpt>
      <trkpt lat="44.42249" lon="1.61982">
        <ele>348</ele>
        <time>2024-03-13T13:09:12Z</time>
      </trkpt>
      <trkpt lat="44.4225" lon="1.61981">
        <ele>349</ele>
        <time>2024-03-13T13:09:13Z</time>
      </trkpt>
      <trkpt lat="44.42252" lon="1.61981">
        <ele>348</ele>
        <time>2024-03-13T13:09:14Z</time>
      </trkpt>
      <trkpt lat="44.42253" lon="1.61981">
        <ele>348</ele>
        <time>2024-03-13T13:09:15Z</time>
      </trkpt>
      <trkpt lat="44.42255" lon="1.61981">
        <ele>348</ele>
        <time>2024-03-13T13:09:16Z</time>
      </trkpt>
      <trkpt lat="44.42255" lon="1.61981">
        <ele>348</ele>
        <time>2024-03-13T13:09:17Z</time>
      </trkpt>
      <trkpt lat="44.42257" lon="1.6198">
        <ele>347</ele>
        <time>2024-03-13T13:09:18Z</time>
      </trkpt>
      <trkpt lat="44.42258" lon="1.6198">
        <ele>347</ele>
        <time>2024-03-13T13:09:19Z</time>
      </trkpt>
      <trkpt lat="44.42259" lon="1.61979">
        <ele>346</ele>
        <time>2024-03-13T13:09:20Z</time>
      </trkpt>
      <trkpt lat="44.4226" lon="1.61979">
        <ele>346</ele>
        <time>2024-03-13T13:09:21Z</time>
      </trkpt>
      <trkpt lat="44.42262" lon="1.61978">
        <ele>346</ele>
        <time>2024-03-13T13:09:22Z</time>
      </trkpt>
      <trkpt lat="44.42262" lon="1.61977">
        <ele>346</ele>
        <time>2024-03-13T13:09:23Z</time>
      </trkpt>
      <trkpt lat="44.42263" lon="1.61976">
        <ele>346</ele>
        <time>2024-03-13T13:09:24Z</time>
      </trkpt>
      <trkpt lat="44.42265" lon="1.61976">
        <ele>346</ele>
        <time>2024-03-13T13:09:25Z</time>
      </trkpt>
      <trkpt lat="44.42266" lon="1.61975">
        <ele>347</ele>
        <time>2024-03-13T13:09:26Z</time>
      </trkpt>
      <trkpt lat="44.42267" lon="1.61975">
        <ele>347</ele>
        <time>2024-03-13T13:09:27Z</time>
      </trkpt>
      <trkpt lat="44.42268" lon="1.61974">
        <ele>346</ele>
        <time>2024-03-13T13:09:28Z</time>
      </trkpt>
      <trkpt lat="44.4227" lon="1.61973">
        <ele>346</ele>
        <time>2024-03-13T13:09:29Z</time>
      </trkpt>
      <trkpt lat="44.42271" lon="1.61973">
        <ele>345</ele>
        <time>2024-03-13T13:09:30Z</time>
      </trkpt>
      <trkpt lat="44.42271" lon="1.61972">
        <ele>345</ele>
        <time>2024-03-13T13:09:31Z</time>
      </trkpt>
      <trkpt lat="44.42273" lon="1.61972">
        <ele>345</ele>
        <time>2024-03-13T13:09:32Z</time>
      </trkpt>
      <trkpt lat="44.42273" lon="1.61971">
        <ele>344</ele>
        <time>2024-03-13T13:09:33Z</time>
      </trkpt>
      <trkpt lat="44.42274" lon="1.61971">
        <ele>344</ele>
        <time>2024-03-13T13:09:34Z</time>
      </trkpt>
      <trkpt lat="44.42275" lon="1.6197">
        <ele>343</ele>
        <time>2024-03-13T13:09:35Z</time>
      </trkpt>
      <trkpt lat="44.42276" lon="1.61969">
        <ele>343</ele>
        <time>2024-03-13T13:09:36Z</time>
      </trkpt>
      <trkpt lat="44.42277" lon="1.61968">
        <ele>343</ele>
        <time>2024-03-13T13:09:37Z</time>
      </trkpt>
      <trkpt lat="44.42278" lon="1.61967">
        <ele>343</ele>
        <time>2024-03-13T13:09:38Z</time>
      </trkpt>
      <trkpt lat="44.4228" lon="1.61966">
        <ele>343</ele>
        <time>2024-03-13T13:09:39Z</time>
      </trkpt>
      <trkpt lat="44.42281" lon="1.61965">
        <ele>343</ele>
        <time>2024-03-13T13:09:40Z</time>
      </trkpt>
      <trkpt lat="44.42282" lon="1.61964">
        <ele>342</ele>
        <time>2024-03-13T13:09:41Z</time>
      </trkpt>
      <trkpt lat="44.42283" lon="1.61964">
        <ele>342</ele>
        <time>2024-03-13T13:09:42Z</time>
      </trkpt>
      <trkpt lat="44.42284" lon="1.61962">
        <ele>342</ele>
        <time>2024-03-13T13:09:43Z</time>
      </trkpt>
      <trkpt lat="44.42285" lon="1.61962">
        <ele>342</ele>
        <time>2024-03-13T13:09:44Z</time>
      </trkpt>
      <trkpt lat="44.42286" lon="1.61961">
        <ele>342</ele>
        <time>2024-03-13T13:09:45Z</time>
      </trkpt>
      <trkpt lat="44.42287" lon="1.6196">
        <ele>343</ele>
        <time>2024-03-13T13:09:46Z</time>
      </trkpt>
      <trkpt lat="44.42288" lon="1.61958">
        <ele>343</ele>
        <time>2024-03-13T13:09:47Z</time>
      </trkpt>
      <trkpt lat="44.42289" lon="1.61957">
        <ele>343</ele>
        <time>2024-03-13T13:09:48Z</time>
      </trkpt>
      <trkpt lat="44.4229" lon="1.61955">
        <ele>342</ele>
        <time>2024-03-13T13:09:49Z</time>
      </trkpt>
      <trkpt lat="44.4229" lon="1.61954">
        <ele>342</ele>
        <time>2024-03-13T13:09:50Z</time>
      </trkpt>
      <trkpt lat="44.42291" lon="1.61953">
        <ele>342</ele>
        <time>2024-03-13T13:09:51Z</time>
      </trkpt>
      <trkpt lat="44.42292" lon="1.61953">
        <ele>342</ele>
        <time>2024-03-13T13:09:52Z</time>
      </trkpt>
      <trkpt lat="44.42292" lon="1.61953">
        <ele>342</ele>
        <time>2024-03-13T13:09:53Z</time>
      </trkpt>
      <trkpt lat="44.42292" lon="1.61952">
        <ele>342</ele>
        <time>2024-03-13T13:09:54Z</time>
      </trkpt>
      <trkpt lat="44.42293" lon="1.61951">
        <ele>342</ele>
        <time>2024-03-13T13:09:55Z</time>
      </trkpt>
      <trkpt lat="44.42294" lon="1.6195">
        <ele>342</ele>
        <time>2024-03-13T13:09:56Z</time>
      </trkpt>
      <trkpt lat="44.42294" lon="1.61949">
        <ele>342</ele>
        <time>2024-03-13T13:09:57Z</time>
      </trkpt>
      <trkpt lat="44.42295" lon="1.61948">
        <ele>341</ele>
        <time>2024-03-13T13:09:58Z</time>
      </trkpt>
      <trkpt lat="44.42297" lon="1.61947">
        <ele>341</ele>
        <time>2024-03-13T13:09:59Z</time>
      </trkpt>
      <trkpt lat="44.42298" lon="1.61946">
        <ele>341</ele>
        <time>2024-03-13T13:10:00Z</time>
      </trkpt>
      <trkpt lat="44.42299" lon="1.61945">
        <ele>342</ele>
        <time>2024-03-13T13:10:01Z</time>
      </trkpt>
      <trkpt lat="44.423" lon="1.61943">
        <ele>341</ele>
        <time>2024-03-13T13:10:02Z</time>
      </trkpt>
      <trkpt lat="44.42301" lon="1.61942">
        <ele>341</ele>
        <time>2024-03-13T13:10:03Z</time>
      </trkpt>
      <trkpt lat="44.42302" lon="1.61941">
        <ele>342</ele>
        <time>2024-03-13T13:10:04Z</time>
      </trkpt>
      <trkpt lat="44.42303" lon="1.61939">
        <ele>342</ele>
        <time>2024-03-13T13:10:05Z</time>
      </trkpt>
      <trkpt lat="44.42304" lon="1.61938">
        <ele>342</ele>
        <time>2024-03-13T13:10:06Z</time>
      </trkpt>
      <trkpt lat="44.42305" lon="1.61936">
        <ele>341</ele>
        <time>2024-03-13T13:10:07Z</time>
      </trkpt>
      <trkpt lat="44.42306" lon="1.61935">
        <ele>341</ele>
        <time>2024-03-13T13:10:08Z</time>
      </trkpt>
      <trkpt lat="44.42307" lon="1.61933">
        <ele>341</ele>
        <time>2024-03-13T13:10:09Z</time>
      </trkpt>
      <trkpt lat="44.42308" lon="1.61932">
        <ele>341</ele>
        <time>2024-03-13T13:10:10Z</time>
      </trkpt>
      <trkpt lat="44.4231" lon="1.6193">
        <ele>341</ele>
        <time>2024-03-13T13:10:11Z</time>
      </trkpt>
      <trkpt lat="44.4231" lon="1.61929">
        <ele>341</ele>
        <time>2024-03-13T13:10:12Z</time>
      </trkpt>
      <trkpt lat="44.42311" lon="1.61927">
        <ele>341</ele>
        <time>2024-03-13T13:10:13Z</time>
      </trkpt>
      <trkpt lat="44.42312" lon="1.61925">
        <ele>341</ele>
        <time>2024-03-13T13:10:14Z</time>
      </trkpt>
      <trkpt lat="44.42312" lon="1.61924">
        <ele>341</ele>
        <time>2024-03-13T13:10:15Z</time>
      </trkpt>
      <trkpt lat="44.42313" lon="1.61922">
        <ele>341</ele>
        <time>2024-03-13T13:10:16Z</time>
      </trkpt>
      <trkpt lat="44.42314" lon="1.6192">
        <ele>341</ele>
        <time>2024-03-13T13:10:17Z</time>
      </trkpt>
      <trkpt lat="44.42315" lon="1.61919">
        <ele>341</ele>
        <time>2024-03-13T13:10:18Z</time>
      </trkpt>
      <trkpt lat="44.42316" lon="1.61917">
        <ele>341</ele>
        <time>2024-03-13T13:10:19Z</time>
      </trkpt>
      <trkpt lat="44.42317" lon="1.61916">
        <ele>341</ele>
        <time>2024-03-13T13:10:20Z</time>
      </trkpt>
      <trkpt lat="44.42318" lon="1.61914">
        <ele>341</ele>
        <time>2024-03-13T13:10:21Z</time>
      </trkpt>
      <trkpt lat="44.42319" lon="1.61913">
        <ele>341</ele>
        <time>2024-03-13T13:10:22Z</time>
      </trkpt>
      <trkpt lat="44.42319" lon="1.61911">
        <ele>340</ele>
        <time>2024-03-13T13:10:23Z</time>
      </trkpt>
      <trkpt lat="44.42321" lon="1.61909">
        <ele>341</ele>
        <time>2024-03-13T13:10:24Z</time>
      </trkpt>
      <trkpt lat="44.42321" lon="1.61908">
        <ele>341</ele>
        <time>2024-03-13T13:10:25Z</time>
      </trkpt>
      <trkpt lat="44.42322" lon="1.61907">
        <ele>340</ele>
        <time>2024-03-13T13:10:26Z</time>
      </trkpt>
      <trkpt lat="44.42323" lon="1.61905">
        <ele>340</ele>
        <time>2024-03-13T13:10:27Z</time>
      </trkpt>
      <trkpt lat="44.42323" lon="1.61903">
        <ele>340</ele>
        <time>2024-03-13T13:10:28Z</time>
      </trkpt>
      <trkpt lat="44.42324" lon="1.61902">
        <ele>340</ele>
        <time>2024-03-13T13:10:29Z</time>
      </trkpt>
      <trkpt lat="44.42325" lon="1.61901">
        <ele>339</ele>
        <time>2024-03-13T13:10:30Z</time>
      </trkpt>
      <trkpt lat="44.42325" lon="1.61899">
        <ele>339</ele>
        <time>2024-03-13T13:10:31Z</time>
      </trkpt>
      <trkpt lat="44.42326" lon="1.61898">
        <ele>339</ele>
        <time>2024-03-13T13:10:32Z</time>
      </trkpt>
      <trkpt lat="44.42327" lon="1.61896">
        <ele>339</ele>
        <time>2024-03-13T13:10:33Z</time>
      </trkpt>
      <trkpt lat="44.42327" lon="1.61895">
        <ele>339</ele>
        <time>2024-03-13T13:10:34Z</time>
      </trkpt>
      <trkpt lat="44.42328" lon="1.61893">
        <ele>339</ele>
        <time>2024-03-13T13:10:35Z</time>
      </trkpt>
      <trkpt lat="44.42328" lon="1.61891">
        <ele>339</ele>
        <time>2024-03-13T13:10:36Z</time>
      </trkpt>
      <trkpt lat="44.42329" lon="1.61889">
        <ele>339</ele>
        <time>2024-03-13T13:10:37Z</time>
      </trkpt>
      <trkpt lat="44.42331" lon="1.61886">
        <ele>339</ele>
        <time>2024-03-13T13:10:39Z</time>
      </trkpt>
      <trkpt lat="44.42331" lon="1.61884">
        <ele>339</ele>
        <time>2024-03-13T13:10:40Z</time>
      </trkpt>
      <trkpt lat="44.42332" lon="1.61882">
        <ele>339</ele>
        <time>2024-03-13T13:10:41Z</time>
      </trkpt>
      <trkpt lat="44.42333" lon="1.61881">
        <ele>339</ele>
        <time>2024-03-13T13:10:42Z</time>
      </trkpt>
      <trkpt lat="44.42334" lon="1.61879">
        <ele>339</ele>
        <time>2024-03-13T13:10:43Z</time>
      </trkpt>
      <trkpt lat="44.42334" lon="1.61878">
        <ele>339</ele>
        <time>2024-03-13T13:10:44Z</time>
      </trkpt>
      <trkpt lat="44.42335" lon="1.61876">
        <ele>339</ele>
        <time>2024-03-13T13:10:45Z</time>
      </trkpt>
      <trkpt lat="44.42336" lon="1.61874">
        <ele>339</ele>
        <time>2024-03-13T13:10:46Z</time>
      </trkpt>
      <trkpt lat="44.42336" lon="1.61873">
        <ele>338</ele>
        <time>2024-03-13T13:10:47Z</time>
      </trkpt>
      <trkpt lat="44.42336" lon="1.61871">
        <ele>338</ele>
        <time>2024-03-13T13:10:48Z</time>
      </trkpt>
      <trkpt lat="44.42337" lon="1.6187">
        <ele>338</ele>
        <time>2024-03-13T13:10:49Z</time>
      </trkpt>
      <trkpt lat="44.42337" lon="1.61868">
        <ele>338</ele>
        <time>2024-03-13T13:10:50Z</time>
      </trkpt>
      <trkpt lat="44.42338" lon="1.61867">
        <ele>338</ele>
        <time>2024-03-13T13:10:51Z</time>
      </trkpt>
      <trkpt lat="44.42338" lon="1.61866">
        <ele>338</ele>
        <time>2024-03-13T13:10:52Z</time>
      </trkpt>
      <trkpt lat="44.42338" lon="1.61865">
        <ele>338</ele>
        <time>2024-03-13T13:10:53Z</time>
      </trkpt>
      <trkpt lat="44.42339" lon="1.61863">
        <ele>338</ele>
        <time>2024-03-13T13:10:54Z</time>
      </trkpt>
      <trkpt lat="44.42339" lon="1.61861">
        <ele>338</ele>
        <time>2024-03-13T13:10:55Z</time>
      </trkpt>
      <trkpt lat="44.4234" lon="1.6186">
        <ele>338</ele>
        <time>2024-03-13T13:10:56Z</time>
      </trkpt>
      <trkpt lat="44.42341" lon="1.61858">
        <ele>338</ele>
        <time>2024-03-13T13:10:57Z</time>
      </trkpt>
      <trkpt lat="44.42341" lon="1.61856">
        <ele>338</ele>
        <time>2024-03-13T13:10:58Z</time>
      </trkpt>
      <trkpt lat="44.42342" lon="1.61855">
        <ele>338</ele>
        <time>2024-03-13T13:10:59Z</time>
      </trkpt>
      <trkpt lat="44.42342" lon="1.61853">
        <ele>338</ele>
        <time>2024-03-13T13:11:00Z</time>
      </trkpt>
      <trkpt lat="44.42342" lon="1.61852">
        <ele>338</ele>
        <time>2024-03-13T13:11:01Z</time>
      </trkpt>
      <trkpt lat="44.42343" lon="1.6185">
        <ele>337</ele>
        <time>2024-03-13T13:11:02Z</time>
      </trkpt>
      <trkpt lat="44.42343" lon="1.61848">
        <ele>337</ele>
        <time>2024-03-13T13:11:03Z</time>
      </trkpt>
      <trkpt lat="44.42344" lon="1.61846">
        <ele>337</ele>
        <time>2024-03-13T13:11:04Z</time>
      </trkpt>
      <trkpt lat="44.42345" lon="1.61844">
        <ele>337</ele>
        <time>2024-03-13T13:11:05Z</time>
      </trkpt>
      <trkpt lat="44.42345" lon="1.61843">
        <ele>336</ele>
        <time>2024-03-13T13:11:06Z</time>
      </trkpt>
      <trkpt lat="44.42346" lon="1.61842">
        <ele>336</ele>
        <time>2024-03-13T13:11:07Z</time>
      </trkpt>
      <trkpt lat="44.42347" lon="1.61839">
        <ele>336</ele>
        <time>2024-03-13T13:11:08Z</time>
      </trkpt>
      <trkpt lat="44.42347" lon="1.61838">
        <ele>336</ele>
        <time>2024-03-13T13:11:09Z</time>
      </trkpt>
      <trkpt lat="44.42348" lon="1.61836">
        <ele>336</ele>
        <time>2024-03-13T13:11:10Z</time>
      </trkpt>
      <trkpt lat="44.42348" lon="1.61834">
        <ele>336</ele>
        <time>2024-03-13T13:11:11Z</time>
      </trkpt>
      <trkpt lat="44.42348" lon="1.61833">
        <ele>336</ele>
        <time>2024-03-13T13:11:12Z</time>
      </trkpt>
      <trkpt lat="44.42348" lon="1.61831">
        <ele>336</ele>
        <time>2024-03-13T13:11:13Z</time>
      </trkpt>
      <trkpt lat="44.42348" lon="1.6183">
        <ele>336</ele>
        <time>2024-03-13T13:11:14Z</time>
      </trkpt>
      <trkpt lat="44.42348" lon="1.61828">
        <ele>336</ele>
        <time>2024-03-13T13:11:15Z</time>
      </trkpt>
      <trkpt lat="44.42349" lon="1.61826">
        <ele>336</ele>
        <time>2024-03-13T13:11:16Z</time>
      </trkpt>
      <trkpt lat="44.42349" lon="1.61825">
        <ele>335</ele>
        <time>2024-03-13T13:11:17Z</time>
      </trkpt>
      <trkpt lat="44.4235" lon="1.61823">
        <ele>335</ele>
        <time>2024-03-13T13:11:18Z</time>
      </trkpt>
      <trkpt lat="44.4235" lon="1.61821">
        <ele>336</ele>
        <time>2024-03-13T13:11:19Z</time>
      </trkpt>
      <trkpt lat="44.4235" lon="1.61819">
        <ele>336</ele>
        <time>2024-03-13T13:11:20Z</time>
      </trkpt>
      <trkpt lat="44.42351" lon="1.61818">
        <ele>336</ele>
        <time>2024-03-13T13:11:21Z</time>
      </trkpt>
      <trkpt lat="44.42351" lon="1.61816">
        <ele>336</ele>
        <time>2024-03-13T13:11:22Z</time>
      </trkpt>
      <trkpt lat="44.42351" lon="1.61814">
        <ele>336</ele>
        <time>2024-03-13T13:11:23Z</time>
      </trkpt>
      <trkpt lat="44.42352" lon="1.61812">
        <ele>336</ele>
        <time>2024-03-13T13:11:24Z</time>
      </trkpt>
      <trkpt lat="44.42352" lon="1.6181">
        <ele>336</ele>
        <time>2024-03-13T13:11:25Z</time>
      </trkpt>
      <trkpt lat="44.42352" lon="1.61808">
        <ele>336</ele>
        <time>2024-03-13T13:11:26Z</time>
      </trkpt>
      <trkpt lat="44.42353" lon="1.61806">
        <ele>336</ele>
        <time>2024-03-13T13:11:27Z</time>
      </trkpt>
      <trkpt lat="44.42353" lon="1.61804">
        <ele>336</ele>
        <time>2024-03-13T13:11:28Z</time>
      </trkpt>
      <trkpt lat="44.42353" lon="1.61802">
        <ele>335</ele>
        <time>2024-03-13T13:11:29Z</time>
      </trkpt>
      <trkpt lat="44.42353" lon="1.618">
        <ele>335</ele>
        <time>2024-03-13T13:11:30Z</time>
      </trkpt>
      <trkpt lat="44.42353" lon="1.61799">
        <ele>335</ele>
        <time>2024-03-13T13:11:31Z</time>
      </trkpt>
      <trkpt lat="44.42354" lon="1.61797">
        <ele>335</ele>
        <time>2024-03-13T13:11:32Z</time>
      </trkpt>
      <trkpt lat="44.42353" lon="1.61797">
        <ele>335</ele>
        <time>2024-03-13T13:11:33Z</time>
      </trkpt>
      <trkpt lat="44.42353" lon="1.61796">
        <ele>335</ele>
        <time>2024-03-13T13:11:34Z</time>
      </trkpt>
      <trkpt lat="44.42353" lon="1.61795">
        <ele>335</ele>
        <time>2024-03-13T13:11:35Z</time>
      </trkpt>
      <trkpt lat="44.42353" lon="1.61793">
        <ele>335</ele>
        <time>2024-03-13T13:11:36Z</time>
      </trkpt>
      <trkpt lat="44.42353" lon="1.61793">
        <ele>335</ele>
        <time>2024-03-13T13:11:37Z</time>
      </trkpt>
      <trkpt lat="44.42353" lon="1.61791">
        <ele>335</ele>
        <time>2024-03-13T13:11:38Z</time>
      </trkpt>
      <trkpt lat="44.42353" lon="1.6179">
        <ele>334</ele>
        <time>2024-03-13T13:11:39Z</time>
      </trkpt>
      <trkpt lat="44.42353" lon="1.61789">
        <ele>334</ele>
        <time>2024-03-13T13:11:40Z</time>
      </trkpt>
      <trkpt lat="44.42353" lon="1.61787">
        <ele>334</ele>
        <time>2024-03-13T13:11:41Z</time>
      </trkpt>
      <trkpt lat="44.42353" lon="1.61786">
        <ele>333</ele>
        <time>2024-03-13T13:11:42Z</time>
      </trkpt>
      <trkpt lat="44.42352" lon="1.61783">
        <ele>333</ele>
        <time>2024-03-13T13:11:43Z</time>
      </trkpt>
      <trkpt lat="44.42352" lon="1.61782">
        <ele>333</ele>
        <time>2024-03-13T13:11:44Z</time>
      </trkpt>
      <trkpt lat="44.42352" lon="1.6178">
        <ele>333</ele>
        <time>2024-03-13T13:11:45Z</time>
      </trkpt>
      <trkpt lat="44.42352" lon="1.61779">
        <ele>333</ele>
        <time>2024-03-13T13:11:46Z</time>
      </trkpt>
      <trkpt lat="44.42352" lon="1.61777">
        <ele>332</ele>
        <time>2024-03-13T13:11:47Z</time>
      </trkpt>
      <trkpt lat="44.42352" lon="1.61776">
        <ele>332</ele>
        <time>2024-03-13T13:11:48Z</time>
      </trkpt>
      <trkpt lat="44.42352" lon="1.61774">
        <ele>332</ele>
        <time>2024-03-13T13:11:49Z</time>
      </trkpt>
      <trkpt lat="44.42351" lon="1.61772">
        <ele>332</ele>
        <time>2024-03-13T13:11:50Z</time>
      </trkpt>
      <trkpt lat="44.42351" lon="1.61771">
        <ele>332</ele>
        <time>2024-03-13T13:11:51Z</time>
      </trkpt>
      <trkpt lat="44.42351" lon="1.6177">
        <ele>332</ele>
        <time>2024-03-13T13:11:52Z</time>
      </trkpt>
      <trkpt lat="44.42351" lon="1.61768">
        <ele>331</ele>
        <time>2024-03-13T13:11:53Z</time>
      </trkpt>
      <trkpt lat="44.4235" lon="1.61767">
        <ele>331</ele>
        <time>2024-03-13T13:11:54Z</time>
      </trkpt>
      <trkpt lat="44.4235" lon="1.61765">
        <ele>331</ele>
        <time>2024-03-13T13:11:55Z</time>
      </trkpt>
      <trkpt lat="44.4235" lon="1.61763">
        <ele>331</ele>
        <time>2024-03-13T13:11:56Z</time>
      </trkpt>
      <trkpt lat="44.4235" lon="1.61761">
        <ele>331</ele>
        <time>2024-03-13T13:11:57Z</time>
      </trkpt>
      <trkpt lat="44.4235" lon="1.61759">
        <ele>331</ele>
        <time>2024-03-13T13:11:58Z</time>
      </trkpt>
      <trkpt lat="44.4235" lon="1.61757">
        <ele>330</ele>
        <time>2024-03-13T13:11:59Z</time>
      </trkpt>
      <trkpt lat="44.4235" lon="1.61756">
        <ele>330</ele>
        <time>2024-03-13T13:12:00Z</time>
      </trkpt>
      <trkpt lat="44.4235" lon="1.61755">
        <ele>330</ele>
        <time>2024-03-13T13:12:01Z</time>
      </trkpt>
      <trkpt lat="44.4235" lon="1.61753">
        <ele>330</ele>
        <time>2024-03-13T13:12:02Z</time>
      </trkpt>
      <trkpt lat="44.4235" lon="1.61751">
        <ele>330</ele>
        <time>2024-03-13T13:12:03Z</time>
      </trkpt>
      <trkpt lat="44.4235" lon="1.6175">
        <ele>330</ele>
        <time>2024-03-13T13:12:04Z</time>
      </trkpt>
      <trkpt lat="44.4235" lon="1.61748">
        <ele>330</ele>
        <time>2024-03-13T13:12:05Z</time>
      </trkpt>
      <trkpt lat="44.4235" lon="1.61746">
        <ele>330</ele>
        <time>2024-03-13T13:12:06Z</time>
      </trkpt>
      <trkpt lat="44.4235" lon="1.61745">
        <ele>330</ele>
        <time>2024-03-13T13:12:07Z</time>
      </trkpt>
      <trkpt lat="44.4235" lon="1.61743">
        <ele>331</ele>
        <time>2024-03-13T13:12:08Z</time>
      </trkpt>
      <trkpt lat="44.4235" lon="1.61741">
        <ele>330</ele>
        <time>2024-03-13T13:12:09Z</time>
      </trkpt>
      <trkpt lat="44.4235" lon="1.61739">
        <ele>330</ele>
        <time>2024-03-13T13:12:10Z</time>
      </trkpt>
      <trkpt lat="44.42349" lon="1.61738">
        <ele>330</ele>
        <time>2024-03-13T13:12:11Z</time>
      </trkpt>
      <trkpt lat="44.42349" lon="1.61736">
        <ele>330</ele>
        <time>2024-03-13T13:12:12Z</time>
      </trkpt>
      <trkpt lat="44.4235" lon="1.61735">
        <ele>330</ele>
        <time>2024-03-13T13:12:13Z</time>
      </trkpt>
      <trkpt lat="44.4235" lon="1.61733">
        <ele>330</ele>
        <time>2024-03-13T13:12:14Z</time>
      </trkpt>
      <trkpt lat="44.4235" lon="1.61731">
        <ele>330</ele>
        <time>2024-03-13T13:12:15Z</time>
      </trkpt>
      <trkpt lat="44.4235" lon="1.6173">
        <ele>330</ele>
        <time>2024-03-13T13:12:16Z</time>
      </trkpt>
      <trkpt lat="44.4235" lon="1.61728">
        <ele>329</ele>
        <time>2024-03-13T13:12:17Z</time>
      </trkpt>
      <trkpt lat="44.4235" lon="1.61726">
        <ele>329</ele>
        <time>2024-03-13T13:12:18Z</time>
      </trkpt>
      <trkpt lat="44.4235" lon="1.61724">
        <ele>329</ele>
        <time>2024-03-13T13:12:19Z</time>
      </trkpt>
      <trkpt lat="44.4235" lon="1.61722">
        <ele>329</ele>
        <time>2024-03-13T13:12:20Z</time>
      </trkpt>
      <trkpt lat="44.42351" lon="1.6172">
        <ele>329</ele>
        <time>2024-03-13T13:12:21Z</time>
      </trkpt>
      <trkpt lat="44.42351" lon="1.61719">
        <ele>329</ele>
        <time>2024-03-13T13:12:22Z</time>
      </trkpt>
      <trkpt lat="44.42352" lon="1.61717">
        <ele>329</ele>
        <time>2024-03-13T13:12:23Z</time>
      </trkpt>
      <trkpt lat="44.42352" lon="1.61715">
        <ele>329</ele>
        <time>2024-03-13T13:12:24Z</time>
      </trkpt>
      <trkpt lat="44.42352" lon="1.61713">
        <ele>329</ele>
        <time>2024-03-13T13:12:25Z</time>
      </trkpt>
      <trkpt lat="44.42353" lon="1.61712">
        <ele>329</ele>
        <time>2024-03-13T13:12:26Z</time>
      </trkpt>
      <trkpt lat="44.42354" lon="1.6171">
        <ele>328</ele>
        <time>2024-03-13T13:12:27Z</time>
      </trkpt>
      <trkpt lat="44.42354" lon="1.61709">
        <ele>328</ele>
        <time>2024-03-13T13:12:28Z</time>
      </trkpt>
      <trkpt lat="44.42355" lon="1.61707">
        <ele>328</ele>
        <time>2024-03-13T13:12:29Z</time>
      </trkpt>
      <trkpt lat="44.42355" lon="1.61706">
        <ele>328</ele>
        <time>2024-03-13T13:12:30Z</time>
      </trkpt>
      <trkpt lat="44.42356" lon="1.61705">
        <ele>328</ele>
        <time>2024-03-13T13:12:31Z</time>
      </trkpt>
      <trkpt lat="44.42356" lon="1.61703">
        <ele>328</ele>
        <time>2024-03-13T13:12:32Z</time>
      </trkpt>
      <trkpt lat="44.42357" lon="1.61702">
        <ele>327</ele>
        <time>2024-03-13T13:12:33Z</time>
      </trkpt>
      <trkpt lat="44.42358" lon="1.617">
        <ele>327</ele>
        <time>2024-03-13T13:12:34Z</time>
      </trkpt>
      <trkpt lat="44.42359" lon="1.61699">
        <ele>327</ele>
        <time>2024-03-13T13:12:35Z</time>
      </trkpt>
      <trkpt lat="44.4236" lon="1.61698">
        <ele>327</ele>
        <time>2024-03-13T13:12:36Z</time>
      </trkpt>
      <trkpt lat="44.4236" lon="1.61697">
        <ele>327</ele>
        <time>2024-03-13T13:12:37Z</time>
      </trkpt>
      <trkpt lat="44.42361" lon="1.61695">
        <ele>327</ele>
        <time>2024-03-13T13:12:38Z</time>
      </trkpt>
      <trkpt lat="44.42362" lon="1.61694">
        <ele>326</ele>
        <time>2024-03-13T13:12:39Z</time>
      </trkpt>
      <trkpt lat="44.42363" lon="1.61693">
        <ele>326</ele>
        <time>2024-03-13T13:12:40Z</time>
      </trkpt>
      <trkpt lat="44.42364" lon="1.61692">
        <ele>326</ele>
        <time>2024-03-13T13:12:41Z</time>
      </trkpt>
      <trkpt lat="44.42365" lon="1.6169">
        <ele>326</ele>
        <time>2024-03-13T13:12:42Z</time>
      </trkpt>
      <trkpt lat="44.42366" lon="1.6169">
        <ele>326</ele>
        <time>2024-03-13T13:12:43Z</time>
      </trkpt>
      <trkpt lat="44.42367" lon="1.61689">
        <ele>326</ele>
        <time>2024-03-13T13:12:44Z</time>
      </trkpt>
      <trkpt lat="44.42368" lon="1.61687">
        <ele>326</ele>
        <time>2024-03-13T13:12:45Z</time>
      </trkpt>
      <trkpt lat="44.42369" lon="1.61687">
        <ele>326</ele>
        <time>2024-03-13T13:12:46Z</time>
      </trkpt>
      <trkpt lat="44.42371" lon="1.61686">
        <ele>326</ele>
        <time>2024-03-13T13:12:47Z</time>
      </trkpt>
      <trkpt lat="44.42372" lon="1.61685">
        <ele>326</ele>
        <time>2024-03-13T13:12:48Z</time>
      </trkpt>
      <trkpt lat="44.42373" lon="1.61684">
        <ele>325</ele>
        <time>2024-03-13T13:12:49Z</time>
      </trkpt>
      <trkpt lat="44.42374" lon="1.61683">
        <ele>325</ele>
        <time>2024-03-13T13:12:50Z</time>
      </trkpt>
      <trkpt lat="44.42375" lon="1.61683">
        <ele>326</ele>
        <time>2024-03-13T13:12:51Z</time>
      </trkpt>
      <trkpt lat="44.42376" lon="1.61682">
        <ele>325</ele>
        <time>2024-03-13T13:12:52Z</time>
      </trkpt>
      <trkpt lat="44.42377" lon="1.61682">
        <ele>325</ele>
        <time>2024-03-13T13:12:53Z</time>
      </trkpt>
      <trkpt lat="44.42378" lon="1.61681">
        <ele>325</ele>
        <time>2024-03-13T13:12:54Z</time>
      </trkpt>
      <trkpt lat="44.42379" lon="1.6168">
        <ele>325</ele>
        <time>2024-03-13T13:12:55Z</time>
      </trkpt>
      <trkpt lat="44.42381" lon="1.61679">
        <ele>325</ele>
        <time>2024-03-13T13:12:56Z</time>
      </trkpt>
      <trkpt lat="44.42382" lon="1.61678">
        <ele>325</ele>
        <time>2024-03-13T13:12:57Z</time>
      </trkpt>
      <trkpt lat="44.42383" lon="1.61677">
        <ele>325</ele>
        <time>2024-03-13T13:12:58Z</time>
      </trkpt>
      <trkpt lat="44.42384" lon="1.61676">
        <ele>325</ele>
        <time>2024-03-13T13:12:59Z</time>
      </trkpt>
      <trkpt lat="44.42385" lon="1.61675">
        <ele>325</ele>
        <time>2024-03-13T13:13:00Z</time>
      </trkpt>
      <trkpt lat="44.42386" lon="1.61674">
        <ele>325</ele>
        <time>2024-03-13T13:13:01Z</time>
      </trkpt>
      <trkpt lat="44.42387" lon="1.61674">
        <ele>325</ele>
        <time>2024-03-13T13:13:02Z</time>
      </trkpt>
      <trkpt lat="44.42388" lon="1.61673">
        <ele>325</ele>
        <time>2024-03-13T13:13:03Z</time>
      </trkpt>
      <trkpt lat="44.42389" lon="1.61672">
        <ele>325</ele>
        <time>2024-03-13T13:13:04Z</time>
      </trkpt>
      <trkpt lat="44.4239" lon="1.61671">
        <ele>325</ele>
        <time>2024-03-13T13:13:05Z</time>
      </trkpt>
      <trkpt lat="44.4239" lon="1.61669">
        <ele>325</ele>
        <time>2024-03-13T13:13:06Z</time>
      </trkpt>
      <trkpt lat="44.42391" lon="1.61668">
        <ele>325</ele>
        <time>2024-03-13T13:13:07Z</time>
      </trkpt>
      <trkpt lat="44.42392" lon="1.61667">
        <ele>325</ele>
        <time>2024-03-13T13:13:08Z</time>
      </trkpt>
      <trkpt lat="44.42393" lon="1.61665">
        <ele>325</ele>
        <time>2024-03-13T13:13:09Z</time>
      </trkpt>
      <trkpt lat="44.42393" lon="1.61663">
        <ele>326</ele>
        <time>2024-03-13T13:13:10Z</time>
      </trkpt>
      <trkpt lat="44.42394" lon="1.61662">
        <ele>326</ele>
        <time>2024-03-13T13:13:11Z</time>
      </trkpt>
      <trkpt lat="44.42395" lon="1.6166">
        <ele>326</ele>
        <time>2024-03-13T13:13:12Z</time>
      </trkpt>
      <trkpt lat="44.42395" lon="1.61658">
        <ele>326</ele>
        <time>2024-03-13T13:13:13Z</time>
      </trkpt>
      <trkpt lat="44.42395" lon="1.61656">
        <ele>326</ele>
        <time>2024-03-13T13:13:14Z</time>
      </trkpt>
      <trkpt lat="44.42395" lon="1.61655">
        <ele>326</ele>
        <time>2024-03-13T13:13:15Z</time>
      </trkpt>
      <trkpt lat="44.42395" lon="1.61653">
        <ele>326</ele>
        <time>2024-03-13T13:13:16Z</time>
      </trkpt>
      <trkpt lat="44.42395" lon="1.61651">
        <ele>326</ele>
        <time>2024-03-13T13:13:17Z</time>
      </trkpt>
      <trkpt lat="44.42395" lon="1.6165">
        <ele>327</ele>
        <time>2024-03-13T13:13:18Z</time>
      </trkpt>
      <trkpt lat="44.42395" lon="1.61648">
        <ele>327</ele>
        <time>2024-03-13T13:13:19Z</time>
      </trkpt>
      <trkpt lat="44.42395" lon="1.61647">
        <ele>326</ele>
        <time>2024-03-13T13:13:20Z</time>
      </trkpt>
      <trkpt lat="44.42396" lon="1.61645">
        <ele>326</ele>
        <time>2024-03-13T13:13:21Z</time>
      </trkpt>
      <trkpt lat="44.42395" lon="1.61644">
        <ele>326</ele>
        <time>2024-03-13T13:13:22Z</time>
      </trkpt>
      <trkpt lat="44.42395" lon="1.61642">
        <ele>326</ele>
        <time>2024-03-13T13:13:23Z</time>
      </trkpt>
      <trkpt lat="44.42395" lon="1.61641">
        <ele>326</ele>
        <time>2024-03-13T13:13:24Z</time>
      </trkpt>
      <trkpt lat="44.42395" lon="1.61639">
        <ele>325</ele>
        <time>2024-03-13T13:13:25Z</time>
      </trkpt>
      <trkpt lat="44.42395" lon="1.61638">
        <ele>325</ele>
        <time>2024-03-13T13:13:26Z</time>
      </trkpt>
      <trkpt lat="44.42394" lon="1.61637">
        <ele>325</ele>
        <time>2024-03-13T13:13:27Z</time>
      </trkpt>
      <trkpt lat="44.42394" lon="1.61636">
        <ele>325</ele>
        <time>2024-03-13T13:13:28Z</time>
      </trkpt>
      <trkpt lat="44.42393" lon="1.61636">
        <ele>325</ele>
        <time>2024-03-13T13:13:29Z</time>
      </trkpt>
      <trkpt lat="44.42393" lon="1.61635">
        <ele>325</ele>
        <time>2024-03-13T13:13:30Z</time>
      </trkpt>
      <trkpt lat="44.42393" lon="1.61635">
        <ele>326</ele>
        <time>2024-03-13T13:13:31Z</time>
      </trkpt>
      <trkpt lat="44.42393" lon="1.61634">
        <ele>326</ele>
        <time>2024-03-13T13:13:32Z</time>
      </trkpt>
      <trkpt lat="44.42393" lon="1.61634">
        <ele>326</ele>
        <time>2024-03-13T13:13:33Z</time>
      </trkpt>
      <trkpt lat="44.42393" lon="1.61634">
        <ele>326</ele>
        <time>2024-03-13T13:13:34Z</time>
      </trkpt>
      <trkpt lat="44.42392" lon="1.61632">
        <ele>326</ele>
        <time>2024-03-13T13:13:35Z</time>
      </trkpt>
      <trkpt lat="44.42392" lon="1.61632">
        <ele>326</ele>
        <time>2024-03-13T13:13:36Z</time>
      </trkpt>
      <trkpt lat="44.42391" lon="1.61631">
        <ele>326</ele>
        <time>2024-03-13T13:13:37Z</time>
      </trkpt>
      <trkpt lat="44.4239" lon="1.6163">
        <ele>325</ele>
        <time>2024-03-13T13:13:38Z</time>
      </trkpt>
      <trkpt lat="44.4239" lon="1.61628">
        <ele>325</ele>
        <time>2024-03-13T13:13:39Z</time>
      </trkpt>
      <trkpt lat="44.42389" lon="1.61628">
        <ele>325</ele>
        <time>2024-03-13T13:13:40Z</time>
      </trkpt>
      <trkpt lat="44.42389" lon="1.61627">
        <ele>325</ele>
        <time>2024-03-13T13:13:41Z</time>
      </trkpt>
      <trkpt lat="44.42389" lon="1.61626">
        <ele>325</ele>
        <time>2024-03-13T13:13:42Z</time>
      </trkpt>
      <trkpt lat="44.42389" lon="1.61626">
        <ele>325</ele>
        <time>2024-03-13T13:13:43Z</time>
      </trkpt>
      <trkpt lat="44.42389" lon="1.61625">
        <ele>326</ele>
        <time>2024-03-13T13:13:44Z</time>
      </trkpt>
      <trkpt lat="44.42388" lon="1.61625">
        <ele>326</ele>
        <time>2024-03-13T13:13:45Z</time>
      </trkpt>
      <trkpt lat="44.42387" lon="1.61624">
        <ele>326</ele>
        <time>2024-03-13T13:13:46Z</time>
      </trkpt>
      <trkpt lat="44.42386" lon="1.61624">
        <ele>326</ele>
        <time>2024-03-13T13:13:47Z</time>
      </trkpt>
      <trkpt lat="44.42385" lon="1.61623">
        <ele>326</ele>
        <time>2024-03-13T13:13:48Z</time>
      </trkpt>
      <trkpt lat="44.42385" lon="1.61623">
        <ele>326</ele>
        <time>2024-03-13T13:13:49Z</time>
      </trkpt>
      <trkpt lat="44.42385" lon="1.61623">
        <ele>327</ele>
        <time>2024-03-13T13:13:50Z</time>
      </trkpt>
      <trkpt lat="44.42384" lon="1.61622">
        <ele>327</ele>
        <time>2024-03-13T13:13:51Z</time>
      </trkpt>
      <trkpt lat="44.42383" lon="1.61622">
        <ele>327</ele>
        <time>2024-03-13T13:13:52Z</time>
      </trkpt>
      <trkpt lat="44.42382" lon="1.61621">
        <ele>327</ele>
        <time>2024-03-13T13:13:53Z</time>
      </trkpt>
      <trkpt lat="44.42381" lon="1.6162">
        <ele>327</ele>
        <time>2024-03-13T13:13:54Z</time>
      </trkpt>
      <trkpt lat="44.4238" lon="1.61619">
        <ele>327</ele>
        <time>2024-03-13T13:13:55Z</time>
      </trkpt>
      <trkpt lat="44.42379" lon="1.61619">
        <ele>327</ele>
        <time>2024-03-13T13:13:56Z</time>
      </trkpt>
      <trkpt lat="44.42378" lon="1.61618">
        <ele>327</ele>
        <time>2024-03-13T13:13:57Z</time>
      </trkpt>
      <trkpt lat="44.42377" lon="1.61617">
        <ele>327</ele>
        <time>2024-03-13T13:13:58Z</time>
      </trkpt>
      <trkpt lat="44.42376" lon="1.61616">
        <ele>327</ele>
        <time>2024-03-13T13:13:59Z</time>
      </trkpt>
      <trkpt lat="44.42374" lon="1.61615">
        <ele>327</ele>
        <time>2024-03-13T13:14:00Z</time>
      </trkpt>
      <trkpt lat="44.42374" lon="1.61614">
        <ele>327</ele>
        <time>2024-03-13T13:14:01Z</time>
      </trkpt>
      <trkpt lat="44.42372" lon="1.61613">
        <ele>327</ele>
        <time>2024-03-13T13:14:02Z</time>
      </trkpt>
      <trkpt lat="44.42371" lon="1.61612">
        <ele>328</ele>
        <time>2024-03-13T13:14:03Z</time>
      </trkpt>
      <trkpt lat="44.4237" lon="1.61611">
        <ele>328</ele>
        <time>2024-03-13T13:14:04Z</time>
      </trkpt>
      <trkpt lat="44.42369" lon="1.6161">
        <ele>328</ele>
        <time>2024-03-13T13:14:05Z</time>
      </trkpt>
      <trkpt lat="44.42368" lon="1.61609">
        <ele>328</ele>
        <time>2024-03-13T13:14:06Z</time>
      </trkpt>
      <trkpt lat="44.42367" lon="1.61608">
        <ele>328</ele>
        <time>2024-03-13T13:14:07Z</time>
      </trkpt>
      <trkpt lat="44.42366" lon="1.61608">
        <ele>328</ele>
        <time>2024-03-13T13:14:08Z</time>
      </trkpt>
      <trkpt lat="44.42366" lon="1.61607">
        <ele>327</ele>
        <time>2024-03-13T13:14:09Z</time>
      </trkpt>
      <trkpt lat="44.42365" lon="1.61607">
        <ele>328</ele>
        <time>2024-03-13T13:14:10Z</time>
      </trkpt>
      <trkpt lat="44.42364" lon="1.61606">
        <ele>327</ele>
        <time>2024-03-13T13:14:11Z</time>
      </trkpt>
      <trkpt lat="44.42364" lon="1.61604">
        <ele>327</ele>
        <time>2024-03-13T13:14:12Z</time>
      </trkpt>
      <trkpt lat="44.42364" lon="1.61602">
        <ele>327</ele>
        <time>2024-03-13T13:14:13Z</time>
      </trkpt>
      <trkpt lat="44.42365" lon="1.61601">
        <ele>327</ele>
        <time>2024-03-13T13:14:14Z</time>
      </trkpt>
      <trkpt lat="44.42365" lon="1.616">
        <ele>327</ele>
        <time>2024-03-13T13:14:15Z</time>
      </trkpt>
      <trkpt lat="44.42365" lon="1.616">
        <ele>327</ele>
        <time>2024-03-13T13:14:16Z</time>
      </trkpt>
      <trkpt lat="44.42365" lon="1.616">
        <ele>327</ele>
        <time>2024-03-13T13:14:17Z</time>
      </trkpt>
      <trkpt lat="44.42365" lon="1.616">
        <ele>326</ele>
        <time>2024-03-13T13:14:18Z</time>
      </trkpt>
      <trkpt lat="44.42365" lon="1.616">
        <ele>326</ele>
        <time>2024-03-13T13:14:19Z</time>
      </trkpt>
      <trkpt lat="44.42365" lon="1.616">
        <ele>326</ele>
        <time>2024-03-13T13:14:20Z</time>
      </trkpt>
      <trkpt lat="44.42365" lon="1.616">
        <ele>326</ele>
        <time>2024-03-13T13:14:21Z</time>
      </trkpt>
      <trkpt lat="44.42366" lon="1.61599">
        <ele>326</ele>
        <time>2024-03-13T13:14:22Z</time>
      </trkpt>
      <trkpt lat="44.42367" lon="1.61599">
        <ele>326</ele>
        <time>2024-03-13T13:14:23Z</time>
      </trkpt>
      <trkpt lat="44.42368" lon="1.61599">
        <ele>326</ele>
        <time>2024-03-13T13:14:24Z</time>
      </trkpt>
      <trkpt lat="44.42369" lon="1.61598">
        <ele>326</ele>
        <time>2024-03-13T13:14:25Z</time>
      </trkpt>
      <trkpt lat="44.42369" lon="1.61598">
        <ele>326</ele>
        <time>2024-03-13T13:14:26Z</time>
      </trkpt>
      <trkpt lat="44.4237" lon="1.61598">
        <ele>326</ele>
        <time>2024-03-13T13:14:27Z</time>
      </trkpt>
      <trkpt lat="44.42371" lon="1.61597">
        <ele>326</ele>
        <time>2024-03-13T13:14:28Z</time>
      </trkpt>
      <trkpt lat="44.42372" lon="1.61597">
        <ele>326</ele>
        <time>2024-03-13T13:14:29Z</time>
      </trkpt>
      <trkpt lat="44.42373" lon="1.61597">
        <ele>326</ele>
        <time>2024-03-13T13:14:30Z</time>
      </trkpt>
      <trkpt lat="44.42373" lon="1.61597">
        <ele>326</ele>
        <time>2024-03-13T13:14:31Z</time>
      </trkpt>
      <trkpt lat="44.42374" lon="1.61597">
        <ele>326</ele>
        <time>2024-03-13T13:14:32Z</time>
      </trkpt>
      <trkpt lat="44.42375" lon="1.61597">
        <ele>326</ele>
        <time>2024-03-13T13:14:33Z</time>
      </trkpt>
      <trkpt lat="44.42375" lon="1.61597">
        <ele>326</ele>
        <time>2024-03-13T13:14:34Z</time>
      </trkpt>
      <trkpt lat="44.42376" lon="1.61597">
        <ele>326</ele>
        <time>2024-03-13T13:14:35Z</time>
      </trkpt>
      <trkpt lat="44.42376" lon="1.61596">
        <ele>326</ele>
        <time>2024-03-13T13:14:36Z</time>
      </trkpt>
      <trkpt lat="44.42376" lon="1.61596">
        <ele>327</ele>
        <time>2024-03-13T13:14:37Z</time>
      </trkpt>
      <trkpt lat="44.42376" lon="1.61596">
        <ele>327</ele>
        <time>2024-03-13T13:14:38Z</time>
      </trkpt>
      <trkpt lat="44.42377" lon="1.61596">
        <ele>327</ele>
        <time>2024-03-13T13:14:39Z</time>
      </trkpt>
      <trkpt lat="44.42377" lon="1.61596">
        <ele>326</ele>
        <time>2024-03-13T13:14:40Z</time>
      </trkpt>
      <trkpt lat="44.42377" lon="1.61596">
        <ele>326</ele>
        <time>2024-03-13T13:14:41Z</time>
      </trkpt>
      <trkpt lat="44.42378" lon="1.61596">
        <ele>326</ele>
        <time>2024-03-13T13:14:42Z</time>
      </trkpt>
      <trkpt lat="44.42378" lon="1.61596">
        <ele>325</ele>
        <time>2024-03-13T13:14:43Z</time>
      </trkpt>
      <trkpt lat="44.42378" lon="1.61597">
        <ele>325</ele>
        <time>2024-03-13T13:14:44Z</time>
      </trkpt>
      <trkpt lat="44.42379" lon="1.61597">
        <ele>324</ele>
        <time>2024-03-13T13:14:45Z</time>
      </trkpt>
      <trkpt lat="44.42379" lon="1.61597">
        <ele>324</ele>
        <time>2024-03-13T13:14:46Z</time>
      </trkpt>
      <trkpt lat="44.4238" lon="1.61596">
        <ele>324</ele>
        <time>2024-03-13T13:14:47Z</time>
      </trkpt>
      <trkpt lat="44.4238" lon="1.61595">
        <ele>324</ele>
        <time>2024-03-13T13:14:48Z</time>
      </trkpt>
      <trkpt lat="44.42381" lon="1.61594">
        <ele>324</ele>
        <time>2024-03-13T13:14:49Z</time>
      </trkpt>
      <trkpt lat="44.42381" lon="1.61593">
        <ele>325</ele>
        <time>2024-03-13T13:14:50Z</time>
      </trkpt>
      <trkpt lat="44.42382" lon="1.61592">
        <ele>325</ele>
        <time>2024-03-13T13:14:51Z</time>
      </trkpt>
      <trkpt lat="44.42382" lon="1.61591">
        <ele>325</ele>
        <time>2024-03-13T13:14:52Z</time>
      </trkpt>
      <trkpt lat="44.42383" lon="1.6159">
        <ele>325</ele>
        <time>2024-03-13T13:14:53Z</time>
      </trkpt>
      <trkpt lat="44.42383" lon="1.61589">
        <ele>325</ele>
        <time>2024-03-13T13:14:54Z</time>
      </trkpt>
      <trkpt lat="44.42383" lon="1.61588">
        <ele>324</ele>
        <time>2024-03-13T13:14:55Z</time>
      </trkpt>
      <trkpt lat="44.42382" lon="1.61587">
        <ele>324</ele>
        <time>2024-03-13T13:14:56Z</time>
      </trkpt>
      <trkpt lat="44.42382" lon="1.61585">
        <ele>324</ele>
        <time>2024-03-13T13:14:57Z</time>
      </trkpt>
      <trkpt lat="44.42382" lon="1.61584">
        <ele>324</ele>
        <time>2024-03-13T13:14:58Z</time>
      </trkpt>
      <trkpt lat="44.42382" lon="1.61583">
        <ele>324</ele>
        <time>2024-03-13T13:14:59Z</time>
      </trkpt>
      <trkpt lat="44.42382" lon="1.61582">
        <ele>324</ele>
        <time>2024-03-13T13:15:00Z</time>
      </trkpt>
      <trkpt lat="44.42382" lon="1.61581">
        <ele>325</ele>
        <time>2024-03-13T13:15:01Z</time>
      </trkpt>
      <trkpt lat="44.42383" lon="1.6158">
        <ele>325</ele>
        <time>2024-03-13T13:15:02Z</time>
      </trkpt>
      <trkpt lat="44.42383" lon="1.61578">
        <ele>325</ele>
        <time>2024-03-13T13:15:03Z</time>
      </trkpt>
      <trkpt lat="44.42383" lon="1.61577">
        <ele>325</ele>
        <time>2024-03-13T13:15:04Z</time>
      </trkpt>
      <trkpt lat="44.42383" lon="1.61576">
        <ele>325</ele>
        <time>2024-03-13T13:15:05Z</time>
      </trkpt>
      <trkpt lat="44.42383" lon="1.61574">
        <ele>326</ele>
        <time>2024-03-13T13:15:06Z</time>
      </trkpt>
      <trkpt lat="44.42383" lon="1.61573">
        <ele>326</ele>
        <time>2024-03-13T13:15:07Z</time>
      </trkpt>
      <trkpt lat="44.42383" lon="1.61572">
        <ele>326</ele>
        <time>2024-03-13T13:15:08Z</time>
      </trkpt>
      <trkpt lat="44.42384" lon="1.6157">
        <ele>326</ele>
        <time>2024-03-13T13:15:09Z</time>
      </trkpt>
      <trkpt lat="44.42384" lon="1.61568">
        <ele>326</ele>
        <time>2024-03-13T13:15:10Z</time>
      </trkpt>
      <trkpt lat="44.42384" lon="1.61567">
        <ele>327</ele>
        <time>2024-03-13T13:15:11Z</time>
      </trkpt>
      <trkpt lat="44.42384" lon="1.61567">
        <ele>327</ele>
        <time>2024-03-13T13:15:12Z</time>
      </trkpt>
      <trkpt lat="44.42384" lon="1.61566">
        <ele>327</ele>
        <time>2024-03-13T13:15:13Z</time>
      </trkpt>
      <trkpt lat="44.42385" lon="1.61565">
        <ele>327</ele>
        <time>2024-03-13T13:15:14Z</time>
      </trkpt>
      <trkpt lat="44.42385" lon="1.61564">
        <ele>327</ele>
        <time>2024-03-13T13:15:15Z</time>
      </trkpt>
      <trkpt lat="44.42385" lon="1.61563">
        <ele>327</ele>
        <time>2024-03-13T13:15:16Z</time>
      </trkpt>
      <trkpt lat="44.42386" lon="1.61563">
        <ele>328</ele>
        <time>2024-03-13T13:15:17Z</time>
      </trkpt>
      <trkpt lat="44.42386" lon="1.61563">
        <ele>328</ele>
        <time>2024-03-13T13:15:18Z</time>
      </trkpt>
      <trkpt lat="44.42386" lon="1.61563">
        <ele>328</ele>
        <time>2024-03-13T13:15:19Z</time>
      </trkpt>
      <trkpt lat="44.42386" lon="1.61563">
        <ele>328</ele>
        <time>2024-03-13T13:15:20Z</time>
      </trkpt>
      <trkpt lat="44.42386" lon="1.61563">
        <ele>328</ele>
        <time>2024-03-13T13:15:21Z</time>
      </trkpt>
      <trkpt lat="44.42386" lon="1.61563">
        <ele>328</ele>
        <time>2024-03-13T13:15:22Z</time>
      </trkpt>
      <trkpt lat="44.42386" lon="1.61563">
        <ele>328</ele>
        <time>2024-03-13T13:15:23Z</time>
      </trkpt>
      <trkpt lat="44.42386" lon="1.61563">
        <ele>328</ele>
        <time>2024-03-13T13:15:24Z</time>
      </trkpt>
      <trkpt lat="44.42386" lon="1.61563">
        <ele>328</ele>
        <time>2024-03-13T13:15:25Z</time>
      </trkpt>
      <trkpt lat="44.42386" lon="1.61563">
        <ele>328</ele>
        <time>2024-03-13T13:15:26Z</time>
      </trkpt>
      <trkpt lat="44.42386" lon="1.61563">
        <ele>328</ele>
        <time>2024-03-13T13:15:27Z</time>
      </trkpt>
      <trkpt lat="44.42386" lon="1.61563">
        <ele>328</ele>
        <time>2024-03-13T13:15:28Z</time>
      </trkpt>
      <trkpt lat="44.42386" lon="1.61563">
        <ele>328</ele>
        <time>2024-03-13T13:15:29Z</time>
      </trkpt>
      <trkpt lat="44.42386" lon="1.61563">
        <ele>328</ele>
        <time>2024-03-13T13:15:30Z</time>
      </trkpt>
      <trkpt lat="44.42386" lon="1.61563">
        <ele>328</ele>
        <time>2024-03-13T13:15:31Z</time>
      </trkpt>
      <trkpt lat="44.42386" lon="1.61563">
        <ele>328</ele>
        <time>2024-03-13T13:15:32Z</time>
      </trkpt>
      <trkpt lat="44.42386" lon="1.61563">
        <ele>328</ele>
        <time>2024-03-13T13:15:33Z</time>
      </trkpt>
      <trkpt lat="44.42386" lon="1.61563">
        <ele>328</ele>
        <time>2024-03-13T13:15:34Z</time>
      </trkpt>
      <trkpt lat="44.42386" lon="1.61563">
        <ele>328</ele>
        <time>2024-03-13T13:15:35Z</time>
      </trkpt>
      <trkpt lat="44.42386" lon="1.61563">
        <ele>328</ele>
        <time>2024-03-13T13:15:36Z</time>
      </trkpt>
      <trkpt lat="44.42386" lon="1.61563">
        <ele>328</ele>
        <time>2024-03-13T13:15:37Z</time>
      </trkpt>
      <trkpt lat="44.42386" lon="1.61563">
        <ele>328</ele>
        <time>2024-03-13T13:15:38Z</time>
      </trkpt>
      <trkpt lat="44.42386" lon="1.61562">
        <ele>329</ele>
        <time>2024-03-13T13:15:39Z</time>
      </trkpt>
      <trkpt lat="44.42386" lon="1.61563">
        <ele>329</ele>
        <time>2024-03-13T13:15:40Z</time>
      </trkpt>
      <trkpt lat="44.42386" lon="1.61563">
        <ele>329</ele>
        <time>2024-03-13T13:15:41Z</time>
      </trkpt>
      <trkpt lat="44.42386" lon="1.61563">
        <ele>329</ele>
        <time>2024-03-13T13:15:42Z</time>
      </trkpt>
      <trkpt lat="44.42386" lon="1.61563">
        <ele>329</ele>
        <time>2024-03-13T13:15:43Z</time>
      </trkpt>
      <trkpt lat="44.42386" lon="1.61563">
        <ele>329</ele>
        <time>2024-03-13T13:15:44Z</time>
      </trkpt>
      <trkpt lat="44.42386" lon="1.61563">
        <ele>329</ele>
        <time>2024-03-13T13:15:45Z</time>
      </trkpt>
      <trkpt lat="44.42386" lon="1.61562">
        <ele>330</ele>
        <time>2024-03-13T13:15:46Z</time>
      </trkpt>
      <trkpt lat="44.42386" lon="1.61562">
        <ele>330</ele>
        <time>2024-03-13T13:15:47Z</time>
      </trkpt>
      <trkpt lat="44.42386" lon="1.61563">
        <ele>331</ele>
        <time>2024-03-13T13:15:48Z</time>
      </trkpt>
      <trkpt lat="44.42386" lon="1.61562">
        <ele>331</ele>
        <time>2024-03-13T13:15:49Z</time>
      </trkpt>
      <trkpt lat="44.42386" lon="1.61562">
        <ele>331</ele>
        <time>2024-03-13T13:15:50Z</time>
      </trkpt>
      <trkpt lat="44.42386" lon="1.61562">
        <ele>331</ele>
        <time>2024-03-13T13:15:51Z</time>
      </trkpt>
      <trkpt lat="44.42386" lon="1.61562">
        <ele>331</ele>
        <time>2024-03-13T13:15:52Z</time>
      </trkpt>
      <trkpt lat="44.42385" lon="1.6156">
        <ele>331</ele>
        <time>2024-03-13T13:15:53Z</time>
      </trkpt>
      <trkpt lat="44.42386" lon="1.61559">
        <ele>331</ele>
        <time>2024-03-13T13:15:54Z</time>
      </trkpt>
      <trkpt lat="44.42386" lon="1.61558">
        <ele>331</ele>
        <time>2024-03-13T13:15:55Z</time>
      </trkpt>
      <trkpt lat="44.42386" lon="1.61557">
        <ele>332</ele>
        <time>2024-03-13T13:15:56Z</time>
      </trkpt>
      <trkpt lat="44.42386" lon="1.61556">
        <ele>332</ele>
        <time>2024-03-13T13:15:57Z</time>
      </trkpt>
      <trkpt lat="44.42387" lon="1.61555">
        <ele>332</ele>
        <time>2024-03-13T13:15:58Z</time>
      </trkpt>
      <trkpt lat="44.42387" lon="1.61552">
        <ele>331</ele>
        <time>2024-03-13T13:15:59Z</time>
      </trkpt>
      <trkpt lat="44.42387" lon="1.6155">
        <ele>331</ele>
        <time>2024-03-13T13:16:00Z</time>
      </trkpt>
      <trkpt lat="44.42387" lon="1.61549">
        <ele>331</ele>
        <time>2024-03-13T13:16:01Z</time>
      </trkpt>
      <trkpt lat="44.42387" lon="1.61547">
        <ele>331</ele>
        <time>2024-03-13T13:16:02Z</time>
      </trkpt>
      <trkpt lat="44.42387" lon="1.61546">
        <ele>331</ele>
        <time>2024-03-13T13:16:03Z</time>
      </trkpt>
      <trkpt lat="44.42387" lon="1.61545">
        <ele>331</ele>
        <time>2024-03-13T13:16:04Z</time>
      </trkpt>
      <trkpt lat="44.42387" lon="1.61543">
        <ele>331</ele>
        <time>2024-03-13T13:16:05Z</time>
      </trkpt>
      <trkpt lat="44.42387" lon="1.61542">
        <ele>332</ele>
        <time>2024-03-13T13:16:06Z</time>
      </trkpt>
      <trkpt lat="44.42388" lon="1.6154">
        <ele>332</ele>
        <time>2024-03-13T13:16:07Z</time>
      </trkpt>
      <trkpt lat="44.42388" lon="1.61538">
        <ele>332</ele>
        <time>2024-03-13T13:16:08Z</time>
      </trkpt>
      <trkpt lat="44.42388" lon="1.61537">
        <ele>332</ele>
        <time>2024-03-13T13:16:09Z</time>
      </trkpt>
      <trkpt lat="44.42388" lon="1.61535">
        <ele>332</ele>
        <time>2024-03-13T13:16:10Z</time>
      </trkpt>
      <trkpt lat="44.42388" lon="1.61535">
        <ele>333</ele>
        <time>2024-03-13T13:16:11Z</time>
      </trkpt>
      <trkpt lat="44.42389" lon="1.61533">
        <ele>333</ele>
        <time>2024-03-13T13:16:12Z</time>
      </trkpt>
      <trkpt lat="44.42388" lon="1.61531">
        <ele>333</ele>
        <time>2024-03-13T13:16:13Z</time>
      </trkpt>
      <trkpt lat="44.42388" lon="1.6153">
        <ele>333</ele>
        <time>2024-03-13T13:16:14Z</time>
      </trkpt>
      <trkpt lat="44.42388" lon="1.61528">
        <ele>333</ele>
        <time>2024-03-13T13:16:15Z</time>
      </trkpt>
      <trkpt lat="44.42388" lon="1.61527">
        <ele>334</ele>
        <time>2024-03-13T13:16:16Z</time>
      </trkpt>
      <trkpt lat="44.42388" lon="1.61525">
        <ele>334</ele>
        <time>2024-03-13T13:16:17Z</time>
      </trkpt>
      <trkpt lat="44.42388" lon="1.61523">
        <ele>334</ele>
        <time>2024-03-13T13:16:18Z</time>
      </trkpt>
      <trkpt lat="44.42388" lon="1.61522">
        <ele>333</ele>
        <time>2024-03-13T13:16:19Z</time>
      </trkpt>
      <trkpt lat="44.42389" lon="1.6152">
        <ele>333</ele>
        <time>2024-03-13T13:16:20Z</time>
      </trkpt>
      <trkpt lat="44.42388" lon="1.61519">
        <ele>333</ele>
        <time>2024-03-13T13:16:21Z</time>
      </trkpt>
      <trkpt lat="44.42389" lon="1.61517">
        <ele>333</ele>
        <time>2024-03-13T13:16:22Z</time>
      </trkpt>
      <trkpt lat="44.42389" lon="1.61516">
        <ele>333</ele>
        <time>2024-03-13T13:16:23Z</time>
      </trkpt>
      <trkpt lat="44.42389" lon="1.61514">
        <ele>334</ele>
        <time>2024-03-13T13:16:24Z</time>
      </trkpt>
      <trkpt lat="44.4239" lon="1.61513">
        <ele>334</ele>
        <time>2024-03-13T13:16:25Z</time>
      </trkpt>
      <trkpt lat="44.4239" lon="1.61511">
        <ele>334</ele>
        <time>2024-03-13T13:16:26Z</time>
      </trkpt>
      <trkpt lat="44.4239" lon="1.61511">
        <ele>334</ele>
        <time>2024-03-13T13:16:27Z</time>
      </trkpt>
      <trkpt lat="44.42391" lon="1.6151">
        <ele>334</ele>
        <time>2024-03-13T13:16:28Z</time>
      </trkpt>
      <trkpt lat="44.42391" lon="1.61509">
        <ele>334</ele>
        <time>2024-03-13T13:16:29Z</time>
      </trkpt>
      <trkpt lat="44.4239" lon="1.61508">
        <ele>335</ele>
        <time>2024-03-13T13:16:30Z</time>
      </trkpt>
      <trkpt lat="44.4239" lon="1.61506">
        <ele>335</ele>
        <time>2024-03-13T13:16:31Z</time>
      </trkpt>
      <trkpt lat="44.42389" lon="1.61505">
        <ele>335</ele>
        <time>2024-03-13T13:16:32Z</time>
      </trkpt>
      <trkpt lat="44.4239" lon="1.61503">
        <ele>335</ele>
        <time>2024-03-13T13:16:33Z</time>
      </trkpt>
      <trkpt lat="44.4239" lon="1.61502">
        <ele>335</ele>
        <time>2024-03-13T13:16:34Z</time>
      </trkpt>
      <trkpt lat="44.4239" lon="1.615">
        <ele>336</ele>
        <time>2024-03-13T13:16:35Z</time>
      </trkpt>
      <trkpt lat="44.4239" lon="1.61498">
        <ele>336</ele>
        <time>2024-03-13T13:16:36Z</time>
      </trkpt>
      <trkpt lat="44.4239" lon="1.61496">
        <ele>336</ele>
        <time>2024-03-13T13:16:37Z</time>
      </trkpt>
      <trkpt lat="44.4239" lon="1.61494">
        <ele>336</ele>
        <time>2024-03-13T13:16:38Z</time>
      </trkpt>
      <trkpt lat="44.42391" lon="1.61492">
        <ele>336</ele>
        <time>2024-03-13T13:16:39Z</time>
      </trkpt>
      <trkpt lat="44.42392" lon="1.6149">
        <ele>336</ele>
        <time>2024-03-13T13:16:40Z</time>
      </trkpt>
      <trkpt lat="44.42392" lon="1.61489">
        <ele>337</ele>
        <time>2024-03-13T13:16:41Z</time>
      </trkpt>
      <trkpt lat="44.42393" lon="1.61487">
        <ele>336</ele>
        <time>2024-03-13T13:16:42Z</time>
      </trkpt>
      <trkpt lat="44.42393" lon="1.61486">
        <ele>336</ele>
        <time>2024-03-13T13:16:43Z</time>
      </trkpt>
      <trkpt lat="44.42394" lon="1.61484">
        <ele>336</ele>
        <time>2024-03-13T13:16:44Z</time>
      </trkpt>
      <trkpt lat="44.42394" lon="1.61483">
        <ele>336</ele>
        <time>2024-03-13T13:16:45Z</time>
      </trkpt>
      <trkpt lat="44.42394" lon="1.61482">
        <ele>336</ele>
        <time>2024-03-13T13:16:46Z</time>
      </trkpt>
      <trkpt lat="44.42395" lon="1.6148">
        <ele>336</ele>
        <time>2024-03-13T13:16:47Z</time>
      </trkpt>
      <trkpt lat="44.42395" lon="1.61478">
        <ele>337</ele>
        <time>2024-03-13T13:16:48Z</time>
      </trkpt>
      <trkpt lat="44.42396" lon="1.61477">
        <ele>336</ele>
        <time>2024-03-13T13:16:49Z</time>
      </trkpt>
      <trkpt lat="44.42396" lon="1.61477">
        <ele>337</ele>
        <time>2024-03-13T13:16:50Z</time>
      </trkpt>
      <trkpt lat="44.42397" lon="1.61475">
        <ele>337</ele>
        <time>2024-03-13T13:16:51Z</time>
      </trkpt>
      <trkpt lat="44.42397" lon="1.61474">
        <ele>337</ele>
        <time>2024-03-13T13:16:52Z</time>
      </trkpt>
      <trkpt lat="44.42397" lon="1.61473">
        <ele>337</ele>
        <time>2024-03-13T13:16:53Z</time>
      </trkpt>
      <trkpt lat="44.42397" lon="1.61473">
        <ele>337</ele>
        <time>2024-03-13T13:16:54Z</time>
      </trkpt>
      <trkpt lat="44.42397" lon="1.61472">
        <ele>337</ele>
        <time>2024-03-13T13:16:55Z</time>
      </trkpt>
      <trkpt lat="44.42397" lon="1.61471">
        <ele>337</ele>
        <time>2024-03-13T13:16:56Z</time>
      </trkpt>
      <trkpt lat="44.42397" lon="1.6147">
        <ele>337</ele>
        <time>2024-03-13T13:16:57Z</time>
      </trkpt>
      <trkpt lat="44.42396" lon="1.61469">
        <ele>337</ele>
        <time>2024-03-13T13:16:58Z</time>
      </trkpt>
      <trkpt lat="44.42396" lon="1.61469">
        <ele>337</ele>
        <time>2024-03-13T13:16:59Z</time>
      </trkpt>
      <trkpt lat="44.42396" lon="1.61469">
        <ele>337</ele>
        <time>2024-03-13T13:17:00Z</time>
      </trkpt>
      <trkpt lat="44.42396" lon="1.61469">
        <ele>337</ele>
        <time>2024-03-13T13:17:01Z</time>
      </trkpt>
      <trkpt lat="44.42396" lon="1.61467">
        <ele>337</ele>
        <time>2024-03-13T13:17:02Z</time>
      </trkpt>
      <trkpt lat="44.42396" lon="1.61466">
        <ele>337</ele>
        <time>2024-03-13T13:17:03Z</time>
      </trkpt>
      <trkpt lat="44.42395" lon="1.61464">
        <ele>337</ele>
        <time>2024-03-13T13:17:04Z</time>
      </trkpt>
      <trkpt lat="44.42396" lon="1.61463">
        <ele>337</ele>
        <time>2024-03-13T13:17:05Z</time>
      </trkpt>
      <trkpt lat="44.42396" lon="1.61462">
        <ele>337</ele>
        <time>2024-03-13T13:17:06Z</time>
      </trkpt>
      <trkpt lat="44.42396" lon="1.61461">
        <ele>337</ele>
        <time>2024-03-13T13:17:07Z</time>
      </trkpt>
      <trkpt lat="44.42396" lon="1.6146">
        <ele>337</ele>
        <time>2024-03-13T13:17:08Z</time>
      </trkpt>
      <trkpt lat="44.42396" lon="1.61458">
        <ele>337</ele>
        <time>2024-03-13T13:17:09Z</time>
      </trkpt>
      <trkpt lat="44.42396" lon="1.61457">
        <ele>337</ele>
        <time>2024-03-13T13:17:10Z</time>
      </trkpt>
      <trkpt lat="44.42396" lon="1.61455">
        <ele>337</ele>
        <time>2024-03-13T13:17:11Z</time>
      </trkpt>
      <trkpt lat="44.42396" lon="1.61453">
        <ele>337</ele>
        <time>2024-03-13T13:17:12Z</time>
      </trkpt>
      <trkpt lat="44.42396" lon="1.61451">
        <ele>337</ele>
        <time>2024-03-13T13:17:13Z</time>
      </trkpt>
      <trkpt lat="44.42396" lon="1.6145">
        <ele>337</ele>
        <time>2024-03-13T13:17:14Z</time>
      </trkpt>
      <trkpt lat="44.42396" lon="1.61449">
        <ele>337</ele>
        <time>2024-03-13T13:17:15Z</time>
      </trkpt>
      <trkpt lat="44.42396" lon="1.61447">
        <ele>337</ele>
        <time>2024-03-13T13:17:16Z</time>
      </trkpt>
      <trkpt lat="44.42396" lon="1.61446">
        <ele>337</ele>
        <time>2024-03-13T13:17:17Z</time>
      </trkpt>
      <trkpt lat="44.42396" lon="1.61445">
        <ele>337</ele>
        <time>2024-03-13T13:17:18Z</time>
      </trkpt>
      <trkpt lat="44.42396" lon="1.61444">
        <ele>337</ele>
        <time>2024-03-13T13:17:19Z</time>
      </trkpt>
      <trkpt lat="44.42397" lon="1.61443">
        <ele>336</ele>
        <time>2024-03-13T13:17:20Z</time>
      </trkpt>
      <trkpt lat="44.42397" lon="1.61442">
        <ele>336</ele>
        <time>2024-03-13T13:17:21Z</time>
      </trkpt>
      <trkpt lat="44.42397" lon="1.61441">
        <ele>336</ele>
        <time>2024-03-13T13:17:22Z</time>
      </trkpt>
      <trkpt lat="44.42396" lon="1.6144">
        <ele>337</ele>
        <time>2024-03-13T13:17:23Z</time>
      </trkpt>
      <trkpt lat="44.42396" lon="1.61438">
        <ele>337</ele>
        <time>2024-03-13T13:17:24Z</time>
      </trkpt>
      <trkpt lat="44.42396" lon="1.61437">
        <ele>337</ele>
        <time>2024-03-13T13:17:25Z</time>
      </trkpt>
      <trkpt lat="44.42395" lon="1.61436">
        <ele>337</ele>
        <time>2024-03-13T13:17:26Z</time>
      </trkpt>
      <trkpt lat="44.42395" lon="1.61435">
        <ele>337</ele>
        <time>2024-03-13T13:17:27Z</time>
      </trkpt>
      <trkpt lat="44.42394" lon="1.61434">
        <ele>337</ele>
        <time>2024-03-13T13:17:28Z</time>
      </trkpt>
      <trkpt lat="44.42393" lon="1.61434">
        <ele>337</ele>
        <time>2024-03-13T13:17:29Z</time>
      </trkpt>
      <trkpt lat="44.42393" lon="1.61433">
        <ele>337</ele>
        <time>2024-03-13T13:17:30Z</time>
      </trkpt>
      <trkpt lat="44.42393" lon="1.61433">
        <ele>337</ele>
        <time>2024-03-13T13:17:31Z</time>
      </trkpt>
      <trkpt lat="44.42393" lon="1.61433">
        <ele>337</ele>
        <time>2024-03-13T13:17:32Z</time>
      </trkpt>
      <trkpt lat="44.42393" lon="1.61433">
        <ele>337</ele>
        <time>2024-03-13T13:17:33Z</time>
      </trkpt>
      <trkpt lat="44.42393" lon="1.61433">
        <ele>337</ele>
        <time>2024-03-13T13:17:34Z</time>
      </trkpt>
      <trkpt lat="44.42393" lon="1.61433">
        <ele>337</ele>
        <time>2024-03-13T13:17:35Z</time>
      </trkpt>
      <trkpt lat="44.42393" lon="1.61431">
        <ele>337</ele>
        <time>2024-03-13T13:17:36Z</time>
      </trkpt>
      <trkpt lat="44.42393" lon="1.6143">
        <ele>337</ele>
        <time>2024-03-13T13:17:37Z</time>
      </trkpt>
      <trkpt lat="44.42393" lon="1.61429">
        <ele>337</ele>
        <time>2024-03-13T13:17:38Z</time>
      </trkpt>
      <trkpt lat="44.42393" lon="1.61427">
        <ele>337</ele>
        <time>2024-03-13T13:17:39Z</time>
      </trkpt>
      <trkpt lat="44.42393" lon="1.61426">
        <ele>337</ele>
        <time>2024-03-13T13:17:40Z</time>
      </trkpt>
      <trkpt lat="44.42393" lon="1.61424">
        <ele>337</ele>
        <time>2024-03-13T13:17:41Z</time>
      </trkpt>
      <trkpt lat="44.42394" lon="1.61422">
        <ele>338</ele>
        <time>2024-03-13T13:17:42Z</time>
      </trkpt>
      <trkpt lat="44.42394" lon="1.6142">
        <ele>338</ele>
        <time>2024-03-13T13:17:43Z</time>
      </trkpt>
      <trkpt lat="44.42394" lon="1.6142">
        <ele>338</ele>
        <time>2024-03-13T13:17:44Z</time>
      </trkpt>
      <trkpt lat="44.42394" lon="1.61419">
        <ele>338</ele>
        <time>2024-03-13T13:17:45Z</time>
      </trkpt>
      <trkpt lat="44.42394" lon="1.61417">
        <ele>338</ele>
        <time>2024-03-13T13:17:46Z</time>
      </trkpt>
      <trkpt lat="44.42394" lon="1.61416">
        <ele>338</ele>
        <time>2024-03-13T13:17:47Z</time>
      </trkpt>
      <trkpt lat="44.42393" lon="1.61415">
        <ele>338</ele>
        <time>2024-03-13T13:17:48Z</time>
      </trkpt>
      <trkpt lat="44.42393" lon="1.61414">
        <ele>338</ele>
        <time>2024-03-13T13:17:49Z</time>
      </trkpt>
      <trkpt lat="44.42392" lon="1.61413">
        <ele>338</ele>
        <time>2024-03-13T13:17:50Z</time>
      </trkpt>
      <trkpt lat="44.42392" lon="1.61412">
        <ele>338</ele>
        <time>2024-03-13T13:17:51Z</time>
      </trkpt>
      <trkpt lat="44.42392" lon="1.6141">
        <ele>339</ele>
        <time>2024-03-13T13:17:52Z</time>
      </trkpt>
      <trkpt lat="44.42392" lon="1.61409">
        <ele>339</ele>
        <time>2024-03-13T13:17:53Z</time>
      </trkpt>
      <trkpt lat="44.42391" lon="1.61408">
        <ele>339</ele>
        <time>2024-03-13T13:17:54Z</time>
      </trkpt>
      <trkpt lat="44.42391" lon="1.61407">
        <ele>339</ele>
        <time>2024-03-13T13:17:55Z</time>
      </trkpt>
      <trkpt lat="44.4239" lon="1.61406">
        <ele>339</ele>
        <time>2024-03-13T13:17:56Z</time>
      </trkpt>
      <trkpt lat="44.4239" lon="1.61404">
        <ele>340</ele>
        <time>2024-03-13T13:17:57Z</time>
      </trkpt>
      <trkpt lat="44.4239" lon="1.61404">
        <ele>340</ele>
        <time>2024-03-13T13:17:58Z</time>
      </trkpt>
      <trkpt lat="44.4239" lon="1.61402">
        <ele>340</ele>
        <time>2024-03-13T13:17:59Z</time>
      </trkpt>
      <trkpt lat="44.4239" lon="1.61401">
        <ele>340</ele>
        <time>2024-03-13T13:18:00Z</time>
      </trkpt>
      <trkpt lat="44.4239" lon="1.614">
        <ele>340</ele>
        <time>2024-03-13T13:18:01Z</time>
      </trkpt>
      <trkpt lat="44.4239" lon="1.61399">
        <ele>340</ele>
        <time>2024-03-13T13:18:02Z</time>
      </trkpt>
      <trkpt lat="44.4239" lon="1.61398">
        <ele>341</ele>
        <time>2024-03-13T13:18:03Z</time>
      </trkpt>
      <trkpt lat="44.42389" lon="1.61398">
        <ele>341</ele>
        <time>2024-03-13T13:18:04Z</time>
      </trkpt>
      <trkpt lat="44.42389" lon="1.61397">
        <ele>341</ele>
        <time>2024-03-13T13:18:05Z</time>
      </trkpt>
      <trkpt lat="44.42389" lon="1.61395">
        <ele>341</ele>
        <time>2024-03-13T13:18:06Z</time>
      </trkpt>
      <trkpt lat="44.42389" lon="1.61394">
        <ele>341</ele>
        <time>2024-03-13T13:18:07Z</time>
      </trkpt>
      <trkpt lat="44.42389" lon="1.61393">
        <ele>341</ele>
        <time>2024-03-13T13:18:08Z</time>
      </trkpt>
      <trkpt lat="44.42389" lon="1.61393">
        <ele>341</ele>
        <time>2024-03-13T13:18:09Z</time>
      </trkpt>
      <trkpt lat="44.42389" lon="1.61391">
        <ele>341</ele>
        <time>2024-03-13T13:18:10Z</time>
      </trkpt>
      <trkpt lat="44.42389" lon="1.61389">
        <ele>342</ele>
        <time>2024-03-13T13:18:11Z</time>
      </trkpt>
      <trkpt lat="44.42389" lon="1.61388">
        <ele>341</ele>
        <time>2024-03-13T13:18:12Z</time>
      </trkpt>
      <trkpt lat="44.42388" lon="1.61387">
        <ele>342</ele>
        <time>2024-03-13T13:18:13Z</time>
      </trkpt>
      <trkpt lat="44.42388" lon="1.61385">
        <ele>343</ele>
        <time>2024-03-13T13:18:14Z</time>
      </trkpt>
      <trkpt lat="44.42388" lon="1.61383">
        <ele>342</ele>
        <time>2024-03-13T13:18:15Z</time>
      </trkpt>
      <trkpt lat="44.42388" lon="1.61382">
        <ele>342</ele>
        <time>2024-03-13T13:18:16Z</time>
      </trkpt>
      <trkpt lat="44.42388" lon="1.61382">
        <ele>342</ele>
        <time>2024-03-13T13:18:17Z</time>
      </trkpt>
      <trkpt lat="44.42388" lon="1.61382">
        <ele>342</ele>
        <time>2024-03-13T13:18:18Z</time>
      </trkpt>
      <trkpt lat="44.42388" lon="1.61382">
        <ele>342</ele>
        <time>2024-03-13T13:18:19Z</time>
      </trkpt>
      <trkpt lat="44.42389" lon="1.61379">
        <ele>342</ele>
        <time>2024-03-13T13:18:20Z</time>
      </trkpt>
      <trkpt lat="44.42389" lon="1.61377">
        <ele>342</ele>
        <time>2024-03-13T13:18:21Z</time>
      </trkpt>
      <trkpt lat="44.42388" lon="1.61376">
        <ele>342</ele>
        <time>2024-03-13T13:18:22Z</time>
      </trkpt>
      <trkpt lat="44.42388" lon="1.61374">
        <ele>342</ele>
        <time>2024-03-13T13:18:23Z</time>
      </trkpt>
      <trkpt lat="44.42388" lon="1.61373">
        <ele>343</ele>
        <time>2024-03-13T13:18:24Z</time>
      </trkpt>
      <trkpt lat="44.42389" lon="1.61372">
        <ele>343</ele>
        <time>2024-03-13T13:18:25Z</time>
      </trkpt>
      <trkpt lat="44.42389" lon="1.61371">
        <ele>343</ele>
        <time>2024-03-13T13:18:26Z</time>
      </trkpt>
      <trkpt lat="44.42389" lon="1.61369">
        <ele>343</ele>
        <time>2024-03-13T13:18:27Z</time>
      </trkpt>
      <trkpt lat="44.42389" lon="1.61367">
        <ele>343</ele>
        <time>2024-03-13T13:18:28Z</time>
      </trkpt>
      <trkpt lat="44.4239" lon="1.61365">
        <ele>343</ele>
        <time>2024-03-13T13:18:29Z</time>
      </trkpt>
      <trkpt lat="44.4239" lon="1.61364">
        <ele>343</ele>
        <time>2024-03-13T13:18:30Z</time>
      </trkpt>
      <trkpt lat="44.4239" lon="1.61362">
        <ele>343</ele>
        <time>2024-03-13T13:18:31Z</time>
      </trkpt>
      <trkpt lat="44.4239" lon="1.6136">
        <ele>343</ele>
        <time>2024-03-13T13:18:32Z</time>
      </trkpt>
      <trkpt lat="44.42391" lon="1.61359">
        <ele>344</ele>
        <time>2024-03-13T13:18:33Z</time>
      </trkpt>
      <trkpt lat="44.42391" lon="1.61357">
        <ele>343</ele>
        <time>2024-03-13T13:18:34Z</time>
      </trkpt>
      <trkpt lat="44.42392" lon="1.61355">
        <ele>343</ele>
        <time>2024-03-13T13:18:35Z</time>
      </trkpt>
      <trkpt lat="44.42392" lon="1.61354">
        <ele>344</ele>
        <time>2024-03-13T13:18:36Z</time>
      </trkpt>
      <trkpt lat="44.42392" lon="1.61353">
        <ele>343</ele>
        <time>2024-03-13T13:18:37Z</time>
      </trkpt>
      <trkpt lat="44.42392" lon="1.61352">
        <ele>343</ele>
        <time>2024-03-13T13:18:38Z</time>
      </trkpt>
      <trkpt lat="44.42393" lon="1.61351">
        <ele>343</ele>
        <time>2024-03-13T13:18:39Z</time>
      </trkpt>
      <trkpt lat="44.42393" lon="1.6135">
        <ele>343</ele>
        <time>2024-03-13T13:18:40Z</time>
      </trkpt>
      <trkpt lat="44.42394" lon="1.61349">
        <ele>343</ele>
        <time>2024-03-13T13:18:41Z</time>
      </trkpt>
      <trkpt lat="44.42394" lon="1.61347">
        <ele>344</ele>
        <time>2024-03-13T13:18:42Z</time>
      </trkpt>
      <trkpt lat="44.42395" lon="1.61346">
        <ele>344</ele>
        <time>2024-03-13T13:18:43Z</time>
      </trkpt>
      <trkpt lat="44.42396" lon="1.61346">
        <ele>344</ele>
        <time>2024-03-13T13:18:44Z</time>
      </trkpt>
      <trkpt lat="44.42396" lon="1.61345">
        <ele>345</ele>
        <time>2024-03-13T13:18:45Z</time>
      </trkpt>
      <trkpt lat="44.42396" lon="1.61344">
        <ele>345</ele>
        <time>2024-03-13T13:18:46Z</time>
      </trkpt>
      <trkpt lat="44.42397" lon="1.61343">
        <ele>345</ele>
        <time>2024-03-13T13:18:47Z</time>
      </trkpt>
      <trkpt lat="44.42397" lon="1.61342">
        <ele>346</ele>
        <time>2024-03-13T13:18:48Z</time>
      </trkpt>
      <trkpt lat="44.42397" lon="1.61341">
        <ele>346</ele>
        <time>2024-03-13T13:18:49Z</time>
      </trkpt>
      <trkpt lat="44.42398" lon="1.6134">
        <ele>347</ele>
        <time>2024-03-13T13:18:50Z</time>
      </trkpt>
      <trkpt lat="44.42398" lon="1.61339">
        <ele>347</ele>
        <time>2024-03-13T13:18:51Z</time>
      </trkpt>
      <trkpt lat="44.42399" lon="1.61338">
        <ele>347</ele>
        <time>2024-03-13T13:18:52Z</time>
      </trkpt>
      <trkpt lat="44.424" lon="1.61336">
        <ele>347</ele>
        <time>2024-03-13T13:18:53Z</time>
      </trkpt>
      <trkpt lat="44.424" lon="1.61335">
        <ele>347</ele>
        <time>2024-03-13T13:18:54Z</time>
      </trkpt>
      <trkpt lat="44.42401" lon="1.61334">
        <ele>348</ele>
        <time>2024-03-13T13:18:55Z</time>
      </trkpt>
      <trkpt lat="44.42402" lon="1.61333">
        <ele>348</ele>
        <time>2024-03-13T13:18:56Z</time>
      </trkpt>
      <trkpt lat="44.42403" lon="1.61331">
        <ele>348</ele>
        <time>2024-03-13T13:18:57Z</time>
      </trkpt>
      <trkpt lat="44.42404" lon="1.6133">
        <ele>348</ele>
        <time>2024-03-13T13:18:58Z</time>
      </trkpt>
      <trkpt lat="44.42405" lon="1.6133">
        <ele>348</ele>
        <time>2024-03-13T13:18:59Z</time>
      </trkpt>
      <trkpt lat="44.42405" lon="1.61329">
        <ele>348</ele>
        <time>2024-03-13T13:19:00Z</time>
      </trkpt>
      <trkpt lat="44.42406" lon="1.61328">
        <ele>349</ele>
        <time>2024-03-13T13:19:01Z</time>
      </trkpt>
      <trkpt lat="44.42407" lon="1.61328">
        <ele>349</ele>
        <time>2024-03-13T13:19:02Z</time>
      </trkpt>
      <trkpt lat="44.42407" lon="1.61326">
        <ele>349</ele>
        <time>2024-03-13T13:19:03Z</time>
      </trkpt>
      <trkpt lat="44.42407" lon="1.61325">
        <ele>349</ele>
        <time>2024-03-13T13:19:04Z</time>
      </trkpt>
      <trkpt lat="44.42407" lon="1.61324">
        <ele>349</ele>
        <time>2024-03-13T13:19:05Z</time>
      </trkpt>
      <trkpt lat="44.42407" lon="1.61322">
        <ele>349</ele>
        <time>2024-03-13T13:19:06Z</time>
      </trkpt>
      <trkpt lat="44.42407" lon="1.6132">
        <ele>349</ele>
        <time>2024-03-13T13:19:07Z</time>
      </trkpt>
      <trkpt lat="44.42408" lon="1.61319">
        <ele>349</ele>
        <time>2024-03-13T13:19:08Z</time>
      </trkpt>
      <trkpt lat="44.42408" lon="1.61317">
        <ele>349</ele>
        <time>2024-03-13T13:19:09Z</time>
      </trkpt>
      <trkpt lat="44.42409" lon="1.61315">
        <ele>349</ele>
        <time>2024-03-13T13:19:10Z</time>
      </trkpt>
      <trkpt lat="44.4241" lon="1.61313">
        <ele>349</ele>
        <time>2024-03-13T13:19:11Z</time>
      </trkpt>
      <trkpt lat="44.4241" lon="1.61311">
        <ele>349</ele>
        <time>2024-03-13T13:19:12Z</time>
      </trkpt>
      <trkpt lat="44.4241" lon="1.6131">
        <ele>349</ele>
        <time>2024-03-13T13:19:13Z</time>
      </trkpt>
      <trkpt lat="44.4241" lon="1.61309">
        <ele>349</ele>
        <time>2024-03-13T13:19:14Z</time>
      </trkpt>
      <trkpt lat="44.4241" lon="1.61309">
        <ele>348</ele>
        <time>2024-03-13T13:19:15Z</time>
      </trkpt>
      <trkpt lat="44.4241" lon="1.61309">
        <ele>348</ele>
        <time>2024-03-13T13:19:16Z</time>
      </trkpt>
      <trkpt lat="44.42411" lon="1.61308">
        <ele>349</ele>
        <time>2024-03-13T13:19:17Z</time>
      </trkpt>
      <trkpt lat="44.4241" lon="1.61307">
        <ele>349</ele>
        <time>2024-03-13T13:19:18Z</time>
      </trkpt>
      <trkpt lat="44.4241" lon="1.61306">
        <ele>349</ele>
        <time>2024-03-13T13:19:19Z</time>
      </trkpt>
      <trkpt lat="44.4241" lon="1.61304">
        <ele>349</ele>
        <time>2024-03-13T13:19:20Z</time>
      </trkpt>
      <trkpt lat="44.4241" lon="1.61303">
        <ele>349</ele>
        <time>2024-03-13T13:19:21Z</time>
      </trkpt>
      <trkpt lat="44.4241" lon="1.61302">
        <ele>349</ele>
        <time>2024-03-13T13:19:22Z</time>
      </trkpt>
      <trkpt lat="44.42411" lon="1.61302">
        <ele>349</ele>
        <time>2024-03-13T13:19:23Z</time>
      </trkpt>
      <trkpt lat="44.42411" lon="1.61301">
        <ele>350</ele>
        <time>2024-03-13T13:19:24Z</time>
      </trkpt>
      <trkpt lat="44.42411" lon="1.613">
        <ele>350</ele>
        <time>2024-03-13T13:19:25Z</time>
      </trkpt>
      <trkpt lat="44.42411" lon="1.61298">
        <ele>350</ele>
        <time>2024-03-13T13:19:26Z</time>
      </trkpt>
      <trkpt lat="44.42411" lon="1.61297">
        <ele>350</ele>
        <time>2024-03-13T13:19:27Z</time>
      </trkpt>
      <trkpt lat="44.42412" lon="1.61295">
        <ele>350</ele>
        <time>2024-03-13T13:19:28Z</time>
      </trkpt>
      <trkpt lat="44.42412" lon="1.61294">
        <ele>350</ele>
        <time>2024-03-13T13:19:29Z</time>
      </trkpt>
      <trkpt lat="44.42412" lon="1.61293">
        <ele>350</ele>
        <time>2024-03-13T13:19:30Z</time>
      </trkpt>
      <trkpt lat="44.42412" lon="1.61291">
        <ele>350</ele>
        <time>2024-03-13T13:19:31Z</time>
      </trkpt>
      <trkpt lat="44.42413" lon="1.61289">
        <ele>350</ele>
        <time>2024-03-13T13:19:32Z</time>
      </trkpt>
      <trkpt lat="44.42413" lon="1.61288">
        <ele>350</ele>
        <time>2024-03-13T13:19:33Z</time>
      </trkpt>
      <trkpt lat="44.42412" lon="1.61287">
        <ele>350</ele>
        <time>2024-03-13T13:19:34Z</time>
      </trkpt>
      <trkpt lat="44.42412" lon="1.61286">
        <ele>350</ele>
        <time>2024-03-13T13:19:35Z</time>
      </trkpt>
      <trkpt lat="44.42412" lon="1.61285">
        <ele>350</ele>
        <time>2024-03-13T13:19:36Z</time>
      </trkpt>
      <trkpt lat="44.42412" lon="1.61283">
        <ele>350</ele>
        <time>2024-03-13T13:19:37Z</time>
      </trkpt>
      <trkpt lat="44.42412" lon="1.61282">
        <ele>350</ele>
        <time>2024-03-13T13:19:38Z</time>
      </trkpt>
      <trkpt lat="44.42412" lon="1.61281">
        <ele>350</ele>
        <time>2024-03-13T13:19:39Z</time>
      </trkpt>
      <trkpt lat="44.42411" lon="1.61279">
        <ele>350</ele>
        <time>2024-03-13T13:19:40Z</time>
      </trkpt>
      <trkpt lat="44.42411" lon="1.61278">
        <ele>350</ele>
        <time>2024-03-13T13:19:41Z</time>
      </trkpt>
      <trkpt lat="44.42412" lon="1.61277">
        <ele>350</ele>
        <time>2024-03-13T13:19:42Z</time>
      </trkpt>
      <trkpt lat="44.42412" lon="1.61275">
        <ele>350</ele>
        <time>2024-03-13T13:19:43Z</time>
      </trkpt>
      <trkpt lat="44.42412" lon="1.61273">
        <ele>350</ele>
        <time>2024-03-13T13:19:44Z</time>
      </trkpt>
      <trkpt lat="44.42412" lon="1.61272">
        <ele>350</ele>
        <time>2024-03-13T13:19:45Z</time>
      </trkpt>
      <trkpt lat="44.42412" lon="1.6127">
        <ele>350</ele>
        <time>2024-03-13T13:19:46Z</time>
      </trkpt>
      <trkpt lat="44.42412" lon="1.61268">
        <ele>350</ele>
        <time>2024-03-13T13:19:47Z</time>
      </trkpt>
      <trkpt lat="44.42412" lon="1.61267">
        <ele>350</ele>
        <time>2024-03-13T13:19:48Z</time>
      </trkpt>
      <trkpt lat="44.42412" lon="1.61266">
        <ele>350</ele>
        <time>2024-03-13T13:19:49Z</time>
      </trkpt>
      <trkpt lat="44.42412" lon="1.61265">
        <ele>350</ele>
        <time>2024-03-13T13:19:50Z</time>
      </trkpt>
      <trkpt lat="44.42413" lon="1.61264">
        <ele>350</ele>
        <time>2024-03-13T13:19:51Z</time>
      </trkpt>
      <trkpt lat="44.42413" lon="1.61262">
        <ele>350</ele>
        <time>2024-03-13T13:19:52Z</time>
      </trkpt>
      <trkpt lat="44.42414" lon="1.6126">
        <ele>350</ele>
        <time>2024-03-13T13:19:53Z</time>
      </trkpt>
      <trkpt lat="44.42414" lon="1.61259">
        <ele>349</ele>
        <time>2024-03-13T13:19:54Z</time>
      </trkpt>
      <trkpt lat="44.42415" lon="1.61257">
        <ele>349</ele>
        <time>2024-03-13T13:19:55Z</time>
      </trkpt>
      <trkpt lat="44.42415" lon="1.61256">
        <ele>349</ele>
        <time>2024-03-13T13:19:56Z</time>
      </trkpt>
      <trkpt lat="44.42416" lon="1.61255">
        <ele>349</ele>
        <time>2024-03-13T13:19:57Z</time>
      </trkpt>
      <trkpt lat="44.42416" lon="1.61255">
        <ele>349</ele>
        <time>2024-03-13T13:19:58Z</time>
      </trkpt>
      <trkpt lat="44.42417" lon="1.61253">
        <ele>349</ele>
        <time>2024-03-13T13:19:59Z</time>
      </trkpt>
      <trkpt lat="44.42417" lon="1.61251">
        <ele>349</ele>
        <time>2024-03-13T13:20:00Z</time>
      </trkpt>
      <trkpt lat="44.42417" lon="1.6125">
        <ele>349</ele>
        <time>2024-03-13T13:20:01Z</time>
      </trkpt>
      <trkpt lat="44.42418" lon="1.61249">
        <ele>349</ele>
        <time>2024-03-13T13:20:02Z</time>
      </trkpt>
      <trkpt lat="44.42419" lon="1.61247">
        <ele>349</ele>
        <time>2024-03-13T13:20:03Z</time>
      </trkpt>
      <trkpt lat="44.42419" lon="1.61246">
        <ele>348</ele>
        <time>2024-03-13T13:20:04Z</time>
      </trkpt>
      <trkpt lat="44.42419" lon="1.61245">
        <ele>348</ele>
        <time>2024-03-13T13:20:05Z</time>
      </trkpt>
      <trkpt lat="44.4242" lon="1.61244">
        <ele>348</ele>
        <time>2024-03-13T13:20:06Z</time>
      </trkpt>
      <trkpt lat="44.4242" lon="1.61243">
        <ele>348</ele>
        <time>2024-03-13T13:20:07Z</time>
      </trkpt>
      <trkpt lat="44.42421" lon="1.61242">
        <ele>348</ele>
        <time>2024-03-13T13:20:08Z</time>
      </trkpt>
      <trkpt lat="44.42421" lon="1.6124">
        <ele>349</ele>
        <time>2024-03-13T13:20:09Z</time>
      </trkpt>
      <trkpt lat="44.42422" lon="1.61239">
        <ele>348</ele>
        <time>2024-03-13T13:20:10Z</time>
      </trkpt>
      <trkpt lat="44.42422" lon="1.61238">
        <ele>348</ele>
        <time>2024-03-13T13:20:11Z</time>
      </trkpt>
      <trkpt lat="44.42422" lon="1.61236">
        <ele>348</ele>
        <time>2024-03-13T13:20:12Z</time>
      </trkpt>
      <trkpt lat="44.42423" lon="1.61235">
        <ele>349</ele>
        <time>2024-03-13T13:20:13Z</time>
      </trkpt>
      <trkpt lat="44.42423" lon="1.61234">
        <ele>348</ele>
        <time>2024-03-13T13:20:14Z</time>
      </trkpt>
      <trkpt lat="44.42424" lon="1.61232">
        <ele>348</ele>
        <time>2024-03-13T13:20:15Z</time>
      </trkpt>
      <trkpt lat="44.42424" lon="1.61231">
        <ele>348</ele>
        <time>2024-03-13T13:20:16Z</time>
      </trkpt>
      <trkpt lat="44.42424" lon="1.6123">
        <ele>348</ele>
        <time>2024-03-13T13:20:17Z</time>
      </trkpt>
      <trkpt lat="44.42424" lon="1.61229">
        <ele>348</ele>
        <time>2024-03-13T13:20:18Z</time>
      </trkpt>
      <trkpt lat="44.42424" lon="1.61227">
        <ele>348</ele>
        <time>2024-03-13T13:20:19Z</time>
      </trkpt>
      <trkpt lat="44.42424" lon="1.61226">
        <ele>348</ele>
        <time>2024-03-13T13:20:20Z</time>
      </trkpt>
      <trkpt lat="44.42424" lon="1.61225">
        <ele>347</ele>
        <time>2024-03-13T13:20:21Z</time>
      </trkpt>
      <trkpt lat="44.42424" lon="1.61223">
        <ele>347</ele>
        <time>2024-03-13T13:20:22Z</time>
      </trkpt>
      <trkpt lat="44.42424" lon="1.61221">
        <ele>347</ele>
        <time>2024-03-13T13:20:23Z</time>
      </trkpt>
      <trkpt lat="44.42424" lon="1.61219">
        <ele>347</ele>
        <time>2024-03-13T13:20:24Z</time>
      </trkpt>
      <trkpt lat="44.42425" lon="1.61218">
        <ele>347</ele>
        <time>2024-03-13T13:20:25Z</time>
      </trkpt>
      <trkpt lat="44.42425" lon="1.61217">
        <ele>348</ele>
        <time>2024-03-13T13:20:26Z</time>
      </trkpt>
      <trkpt lat="44.42426" lon="1.61216">
        <ele>348</ele>
        <time>2024-03-13T13:20:27Z</time>
      </trkpt>
      <trkpt lat="44.42426" lon="1.61214">
        <ele>349</ele>
        <time>2024-03-13T13:20:28Z</time>
      </trkpt>
      <trkpt lat="44.42426" lon="1.61214">
        <ele>349</ele>
        <time>2024-03-13T13:20:29Z</time>
      </trkpt>
      <trkpt lat="44.42426" lon="1.61214">
        <ele>349</ele>
        <time>2024-03-13T13:20:30Z</time>
      </trkpt>
      <trkpt lat="44.42427" lon="1.61211">
        <ele>350</ele>
        <time>2024-03-13T13:20:31Z</time>
      </trkpt>
      <trkpt lat="44.42427" lon="1.61211">
        <ele>350</ele>
        <time>2024-03-13T13:20:32Z</time>
      </trkpt>
      <trkpt lat="44.42427" lon="1.6121">
        <ele>350</ele>
        <time>2024-03-13T13:20:33Z</time>
      </trkpt>
      <trkpt lat="44.42427" lon="1.61209">
        <ele>350</ele>
        <time>2024-03-13T13:20:34Z</time>
      </trkpt>
      <trkpt lat="44.42427" lon="1.61209">
        <ele>350</ele>
        <time>2024-03-13T13:20:35Z</time>
      </trkpt>
      <trkpt lat="44.42427" lon="1.61209">
        <ele>350</ele>
        <time>2024-03-13T13:20:36Z</time>
      </trkpt>
      <trkpt lat="44.42427" lon="1.61209">
        <ele>350</ele>
        <time>2024-03-13T13:20:37Z</time>
      </trkpt>
      <trkpt lat="44.42427" lon="1.61209">
        <ele>350</ele>
        <time>2024-03-13T13:20:38Z</time>
      </trkpt>
      <trkpt lat="44.42427" lon="1.61209">
        <ele>350</ele>
        <time>2024-03-13T13:20:39Z</time>
      </trkpt>
      <trkpt lat="44.42427" lon="1.61209">
        <ele>350</ele>
        <time>2024-03-13T13:20:40Z</time>
      </trkpt>
      <trkpt lat="44.42427" lon="1.61209">
        <ele>350</ele>
        <time>2024-03-13T13:20:41Z</time>
      </trkpt>
      <trkpt lat="44.42427" lon="1.61209">
        <ele>350</ele>
        <time>2024-03-13T13:20:42Z</time>
      </trkpt>
      <trkpt lat="44.42427" lon="1.61209">
        <ele>350</ele>
        <time>2024-03-13T13:20:43Z</time>
      </trkpt>
      <trkpt lat="44.42427" lon="1.61209">
        <ele>350</ele>
        <time>2024-03-13T13:20:44Z</time>
      </trkpt>
      <trkpt lat="44.42427" lon="1.61209">
        <ele>350</ele>
        <time>2024-03-13T13:20:45Z</time>
      </trkpt>
      <trkpt lat="44.42427" lon="1.61209">
        <ele>350</ele>
        <time>2024-03-13T13:20:46Z</time>
      </trkpt>
      <trkpt lat="44.42427" lon="1.61209">
        <ele>350</ele>
        <time>2024-03-13T13:20:47Z</time>
      </trkpt>
      <trkpt lat="44.42427" lon="1.61208">
        <ele>350</ele>
        <time>2024-03-13T13:20:48Z</time>
      </trkpt>
      <trkpt lat="44.42427" lon="1.61207">
        <ele>349</ele>
        <time>2024-03-13T13:20:49Z</time>
      </trkpt>
      <trkpt lat="44.42427" lon="1.61206">
        <ele>350</ele>
        <time>2024-03-13T13:20:50Z</time>
      </trkpt>
      <trkpt lat="44.42427" lon="1.61205">
        <ele>349</ele>
        <time>2024-03-13T13:20:51Z</time>
      </trkpt>
      <trkpt lat="44.42427" lon="1.61204">
        <ele>350</ele>
        <time>2024-03-13T13:20:52Z</time>
      </trkpt>
      <trkpt lat="44.42427" lon="1.61203">
        <ele>349</ele>
        <time>2024-03-13T13:20:53Z</time>
      </trkpt>
      <trkpt lat="44.42427" lon="1.61201">
        <ele>349</ele>
        <time>2024-03-13T13:20:54Z</time>
      </trkpt>
      <trkpt lat="44.42427" lon="1.612">
        <ele>349</ele>
        <time>2024-03-13T13:20:55Z</time>
      </trkpt>
      <trkpt lat="44.42427" lon="1.61199">
        <ele>349</ele>
        <time>2024-03-13T13:20:56Z</time>
      </trkpt>
      <trkpt lat="44.42427" lon="1.61198">
        <ele>349</ele>
        <time>2024-03-13T13:20:57Z</time>
      </trkpt>
      <trkpt lat="44.42428" lon="1.61196">
        <ele>349</ele>
        <time>2024-03-13T13:20:58Z</time>
      </trkpt>
      <trkpt lat="44.42428" lon="1.61194">
        <ele>349</ele>
        <time>2024-03-13T13:20:59Z</time>
      </trkpt>
      <trkpt lat="44.42428" lon="1.61193">
        <ele>349</ele>
        <time>2024-03-13T13:21:00Z</time>
      </trkpt>
      <trkpt lat="44.42429" lon="1.61192">
        <ele>349</ele>
        <time>2024-03-13T13:21:01Z</time>
      </trkpt>
      <trkpt lat="44.42429" lon="1.61191">
        <ele>349</ele>
        <time>2024-03-13T13:21:02Z</time>
      </trkpt>
      <trkpt lat="44.42429" lon="1.61189">
        <ele>349</ele>
        <time>2024-03-13T13:21:03Z</time>
      </trkpt>
      <trkpt lat="44.42429" lon="1.61189">
        <ele>349</ele>
        <time>2024-03-13T13:21:04Z</time>
      </trkpt>
      <trkpt lat="44.42429" lon="1.61187">
        <ele>349</ele>
        <time>2024-03-13T13:21:05Z</time>
      </trkpt>
      <trkpt lat="44.42429" lon="1.61186">
        <ele>349</ele>
        <time>2024-03-13T13:21:06Z</time>
      </trkpt>
      <trkpt lat="44.42429" lon="1.61185">
        <ele>349</ele>
        <time>2024-03-13T13:21:07Z</time>
      </trkpt>
      <trkpt lat="44.42429" lon="1.61184">
        <ele>348</ele>
        <time>2024-03-13T13:21:08Z</time>
      </trkpt>
      <trkpt lat="44.42429" lon="1.61183">
        <ele>349</ele>
        <time>2024-03-13T13:21:09Z</time>
      </trkpt>
      <trkpt lat="44.4243" lon="1.61182">
        <ele>348</ele>
        <time>2024-03-13T13:21:10Z</time>
      </trkpt>
      <trkpt lat="44.4243" lon="1.61181">
        <ele>349</ele>
        <time>2024-03-13T13:21:11Z</time>
      </trkpt>
      <trkpt lat="44.4243" lon="1.6118">
        <ele>348</ele>
        <time>2024-03-13T13:21:12Z</time>
      </trkpt>
      <trkpt lat="44.42429" lon="1.61178">
        <ele>349</ele>
        <time>2024-03-13T13:21:13Z</time>
      </trkpt>
      <trkpt lat="44.42429" lon="1.61178">
        <ele>349</ele>
        <time>2024-03-13T13:21:14Z</time>
      </trkpt>
      <trkpt lat="44.4243" lon="1.61176">
        <ele>349</ele>
        <time>2024-03-13T13:21:15Z</time>
      </trkpt>
      <trkpt lat="44.4243" lon="1.61174">
        <ele>349</ele>
        <time>2024-03-13T13:21:16Z</time>
      </trkpt>
      <trkpt lat="44.4243" lon="1.61172">
        <ele>349</ele>
        <time>2024-03-13T13:21:17Z</time>
      </trkpt>
      <trkpt lat="44.42431" lon="1.61171">
        <ele>349</ele>
        <time>2024-03-13T13:21:18Z</time>
      </trkpt>
      <trkpt lat="44.42431" lon="1.6117">
        <ele>348</ele>
        <time>2024-03-13T13:21:19Z</time>
      </trkpt>
      <trkpt lat="44.42431" lon="1.61168">
        <ele>348</ele>
        <time>2024-03-13T13:21:20Z</time>
      </trkpt>
      <trkpt lat="44.42432" lon="1.61167">
        <ele>348</ele>
        <time>2024-03-13T13:21:21Z</time>
      </trkpt>
      <trkpt lat="44.42432" lon="1.61166">
        <ele>348</ele>
        <time>2024-03-13T13:21:22Z</time>
      </trkpt>
      <trkpt lat="44.42432" lon="1.61166">
        <ele>348</ele>
        <time>2024-03-13T13:21:23Z</time>
      </trkpt>
      <trkpt lat="44.42432" lon="1.61166">
        <ele>348</ele>
        <time>2024-03-13T13:21:24Z</time>
      </trkpt>
      <trkpt lat="44.42431" lon="1.61163">
        <ele>348</ele>
        <time>2024-03-13T13:21:25Z</time>
      </trkpt>
      <trkpt lat="44.42431" lon="1.61162">
        <ele>348</ele>
        <time>2024-03-13T13:21:26Z</time>
      </trkpt>
      <trkpt lat="44.42431" lon="1.6116">
        <ele>347</ele>
        <time>2024-03-13T13:21:27Z</time>
      </trkpt>
      <trkpt lat="44.42431" lon="1.61158">
        <ele>347</ele>
        <time>2024-03-13T13:21:28Z</time>
      </trkpt>
      <trkpt lat="44.42431" lon="1.61156">
        <ele>347</ele>
        <time>2024-03-13T13:21:29Z</time>
      </trkpt>
      <trkpt lat="44.42431" lon="1.61154">
        <ele>348</ele>
        <time>2024-03-13T13:21:30Z</time>
      </trkpt>
      <trkpt lat="44.42431" lon="1.61151">
        <ele>347</ele>
        <time>2024-03-13T13:21:31Z</time>
      </trkpt>
      <trkpt lat="44.42432" lon="1.61149">
        <ele>348</ele>
        <time>2024-03-13T13:21:32Z</time>
      </trkpt>
      <trkpt lat="44.42432" lon="1.61147">
        <ele>347</ele>
        <time>2024-03-13T13:21:33Z</time>
      </trkpt>
      <trkpt lat="44.42432" lon="1.61145">
        <ele>347</ele>
        <time>2024-03-13T13:21:34Z</time>
      </trkpt>
      <trkpt lat="44.42433" lon="1.61142">
        <ele>347</ele>
        <time>2024-03-13T13:21:35Z</time>
      </trkpt>
      <trkpt lat="44.42434" lon="1.61139">
        <ele>347</ele>
        <time>2024-03-13T13:21:36Z</time>
      </trkpt>
      <trkpt lat="44.42434" lon="1.61137">
        <ele>347</ele>
        <time>2024-03-13T13:21:37Z</time>
      </trkpt>
      <trkpt lat="44.42435" lon="1.61135">
        <ele>347</ele>
        <time>2024-03-13T13:21:38Z</time>
      </trkpt>
      <trkpt lat="44.42435" lon="1.61133">
        <ele>347</ele>
        <time>2024-03-13T13:21:39Z</time>
      </trkpt>
      <trkpt lat="44.42435" lon="1.61131">
        <ele>347</ele>
        <time>2024-03-13T13:21:40Z</time>
      </trkpt>
      <trkpt lat="44.42437" lon="1.6113">
        <ele>347</ele>
        <time>2024-03-13T13:21:41Z</time>
      </trkpt>
      <trkpt lat="44.42436" lon="1.61129">
        <ele>347</ele>
        <time>2024-03-13T13:21:42Z</time>
      </trkpt>
      <trkpt lat="44.42437" lon="1.61128">
        <ele>346</ele>
        <time>2024-03-13T13:21:43Z</time>
      </trkpt>
      <trkpt lat="44.42436" lon="1.61126">
        <ele>346</ele>
        <time>2024-03-13T13:21:44Z</time>
      </trkpt>
      <trkpt lat="44.42437" lon="1.61125">
        <ele>346</ele>
        <time>2024-03-13T13:21:45Z</time>
      </trkpt>
      <trkpt lat="44.42436" lon="1.61123">
        <ele>346</ele>
        <time>2024-03-13T13:21:46Z</time>
      </trkpt>
      <trkpt lat="44.42437" lon="1.61121">
        <ele>346</ele>
        <time>2024-03-13T13:21:47Z</time>
      </trkpt>
      <trkpt lat="44.42437" lon="1.61119">
        <ele>346</ele>
        <time>2024-03-13T13:21:48Z</time>
      </trkpt>
      <trkpt lat="44.42438" lon="1.61117">
        <ele>346</ele>
        <time>2024-03-13T13:21:49Z</time>
      </trkpt>
      <trkpt lat="44.42438" lon="1.61116">
        <ele>347</ele>
        <time>2024-03-13T13:21:50Z</time>
      </trkpt>
      <trkpt lat="44.42438" lon="1.61114">
        <ele>347</ele>
        <time>2024-03-13T13:21:51Z</time>
      </trkpt>
      <trkpt lat="44.42438" lon="1.61112">
        <ele>347</ele>
        <time>2024-03-13T13:21:52Z</time>
      </trkpt>
      <trkpt lat="44.42438" lon="1.61111">
        <ele>347</ele>
        <time>2024-03-13T13:21:53Z</time>
      </trkpt>
      <trkpt lat="44.42438" lon="1.61109">
        <ele>347</ele>
        <time>2024-03-13T13:21:54Z</time>
      </trkpt>
      <trkpt lat="44.42438" lon="1.61108">
        <ele>348</ele>
        <time>2024-03-13T13:21:55Z</time>
      </trkpt>
      <trkpt lat="44.42438" lon="1.61106">
        <ele>348</ele>
        <time>2024-03-13T13:21:56Z</time>
      </trkpt>
      <trkpt lat="44.42438" lon="1.61105">
        <ele>348</ele>
        <time>2024-03-13T13:21:57Z</time>
      </trkpt>
      <trkpt lat="44.42438" lon="1.61105">
        <ele>347</ele>
        <time>2024-03-13T13:21:58Z</time>
      </trkpt>
      <trkpt lat="44.42438" lon="1.61105">
        <ele>347</ele>
        <time>2024-03-13T13:21:59Z</time>
      </trkpt>
      <trkpt lat="44.42438" lon="1.61105">
        <ele>347</ele>
        <time>2024-03-13T13:22:00Z</time>
      </trkpt>
      <trkpt lat="44.42438" lon="1.61105">
        <ele>347</ele>
        <time>2024-03-13T13:22:01Z</time>
      </trkpt>
      <trkpt lat="44.42439" lon="1.61101">
        <ele>348</ele>
        <time>2024-03-13T13:22:02Z</time>
      </trkpt>
      <trkpt lat="44.42439" lon="1.61098">
        <ele>348</ele>
        <time>2024-03-13T13:22:03Z</time>
      </trkpt>
      <trkpt lat="44.4244" lon="1.61096">
        <ele>348</ele>
        <time>2024-03-13T13:22:04Z</time>
      </trkpt>
      <trkpt lat="44.42441" lon="1.61094">
        <ele>348</ele>
        <time>2024-03-13T13:22:05Z</time>
      </trkpt>
      <trkpt lat="44.42442" lon="1.61093">
        <ele>347</ele>
        <time>2024-03-13T13:22:06Z</time>
      </trkpt>
      <trkpt lat="44.42443" lon="1.61091">
        <ele>347</ele>
        <time>2024-03-13T13:22:07Z</time>
      </trkpt>
      <trkpt lat="44.42443" lon="1.6109">
        <ele>348</ele>
        <time>2024-03-13T13:22:08Z</time>
      </trkpt>
      <trkpt lat="44.42443" lon="1.61089">
        <ele>347</ele>
        <time>2024-03-13T13:22:09Z</time>
      </trkpt>
      <trkpt lat="44.42443" lon="1.61087">
        <ele>347</ele>
        <time>2024-03-13T13:22:10Z</time>
      </trkpt>
      <trkpt lat="44.42444" lon="1.61085">
        <ele>347</ele>
        <time>2024-03-13T13:22:11Z</time>
      </trkpt>
      <trkpt lat="44.42444" lon="1.61083">
        <ele>347</ele>
        <time>2024-03-13T13:22:12Z</time>
      </trkpt>
      <trkpt lat="44.42444" lon="1.61082">
        <ele>347</ele>
        <time>2024-03-13T13:22:13Z</time>
      </trkpt>
      <trkpt lat="44.42444" lon="1.6108">
        <ele>346</ele>
        <time>2024-03-13T13:22:14Z</time>
      </trkpt>
      <trkpt lat="44.42444" lon="1.61079">
        <ele>346</ele>
        <time>2024-03-13T13:22:15Z</time>
      </trkpt>
      <trkpt lat="44.42444" lon="1.61077">
        <ele>346</ele>
        <time>2024-03-13T13:22:16Z</time>
      </trkpt>
      <trkpt lat="44.42445" lon="1.61076">
        <ele>346</ele>
        <time>2024-03-13T13:22:17Z</time>
      </trkpt>
      <trkpt lat="44.42445" lon="1.61074">
        <ele>345</ele>
        <time>2024-03-13T13:22:18Z</time>
      </trkpt>
      <trkpt lat="44.42445" lon="1.61072">
        <ele>345</ele>
        <time>2024-03-13T13:22:19Z</time>
      </trkpt>
      <trkpt lat="44.42445" lon="1.6107">
        <ele>345</ele>
        <time>2024-03-13T13:22:20Z</time>
      </trkpt>
      <trkpt lat="44.42445" lon="1.61068">
        <ele>345</ele>
        <time>2024-03-13T13:22:21Z</time>
      </trkpt>
      <trkpt lat="44.42446" lon="1.61067">
        <ele>346</ele>
        <time>2024-03-13T13:22:22Z</time>
      </trkpt>
      <trkpt lat="44.42446" lon="1.61066">
        <ele>346</ele>
        <time>2024-03-13T13:22:23Z</time>
      </trkpt>
      <trkpt lat="44.42447" lon="1.61065">
        <ele>347</ele>
        <time>2024-03-13T13:22:24Z</time>
      </trkpt>
      <trkpt lat="44.42447" lon="1.61062">
        <ele>347</ele>
        <time>2024-03-13T13:22:25Z</time>
      </trkpt>
      <trkpt lat="44.42448" lon="1.6106">
        <ele>347</ele>
        <time>2024-03-13T13:22:26Z</time>
      </trkpt>
      <trkpt lat="44.42448" lon="1.61058">
        <ele>346</ele>
        <time>2024-03-13T13:22:27Z</time>
      </trkpt>
      <trkpt lat="44.42448" lon="1.61057">
        <ele>346</ele>
        <time>2024-03-13T13:22:28Z</time>
      </trkpt>
      <trkpt lat="44.42449" lon="1.61056">
        <ele>346</ele>
        <time>2024-03-13T13:22:29Z</time>
      </trkpt>
      <trkpt lat="44.42449" lon="1.61056">
        <ele>345</ele>
        <time>2024-03-13T13:22:30Z</time>
      </trkpt>
      <trkpt lat="44.42449" lon="1.61055">
        <ele>345</ele>
        <time>2024-03-13T13:22:31Z</time>
      </trkpt>
      <trkpt lat="44.42449" lon="1.61053">
        <ele>345</ele>
        <time>2024-03-13T13:22:32Z</time>
      </trkpt>
      <trkpt lat="44.42449" lon="1.61052">
        <ele>345</ele>
        <time>2024-03-13T13:22:33Z</time>
      </trkpt>
      <trkpt lat="44.4245" lon="1.6105">
        <ele>345</ele>
        <time>2024-03-13T13:22:34Z</time>
      </trkpt>
      <trkpt lat="44.4245" lon="1.61049">
        <ele>345</ele>
        <time>2024-03-13T13:22:35Z</time>
      </trkpt>
      <trkpt lat="44.42451" lon="1.61048">
        <ele>345</ele>
        <time>2024-03-13T13:22:36Z</time>
      </trkpt>
      <trkpt lat="44.42451" lon="1.61047">
        <ele>346</ele>
        <time>2024-03-13T13:22:37Z</time>
      </trkpt>
      <trkpt lat="44.42451" lon="1.61046">
        <ele>346</ele>
        <time>2024-03-13T13:22:38Z</time>
      </trkpt>
      <trkpt lat="44.42451" lon="1.61045">
        <ele>346</ele>
        <time>2024-03-13T13:22:39Z</time>
      </trkpt>
      <trkpt lat="44.42452" lon="1.61043">
        <ele>346</ele>
        <time>2024-03-13T13:22:40Z</time>
      </trkpt>
      <trkpt lat="44.42452" lon="1.61042">
        <ele>346</ele>
        <time>2024-03-13T13:22:41Z</time>
      </trkpt>
      <trkpt lat="44.42453" lon="1.6104">
        <ele>346</ele>
        <time>2024-03-13T13:22:42Z</time>
      </trkpt>
      <trkpt lat="44.42453" lon="1.61039">
        <ele>346</ele>
        <time>2024-03-13T13:22:43Z</time>
      </trkpt>
      <trkpt lat="44.42454" lon="1.61038">
        <ele>346</ele>
        <time>2024-03-13T13:22:44Z</time>
      </trkpt>
      <trkpt lat="44.42454" lon="1.61036">
        <ele>345</ele>
        <time>2024-03-13T13:22:45Z</time>
      </trkpt>
      <trkpt lat="44.42454" lon="1.61034">
        <ele>346</ele>
        <time>2024-03-13T13:22:46Z</time>
      </trkpt>
      <trkpt lat="44.42455" lon="1.61032">
        <ele>346</ele>
        <time>2024-03-13T13:22:47Z</time>
      </trkpt>
      <trkpt lat="44.42455" lon="1.6103">
        <ele>346</ele>
        <time>2024-03-13T13:22:48Z</time>
      </trkpt>
      <trkpt lat="44.42455" lon="1.61028">
        <ele>346</ele>
        <time>2024-03-13T13:22:49Z</time>
      </trkpt>
      <trkpt lat="44.42456" lon="1.61027">
        <ele>346</ele>
        <time>2024-03-13T13:22:50Z</time>
      </trkpt>
      <trkpt lat="44.42456" lon="1.61025">
        <ele>345</ele>
        <time>2024-03-13T13:22:51Z</time>
      </trkpt>
      <trkpt lat="44.42456" lon="1.61024">
        <ele>346</ele>
        <time>2024-03-13T13:22:52Z</time>
      </trkpt>
      <trkpt lat="44.42456" lon="1.61023">
        <ele>346</ele>
        <time>2024-03-13T13:22:53Z</time>
      </trkpt>
      <trkpt lat="44.42456" lon="1.61021">
        <ele>346</ele>
        <time>2024-03-13T13:22:54Z</time>
      </trkpt>
      <trkpt lat="44.42456" lon="1.61019">
        <ele>346</ele>
        <time>2024-03-13T13:22:55Z</time>
      </trkpt>
      <trkpt lat="44.42457" lon="1.61017">
        <ele>346</ele>
        <time>2024-03-13T13:22:56Z</time>
      </trkpt>
      <trkpt lat="44.42458" lon="1.61016">
        <ele>346</ele>
        <time>2024-03-13T13:22:57Z</time>
      </trkpt>
      <trkpt lat="44.42458" lon="1.61014">
        <ele>346</ele>
        <time>2024-03-13T13:22:58Z</time>
      </trkpt>
      <trkpt lat="44.42459" lon="1.61013">
        <ele>347</ele>
        <time>2024-03-13T13:22:59Z</time>
      </trkpt>
      <trkpt lat="44.42459" lon="1.61012">
        <ele>346</ele>
        <time>2024-03-13T13:23:00Z</time>
      </trkpt>
      <trkpt lat="44.4246" lon="1.6101">
        <ele>346</ele>
        <time>2024-03-13T13:23:01Z</time>
      </trkpt>
      <trkpt lat="44.42461" lon="1.61009">
        <ele>347</ele>
        <time>2024-03-13T13:23:02Z</time>
      </trkpt>
      <trkpt lat="44.42461" lon="1.61007">
        <ele>347</ele>
        <time>2024-03-13T13:23:03Z</time>
      </trkpt>
      <trkpt lat="44.42461" lon="1.61006">
        <ele>346</ele>
        <time>2024-03-13T13:23:04Z</time>
      </trkpt>
      <trkpt lat="44.42461" lon="1.61005">
        <ele>346</ele>
        <time>2024-03-13T13:23:05Z</time>
      </trkpt>
      <trkpt lat="44.42461" lon="1.61004">
        <ele>346</ele>
        <time>2024-03-13T13:23:06Z</time>
      </trkpt>
      <trkpt lat="44.42461" lon="1.61002">
        <ele>346</ele>
        <time>2024-03-13T13:23:07Z</time>
      </trkpt>
      <trkpt lat="44.42462" lon="1.61001">
        <ele>346</ele>
        <time>2024-03-13T13:23:08Z</time>
      </trkpt>
      <trkpt lat="44.42462" lon="1.61">
        <ele>346</ele>
        <time>2024-03-13T13:23:09Z</time>
      </trkpt>
      <trkpt lat="44.42462" lon="1.61">
        <ele>346</ele>
        <time>2024-03-13T13:23:10Z</time>
      </trkpt>
      <trkpt lat="44.42462" lon="1.60995">
        <ele>346</ele>
        <time>2024-03-13T13:23:12Z</time>
      </trkpt>
      <trkpt lat="44.42462" lon="1.60993">
        <ele>346</ele>
        <time>2024-03-13T13:23:13Z</time>
      </trkpt>
      <trkpt lat="44.42462" lon="1.60991">
        <ele>346</ele>
        <time>2024-03-13T13:23:14Z</time>
      </trkpt>
      <trkpt lat="44.42462" lon="1.60989">
        <ele>346</ele>
        <time>2024-03-13T13:23:15Z</time>
      </trkpt>
      <trkpt lat="44.42462" lon="1.60988">
        <ele>346</ele>
        <time>2024-03-13T13:23:16Z</time>
      </trkpt>
      <trkpt lat="44.42462" lon="1.60986">
        <ele>346</ele>
        <time>2024-03-13T13:23:17Z</time>
      </trkpt>
      <trkpt lat="44.42462" lon="1.60985">
        <ele>346</ele>
        <time>2024-03-13T13:23:18Z</time>
      </trkpt>
      <trkpt lat="44.42462" lon="1.60983">
        <ele>346</ele>
        <time>2024-03-13T13:23:19Z</time>
      </trkpt>
      <trkpt lat="44.42463" lon="1.60982">
        <ele>346</ele>
        <time>2024-03-13T13:23:20Z</time>
      </trkpt>
      <trkpt lat="44.42463" lon="1.6098">
        <ele>346</ele>
        <time>2024-03-13T13:23:21Z</time>
      </trkpt>
      <trkpt lat="44.42463" lon="1.60979">
        <ele>346</ele>
        <time>2024-03-13T13:23:22Z</time>
      </trkpt>
      <trkpt lat="44.42464" lon="1.60977">
        <ele>347</ele>
        <time>2024-03-13T13:23:23Z</time>
      </trkpt>
      <trkpt lat="44.42464" lon="1.60975">
        <ele>347</ele>
        <time>2024-03-13T13:23:24Z</time>
      </trkpt>
      <trkpt lat="44.42465" lon="1.60973">
        <ele>347</ele>
        <time>2024-03-13T13:23:25Z</time>
      </trkpt>
      <trkpt lat="44.42465" lon="1.60971">
        <ele>347</ele>
        <time>2024-03-13T13:23:26Z</time>
      </trkpt>
      <trkpt lat="44.42466" lon="1.6097">
        <ele>348</ele>
        <time>2024-03-13T13:23:27Z</time>
      </trkpt>
      <trkpt lat="44.42466" lon="1.60969">
        <ele>348</ele>
        <time>2024-03-13T13:23:28Z</time>
      </trkpt>
      <trkpt lat="44.42466" lon="1.60967">
        <ele>348</ele>
        <time>2024-03-13T13:23:29Z</time>
      </trkpt>
      <trkpt lat="44.42466" lon="1.60965">
        <ele>348</ele>
        <time>2024-03-13T13:23:30Z</time>
      </trkpt>
      <trkpt lat="44.42466" lon="1.60964">
        <ele>348</ele>
        <time>2024-03-13T13:23:31Z</time>
      </trkpt>
      <trkpt lat="44.42465" lon="1.60963">
        <ele>348</ele>
        <time>2024-03-13T13:23:32Z</time>
      </trkpt>
      <trkpt lat="44.42465" lon="1.60962">
        <ele>348</ele>
        <time>2024-03-13T13:23:33Z</time>
      </trkpt>
      <trkpt lat="44.42465" lon="1.60961">
        <ele>348</ele>
        <time>2024-03-13T13:23:34Z</time>
      </trkpt>
      <trkpt lat="44.42465" lon="1.60959">
        <ele>347</ele>
        <time>2024-03-13T13:23:35Z</time>
      </trkpt>
      <trkpt lat="44.42466" lon="1.60958">
        <ele>347</ele>
        <time>2024-03-13T13:23:36Z</time>
      </trkpt>
      <trkpt lat="44.42466" lon="1.60956">
        <ele>348</ele>
        <time>2024-03-13T13:23:37Z</time>
      </trkpt>
      <trkpt lat="44.42466" lon="1.60954">
        <ele>347</ele>
        <time>2024-03-13T13:23:38Z</time>
      </trkpt>
      <trkpt lat="44.42467" lon="1.60952">
        <ele>347</ele>
        <time>2024-03-13T13:23:39Z</time>
      </trkpt>
      <trkpt lat="44.42468" lon="1.60951">
        <ele>347</ele>
        <time>2024-03-13T13:23:40Z</time>
      </trkpt>
      <trkpt lat="44.42468" lon="1.60949">
        <ele>347</ele>
        <time>2024-03-13T13:23:41Z</time>
      </trkpt>
      <trkpt lat="44.42469" lon="1.60947">
        <ele>347</ele>
        <time>2024-03-13T13:23:42Z</time>
      </trkpt>
      <trkpt lat="44.42469" lon="1.60946">
        <ele>347</ele>
        <time>2024-03-13T13:23:43Z</time>
      </trkpt>
      <trkpt lat="44.42469" lon="1.60944">
        <ele>347</ele>
        <time>2024-03-13T13:23:44Z</time>
      </trkpt>
      <trkpt lat="44.4247" lon="1.60943">
        <ele>346</ele>
        <time>2024-03-13T13:23:45Z</time>
      </trkpt>
      <trkpt lat="44.4247" lon="1.60942">
        <ele>346</ele>
        <time>2024-03-13T13:23:46Z</time>
      </trkpt>
      <trkpt lat="44.42471" lon="1.60941">
        <ele>347</ele>
        <time>2024-03-13T13:23:47Z</time>
      </trkpt>
      <trkpt lat="44.42471" lon="1.60939">
        <ele>347</ele>
        <time>2024-03-13T13:23:48Z</time>
      </trkpt>
      <trkpt lat="44.42472" lon="1.60937">
        <ele>347</ele>
        <time>2024-03-13T13:23:49Z</time>
      </trkpt>
      <trkpt lat="44.42473" lon="1.60935">
        <ele>348</ele>
        <time>2024-03-13T13:23:50Z</time>
      </trkpt>
      <trkpt lat="44.42473" lon="1.60934">
        <ele>348</ele>
        <time>2024-03-13T13:23:51Z</time>
      </trkpt>
      <trkpt lat="44.42474" lon="1.60932">
        <ele>348</ele>
        <time>2024-03-13T13:23:52Z</time>
      </trkpt>
      <trkpt lat="44.42474" lon="1.60931">
        <ele>349</ele>
        <time>2024-03-13T13:23:53Z</time>
      </trkpt>
      <trkpt lat="44.42475" lon="1.60929">
        <ele>348</ele>
        <time>2024-03-13T13:23:54Z</time>
      </trkpt>
      <trkpt lat="44.42475" lon="1.60928">
        <ele>348</ele>
        <time>2024-03-13T13:23:55Z</time>
      </trkpt>
      <trkpt lat="44.42476" lon="1.60926">
        <ele>349</ele>
        <time>2024-03-13T13:23:56Z</time>
      </trkpt>
      <trkpt lat="44.42476" lon="1.60924">
        <ele>349</ele>
        <time>2024-03-13T13:23:57Z</time>
      </trkpt>
      <trkpt lat="44.42476" lon="1.60923">
        <ele>349</ele>
        <time>2024-03-13T13:23:58Z</time>
      </trkpt>
      <trkpt lat="44.42476" lon="1.60921">
        <ele>349</ele>
        <time>2024-03-13T13:23:59Z</time>
      </trkpt>
      <trkpt lat="44.42477" lon="1.60919">
        <ele>349</ele>
        <time>2024-03-13T13:24:00Z</time>
      </trkpt>
      <trkpt lat="44.42477" lon="1.60918">
        <ele>348</ele>
        <time>2024-03-13T13:24:01Z</time>
      </trkpt>
      <trkpt lat="44.42477" lon="1.60916">
        <ele>349</ele>
        <time>2024-03-13T13:24:02Z</time>
      </trkpt>
      <trkpt lat="44.42477" lon="1.60914">
        <ele>349</ele>
        <time>2024-03-13T13:24:03Z</time>
      </trkpt>
      <trkpt lat="44.42477" lon="1.60913">
        <ele>349</ele>
        <time>2024-03-13T13:24:04Z</time>
      </trkpt>
      <trkpt lat="44.42477" lon="1.60911">
        <ele>350</ele>
        <time>2024-03-13T13:24:05Z</time>
      </trkpt>
      <trkpt lat="44.42478" lon="1.60909">
        <ele>350</ele>
        <time>2024-03-13T13:24:06Z</time>
      </trkpt>
      <trkpt lat="44.42479" lon="1.60907">
        <ele>350</ele>
        <time>2024-03-13T13:24:07Z</time>
      </trkpt>
      <trkpt lat="44.42479" lon="1.60906">
        <ele>350</ele>
        <time>2024-03-13T13:24:08Z</time>
      </trkpt>
      <trkpt lat="44.42479" lon="1.60904">
        <ele>350</ele>
        <time>2024-03-13T13:24:09Z</time>
      </trkpt>
      <trkpt lat="44.42479" lon="1.60902">
        <ele>350</ele>
        <time>2024-03-13T13:24:10Z</time>
      </trkpt>
      <trkpt lat="44.4248" lon="1.60901">
        <ele>350</ele>
        <time>2024-03-13T13:24:11Z</time>
      </trkpt>
      <trkpt lat="44.4248" lon="1.609">
        <ele>350</ele>
        <time>2024-03-13T13:24:12Z</time>
      </trkpt>
      <trkpt lat="44.4248" lon="1.60899">
        <ele>350</ele>
        <time>2024-03-13T13:24:13Z</time>
      </trkpt>
      <trkpt lat="44.4248" lon="1.60897">
        <ele>350</ele>
        <time>2024-03-13T13:24:14Z</time>
      </trkpt>
      <trkpt lat="44.4248" lon="1.60896">
        <ele>350</ele>
        <time>2024-03-13T13:24:15Z</time>
      </trkpt>
      <trkpt lat="44.42481" lon="1.60895">
        <ele>351</ele>
        <time>2024-03-13T13:24:16Z</time>
      </trkpt>
      <trkpt lat="44.42482" lon="1.60893">
        <ele>351</ele>
        <time>2024-03-13T13:24:17Z</time>
      </trkpt>
      <trkpt lat="44.42482" lon="1.60892">
        <ele>351</ele>
        <time>2024-03-13T13:24:18Z</time>
      </trkpt>
      <trkpt lat="44.42482" lon="1.60891">
        <ele>351</ele>
        <time>2024-03-13T13:24:19Z</time>
      </trkpt>
      <trkpt lat="44.42483" lon="1.60889">
        <ele>351</ele>
        <time>2024-03-13T13:24:20Z</time>
      </trkpt>
      <trkpt lat="44.42483" lon="1.60887">
        <ele>351</ele>
        <time>2024-03-13T13:24:21Z</time>
      </trkpt>
      <trkpt lat="44.42483" lon="1.60886">
        <ele>350</ele>
        <time>2024-03-13T13:24:22Z</time>
      </trkpt>
      <trkpt lat="44.42483" lon="1.60884">
        <ele>350</ele>
        <time>2024-03-13T13:24:23Z</time>
      </trkpt>
      <trkpt lat="44.42484" lon="1.60883">
        <ele>351</ele>
        <time>2024-03-13T13:24:24Z</time>
      </trkpt>
      <trkpt lat="44.42484" lon="1.60881">
        <ele>351</ele>
        <time>2024-03-13T13:24:25Z</time>
      </trkpt>
      <trkpt lat="44.42484" lon="1.6088">
        <ele>351</ele>
        <time>2024-03-13T13:24:26Z</time>
      </trkpt>
      <trkpt lat="44.42484" lon="1.60878">
        <ele>351</ele>
        <time>2024-03-13T13:24:27Z</time>
      </trkpt>
      <trkpt lat="44.42484" lon="1.60876">
        <ele>350</ele>
        <time>2024-03-13T13:24:28Z</time>
      </trkpt>
      <trkpt lat="44.42484" lon="1.60874">
        <ele>350</ele>
        <time>2024-03-13T13:24:29Z</time>
      </trkpt>
      <trkpt lat="44.42485" lon="1.60872">
        <ele>350</ele>
        <time>2024-03-13T13:24:30Z</time>
      </trkpt>
      <trkpt lat="44.42485" lon="1.60871">
        <ele>350</ele>
        <time>2024-03-13T13:24:31Z</time>
      </trkpt>
      <trkpt lat="44.42485" lon="1.60869">
        <ele>350</ele>
        <time>2024-03-13T13:24:32Z</time>
      </trkpt>
      <trkpt lat="44.42486" lon="1.60867">
        <ele>350</ele>
        <time>2024-03-13T13:24:33Z</time>
      </trkpt>
      <trkpt lat="44.42486" lon="1.60866">
        <ele>350</ele>
        <time>2024-03-13T13:24:34Z</time>
      </trkpt>
      <trkpt lat="44.42485" lon="1.60865">
        <ele>350</ele>
        <time>2024-03-13T13:24:35Z</time>
      </trkpt>
      <trkpt lat="44.42486" lon="1.60865">
        <ele>351</ele>
        <time>2024-03-13T13:24:36Z</time>
      </trkpt>
      <trkpt lat="44.42486" lon="1.60863">
        <ele>351</ele>
        <time>2024-03-13T13:24:37Z</time>
      </trkpt>
      <trkpt lat="44.42487" lon="1.60862">
        <ele>351</ele>
        <time>2024-03-13T13:24:38Z</time>
      </trkpt>
      <trkpt lat="44.42486" lon="1.6086">
        <ele>351</ele>
        <time>2024-03-13T13:24:39Z</time>
      </trkpt>
      <trkpt lat="44.42486" lon="1.60858">
        <ele>351</ele>
        <time>2024-03-13T13:24:40Z</time>
      </trkpt>
      <trkpt lat="44.42486" lon="1.60856">
        <ele>351</ele>
        <time>2024-03-13T13:24:41Z</time>
      </trkpt>
      <trkpt lat="44.42487" lon="1.60855">
        <ele>351</ele>
        <time>2024-03-13T13:24:42Z</time>
      </trkpt>
      <trkpt lat="44.42487" lon="1.60853">
        <ele>351</ele>
        <time>2024-03-13T13:24:43Z</time>
      </trkpt>
      <trkpt lat="44.42487" lon="1.60852">
        <ele>352</ele>
        <time>2024-03-13T13:24:44Z</time>
      </trkpt>
      <trkpt lat="44.42487" lon="1.6085">
        <ele>351</ele>
        <time>2024-03-13T13:24:45Z</time>
      </trkpt>
      <trkpt lat="44.42487" lon="1.60848">
        <ele>351</ele>
        <time>2024-03-13T13:24:46Z</time>
      </trkpt>
      <trkpt lat="44.42488" lon="1.60847">
        <ele>351</ele>
        <time>2024-03-13T13:24:47Z</time>
      </trkpt>
      <trkpt lat="44.42489" lon="1.60845">
        <ele>351</ele>
        <time>2024-03-13T13:24:48Z</time>
      </trkpt>
      <trkpt lat="44.4249" lon="1.60843">
        <ele>351</ele>
        <time>2024-03-13T13:24:49Z</time>
      </trkpt>
      <trkpt lat="44.4249" lon="1.60841">
        <ele>351</ele>
        <time>2024-03-13T13:24:50Z</time>
      </trkpt>
      <trkpt lat="44.42491" lon="1.6084">
        <ele>351</ele>
        <time>2024-03-13T13:24:51Z</time>
      </trkpt>
      <trkpt lat="44.42491" lon="1.60839">
        <ele>351</ele>
        <time>2024-03-13T13:24:52Z</time>
      </trkpt>
      <trkpt lat="44.42492" lon="1.60837">
        <ele>351</ele>
        <time>2024-03-13T13:24:53Z</time>
      </trkpt>
      <trkpt lat="44.42492" lon="1.60836">
        <ele>350</ele>
        <time>2024-03-13T13:24:54Z</time>
      </trkpt>
      <trkpt lat="44.42493" lon="1.60835">
        <ele>350</ele>
        <time>2024-03-13T13:24:55Z</time>
      </trkpt>
      <trkpt lat="44.42493" lon="1.60835">
        <ele>350</ele>
        <time>2024-03-13T13:24:56Z</time>
      </trkpt>
      <trkpt lat="44.42493" lon="1.60835">
        <ele>351</ele>
        <time>2024-03-13T13:24:57Z</time>
      </trkpt>
      <trkpt lat="44.42493" lon="1.60835">
        <ele>351</ele>
        <time>2024-03-13T13:24:58Z</time>
      </trkpt>
      <trkpt lat="44.42493" lon="1.60834">
        <ele>351</ele>
        <time>2024-03-13T13:24:59Z</time>
      </trkpt>
      <trkpt lat="44.42494" lon="1.60833">
        <ele>351</ele>
        <time>2024-03-13T13:25:00Z</time>
      </trkpt>
      <trkpt lat="44.42494" lon="1.60831">
        <ele>352</ele>
        <time>2024-03-13T13:25:01Z</time>
      </trkpt>
      <trkpt lat="44.42494" lon="1.6083">
        <ele>352</ele>
        <time>2024-03-13T13:25:02Z</time>
      </trkpt>
      <trkpt lat="44.42494" lon="1.60828">
        <ele>351</ele>
        <time>2024-03-13T13:25:03Z</time>
      </trkpt>
      <trkpt lat="44.42494" lon="1.60827">
        <ele>351</ele>
        <time>2024-03-13T13:25:04Z</time>
      </trkpt>
      <trkpt lat="44.42494" lon="1.60825">
        <ele>351</ele>
        <time>2024-03-13T13:25:05Z</time>
      </trkpt>
      <trkpt lat="44.42493" lon="1.60823">
        <ele>351</ele>
        <time>2024-03-13T13:25:06Z</time>
      </trkpt>
      <trkpt lat="44.42493" lon="1.60822">
        <ele>351</ele>
        <time>2024-03-13T13:25:07Z</time>
      </trkpt>
      <trkpt lat="44.42494" lon="1.60821">
        <ele>351</ele>
        <time>2024-03-13T13:25:08Z</time>
      </trkpt>
      <trkpt lat="44.42494" lon="1.6082">
        <ele>351</ele>
        <time>2024-03-13T13:25:09Z</time>
      </trkpt>
      <trkpt lat="44.42494" lon="1.60819">
        <ele>351</ele>
        <time>2024-03-13T13:25:10Z</time>
      </trkpt>
      <trkpt lat="44.42495" lon="1.60818">
        <ele>351</ele>
        <time>2024-03-13T13:25:11Z</time>
      </trkpt>
      <trkpt lat="44.42496" lon="1.60816">
        <ele>351</ele>
        <time>2024-03-13T13:25:12Z</time>
      </trkpt>
      <trkpt lat="44.42496" lon="1.60815">
        <ele>351</ele>
        <time>2024-03-13T13:25:13Z</time>
      </trkpt>
      <trkpt lat="44.42496" lon="1.60814">
        <ele>351</ele>
        <time>2024-03-13T13:25:14Z</time>
      </trkpt>
      <trkpt lat="44.42496" lon="1.60813">
        <ele>351</ele>
        <time>2024-03-13T13:25:15Z</time>
      </trkpt>
      <trkpt lat="44.42496" lon="1.60811">
        <ele>352</ele>
        <time>2024-03-13T13:25:16Z</time>
      </trkpt>
      <trkpt lat="44.42496" lon="1.60812">
        <ele>352</ele>
        <time>2024-03-13T13:25:17Z</time>
      </trkpt>
      <trkpt lat="44.42496" lon="1.60812">
        <ele>352</ele>
        <time>2024-03-13T13:25:18Z</time>
      </trkpt>
      <trkpt lat="44.42496" lon="1.60811">
        <ele>352</ele>
        <time>2024-03-13T13:25:19Z</time>
      </trkpt>
      <trkpt lat="44.42496" lon="1.60811">
        <ele>352</ele>
        <time>2024-03-13T13:25:20Z</time>
      </trkpt>
      <trkpt lat="44.42496" lon="1.60811">
        <ele>352</ele>
        <time>2024-03-13T13:25:21Z</time>
      </trkpt>
      <trkpt lat="44.42496" lon="1.60811">
        <ele>352</ele>
        <time>2024-03-13T13:25:22Z</time>
      </trkpt>
      <trkpt lat="44.42496" lon="1.60811">
        <ele>352</ele>
        <time>2024-03-13T13:25:23Z</time>
      </trkpt>
      <trkpt lat="44.42496" lon="1.60811">
        <ele>352</ele>
        <time>2024-03-13T13:25:24Z</time>
      </trkpt>
      <trkpt lat="44.42496" lon="1.60811">
        <ele>352</ele>
        <time>2024-03-13T13:25:25Z</time>
      </trkpt>
      <trkpt lat="44.42496" lon="1.60811">
        <ele>352</ele>
        <time>2024-03-13T13:25:26Z</time>
      </trkpt>
      <trkpt lat="44.42496" lon="1.60811">
        <ele>352</ele>
        <time>2024-03-13T13:25:27Z</time>
      </trkpt>
      <trkpt lat="44.42496" lon="1.60811">
        <ele>352</ele>
        <time>2024-03-13T13:25:28Z</time>
      </trkpt>
      <trkpt lat="44.42497" lon="1.6081">
        <ele>353</ele>
        <time>2024-03-13T13:25:29Z</time>
      </trkpt>
      <trkpt lat="44.42497" lon="1.6081">
        <ele>353</ele>
        <time>2024-03-13T13:25:30Z</time>
      </trkpt>
      <trkpt lat="44.42498" lon="1.60809">
        <ele>352</ele>
        <time>2024-03-13T13:25:31Z</time>
      </trkpt>
      <trkpt lat="44.42498" lon="1.60809">
        <ele>352</ele>
        <time>2024-03-13T13:25:32Z</time>
      </trkpt>
      <trkpt lat="44.42498" lon="1.60809">
        <ele>352</ele>
        <time>2024-03-13T13:25:33Z</time>
      </trkpt>
      <trkpt lat="44.42499" lon="1.60809">
        <ele>352</ele>
        <time>2024-03-13T13:25:34Z</time>
      </trkpt>
      <trkpt lat="44.42499" lon="1.60809">
        <ele>351</ele>
        <time>2024-03-13T13:25:35Z</time>
      </trkpt>
      <trkpt lat="44.42499" lon="1.6081">
        <ele>351</ele>
        <time>2024-03-13T13:25:36Z</time>
      </trkpt>
      <trkpt lat="44.42499" lon="1.6081">
        <ele>351</ele>
        <time>2024-03-13T13:25:37Z</time>
      </trkpt>
      <trkpt lat="44.42499" lon="1.6081">
        <ele>351</ele>
        <time>2024-03-13T13:25:38Z</time>
      </trkpt>
      <trkpt lat="44.42499" lon="1.6081">
        <ele>351</ele>
        <time>2024-03-13T13:25:39Z</time>
      </trkpt>
      <trkpt lat="44.42499" lon="1.6081">
        <ele>351</ele>
        <time>2024-03-13T13:25:40Z</time>
      </trkpt>
      <trkpt lat="44.42499" lon="1.6081">
        <ele>351</ele>
        <time>2024-03-13T13:25:41Z</time>
      </trkpt>
      <trkpt lat="44.42499" lon="1.6081">
        <ele>351</ele>
        <time>2024-03-13T13:25:42Z</time>
      </trkpt>
      <trkpt lat="44.42499" lon="1.6081">
        <ele>351</ele>
        <time>2024-03-13T13:25:43Z</time>
      </trkpt>
      <trkpt lat="44.42499" lon="1.6081">
        <ele>351</ele>
        <time>2024-03-13T13:25:44Z</time>
      </trkpt>
      <trkpt lat="44.42499" lon="1.6081">
        <ele>351</ele>
        <time>2024-03-13T13:25:45Z</time>
      </trkpt>
      <trkpt lat="44.425" lon="1.60809">
        <ele>352</ele>
        <time>2024-03-13T13:25:46Z</time>
      </trkpt>
      <trkpt lat="44.425" lon="1.60809">
        <ele>352</ele>
        <time>2024-03-13T13:25:47Z</time>
      </trkpt>
      <trkpt lat="44.425" lon="1.60808">
        <ele>353</ele>
        <time>2024-03-13T13:25:48Z</time>
      </trkpt>
      <trkpt lat="44.425" lon="1.60808">
        <ele>353</ele>
        <time>2024-03-13T13:25:49Z</time>
      </trkpt>
      <trkpt lat="44.425" lon="1.60808">
        <ele>353</ele>
        <time>2024-03-13T13:25:50Z</time>
      </trkpt>
      <trkpt lat="44.425" lon="1.60808">
        <ele>353</ele>
        <time>2024-03-13T13:25:51Z</time>
      </trkpt>
      <trkpt lat="44.42501" lon="1.60806">
        <ele>352</ele>
        <time>2024-03-13T13:25:52Z</time>
      </trkpt>
      <trkpt lat="44.42501" lon="1.60805">
        <ele>353</ele>
        <time>2024-03-13T13:25:53Z</time>
      </trkpt>
      <trkpt lat="44.42501" lon="1.60804">
        <ele>352</ele>
        <time>2024-03-13T13:25:54Z</time>
      </trkpt>
      <trkpt lat="44.42502" lon="1.60803">
        <ele>353</ele>
        <time>2024-03-13T13:25:55Z</time>
      </trkpt>
      <trkpt lat="44.42502" lon="1.60802">
        <ele>352</ele>
        <time>2024-03-13T13:25:56Z</time>
      </trkpt>
      <trkpt lat="44.42503" lon="1.60801">
        <ele>352</ele>
        <time>2024-03-13T13:25:57Z</time>
      </trkpt>
      <trkpt lat="44.42503" lon="1.608">
        <ele>352</ele>
        <time>2024-03-13T13:25:58Z</time>
      </trkpt>
      <trkpt lat="44.42504" lon="1.60799">
        <ele>352</ele>
        <time>2024-03-13T13:25:59Z</time>
      </trkpt>
      <trkpt lat="44.42504" lon="1.60798">
        <ele>352</ele>
        <time>2024-03-13T13:26:00Z</time>
      </trkpt>
      <trkpt lat="44.42505" lon="1.60797">
        <ele>352</ele>
        <time>2024-03-13T13:26:01Z</time>
      </trkpt>
      <trkpt lat="44.42505" lon="1.60796">
        <ele>351</ele>
        <time>2024-03-13T13:26:02Z</time>
      </trkpt>
      <trkpt lat="44.42506" lon="1.60795">
        <ele>351</ele>
        <time>2024-03-13T13:26:03Z</time>
      </trkpt>
      <trkpt lat="44.42506" lon="1.60795">
        <ele>351</ele>
        <time>2024-03-13T13:26:04Z</time>
      </trkpt>
      <trkpt lat="44.42507" lon="1.60794">
        <ele>351</ele>
        <time>2024-03-13T13:26:05Z</time>
      </trkpt>
      <trkpt lat="44.42508" lon="1.60793">
        <ele>351</ele>
        <time>2024-03-13T13:26:06Z</time>
      </trkpt>
      <trkpt lat="44.42508" lon="1.60792">
        <ele>351</ele>
        <time>2024-03-13T13:26:07Z</time>
      </trkpt>
      <trkpt lat="44.42509" lon="1.60791">
        <ele>351</ele>
        <time>2024-03-13T13:26:08Z</time>
      </trkpt>
      <trkpt lat="44.4251" lon="1.6079">
        <ele>351</ele>
        <time>2024-03-13T13:26:09Z</time>
      </trkpt>
      <trkpt lat="44.42511" lon="1.60789">
        <ele>351</ele>
        <time>2024-03-13T13:26:10Z</time>
      </trkpt>
      <trkpt lat="44.42511" lon="1.60788">
        <ele>351</ele>
        <time>2024-03-13T13:26:11Z</time>
      </trkpt>
      <trkpt lat="44.42512" lon="1.60787">
        <ele>352</ele>
        <time>2024-03-13T13:26:12Z</time>
      </trkpt>
      <trkpt lat="44.42512" lon="1.60786">
        <ele>352</ele>
        <time>2024-03-13T13:26:13Z</time>
      </trkpt>
      <trkpt lat="44.42513" lon="1.60786">
        <ele>352</ele>
        <time>2024-03-13T13:26:14Z</time>
      </trkpt>
      <trkpt lat="44.42513" lon="1.60785">
        <ele>352</ele>
        <time>2024-03-13T13:26:15Z</time>
      </trkpt>
      <trkpt lat="44.42514" lon="1.60784">
        <ele>352</ele>
        <time>2024-03-13T13:26:16Z</time>
      </trkpt>
      <trkpt lat="44.42514" lon="1.60784">
        <ele>352</ele>
        <time>2024-03-13T13:26:17Z</time>
      </trkpt>
      <trkpt lat="44.42515" lon="1.60783">
        <ele>352</ele>
        <time>2024-03-13T13:26:18Z</time>
      </trkpt>
      <trkpt lat="44.42516" lon="1.60782">
        <ele>352</ele>
        <time>2024-03-13T13:26:19Z</time>
      </trkpt>
      <trkpt lat="44.42516" lon="1.60781">
        <ele>351</ele>
        <time>2024-03-13T13:26:20Z</time>
      </trkpt>
      <trkpt lat="44.42517" lon="1.6078">
        <ele>351</ele>
        <time>2024-03-13T13:26:21Z</time>
      </trkpt>
      <trkpt lat="44.42517" lon="1.60779">
        <ele>351</ele>
        <time>2024-03-13T13:26:22Z</time>
      </trkpt>
      <trkpt lat="44.42517" lon="1.60779">
        <ele>352</ele>
        <time>2024-03-13T13:26:23Z</time>
      </trkpt>
      <trkpt lat="44.42517" lon="1.60778">
        <ele>352</ele>
        <time>2024-03-13T13:26:24Z</time>
      </trkpt>
      <trkpt lat="44.42518" lon="1.60777">
        <ele>352</ele>
        <time>2024-03-13T13:26:25Z</time>
      </trkpt>
      <trkpt lat="44.42518" lon="1.60776">
        <ele>352</ele>
        <time>2024-03-13T13:26:26Z</time>
      </trkpt>
      <trkpt lat="44.42518" lon="1.60775">
        <ele>352</ele>
        <time>2024-03-13T13:26:27Z</time>
      </trkpt>
      <trkpt lat="44.42519" lon="1.60774">
        <ele>352</ele>
        <time>2024-03-13T13:26:28Z</time>
      </trkpt>
      <trkpt lat="44.42519" lon="1.60773">
        <ele>352</ele>
        <time>2024-03-13T13:26:29Z</time>
      </trkpt>
      <trkpt lat="44.42519" lon="1.60772">
        <ele>352</ele>
        <time>2024-03-13T13:26:30Z</time>
      </trkpt>
      <trkpt lat="44.4252" lon="1.60771">
        <ele>352</ele>
        <time>2024-03-13T13:26:31Z</time>
      </trkpt>
      <trkpt lat="44.4252" lon="1.6077">
        <ele>352</ele>
        <time>2024-03-13T13:26:32Z</time>
      </trkpt>
      <trkpt lat="44.4252" lon="1.60769">
        <ele>352</ele>
        <time>2024-03-13T13:26:33Z</time>
      </trkpt>
      <trkpt lat="44.42521" lon="1.60768">
        <ele>352</ele>
        <time>2024-03-13T13:26:34Z</time>
      </trkpt>
      <trkpt lat="44.42521" lon="1.60766">
        <ele>352</ele>
        <time>2024-03-13T13:26:35Z</time>
      </trkpt>
      <trkpt lat="44.42522" lon="1.60765">
        <ele>352</ele>
        <time>2024-03-13T13:26:36Z</time>
      </trkpt>
      <trkpt lat="44.42522" lon="1.60764">
        <ele>352</ele>
        <time>2024-03-13T13:26:37Z</time>
      </trkpt>
      <trkpt lat="44.42523" lon="1.60763">
        <ele>352</ele>
        <time>2024-03-13T13:26:38Z</time>
      </trkpt>
      <trkpt lat="44.42524" lon="1.60762">
        <ele>352</ele>
        <time>2024-03-13T13:26:39Z</time>
      </trkpt>
      <trkpt lat="44.42524" lon="1.6076">
        <ele>352</ele>
        <time>2024-03-13T13:26:40Z</time>
      </trkpt>
      <trkpt lat="44.42524" lon="1.60759">
        <ele>352</ele>
        <time>2024-03-13T13:26:41Z</time>
      </trkpt>
      <trkpt lat="44.42524" lon="1.60757">
        <ele>351</ele>
        <time>2024-03-13T13:26:42Z</time>
      </trkpt>
      <trkpt lat="44.42525" lon="1.60755">
        <ele>351</ele>
        <time>2024-03-13T13:26:43Z</time>
      </trkpt>
      <trkpt lat="44.42525" lon="1.60754">
        <ele>351</ele>
        <time>2024-03-13T13:26:44Z</time>
      </trkpt>
      <trkpt lat="44.42524" lon="1.60752">
        <ele>351</ele>
        <time>2024-03-13T13:26:45Z</time>
      </trkpt>
      <trkpt lat="44.42524" lon="1.60751">
        <ele>351</ele>
        <time>2024-03-13T13:26:46Z</time>
      </trkpt>
      <trkpt lat="44.42524" lon="1.60749">
        <ele>351</ele>
        <time>2024-03-13T13:26:47Z</time>
      </trkpt>
      <trkpt lat="44.42524" lon="1.60748">
        <ele>351</ele>
        <time>2024-03-13T13:26:48Z</time>
      </trkpt>
      <trkpt lat="44.42524" lon="1.60747">
        <ele>351</ele>
        <time>2024-03-13T13:26:49Z</time>
      </trkpt>
      <trkpt lat="44.42523" lon="1.60745">
        <ele>350</ele>
        <time>2024-03-13T13:26:50Z</time>
      </trkpt>
      <trkpt lat="44.42523" lon="1.60744">
        <ele>351</ele>
        <time>2024-03-13T13:26:51Z</time>
      </trkpt>
      <trkpt lat="44.42524" lon="1.60742">
        <ele>350</ele>
        <time>2024-03-13T13:26:52Z</time>
      </trkpt>
      <trkpt lat="44.42524" lon="1.60741">
        <ele>350</ele>
        <time>2024-03-13T13:26:53Z</time>
      </trkpt>
      <trkpt lat="44.42524" lon="1.60739">
        <ele>350</ele>
        <time>2024-03-13T13:26:54Z</time>
      </trkpt>
      <trkpt lat="44.42524" lon="1.60738">
        <ele>350</ele>
        <time>2024-03-13T13:26:55Z</time>
      </trkpt>
      <trkpt lat="44.42523" lon="1.60736">
        <ele>350</ele>
        <time>2024-03-13T13:26:56Z</time>
      </trkpt>
      <trkpt lat="44.42524" lon="1.60735">
        <ele>350</ele>
        <time>2024-03-13T13:26:57Z</time>
      </trkpt>
      <trkpt lat="44.42523" lon="1.60734">
        <ele>350</ele>
        <time>2024-03-13T13:26:58Z</time>
      </trkpt>
      <trkpt lat="44.42524" lon="1.60732">
        <ele>349</ele>
        <time>2024-03-13T13:26:59Z</time>
      </trkpt>
      <trkpt lat="44.42524" lon="1.6073">
        <ele>350</ele>
        <time>2024-03-13T13:27:00Z</time>
      </trkpt>
      <trkpt lat="44.42524" lon="1.60728">
        <ele>350</ele>
        <time>2024-03-13T13:27:01Z</time>
      </trkpt>
      <trkpt lat="44.42524" lon="1.60727">
        <ele>350</ele>
        <time>2024-03-13T13:27:02Z</time>
      </trkpt>
      <trkpt lat="44.42525" lon="1.60725">
        <ele>350</ele>
        <time>2024-03-13T13:27:03Z</time>
      </trkpt>
      <trkpt lat="44.42525" lon="1.60724">
        <ele>350</ele>
        <time>2024-03-13T13:27:04Z</time>
      </trkpt>
      <trkpt lat="44.42525" lon="1.60723">
        <ele>349</ele>
        <time>2024-03-13T13:27:05Z</time>
      </trkpt>
      <trkpt lat="44.42526" lon="1.60721">
        <ele>349</ele>
        <time>2024-03-13T13:27:06Z</time>
      </trkpt>
      <trkpt lat="44.42526" lon="1.6072">
        <ele>350</ele>
        <time>2024-03-13T13:27:07Z</time>
      </trkpt>
      <trkpt lat="44.42527" lon="1.60719">
        <ele>350</ele>
        <time>2024-03-13T13:27:08Z</time>
      </trkpt>
      <trkpt lat="44.42527" lon="1.60718">
        <ele>350</ele>
        <time>2024-03-13T13:27:09Z</time>
      </trkpt>
      <trkpt lat="44.42527" lon="1.60717">
        <ele>350</ele>
        <time>2024-03-13T13:27:10Z</time>
      </trkpt>
      <trkpt lat="44.42527" lon="1.60716">
        <ele>350</ele>
        <time>2024-03-13T13:27:11Z</time>
      </trkpt>
      <trkpt lat="44.42527" lon="1.60715">
        <ele>350</ele>
        <time>2024-03-13T13:27:12Z</time>
      </trkpt>
      <trkpt lat="44.42527" lon="1.60713">
        <ele>350</ele>
        <time>2024-03-13T13:27:13Z</time>
      </trkpt>
      <trkpt lat="44.42528" lon="1.60712">
        <ele>349</ele>
        <time>2024-03-13T13:27:14Z</time>
      </trkpt>
      <trkpt lat="44.42528" lon="1.60711">
        <ele>350</ele>
        <time>2024-03-13T13:27:15Z</time>
      </trkpt>
      <trkpt lat="44.42529" lon="1.6071">
        <ele>350</ele>
        <time>2024-03-13T13:27:16Z</time>
      </trkpt>
      <trkpt lat="44.42529" lon="1.60709">
        <ele>350</ele>
        <time>2024-03-13T13:27:17Z</time>
      </trkpt>
      <trkpt lat="44.42528" lon="1.60708">
        <ele>349</ele>
        <time>2024-03-13T13:27:18Z</time>
      </trkpt>
      <trkpt lat="44.42529" lon="1.60707">
        <ele>350</ele>
        <time>2024-03-13T13:27:19Z</time>
      </trkpt>
      <trkpt lat="44.42528" lon="1.60706">
        <ele>350</ele>
        <time>2024-03-13T13:27:20Z</time>
      </trkpt>
      <trkpt lat="44.42529" lon="1.60704">
        <ele>350</ele>
        <time>2024-03-13T13:27:21Z</time>
      </trkpt>
      <trkpt lat="44.42529" lon="1.60703">
        <ele>349</ele>
        <time>2024-03-13T13:27:22Z</time>
      </trkpt>
      <trkpt lat="44.42529" lon="1.60702">
        <ele>349</ele>
        <time>2024-03-13T13:27:23Z</time>
      </trkpt>
      <trkpt lat="44.42529" lon="1.60701">
        <ele>349</ele>
        <time>2024-03-13T13:27:24Z</time>
      </trkpt>
      <trkpt lat="44.4253" lon="1.60699">
        <ele>349</ele>
        <time>2024-03-13T13:27:25Z</time>
      </trkpt>
      <trkpt lat="44.4253" lon="1.60698">
        <ele>349</ele>
        <time>2024-03-13T13:27:26Z</time>
      </trkpt>
      <trkpt lat="44.4253" lon="1.60697">
        <ele>349</ele>
        <time>2024-03-13T13:27:27Z</time>
      </trkpt>
      <trkpt lat="44.4253" lon="1.60696">
        <ele>349</ele>
        <time>2024-03-13T13:27:28Z</time>
      </trkpt>
      <trkpt lat="44.4253" lon="1.60696">
        <ele>348</ele>
        <time>2024-03-13T13:27:29Z</time>
      </trkpt>
      <trkpt lat="44.42531" lon="1.60695">
        <ele>348</ele>
        <time>2024-03-13T13:27:30Z</time>
      </trkpt>
      <trkpt lat="44.42531" lon="1.60694">
        <ele>348</ele>
        <time>2024-03-13T13:27:31Z</time>
      </trkpt>
      <trkpt lat="44.42531" lon="1.60693">
        <ele>348</ele>
        <time>2024-03-13T13:27:32Z</time>
      </trkpt>
      <trkpt lat="44.42531" lon="1.60691">
        <ele>348</ele>
        <time>2024-03-13T13:27:33Z</time>
      </trkpt>
      <trkpt lat="44.42531" lon="1.6069">
        <ele>348</ele>
        <time>2024-03-13T13:27:34Z</time>
      </trkpt>
      <trkpt lat="44.42532" lon="1.60689">
        <ele>348</ele>
        <time>2024-03-13T13:27:35Z</time>
      </trkpt>
      <trkpt lat="44.42533" lon="1.6069">
        <ele>349</ele>
        <time>2024-03-13T13:27:36Z</time>
      </trkpt>
      <trkpt lat="44.42533" lon="1.6069">
        <ele>349</ele>
        <time>2024-03-13T13:27:37Z</time>
      </trkpt>
      <trkpt lat="44.42533" lon="1.60689">
        <ele>350</ele>
        <time>2024-03-13T13:27:38Z</time>
      </trkpt>
      <trkpt lat="44.42534" lon="1.60688">
        <ele>350</ele>
        <time>2024-03-13T13:27:39Z</time>
      </trkpt>
      <trkpt lat="44.42535" lon="1.60687">
        <ele>350</ele>
        <time>2024-03-13T13:27:40Z</time>
      </trkpt>
      <trkpt lat="44.42535" lon="1.60686">
        <ele>350</ele>
        <time>2024-03-13T13:27:41Z</time>
      </trkpt>
      <trkpt lat="44.42535" lon="1.60685">
        <ele>350</ele>
        <time>2024-03-13T13:27:42Z</time>
      </trkpt>
      <trkpt lat="44.42536" lon="1.60683">
        <ele>350</ele>
        <time>2024-03-13T13:27:43Z</time>
      </trkpt>
      <trkpt lat="44.42537" lon="1.60682">
        <ele>349</ele>
        <time>2024-03-13T13:27:44Z</time>
      </trkpt>
      <trkpt lat="44.42537" lon="1.60681">
        <ele>349</ele>
        <time>2024-03-13T13:27:45Z</time>
      </trkpt>
      <trkpt lat="44.42537" lon="1.6068">
        <ele>349</ele>
        <time>2024-03-13T13:27:46Z</time>
      </trkpt>
      <trkpt lat="44.42537" lon="1.60679">
        <ele>349</ele>
        <time>2024-03-13T13:27:47Z</time>
      </trkpt>
      <trkpt lat="44.42537" lon="1.60677">
        <ele>350</ele>
        <time>2024-03-13T13:27:48Z</time>
      </trkpt>
      <trkpt lat="44.42538" lon="1.60676">
        <ele>350</ele>
        <time>2024-03-13T13:27:49Z</time>
      </trkpt>
      <trkpt lat="44.42538" lon="1.60675">
        <ele>350</ele>
        <time>2024-03-13T13:27:50Z</time>
      </trkpt>
      <trkpt lat="44.42539" lon="1.60674">
        <ele>350</ele>
        <time>2024-03-13T13:27:51Z</time>
      </trkpt>
      <trkpt lat="44.42539" lon="1.60674">
        <ele>350</ele>
        <time>2024-03-13T13:27:52Z</time>
      </trkpt>
      <trkpt lat="44.42539" lon="1.60674">
        <ele>350</ele>
        <time>2024-03-13T13:27:53Z</time>
      </trkpt>
      <trkpt lat="44.42539" lon="1.60674">
        <ele>350</ele>
        <time>2024-03-13T13:27:54Z</time>
      </trkpt>
      <trkpt lat="44.42539" lon="1.60674">
        <ele>350</ele>
        <time>2024-03-13T13:27:55Z</time>
      </trkpt>
      <trkpt lat="44.4254" lon="1.60671">
        <ele>350</ele>
        <time>2024-03-13T13:27:56Z</time>
      </trkpt>
      <trkpt lat="44.42541" lon="1.6067">
        <ele>350</ele>
        <time>2024-03-13T13:27:57Z</time>
      </trkpt>
      <trkpt lat="44.42541" lon="1.60668">
        <ele>349</ele>
        <time>2024-03-13T13:27:58Z</time>
      </trkpt>
      <trkpt lat="44.42541" lon="1.60667">
        <ele>349</ele>
        <time>2024-03-13T13:27:59Z</time>
      </trkpt>
      <trkpt lat="44.42542" lon="1.60665">
        <ele>349</ele>
        <time>2024-03-13T13:28:00Z</time>
      </trkpt>
      <trkpt lat="44.42542" lon="1.60665">
        <ele>349</ele>
        <time>2024-03-13T13:28:01Z</time>
      </trkpt>
      <trkpt lat="44.42542" lon="1.60665">
        <ele>349</ele>
        <time>2024-03-13T13:28:02Z</time>
      </trkpt>
      <trkpt lat="44.42543" lon="1.60663">
        <ele>348</ele>
        <time>2024-03-13T13:28:03Z</time>
      </trkpt>
      <trkpt lat="44.42544" lon="1.60662">
        <ele>348</ele>
        <time>2024-03-13T13:28:04Z</time>
      </trkpt>
      <trkpt lat="44.42545" lon="1.60661">
        <ele>348</ele>
        <time>2024-03-13T13:28:05Z</time>
      </trkpt>
      <trkpt lat="44.42546" lon="1.6066">
        <ele>348</ele>
        <time>2024-03-13T13:28:06Z</time>
      </trkpt>
      <trkpt lat="44.42547" lon="1.60659">
        <ele>347</ele>
        <time>2024-03-13T13:28:07Z</time>
      </trkpt>
      <trkpt lat="44.42548" lon="1.60658">
        <ele>347</ele>
        <time>2024-03-13T13:28:08Z</time>
      </trkpt>
      <trkpt lat="44.42548" lon="1.60656">
        <ele>348</ele>
        <time>2024-03-13T13:28:09Z</time>
      </trkpt>
      <trkpt lat="44.42549" lon="1.60656">
        <ele>347</ele>
        <time>2024-03-13T13:28:10Z</time>
      </trkpt>
      <trkpt lat="44.4255" lon="1.60655">
        <ele>347</ele>
        <time>2024-03-13T13:28:11Z</time>
      </trkpt>
      <trkpt lat="44.4255" lon="1.60654">
        <ele>347</ele>
        <time>2024-03-13T13:28:12Z</time>
      </trkpt>
      <trkpt lat="44.4255" lon="1.60653">
        <ele>346</ele>
        <time>2024-03-13T13:28:13Z</time>
      </trkpt>
      <trkpt lat="44.4255" lon="1.60653">
        <ele>346</ele>
        <time>2024-03-13T13:28:14Z</time>
      </trkpt>
      <trkpt lat="44.4255" lon="1.60653">
        <ele>346</ele>
        <time>2024-03-13T13:28:15Z</time>
      </trkpt>
      <trkpt lat="44.42552" lon="1.60651">
        <ele>345</ele>
        <time>2024-03-13T13:28:16Z</time>
      </trkpt>
      <trkpt lat="44.42553" lon="1.6065">
        <ele>345</ele>
        <time>2024-03-13T13:28:17Z</time>
      </trkpt>
      <trkpt lat="44.42553" lon="1.60648">
        <ele>345</ele>
        <time>2024-03-13T13:28:18Z</time>
      </trkpt>
      <trkpt lat="44.42554" lon="1.60647">
        <ele>345</ele>
        <time>2024-03-13T13:28:19Z</time>
      </trkpt>
      <trkpt lat="44.42555" lon="1.60645">
        <ele>345</ele>
        <time>2024-03-13T13:28:20Z</time>
      </trkpt>
      <trkpt lat="44.42556" lon="1.60644">
        <ele>345</ele>
        <time>2024-03-13T13:28:21Z</time>
      </trkpt>
      <trkpt lat="44.42557" lon="1.60642">
        <ele>345</ele>
        <time>2024-03-13T13:28:22Z</time>
      </trkpt>
      <trkpt lat="44.42558" lon="1.60641">
        <ele>345</ele>
        <time>2024-03-13T13:28:23Z</time>
      </trkpt>
      <trkpt lat="44.42558" lon="1.60639">
        <ele>344</ele>
        <time>2024-03-13T13:28:24Z</time>
      </trkpt>
      <trkpt lat="44.42559" lon="1.60637">
        <ele>344</ele>
        <time>2024-03-13T13:28:25Z</time>
      </trkpt>
      <trkpt lat="44.42559" lon="1.60636">
        <ele>343</ele>
        <time>2024-03-13T13:28:26Z</time>
      </trkpt>
      <trkpt lat="44.4256" lon="1.60634">
        <ele>343</ele>
        <time>2024-03-13T13:28:27Z</time>
      </trkpt>
      <trkpt lat="44.42561" lon="1.60633">
        <ele>343</ele>
        <time>2024-03-13T13:28:28Z</time>
      </trkpt>
      <trkpt lat="44.42561" lon="1.60632">
        <ele>343</ele>
        <time>2024-03-13T13:28:29Z</time>
      </trkpt>
      <trkpt lat="44.42562" lon="1.60631">
        <ele>343</ele>
        <time>2024-03-13T13:28:30Z</time>
      </trkpt>
      <trkpt lat="44.42562" lon="1.6063">
        <ele>343</ele>
        <time>2024-03-13T13:28:31Z</time>
      </trkpt>
      <trkpt lat="44.42563" lon="1.60629">
        <ele>342</ele>
        <time>2024-03-13T13:28:32Z</time>
      </trkpt>
      <trkpt lat="44.42564" lon="1.60628">
        <ele>342</ele>
        <time>2024-03-13T13:28:33Z</time>
      </trkpt>
      <trkpt lat="44.42565" lon="1.60627">
        <ele>342</ele>
        <time>2024-03-13T13:28:34Z</time>
      </trkpt>
      <trkpt lat="44.42566" lon="1.60625">
        <ele>341</ele>
        <time>2024-03-13T13:28:35Z</time>
      </trkpt>
      <trkpt lat="44.42567" lon="1.60624">
        <ele>342</ele>
        <time>2024-03-13T13:28:36Z</time>
      </trkpt>
      <trkpt lat="44.42567" lon="1.60624">
        <ele>341</ele>
        <time>2024-03-13T13:28:37Z</time>
      </trkpt>
      <trkpt lat="44.42567" lon="1.60623">
        <ele>341</ele>
        <time>2024-03-13T13:28:38Z</time>
      </trkpt>
      <trkpt lat="44.42568" lon="1.60622">
        <ele>341</ele>
        <time>2024-03-13T13:28:39Z</time>
      </trkpt>
      <trkpt lat="44.42569" lon="1.60621">
        <ele>340</ele>
        <time>2024-03-13T13:28:40Z</time>
      </trkpt>
      <trkpt lat="44.42569" lon="1.6062">
        <ele>340</ele>
        <time>2024-03-13T13:28:41Z</time>
      </trkpt>
      <trkpt lat="44.4257" lon="1.60619">
        <ele>340</ele>
        <time>2024-03-13T13:28:42Z</time>
      </trkpt>
      <trkpt lat="44.42571" lon="1.60617">
        <ele>340</ele>
        <time>2024-03-13T13:28:43Z</time>
      </trkpt>
      <trkpt lat="44.42571" lon="1.60617">
        <ele>340</ele>
        <time>2024-03-13T13:28:44Z</time>
      </trkpt>
      <trkpt lat="44.42572" lon="1.60616">
        <ele>340</ele>
        <time>2024-03-13T13:28:45Z</time>
      </trkpt>
      <trkpt lat="44.42572" lon="1.60615">
        <ele>340</ele>
        <time>2024-03-13T13:28:46Z</time>
      </trkpt>
      <trkpt lat="44.42573" lon="1.60614">
        <ele>340</ele>
        <time>2024-03-13T13:28:47Z</time>
      </trkpt>
      <trkpt lat="44.42574" lon="1.60613">
        <ele>339</ele>
        <time>2024-03-13T13:28:48Z</time>
      </trkpt>
      <trkpt lat="44.42575" lon="1.60612">
        <ele>339</ele>
        <time>2024-03-13T13:28:49Z</time>
      </trkpt>
      <trkpt lat="44.42576" lon="1.60611">
        <ele>339</ele>
        <time>2024-03-13T13:28:50Z</time>
      </trkpt>
      <trkpt lat="44.42577" lon="1.60611">
        <ele>339</ele>
        <time>2024-03-13T13:28:51Z</time>
      </trkpt>
      <trkpt lat="44.42578" lon="1.60609">
        <ele>339</ele>
        <time>2024-03-13T13:28:52Z</time>
      </trkpt>
      <trkpt lat="44.42579" lon="1.60609">
        <ele>339</ele>
        <time>2024-03-13T13:28:53Z</time>
      </trkpt>
      <trkpt lat="44.42579" lon="1.60608">
        <ele>339</ele>
        <time>2024-03-13T13:28:54Z</time>
      </trkpt>
      <trkpt lat="44.4258" lon="1.60607">
        <ele>339</ele>
        <time>2024-03-13T13:28:55Z</time>
      </trkpt>
      <trkpt lat="44.42581" lon="1.60606">
        <ele>338</ele>
        <time>2024-03-13T13:28:56Z</time>
      </trkpt>
      <trkpt lat="44.42582" lon="1.60605">
        <ele>339</ele>
        <time>2024-03-13T13:28:57Z</time>
      </trkpt>
      <trkpt lat="44.42583" lon="1.60604">
        <ele>339</ele>
        <time>2024-03-13T13:28:58Z</time>
      </trkpt>
      <trkpt lat="44.42584" lon="1.60603">
        <ele>339</ele>
        <time>2024-03-13T13:28:59Z</time>
      </trkpt>
      <trkpt lat="44.42585" lon="1.60602">
        <ele>339</ele>
        <time>2024-03-13T13:29:00Z</time>
      </trkpt>
      <trkpt lat="44.42586" lon="1.60601">
        <ele>339</ele>
        <time>2024-03-13T13:29:01Z</time>
      </trkpt>
      <trkpt lat="44.42587" lon="1.60601">
        <ele>339</ele>
        <time>2024-03-13T13:29:02Z</time>
      </trkpt>
      <trkpt lat="44.42588" lon="1.606">
        <ele>338</ele>
        <time>2024-03-13T13:29:03Z</time>
      </trkpt>
      <trkpt lat="44.42589" lon="1.606">
        <ele>338</ele>
        <time>2024-03-13T13:29:04Z</time>
      </trkpt>
      <trkpt lat="44.4259" lon="1.60599">
        <ele>337</ele>
        <time>2024-03-13T13:29:05Z</time>
      </trkpt>
      <trkpt lat="44.4259" lon="1.60599">
        <ele>337</ele>
        <time>2024-03-13T13:29:06Z</time>
      </trkpt>
      <trkpt lat="44.42591" lon="1.60598">
        <ele>337</ele>
        <time>2024-03-13T13:29:07Z</time>
      </trkpt>
      <trkpt lat="44.42592" lon="1.60597">
        <ele>337</ele>
        <time>2024-03-13T13:29:08Z</time>
      </trkpt>
      <trkpt lat="44.42593" lon="1.60597">
        <ele>337</ele>
        <time>2024-03-13T13:29:09Z</time>
      </trkpt>
      <trkpt lat="44.42595" lon="1.60596">
        <ele>336</ele>
        <time>2024-03-13T13:29:10Z</time>
      </trkpt>
      <trkpt lat="44.42595" lon="1.60595">
        <ele>336</ele>
        <time>2024-03-13T13:29:11Z</time>
      </trkpt>
      <trkpt lat="44.42595" lon="1.60595">
        <ele>336</ele>
        <time>2024-03-13T13:29:12Z</time>
      </trkpt>
      <trkpt lat="44.42596" lon="1.60594">
        <ele>336</ele>
        <time>2024-03-13T13:29:13Z</time>
      </trkpt>
      <trkpt lat="44.42597" lon="1.60593">
        <ele>336</ele>
        <time>2024-03-13T13:29:14Z</time>
      </trkpt>
      <trkpt lat="44.42598" lon="1.60593">
        <ele>336</ele>
        <time>2024-03-13T13:29:15Z</time>
      </trkpt>
      <trkpt lat="44.42599" lon="1.60592">
        <ele>336</ele>
        <time>2024-03-13T13:29:16Z</time>
      </trkpt>
      <trkpt lat="44.426" lon="1.60592">
        <ele>336</ele>
        <time>2024-03-13T13:29:17Z</time>
      </trkpt>
      <trkpt lat="44.42601" lon="1.60591">
        <ele>336</ele>
        <time>2024-03-13T13:29:18Z</time>
      </trkpt>
      <trkpt lat="44.42602" lon="1.6059">
        <ele>335</ele>
        <time>2024-03-13T13:29:19Z</time>
      </trkpt>
      <trkpt lat="44.42603" lon="1.60589">
        <ele>335</ele>
        <time>2024-03-13T13:29:20Z</time>
      </trkpt>
      <trkpt lat="44.42604" lon="1.60588">
        <ele>335</ele>
        <time>2024-03-13T13:29:21Z</time>
      </trkpt>
      <trkpt lat="44.42605" lon="1.60588">
        <ele>335</ele>
        <time>2024-03-13T13:29:22Z</time>
      </trkpt>
      <trkpt lat="44.42606" lon="1.60588">
        <ele>334</ele>
        <time>2024-03-13T13:29:23Z</time>
      </trkpt>
      <trkpt lat="44.42607" lon="1.60587">
        <ele>334</ele>
        <time>2024-03-13T13:29:24Z</time>
      </trkpt>
      <trkpt lat="44.42608" lon="1.60587">
        <ele>334</ele>
        <time>2024-03-13T13:29:25Z</time>
      </trkpt>
      <trkpt lat="44.42609" lon="1.60586">
        <ele>334</ele>
        <time>2024-03-13T13:29:26Z</time>
      </trkpt>
      <trkpt lat="44.4261" lon="1.60585">
        <ele>334</ele>
        <time>2024-03-13T13:29:27Z</time>
      </trkpt>
      <trkpt lat="44.42611" lon="1.60584">
        <ele>333</ele>
        <time>2024-03-13T13:29:28Z</time>
      </trkpt>
      <trkpt lat="44.42612" lon="1.60583">
        <ele>333</ele>
        <time>2024-03-13T13:29:29Z</time>
      </trkpt>
      <trkpt lat="44.42613" lon="1.60582">
        <ele>333</ele>
        <time>2024-03-13T13:29:30Z</time>
      </trkpt>
      <trkpt lat="44.42614" lon="1.60581">
        <ele>332</ele>
        <time>2024-03-13T13:29:31Z</time>
      </trkpt>
      <trkpt lat="44.42616" lon="1.60581">
        <ele>332</ele>
        <time>2024-03-13T13:29:32Z</time>
      </trkpt>
      <trkpt lat="44.42616" lon="1.6058">
        <ele>332</ele>
        <time>2024-03-13T13:29:33Z</time>
      </trkpt>
      <trkpt lat="44.42617" lon="1.6058">
        <ele>332</ele>
        <time>2024-03-13T13:29:34Z</time>
      </trkpt>
      <trkpt lat="44.42617" lon="1.6058">
        <ele>332</ele>
        <time>2024-03-13T13:29:35Z</time>
      </trkpt>
      <trkpt lat="44.42619" lon="1.60579">
        <ele>332</ele>
        <time>2024-03-13T13:29:36Z</time>
      </trkpt>
      <trkpt lat="44.4262" lon="1.60579">
        <ele>332</ele>
        <time>2024-03-13T13:29:37Z</time>
      </trkpt>
      <trkpt lat="44.4262" lon="1.60578">
        <ele>332</ele>
        <time>2024-03-13T13:29:38Z</time>
      </trkpt>
      <trkpt lat="44.42622" lon="1.60577">
        <ele>331</ele>
        <time>2024-03-13T13:29:39Z</time>
      </trkpt>
      <trkpt lat="44.42622" lon="1.60577">
        <ele>331</ele>
        <time>2024-03-13T13:29:40Z</time>
      </trkpt>
      <trkpt lat="44.42624" lon="1.60576">
        <ele>332</ele>
        <time>2024-03-13T13:29:41Z</time>
      </trkpt>
      <trkpt lat="44.42625" lon="1.60576">
        <ele>332</ele>
        <time>2024-03-13T13:29:42Z</time>
      </trkpt>
      <trkpt lat="44.42627" lon="1.60575">
        <ele>332</ele>
        <time>2024-03-13T13:29:43Z</time>
      </trkpt>
      <trkpt lat="44.42628" lon="1.60574">
        <ele>332</ele>
        <time>2024-03-13T13:29:44Z</time>
      </trkpt>
      <trkpt lat="44.42629" lon="1.60573">
        <ele>333</ele>
        <time>2024-03-13T13:29:45Z</time>
      </trkpt>
      <trkpt lat="44.42631" lon="1.60572">
        <ele>332</ele>
        <time>2024-03-13T13:29:46Z</time>
      </trkpt>
      <trkpt lat="44.42632" lon="1.60572">
        <ele>332</ele>
        <time>2024-03-13T13:29:47Z</time>
      </trkpt>
      <trkpt lat="44.42633" lon="1.60572">
        <ele>331</ele>
        <time>2024-03-13T13:29:48Z</time>
      </trkpt>
      <trkpt lat="44.42634" lon="1.60572">
        <ele>331</ele>
        <time>2024-03-13T13:29:49Z</time>
      </trkpt>
      <trkpt lat="44.42636" lon="1.60571">
        <ele>332</ele>
        <time>2024-03-13T13:29:50Z</time>
      </trkpt>
      <trkpt lat="44.42637" lon="1.60571">
        <ele>331</ele>
        <time>2024-03-13T13:29:51Z</time>
      </trkpt>
      <trkpt lat="44.42638" lon="1.60571">
        <ele>331</ele>
        <time>2024-03-13T13:29:52Z</time>
      </trkpt>
      <trkpt lat="44.42639" lon="1.60571">
        <ele>330</ele>
        <time>2024-03-13T13:29:53Z</time>
      </trkpt>
      <trkpt lat="44.4264" lon="1.6057">
        <ele>330</ele>
        <time>2024-03-13T13:29:54Z</time>
      </trkpt>
      <trkpt lat="44.42641" lon="1.6057">
        <ele>330</ele>
        <time>2024-03-13T13:29:55Z</time>
      </trkpt>
      <trkpt lat="44.42642" lon="1.60571">
        <ele>330</ele>
        <time>2024-03-13T13:29:56Z</time>
      </trkpt>
      <trkpt lat="44.42643" lon="1.6057">
        <ele>330</ele>
        <time>2024-03-13T13:29:57Z</time>
      </trkpt>
      <trkpt lat="44.42645" lon="1.60569">
        <ele>330</ele>
        <time>2024-03-13T13:29:58Z</time>
      </trkpt>
      <trkpt lat="44.42645" lon="1.60568">
        <ele>330</ele>
        <time>2024-03-13T13:29:59Z</time>
      </trkpt>
      <trkpt lat="44.42646" lon="1.60567">
        <ele>330</ele>
        <time>2024-03-13T13:30:00Z</time>
      </trkpt>
      <trkpt lat="44.42648" lon="1.60565">
        <ele>330</ele>
        <time>2024-03-13T13:30:01Z</time>
      </trkpt>
      <trkpt lat="44.42649" lon="1.60564">
        <ele>329</ele>
        <time>2024-03-13T13:30:02Z</time>
      </trkpt>
      <trkpt lat="44.4265" lon="1.60564">
        <ele>329</ele>
        <time>2024-03-13T13:30:03Z</time>
      </trkpt>
      <trkpt lat="44.42651" lon="1.60563">
        <ele>329</ele>
        <time>2024-03-13T13:30:04Z</time>
      </trkpt>
      <trkpt lat="44.42653" lon="1.60563">
        <ele>329</ele>
        <time>2024-03-13T13:30:05Z</time>
      </trkpt>
      <trkpt lat="44.42654" lon="1.60562">
        <ele>328</ele>
        <time>2024-03-13T13:30:06Z</time>
      </trkpt>
      <trkpt lat="44.42655" lon="1.60562">
        <ele>328</ele>
        <time>2024-03-13T13:30:07Z</time>
      </trkpt>
      <trkpt lat="44.42656" lon="1.60562">
        <ele>328</ele>
        <time>2024-03-13T13:30:08Z</time>
      </trkpt>
      <trkpt lat="44.42657" lon="1.60561">
        <ele>328</ele>
        <time>2024-03-13T13:30:09Z</time>
      </trkpt>
      <trkpt lat="44.42659" lon="1.6056">
        <ele>328</ele>
        <time>2024-03-13T13:30:10Z</time>
      </trkpt>
      <trkpt lat="44.42659" lon="1.60559">
        <ele>328</ele>
        <time>2024-03-13T13:30:11Z</time>
      </trkpt>
      <trkpt lat="44.42661" lon="1.60559">
        <ele>328</ele>
        <time>2024-03-13T13:30:12Z</time>
      </trkpt>
      <trkpt lat="44.42662" lon="1.60558">
        <ele>328</ele>
        <time>2024-03-13T13:30:13Z</time>
      </trkpt>
      <trkpt lat="44.42663" lon="1.60557">
        <ele>327</ele>
        <time>2024-03-13T13:30:14Z</time>
      </trkpt>
      <trkpt lat="44.42664" lon="1.60556">
        <ele>327</ele>
        <time>2024-03-13T13:30:15Z</time>
      </trkpt>
      <trkpt lat="44.42664" lon="1.60555">
        <ele>327</ele>
        <time>2024-03-13T13:30:16Z</time>
      </trkpt>
      <trkpt lat="44.42665" lon="1.60554">
        <ele>326</ele>
        <time>2024-03-13T13:30:17Z</time>
      </trkpt>
      <trkpt lat="44.42666" lon="1.60553">
        <ele>325</ele>
        <time>2024-03-13T13:30:18Z</time>
      </trkpt>
      <trkpt lat="44.42667" lon="1.60553">
        <ele>325</ele>
        <time>2024-03-13T13:30:19Z</time>
      </trkpt>
      <trkpt lat="44.42668" lon="1.60552">
        <ele>325</ele>
        <time>2024-03-13T13:30:20Z</time>
      </trkpt>
      <trkpt lat="44.42669" lon="1.60551">
        <ele>325</ele>
        <time>2024-03-13T13:30:21Z</time>
      </trkpt>
      <trkpt lat="44.4267" lon="1.6055">
        <ele>325</ele>
        <time>2024-03-13T13:30:22Z</time>
      </trkpt>
      <trkpt lat="44.42672" lon="1.60549">
        <ele>325</ele>
        <time>2024-03-13T13:30:23Z</time>
      </trkpt>
      <trkpt lat="44.42672" lon="1.60548">
        <ele>324</ele>
        <time>2024-03-13T13:30:24Z</time>
      </trkpt>
      <trkpt lat="44.42673" lon="1.60548">
        <ele>324</ele>
        <time>2024-03-13T13:30:25Z</time>
      </trkpt>
      <trkpt lat="44.42673" lon="1.60547">
        <ele>324</ele>
        <time>2024-03-13T13:30:26Z</time>
      </trkpt>
      <trkpt lat="44.42674" lon="1.60547">
        <ele>324</ele>
        <time>2024-03-13T13:30:27Z</time>
      </trkpt>
      <trkpt lat="44.42675" lon="1.60546">
        <ele>324</ele>
        <time>2024-03-13T13:30:28Z</time>
      </trkpt>
      <trkpt lat="44.42675" lon="1.60546">
        <ele>324</ele>
        <time>2024-03-13T13:30:29Z</time>
      </trkpt>
      <trkpt lat="44.42675" lon="1.60545">
        <ele>323</ele>
        <time>2024-03-13T13:30:30Z</time>
      </trkpt>
      <trkpt lat="44.42677" lon="1.60544">
        <ele>323</ele>
        <time>2024-03-13T13:30:31Z</time>
      </trkpt>
      <trkpt lat="44.42677" lon="1.60544">
        <ele>323</ele>
        <time>2024-03-13T13:30:32Z</time>
      </trkpt>
      <trkpt lat="44.42678" lon="1.60543">
        <ele>323</ele>
        <time>2024-03-13T13:30:33Z</time>
      </trkpt>
      <trkpt lat="44.42678" lon="1.60542">
        <ele>323</ele>
        <time>2024-03-13T13:30:34Z</time>
      </trkpt>
      <trkpt lat="44.42678" lon="1.60542">
        <ele>323</ele>
        <time>2024-03-13T13:30:35Z</time>
      </trkpt>
      <trkpt lat="44.42678" lon="1.60542">
        <ele>323</ele>
        <time>2024-03-13T13:30:36Z</time>
      </trkpt>
      <trkpt lat="44.4268" lon="1.6054">
        <ele>323</ele>
        <time>2024-03-13T13:30:37Z</time>
      </trkpt>
      <trkpt lat="44.42681" lon="1.60539">
        <ele>323</ele>
        <time>2024-03-13T13:30:38Z</time>
      </trkpt>
      <trkpt lat="44.42682" lon="1.60538">
        <ele>323</ele>
        <time>2024-03-13T13:30:39Z</time>
      </trkpt>
      <trkpt lat="44.42683" lon="1.60538">
        <ele>322</ele>
        <time>2024-03-13T13:30:40Z</time>
      </trkpt>
      <trkpt lat="44.42684" lon="1.60537">
        <ele>321</ele>
        <time>2024-03-13T13:30:41Z</time>
      </trkpt>
      <trkpt lat="44.42685" lon="1.60537">
        <ele>321</ele>
        <time>2024-03-13T13:30:42Z</time>
      </trkpt>
      <trkpt lat="44.42686" lon="1.60535">
        <ele>321</ele>
        <time>2024-03-13T13:30:43Z</time>
      </trkpt>
      <trkpt lat="44.42687" lon="1.60534">
        <ele>321</ele>
        <time>2024-03-13T13:30:44Z</time>
      </trkpt>
      <trkpt lat="44.42688" lon="1.60533">
        <ele>321</ele>
        <time>2024-03-13T13:30:45Z</time>
      </trkpt>
      <trkpt lat="44.4269" lon="1.60532">
        <ele>321</ele>
        <time>2024-03-13T13:30:46Z</time>
      </trkpt>
      <trkpt lat="44.4269" lon="1.60531">
        <ele>320</ele>
        <time>2024-03-13T13:30:47Z</time>
      </trkpt>
      <trkpt lat="44.42691" lon="1.6053">
        <ele>321</ele>
        <time>2024-03-13T13:30:48Z</time>
      </trkpt>
      <trkpt lat="44.42692" lon="1.60529">
        <ele>320</ele>
        <time>2024-03-13T13:30:49Z</time>
      </trkpt>
      <trkpt lat="44.42693" lon="1.60529">
        <ele>321</ele>
        <time>2024-03-13T13:30:50Z</time>
      </trkpt>
      <trkpt lat="44.42694" lon="1.60528">
        <ele>320</ele>
        <time>2024-03-13T13:30:51Z</time>
      </trkpt>
      <trkpt lat="44.42696" lon="1.60527">
        <ele>320</ele>
        <time>2024-03-13T13:30:52Z</time>
      </trkpt>
      <trkpt lat="44.42696" lon="1.60527">
        <ele>321</ele>
        <time>2024-03-13T13:30:53Z</time>
      </trkpt>
      <trkpt lat="44.42697" lon="1.60526">
        <ele>320</ele>
        <time>2024-03-13T13:30:54Z</time>
      </trkpt>
      <trkpt lat="44.42698" lon="1.60525">
        <ele>320</ele>
        <time>2024-03-13T13:30:55Z</time>
      </trkpt>
      <trkpt lat="44.42699" lon="1.60524">
        <ele>320</ele>
        <time>2024-03-13T13:30:56Z</time>
      </trkpt>
      <trkpt lat="44.427" lon="1.60523">
        <ele>320</ele>
        <time>2024-03-13T13:30:57Z</time>
      </trkpt>
      <trkpt lat="44.427" lon="1.60523">
        <ele>320</ele>
        <time>2024-03-13T13:30:58Z</time>
      </trkpt>
      <trkpt lat="44.42701" lon="1.60522">
        <ele>319</ele>
        <time>2024-03-13T13:30:59Z</time>
      </trkpt>
      <trkpt lat="44.42702" lon="1.60521">
        <ele>319</ele>
        <time>2024-03-13T13:31:00Z</time>
      </trkpt>
      <trkpt lat="44.42703" lon="1.60519">
        <ele>319</ele>
        <time>2024-03-13T13:31:01Z</time>
      </trkpt>
      <trkpt lat="44.42704" lon="1.60518">
        <ele>319</ele>
        <time>2024-03-13T13:31:02Z</time>
      </trkpt>
      <trkpt lat="44.42705" lon="1.60517">
        <ele>319</ele>
        <time>2024-03-13T13:31:03Z</time>
      </trkpt>
      <trkpt lat="44.42706" lon="1.60516">
        <ele>319</ele>
        <time>2024-03-13T13:31:04Z</time>
      </trkpt>
      <trkpt lat="44.42707" lon="1.60515">
        <ele>318</ele>
        <time>2024-03-13T13:31:05Z</time>
      </trkpt>
      <trkpt lat="44.42707" lon="1.60514">
        <ele>319</ele>
        <time>2024-03-13T13:31:06Z</time>
      </trkpt>
      <trkpt lat="44.42709" lon="1.60513">
        <ele>319</ele>
        <time>2024-03-13T13:31:07Z</time>
      </trkpt>
      <trkpt lat="44.4271" lon="1.60513">
        <ele>319</ele>
        <time>2024-03-13T13:31:08Z</time>
      </trkpt>
      <trkpt lat="44.4271" lon="1.60512">
        <ele>318</ele>
        <time>2024-03-13T13:31:09Z</time>
      </trkpt>
      <trkpt lat="44.42712" lon="1.60512">
        <ele>317</ele>
        <time>2024-03-13T13:31:10Z</time>
      </trkpt>
      <trkpt lat="44.42713" lon="1.60511">
        <ele>317</ele>
        <time>2024-03-13T13:31:11Z</time>
      </trkpt>
      <trkpt lat="44.42714" lon="1.60511">
        <ele>317</ele>
        <time>2024-03-13T13:31:12Z</time>
      </trkpt>
      <trkpt lat="44.42715" lon="1.6051">
        <ele>316</ele>
        <time>2024-03-13T13:31:13Z</time>
      </trkpt>
      <trkpt lat="44.42717" lon="1.6051">
        <ele>316</ele>
        <time>2024-03-13T13:31:14Z</time>
      </trkpt>
      <trkpt lat="44.42718" lon="1.6051">
        <ele>316</ele>
        <time>2024-03-13T13:31:15Z</time>
      </trkpt>
      <trkpt lat="44.42719" lon="1.60511">
        <ele>315</ele>
        <time>2024-03-13T13:31:16Z</time>
      </trkpt>
      <trkpt lat="44.4272" lon="1.60511">
        <ele>315</ele>
        <time>2024-03-13T13:31:17Z</time>
      </trkpt>
      <trkpt lat="44.42721" lon="1.60511">
        <ele>315</ele>
        <time>2024-03-13T13:31:18Z</time>
      </trkpt>
      <trkpt lat="44.42722" lon="1.60511">
        <ele>315</ele>
        <time>2024-03-13T13:31:19Z</time>
      </trkpt>
      <trkpt lat="44.42723" lon="1.60511">
        <ele>315</ele>
        <time>2024-03-13T13:31:20Z</time>
      </trkpt>
      <trkpt lat="44.42724" lon="1.6051">
        <ele>315</ele>
        <time>2024-03-13T13:31:21Z</time>
      </trkpt>
      <trkpt lat="44.42725" lon="1.60509">
        <ele>314</ele>
        <time>2024-03-13T13:31:22Z</time>
      </trkpt>
      <trkpt lat="44.42725" lon="1.60509">
        <ele>314</ele>
        <time>2024-03-13T13:31:23Z</time>
      </trkpt>
      <trkpt lat="44.42725" lon="1.60509">
        <ele>314</ele>
        <time>2024-03-13T13:31:24Z</time>
      </trkpt>
      <trkpt lat="44.42725" lon="1.60509">
        <ele>314</ele>
        <time>2024-03-13T13:31:25Z</time>
      </trkpt>
      <trkpt lat="44.42728" lon="1.60509">
        <ele>314</ele>
        <time>2024-03-13T13:31:26Z</time>
      </trkpt>
      <trkpt lat="44.42728" lon="1.60509">
        <ele>314</ele>
        <time>2024-03-13T13:31:27Z</time>
      </trkpt>
      <trkpt lat="44.42729" lon="1.60509">
        <ele>313</ele>
        <time>2024-03-13T13:31:28Z</time>
      </trkpt>
      <trkpt lat="44.4273" lon="1.60509">
        <ele>313</ele>
        <time>2024-03-13T13:31:29Z</time>
      </trkpt>
      <trkpt lat="44.42731" lon="1.60508">
        <ele>313</ele>
        <time>2024-03-13T13:31:30Z</time>
      </trkpt>
      <trkpt lat="44.42732" lon="1.60508">
        <ele>312</ele>
        <time>2024-03-13T13:31:31Z</time>
      </trkpt>
      <trkpt lat="44.42733" lon="1.60507">
        <ele>312</ele>
        <time>2024-03-13T13:31:32Z</time>
      </trkpt>
      <trkpt lat="44.42734" lon="1.60507">
        <ele>312</ele>
        <time>2024-03-13T13:31:33Z</time>
      </trkpt>
      <trkpt lat="44.42735" lon="1.60505">
        <ele>311</ele>
        <time>2024-03-13T13:31:34Z</time>
      </trkpt>
      <trkpt lat="44.42736" lon="1.60504">
        <ele>311</ele>
        <time>2024-03-13T13:31:35Z</time>
      </trkpt>
      <trkpt lat="44.42736" lon="1.60503">
        <ele>311</ele>
        <time>2024-03-13T13:31:36Z</time>
      </trkpt>
      <trkpt lat="44.42737" lon="1.60502">
        <ele>311</ele>
        <time>2024-03-13T13:31:37Z</time>
      </trkpt>
      <trkpt lat="44.42737" lon="1.60501">
        <ele>311</ele>
        <time>2024-03-13T13:31:38Z</time>
      </trkpt>
      <trkpt lat="44.42737" lon="1.60499">
        <ele>311</ele>
        <time>2024-03-13T13:31:39Z</time>
      </trkpt>
      <trkpt lat="44.42736" lon="1.60498">
        <ele>311</ele>
        <time>2024-03-13T13:31:40Z</time>
      </trkpt>
      <trkpt lat="44.42736" lon="1.60497">
        <ele>311</ele>
        <time>2024-03-13T13:31:41Z</time>
      </trkpt>
      <trkpt lat="44.42736" lon="1.60496">
        <ele>311</ele>
        <time>2024-03-13T13:31:42Z</time>
      </trkpt>
      <trkpt lat="44.42736" lon="1.60494">
        <ele>311</ele>
        <time>2024-03-13T13:31:43Z</time>
      </trkpt>
      <trkpt lat="44.42736" lon="1.60493">
        <ele>311</ele>
        <time>2024-03-13T13:31:44Z</time>
      </trkpt>
      <trkpt lat="44.42737" lon="1.60492">
        <ele>311</ele>
        <time>2024-03-13T13:31:45Z</time>
      </trkpt>
      <trkpt lat="44.42736" lon="1.60491">
        <ele>311</ele>
        <time>2024-03-13T13:31:46Z</time>
      </trkpt>
      <trkpt lat="44.42736" lon="1.6049">
        <ele>312</ele>
        <time>2024-03-13T13:31:47Z</time>
      </trkpt>
      <trkpt lat="44.42736" lon="1.60489">
        <ele>312</ele>
        <time>2024-03-13T13:31:48Z</time>
      </trkpt>
      <trkpt lat="44.42737" lon="1.60488">
        <ele>312</ele>
        <time>2024-03-13T13:31:49Z</time>
      </trkpt>
      <trkpt lat="44.42737" lon="1.60488">
        <ele>312</ele>
        <time>2024-03-13T13:31:50Z</time>
      </trkpt>
      <trkpt lat="44.42737" lon="1.60488">
        <ele>312</ele>
        <time>2024-03-13T13:31:51Z</time>
      </trkpt>
      <trkpt lat="44.42737" lon="1.60486">
        <ele>312</ele>
        <time>2024-03-13T13:31:52Z</time>
      </trkpt>
      <trkpt lat="44.42736" lon="1.60486">
        <ele>312</ele>
        <time>2024-03-13T13:31:53Z</time>
      </trkpt>
      <trkpt lat="44.42737" lon="1.60486">
        <ele>311</ele>
        <time>2024-03-13T13:31:54Z</time>
      </trkpt>
      <trkpt lat="44.42737" lon="1.60486">
        <ele>311</ele>
        <time>2024-03-13T13:31:55Z</time>
      </trkpt>
      <trkpt lat="44.42737" lon="1.60486">
        <ele>311</ele>
        <time>2024-03-13T13:31:56Z</time>
      </trkpt>
      <trkpt lat="44.42737" lon="1.60486">
        <ele>311</ele>
        <time>2024-03-13T13:31:57Z</time>
      </trkpt>
      <trkpt lat="44.42737" lon="1.60486">
        <ele>311</ele>
        <time>2024-03-13T13:31:58Z</time>
      </trkpt>
      <trkpt lat="44.42737" lon="1.60486">
        <ele>311</ele>
        <time>2024-03-13T13:31:59Z</time>
      </trkpt>
      <trkpt lat="44.42737" lon="1.60486">
        <ele>311</ele>
        <time>2024-03-13T13:32:00Z</time>
      </trkpt>
      <trkpt lat="44.42737" lon="1.60486">
        <ele>311</ele>
        <time>2024-03-13T13:32:01Z</time>
      </trkpt>
      <trkpt lat="44.42737" lon="1.60486">
        <ele>311</ele>
        <time>2024-03-13T13:32:02Z</time>
      </trkpt>
      <trkpt lat="44.42737" lon="1.60486">
        <ele>311</ele>
        <time>2024-03-13T13:32:03Z</time>
      </trkpt>
      <trkpt lat="44.42737" lon="1.60486">
        <ele>311</ele>
        <time>2024-03-13T13:32:04Z</time>
      </trkpt>
      <trkpt lat="44.42737" lon="1.60486">
        <ele>311</ele>
        <time>2024-03-13T13:32:05Z</time>
      </trkpt>
      <trkpt lat="44.42737" lon="1.60486">
        <ele>311</ele>
        <time>2024-03-13T13:32:06Z</time>
      </trkpt>
      <trkpt lat="44.42737" lon="1.60486">
        <ele>311</ele>
        <time>2024-03-13T13:32:07Z</time>
      </trkpt>
      <trkpt lat="44.42736" lon="1.60483">
        <ele>311</ele>
        <time>2024-03-13T13:32:08Z</time>
      </trkpt>
      <trkpt lat="44.42737" lon="1.60482">
        <ele>311</ele>
        <time>2024-03-13T13:32:09Z</time>
      </trkpt>
      <trkpt lat="44.42737" lon="1.60481">
        <ele>310</ele>
        <time>2024-03-13T13:32:10Z</time>
      </trkpt>
      <trkpt lat="44.42738" lon="1.6048">
        <ele>311</ele>
        <time>2024-03-13T13:32:11Z</time>
      </trkpt>
      <trkpt lat="44.42738" lon="1.60479">
        <ele>311</ele>
        <time>2024-03-13T13:32:12Z</time>
      </trkpt>
      <trkpt lat="44.42738" lon="1.60478">
        <ele>311</ele>
        <time>2024-03-13T13:32:13Z</time>
      </trkpt>
      <trkpt lat="44.42738" lon="1.60478">
        <ele>311</ele>
        <time>2024-03-13T13:32:14Z</time>
      </trkpt>
      <trkpt lat="44.42738" lon="1.60478">
        <ele>311</ele>
        <time>2024-03-13T13:32:15Z</time>
      </trkpt>
      <trkpt lat="44.42738" lon="1.60476">
        <ele>311</ele>
        <time>2024-03-13T13:32:16Z</time>
      </trkpt>
      <trkpt lat="44.42739" lon="1.60475">
        <ele>311</ele>
        <time>2024-03-13T13:32:17Z</time>
      </trkpt>
      <trkpt lat="44.42739" lon="1.60474">
        <ele>311</ele>
        <time>2024-03-13T13:32:18Z</time>
      </trkpt>
      <trkpt lat="44.42739" lon="1.60473">
        <ele>311</ele>
        <time>2024-03-13T13:32:19Z</time>
      </trkpt>
      <trkpt lat="44.42739" lon="1.60473">
        <ele>311</ele>
        <time>2024-03-13T13:32:20Z</time>
      </trkpt>
      <trkpt lat="44.42739" lon="1.60473">
        <ele>311</ele>
        <time>2024-03-13T13:32:21Z</time>
      </trkpt>
      <trkpt lat="44.42739" lon="1.6047">
        <ele>311</ele>
        <time>2024-03-13T13:32:22Z</time>
      </trkpt>
      <trkpt lat="44.42739" lon="1.60469">
        <ele>311</ele>
        <time>2024-03-13T13:32:23Z</time>
      </trkpt>
      <trkpt lat="44.42739" lon="1.60468">
        <ele>311</ele>
        <time>2024-03-13T13:32:24Z</time>
      </trkpt>
      <trkpt lat="44.42739" lon="1.60467">
        <ele>311</ele>
        <time>2024-03-13T13:32:25Z</time>
      </trkpt>
      <trkpt lat="44.42739" lon="1.60467">
        <ele>311</ele>
        <time>2024-03-13T13:32:26Z</time>
      </trkpt>
      <trkpt lat="44.42739" lon="1.60467">
        <ele>311</ele>
        <time>2024-03-13T13:32:27Z</time>
      </trkpt>
      <trkpt lat="44.42739" lon="1.60467">
        <ele>311</ele>
        <time>2024-03-13T13:32:28Z</time>
      </trkpt>
      <trkpt lat="44.42739" lon="1.60467">
        <ele>311</ele>
        <time>2024-03-13T13:32:29Z</time>
      </trkpt>
      <trkpt lat="44.42739" lon="1.60467">
        <ele>311</ele>
        <time>2024-03-13T13:32:30Z</time>
      </trkpt>
      <trkpt lat="44.42739" lon="1.60467">
        <ele>311</ele>
        <time>2024-03-13T13:32:31Z</time>
      </trkpt>
      <trkpt lat="44.42739" lon="1.60467">
        <ele>311</ele>
        <time>2024-03-13T13:32:32Z</time>
      </trkpt>
      <trkpt lat="44.42739" lon="1.60467">
        <ele>311</ele>
        <time>2024-03-13T13:32:33Z</time>
      </trkpt>
      <trkpt lat="44.42739" lon="1.60467">
        <ele>311</ele>
        <time>2024-03-13T13:32:34Z</time>
      </trkpt>
      <trkpt lat="44.42739" lon="1.60465">
        <ele>310</ele>
        <time>2024-03-13T13:32:35Z</time>
      </trkpt>
      <trkpt lat="44.42739" lon="1.60464">
        <ele>311</ele>
        <time>2024-03-13T13:32:36Z</time>
      </trkpt>
      <trkpt lat="44.4274" lon="1.60463">
        <ele>310</ele>
        <time>2024-03-13T13:32:37Z</time>
      </trkpt>
      <trkpt lat="44.4274" lon="1.60462">
        <ele>310</ele>
        <time>2024-03-13T13:32:38Z</time>
      </trkpt>
      <trkpt lat="44.4274" lon="1.60462">
        <ele>310</ele>
        <time>2024-03-13T13:32:39Z</time>
      </trkpt>
      <trkpt lat="44.4274" lon="1.60462">
        <ele>310</ele>
        <time>2024-03-13T13:32:40Z</time>
      </trkpt>
      <trkpt lat="44.42739" lon="1.60461">
        <ele>310</ele>
        <time>2024-03-13T13:32:41Z</time>
      </trkpt>
      <trkpt lat="44.42739" lon="1.60461">
        <ele>310</ele>
        <time>2024-03-13T13:32:42Z</time>
      </trkpt>
      <trkpt lat="44.42739" lon="1.60461">
        <ele>310</ele>
        <time>2024-03-13T13:32:43Z</time>
      </trkpt>
      <trkpt lat="44.42741" lon="1.60458">
        <ele>308</ele>
        <time>2024-03-13T13:32:44Z</time>
      </trkpt>
      <trkpt lat="44.42741" lon="1.60457">
        <ele>308</ele>
        <time>2024-03-13T13:32:45Z</time>
      </trkpt>
      <trkpt lat="44.42741" lon="1.60456">
        <ele>308</ele>
        <time>2024-03-13T13:32:46Z</time>
      </trkpt>
      <trkpt lat="44.42741" lon="1.60455">
        <ele>308</ele>
        <time>2024-03-13T13:32:47Z</time>
      </trkpt>
      <trkpt lat="44.42741" lon="1.60455">
        <ele>308</ele>
        <time>2024-03-13T13:32:48Z</time>
      </trkpt>
      <trkpt lat="44.42741" lon="1.60453">
        <ele>309</ele>
        <time>2024-03-13T13:32:49Z</time>
      </trkpt>
      <trkpt lat="44.42741" lon="1.60451">
        <ele>308</ele>
        <time>2024-03-13T13:32:50Z</time>
      </trkpt>
      <trkpt lat="44.42741" lon="1.6045">
        <ele>309</ele>
        <time>2024-03-13T13:32:51Z</time>
      </trkpt>
      <trkpt lat="44.42741" lon="1.60449">
        <ele>309</ele>
        <time>2024-03-13T13:32:52Z</time>
      </trkpt>
      <trkpt lat="44.42741" lon="1.60449">
        <ele>309</ele>
        <time>2024-03-13T13:32:53Z</time>
      </trkpt>
      <trkpt lat="44.42742" lon="1.60448">
        <ele>309</ele>
        <time>2024-03-13T13:32:54Z</time>
      </trkpt>
      <trkpt lat="44.42742" lon="1.60448">
        <ele>309</ele>
        <time>2024-03-13T13:32:55Z</time>
      </trkpt>
      <trkpt lat="44.42742" lon="1.60446">
        <ele>309</ele>
        <time>2024-03-13T13:32:56Z</time>
      </trkpt>
      <trkpt lat="44.42743" lon="1.60444">
        <ele>309</ele>
        <time>2024-03-13T13:32:57Z</time>
      </trkpt>
      <trkpt lat="44.42743" lon="1.60443">
        <ele>309</ele>
        <time>2024-03-13T13:32:58Z</time>
      </trkpt>
      <trkpt lat="44.42743" lon="1.60441">
        <ele>310</ele>
        <time>2024-03-13T13:32:59Z</time>
      </trkpt>
      <trkpt lat="44.42743" lon="1.6044">
        <ele>310</ele>
        <time>2024-03-13T13:33:00Z</time>
      </trkpt>
      <trkpt lat="44.42743" lon="1.60438">
        <ele>310</ele>
        <time>2024-03-13T13:33:01Z</time>
      </trkpt>
      <trkpt lat="44.42744" lon="1.60436">
        <ele>311</ele>
        <time>2024-03-13T13:33:02Z</time>
      </trkpt>
      <trkpt lat="44.42744" lon="1.60435">
        <ele>311</ele>
        <time>2024-03-13T13:33:03Z</time>
      </trkpt>
      <trkpt lat="44.42744" lon="1.60433">
        <ele>311</ele>
        <time>2024-03-13T13:33:04Z</time>
      </trkpt>
      <trkpt lat="44.42744" lon="1.60431">
        <ele>311</ele>
        <time>2024-03-13T13:33:05Z</time>
      </trkpt>
      <trkpt lat="44.42744" lon="1.6043">
        <ele>312</ele>
        <time>2024-03-13T13:33:06Z</time>
      </trkpt>
      <trkpt lat="44.42744" lon="1.60428">
        <ele>312</ele>
        <time>2024-03-13T13:33:07Z</time>
      </trkpt>
      <trkpt lat="44.42745" lon="1.60427">
        <ele>312</ele>
        <time>2024-03-13T13:33:08Z</time>
      </trkpt>
      <trkpt lat="44.42746" lon="1.60426">
        <ele>312</ele>
        <time>2024-03-13T13:33:09Z</time>
      </trkpt>
      <trkpt lat="44.42746" lon="1.60424">
        <ele>313</ele>
        <time>2024-03-13T13:33:10Z</time>
      </trkpt>
      <trkpt lat="44.42746" lon="1.60423">
        <ele>313</ele>
        <time>2024-03-13T13:33:11Z</time>
      </trkpt>
      <trkpt lat="44.42747" lon="1.60422">
        <ele>313</ele>
        <time>2024-03-13T13:33:12Z</time>
      </trkpt>
      <trkpt lat="44.42747" lon="1.60421">
        <ele>313</ele>
        <time>2024-03-13T13:33:13Z</time>
      </trkpt>
      <trkpt lat="44.42748" lon="1.60419">
        <ele>314</ele>
        <time>2024-03-13T13:33:14Z</time>
      </trkpt>
      <trkpt lat="44.42749" lon="1.60418">
        <ele>314</ele>
        <time>2024-03-13T13:33:15Z</time>
      </trkpt>
      <trkpt lat="44.4275" lon="1.60417">
        <ele>314</ele>
        <time>2024-03-13T13:33:16Z</time>
      </trkpt>
      <trkpt lat="44.42751" lon="1.60416">
        <ele>314</ele>
        <time>2024-03-13T13:33:17Z</time>
      </trkpt>
      <trkpt lat="44.42751" lon="1.60414">
        <ele>314</ele>
        <time>2024-03-13T13:33:18Z</time>
      </trkpt>
      <trkpt lat="44.42751" lon="1.60413">
        <ele>314</ele>
        <time>2024-03-13T13:33:19Z</time>
      </trkpt>
      <trkpt lat="44.42752" lon="1.60411">
        <ele>314</ele>
        <time>2024-03-13T13:33:20Z</time>
      </trkpt>
      <trkpt lat="44.42752" lon="1.6041">
        <ele>314</ele>
        <time>2024-03-13T13:33:21Z</time>
      </trkpt>
      <trkpt lat="44.42752" lon="1.60409">
        <ele>314</ele>
        <time>2024-03-13T13:33:22Z</time>
      </trkpt>
      <trkpt lat="44.42752" lon="1.60408">
        <ele>314</ele>
        <time>2024-03-13T13:33:23Z</time>
      </trkpt>
      <trkpt lat="44.42753" lon="1.60407">
        <ele>315</ele>
        <time>2024-03-13T13:33:24Z</time>
      </trkpt>
      <trkpt lat="44.42753" lon="1.60406">
        <ele>315</ele>
        <time>2024-03-13T13:33:25Z</time>
      </trkpt>
      <trkpt lat="44.42754" lon="1.60406">
        <ele>315</ele>
        <time>2024-03-13T13:33:26Z</time>
      </trkpt>
      <trkpt lat="44.42754" lon="1.60405">
        <ele>315</ele>
        <time>2024-03-13T13:33:27Z</time>
      </trkpt>
      <trkpt lat="44.42754" lon="1.60405">
        <ele>315</ele>
        <time>2024-03-13T13:33:28Z</time>
      </trkpt>
      <trkpt lat="44.42754" lon="1.60405">
        <ele>315</ele>
        <time>2024-03-13T13:33:29Z</time>
      </trkpt>
      <trkpt lat="44.42754" lon="1.60405">
        <ele>315</ele>
        <time>2024-03-13T13:33:30Z</time>
      </trkpt>
      <trkpt lat="44.42754" lon="1.60405">
        <ele>315</ele>
        <time>2024-03-13T13:33:31Z</time>
      </trkpt>
      <trkpt lat="44.42754" lon="1.60405">
        <ele>315</ele>
        <time>2024-03-13T13:33:32Z</time>
      </trkpt>
      <trkpt lat="44.42754" lon="1.60405">
        <ele>315</ele>
        <time>2024-03-13T13:33:33Z</time>
      </trkpt>
      <trkpt lat="44.42754" lon="1.60405">
        <ele>315</ele>
        <time>2024-03-13T13:33:34Z</time>
      </trkpt>
      <trkpt lat="44.42754" lon="1.60405">
        <ele>315</ele>
        <time>2024-03-13T13:33:35Z</time>
      </trkpt>
      <trkpt lat="44.42754" lon="1.60405">
        <ele>315</ele>
        <time>2024-03-13T13:33:36Z</time>
      </trkpt>
      <trkpt lat="44.42754" lon="1.60405">
        <ele>315</ele>
        <time>2024-03-13T13:33:37Z</time>
      </trkpt>
      <trkpt lat="44.42754" lon="1.60405">
        <ele>315</ele>
        <time>2024-03-13T13:33:38Z</time>
      </trkpt>
      <trkpt lat="44.42754" lon="1.60403">
        <ele>313</ele>
        <time>2024-03-13T13:33:39Z</time>
      </trkpt>
      <trkpt lat="44.42755" lon="1.60402">
        <ele>313</ele>
        <time>2024-03-13T13:33:40Z</time>
      </trkpt>
      <trkpt lat="44.42756" lon="1.60401">
        <ele>313</ele>
        <time>2024-03-13T13:33:41Z</time>
      </trkpt>
      <trkpt lat="44.42756" lon="1.60401">
        <ele>313</ele>
        <time>2024-03-13T13:33:42Z</time>
      </trkpt>
      <trkpt lat="44.42756" lon="1.604">
        <ele>313</ele>
        <time>2024-03-13T13:33:43Z</time>
      </trkpt>
      <trkpt lat="44.42756" lon="1.604">
        <ele>313</ele>
        <time>2024-03-13T13:33:44Z</time>
      </trkpt>
      <trkpt lat="44.42756" lon="1.604">
        <ele>313</ele>
        <time>2024-03-13T13:33:45Z</time>
      </trkpt>
      <trkpt lat="44.42756" lon="1.604">
        <ele>313</ele>
        <time>2024-03-13T13:33:46Z</time>
      </trkpt>
      <trkpt lat="44.42756" lon="1.604">
        <ele>313</ele>
        <time>2024-03-13T13:33:47Z</time>
      </trkpt>
      <trkpt lat="44.42756" lon="1.604">
        <ele>313</ele>
        <time>2024-03-13T13:33:48Z</time>
      </trkpt>
      <trkpt lat="44.42756" lon="1.604">
        <ele>313</ele>
        <time>2024-03-13T13:33:49Z</time>
      </trkpt>
      <trkpt lat="44.42756" lon="1.604">
        <ele>313</ele>
        <time>2024-03-13T13:33:50Z</time>
      </trkpt>
      <trkpt lat="44.42757" lon="1.60398">
        <ele>312</ele>
        <time>2024-03-13T13:33:51Z</time>
      </trkpt>
      <trkpt lat="44.42757" lon="1.60397">
        <ele>312</ele>
        <time>2024-03-13T13:33:52Z</time>
      </trkpt>
      <trkpt lat="44.42758" lon="1.60396">
        <ele>312</ele>
        <time>2024-03-13T13:33:53Z</time>
      </trkpt>
      <trkpt lat="44.42758" lon="1.60395">
        <ele>312</ele>
        <time>2024-03-13T13:33:54Z</time>
      </trkpt>
      <trkpt lat="44.42758" lon="1.60394">
        <ele>312</ele>
        <time>2024-03-13T13:33:55Z</time>
      </trkpt>
      <trkpt lat="44.42759" lon="1.60393">
        <ele>313</ele>
        <time>2024-03-13T13:33:56Z</time>
      </trkpt>
      <trkpt lat="44.42759" lon="1.60392">
        <ele>313</ele>
        <time>2024-03-13T13:33:57Z</time>
      </trkpt>
      <trkpt lat="44.42759" lon="1.60391">
        <ele>313</ele>
        <time>2024-03-13T13:33:58Z</time>
      </trkpt>
      <trkpt lat="44.42759" lon="1.60389">
        <ele>313</ele>
        <time>2024-03-13T13:33:59Z</time>
      </trkpt>
      <trkpt lat="44.42759" lon="1.60388">
        <ele>313</ele>
        <time>2024-03-13T13:34:00Z</time>
      </trkpt>
      <trkpt lat="44.42759" lon="1.60386">
        <ele>313</ele>
        <time>2024-03-13T13:34:01Z</time>
      </trkpt>
      <trkpt lat="44.42759" lon="1.60385">
        <ele>313</ele>
        <time>2024-03-13T13:34:02Z</time>
      </trkpt>
      <trkpt lat="44.42759" lon="1.60383">
        <ele>313</ele>
        <time>2024-03-13T13:34:03Z</time>
      </trkpt>
      <trkpt lat="44.4276" lon="1.60382">
        <ele>313</ele>
        <time>2024-03-13T13:34:04Z</time>
      </trkpt>
      <trkpt lat="44.42759" lon="1.6038">
        <ele>313</ele>
        <time>2024-03-13T13:34:05Z</time>
      </trkpt>
      <trkpt lat="44.42759" lon="1.60379">
        <ele>314</ele>
        <time>2024-03-13T13:34:06Z</time>
      </trkpt>
      <trkpt lat="44.4276" lon="1.60378">
        <ele>314</ele>
        <time>2024-03-13T13:34:07Z</time>
      </trkpt>
      <trkpt lat="44.4276" lon="1.60376">
        <ele>314</ele>
        <time>2024-03-13T13:34:08Z</time>
      </trkpt>
      <trkpt lat="44.4276" lon="1.60375">
        <ele>314</ele>
        <time>2024-03-13T13:34:09Z</time>
      </trkpt>
      <trkpt lat="44.4276" lon="1.60374">
        <ele>314</ele>
        <time>2024-03-13T13:34:10Z</time>
      </trkpt>
      <trkpt lat="44.4276" lon="1.60373">
        <ele>314</ele>
        <time>2024-03-13T13:34:11Z</time>
      </trkpt>
      <trkpt lat="44.4276" lon="1.60371">
        <ele>314</ele>
        <time>2024-03-13T13:34:12Z</time>
      </trkpt>
      <trkpt lat="44.4276" lon="1.6037">
        <ele>315</ele>
        <time>2024-03-13T13:34:13Z</time>
      </trkpt>
      <trkpt lat="44.42761" lon="1.60368">
        <ele>315</ele>
        <time>2024-03-13T13:34:14Z</time>
      </trkpt>
      <trkpt lat="44.42761" lon="1.60367">
        <ele>314</ele>
        <time>2024-03-13T13:34:15Z</time>
      </trkpt>
      <trkpt lat="44.42762" lon="1.60365">
        <ele>314</ele>
        <time>2024-03-13T13:34:16Z</time>
      </trkpt>
      <trkpt lat="44.42762" lon="1.60364">
        <ele>315</ele>
        <time>2024-03-13T13:34:17Z</time>
      </trkpt>
      <trkpt lat="44.42762" lon="1.60363">
        <ele>315</ele>
        <time>2024-03-13T13:34:18Z</time>
      </trkpt>
      <trkpt lat="44.42762" lon="1.60363">
        <ele>315</ele>
        <time>2024-03-13T13:34:19Z</time>
      </trkpt>
      <trkpt lat="44.42762" lon="1.6036">
        <ele>315</ele>
        <time>2024-03-13T13:34:20Z</time>
      </trkpt>
      <trkpt lat="44.42762" lon="1.60358">
        <ele>316</ele>
        <time>2024-03-13T13:34:21Z</time>
      </trkpt>
      <trkpt lat="44.42762" lon="1.60357">
        <ele>316</ele>
        <time>2024-03-13T13:34:22Z</time>
      </trkpt>
      <trkpt lat="44.42763" lon="1.60355">
        <ele>316</ele>
        <time>2024-03-13T13:34:23Z</time>
      </trkpt>
      <trkpt lat="44.42762" lon="1.60354">
        <ele>316</ele>
        <time>2024-03-13T13:34:24Z</time>
      </trkpt>
      <trkpt lat="44.42763" lon="1.60352">
        <ele>316</ele>
        <time>2024-03-13T13:34:25Z</time>
      </trkpt>
      <trkpt lat="44.42762" lon="1.60351">
        <ele>316</ele>
        <time>2024-03-13T13:34:26Z</time>
      </trkpt>
      <trkpt lat="44.42762" lon="1.6035">
        <ele>317</ele>
        <time>2024-03-13T13:34:27Z</time>
      </trkpt>
      <trkpt lat="44.42762" lon="1.60348">
        <ele>317</ele>
        <time>2024-03-13T13:34:28Z</time>
      </trkpt>
      <trkpt lat="44.42762" lon="1.60346">
        <ele>318</ele>
        <time>2024-03-13T13:34:29Z</time>
      </trkpt>
      <trkpt lat="44.42762" lon="1.60345">
        <ele>318</ele>
        <time>2024-03-13T13:34:30Z</time>
      </trkpt>
      <trkpt lat="44.42762" lon="1.60344">
        <ele>318</ele>
        <time>2024-03-13T13:34:31Z</time>
      </trkpt>
      <trkpt lat="44.42761" lon="1.60344">
        <ele>318</ele>
        <time>2024-03-13T13:34:32Z</time>
      </trkpt>
      <trkpt lat="44.42761" lon="1.60344">
        <ele>318</ele>
        <time>2024-03-13T13:34:33Z</time>
      </trkpt>
      <trkpt lat="44.42761" lon="1.60344">
        <ele>318</ele>
        <time>2024-03-13T13:34:34Z</time>
      </trkpt>
      <trkpt lat="44.4276" lon="1.60341">
        <ele>319</ele>
        <time>2024-03-13T13:34:35Z</time>
      </trkpt>
      <trkpt lat="44.4276" lon="1.6034">
        <ele>319</ele>
        <time>2024-03-13T13:34:36Z</time>
      </trkpt>
      <trkpt lat="44.4276" lon="1.60338">
        <ele>319</ele>
        <time>2024-03-13T13:34:37Z</time>
      </trkpt>
      <trkpt lat="44.4276" lon="1.60337">
        <ele>319</ele>
        <time>2024-03-13T13:34:38Z</time>
      </trkpt>
      <trkpt lat="44.4276" lon="1.60337">
        <ele>319</ele>
        <time>2024-03-13T13:34:39Z</time>
      </trkpt>
      <trkpt lat="44.4276" lon="1.60337">
        <ele>319</ele>
        <time>2024-03-13T13:34:40Z</time>
      </trkpt>
      <trkpt lat="44.4276" lon="1.60335">
        <ele>319</ele>
        <time>2024-03-13T13:34:41Z</time>
      </trkpt>
      <trkpt lat="44.42759" lon="1.60334">
        <ele>319</ele>
        <time>2024-03-13T13:34:42Z</time>
      </trkpt>
      <trkpt lat="44.42759" lon="1.60332">
        <ele>319</ele>
        <time>2024-03-13T13:34:43Z</time>
      </trkpt>
      <trkpt lat="44.42759" lon="1.60331">
        <ele>319</ele>
        <time>2024-03-13T13:34:44Z</time>
      </trkpt>
      <trkpt lat="44.42759" lon="1.6033">
        <ele>319</ele>
        <time>2024-03-13T13:34:45Z</time>
      </trkpt>
      <trkpt lat="44.42759" lon="1.60328">
        <ele>319</ele>
        <time>2024-03-13T13:34:46Z</time>
      </trkpt>
      <trkpt lat="44.42758" lon="1.60327">
        <ele>319</ele>
        <time>2024-03-13T13:34:47Z</time>
      </trkpt>
      <trkpt lat="44.42757" lon="1.60325">
        <ele>319</ele>
        <time>2024-03-13T13:34:48Z</time>
      </trkpt>
      <trkpt lat="44.42757" lon="1.60324">
        <ele>319</ele>
        <time>2024-03-13T13:34:49Z</time>
      </trkpt>
      <trkpt lat="44.42757" lon="1.60323">
        <ele>319</ele>
        <time>2024-03-13T13:34:50Z</time>
      </trkpt>
      <trkpt lat="44.42756" lon="1.60322">
        <ele>320</ele>
        <time>2024-03-13T13:34:51Z</time>
      </trkpt>
      <trkpt lat="44.42756" lon="1.60321">
        <ele>320</ele>
        <time>2024-03-13T13:34:52Z</time>
      </trkpt>
      <trkpt lat="44.42756" lon="1.6032">
        <ele>320</ele>
        <time>2024-03-13T13:34:53Z</time>
      </trkpt>
      <trkpt lat="44.42756" lon="1.60318">
        <ele>320</ele>
        <time>2024-03-13T13:34:54Z</time>
      </trkpt>
      <trkpt lat="44.42755" lon="1.60317">
        <ele>320</ele>
        <time>2024-03-13T13:34:55Z</time>
      </trkpt>
      <trkpt lat="44.42755" lon="1.60316">
        <ele>321</ele>
        <time>2024-03-13T13:34:56Z</time>
      </trkpt>
      <trkpt lat="44.42755" lon="1.60315">
        <ele>321</ele>
        <time>2024-03-13T13:34:57Z</time>
      </trkpt>
      <trkpt lat="44.42755" lon="1.60313">
        <ele>321</ele>
        <time>2024-03-13T13:34:58Z</time>
      </trkpt>
      <trkpt lat="44.42754" lon="1.60311">
        <ele>321</ele>
        <time>2024-03-13T13:34:59Z</time>
      </trkpt>
      <trkpt lat="44.42754" lon="1.6031">
        <ele>321</ele>
        <time>2024-03-13T13:35:00Z</time>
      </trkpt>
      <trkpt lat="44.42754" lon="1.60308">
        <ele>322</ele>
        <time>2024-03-13T13:35:01Z</time>
      </trkpt>
      <trkpt lat="44.42754" lon="1.60307">
        <ele>321</ele>
        <time>2024-03-13T13:35:02Z</time>
      </trkpt>
      <trkpt lat="44.42753" lon="1.60307">
        <ele>321</ele>
        <time>2024-03-13T13:35:03Z</time>
      </trkpt>
      <trkpt lat="44.42753" lon="1.60306">
        <ele>322</ele>
        <time>2024-03-13T13:35:04Z</time>
      </trkpt>
      <trkpt lat="44.42753" lon="1.60305">
        <ele>322</ele>
        <time>2024-03-13T13:35:05Z</time>
      </trkpt>
      <trkpt lat="44.42753" lon="1.60304">
        <ele>322</ele>
        <time>2024-03-13T13:35:06Z</time>
      </trkpt>
      <trkpt lat="44.42752" lon="1.60302">
        <ele>322</ele>
        <time>2024-03-13T13:35:07Z</time>
      </trkpt>
      <trkpt lat="44.42752" lon="1.60301">
        <ele>323</ele>
        <time>2024-03-13T13:35:08Z</time>
      </trkpt>
      <trkpt lat="44.42751" lon="1.603">
        <ele>323</ele>
        <time>2024-03-13T13:35:09Z</time>
      </trkpt>
      <trkpt lat="44.42751" lon="1.60298">
        <ele>323</ele>
        <time>2024-03-13T13:35:10Z</time>
      </trkpt>
      <trkpt lat="44.42751" lon="1.60296">
        <ele>323</ele>
        <time>2024-03-13T13:35:11Z</time>
      </trkpt>
      <trkpt lat="44.42751" lon="1.60294">
        <ele>324</ele>
        <time>2024-03-13T13:35:12Z</time>
      </trkpt>
      <trkpt lat="44.42751" lon="1.60293">
        <ele>324</ele>
        <time>2024-03-13T13:35:13Z</time>
      </trkpt>
      <trkpt lat="44.42751" lon="1.60292">
        <ele>324</ele>
        <time>2024-03-13T13:35:14Z</time>
      </trkpt>
      <trkpt lat="44.42751" lon="1.60291">
        <ele>324</ele>
        <time>2024-03-13T13:35:15Z</time>
      </trkpt>
      <trkpt lat="44.4275" lon="1.6029">
        <ele>324</ele>
        <time>2024-03-13T13:35:16Z</time>
      </trkpt>
      <trkpt lat="44.4275" lon="1.60289">
        <ele>324</ele>
        <time>2024-03-13T13:35:17Z</time>
      </trkpt>
      <trkpt lat="44.4275" lon="1.60288">
        <ele>325</ele>
        <time>2024-03-13T13:35:18Z</time>
      </trkpt>
      <trkpt lat="44.42749" lon="1.60287">
        <ele>325</ele>
        <time>2024-03-13T13:35:19Z</time>
      </trkpt>
      <trkpt lat="44.42749" lon="1.60286">
        <ele>325</ele>
        <time>2024-03-13T13:35:20Z</time>
      </trkpt>
      <trkpt lat="44.42749" lon="1.60285">
        <ele>325</ele>
        <time>2024-03-13T13:35:21Z</time>
      </trkpt>
      <trkpt lat="44.42748" lon="1.60284">
        <ele>325</ele>
        <time>2024-03-13T13:35:22Z</time>
      </trkpt>
      <trkpt lat="44.42748" lon="1.60283">
        <ele>326</ele>
        <time>2024-03-13T13:35:23Z</time>
      </trkpt>
      <trkpt lat="44.42748" lon="1.60282">
        <ele>326</ele>
        <time>2024-03-13T13:35:24Z</time>
      </trkpt>
      <trkpt lat="44.42747" lon="1.60281">
        <ele>326</ele>
        <time>2024-03-13T13:35:25Z</time>
      </trkpt>
      <trkpt lat="44.42747" lon="1.60281">
        <ele>326</ele>
        <time>2024-03-13T13:35:26Z</time>
      </trkpt>
      <trkpt lat="44.42746" lon="1.60279">
        <ele>326</ele>
        <time>2024-03-13T13:35:27Z</time>
      </trkpt>
      <trkpt lat="44.42746" lon="1.60278">
        <ele>326</ele>
        <time>2024-03-13T13:35:28Z</time>
      </trkpt>
      <trkpt lat="44.42745" lon="1.60277">
        <ele>327</ele>
        <time>2024-03-13T13:35:29Z</time>
      </trkpt>
      <trkpt lat="44.42744" lon="1.60276">
        <ele>327</ele>
        <time>2024-03-13T13:35:30Z</time>
      </trkpt>
      <trkpt lat="44.42744" lon="1.60275">
        <ele>327</ele>
        <time>2024-03-13T13:35:31Z</time>
      </trkpt>
      <trkpt lat="44.42743" lon="1.60274">
        <ele>327</ele>
        <time>2024-03-13T13:35:32Z</time>
      </trkpt>
      <trkpt lat="44.42742" lon="1.60273">
        <ele>327</ele>
        <time>2024-03-13T13:35:33Z</time>
      </trkpt>
      <trkpt lat="44.42741" lon="1.60272">
        <ele>327</ele>
        <time>2024-03-13T13:35:34Z</time>
      </trkpt>
      <trkpt lat="44.42741" lon="1.6027">
        <ele>327</ele>
        <time>2024-03-13T13:35:35Z</time>
      </trkpt>
      <trkpt lat="44.4274" lon="1.60269">
        <ele>327</ele>
        <time>2024-03-13T13:35:36Z</time>
      </trkpt>
      <trkpt lat="44.42739" lon="1.60268">
        <ele>327</ele>
        <time>2024-03-13T13:35:37Z</time>
      </trkpt>
      <trkpt lat="44.42738" lon="1.60268">
        <ele>327</ele>
        <time>2024-03-13T13:35:38Z</time>
      </trkpt>
      <trkpt lat="44.42738" lon="1.60266">
        <ele>327</ele>
        <time>2024-03-13T13:35:39Z</time>
      </trkpt>
      <trkpt lat="44.42737" lon="1.60266">
        <ele>327</ele>
        <time>2024-03-13T13:35:40Z</time>
      </trkpt>
      <trkpt lat="44.42736" lon="1.60265">
        <ele>328</ele>
        <time>2024-03-13T13:35:41Z</time>
      </trkpt>
      <trkpt lat="44.42736" lon="1.60264">
        <ele>327</ele>
        <time>2024-03-13T13:35:42Z</time>
      </trkpt>
      <trkpt lat="44.42736" lon="1.60263">
        <ele>328</ele>
        <time>2024-03-13T13:35:43Z</time>
      </trkpt>
      <trkpt lat="44.42735" lon="1.60262">
        <ele>328</ele>
        <time>2024-03-13T13:35:44Z</time>
      </trkpt>
      <trkpt lat="44.42735" lon="1.60261">
        <ele>328</ele>
        <time>2024-03-13T13:35:45Z</time>
      </trkpt>
      <trkpt lat="44.42735" lon="1.60261">
        <ele>328</ele>
        <time>2024-03-13T13:35:46Z</time>
      </trkpt>
      <trkpt lat="44.42735" lon="1.60261">
        <ele>328</ele>
        <time>2024-03-13T13:35:47Z</time>
      </trkpt>
      <trkpt lat="44.42733" lon="1.60261">
        <ele>328</ele>
        <time>2024-03-13T13:35:48Z</time>
      </trkpt>
      <trkpt lat="44.42732" lon="1.6026">
        <ele>328</ele>
        <time>2024-03-13T13:35:49Z</time>
      </trkpt>
      <trkpt lat="44.42732" lon="1.60259">
        <ele>328</ele>
        <time>2024-03-13T13:35:50Z</time>
      </trkpt>
      <trkpt lat="44.42731" lon="1.60258">
        <ele>329</ele>
        <time>2024-03-13T13:35:51Z</time>
      </trkpt>
      <trkpt lat="44.42731" lon="1.60257">
        <ele>329</ele>
        <time>2024-03-13T13:35:52Z</time>
      </trkpt>
      <trkpt lat="44.4273" lon="1.60256">
        <ele>329</ele>
        <time>2024-03-13T13:35:53Z</time>
      </trkpt>
      <trkpt lat="44.4273" lon="1.60255">
        <ele>329</ele>
        <time>2024-03-13T13:35:54Z</time>
      </trkpt>
      <trkpt lat="44.42729" lon="1.60254">
        <ele>329</ele>
        <time>2024-03-13T13:35:55Z</time>
      </trkpt>
      <trkpt lat="44.42728" lon="1.60253">
        <ele>329</ele>
        <time>2024-03-13T13:35:56Z</time>
      </trkpt>
      <trkpt lat="44.42728" lon="1.60252">
        <ele>329</ele>
        <time>2024-03-13T13:35:57Z</time>
      </trkpt>
      <trkpt lat="44.42727" lon="1.60249">
        <ele>330</ele>
        <time>2024-03-13T13:35:58Z</time>
      </trkpt>
      <trkpt lat="44.42727" lon="1.60248">
        <ele>330</ele>
        <time>2024-03-13T13:35:59Z</time>
      </trkpt>
      <trkpt lat="44.42726" lon="1.60248">
        <ele>330</ele>
        <time>2024-03-13T13:36:00Z</time>
      </trkpt>
      <trkpt lat="44.42726" lon="1.60248">
        <ele>330</ele>
        <time>2024-03-13T13:36:02Z</time>
      </trkpt>
      <trkpt lat="44.42726" lon="1.60248">
        <ele>330</ele>
        <time>2024-03-13T13:36:03Z</time>
      </trkpt>
      <trkpt lat="44.42726" lon="1.60248">
        <ele>330</ele>
        <time>2024-03-13T13:36:04Z</time>
      </trkpt>
      <trkpt lat="44.42726" lon="1.60245">
        <ele>331</ele>
        <time>2024-03-13T13:36:05Z</time>
      </trkpt>
      <trkpt lat="44.42725" lon="1.60245">
        <ele>331</ele>
        <time>2024-03-13T13:36:06Z</time>
      </trkpt>
      <trkpt lat="44.42724" lon="1.60243">
        <ele>332</ele>
        <time>2024-03-13T13:36:07Z</time>
      </trkpt>
      <trkpt lat="44.42724" lon="1.60243">
        <ele>332</ele>
        <time>2024-03-13T13:36:09Z</time>
      </trkpt>
      <trkpt lat="44.42724" lon="1.60243">
        <ele>332</ele>
        <time>2024-03-13T13:36:10Z</time>
      </trkpt>
      <trkpt lat="44.42722" lon="1.60242">
        <ele>332</ele>
        <time>2024-03-13T13:36:11Z</time>
      </trkpt>
      <trkpt lat="44.4272" lon="1.60241">
        <ele>332</ele>
        <time>2024-03-13T13:36:12Z</time>
      </trkpt>
      <trkpt lat="44.42719" lon="1.6024">
        <ele>332</ele>
        <time>2024-03-13T13:36:13Z</time>
      </trkpt>
      <trkpt lat="44.42719" lon="1.60239">
        <ele>331</ele>
        <time>2024-03-13T13:36:14Z</time>
      </trkpt>
      <trkpt lat="44.42717" lon="1.60238">
        <ele>331</ele>
        <time>2024-03-13T13:36:15Z</time>
      </trkpt>
      <trkpt lat="44.42717" lon="1.60238">
        <ele>331</ele>
        <time>2024-03-13T13:36:16Z</time>
      </trkpt>
      <trkpt lat="44.42715" lon="1.60237">
        <ele>331</ele>
        <time>2024-03-13T13:36:17Z</time>
      </trkpt>
      <trkpt lat="44.42715" lon="1.60237">
        <ele>331</ele>
        <time>2024-03-13T13:36:18Z</time>
      </trkpt>
      <trkpt lat="44.42715" lon="1.60237">
        <ele>331</ele>
        <time>2024-03-13T13:36:19Z</time>
      </trkpt>
      <trkpt lat="44.42713" lon="1.60234">
        <ele>332</ele>
        <time>2024-03-13T13:36:20Z</time>
      </trkpt>
      <trkpt lat="44.42712" lon="1.60234">
        <ele>331</ele>
        <time>2024-03-13T13:36:21Z</time>
      </trkpt>
      <trkpt lat="44.42712" lon="1.60233">
        <ele>331</ele>
        <time>2024-03-13T13:36:22Z</time>
      </trkpt>
      <trkpt lat="44.42711" lon="1.60232">
        <ele>331</ele>
        <time>2024-03-13T13:36:23Z</time>
      </trkpt>
      <trkpt lat="44.42711" lon="1.60232">
        <ele>331</ele>
        <time>2024-03-13T13:36:24Z</time>
      </trkpt>
      <trkpt lat="44.42711" lon="1.60232">
        <ele>331</ele>
        <time>2024-03-13T13:36:25Z</time>
      </trkpt>
      <trkpt lat="44.4271" lon="1.60231">
        <ele>331</ele>
        <time>2024-03-13T13:36:26Z</time>
      </trkpt>
      <trkpt lat="44.42709" lon="1.6023">
        <ele>331</ele>
        <time>2024-03-13T13:36:27Z</time>
      </trkpt>
      <trkpt lat="44.42709" lon="1.6023">
        <ele>331</ele>
        <time>2024-03-13T13:36:28Z</time>
      </trkpt>
      <trkpt lat="44.42709" lon="1.60229">
        <ele>331</ele>
        <time>2024-03-13T13:36:29Z</time>
      </trkpt>
      <trkpt lat="44.42709" lon="1.60229">
        <ele>331</ele>
        <time>2024-03-13T13:36:30Z</time>
      </trkpt>
      <trkpt lat="44.42709" lon="1.60229">
        <ele>331</ele>
        <time>2024-03-13T13:36:31Z</time>
      </trkpt>
      <trkpt lat="44.42707" lon="1.60227">
        <ele>332</ele>
        <time>2024-03-13T13:36:32Z</time>
      </trkpt>
      <trkpt lat="44.42707" lon="1.60227">
        <ele>333</ele>
        <time>2024-03-13T13:36:33Z</time>
      </trkpt>
      <trkpt lat="44.42706" lon="1.60226">
        <ele>333</ele>
        <time>2024-03-13T13:36:34Z</time>
      </trkpt>
      <trkpt lat="44.42706" lon="1.60225">
        <ele>333</ele>
        <time>2024-03-13T13:36:35Z</time>
      </trkpt>
      <trkpt lat="44.42706" lon="1.60224">
        <ele>333</ele>
        <time>2024-03-13T13:36:36Z</time>
      </trkpt>
      <trkpt lat="44.42706" lon="1.60223">
        <ele>334</ele>
        <time>2024-03-13T13:36:37Z</time>
      </trkpt>
      <trkpt lat="44.42705" lon="1.60222">
        <ele>334</ele>
        <time>2024-03-13T13:36:38Z</time>
      </trkpt>
      <trkpt lat="44.42704" lon="1.6022">
        <ele>334</ele>
        <time>2024-03-13T13:36:39Z</time>
      </trkpt>
      <trkpt lat="44.42704" lon="1.60219">
        <ele>334</ele>
        <time>2024-03-13T13:36:40Z</time>
      </trkpt>
      <trkpt lat="44.42703" lon="1.60218">
        <ele>334</ele>
        <time>2024-03-13T13:36:41Z</time>
      </trkpt>
      <trkpt lat="44.42702" lon="1.60217">
        <ele>334</ele>
        <time>2024-03-13T13:36:42Z</time>
      </trkpt>
      <trkpt lat="44.42701" lon="1.60216">
        <ele>334</ele>
        <time>2024-03-13T13:36:43Z</time>
      </trkpt>
      <trkpt lat="44.42701" lon="1.60215">
        <ele>334</ele>
        <time>2024-03-13T13:36:45Z</time>
      </trkpt>
      <trkpt lat="44.42699" lon="1.60214">
        <ele>335</ele>
        <time>2024-03-13T13:36:46Z</time>
      </trkpt>
      <trkpt lat="44.42698" lon="1.60212">
        <ele>334</ele>
        <time>2024-03-13T13:36:47Z</time>
      </trkpt>
      <trkpt lat="44.42696" lon="1.6021">
        <ele>334</ele>
        <time>2024-03-13T13:36:49Z</time>
      </trkpt>
      <trkpt lat="44.42695" lon="1.60209">
        <ele>334</ele>
        <time>2024-03-13T13:36:50Z</time>
      </trkpt>
      <trkpt lat="44.42694" lon="1.60208">
        <ele>334</ele>
        <time>2024-03-13T13:36:51Z</time>
      </trkpt>
      <trkpt lat="44.42693" lon="1.60206">
        <ele>334</ele>
        <time>2024-03-13T13:36:52Z</time>
      </trkpt>
      <trkpt lat="44.42693" lon="1.60205">
        <ele>334</ele>
        <time>2024-03-13T13:36:53Z</time>
      </trkpt>
      <trkpt lat="44.42691" lon="1.60204">
        <ele>335</ele>
        <time>2024-03-13T13:36:54Z</time>
      </trkpt>
      <trkpt lat="44.42691" lon="1.60203">
        <ele>334</ele>
        <time>2024-03-13T13:36:55Z</time>
      </trkpt>
      <trkpt lat="44.4269" lon="1.60202">
        <ele>334</ele>
        <time>2024-03-13T13:36:56Z</time>
      </trkpt>
      <trkpt lat="44.42689" lon="1.60201">
        <ele>334</ele>
        <time>2024-03-13T13:36:57Z</time>
      </trkpt>
      <trkpt lat="44.42688" lon="1.602">
        <ele>335</ele>
        <time>2024-03-13T13:36:58Z</time>
      </trkpt>
      <trkpt lat="44.42687" lon="1.60199">
        <ele>335</ele>
        <time>2024-03-13T13:36:59Z</time>
      </trkpt>
      <trkpt lat="44.42686" lon="1.60199">
        <ele>335</ele>
        <time>2024-03-13T13:37:00Z</time>
      </trkpt>
      <trkpt lat="44.42686" lon="1.60198">
        <ele>335</ele>
        <time>2024-03-13T13:37:01Z</time>
      </trkpt>
      <trkpt lat="44.42685" lon="1.60197">
        <ele>335</ele>
        <time>2024-03-13T13:37:02Z</time>
      </trkpt>
      <trkpt lat="44.42685" lon="1.60196">
        <ele>335</ele>
        <time>2024-03-13T13:37:03Z</time>
      </trkpt>
      <trkpt lat="44.42683" lon="1.60196">
        <ele>335</ele>
        <time>2024-03-13T13:37:04Z</time>
      </trkpt>
      <trkpt lat="44.42683" lon="1.60195">
        <ele>335</ele>
        <time>2024-03-13T13:37:05Z</time>
      </trkpt>
      <trkpt lat="44.42682" lon="1.60194">
        <ele>335</ele>
        <time>2024-03-13T13:37:06Z</time>
      </trkpt>
      <trkpt lat="44.42681" lon="1.60193">
        <ele>335</ele>
        <time>2024-03-13T13:37:07Z</time>
      </trkpt>
      <trkpt lat="44.42681" lon="1.60193">
        <ele>335</ele>
        <time>2024-03-13T13:37:08Z</time>
      </trkpt>
      <trkpt lat="44.4268" lon="1.60192">
        <ele>335</ele>
        <time>2024-03-13T13:37:09Z</time>
      </trkpt>
      <trkpt lat="44.4268" lon="1.60191">
        <ele>335</ele>
        <time>2024-03-13T13:37:10Z</time>
      </trkpt>
      <trkpt lat="44.42679" lon="1.6019">
        <ele>335</ele>
        <time>2024-03-13T13:37:11Z</time>
      </trkpt>
      <trkpt lat="44.42679" lon="1.6019">
        <ele>335</ele>
        <time>2024-03-13T13:37:12Z</time>
      </trkpt>
      <trkpt lat="44.42679" lon="1.6019">
        <ele>335</ele>
        <time>2024-03-13T13:37:13Z</time>
      </trkpt>
      <trkpt lat="44.42678" lon="1.60188">
        <ele>334</ele>
        <time>2024-03-13T13:37:14Z</time>
      </trkpt>
      <trkpt lat="44.42678" lon="1.60188">
        <ele>334</ele>
        <time>2024-03-13T13:37:15Z</time>
      </trkpt>
      <trkpt lat="44.42677" lon="1.60188">
        <ele>334</ele>
        <time>2024-03-13T13:37:16Z</time>
      </trkpt>
      <trkpt lat="44.42677" lon="1.60188">
        <ele>334</ele>
        <time>2024-03-13T13:37:17Z</time>
      </trkpt>
      <trkpt lat="44.42677" lon="1.60188">
        <ele>334</ele>
        <time>2024-03-13T13:37:18Z</time>
      </trkpt>
      <trkpt lat="44.42677" lon="1.60188">
        <ele>334</ele>
        <time>2024-03-13T13:37:19Z</time>
      </trkpt>
      <trkpt lat="44.42675" lon="1.60185">
        <ele>334</ele>
        <time>2024-03-13T13:37:20Z</time>
      </trkpt>
      <trkpt lat="44.42675" lon="1.60184">
        <ele>335</ele>
        <time>2024-03-13T13:37:21Z</time>
      </trkpt>
      <trkpt lat="44.42675" lon="1.60183">
        <ele>335</ele>
        <time>2024-03-13T13:37:22Z</time>
      </trkpt>
      <trkpt lat="44.42675" lon="1.60182">
        <ele>336</ele>
        <time>2024-03-13T13:37:23Z</time>
      </trkpt>
      <trkpt lat="44.42674" lon="1.60181">
        <ele>335</ele>
        <time>2024-03-13T13:37:24Z</time>
      </trkpt>
      <trkpt lat="44.42673" lon="1.6018">
        <ele>336</ele>
        <time>2024-03-13T13:37:25Z</time>
      </trkpt>
      <trkpt lat="44.42673" lon="1.60179">
        <ele>336</ele>
        <time>2024-03-13T13:37:26Z</time>
      </trkpt>
      <trkpt lat="44.42672" lon="1.60178">
        <ele>336</ele>
        <time>2024-03-13T13:37:27Z</time>
      </trkpt>
      <trkpt lat="44.42672" lon="1.60177">
        <ele>336</ele>
        <time>2024-03-13T13:37:28Z</time>
      </trkpt>
      <trkpt lat="44.42671" lon="1.60176">
        <ele>336</ele>
        <time>2024-03-13T13:37:29Z</time>
      </trkpt>
      <trkpt lat="44.4267" lon="1.60175">
        <ele>336</ele>
        <time>2024-03-13T13:37:30Z</time>
      </trkpt>
      <trkpt lat="44.42669" lon="1.60173">
        <ele>336</ele>
        <time>2024-03-13T13:37:31Z</time>
      </trkpt>
      <trkpt lat="44.42669" lon="1.60171">
        <ele>337</ele>
        <time>2024-03-13T13:37:32Z</time>
      </trkpt>
      <trkpt lat="44.42669" lon="1.6017">
        <ele>337</ele>
        <time>2024-03-13T13:37:33Z</time>
      </trkpt>
      <trkpt lat="44.42668" lon="1.60169">
        <ele>337</ele>
        <time>2024-03-13T13:37:34Z</time>
      </trkpt>
      <trkpt lat="44.42667" lon="1.60168">
        <ele>337</ele>
        <time>2024-03-13T13:37:35Z</time>
      </trkpt>
      <trkpt lat="44.42667" lon="1.60167">
        <ele>338</ele>
        <time>2024-03-13T13:37:36Z</time>
      </trkpt>
      <trkpt lat="44.42667" lon="1.60166">
        <ele>337</ele>
        <time>2024-03-13T13:37:37Z</time>
      </trkpt>
      <trkpt lat="44.42667" lon="1.60166">
        <ele>337</ele>
        <time>2024-03-13T13:37:38Z</time>
      </trkpt>
      <trkpt lat="44.42666" lon="1.60165">
        <ele>337</ele>
        <time>2024-03-13T13:37:39Z</time>
      </trkpt>
      <trkpt lat="44.42666" lon="1.60165">
        <ele>338</ele>
        <time>2024-03-13T13:37:40Z</time>
      </trkpt>
      <trkpt lat="44.42666" lon="1.60165">
        <ele>338</ele>
        <time>2024-03-13T13:37:41Z</time>
      </trkpt>
      <trkpt lat="44.42666" lon="1.60165">
        <ele>338</ele>
        <time>2024-03-13T13:37:42Z</time>
      </trkpt>
      <trkpt lat="44.42666" lon="1.60165">
        <ele>338</ele>
        <time>2024-03-13T13:37:43Z</time>
      </trkpt>
      <trkpt lat="44.42666" lon="1.60165">
        <ele>338</ele>
        <time>2024-03-13T13:37:44Z</time>
      </trkpt>
      <trkpt lat="44.42666" lon="1.60165">
        <ele>338</ele>
        <time>2024-03-13T13:37:45Z</time>
      </trkpt>
      <trkpt lat="44.42666" lon="1.60165">
        <ele>338</ele>
        <time>2024-03-13T13:37:46Z</time>
      </trkpt>
      <trkpt lat="44.42666" lon="1.60165">
        <ele>338</ele>
        <time>2024-03-13T13:37:47Z</time>
      </trkpt>
      <trkpt lat="44.42666" lon="1.60165">
        <ele>338</ele>
        <time>2024-03-13T13:37:48Z</time>
      </trkpt>
      <trkpt lat="44.42665" lon="1.60165">
        <ele>337</ele>
        <time>2024-03-13T13:37:49Z</time>
      </trkpt>
      <trkpt lat="44.42664" lon="1.60165">
        <ele>337</ele>
        <time>2024-03-13T13:37:50Z</time>
      </trkpt>
      <trkpt lat="44.42664" lon="1.60165">
        <ele>337</ele>
        <time>2024-03-13T13:37:51Z</time>
      </trkpt>
      <trkpt lat="44.42664" lon="1.60165">
        <ele>337</ele>
        <time>2024-03-13T13:37:52Z</time>
      </trkpt>
      <trkpt lat="44.42664" lon="1.60165">
        <ele>337</ele>
        <time>2024-03-13T13:37:53Z</time>
      </trkpt>
      <trkpt lat="44.42664" lon="1.60165">
        <ele>337</ele>
        <time>2024-03-13T13:37:54Z</time>
      </trkpt>
      <trkpt lat="44.42664" lon="1.60165">
        <ele>337</ele>
        <time>2024-03-13T13:37:55Z</time>
      </trkpt>
      <trkpt lat="44.42664" lon="1.60165">
        <ele>337</ele>
        <time>2024-03-13T13:37:56Z</time>
      </trkpt>
      <trkpt lat="44.42664" lon="1.60165">
        <ele>337</ele>
        <time>2024-03-13T13:37:57Z</time>
      </trkpt>
      <trkpt lat="44.42664" lon="1.60165">
        <ele>337</ele>
        <time>2024-03-13T13:37:58Z</time>
      </trkpt>
      <trkpt lat="44.42664" lon="1.60165">
        <ele>337</ele>
        <time>2024-03-13T13:37:59Z</time>
      </trkpt>
      <trkpt lat="44.42664" lon="1.60165">
        <ele>337</ele>
        <time>2024-03-13T13:38:00Z</time>
      </trkpt>
      <trkpt lat="44.42664" lon="1.60165">
        <ele>337</ele>
        <time>2024-03-13T13:38:01Z</time>
      </trkpt>
      <trkpt lat="44.42664" lon="1.60165">
        <ele>337</ele>
        <time>2024-03-13T13:38:02Z</time>
      </trkpt>
      <trkpt lat="44.42664" lon="1.60165">
        <ele>337</ele>
        <time>2024-03-13T13:38:03Z</time>
      </trkpt>
      <trkpt lat="44.42664" lon="1.60165">
        <ele>337</ele>
        <time>2024-03-13T13:38:04Z</time>
      </trkpt>
      <trkpt lat="44.42664" lon="1.60165">
        <ele>337</ele>
        <time>2024-03-13T13:38:05Z</time>
      </trkpt>
      <trkpt lat="44.42664" lon="1.60165">
        <ele>337</ele>
        <time>2024-03-13T13:38:06Z</time>
      </trkpt>
      <trkpt lat="44.42664" lon="1.60165">
        <ele>337</ele>
        <time>2024-03-13T13:38:07Z</time>
      </trkpt>
      <trkpt lat="44.42664" lon="1.60164">
        <ele>336</ele>
        <time>2024-03-13T13:38:08Z</time>
      </trkpt>
      <trkpt lat="44.42664" lon="1.60164">
        <ele>336</ele>
        <time>2024-03-13T13:38:09Z</time>
      </trkpt>
      <trkpt lat="44.42664" lon="1.60164">
        <ele>336</ele>
        <time>2024-03-13T13:38:10Z</time>
      </trkpt>
      <trkpt lat="44.42664" lon="1.60164">
        <ele>336</ele>
        <time>2024-03-13T13:38:11Z</time>
      </trkpt>
      <trkpt lat="44.42664" lon="1.60164">
        <ele>336</ele>
        <time>2024-03-13T13:38:12Z</time>
      </trkpt>
      <trkpt lat="44.42664" lon="1.60164">
        <ele>336</ele>
        <time>2024-03-13T13:38:13Z</time>
      </trkpt>
      <trkpt lat="44.42664" lon="1.60164">
        <ele>336</ele>
        <time>2024-03-13T13:38:14Z</time>
      </trkpt>
      <trkpt lat="44.42664" lon="1.60164">
        <ele>336</ele>
        <time>2024-03-13T13:38:15Z</time>
      </trkpt>
      <trkpt lat="44.42664" lon="1.60164">
        <ele>336</ele>
        <time>2024-03-13T13:38:16Z</time>
      </trkpt>
      <trkpt lat="44.42663" lon="1.60162">
        <ele>335</ele>
        <time>2024-03-13T13:38:17Z</time>
      </trkpt>
      <trkpt lat="44.42662" lon="1.60161">
        <ele>335</ele>
        <time>2024-03-13T13:38:18Z</time>
      </trkpt>
      <trkpt lat="44.42661" lon="1.60161">
        <ele>335</ele>
        <time>2024-03-13T13:38:19Z</time>
      </trkpt>
      <trkpt lat="44.4266" lon="1.6016">
        <ele>335</ele>
        <time>2024-03-13T13:38:20Z</time>
      </trkpt>
      <trkpt lat="44.42659" lon="1.6016">
        <ele>334</ele>
        <time>2024-03-13T13:38:21Z</time>
      </trkpt>
      <trkpt lat="44.42659" lon="1.6016">
        <ele>335</ele>
        <time>2024-03-13T13:38:22Z</time>
      </trkpt>
      <trkpt lat="44.42659" lon="1.6016">
        <ele>335</ele>
        <time>2024-03-13T13:38:23Z</time>
      </trkpt>
      <trkpt lat="44.42659" lon="1.6016">
        <ele>335</ele>
        <time>2024-03-13T13:38:24Z</time>
      </trkpt>
      <trkpt lat="44.42659" lon="1.6016">
        <ele>335</ele>
        <time>2024-03-13T13:38:25Z</time>
      </trkpt>
      <trkpt lat="44.42659" lon="1.6016">
        <ele>335</ele>
        <time>2024-03-13T13:38:26Z</time>
      </trkpt>
      <trkpt lat="44.42659" lon="1.6016">
        <ele>335</ele>
        <time>2024-03-13T13:38:27Z</time>
      </trkpt>
      <trkpt lat="44.42659" lon="1.6016">
        <ele>335</ele>
        <time>2024-03-13T13:38:28Z</time>
      </trkpt>
      <trkpt lat="44.42659" lon="1.6016">
        <ele>335</ele>
        <time>2024-03-13T13:38:29Z</time>
      </trkpt>
      <trkpt lat="44.42659" lon="1.6016">
        <ele>335</ele>
        <time>2024-03-13T13:38:30Z</time>
      </trkpt>
      <trkpt lat="44.42659" lon="1.6016">
        <ele>335</ele>
        <time>2024-03-13T13:38:31Z</time>
      </trkpt>
      <trkpt lat="44.42659" lon="1.6016">
        <ele>335</ele>
        <time>2024-03-13T13:38:32Z</time>
      </trkpt>
      <trkpt lat="44.42659" lon="1.6016">
        <ele>335</ele>
        <time>2024-03-13T13:38:33Z</time>
      </trkpt>
      <trkpt lat="44.42659" lon="1.6016">
        <ele>335</ele>
        <time>2024-03-13T13:38:34Z</time>
      </trkpt>
      <trkpt lat="44.42659" lon="1.6016">
        <ele>335</ele>
        <time>2024-03-13T13:38:35Z</time>
      </trkpt>
      <trkpt lat="44.42659" lon="1.60159">
        <ele>335</ele>
        <time>2024-03-13T13:38:36Z</time>
      </trkpt>
      <trkpt lat="44.4266" lon="1.60159">
        <ele>334</ele>
        <time>2024-03-13T13:38:37Z</time>
      </trkpt>
      <trkpt lat="44.42661" lon="1.60159">
        <ele>334</ele>
        <time>2024-03-13T13:38:38Z</time>
      </trkpt>
      <trkpt lat="44.4266" lon="1.60159">
        <ele>334</ele>
        <time>2024-03-13T13:38:39Z</time>
      </trkpt>
      <trkpt lat="44.42659" lon="1.60159">
        <ele>334</ele>
        <time>2024-03-13T13:38:40Z</time>
      </trkpt>
      <trkpt lat="44.42659" lon="1.60159">
        <ele>334</ele>
        <time>2024-03-13T13:38:41Z</time>
      </trkpt>
      <trkpt lat="44.42659" lon="1.60159">
        <ele>334</ele>
        <time>2024-03-13T13:38:42Z</time>
      </trkpt>
      <trkpt lat="44.42659" lon="1.60159">
        <ele>334</ele>
        <time>2024-03-13T13:38:43Z</time>
      </trkpt>
      <trkpt lat="44.42659" lon="1.60159">
        <ele>334</ele>
        <time>2024-03-13T13:38:44Z</time>
      </trkpt>
      <trkpt lat="44.42659" lon="1.60159">
        <ele>334</ele>
        <time>2024-03-13T13:38:45Z</time>
      </trkpt>
      <trkpt lat="44.4266" lon="1.60159">
        <ele>334</ele>
        <time>2024-03-13T13:38:46Z</time>
      </trkpt>
      <trkpt lat="44.4266" lon="1.6016">
        <ele>334</ele>
        <time>2024-03-13T13:38:47Z</time>
      </trkpt>
      <trkpt lat="44.42661" lon="1.6016">
        <ele>334</ele>
        <time>2024-03-13T13:38:48Z</time>
      </trkpt>
      <trkpt lat="44.4266" lon="1.6016">
        <ele>334</ele>
        <time>2024-03-13T13:38:49Z</time>
      </trkpt>
      <trkpt lat="44.4266" lon="1.6016">
        <ele>334</ele>
        <time>2024-03-13T13:38:50Z</time>
      </trkpt>
      <trkpt lat="44.4266" lon="1.6016">
        <ele>334</ele>
        <time>2024-03-13T13:38:51Z</time>
      </trkpt>
      <trkpt lat="44.4266" lon="1.6016">
        <ele>334</ele>
        <time>2024-03-13T13:38:52Z</time>
      </trkpt>
      <trkpt lat="44.4266" lon="1.6016">
        <ele>334</ele>
        <time>2024-03-13T13:38:53Z</time>
      </trkpt>
      <trkpt lat="44.4266" lon="1.6016">
        <ele>334</ele>
        <time>2024-03-13T13:38:54Z</time>
      </trkpt>
      <trkpt lat="44.4266" lon="1.6016">
        <ele>334</ele>
        <time>2024-03-13T13:38:55Z</time>
      </trkpt>
      <trkpt lat="44.4266" lon="1.6016">
        <ele>334</ele>
        <time>2024-03-13T13:38:56Z</time>
      </trkpt>
      <trkpt lat="44.4266" lon="1.6016">
        <ele>334</ele>
        <time>2024-03-13T13:38:57Z</time>
      </trkpt>
      <trkpt lat="44.4266" lon="1.6016">
        <ele>334</ele>
        <time>2024-03-13T13:38:58Z</time>
      </trkpt>
      <trkpt lat="44.4266" lon="1.6016">
        <ele>334</ele>
        <time>2024-03-13T13:38:59Z</time>
      </trkpt>
      <trkpt lat="44.42661" lon="1.60159">
        <ele>335</ele>
        <time>2024-03-13T13:39:00Z</time>
      </trkpt>
      <trkpt lat="44.42662" lon="1.60159">
        <ele>335</ele>
        <time>2024-03-13T13:39:01Z</time>
      </trkpt>
      <trkpt lat="44.42663" lon="1.60159">
        <ele>335</ele>
        <time>2024-03-13T13:39:02Z</time>
      </trkpt>
      <trkpt lat="44.42664" lon="1.60158">
        <ele>335</ele>
        <time>2024-03-13T13:39:03Z</time>
      </trkpt>
      <trkpt lat="44.42665" lon="1.60158">
        <ele>335</ele>
        <time>2024-03-13T13:39:04Z</time>
      </trkpt>
      <trkpt lat="44.42665" lon="1.60158">
        <ele>335</ele>
        <time>2024-03-13T13:39:05Z</time>
      </trkpt>
      <trkpt lat="44.42667" lon="1.60159">
        <ele>335</ele>
        <time>2024-03-13T13:39:06Z</time>
      </trkpt>
      <trkpt lat="44.42667" lon="1.60159">
        <ele>335</ele>
        <time>2024-03-13T13:39:07Z</time>
      </trkpt>
      <trkpt lat="44.42669" lon="1.60159">
        <ele>335</ele>
        <time>2024-03-13T13:39:08Z</time>
      </trkpt>
      <trkpt lat="44.4267" lon="1.60159">
        <ele>335</ele>
        <time>2024-03-13T13:39:09Z</time>
      </trkpt>
      <trkpt lat="44.4267" lon="1.60159">
        <ele>335</ele>
        <time>2024-03-13T13:39:10Z</time>
      </trkpt>
      <trkpt lat="44.42671" lon="1.60159">
        <ele>335</ele>
        <time>2024-03-13T13:39:11Z</time>
      </trkpt>
      <trkpt lat="44.42672" lon="1.60159">
        <ele>335</ele>
        <time>2024-03-13T13:39:12Z</time>
      </trkpt>
      <trkpt lat="44.42673" lon="1.60159">
        <ele>335</ele>
        <time>2024-03-13T13:39:13Z</time>
      </trkpt>
      <trkpt lat="44.42674" lon="1.60159">
        <ele>335</ele>
        <time>2024-03-13T13:39:14Z</time>
      </trkpt>
      <trkpt lat="44.42675" lon="1.60158">
        <ele>335</ele>
        <time>2024-03-13T13:39:15Z</time>
      </trkpt>
      <trkpt lat="44.42677" lon="1.60158">
        <ele>335</ele>
        <time>2024-03-13T13:39:16Z</time>
      </trkpt>
      <trkpt lat="44.42678" lon="1.60157">
        <ele>335</ele>
        <time>2024-03-13T13:39:17Z</time>
      </trkpt>
      <trkpt lat="44.42678" lon="1.60156">
        <ele>335</ele>
        <time>2024-03-13T13:39:18Z</time>
      </trkpt>
      <trkpt lat="44.42679" lon="1.60156">
        <ele>336</ele>
        <time>2024-03-13T13:39:19Z</time>
      </trkpt>
      <trkpt lat="44.42679" lon="1.60156">
        <ele>336</ele>
        <time>2024-03-13T13:39:20Z</time>
      </trkpt>
      <trkpt lat="44.42679" lon="1.60156">
        <ele>336</ele>
        <time>2024-03-13T13:39:21Z</time>
      </trkpt>
      <trkpt lat="44.42679" lon="1.60156">
        <ele>336</ele>
        <time>2024-03-13T13:39:22Z</time>
      </trkpt>
      <trkpt lat="44.42679" lon="1.60156">
        <ele>336</ele>
        <time>2024-03-13T13:39:23Z</time>
      </trkpt>
      <trkpt lat="44.42679" lon="1.60156">
        <ele>336</ele>
        <time>2024-03-13T13:39:24Z</time>
      </trkpt>
      <trkpt lat="44.42679" lon="1.60156">
        <ele>336</ele>
        <time>2024-03-13T13:39:25Z</time>
      </trkpt>
      <trkpt lat="44.42679" lon="1.60156">
        <ele>336</ele>
        <time>2024-03-13T13:39:26Z</time>
      </trkpt>
      <trkpt lat="44.42679" lon="1.60157">
        <ele>337</ele>
        <time>2024-03-13T13:39:27Z</time>
      </trkpt>
      <trkpt lat="44.4268" lon="1.60157">
        <ele>336</ele>
        <time>2024-03-13T13:39:28Z</time>
      </trkpt>
      <trkpt lat="44.42681" lon="1.60157">
        <ele>336</ele>
        <time>2024-03-13T13:39:29Z</time>
      </trkpt>
      <trkpt lat="44.42682" lon="1.60157">
        <ele>337</ele>
        <time>2024-03-13T13:39:30Z</time>
      </trkpt>
      <trkpt lat="44.42683" lon="1.60157">
        <ele>337</ele>
        <time>2024-03-13T13:39:31Z</time>
      </trkpt>
      <trkpt lat="44.42684" lon="1.60157">
        <ele>336</ele>
        <time>2024-03-13T13:39:32Z</time>
      </trkpt>
      <trkpt lat="44.42685" lon="1.60157">
        <ele>337</ele>
        <time>2024-03-13T13:39:33Z</time>
      </trkpt>
      <trkpt lat="44.42686" lon="1.60156">
        <ele>336</ele>
        <time>2024-03-13T13:39:34Z</time>
      </trkpt>
      <trkpt lat="44.42688" lon="1.60156">
        <ele>336</ele>
        <time>2024-03-13T13:39:35Z</time>
      </trkpt>
      <trkpt lat="44.42689" lon="1.60156">
        <ele>337</ele>
        <time>2024-03-13T13:39:36Z</time>
      </trkpt>
      <trkpt lat="44.4269" lon="1.60156">
        <ele>336</ele>
        <time>2024-03-13T13:39:37Z</time>
      </trkpt>
      <trkpt lat="44.42691" lon="1.60155">
        <ele>336</ele>
        <time>2024-03-13T13:39:38Z</time>
      </trkpt>
      <trkpt lat="44.42692" lon="1.60155">
        <ele>336</ele>
        <time>2024-03-13T13:39:39Z</time>
      </trkpt>
      <trkpt lat="44.42693" lon="1.60155">
        <ele>336</ele>
        <time>2024-03-13T13:39:40Z</time>
      </trkpt>
      <trkpt lat="44.42694" lon="1.60155">
        <ele>336</ele>
        <time>2024-03-13T13:39:41Z</time>
      </trkpt>
      <trkpt lat="44.42695" lon="1.60154">
        <ele>336</ele>
        <time>2024-03-13T13:39:42Z</time>
      </trkpt>
      <trkpt lat="44.42696" lon="1.60154">
        <ele>336</ele>
        <time>2024-03-13T13:39:43Z</time>
      </trkpt>
      <trkpt lat="44.42697" lon="1.60153">
        <ele>336</ele>
        <time>2024-03-13T13:39:44Z</time>
      </trkpt>
      <trkpt lat="44.42698" lon="1.60153">
        <ele>336</ele>
        <time>2024-03-13T13:39:45Z</time>
      </trkpt>
      <trkpt lat="44.427" lon="1.60152">
        <ele>336</ele>
        <time>2024-03-13T13:39:46Z</time>
      </trkpt>
      <trkpt lat="44.42701" lon="1.60152">
        <ele>336</ele>
        <time>2024-03-13T13:39:47Z</time>
      </trkpt>
      <trkpt lat="44.42702" lon="1.60152">
        <ele>336</ele>
        <time>2024-03-13T13:39:48Z</time>
      </trkpt>
      <trkpt lat="44.42703" lon="1.60152">
        <ele>336</ele>
        <time>2024-03-13T13:39:49Z</time>
      </trkpt>
      <trkpt lat="44.42704" lon="1.60151">
        <ele>336</ele>
        <time>2024-03-13T13:39:50Z</time>
      </trkpt>
      <trkpt lat="44.42705" lon="1.60152">
        <ele>336</ele>
        <time>2024-03-13T13:39:51Z</time>
      </trkpt>
      <trkpt lat="44.42706" lon="1.60152">
        <ele>336</ele>
        <time>2024-03-13T13:39:52Z</time>
      </trkpt>
      <trkpt lat="44.42707" lon="1.60152">
        <ele>337</ele>
        <time>2024-03-13T13:39:53Z</time>
      </trkpt>
      <trkpt lat="44.42708" lon="1.60152">
        <ele>337</ele>
        <time>2024-03-13T13:39:54Z</time>
      </trkpt>
      <trkpt lat="44.4271" lon="1.60152">
        <ele>337</ele>
        <time>2024-03-13T13:39:55Z</time>
      </trkpt>
      <trkpt lat="44.42711" lon="1.60152">
        <ele>337</ele>
        <time>2024-03-13T13:39:56Z</time>
      </trkpt>
      <trkpt lat="44.42712" lon="1.60151">
        <ele>337</ele>
        <time>2024-03-13T13:39:57Z</time>
      </trkpt>
      <trkpt lat="44.42713" lon="1.60151">
        <ele>337</ele>
        <time>2024-03-13T13:39:58Z</time>
      </trkpt>
      <trkpt lat="44.42714" lon="1.60151">
        <ele>337</ele>
        <time>2024-03-13T13:39:59Z</time>
      </trkpt>
      <trkpt lat="44.42715" lon="1.60151">
        <ele>337</ele>
        <time>2024-03-13T13:40:00Z</time>
      </trkpt>
      <trkpt lat="44.42716" lon="1.60151">
        <ele>337</ele>
        <time>2024-03-13T13:40:01Z</time>
      </trkpt>
      <trkpt lat="44.42717" lon="1.60151">
        <ele>337</ele>
        <time>2024-03-13T13:40:02Z</time>
      </trkpt>
      <trkpt lat="44.42719" lon="1.60152">
        <ele>338</ele>
        <time>2024-03-13T13:40:03Z</time>
      </trkpt>
      <trkpt lat="44.4272" lon="1.60152">
        <ele>338</ele>
        <time>2024-03-13T13:40:04Z</time>
      </trkpt>
      <trkpt lat="44.42721" lon="1.60152">
        <ele>338</ele>
        <time>2024-03-13T13:40:05Z</time>
      </trkpt>
      <trkpt lat="44.42722" lon="1.60152">
        <ele>338</ele>
        <time>2024-03-13T13:40:06Z</time>
      </trkpt>
      <trkpt lat="44.42723" lon="1.60152">
        <ele>338</ele>
        <time>2024-03-13T13:40:07Z</time>
      </trkpt>
      <trkpt lat="44.42724" lon="1.60152">
        <ele>338</ele>
        <time>2024-03-13T13:40:08Z</time>
      </trkpt>
      <trkpt lat="44.42725" lon="1.60152">
        <ele>339</ele>
        <time>2024-03-13T13:40:09Z</time>
      </trkpt>
      <trkpt lat="44.42726" lon="1.60152">
        <ele>339</ele>
        <time>2024-03-13T13:40:10Z</time>
      </trkpt>
      <trkpt lat="44.42727" lon="1.60152">
        <ele>339</ele>
        <time>2024-03-13T13:40:11Z</time>
      </trkpt>
      <trkpt lat="44.42728" lon="1.60151">
        <ele>340</ele>
        <time>2024-03-13T13:40:12Z</time>
      </trkpt>
      <trkpt lat="44.4273" lon="1.60151">
        <ele>340</ele>
        <time>2024-03-13T13:40:13Z</time>
      </trkpt>
      <trkpt lat="44.4273" lon="1.60151">
        <ele>340</ele>
        <time>2024-03-13T13:40:14Z</time>
      </trkpt>
      <trkpt lat="44.42731" lon="1.60151">
        <ele>340</ele>
        <time>2024-03-13T13:40:15Z</time>
      </trkpt>
      <trkpt lat="44.42733" lon="1.60151">
        <ele>340</ele>
        <time>2024-03-13T13:40:17Z</time>
      </trkpt>
      <trkpt lat="44.42734" lon="1.60151">
        <ele>341</ele>
        <time>2024-03-13T13:40:18Z</time>
      </trkpt>
      <trkpt lat="44.42735" lon="1.6015">
        <ele>340</ele>
        <time>2024-03-13T13:40:19Z</time>
      </trkpt>
      <trkpt lat="44.42736" lon="1.6015">
        <ele>340</ele>
        <time>2024-03-13T13:40:20Z</time>
      </trkpt>
      <trkpt lat="44.42738" lon="1.6015">
        <ele>340</ele>
        <time>2024-03-13T13:40:21Z</time>
      </trkpt>
      <trkpt lat="44.42739" lon="1.6015">
        <ele>340</ele>
        <time>2024-03-13T13:40:22Z</time>
      </trkpt>
      <trkpt lat="44.4274" lon="1.6015">
        <ele>340</ele>
        <time>2024-03-13T13:40:23Z</time>
      </trkpt>
      <trkpt lat="44.42741" lon="1.6015">
        <ele>340</ele>
        <time>2024-03-13T13:40:24Z</time>
      </trkpt>
      <trkpt lat="44.42742" lon="1.6015">
        <ele>341</ele>
        <time>2024-03-13T13:40:25Z</time>
      </trkpt>
      <trkpt lat="44.42743" lon="1.60149">
        <ele>341</ele>
        <time>2024-03-13T13:40:26Z</time>
      </trkpt>
      <trkpt lat="44.42744" lon="1.60149">
        <ele>341</ele>
        <time>2024-03-13T13:40:27Z</time>
      </trkpt>
      <trkpt lat="44.42745" lon="1.60149">
        <ele>341</ele>
        <time>2024-03-13T13:40:28Z</time>
      </trkpt>
      <trkpt lat="44.42746" lon="1.60149">
        <ele>341</ele>
        <time>2024-03-13T13:40:29Z</time>
      </trkpt>
      <trkpt lat="44.42746" lon="1.60149">
        <ele>341</ele>
        <time>2024-03-13T13:40:30Z</time>
      </trkpt>
      <trkpt lat="44.42748" lon="1.60148">
        <ele>341</ele>
        <time>2024-03-13T13:40:31Z</time>
      </trkpt>
      <trkpt lat="44.42749" lon="1.60148">
        <ele>341</ele>
        <time>2024-03-13T13:40:32Z</time>
      </trkpt>
      <trkpt lat="44.4275" lon="1.60148">
        <ele>341</ele>
        <time>2024-03-13T13:40:33Z</time>
      </trkpt>
      <trkpt lat="44.42751" lon="1.60149">
        <ele>341</ele>
        <time>2024-03-13T13:40:34Z</time>
      </trkpt>
      <trkpt lat="44.42752" lon="1.60149">
        <ele>342</ele>
        <time>2024-03-13T13:40:35Z</time>
      </trkpt>
      <trkpt lat="44.42753" lon="1.60148">
        <ele>342</ele>
        <time>2024-03-13T13:40:36Z</time>
      </trkpt>
      <trkpt lat="44.42754" lon="1.60148">
        <ele>342</ele>
        <time>2024-03-13T13:40:37Z</time>
      </trkpt>
      <trkpt lat="44.42755" lon="1.60148">
        <ele>342</ele>
        <time>2024-03-13T13:40:38Z</time>
      </trkpt>
      <trkpt lat="44.42756" lon="1.60148">
        <ele>342</ele>
        <time>2024-03-13T13:40:39Z</time>
      </trkpt>
      <trkpt lat="44.42757" lon="1.60148">
        <ele>342</ele>
        <time>2024-03-13T13:40:40Z</time>
      </trkpt>
      <trkpt lat="44.42759" lon="1.60148">
        <ele>343</ele>
        <time>2024-03-13T13:40:41Z</time>
      </trkpt>
      <trkpt lat="44.42759" lon="1.60148">
        <ele>343</ele>
        <time>2024-03-13T13:40:42Z</time>
      </trkpt>
      <trkpt lat="44.4276" lon="1.60148">
        <ele>343</ele>
        <time>2024-03-13T13:40:43Z</time>
      </trkpt>
      <trkpt lat="44.42762" lon="1.60148">
        <ele>343</ele>
        <time>2024-03-13T13:40:44Z</time>
      </trkpt>
      <trkpt lat="44.42762" lon="1.60148">
        <ele>342</ele>
        <time>2024-03-13T13:40:45Z</time>
      </trkpt>
      <trkpt lat="44.42763" lon="1.60149">
        <ele>343</ele>
        <time>2024-03-13T13:40:46Z</time>
      </trkpt>
      <trkpt lat="44.42764" lon="1.60149">
        <ele>343</ele>
        <time>2024-03-13T13:40:47Z</time>
      </trkpt>
      <trkpt lat="44.42765" lon="1.60149">
        <ele>343</ele>
        <time>2024-03-13T13:40:48Z</time>
      </trkpt>
      <trkpt lat="44.42766" lon="1.60149">
        <ele>343</ele>
        <time>2024-03-13T13:40:49Z</time>
      </trkpt>
      <trkpt lat="44.42767" lon="1.60149">
        <ele>343</ele>
        <time>2024-03-13T13:40:50Z</time>
      </trkpt>
      <trkpt lat="44.42768" lon="1.60149">
        <ele>343</ele>
        <time>2024-03-13T13:40:51Z</time>
      </trkpt>
      <trkpt lat="44.4277" lon="1.60149">
        <ele>343</ele>
        <time>2024-03-13T13:40:53Z</time>
      </trkpt>
      <trkpt lat="44.42771" lon="1.6015">
        <ele>344</ele>
        <time>2024-03-13T13:40:54Z</time>
      </trkpt>
      <trkpt lat="44.42772" lon="1.6015">
        <ele>344</ele>
        <time>2024-03-13T13:40:55Z</time>
      </trkpt>
      <trkpt lat="44.42773" lon="1.6015">
        <ele>344</ele>
        <time>2024-03-13T13:40:56Z</time>
      </trkpt>
      <trkpt lat="44.42774" lon="1.6015">
        <ele>344</ele>
        <time>2024-03-13T13:40:57Z</time>
      </trkpt>
      <trkpt lat="44.42775" lon="1.6015">
        <ele>344</ele>
        <time>2024-03-13T13:40:58Z</time>
      </trkpt>
      <trkpt lat="44.42776" lon="1.6015">
        <ele>344</ele>
        <time>2024-03-13T13:40:59Z</time>
      </trkpt>
      <trkpt lat="44.42777" lon="1.6015">
        <ele>344</ele>
        <time>2024-03-13T13:41:00Z</time>
      </trkpt>
      <trkpt lat="44.42778" lon="1.6015">
        <ele>345</ele>
        <time>2024-03-13T13:41:01Z</time>
      </trkpt>
      <trkpt lat="44.42779" lon="1.60151">
        <ele>344</ele>
        <time>2024-03-13T13:41:02Z</time>
      </trkpt>
      <trkpt lat="44.4278" lon="1.60151">
        <ele>344</ele>
        <time>2024-03-13T13:41:03Z</time>
      </trkpt>
      <trkpt lat="44.42781" lon="1.60152">
        <ele>344</ele>
        <time>2024-03-13T13:41:04Z</time>
      </trkpt>
      <trkpt lat="44.42782" lon="1.60152">
        <ele>345</ele>
        <time>2024-03-13T13:41:05Z</time>
      </trkpt>
      <trkpt lat="44.42783" lon="1.60152">
        <ele>345</ele>
        <time>2024-03-13T13:41:06Z</time>
      </trkpt>
      <trkpt lat="44.42785" lon="1.60151">
        <ele>345</ele>
        <time>2024-03-13T13:41:07Z</time>
      </trkpt>
      <trkpt lat="44.42786" lon="1.60151">
        <ele>345</ele>
        <time>2024-03-13T13:41:08Z</time>
      </trkpt>
      <trkpt lat="44.42787" lon="1.60151">
        <ele>345</ele>
        <time>2024-03-13T13:41:09Z</time>
      </trkpt>
      <trkpt lat="44.42788" lon="1.6015">
        <ele>345</ele>
        <time>2024-03-13T13:41:10Z</time>
      </trkpt>
      <trkpt lat="44.42789" lon="1.60149">
        <ele>345</ele>
        <time>2024-03-13T13:41:11Z</time>
      </trkpt>
      <trkpt lat="44.42791" lon="1.60149">
        <ele>345</ele>
        <time>2024-03-13T13:41:12Z</time>
      </trkpt>
      <trkpt lat="44.42791" lon="1.60148">
        <ele>345</ele>
        <time>2024-03-13T13:41:13Z</time>
      </trkpt>
      <trkpt lat="44.42793" lon="1.60147">
        <ele>345</ele>
        <time>2024-03-13T13:41:14Z</time>
      </trkpt>
      <trkpt lat="44.42793" lon="1.60146">
        <ele>345</ele>
        <time>2024-03-13T13:41:15Z</time>
      </trkpt>
      <trkpt lat="44.42794" lon="1.60145">
        <ele>345</ele>
        <time>2024-03-13T13:41:16Z</time>
      </trkpt>
      <trkpt lat="44.42795" lon="1.60144">
        <ele>345</ele>
        <time>2024-03-13T13:41:17Z</time>
      </trkpt>
      <trkpt lat="44.42795" lon="1.60143">
        <ele>345</ele>
        <time>2024-03-13T13:41:18Z</time>
      </trkpt>
      <trkpt lat="44.42796" lon="1.60142">
        <ele>346</ele>
        <time>2024-03-13T13:41:19Z</time>
      </trkpt>
      <trkpt lat="44.42796" lon="1.60141">
        <ele>346</ele>
        <time>2024-03-13T13:41:20Z</time>
      </trkpt>
      <trkpt lat="44.42797" lon="1.6014">
        <ele>346</ele>
        <time>2024-03-13T13:41:21Z</time>
      </trkpt>
      <trkpt lat="44.42798" lon="1.60139">
        <ele>346</ele>
        <time>2024-03-13T13:41:22Z</time>
      </trkpt>
      <trkpt lat="44.42798" lon="1.60138">
        <ele>346</ele>
        <time>2024-03-13T13:41:23Z</time>
      </trkpt>
      <trkpt lat="44.42799" lon="1.60137">
        <ele>346</ele>
        <time>2024-03-13T13:41:24Z</time>
      </trkpt>
      <trkpt lat="44.428" lon="1.60135">
        <ele>346</ele>
        <time>2024-03-13T13:41:25Z</time>
      </trkpt>
      <trkpt lat="44.428" lon="1.60134">
        <ele>346</ele>
        <time>2024-03-13T13:41:26Z</time>
      </trkpt>
      <trkpt lat="44.42801" lon="1.60133">
        <ele>346</ele>
        <time>2024-03-13T13:41:27Z</time>
      </trkpt>
      <trkpt lat="44.42801" lon="1.60132">
        <ele>346</ele>
        <time>2024-03-13T13:41:28Z</time>
      </trkpt>
      <trkpt lat="44.42802" lon="1.60132">
        <ele>346</ele>
        <time>2024-03-13T13:41:29Z</time>
      </trkpt>
      <trkpt lat="44.42802" lon="1.60131">
        <ele>346</ele>
        <time>2024-03-13T13:41:30Z</time>
      </trkpt>
      <trkpt lat="44.42802" lon="1.6013">
        <ele>347</ele>
        <time>2024-03-13T13:41:31Z</time>
      </trkpt>
      <trkpt lat="44.42803" lon="1.60128">
        <ele>347</ele>
        <time>2024-03-13T13:41:32Z</time>
      </trkpt>
      <trkpt lat="44.42803" lon="1.60128">
        <ele>347</ele>
        <time>2024-03-13T13:41:33Z</time>
      </trkpt>
      <trkpt lat="44.42803" lon="1.60127">
        <ele>348</ele>
        <time>2024-03-13T13:41:34Z</time>
      </trkpt>
      <trkpt lat="44.42803" lon="1.60126">
        <ele>348</ele>
        <time>2024-03-13T13:41:35Z</time>
      </trkpt>
      <trkpt lat="44.42804" lon="1.60125">
        <ele>348</ele>
        <time>2024-03-13T13:41:36Z</time>
      </trkpt>
      <trkpt lat="44.42804" lon="1.60124">
        <ele>349</ele>
        <time>2024-03-13T13:41:37Z</time>
      </trkpt>
      <trkpt lat="44.42805" lon="1.60123">
        <ele>349</ele>
        <time>2024-03-13T13:41:38Z</time>
      </trkpt>
      <trkpt lat="44.42805" lon="1.60121">
        <ele>349</ele>
        <time>2024-03-13T13:41:39Z</time>
      </trkpt>
      <trkpt lat="44.42805" lon="1.60119">
        <ele>349</ele>
        <time>2024-03-13T13:41:40Z</time>
      </trkpt>
      <trkpt lat="44.42805" lon="1.60117">
        <ele>349</ele>
        <time>2024-03-13T13:41:41Z</time>
      </trkpt>
      <trkpt lat="44.42806" lon="1.60116">
        <ele>349</ele>
        <time>2024-03-13T13:41:42Z</time>
      </trkpt>
      <trkpt lat="44.42806" lon="1.60115">
        <ele>350</ele>
        <time>2024-03-13T13:41:43Z</time>
      </trkpt>
      <trkpt lat="44.42807" lon="1.60114">
        <ele>350</ele>
        <time>2024-03-13T13:41:44Z</time>
      </trkpt>
      <trkpt lat="44.42807" lon="1.60113">
        <ele>350</ele>
        <time>2024-03-13T13:41:45Z</time>
      </trkpt>
      <trkpt lat="44.42807" lon="1.60111">
        <ele>350</ele>
        <time>2024-03-13T13:41:46Z</time>
      </trkpt>
      <trkpt lat="44.42808" lon="1.60111">
        <ele>350</ele>
        <time>2024-03-13T13:41:47Z</time>
      </trkpt>
      <trkpt lat="44.42808" lon="1.60109">
        <ele>351</ele>
        <time>2024-03-13T13:41:48Z</time>
      </trkpt>
      <trkpt lat="44.42809" lon="1.60108">
        <ele>351</ele>
        <time>2024-03-13T13:41:49Z</time>
      </trkpt>
      <trkpt lat="44.42809" lon="1.60107">
        <ele>351</ele>
        <time>2024-03-13T13:41:50Z</time>
      </trkpt>
      <trkpt lat="44.42809" lon="1.60106">
        <ele>351</ele>
        <time>2024-03-13T13:41:51Z</time>
      </trkpt>
      <trkpt lat="44.4281" lon="1.60104">
        <ele>351</ele>
        <time>2024-03-13T13:41:52Z</time>
      </trkpt>
      <trkpt lat="44.4281" lon="1.60103">
        <ele>352</ele>
        <time>2024-03-13T13:41:53Z</time>
      </trkpt>
      <trkpt lat="44.4281" lon="1.60102">
        <ele>352</ele>
        <time>2024-03-13T13:41:54Z</time>
      </trkpt>
      <trkpt lat="44.42811" lon="1.60101">
        <ele>352</ele>
        <time>2024-03-13T13:41:55Z</time>
      </trkpt>
      <trkpt lat="44.42812" lon="1.601">
        <ele>351</ele>
        <time>2024-03-13T13:41:56Z</time>
      </trkpt>
      <trkpt lat="44.42812" lon="1.60099">
        <ele>351</ele>
        <time>2024-03-13T13:41:57Z</time>
      </trkpt>
      <trkpt lat="44.42812" lon="1.60098">
        <ele>352</ele>
        <time>2024-03-13T13:41:58Z</time>
      </trkpt>
      <trkpt lat="44.42813" lon="1.60097">
        <ele>352</ele>
        <time>2024-03-13T13:41:59Z</time>
      </trkpt>
      <trkpt lat="44.42813" lon="1.60096">
        <ele>352</ele>
        <time>2024-03-13T13:42:00Z</time>
      </trkpt>
      <trkpt lat="44.42813" lon="1.60096">
        <ele>352</ele>
        <time>2024-03-13T13:42:01Z</time>
      </trkpt>
      <trkpt lat="44.42813" lon="1.60096">
        <ele>352</ele>
        <time>2024-03-13T13:42:02Z</time>
      </trkpt>
      <trkpt lat="44.42813" lon="1.60096">
        <ele>352</ele>
        <time>2024-03-13T13:42:03Z</time>
      </trkpt>
      <trkpt lat="44.42814" lon="1.60096">
        <ele>351</ele>
        <time>2024-03-13T13:42:04Z</time>
      </trkpt>
      <trkpt lat="44.42814" lon="1.60096">
        <ele>352</ele>
        <time>2024-03-13T13:42:05Z</time>
      </trkpt>
      <trkpt lat="44.42815" lon="1.60095">
        <ele>351</ele>
        <time>2024-03-13T13:42:06Z</time>
      </trkpt>
      <trkpt lat="44.42815" lon="1.60094">
        <ele>352</ele>
        <time>2024-03-13T13:42:07Z</time>
      </trkpt>
      <trkpt lat="44.42816" lon="1.60093">
        <ele>352</ele>
        <time>2024-03-13T13:42:08Z</time>
      </trkpt>
      <trkpt lat="44.42817" lon="1.60093">
        <ele>352</ele>
        <time>2024-03-13T13:42:09Z</time>
      </trkpt>
      <trkpt lat="44.42817" lon="1.60092">
        <ele>352</ele>
        <time>2024-03-13T13:42:10Z</time>
      </trkpt>
      <trkpt lat="44.42818" lon="1.60092">
        <ele>352</ele>
        <time>2024-03-13T13:42:11Z</time>
      </trkpt>
      <trkpt lat="44.42819" lon="1.60091">
        <ele>352</ele>
        <time>2024-03-13T13:42:12Z</time>
      </trkpt>
      <trkpt lat="44.4282" lon="1.6009">
        <ele>352</ele>
        <time>2024-03-13T13:42:13Z</time>
      </trkpt>
      <trkpt lat="44.4282" lon="1.6009">
        <ele>353</ele>
        <time>2024-03-13T13:42:14Z</time>
      </trkpt>
      <trkpt lat="44.42821" lon="1.60089">
        <ele>353</ele>
        <time>2024-03-13T13:42:15Z</time>
      </trkpt>
      <trkpt lat="44.42822" lon="1.60088">
        <ele>352</ele>
        <time>2024-03-13T13:42:16Z</time>
      </trkpt>
      <trkpt lat="44.42822" lon="1.60088">
        <ele>352</ele>
        <time>2024-03-13T13:42:17Z</time>
      </trkpt>
      <trkpt lat="44.42823" lon="1.60087">
        <ele>352</ele>
        <time>2024-03-13T13:42:18Z</time>
      </trkpt>
      <trkpt lat="44.42823" lon="1.60087">
        <ele>352</ele>
        <time>2024-03-13T13:42:19Z</time>
      </trkpt>
      <trkpt lat="44.42824" lon="1.60086">
        <ele>352</ele>
        <time>2024-03-13T13:42:20Z</time>
      </trkpt>
      <trkpt lat="44.42825" lon="1.60086">
        <ele>352</ele>
        <time>2024-03-13T13:42:21Z</time>
      </trkpt>
      <trkpt lat="44.42826" lon="1.60085">
        <ele>353</ele>
        <time>2024-03-13T13:42:22Z</time>
      </trkpt>
      <trkpt lat="44.42826" lon="1.60085">
        <ele>353</ele>
        <time>2024-03-13T13:42:23Z</time>
      </trkpt>
      <trkpt lat="44.42827" lon="1.60084">
        <ele>353</ele>
        <time>2024-03-13T13:42:24Z</time>
      </trkpt>
      <trkpt lat="44.42828" lon="1.60084">
        <ele>353</ele>
        <time>2024-03-13T13:42:25Z</time>
      </trkpt>
      <trkpt lat="44.42828" lon="1.60084">
        <ele>353</ele>
        <time>2024-03-13T13:42:26Z</time>
      </trkpt>
      <trkpt lat="44.42829" lon="1.60084">
        <ele>353</ele>
        <time>2024-03-13T13:42:27Z</time>
      </trkpt>
      <trkpt lat="44.4283" lon="1.60084">
        <ele>354</ele>
        <time>2024-03-13T13:42:28Z</time>
      </trkpt>
      <trkpt lat="44.42831" lon="1.60083">
        <ele>354</ele>
        <time>2024-03-13T13:42:29Z</time>
      </trkpt>
      <trkpt lat="44.42831" lon="1.60083">
        <ele>354</ele>
        <time>2024-03-13T13:42:30Z</time>
      </trkpt>
      <trkpt lat="44.42832" lon="1.60083">
        <ele>354</ele>
        <time>2024-03-13T13:42:31Z</time>
      </trkpt>
      <trkpt lat="44.42833" lon="1.60083">
        <ele>354</ele>
        <time>2024-03-13T13:42:32Z</time>
      </trkpt>
      <trkpt lat="44.42834" lon="1.60083">
        <ele>354</ele>
        <time>2024-03-13T13:42:33Z</time>
      </trkpt>
      <trkpt lat="44.42835" lon="1.60083">
        <ele>355</ele>
        <time>2024-03-13T13:42:34Z</time>
      </trkpt>
      <trkpt lat="44.42836" lon="1.60083">
        <ele>354</ele>
        <time>2024-03-13T13:42:35Z</time>
      </trkpt>
      <trkpt lat="44.42836" lon="1.60083">
        <ele>354</ele>
        <time>2024-03-13T13:42:36Z</time>
      </trkpt>
      <trkpt lat="44.42837" lon="1.60083">
        <ele>354</ele>
        <time>2024-03-13T13:42:37Z</time>
      </trkpt>
      <trkpt lat="44.42838" lon="1.60082">
        <ele>355</ele>
        <time>2024-03-13T13:42:38Z</time>
      </trkpt>
      <trkpt lat="44.42838" lon="1.60082">
        <ele>355</ele>
        <time>2024-03-13T13:42:39Z</time>
      </trkpt>
      <trkpt lat="44.42839" lon="1.60082">
        <ele>354</ele>
        <time>2024-03-13T13:42:40Z</time>
      </trkpt>
      <trkpt lat="44.42839" lon="1.60081">
        <ele>354</ele>
        <time>2024-03-13T13:42:41Z</time>
      </trkpt>
      <trkpt lat="44.4284" lon="1.60082">
        <ele>355</ele>
        <time>2024-03-13T13:42:42Z</time>
      </trkpt>
      <trkpt lat="44.42841" lon="1.60081">
        <ele>355</ele>
        <time>2024-03-13T13:42:43Z</time>
      </trkpt>
      <trkpt lat="44.42842" lon="1.60081">
        <ele>355</ele>
        <time>2024-03-13T13:42:44Z</time>
      </trkpt>
      <trkpt lat="44.42843" lon="1.6008">
        <ele>355</ele>
        <time>2024-03-13T13:42:45Z</time>
      </trkpt>
      <trkpt lat="44.42844" lon="1.6008">
        <ele>355</ele>
        <time>2024-03-13T13:42:46Z</time>
      </trkpt>
      <trkpt lat="44.42845" lon="1.6008">
        <ele>355</ele>
        <time>2024-03-13T13:42:47Z</time>
      </trkpt>
      <trkpt lat="44.42845" lon="1.6008">
        <ele>355</ele>
        <time>2024-03-13T13:42:48Z</time>
      </trkpt>
      <trkpt lat="44.42846" lon="1.6008">
        <ele>355</ele>
        <time>2024-03-13T13:42:49Z</time>
      </trkpt>
      <trkpt lat="44.42845" lon="1.6008">
        <ele>355</ele>
        <time>2024-03-13T13:42:50Z</time>
      </trkpt>
      <trkpt lat="44.42845" lon="1.6008">
        <ele>355</ele>
        <time>2024-03-13T13:42:51Z</time>
      </trkpt>
      <trkpt lat="44.42845" lon="1.6008">
        <ele>355</ele>
        <time>2024-03-13T13:42:52Z</time>
      </trkpt>
      <trkpt lat="44.42845" lon="1.6008">
        <ele>355</ele>
        <time>2024-03-13T13:42:53Z</time>
      </trkpt>
      <trkpt lat="44.42845" lon="1.6008">
        <ele>355</ele>
        <time>2024-03-13T13:42:54Z</time>
      </trkpt>
      <trkpt lat="44.42847" lon="1.60079">
        <ele>355</ele>
        <time>2024-03-13T13:42:55Z</time>
      </trkpt>
      <trkpt lat="44.42847" lon="1.60079">
        <ele>356</ele>
        <time>2024-03-13T13:42:56Z</time>
      </trkpt>
      <trkpt lat="44.42848" lon="1.60079">
        <ele>356</ele>
        <time>2024-03-13T13:42:57Z</time>
      </trkpt>
      <trkpt lat="44.42849" lon="1.60079">
        <ele>356</ele>
        <time>2024-03-13T13:42:58Z</time>
      </trkpt>
      <trkpt lat="44.42849" lon="1.60078">
        <ele>356</ele>
        <time>2024-03-13T13:42:59Z</time>
      </trkpt>
      <trkpt lat="44.4285" lon="1.60078">
        <ele>356</ele>
        <time>2024-03-13T13:43:00Z</time>
      </trkpt>
      <trkpt lat="44.42851" lon="1.60077">
        <ele>357</ele>
        <time>2024-03-13T13:43:01Z</time>
      </trkpt>
      <trkpt lat="44.42852" lon="1.60077">
        <ele>357</ele>
        <time>2024-03-13T13:43:02Z</time>
      </trkpt>
      <trkpt lat="44.42852" lon="1.60077">
        <ele>356</ele>
        <time>2024-03-13T13:43:03Z</time>
      </trkpt>
      <trkpt lat="44.42853" lon="1.60077">
        <ele>356</ele>
        <time>2024-03-13T13:43:04Z</time>
      </trkpt>
      <trkpt lat="44.42854" lon="1.60077">
        <ele>356</ele>
        <time>2024-03-13T13:43:05Z</time>
      </trkpt>
      <trkpt lat="44.42855" lon="1.60076">
        <ele>356</ele>
        <time>2024-03-13T13:43:06Z</time>
      </trkpt>
      <trkpt lat="44.42856" lon="1.60076">
        <ele>357</ele>
        <time>2024-03-13T13:43:07Z</time>
      </trkpt>
      <trkpt lat="44.42856" lon="1.60076">
        <ele>357</ele>
        <time>2024-03-13T13:43:08Z</time>
      </trkpt>
      <trkpt lat="44.42856" lon="1.60076">
        <ele>357</ele>
        <time>2024-03-13T13:43:09Z</time>
      </trkpt>
      <trkpt lat="44.42857" lon="1.60076">
        <ele>357</ele>
        <time>2024-03-13T13:43:10Z</time>
      </trkpt>
      <trkpt lat="44.42857" lon="1.60075">
        <ele>357</ele>
        <time>2024-03-13T13:43:11Z</time>
      </trkpt>
      <trkpt lat="44.42858" lon="1.60075">
        <ele>357</ele>
        <time>2024-03-13T13:43:12Z</time>
      </trkpt>
      <trkpt lat="44.42859" lon="1.60075">
        <ele>356</ele>
        <time>2024-03-13T13:43:13Z</time>
      </trkpt>
      <trkpt lat="44.42859" lon="1.60075">
        <ele>356</ele>
        <time>2024-03-13T13:43:14Z</time>
      </trkpt>
      <trkpt lat="44.4286" lon="1.60075">
        <ele>356</ele>
        <time>2024-03-13T13:43:15Z</time>
      </trkpt>
      <trkpt lat="44.4286" lon="1.60074">
        <ele>356</ele>
        <time>2024-03-13T13:43:16Z</time>
      </trkpt>
      <trkpt lat="44.42861" lon="1.60075">
        <ele>357</ele>
        <time>2024-03-13T13:43:17Z</time>
      </trkpt>
      <trkpt lat="44.42862" lon="1.60074">
        <ele>356</ele>
        <time>2024-03-13T13:43:18Z</time>
      </trkpt>
      <trkpt lat="44.42863" lon="1.60074">
        <ele>356</ele>
        <time>2024-03-13T13:43:19Z</time>
      </trkpt>
      <trkpt lat="44.42864" lon="1.60074">
        <ele>356</ele>
        <time>2024-03-13T13:43:20Z</time>
      </trkpt>
      <trkpt lat="44.42865" lon="1.60073">
        <ele>357</ele>
        <time>2024-03-13T13:43:21Z</time>
      </trkpt>
      <trkpt lat="44.42866" lon="1.60073">
        <ele>357</ele>
        <time>2024-03-13T13:43:22Z</time>
      </trkpt>
      <trkpt lat="44.42866" lon="1.60072">
        <ele>357</ele>
        <time>2024-03-13T13:43:23Z</time>
      </trkpt>
      <trkpt lat="44.42867" lon="1.60072">
        <ele>357</ele>
        <time>2024-03-13T13:43:24Z</time>
      </trkpt>
      <trkpt lat="44.42868" lon="1.60071">
        <ele>357</ele>
        <time>2024-03-13T13:43:25Z</time>
      </trkpt>
      <trkpt lat="44.42869" lon="1.60071">
        <ele>358</ele>
        <time>2024-03-13T13:43:26Z</time>
      </trkpt>
      <trkpt lat="44.4287" lon="1.60071">
        <ele>358</ele>
        <time>2024-03-13T13:43:27Z</time>
      </trkpt>
      <trkpt lat="44.4287" lon="1.60071">
        <ele>358</ele>
        <time>2024-03-13T13:43:28Z</time>
      </trkpt>
      <trkpt lat="44.42871" lon="1.6007">
        <ele>359</ele>
        <time>2024-03-13T13:43:29Z</time>
      </trkpt>
      <trkpt lat="44.42872" lon="1.60069">
        <ele>359</ele>
        <time>2024-03-13T13:43:30Z</time>
      </trkpt>
      <trkpt lat="44.42873" lon="1.60069">
        <ele>359</ele>
        <time>2024-03-13T13:43:31Z</time>
      </trkpt>
      <trkpt lat="44.42873" lon="1.60068">
        <ele>359</ele>
        <time>2024-03-13T13:43:32Z</time>
      </trkpt>
      <trkpt lat="44.42873" lon="1.60068">
        <ele>359</ele>
        <time>2024-03-13T13:43:33Z</time>
      </trkpt>
      <trkpt lat="44.42873" lon="1.60067">
        <ele>359</ele>
        <time>2024-03-13T13:43:34Z</time>
      </trkpt>
      <trkpt lat="44.42873" lon="1.60067">
        <ele>359</ele>
        <time>2024-03-13T13:43:35Z</time>
      </trkpt>
      <trkpt lat="44.42873" lon="1.60067">
        <ele>359</ele>
        <time>2024-03-13T13:43:36Z</time>
      </trkpt>
      <trkpt lat="44.42875" lon="1.60064">
        <ele>359</ele>
        <time>2024-03-13T13:43:37Z</time>
      </trkpt>
      <trkpt lat="44.42875" lon="1.60063">
        <ele>359</ele>
        <time>2024-03-13T13:43:38Z</time>
      </trkpt>
      <trkpt lat="44.42876" lon="1.60062">
        <ele>359</ele>
        <time>2024-03-13T13:43:39Z</time>
      </trkpt>
      <trkpt lat="44.42876" lon="1.6006">
        <ele>360</ele>
        <time>2024-03-13T13:43:40Z</time>
      </trkpt>
      <trkpt lat="44.42877" lon="1.60059">
        <ele>360</ele>
        <time>2024-03-13T13:43:41Z</time>
      </trkpt>
      <trkpt lat="44.42878" lon="1.60058">
        <ele>360</ele>
        <time>2024-03-13T13:43:42Z</time>
      </trkpt>
      <trkpt lat="44.42878" lon="1.60057">
        <ele>361</ele>
        <time>2024-03-13T13:43:43Z</time>
      </trkpt>
      <trkpt lat="44.42878" lon="1.60056">
        <ele>361</ele>
        <time>2024-03-13T13:43:44Z</time>
      </trkpt>
      <trkpt lat="44.42878" lon="1.60055">
        <ele>361</ele>
        <time>2024-03-13T13:43:45Z</time>
      </trkpt>
      <trkpt lat="44.42879" lon="1.60054">
        <ele>361</ele>
        <time>2024-03-13T13:43:46Z</time>
      </trkpt>
      <trkpt lat="44.42879" lon="1.60053">
        <ele>361</ele>
        <time>2024-03-13T13:43:47Z</time>
      </trkpt>
      <trkpt lat="44.4288" lon="1.60052">
        <ele>361</ele>
        <time>2024-03-13T13:43:48Z</time>
      </trkpt>
      <trkpt lat="44.4288" lon="1.60051">
        <ele>361</ele>
        <time>2024-03-13T13:43:49Z</time>
      </trkpt>
      <trkpt lat="44.42881" lon="1.6005">
        <ele>361</ele>
        <time>2024-03-13T13:43:50Z</time>
      </trkpt>
      <trkpt lat="44.42881" lon="1.6005">
        <ele>361</ele>
        <time>2024-03-13T13:43:51Z</time>
      </trkpt>
      <trkpt lat="44.42882" lon="1.60049">
        <ele>361</ele>
        <time>2024-03-13T13:43:52Z</time>
      </trkpt>
      <trkpt lat="44.42883" lon="1.60048">
        <ele>361</ele>
        <time>2024-03-13T13:43:53Z</time>
      </trkpt>
      <trkpt lat="44.42883" lon="1.60047">
        <ele>361</ele>
        <time>2024-03-13T13:43:54Z</time>
      </trkpt>
      <trkpt lat="44.42884" lon="1.60046">
        <ele>361</ele>
        <time>2024-03-13T13:43:55Z</time>
      </trkpt>
      <trkpt lat="44.42884" lon="1.60045">
        <ele>361</ele>
        <time>2024-03-13T13:43:56Z</time>
      </trkpt>
      <trkpt lat="44.42885" lon="1.60044">
        <ele>362</ele>
        <time>2024-03-13T13:43:57Z</time>
      </trkpt>
      <trkpt lat="44.42886" lon="1.60043">
        <ele>362</ele>
        <time>2024-03-13T13:43:58Z</time>
      </trkpt>
      <trkpt lat="44.42886" lon="1.60041">
        <ele>362</ele>
        <time>2024-03-13T13:43:59Z</time>
      </trkpt>
      <trkpt lat="44.42887" lon="1.6004">
        <ele>362</ele>
        <time>2024-03-13T13:44:00Z</time>
      </trkpt>
      <trkpt lat="44.42887" lon="1.60039">
        <ele>362</ele>
        <time>2024-03-13T13:44:01Z</time>
      </trkpt>
      <trkpt lat="44.42887" lon="1.60038">
        <ele>362</ele>
        <time>2024-03-13T13:44:02Z</time>
      </trkpt>
      <trkpt lat="44.42888" lon="1.60037">
        <ele>363</ele>
        <time>2024-03-13T13:44:03Z</time>
      </trkpt>
      <trkpt lat="44.42889" lon="1.60036">
        <ele>363</ele>
        <time>2024-03-13T13:44:04Z</time>
      </trkpt>
      <trkpt lat="44.42889" lon="1.60034">
        <ele>363</ele>
        <time>2024-03-13T13:44:05Z</time>
      </trkpt>
      <trkpt lat="44.4289" lon="1.60033">
        <ele>363</ele>
        <time>2024-03-13T13:44:06Z</time>
      </trkpt>
      <trkpt lat="44.4289" lon="1.60032">
        <ele>363</ele>
        <time>2024-03-13T13:44:07Z</time>
      </trkpt>
      <trkpt lat="44.42891" lon="1.60032">
        <ele>363</ele>
        <time>2024-03-13T13:44:08Z</time>
      </trkpt>
      <trkpt lat="44.42891" lon="1.6003">
        <ele>363</ele>
        <time>2024-03-13T13:44:09Z</time>
      </trkpt>
      <trkpt lat="44.42892" lon="1.60029">
        <ele>363</ele>
        <time>2024-03-13T13:44:10Z</time>
      </trkpt>
      <trkpt lat="44.42893" lon="1.60028">
        <ele>363</ele>
        <time>2024-03-13T13:44:11Z</time>
      </trkpt>
      <trkpt lat="44.42893" lon="1.60028">
        <ele>363</ele>
        <time>2024-03-13T13:44:12Z</time>
      </trkpt>
      <trkpt lat="44.42894" lon="1.60027">
        <ele>363</ele>
        <time>2024-03-13T13:44:13Z</time>
      </trkpt>
      <trkpt lat="44.42894" lon="1.60027">
        <ele>364</ele>
        <time>2024-03-13T13:44:14Z</time>
      </trkpt>
      <trkpt lat="44.42894" lon="1.60027">
        <ele>364</ele>
        <time>2024-03-13T13:44:15Z</time>
      </trkpt>
      <trkpt lat="44.42894" lon="1.60027">
        <ele>364</ele>
        <time>2024-03-13T13:44:16Z</time>
      </trkpt>
      <trkpt lat="44.42894" lon="1.60027">
        <ele>364</ele>
        <time>2024-03-13T13:44:17Z</time>
      </trkpt>
      <trkpt lat="44.42894" lon="1.60027">
        <ele>364</ele>
        <time>2024-03-13T13:44:18Z</time>
      </trkpt>
      <trkpt lat="44.42895" lon="1.60026">
        <ele>364</ele>
        <time>2024-03-13T13:44:19Z</time>
      </trkpt>
      <trkpt lat="44.42896" lon="1.60026">
        <ele>364</ele>
        <time>2024-03-13T13:44:20Z</time>
      </trkpt>
      <trkpt lat="44.42896" lon="1.60024">
        <ele>365</ele>
        <time>2024-03-13T13:44:21Z</time>
      </trkpt>
      <trkpt lat="44.42897" lon="1.60023">
        <ele>365</ele>
        <time>2024-03-13T13:44:22Z</time>
      </trkpt>
      <trkpt lat="44.42897" lon="1.60021">
        <ele>365</ele>
        <time>2024-03-13T13:44:23Z</time>
      </trkpt>
      <trkpt lat="44.42898" lon="1.6002">
        <ele>365</ele>
        <time>2024-03-13T13:44:24Z</time>
      </trkpt>
      <trkpt lat="44.42899" lon="1.60019">
        <ele>365</ele>
        <time>2024-03-13T13:44:25Z</time>
      </trkpt>
      <trkpt lat="44.42899" lon="1.60019">
        <ele>365</ele>
        <time>2024-03-13T13:44:26Z</time>
      </trkpt>
      <trkpt lat="44.42899" lon="1.60019">
        <ele>366</ele>
        <time>2024-03-13T13:44:27Z</time>
      </trkpt>
      <trkpt lat="44.429" lon="1.60018">
        <ele>366</ele>
        <time>2024-03-13T13:44:28Z</time>
      </trkpt>
      <trkpt lat="44.429" lon="1.60018">
        <ele>366</ele>
        <time>2024-03-13T13:44:29Z</time>
      </trkpt>
      <trkpt lat="44.42901" lon="1.60016">
        <ele>366</ele>
        <time>2024-03-13T13:44:30Z</time>
      </trkpt>
      <trkpt lat="44.42902" lon="1.60014">
        <ele>367</ele>
        <time>2024-03-13T13:44:31Z</time>
      </trkpt>
      <trkpt lat="44.42902" lon="1.60013">
        <ele>366</ele>
        <time>2024-03-13T13:44:32Z</time>
      </trkpt>
      <trkpt lat="44.42903" lon="1.60012">
        <ele>367</ele>
        <time>2024-03-13T13:44:33Z</time>
      </trkpt>
      <trkpt lat="44.42904" lon="1.60011">
        <ele>367</ele>
        <time>2024-03-13T13:44:34Z</time>
      </trkpt>
      <trkpt lat="44.42904" lon="1.6001">
        <ele>367</ele>
        <time>2024-03-13T13:44:35Z</time>
      </trkpt>
      <trkpt lat="44.42904" lon="1.60009">
        <ele>367</ele>
        <time>2024-03-13T13:44:36Z</time>
      </trkpt>
      <trkpt lat="44.42905" lon="1.60007">
        <ele>368</ele>
        <time>2024-03-13T13:44:37Z</time>
      </trkpt>
      <trkpt lat="44.42906" lon="1.60006">
        <ele>367</ele>
        <time>2024-03-13T13:44:38Z</time>
      </trkpt>
      <trkpt lat="44.42907" lon="1.60005">
        <ele>367</ele>
        <time>2024-03-13T13:44:39Z</time>
      </trkpt>
      <trkpt lat="44.42907" lon="1.60005">
        <ele>367</ele>
        <time>2024-03-13T13:44:40Z</time>
      </trkpt>
      <trkpt lat="44.42908" lon="1.60004">
        <ele>367</ele>
        <time>2024-03-13T13:44:41Z</time>
      </trkpt>
      <trkpt lat="44.42909" lon="1.60003">
        <ele>367</ele>
        <time>2024-03-13T13:44:42Z</time>
      </trkpt>
      <trkpt lat="44.4291" lon="1.60002">
        <ele>367</ele>
        <time>2024-03-13T13:44:43Z</time>
      </trkpt>
      <trkpt lat="44.4291" lon="1.60002">
        <ele>367</ele>
        <time>2024-03-13T13:44:44Z</time>
      </trkpt>
      <trkpt lat="44.42912" lon="1.60002">
        <ele>367</ele>
        <time>2024-03-13T13:44:45Z</time>
      </trkpt>
      <trkpt lat="44.42912" lon="1.60001">
        <ele>367</ele>
        <time>2024-03-13T13:44:46Z</time>
      </trkpt>
      <trkpt lat="44.42913" lon="1.60001">
        <ele>367</ele>
        <time>2024-03-13T13:44:47Z</time>
      </trkpt>
      <trkpt lat="44.42914" lon="1.6">
        <ele>367</ele>
        <time>2024-03-13T13:44:48Z</time>
      </trkpt>
      <trkpt lat="44.42915" lon="1.6">
        <ele>367</ele>
        <time>2024-03-13T13:44:49Z</time>
      </trkpt>
      <trkpt lat="44.42915" lon="1.59999">
        <ele>367</ele>
        <time>2024-03-13T13:44:50Z</time>
      </trkpt>
      <trkpt lat="44.42916" lon="1.59998">
        <ele>367</ele>
        <time>2024-03-13T13:44:51Z</time>
      </trkpt>
      <trkpt lat="44.42918" lon="1.59997">
        <ele>367</ele>
        <time>2024-03-13T13:44:52Z</time>
      </trkpt>
      <trkpt lat="44.42918" lon="1.59997">
        <ele>367</ele>
        <time>2024-03-13T13:44:53Z</time>
      </trkpt>
      <trkpt lat="44.42919" lon="1.59996">
        <ele>368</ele>
        <time>2024-03-13T13:44:54Z</time>
      </trkpt>
      <trkpt lat="44.4292" lon="1.59996">
        <ele>368</ele>
        <time>2024-03-13T13:44:55Z</time>
      </trkpt>
      <trkpt lat="44.42921" lon="1.59995">
        <ele>368</ele>
        <time>2024-03-13T13:44:56Z</time>
      </trkpt>
      <trkpt lat="44.42921" lon="1.59995">
        <ele>368</ele>
        <time>2024-03-13T13:44:57Z</time>
      </trkpt>
      <trkpt lat="44.42921" lon="1.59995">
        <ele>369</ele>
        <time>2024-03-13T13:44:58Z</time>
      </trkpt>
      <trkpt lat="44.42921" lon="1.59995">
        <ele>369</ele>
        <time>2024-03-13T13:44:59Z</time>
      </trkpt>
      <trkpt lat="44.42921" lon="1.59995">
        <ele>369</ele>
        <time>2024-03-13T13:45:00Z</time>
      </trkpt>
      <trkpt lat="44.42921" lon="1.59995">
        <ele>369</ele>
        <time>2024-03-13T13:45:01Z</time>
      </trkpt>
      <trkpt lat="44.42921" lon="1.59995">
        <ele>369</ele>
        <time>2024-03-13T13:45:02Z</time>
      </trkpt>
      <trkpt lat="44.42921" lon="1.59995">
        <ele>369</ele>
        <time>2024-03-13T13:45:03Z</time>
      </trkpt>
      <trkpt lat="44.42921" lon="1.59995">
        <ele>369</ele>
        <time>2024-03-13T13:45:04Z</time>
      </trkpt>
      <trkpt lat="44.42921" lon="1.59995">
        <ele>369</ele>
        <time>2024-03-13T13:45:05Z</time>
      </trkpt>
      <trkpt lat="44.42921" lon="1.59995">
        <ele>369</ele>
        <time>2024-03-13T13:45:06Z</time>
      </trkpt>
      <trkpt lat="44.42921" lon="1.59995">
        <ele>369</ele>
        <time>2024-03-13T13:45:07Z</time>
      </trkpt>
      <trkpt lat="44.42921" lon="1.59995">
        <ele>369</ele>
        <time>2024-03-13T13:45:08Z</time>
      </trkpt>
      <trkpt lat="44.42921" lon="1.59995">
        <ele>369</ele>
        <time>2024-03-13T13:45:09Z</time>
      </trkpt>
      <trkpt lat="44.42921" lon="1.59995">
        <ele>369</ele>
        <time>2024-03-13T13:45:10Z</time>
      </trkpt>
      <trkpt lat="44.42921" lon="1.59995">
        <ele>369</ele>
        <time>2024-03-13T13:45:11Z</time>
      </trkpt>
      <trkpt lat="44.42921" lon="1.59995">
        <ele>369</ele>
        <time>2024-03-13T13:45:12Z</time>
      </trkpt>
      <trkpt lat="44.42921" lon="1.59995">
        <ele>369</ele>
        <time>2024-03-13T13:45:13Z</time>
      </trkpt>
      <trkpt lat="44.42921" lon="1.59995">
        <ele>369</ele>
        <time>2024-03-13T13:45:14Z</time>
      </trkpt>
      <trkpt lat="44.42921" lon="1.59995">
        <ele>369</ele>
        <time>2024-03-13T13:45:15Z</time>
      </trkpt>
      <trkpt lat="44.42921" lon="1.59995">
        <ele>369</ele>
        <time>2024-03-13T13:45:16Z</time>
      </trkpt>
      <trkpt lat="44.42921" lon="1.59995">
        <ele>369</ele>
        <time>2024-03-13T13:45:17Z</time>
      </trkpt>
      <trkpt lat="44.42921" lon="1.59995">
        <ele>369</ele>
        <time>2024-03-13T13:45:18Z</time>
      </trkpt>
      <trkpt lat="44.42921" lon="1.59995">
        <ele>369</ele>
        <time>2024-03-13T13:45:19Z</time>
      </trkpt>
      <trkpt lat="44.42921" lon="1.59995">
        <ele>369</ele>
        <time>2024-03-13T13:45:20Z</time>
      </trkpt>
      <trkpt lat="44.42921" lon="1.59995">
        <ele>369</ele>
        <time>2024-03-13T13:45:21Z</time>
      </trkpt>
      <trkpt lat="44.42921" lon="1.59995">
        <ele>369</ele>
        <time>2024-03-13T13:45:22Z</time>
      </trkpt>
      <trkpt lat="44.42921" lon="1.59995">
        <ele>369</ele>
        <time>2024-03-13T13:45:23Z</time>
      </trkpt>
      <trkpt lat="44.42921" lon="1.59995">
        <ele>369</ele>
        <time>2024-03-13T13:45:24Z</time>
      </trkpt>
      <trkpt lat="44.42921" lon="1.59995">
        <ele>369</ele>
        <time>2024-03-13T13:45:25Z</time>
      </trkpt>
      <trkpt lat="44.42921" lon="1.59995">
        <ele>369</ele>
        <time>2024-03-13T13:45:26Z</time>
      </trkpt>
      <trkpt lat="44.42921" lon="1.59995">
        <ele>369</ele>
        <time>2024-03-13T13:45:27Z</time>
      </trkpt>
      <trkpt lat="44.42921" lon="1.59995">
        <ele>369</ele>
        <time>2024-03-13T13:45:28Z</time>
      </trkpt>
      <trkpt lat="44.42921" lon="1.59995">
        <ele>369</ele>
        <time>2024-03-13T13:45:29Z</time>
      </trkpt>
      <trkpt lat="44.42921" lon="1.59995">
        <ele>369</ele>
        <time>2024-03-13T13:45:30Z</time>
      </trkpt>
      <trkpt lat="44.42921" lon="1.59995">
        <ele>369</ele>
        <time>2024-03-13T13:45:31Z</time>
      </trkpt>
      <trkpt lat="44.42921" lon="1.59995">
        <ele>369</ele>
        <time>2024-03-13T13:45:32Z</time>
      </trkpt>
      <trkpt lat="44.42921" lon="1.59995">
        <ele>369</ele>
        <time>2024-03-13T13:45:33Z</time>
      </trkpt>
      <trkpt lat="44.42921" lon="1.59995">
        <ele>369</ele>
        <time>2024-03-13T13:45:34Z</time>
      </trkpt>
      <trkpt lat="44.42923" lon="1.59993">
        <ele>370</ele>
        <time>2024-03-13T13:45:35Z</time>
      </trkpt>
      <trkpt lat="44.42923" lon="1.59993">
        <ele>370</ele>
        <time>2024-03-13T13:45:36Z</time>
      </trkpt>
      <trkpt lat="44.42923" lon="1.59993">
        <ele>370</ele>
        <time>2024-03-13T13:45:37Z</time>
      </trkpt>
      <trkpt lat="44.42923" lon="1.59993">
        <ele>370</ele>
        <time>2024-03-13T13:45:38Z</time>
      </trkpt>
      <trkpt lat="44.42923" lon="1.59993">
        <ele>370</ele>
        <time>2024-03-13T13:45:39Z</time>
      </trkpt>
      <trkpt lat="44.42923" lon="1.59993">
        <ele>370</ele>
        <time>2024-03-13T13:45:40Z</time>
      </trkpt>
      <trkpt lat="44.42923" lon="1.59993">
        <ele>370</ele>
        <time>2024-03-13T13:45:41Z</time>
      </trkpt>
      <trkpt lat="44.42924" lon="1.59991">
        <ele>370</ele>
        <time>2024-03-13T13:45:42Z</time>
      </trkpt>
      <trkpt lat="44.42924" lon="1.59991">
        <ele>370</ele>
        <time>2024-03-13T13:45:43Z</time>
      </trkpt>
      <trkpt lat="44.42924" lon="1.59991">
        <ele>370</ele>
        <time>2024-03-13T13:45:44Z</time>
      </trkpt>
      <trkpt lat="44.42924" lon="1.59991">
        <ele>370</ele>
        <time>2024-03-13T13:45:45Z</time>
      </trkpt>
      <trkpt lat="44.42924" lon="1.59991">
        <ele>370</ele>
        <time>2024-03-13T13:45:46Z</time>
      </trkpt>
      <trkpt lat="44.42924" lon="1.59991">
        <ele>370</ele>
        <time>2024-03-13T13:45:47Z</time>
      </trkpt>
      <trkpt lat="44.42924" lon="1.59991">
        <ele>370</ele>
        <time>2024-03-13T13:45:48Z</time>
      </trkpt>
      <trkpt lat="44.42924" lon="1.59991">
        <ele>370</ele>
        <time>2024-03-13T13:45:49Z</time>
      </trkpt>
      <trkpt lat="44.42924" lon="1.59991">
        <ele>370</ele>
        <time>2024-03-13T13:45:50Z</time>
      </trkpt>
      <trkpt lat="44.42924" lon="1.59991">
        <ele>370</ele>
        <time>2024-03-13T13:45:51Z</time>
      </trkpt>
      <trkpt lat="44.42924" lon="1.59991">
        <ele>370</ele>
        <time>2024-03-13T13:45:52Z</time>
      </trkpt>
      <trkpt lat="44.42924" lon="1.59991">
        <ele>370</ele>
        <time>2024-03-13T13:45:53Z</time>
      </trkpt>
      <trkpt lat="44.42924" lon="1.59991">
        <ele>370</ele>
        <time>2024-03-13T13:45:54Z</time>
      </trkpt>
      <trkpt lat="44.42924" lon="1.59991">
        <ele>370</ele>
        <time>2024-03-13T13:45:55Z</time>
      </trkpt>
      <trkpt lat="44.42925" lon="1.59991">
        <ele>370</ele>
        <time>2024-03-13T13:45:56Z</time>
      </trkpt>
      <trkpt lat="44.42926" lon="1.59991">
        <ele>370</ele>
        <time>2024-03-13T13:45:57Z</time>
      </trkpt>
      <trkpt lat="44.42926" lon="1.5999">
        <ele>370</ele>
        <time>2024-03-13T13:45:58Z</time>
      </trkpt>
      <trkpt lat="44.42927" lon="1.5999">
        <ele>369</ele>
        <time>2024-03-13T13:45:59Z</time>
      </trkpt>
      <trkpt lat="44.42928" lon="1.5999">
        <ele>370</ele>
        <time>2024-03-13T13:46:00Z</time>
      </trkpt>
      <trkpt lat="44.42928" lon="1.5999">
        <ele>369</ele>
        <time>2024-03-13T13:46:01Z</time>
      </trkpt>
      <trkpt lat="44.42929" lon="1.59989">
        <ele>369</ele>
        <time>2024-03-13T13:46:02Z</time>
      </trkpt>
      <trkpt lat="44.42929" lon="1.59989">
        <ele>369</ele>
        <time>2024-03-13T13:46:03Z</time>
      </trkpt>
      <trkpt lat="44.4293" lon="1.59988">
        <ele>369</ele>
        <time>2024-03-13T13:46:04Z</time>
      </trkpt>
      <trkpt lat="44.4293" lon="1.59988">
        <ele>369</ele>
        <time>2024-03-13T13:46:05Z</time>
      </trkpt>
      <trkpt lat="44.4293" lon="1.59988">
        <ele>369</ele>
        <time>2024-03-13T13:46:06Z</time>
      </trkpt>
      <trkpt lat="44.4293" lon="1.59988">
        <ele>369</ele>
        <time>2024-03-13T13:46:07Z</time>
      </trkpt>
      <trkpt lat="44.42932" lon="1.59987">
        <ele>369</ele>
        <time>2024-03-13T13:46:08Z</time>
      </trkpt>
      <trkpt lat="44.42933" lon="1.59987">
        <ele>369</ele>
        <time>2024-03-13T13:46:09Z</time>
      </trkpt>
      <trkpt lat="44.42934" lon="1.59986">
        <ele>370</ele>
        <time>2024-03-13T13:46:10Z</time>
      </trkpt>
      <trkpt lat="44.42934" lon="1.59986">
        <ele>370</ele>
        <time>2024-03-13T13:46:11Z</time>
      </trkpt>
      <trkpt lat="44.42934" lon="1.59986">
        <ele>370</ele>
        <time>2024-03-13T13:46:12Z</time>
      </trkpt>
      <trkpt lat="44.42934" lon="1.59986">
        <ele>370</ele>
        <time>2024-03-13T13:46:13Z</time>
      </trkpt>
      <trkpt lat="44.42936" lon="1.59986">
        <ele>371</ele>
        <time>2024-03-13T13:46:14Z</time>
      </trkpt>
      <trkpt lat="44.42937" lon="1.59986">
        <ele>371</ele>
        <time>2024-03-13T13:46:15Z</time>
      </trkpt>
      <trkpt lat="44.42937" lon="1.59986">
        <ele>370</ele>
        <time>2024-03-13T13:46:16Z</time>
      </trkpt>
      <trkpt lat="44.42937" lon="1.59985">
        <ele>370</ele>
        <time>2024-03-13T13:46:17Z</time>
      </trkpt>
      <trkpt lat="44.42938" lon="1.59985">
        <ele>370</ele>
        <time>2024-03-13T13:46:18Z</time>
      </trkpt>
      <trkpt lat="44.42938" lon="1.59985">
        <ele>370</ele>
        <time>2024-03-13T13:46:19Z</time>
      </trkpt>
      <trkpt lat="44.42938" lon="1.59985">
        <ele>370</ele>
        <time>2024-03-13T13:46:20Z</time>
      </trkpt>
      <trkpt lat="44.42938" lon="1.59985">
        <ele>370</ele>
        <time>2024-03-13T13:46:21Z</time>
      </trkpt>
      <trkpt lat="44.4294" lon="1.59985">
        <ele>370</ele>
        <time>2024-03-13T13:46:22Z</time>
      </trkpt>
      <trkpt lat="44.42941" lon="1.59985">
        <ele>371</ele>
        <time>2024-03-13T13:46:23Z</time>
      </trkpt>
      <trkpt lat="44.42942" lon="1.59985">
        <ele>371</ele>
        <time>2024-03-13T13:46:24Z</time>
      </trkpt>
      <trkpt lat="44.42943" lon="1.59985">
        <ele>371</ele>
        <time>2024-03-13T13:46:25Z</time>
      </trkpt>
      <trkpt lat="44.42944" lon="1.59984">
        <ele>371</ele>
        <time>2024-03-13T13:46:26Z</time>
      </trkpt>
      <trkpt lat="44.42944" lon="1.59984">
        <ele>372</ele>
        <time>2024-03-13T13:46:27Z</time>
      </trkpt>
      <trkpt lat="44.42944" lon="1.59983">
        <ele>372</ele>
        <time>2024-03-13T13:46:28Z</time>
      </trkpt>
      <trkpt lat="44.42945" lon="1.59983">
        <ele>372</ele>
        <time>2024-03-13T13:46:29Z</time>
      </trkpt>
      <trkpt lat="44.42945" lon="1.59983">
        <ele>372</ele>
        <time>2024-03-13T13:46:30Z</time>
      </trkpt>
      <trkpt lat="44.42947" lon="1.59982">
        <ele>372</ele>
        <time>2024-03-13T13:46:31Z</time>
      </trkpt>
      <trkpt lat="44.42947" lon="1.59982">
        <ele>372</ele>
        <time>2024-03-13T13:46:32Z</time>
      </trkpt>
      <trkpt lat="44.42949" lon="1.59981">
        <ele>372</ele>
        <time>2024-03-13T13:46:33Z</time>
      </trkpt>
      <trkpt lat="44.4295" lon="1.5998">
        <ele>373</ele>
        <time>2024-03-13T13:46:34Z</time>
      </trkpt>
      <trkpt lat="44.42951" lon="1.59979">
        <ele>373</ele>
        <time>2024-03-13T13:46:35Z</time>
      </trkpt>
      <trkpt lat="44.42952" lon="1.59978">
        <ele>373</ele>
        <time>2024-03-13T13:46:36Z</time>
      </trkpt>
      <trkpt lat="44.42953" lon="1.59977">
        <ele>373</ele>
        <time>2024-03-13T13:46:37Z</time>
      </trkpt>
      <trkpt lat="44.42954" lon="1.59976">
        <ele>373</ele>
        <time>2024-03-13T13:46:38Z</time>
      </trkpt>
      <trkpt lat="44.42955" lon="1.59975">
        <ele>373</ele>
        <time>2024-03-13T13:46:39Z</time>
      </trkpt>
      <trkpt lat="44.42956" lon="1.59974">
        <ele>373</ele>
        <time>2024-03-13T13:46:40Z</time>
      </trkpt>
      <trkpt lat="44.42957" lon="1.59973">
        <ele>373</ele>
        <time>2024-03-13T13:46:41Z</time>
      </trkpt>
      <trkpt lat="44.42958" lon="1.59972">
        <ele>373</ele>
        <time>2024-03-13T13:46:42Z</time>
      </trkpt>
      <trkpt lat="44.42959" lon="1.59971">
        <ele>373</ele>
        <time>2024-03-13T13:46:43Z</time>
      </trkpt>
      <trkpt lat="44.4296" lon="1.5997">
        <ele>373</ele>
        <time>2024-03-13T13:46:44Z</time>
      </trkpt>
      <trkpt lat="44.42961" lon="1.59969">
        <ele>373</ele>
        <time>2024-03-13T13:46:45Z</time>
      </trkpt>
      <trkpt lat="44.42962" lon="1.59968">
        <ele>373</ele>
        <time>2024-03-13T13:46:46Z</time>
      </trkpt>
      <trkpt lat="44.42963" lon="1.59967">
        <ele>372</ele>
        <time>2024-03-13T13:46:47Z</time>
      </trkpt>
      <trkpt lat="44.42964" lon="1.59966">
        <ele>372</ele>
        <time>2024-03-13T13:46:48Z</time>
      </trkpt>
      <trkpt lat="44.42965" lon="1.59966">
        <ele>372</ele>
        <time>2024-03-13T13:46:49Z</time>
      </trkpt>
      <trkpt lat="44.42966" lon="1.59965">
        <ele>372</ele>
        <time>2024-03-13T13:46:50Z</time>
      </trkpt>
      <trkpt lat="44.42967" lon="1.59964">
        <ele>372</ele>
        <time>2024-03-13T13:46:51Z</time>
      </trkpt>
      <trkpt lat="44.42968" lon="1.59964">
        <ele>372</ele>
        <time>2024-03-13T13:46:52Z</time>
      </trkpt>
      <trkpt lat="44.4297" lon="1.59963">
        <ele>372</ele>
        <time>2024-03-13T13:46:53Z</time>
      </trkpt>
      <trkpt lat="44.42971" lon="1.59962">
        <ele>372</ele>
        <time>2024-03-13T13:46:54Z</time>
      </trkpt>
      <trkpt lat="44.42972" lon="1.59962">
        <ele>372</ele>
        <time>2024-03-13T13:46:55Z</time>
      </trkpt>
      <trkpt lat="44.42973" lon="1.5996">
        <ele>372</ele>
        <time>2024-03-13T13:46:56Z</time>
      </trkpt>
      <trkpt lat="44.42974" lon="1.5996">
        <ele>372</ele>
        <time>2024-03-13T13:46:57Z</time>
      </trkpt>
      <trkpt lat="44.42975" lon="1.59959">
        <ele>373</ele>
        <time>2024-03-13T13:46:58Z</time>
      </trkpt>
      <trkpt lat="44.42976" lon="1.59958">
        <ele>373</ele>
        <time>2024-03-13T13:46:59Z</time>
      </trkpt>
      <trkpt lat="44.42977" lon="1.59958">
        <ele>373</ele>
        <time>2024-03-13T13:47:00Z</time>
      </trkpt>
      <trkpt lat="44.42978" lon="1.59958">
        <ele>373</ele>
        <time>2024-03-13T13:47:01Z</time>
      </trkpt>
      <trkpt lat="44.42978" lon="1.59957">
        <ele>373</ele>
        <time>2024-03-13T13:47:02Z</time>
      </trkpt>
      <trkpt lat="44.42978" lon="1.59957">
        <ele>373</ele>
        <time>2024-03-13T13:47:03Z</time>
      </trkpt>
      <trkpt lat="44.4298" lon="1.59957">
        <ele>374</ele>
        <time>2024-03-13T13:47:04Z</time>
      </trkpt>
      <trkpt lat="44.42981" lon="1.59958">
        <ele>374</ele>
        <time>2024-03-13T13:47:05Z</time>
      </trkpt>
      <trkpt lat="44.42982" lon="1.59958">
        <ele>374</ele>
        <time>2024-03-13T13:47:06Z</time>
      </trkpt>
      <trkpt lat="44.42983" lon="1.59957">
        <ele>374</ele>
        <time>2024-03-13T13:47:07Z</time>
      </trkpt>
      <trkpt lat="44.42984" lon="1.59957">
        <ele>374</ele>
        <time>2024-03-13T13:47:08Z</time>
      </trkpt>
      <trkpt lat="44.42985" lon="1.59957">
        <ele>374</ele>
        <time>2024-03-13T13:47:09Z</time>
      </trkpt>
      <trkpt lat="44.42987" lon="1.59957">
        <ele>374</ele>
        <time>2024-03-13T13:47:10Z</time>
      </trkpt>
      <trkpt lat="44.42988" lon="1.59956">
        <ele>374</ele>
        <time>2024-03-13T13:47:11Z</time>
      </trkpt>
      <trkpt lat="44.42989" lon="1.59957">
        <ele>374</ele>
        <time>2024-03-13T13:47:12Z</time>
      </trkpt>
      <trkpt lat="44.4299" lon="1.59957">
        <ele>375</ele>
        <time>2024-03-13T13:47:13Z</time>
      </trkpt>
      <trkpt lat="44.42991" lon="1.59957">
        <ele>375</ele>
        <time>2024-03-13T13:47:14Z</time>
      </trkpt>
      <trkpt lat="44.42992" lon="1.59956">
        <ele>375</ele>
        <time>2024-03-13T13:47:15Z</time>
      </trkpt>
      <trkpt lat="44.42993" lon="1.59956">
        <ele>375</ele>
        <time>2024-03-13T13:47:16Z</time>
      </trkpt>
      <trkpt lat="44.42994" lon="1.59956">
        <ele>375</ele>
        <time>2024-03-13T13:47:17Z</time>
      </trkpt>
      <trkpt lat="44.42995" lon="1.59956">
        <ele>375</ele>
        <time>2024-03-13T13:47:18Z</time>
      </trkpt>
      <trkpt lat="44.42996" lon="1.59956">
        <ele>375</ele>
        <time>2024-03-13T13:47:19Z</time>
      </trkpt>
      <trkpt lat="44.42997" lon="1.59956">
        <ele>374</ele>
        <time>2024-03-13T13:47:20Z</time>
      </trkpt>
      <trkpt lat="44.42998" lon="1.59956">
        <ele>374</ele>
        <time>2024-03-13T13:47:21Z</time>
      </trkpt>
      <trkpt lat="44.42999" lon="1.59956">
        <ele>374</ele>
        <time>2024-03-13T13:47:22Z</time>
      </trkpt>
      <trkpt lat="44.43" lon="1.59956">
        <ele>375</ele>
        <time>2024-03-13T13:47:23Z</time>
      </trkpt>
      <trkpt lat="44.43001" lon="1.59956">
        <ele>375</ele>
        <time>2024-03-13T13:47:24Z</time>
      </trkpt>
      <trkpt lat="44.43002" lon="1.59955">
        <ele>375</ele>
        <time>2024-03-13T13:47:25Z</time>
      </trkpt>
      <trkpt lat="44.43003" lon="1.59955">
        <ele>375</ele>
        <time>2024-03-13T13:47:26Z</time>
      </trkpt>
      <trkpt lat="44.43004" lon="1.59955">
        <ele>375</ele>
        <time>2024-03-13T13:47:27Z</time>
      </trkpt>
      <trkpt lat="44.43005" lon="1.59955">
        <ele>375</ele>
        <time>2024-03-13T13:47:28Z</time>
      </trkpt>
      <trkpt lat="44.43006" lon="1.59954">
        <ele>375</ele>
        <time>2024-03-13T13:47:29Z</time>
      </trkpt>
      <trkpt lat="44.43007" lon="1.59954">
        <ele>375</ele>
        <time>2024-03-13T13:47:30Z</time>
      </trkpt>
      <trkpt lat="44.43008" lon="1.59954">
        <ele>375</ele>
        <time>2024-03-13T13:47:31Z</time>
      </trkpt>
      <trkpt lat="44.43009" lon="1.59954">
        <ele>375</ele>
        <time>2024-03-13T13:47:32Z</time>
      </trkpt>
      <trkpt lat="44.4301" lon="1.59954">
        <ele>376</ele>
        <time>2024-03-13T13:47:33Z</time>
      </trkpt>
      <trkpt lat="44.43011" lon="1.59954">
        <ele>376</ele>
        <time>2024-03-13T13:47:34Z</time>
      </trkpt>
      <trkpt lat="44.43011" lon="1.59954">
        <ele>375</ele>
        <time>2024-03-13T13:47:35Z</time>
      </trkpt>
      <trkpt lat="44.43012" lon="1.59954">
        <ele>376</ele>
        <time>2024-03-13T13:47:36Z</time>
      </trkpt>
      <trkpt lat="44.43013" lon="1.59953">
        <ele>376</ele>
        <time>2024-03-13T13:47:37Z</time>
      </trkpt>
      <trkpt lat="44.43013" lon="1.59953">
        <ele>376</ele>
        <time>2024-03-13T13:47:38Z</time>
      </trkpt>
      <trkpt lat="44.43013" lon="1.59953">
        <ele>376</ele>
        <time>2024-03-13T13:47:39Z</time>
      </trkpt>
      <trkpt lat="44.43013" lon="1.59953">
        <ele>376</ele>
        <time>2024-03-13T13:47:40Z</time>
      </trkpt>
      <trkpt lat="44.43015" lon="1.59953">
        <ele>377</ele>
        <time>2024-03-13T13:47:41Z</time>
      </trkpt>
      <trkpt lat="44.43015" lon="1.59952">
        <ele>377</ele>
        <time>2024-03-13T13:47:42Z</time>
      </trkpt>
      <trkpt lat="44.43016" lon="1.59952">
        <ele>376</ele>
        <time>2024-03-13T13:47:43Z</time>
      </trkpt>
      <trkpt lat="44.43017" lon="1.59951">
        <ele>376</ele>
        <time>2024-03-13T13:47:44Z</time>
      </trkpt>
      <trkpt lat="44.43017" lon="1.59951">
        <ele>376</ele>
        <time>2024-03-13T13:47:45Z</time>
      </trkpt>
      <trkpt lat="44.43017" lon="1.59951">
        <ele>376</ele>
        <time>2024-03-13T13:47:46Z</time>
      </trkpt>
      <trkpt lat="44.43019" lon="1.59951">
        <ele>376</ele>
        <time>2024-03-13T13:47:47Z</time>
      </trkpt>
      <trkpt lat="44.4302" lon="1.59951">
        <ele>376</ele>
        <time>2024-03-13T13:47:48Z</time>
      </trkpt>
      <trkpt lat="44.43021" lon="1.59952">
        <ele>376</ele>
        <time>2024-03-13T13:47:49Z</time>
      </trkpt>
      <trkpt lat="44.43022" lon="1.59952">
        <ele>376</ele>
        <time>2024-03-13T13:47:50Z</time>
      </trkpt>
      <trkpt lat="44.43023" lon="1.59952">
        <ele>376</ele>
        <time>2024-03-13T13:47:51Z</time>
      </trkpt>
      <trkpt lat="44.43024" lon="1.59953">
        <ele>376</ele>
        <time>2024-03-13T13:47:52Z</time>
      </trkpt>
      <trkpt lat="44.43025" lon="1.59954">
        <ele>376</ele>
        <time>2024-03-13T13:47:53Z</time>
      </trkpt>
      <trkpt lat="44.43026" lon="1.59954">
        <ele>376</ele>
        <time>2024-03-13T13:47:54Z</time>
      </trkpt>
      <trkpt lat="44.43026" lon="1.59954">
        <ele>377</ele>
        <time>2024-03-13T13:47:55Z</time>
      </trkpt>
      <trkpt lat="44.43027" lon="1.59954">
        <ele>377</ele>
        <time>2024-03-13T13:47:56Z</time>
      </trkpt>
      <trkpt lat="44.43028" lon="1.59954">
        <ele>377</ele>
        <time>2024-03-13T13:47:57Z</time>
      </trkpt>
      <trkpt lat="44.43029" lon="1.59954">
        <ele>377</ele>
        <time>2024-03-13T13:47:58Z</time>
      </trkpt>
      <trkpt lat="44.4303" lon="1.59954">
        <ele>377</ele>
        <time>2024-03-13T13:47:59Z</time>
      </trkpt>
      <trkpt lat="44.43031" lon="1.59955">
        <ele>378</ele>
        <time>2024-03-13T13:48:00Z</time>
      </trkpt>
      <trkpt lat="44.43032" lon="1.59956">
        <ele>378</ele>
        <time>2024-03-13T13:48:01Z</time>
      </trkpt>
      <trkpt lat="44.43032" lon="1.59956">
        <ele>378</ele>
        <time>2024-03-13T13:48:02Z</time>
      </trkpt>
      <trkpt lat="44.43033" lon="1.59956">
        <ele>378</ele>
        <time>2024-03-13T13:48:03Z</time>
      </trkpt>
      <trkpt lat="44.43033" lon="1.59956">
        <ele>378</ele>
        <time>2024-03-13T13:48:04Z</time>
      </trkpt>
      <trkpt lat="44.43033" lon="1.59956">
        <ele>378</ele>
        <time>2024-03-13T13:48:05Z</time>
      </trkpt>
      <trkpt lat="44.43035" lon="1.59955">
        <ele>378</ele>
        <time>2024-03-13T13:48:06Z</time>
      </trkpt>
      <trkpt lat="44.43036" lon="1.59955">
        <ele>378</ele>
        <time>2024-03-13T13:48:07Z</time>
      </trkpt>
      <trkpt lat="44.43036" lon="1.59955">
        <ele>378</ele>
        <time>2024-03-13T13:48:08Z</time>
      </trkpt>
      <trkpt lat="44.43037" lon="1.59956">
        <ele>378</ele>
        <time>2024-03-13T13:48:09Z</time>
      </trkpt>
      <trkpt lat="44.43037" lon="1.59957">
        <ele>377</ele>
        <time>2024-03-13T13:48:10Z</time>
      </trkpt>
      <trkpt lat="44.43037" lon="1.59957">
        <ele>377</ele>
        <time>2024-03-13T13:48:11Z</time>
      </trkpt>
      <trkpt lat="44.43037" lon="1.59957">
        <ele>378</ele>
        <time>2024-03-13T13:48:12Z</time>
      </trkpt>
      <trkpt lat="44.43037" lon="1.59957">
        <ele>378</ele>
        <time>2024-03-13T13:48:13Z</time>
      </trkpt>
      <trkpt lat="44.43038" lon="1.59958">
        <ele>379</ele>
        <time>2024-03-13T13:48:14Z</time>
      </trkpt>
      <trkpt lat="44.43039" lon="1.59959">
        <ele>379</ele>
        <time>2024-03-13T13:48:15Z</time>
      </trkpt>
      <trkpt lat="44.4304" lon="1.59959">
        <ele>379</ele>
        <time>2024-03-13T13:48:16Z</time>
      </trkpt>
      <trkpt lat="44.43041" lon="1.5996">
        <ele>380</ele>
        <time>2024-03-13T13:48:17Z</time>
      </trkpt>
      <trkpt lat="44.43042" lon="1.59961">
        <ele>379</ele>
        <time>2024-03-13T13:48:18Z</time>
      </trkpt>
      <trkpt lat="44.43044" lon="1.59961">
        <ele>379</ele>
        <time>2024-03-13T13:48:19Z</time>
      </trkpt>
      <trkpt lat="44.43044" lon="1.59962">
        <ele>379</ele>
        <time>2024-03-13T13:48:20Z</time>
      </trkpt>
      <trkpt lat="44.43045" lon="1.59963">
        <ele>380</ele>
        <time>2024-03-13T13:48:21Z</time>
      </trkpt>
      <trkpt lat="44.43046" lon="1.59964">
        <ele>380</ele>
        <time>2024-03-13T13:48:22Z</time>
      </trkpt>
      <trkpt lat="44.43047" lon="1.59964">
        <ele>381</ele>
        <time>2024-03-13T13:48:23Z</time>
      </trkpt>
      <trkpt lat="44.43048" lon="1.59965">
        <ele>380</ele>
        <time>2024-03-13T13:48:24Z</time>
      </trkpt>
      <trkpt lat="44.43049" lon="1.59966">
        <ele>380</ele>
        <time>2024-03-13T13:48:25Z</time>
      </trkpt>
      <trkpt lat="44.4305" lon="1.59966">
        <ele>380</ele>
        <time>2024-03-13T13:48:26Z</time>
      </trkpt>
      <trkpt lat="44.4305" lon="1.59967">
        <ele>381</ele>
        <time>2024-03-13T13:48:27Z</time>
      </trkpt>
      <trkpt lat="44.43052" lon="1.59967">
        <ele>381</ele>
        <time>2024-03-13T13:48:28Z</time>
      </trkpt>
      <trkpt lat="44.43053" lon="1.59967">
        <ele>380</ele>
        <time>2024-03-13T13:48:29Z</time>
      </trkpt>
      <trkpt lat="44.43054" lon="1.59967">
        <ele>380</ele>
        <time>2024-03-13T13:48:30Z</time>
      </trkpt>
      <trkpt lat="44.43055" lon="1.59967">
        <ele>381</ele>
        <time>2024-03-13T13:48:31Z</time>
      </trkpt>
      <trkpt lat="44.43056" lon="1.59968">
        <ele>381</ele>
        <time>2024-03-13T13:48:32Z</time>
      </trkpt>
      <trkpt lat="44.43056" lon="1.59968">
        <ele>381</ele>
        <time>2024-03-13T13:48:33Z</time>
      </trkpt>
      <trkpt lat="44.43057" lon="1.59968">
        <ele>381</ele>
        <time>2024-03-13T13:48:34Z</time>
      </trkpt>
      <trkpt lat="44.43058" lon="1.59969">
        <ele>382</ele>
        <time>2024-03-13T13:48:35Z</time>
      </trkpt>
      <trkpt lat="44.43059" lon="1.5997">
        <ele>382</ele>
        <time>2024-03-13T13:48:36Z</time>
      </trkpt>
      <trkpt lat="44.4306" lon="1.5997">
        <ele>382</ele>
        <time>2024-03-13T13:48:37Z</time>
      </trkpt>
      <trkpt lat="44.43061" lon="1.5997">
        <ele>382</ele>
        <time>2024-03-13T13:48:38Z</time>
      </trkpt>
      <trkpt lat="44.43062" lon="1.59971">
        <ele>382</ele>
        <time>2024-03-13T13:48:39Z</time>
      </trkpt>
      <trkpt lat="44.43063" lon="1.59971">
        <ele>382</ele>
        <time>2024-03-13T13:48:40Z</time>
      </trkpt>
      <trkpt lat="44.43064" lon="1.59972">
        <ele>382</ele>
        <time>2024-03-13T13:48:41Z</time>
      </trkpt>
      <trkpt lat="44.43065" lon="1.59973">
        <ele>382</ele>
        <time>2024-03-13T13:48:42Z</time>
      </trkpt>
      <trkpt lat="44.43066" lon="1.59974">
        <ele>382</ele>
        <time>2024-03-13T13:48:43Z</time>
      </trkpt>
      <trkpt lat="44.43067" lon="1.59975">
        <ele>382</ele>
        <time>2024-03-13T13:48:44Z</time>
      </trkpt>
      <trkpt lat="44.43068" lon="1.59976">
        <ele>382</ele>
        <time>2024-03-13T13:48:45Z</time>
      </trkpt>
      <trkpt lat="44.43069" lon="1.59977">
        <ele>382</ele>
        <time>2024-03-13T13:48:46Z</time>
      </trkpt>
      <trkpt lat="44.43069" lon="1.59978">
        <ele>382</ele>
        <time>2024-03-13T13:48:47Z</time>
      </trkpt>
      <trkpt lat="44.4307" lon="1.59979">
        <ele>382</ele>
        <time>2024-03-13T13:48:48Z</time>
      </trkpt>
      <trkpt lat="44.43071" lon="1.59979">
        <ele>382</ele>
        <time>2024-03-13T13:48:49Z</time>
      </trkpt>
      <trkpt lat="44.43072" lon="1.5998">
        <ele>382</ele>
        <time>2024-03-13T13:48:50Z</time>
      </trkpt>
      <trkpt lat="44.43073" lon="1.59981">
        <ele>382</ele>
        <time>2024-03-13T13:48:51Z</time>
      </trkpt>
      <trkpt lat="44.43073" lon="1.59982">
        <ele>382</ele>
        <time>2024-03-13T13:48:52Z</time>
      </trkpt>
      <trkpt lat="44.43074" lon="1.59982">
        <ele>382</ele>
        <time>2024-03-13T13:48:53Z</time>
      </trkpt>
      <trkpt lat="44.43075" lon="1.59983">
        <ele>382</ele>
        <time>2024-03-13T13:48:54Z</time>
      </trkpt>
      <trkpt lat="44.43076" lon="1.59984">
        <ele>382</ele>
        <time>2024-03-13T13:48:55Z</time>
      </trkpt>
      <trkpt lat="44.43077" lon="1.59984">
        <ele>383</ele>
        <time>2024-03-13T13:48:56Z</time>
      </trkpt>
      <trkpt lat="44.43078" lon="1.59984">
        <ele>383</ele>
        <time>2024-03-13T13:48:57Z</time>
      </trkpt>
      <trkpt lat="44.43079" lon="1.59985">
        <ele>383</ele>
        <time>2024-03-13T13:48:58Z</time>
      </trkpt>
      <trkpt lat="44.43079" lon="1.59985">
        <ele>383</ele>
        <time>2024-03-13T13:48:59Z</time>
      </trkpt>
      <trkpt lat="44.43081" lon="1.59985">
        <ele>383</ele>
        <time>2024-03-13T13:49:00Z</time>
      </trkpt>
      <trkpt lat="44.43082" lon="1.59985">
        <ele>383</ele>
        <time>2024-03-13T13:49:01Z</time>
      </trkpt>
      <trkpt lat="44.43082" lon="1.59986">
        <ele>383</ele>
        <time>2024-03-13T13:49:02Z</time>
      </trkpt>
      <trkpt lat="44.43083" lon="1.59986">
        <ele>383</ele>
        <time>2024-03-13T13:49:03Z</time>
      </trkpt>
      <trkpt lat="44.43084" lon="1.59987">
        <ele>383</ele>
        <time>2024-03-13T13:49:04Z</time>
      </trkpt>
      <trkpt lat="44.43085" lon="1.59987">
        <ele>383</ele>
        <time>2024-03-13T13:49:05Z</time>
      </trkpt>
      <trkpt lat="44.43086" lon="1.59987">
        <ele>383</ele>
        <time>2024-03-13T13:49:06Z</time>
      </trkpt>
      <trkpt lat="44.43087" lon="1.59988">
        <ele>383</ele>
        <time>2024-03-13T13:49:07Z</time>
      </trkpt>
      <trkpt lat="44.43088" lon="1.59988">
        <ele>383</ele>
        <time>2024-03-13T13:49:08Z</time>
      </trkpt>
      <trkpt lat="44.43089" lon="1.59989">
        <ele>383</ele>
        <time>2024-03-13T13:49:09Z</time>
      </trkpt>
      <trkpt lat="44.43089" lon="1.59989">
        <ele>383</ele>
        <time>2024-03-13T13:49:10Z</time>
      </trkpt>
      <trkpt lat="44.43089" lon="1.59989">
        <ele>383</ele>
        <time>2024-03-13T13:49:11Z</time>
      </trkpt>
      <trkpt lat="44.4309" lon="1.59991">
        <ele>383</ele>
        <time>2024-03-13T13:49:12Z</time>
      </trkpt>
      <trkpt lat="44.43091" lon="1.59991">
        <ele>384</ele>
        <time>2024-03-13T13:49:13Z</time>
      </trkpt>
      <trkpt lat="44.43092" lon="1.59992">
        <ele>383</ele>
        <time>2024-03-13T13:49:14Z</time>
      </trkpt>
      <trkpt lat="44.43093" lon="1.59992">
        <ele>383</ele>
        <time>2024-03-13T13:49:15Z</time>
      </trkpt>
      <trkpt lat="44.43093" lon="1.59993">
        <ele>384</ele>
        <time>2024-03-13T13:49:16Z</time>
      </trkpt>
      <trkpt lat="44.43094" lon="1.59992">
        <ele>384</ele>
        <time>2024-03-13T13:49:17Z</time>
      </trkpt>
      <trkpt lat="44.43094" lon="1.59992">
        <ele>384</ele>
        <time>2024-03-13T13:49:18Z</time>
      </trkpt>
      <trkpt lat="44.43094" lon="1.59992">
        <ele>384</ele>
        <time>2024-03-13T13:49:19Z</time>
      </trkpt>
      <trkpt lat="44.43097" lon="1.59993">
        <ele>384</ele>
        <time>2024-03-13T13:49:20Z</time>
      </trkpt>
      <trkpt lat="44.43098" lon="1.59994">
        <ele>384</ele>
        <time>2024-03-13T13:49:21Z</time>
      </trkpt>
      <trkpt lat="44.43098" lon="1.59995">
        <ele>384</ele>
        <time>2024-03-13T13:49:22Z</time>
      </trkpt>
      <trkpt lat="44.43098" lon="1.59995">
        <ele>384</ele>
        <time>2024-03-13T13:49:23Z</time>
      </trkpt>
      <trkpt lat="44.43098" lon="1.59995">
        <ele>384</ele>
        <time>2024-03-13T13:49:24Z</time>
      </trkpt>
      <trkpt lat="44.43098" lon="1.59995">
        <ele>384</ele>
        <time>2024-03-13T13:49:25Z</time>
      </trkpt>
      <trkpt lat="44.43098" lon="1.59995">
        <ele>384</ele>
        <time>2024-03-13T13:49:26Z</time>
      </trkpt>
      <trkpt lat="44.43098" lon="1.59995">
        <ele>384</ele>
        <time>2024-03-13T13:49:27Z</time>
      </trkpt>
      <trkpt lat="44.43098" lon="1.59995">
        <ele>384</ele>
        <time>2024-03-13T13:49:28Z</time>
      </trkpt>
      <trkpt lat="44.43098" lon="1.59995">
        <ele>384</ele>
        <time>2024-03-13T13:49:29Z</time>
      </trkpt>
      <trkpt lat="44.43098" lon="1.59995">
        <ele>384</ele>
        <time>2024-03-13T13:49:30Z</time>
      </trkpt>
      <trkpt lat="44.43098" lon="1.59995">
        <ele>384</ele>
        <time>2024-03-13T13:49:31Z</time>
      </trkpt>
      <trkpt lat="44.431" lon="1.59996">
        <ele>383</ele>
        <time>2024-03-13T13:49:32Z</time>
      </trkpt>
      <trkpt lat="44.43101" lon="1.59996">
        <ele>383</ele>
        <time>2024-03-13T13:49:33Z</time>
      </trkpt>
      <trkpt lat="44.43102" lon="1.59997">
        <ele>383</ele>
        <time>2024-03-13T13:49:34Z</time>
      </trkpt>
      <trkpt lat="44.43103" lon="1.59998">
        <ele>383</ele>
        <time>2024-03-13T13:49:35Z</time>
      </trkpt>
      <trkpt lat="44.43104" lon="1.59999">
        <ele>383</ele>
        <time>2024-03-13T13:49:36Z</time>
      </trkpt>
      <trkpt lat="44.43103" lon="1.59999">
        <ele>383</ele>
        <time>2024-03-13T13:49:37Z</time>
      </trkpt>
      <trkpt lat="44.43104" lon="1.59999">
        <ele>383</ele>
        <time>2024-03-13T13:49:38Z</time>
      </trkpt>
      <trkpt lat="44.43103" lon="1.59999">
        <ele>383</ele>
        <time>2024-03-13T13:49:39Z</time>
      </trkpt>
      <trkpt lat="44.43103" lon="1.59999">
        <ele>383</ele>
        <time>2024-03-13T13:49:40Z</time>
      </trkpt>
      <trkpt lat="44.43103" lon="1.59999">
        <ele>383</ele>
        <time>2024-03-13T13:49:41Z</time>
      </trkpt>
      <trkpt lat="44.43103" lon="1.59999">
        <ele>383</ele>
        <time>2024-03-13T13:49:42Z</time>
      </trkpt>
      <trkpt lat="44.43103" lon="1.59999">
        <ele>383</ele>
        <time>2024-03-13T13:49:43Z</time>
      </trkpt>
      <trkpt lat="44.43103" lon="1.59999">
        <ele>383</ele>
        <time>2024-03-13T13:49:44Z</time>
      </trkpt>
      <trkpt lat="44.43103" lon="1.59999">
        <ele>383</ele>
        <time>2024-03-13T13:49:45Z</time>
      </trkpt>
      <trkpt lat="44.43103" lon="1.59999">
        <ele>383</ele>
        <time>2024-03-13T13:49:46Z</time>
      </trkpt>
      <trkpt lat="44.43105" lon="1.60001">
        <ele>382</ele>
        <time>2024-03-13T13:49:47Z</time>
      </trkpt>
      <trkpt lat="44.43106" lon="1.60001">
        <ele>382</ele>
        <time>2024-03-13T13:49:48Z</time>
      </trkpt>
      <trkpt lat="44.43106" lon="1.60002">
        <ele>382</ele>
        <time>2024-03-13T13:49:49Z</time>
      </trkpt>
      <trkpt lat="44.43106" lon="1.60002">
        <ele>382</ele>
        <time>2024-03-13T13:49:50Z</time>
      </trkpt>
      <trkpt lat="44.43106" lon="1.60002">
        <ele>382</ele>
        <time>2024-03-13T13:49:51Z</time>
      </trkpt>
      <trkpt lat="44.43106" lon="1.60002">
        <ele>382</ele>
        <time>2024-03-13T13:49:52Z</time>
      </trkpt>
      <trkpt lat="44.43109" lon="1.60002">
        <ele>382</ele>
        <time>2024-03-13T13:49:53Z</time>
      </trkpt>
      <trkpt lat="44.4311" lon="1.60002">
        <ele>381</ele>
        <time>2024-03-13T13:49:54Z</time>
      </trkpt>
      <trkpt lat="44.4311" lon="1.60002">
        <ele>380</ele>
        <time>2024-03-13T13:49:55Z</time>
      </trkpt>
      <trkpt lat="44.4311" lon="1.60002">
        <ele>380</ele>
        <time>2024-03-13T13:49:56Z</time>
      </trkpt>
      <trkpt lat="44.43111" lon="1.60002">
        <ele>379</ele>
        <time>2024-03-13T13:49:57Z</time>
      </trkpt>
      <trkpt lat="44.43111" lon="1.60002">
        <ele>379</ele>
        <time>2024-03-13T13:49:58Z</time>
      </trkpt>
      <trkpt lat="44.43111" lon="1.60002">
        <ele>379</ele>
        <time>2024-03-13T13:49:59Z</time>
      </trkpt>
      <trkpt lat="44.43111" lon="1.60002">
        <ele>379</ele>
        <time>2024-03-13T13:50:00Z</time>
      </trkpt>
      <trkpt lat="44.43111" lon="1.60002">
        <ele>379</ele>
        <time>2024-03-13T13:50:01Z</time>
      </trkpt>
      <trkpt lat="44.43111" lon="1.60002">
        <ele>379</ele>
        <time>2024-03-13T13:50:02Z</time>
      </trkpt>
      <trkpt lat="44.43111" lon="1.60002">
        <ele>379</ele>
        <time>2024-03-13T13:50:03Z</time>
      </trkpt>
      <trkpt lat="44.43113" lon="1.60002">
        <ele>378</ele>
        <time>2024-03-13T13:50:04Z</time>
      </trkpt>
      <trkpt lat="44.43114" lon="1.60002">
        <ele>378</ele>
        <time>2024-03-13T13:50:05Z</time>
      </trkpt>
      <trkpt lat="44.43115" lon="1.60002">
        <ele>378</ele>
        <time>2024-03-13T13:50:06Z</time>
      </trkpt>
      <trkpt lat="44.43116" lon="1.60002">
        <ele>378</ele>
        <time>2024-03-13T13:50:07Z</time>
      </trkpt>
      <trkpt lat="44.43117" lon="1.60002">
        <ele>378</ele>
        <time>2024-03-13T13:50:08Z</time>
      </trkpt>
      <trkpt lat="44.43118" lon="1.60003">
        <ele>378</ele>
        <time>2024-03-13T13:50:09Z</time>
      </trkpt>
      <trkpt lat="44.43119" lon="1.60003">
        <ele>377</ele>
        <time>2024-03-13T13:50:10Z</time>
      </trkpt>
      <trkpt lat="44.4312" lon="1.60004">
        <ele>377</ele>
        <time>2024-03-13T13:50:11Z</time>
      </trkpt>
      <trkpt lat="44.43121" lon="1.60005">
        <ele>377</ele>
        <time>2024-03-13T13:50:12Z</time>
      </trkpt>
      <trkpt lat="44.43121" lon="1.60006">
        <ele>377</ele>
        <time>2024-03-13T13:50:13Z</time>
      </trkpt>
      <trkpt lat="44.43121" lon="1.60007">
        <ele>377</ele>
        <time>2024-03-13T13:50:14Z</time>
      </trkpt>
      <trkpt lat="44.43122" lon="1.60008">
        <ele>377</ele>
        <time>2024-03-13T13:50:15Z</time>
      </trkpt>
      <trkpt lat="44.43122" lon="1.60008">
        <ele>378</ele>
        <time>2024-03-13T13:50:16Z</time>
      </trkpt>
      <trkpt lat="44.43122" lon="1.60008">
        <ele>378</ele>
        <time>2024-03-13T13:50:17Z</time>
      </trkpt>
      <trkpt lat="44.43122" lon="1.60008">
        <ele>377</ele>
        <time>2024-03-13T13:50:18Z</time>
      </trkpt>
      <trkpt lat="44.43122" lon="1.60008">
        <ele>377</ele>
        <time>2024-03-13T13:50:19Z</time>
      </trkpt>
      <trkpt lat="44.43122" lon="1.60008">
        <ele>377</ele>
        <time>2024-03-13T13:50:20Z</time>
      </trkpt>
      <trkpt lat="44.43123" lon="1.60008">
        <ele>378</ele>
        <time>2024-03-13T13:50:21Z</time>
      </trkpt>
      <trkpt lat="44.43124" lon="1.60009">
        <ele>378</ele>
        <time>2024-03-13T13:50:22Z</time>
      </trkpt>
      <trkpt lat="44.43125" lon="1.60009">
        <ele>378</ele>
        <time>2024-03-13T13:50:23Z</time>
      </trkpt>
      <trkpt lat="44.43126" lon="1.60009">
        <ele>378</ele>
        <time>2024-03-13T13:50:24Z</time>
      </trkpt>
      <trkpt lat="44.43127" lon="1.6001">
        <ele>378</ele>
        <time>2024-03-13T13:50:25Z</time>
      </trkpt>
      <trkpt lat="44.43128" lon="1.6001">
        <ele>378</ele>
        <time>2024-03-13T13:50:26Z</time>
      </trkpt>
      <trkpt lat="44.43129" lon="1.6001">
        <ele>378</ele>
        <time>2024-03-13T13:50:27Z</time>
      </trkpt>
      <trkpt lat="44.4313" lon="1.6001">
        <ele>378</ele>
        <time>2024-03-13T13:50:28Z</time>
      </trkpt>
      <trkpt lat="44.43131" lon="1.6001">
        <ele>378</ele>
        <time>2024-03-13T13:50:29Z</time>
      </trkpt>
      <trkpt lat="44.43132" lon="1.6001">
        <ele>378</ele>
        <time>2024-03-13T13:50:30Z</time>
      </trkpt>
      <trkpt lat="44.43133" lon="1.6001">
        <ele>377</ele>
        <time>2024-03-13T13:50:31Z</time>
      </trkpt>
      <trkpt lat="44.43134" lon="1.6001">
        <ele>377</ele>
        <time>2024-03-13T13:50:32Z</time>
      </trkpt>
      <trkpt lat="44.43135" lon="1.6001">
        <ele>377</ele>
        <time>2024-03-13T13:50:33Z</time>
      </trkpt>
      <trkpt lat="44.43136" lon="1.60011">
        <ele>377</ele>
        <time>2024-03-13T13:50:34Z</time>
      </trkpt>
      <trkpt lat="44.43137" lon="1.60011">
        <ele>377</ele>
        <time>2024-03-13T13:50:35Z</time>
      </trkpt>
      <trkpt lat="44.43137" lon="1.60011">
        <ele>378</ele>
        <time>2024-03-13T13:50:36Z</time>
      </trkpt>
      <trkpt lat="44.43139" lon="1.60011">
        <ele>377</ele>
        <time>2024-03-13T13:50:37Z</time>
      </trkpt>
      <trkpt lat="44.43139" lon="1.60011">
        <ele>377</ele>
        <time>2024-03-13T13:50:38Z</time>
      </trkpt>
      <trkpt lat="44.43141" lon="1.60011">
        <ele>377</ele>
        <time>2024-03-13T13:50:39Z</time>
      </trkpt>
      <trkpt lat="44.43142" lon="1.60012">
        <ele>377</ele>
        <time>2024-03-13T13:50:40Z</time>
      </trkpt>
      <trkpt lat="44.43143" lon="1.60012">
        <ele>377</ele>
        <time>2024-03-13T13:50:41Z</time>
      </trkpt>
      <trkpt lat="44.43144" lon="1.60012">
        <ele>377</ele>
        <time>2024-03-13T13:50:42Z</time>
      </trkpt>
      <trkpt lat="44.43145" lon="1.60012">
        <ele>378</ele>
        <time>2024-03-13T13:50:43Z</time>
      </trkpt>
      <trkpt lat="44.43146" lon="1.60012">
        <ele>378</ele>
        <time>2024-03-13T13:50:44Z</time>
      </trkpt>
      <trkpt lat="44.43147" lon="1.60012">
        <ele>378</ele>
        <time>2024-03-13T13:50:45Z</time>
      </trkpt>
      <trkpt lat="44.43148" lon="1.60013">
        <ele>378</ele>
        <time>2024-03-13T13:50:46Z</time>
      </trkpt>
      <trkpt lat="44.43149" lon="1.60013">
        <ele>378</ele>
        <time>2024-03-13T13:50:47Z</time>
      </trkpt>
      <trkpt lat="44.4315" lon="1.60014">
        <ele>379</ele>
        <time>2024-03-13T13:50:48Z</time>
      </trkpt>
      <trkpt lat="44.43151" lon="1.60014">
        <ele>378</ele>
        <time>2024-03-13T13:50:49Z</time>
      </trkpt>
      <trkpt lat="44.43152" lon="1.60014">
        <ele>378</ele>
        <time>2024-03-13T13:50:50Z</time>
      </trkpt>
      <trkpt lat="44.43153" lon="1.60013">
        <ele>379</ele>
        <time>2024-03-13T13:50:51Z</time>
      </trkpt>
      <trkpt lat="44.43154" lon="1.60013">
        <ele>379</ele>
        <time>2024-03-13T13:50:52Z</time>
      </trkpt>
      <trkpt lat="44.43156" lon="1.60012">
        <ele>379</ele>
        <time>2024-03-13T13:50:53Z</time>
      </trkpt>
      <trkpt lat="44.43157" lon="1.60012">
        <ele>379</ele>
        <time>2024-03-13T13:50:54Z</time>
      </trkpt>
      <trkpt lat="44.43158" lon="1.60012">
        <ele>379</ele>
        <time>2024-03-13T13:50:55Z</time>
      </trkpt>
      <trkpt lat="44.43159" lon="1.60012">
        <ele>379</ele>
        <time>2024-03-13T13:50:56Z</time>
      </trkpt>
      <trkpt lat="44.43161" lon="1.60012">
        <ele>380</ele>
        <time>2024-03-13T13:50:57Z</time>
      </trkpt>
      <trkpt lat="44.43162" lon="1.60012">
        <ele>379</ele>
        <time>2024-03-13T13:50:58Z</time>
      </trkpt>
      <trkpt lat="44.43163" lon="1.60011">
        <ele>379</ele>
        <time>2024-03-13T13:50:59Z</time>
      </trkpt>
      <trkpt lat="44.43164" lon="1.60011">
        <ele>379</ele>
        <time>2024-03-13T13:51:00Z</time>
      </trkpt>
      <trkpt lat="44.43166" lon="1.60011">
        <ele>379</ele>
        <time>2024-03-13T13:51:01Z</time>
      </trkpt>
      <trkpt lat="44.43167" lon="1.6001">
        <ele>379</ele>
        <time>2024-03-13T13:51:02Z</time>
      </trkpt>
      <trkpt lat="44.43168" lon="1.6001">
        <ele>379</ele>
        <time>2024-03-13T13:51:03Z</time>
      </trkpt>
      <trkpt lat="44.4317" lon="1.6001">
        <ele>379</ele>
        <time>2024-03-13T13:51:04Z</time>
      </trkpt>
      <trkpt lat="44.43171" lon="1.6001">
        <ele>379</ele>
        <time>2024-03-13T13:51:05Z</time>
      </trkpt>
      <trkpt lat="44.43172" lon="1.6001">
        <ele>378</ele>
        <time>2024-03-13T13:51:06Z</time>
      </trkpt>
      <trkpt lat="44.43173" lon="1.60011">
        <ele>378</ele>
        <time>2024-03-13T13:51:07Z</time>
      </trkpt>
      <trkpt lat="44.43174" lon="1.60012">
        <ele>378</ele>
        <time>2024-03-13T13:51:08Z</time>
      </trkpt>
      <trkpt lat="44.43175" lon="1.60012">
        <ele>378</ele>
        <time>2024-03-13T13:51:09Z</time>
      </trkpt>
      <trkpt lat="44.43176" lon="1.60012">
        <ele>379</ele>
        <time>2024-03-13T13:51:10Z</time>
      </trkpt>
      <trkpt lat="44.43177" lon="1.60013">
        <ele>379</ele>
        <time>2024-03-13T13:51:11Z</time>
      </trkpt>
      <trkpt lat="44.43178" lon="1.60013">
        <ele>379</ele>
        <time>2024-03-13T13:51:12Z</time>
      </trkpt>
      <trkpt lat="44.43179" lon="1.60013">
        <ele>379</ele>
        <time>2024-03-13T13:51:13Z</time>
      </trkpt>
      <trkpt lat="44.4318" lon="1.60013">
        <ele>379</ele>
        <time>2024-03-13T13:51:14Z</time>
      </trkpt>
      <trkpt lat="44.43182" lon="1.60013">
        <ele>379</ele>
        <time>2024-03-13T13:51:15Z</time>
      </trkpt>
      <trkpt lat="44.43183" lon="1.60013">
        <ele>379</ele>
        <time>2024-03-13T13:51:16Z</time>
      </trkpt>
      <trkpt lat="44.43184" lon="1.60014">
        <ele>379</ele>
        <time>2024-03-13T13:51:17Z</time>
      </trkpt>
      <trkpt lat="44.43186" lon="1.60014">
        <ele>379</ele>
        <time>2024-03-13T13:51:18Z</time>
      </trkpt>
      <trkpt lat="44.43187" lon="1.60014">
        <ele>379</ele>
        <time>2024-03-13T13:51:19Z</time>
      </trkpt>
      <trkpt lat="44.43188" lon="1.60015">
        <ele>379</ele>
        <time>2024-03-13T13:51:20Z</time>
      </trkpt>
      <trkpt lat="44.43189" lon="1.60016">
        <ele>379</ele>
        <time>2024-03-13T13:51:21Z</time>
      </trkpt>
      <trkpt lat="44.4319" lon="1.60016">
        <ele>379</ele>
        <time>2024-03-13T13:51:22Z</time>
      </trkpt>
      <trkpt lat="44.43191" lon="1.60017">
        <ele>379</ele>
        <time>2024-03-13T13:51:23Z</time>
      </trkpt>
      <trkpt lat="44.43192" lon="1.60017">
        <ele>379</ele>
        <time>2024-03-13T13:51:24Z</time>
      </trkpt>
      <trkpt lat="44.43193" lon="1.60018">
        <ele>379</ele>
        <time>2024-03-13T13:51:25Z</time>
      </trkpt>
      <trkpt lat="44.43193" lon="1.60018">
        <ele>379</ele>
        <time>2024-03-13T13:51:26Z</time>
      </trkpt>
      <trkpt lat="44.43195" lon="1.60018">
        <ele>379</ele>
        <time>2024-03-13T13:51:27Z</time>
      </trkpt>
      <trkpt lat="44.43196" lon="1.60019">
        <ele>379</ele>
        <time>2024-03-13T13:51:28Z</time>
      </trkpt>
      <trkpt lat="44.43196" lon="1.60019">
        <ele>379</ele>
        <time>2024-03-13T13:51:29Z</time>
      </trkpt>
      <trkpt lat="44.43197" lon="1.6002">
        <ele>379</ele>
        <time>2024-03-13T13:51:30Z</time>
      </trkpt>
      <trkpt lat="44.43198" lon="1.60021">
        <ele>379</ele>
        <time>2024-03-13T13:51:31Z</time>
      </trkpt>
      <trkpt lat="44.43199" lon="1.60022">
        <ele>380</ele>
        <time>2024-03-13T13:51:32Z</time>
      </trkpt>
      <trkpt lat="44.432" lon="1.60022">
        <ele>380</ele>
        <time>2024-03-13T13:51:33Z</time>
      </trkpt>
      <trkpt lat="44.432" lon="1.60023">
        <ele>380</ele>
        <time>2024-03-13T13:51:34Z</time>
      </trkpt>
      <trkpt lat="44.43201" lon="1.60024">
        <ele>380</ele>
        <time>2024-03-13T13:51:35Z</time>
      </trkpt>
      <trkpt lat="44.43201" lon="1.60025">
        <ele>380</ele>
        <time>2024-03-13T13:51:36Z</time>
      </trkpt>
      <trkpt lat="44.43202" lon="1.60026">
        <ele>380</ele>
        <time>2024-03-13T13:51:37Z</time>
      </trkpt>
      <trkpt lat="44.43203" lon="1.60027">
        <ele>381</ele>
        <time>2024-03-13T13:51:38Z</time>
      </trkpt>
      <trkpt lat="44.43203" lon="1.60028">
        <ele>381</ele>
        <time>2024-03-13T13:51:39Z</time>
      </trkpt>
      <trkpt lat="44.43204" lon="1.6003">
        <ele>381</ele>
        <time>2024-03-13T13:51:40Z</time>
      </trkpt>
      <trkpt lat="44.43204" lon="1.60031">
        <ele>381</ele>
        <time>2024-03-13T13:51:41Z</time>
      </trkpt>
      <trkpt lat="44.43205" lon="1.60032">
        <ele>381</ele>
        <time>2024-03-13T13:51:42Z</time>
      </trkpt>
      <trkpt lat="44.43206" lon="1.60033">
        <ele>381</ele>
        <time>2024-03-13T13:51:43Z</time>
      </trkpt>
      <trkpt lat="44.43207" lon="1.60034">
        <ele>381</ele>
        <time>2024-03-13T13:51:44Z</time>
      </trkpt>
      <trkpt lat="44.43208" lon="1.60036">
        <ele>381</ele>
        <time>2024-03-13T13:51:45Z</time>
      </trkpt>
      <trkpt lat="44.43208" lon="1.60036">
        <ele>381</ele>
        <time>2024-03-13T13:51:46Z</time>
      </trkpt>
      <trkpt lat="44.43209" lon="1.60038">
        <ele>381</ele>
        <time>2024-03-13T13:51:47Z</time>
      </trkpt>
      <trkpt lat="44.43209" lon="1.60039">
        <ele>382</ele>
        <time>2024-03-13T13:51:48Z</time>
      </trkpt>
      <trkpt lat="44.4321" lon="1.6004">
        <ele>382</ele>
        <time>2024-03-13T13:51:49Z</time>
      </trkpt>
      <trkpt lat="44.43211" lon="1.60041">
        <ele>382</ele>
        <time>2024-03-13T13:51:50Z</time>
      </trkpt>
      <trkpt lat="44.43211" lon="1.60042">
        <ele>382</ele>
        <time>2024-03-13T13:51:51Z</time>
      </trkpt>
      <trkpt lat="44.43212" lon="1.60042">
        <ele>382</ele>
        <time>2024-03-13T13:51:52Z</time>
      </trkpt>
      <trkpt lat="44.43213" lon="1.60044">
        <ele>382</ele>
        <time>2024-03-13T13:51:53Z</time>
      </trkpt>
      <trkpt lat="44.43213" lon="1.60045">
        <ele>382</ele>
        <time>2024-03-13T13:51:54Z</time>
      </trkpt>
      <trkpt lat="44.43214" lon="1.60046">
        <ele>382</ele>
        <time>2024-03-13T13:51:55Z</time>
      </trkpt>
      <trkpt lat="44.43214" lon="1.60046">
        <ele>382</ele>
        <time>2024-03-13T13:51:56Z</time>
      </trkpt>
      <trkpt lat="44.43214" lon="1.60046">
        <ele>382</ele>
        <time>2024-03-13T13:51:57Z</time>
      </trkpt>
      <trkpt lat="44.43216" lon="1.60046">
        <ele>382</ele>
        <time>2024-03-13T13:51:58Z</time>
      </trkpt>
      <trkpt lat="44.43216" lon="1.60047">
        <ele>382</ele>
        <time>2024-03-13T13:51:59Z</time>
      </trkpt>
      <trkpt lat="44.43217" lon="1.60047">
        <ele>382</ele>
        <time>2024-03-13T13:52:00Z</time>
      </trkpt>
      <trkpt lat="44.43217" lon="1.60049">
        <ele>382</ele>
        <time>2024-03-13T13:52:01Z</time>
      </trkpt>
      <trkpt lat="44.43217" lon="1.6005">
        <ele>381</ele>
        <time>2024-03-13T13:52:02Z</time>
      </trkpt>
      <trkpt lat="44.43217" lon="1.6005">
        <ele>381</ele>
        <time>2024-03-13T13:52:03Z</time>
      </trkpt>
      <trkpt lat="44.43217" lon="1.60052">
        <ele>381</ele>
        <time>2024-03-13T13:52:04Z</time>
      </trkpt>
      <trkpt lat="44.43218" lon="1.60053">
        <ele>381</ele>
        <time>2024-03-13T13:52:05Z</time>
      </trkpt>
      <trkpt lat="44.43218" lon="1.60054">
        <ele>381</ele>
        <time>2024-03-13T13:52:06Z</time>
      </trkpt>
      <trkpt lat="44.43219" lon="1.60055">
        <ele>381</ele>
        <time>2024-03-13T13:52:07Z</time>
      </trkpt>
      <trkpt lat="44.43219" lon="1.60056">
        <ele>381</ele>
        <time>2024-03-13T13:52:08Z</time>
      </trkpt>
      <trkpt lat="44.4322" lon="1.60058">
        <ele>381</ele>
        <time>2024-03-13T13:52:09Z</time>
      </trkpt>
      <trkpt lat="44.43221" lon="1.6006">
        <ele>382</ele>
        <time>2024-03-13T13:52:10Z</time>
      </trkpt>
      <trkpt lat="44.43221" lon="1.60061">
        <ele>382</ele>
        <time>2024-03-13T13:52:11Z</time>
      </trkpt>
      <trkpt lat="44.43222" lon="1.60062">
        <ele>381</ele>
        <time>2024-03-13T13:52:12Z</time>
      </trkpt>
      <trkpt lat="44.43223" lon="1.60064">
        <ele>381</ele>
        <time>2024-03-13T13:52:13Z</time>
      </trkpt>
      <trkpt lat="44.43224" lon="1.60065">
        <ele>381</ele>
        <time>2024-03-13T13:52:14Z</time>
      </trkpt>
      <trkpt lat="44.43225" lon="1.60066">
        <ele>381</ele>
        <time>2024-03-13T13:52:15Z</time>
      </trkpt>
      <trkpt lat="44.43226" lon="1.60066">
        <ele>380</ele>
        <time>2024-03-13T13:52:16Z</time>
      </trkpt>
      <trkpt lat="44.43227" lon="1.60067">
        <ele>380</ele>
        <time>2024-03-13T13:52:17Z</time>
      </trkpt>
      <trkpt lat="44.43228" lon="1.60069">
        <ele>380</ele>
        <time>2024-03-13T13:52:18Z</time>
      </trkpt>
      <trkpt lat="44.43229" lon="1.6007">
        <ele>380</ele>
        <time>2024-03-13T13:52:19Z</time>
      </trkpt>
      <trkpt lat="44.43229" lon="1.6007">
        <ele>380</ele>
        <time>2024-03-13T13:52:20Z</time>
      </trkpt>
      <trkpt lat="44.4323" lon="1.60071">
        <ele>380</ele>
        <time>2024-03-13T13:52:21Z</time>
      </trkpt>
      <trkpt lat="44.43231" lon="1.60073">
        <ele>380</ele>
        <time>2024-03-13T13:52:22Z</time>
      </trkpt>
      <trkpt lat="44.43232" lon="1.60074">
        <ele>380</ele>
        <time>2024-03-13T13:52:23Z</time>
      </trkpt>
      <trkpt lat="44.43233" lon="1.60075">
        <ele>381</ele>
        <time>2024-03-13T13:52:24Z</time>
      </trkpt>
      <trkpt lat="44.43233" lon="1.60076">
        <ele>381</ele>
        <time>2024-03-13T13:52:25Z</time>
      </trkpt>
      <trkpt lat="44.43233" lon="1.60077">
        <ele>381</ele>
        <time>2024-03-13T13:52:26Z</time>
      </trkpt>
      <trkpt lat="44.43233" lon="1.60077">
        <ele>381</ele>
        <time>2024-03-13T13:52:27Z</time>
      </trkpt>
      <trkpt lat="44.43233" lon="1.60076">
        <ele>381</ele>
        <time>2024-03-13T13:52:28Z</time>
      </trkpt>
      <trkpt lat="44.43233" lon="1.60076">
        <ele>381</ele>
        <time>2024-03-13T13:52:29Z</time>
      </trkpt>
      <trkpt lat="44.43233" lon="1.60076">
        <ele>381</ele>
        <time>2024-03-13T13:52:30Z</time>
      </trkpt>
      <trkpt lat="44.43233" lon="1.60076">
        <ele>381</ele>
        <time>2024-03-13T13:52:31Z</time>
      </trkpt>
      <trkpt lat="44.43233" lon="1.60076">
        <ele>381</ele>
        <time>2024-03-13T13:52:32Z</time>
      </trkpt>
      <trkpt lat="44.43233" lon="1.60076">
        <ele>381</ele>
        <time>2024-03-13T13:52:33Z</time>
      </trkpt>
      <trkpt lat="44.43233" lon="1.60076">
        <ele>381</ele>
        <time>2024-03-13T13:52:34Z</time>
      </trkpt>
      <trkpt lat="44.43233" lon="1.60076">
        <ele>381</ele>
        <time>2024-03-13T13:52:35Z</time>
      </trkpt>
      <trkpt lat="44.43233" lon="1.60076">
        <ele>381</ele>
        <time>2024-03-13T13:52:36Z</time>
      </trkpt>
      <trkpt lat="44.43233" lon="1.60076">
        <ele>381</ele>
        <time>2024-03-13T13:52:37Z</time>
      </trkpt>
      <trkpt lat="44.43234" lon="1.60077">
        <ele>381</ele>
        <time>2024-03-13T13:52:38Z</time>
      </trkpt>
      <trkpt lat="44.43235" lon="1.60078">
        <ele>381</ele>
        <time>2024-03-13T13:52:39Z</time>
      </trkpt>
      <trkpt lat="44.43235" lon="1.60079">
        <ele>381</ele>
        <time>2024-03-13T13:52:40Z</time>
      </trkpt>
      <trkpt lat="44.43236" lon="1.6008">
        <ele>382</ele>
        <time>2024-03-13T13:52:41Z</time>
      </trkpt>
      <trkpt lat="44.43237" lon="1.60081">
        <ele>382</ele>
        <time>2024-03-13T13:52:42Z</time>
      </trkpt>
      <trkpt lat="44.43237" lon="1.60082">
        <ele>381</ele>
        <time>2024-03-13T13:52:43Z</time>
      </trkpt>
      <trkpt lat="44.43238" lon="1.60083">
        <ele>381</ele>
        <time>2024-03-13T13:52:44Z</time>
      </trkpt>
      <trkpt lat="44.43238" lon="1.60083">
        <ele>381</ele>
        <time>2024-03-13T13:52:45Z</time>
      </trkpt>
      <trkpt lat="44.43239" lon="1.60084">
        <ele>381</ele>
        <time>2024-03-13T13:52:46Z</time>
      </trkpt>
      <trkpt lat="44.4324" lon="1.60085">
        <ele>381</ele>
        <time>2024-03-13T13:52:47Z</time>
      </trkpt>
      <trkpt lat="44.4324" lon="1.60086">
        <ele>381</ele>
        <time>2024-03-13T13:52:48Z</time>
      </trkpt>
      <trkpt lat="44.43241" lon="1.60087">
        <ele>381</ele>
        <time>2024-03-13T13:52:49Z</time>
      </trkpt>
      <trkpt lat="44.43242" lon="1.60087">
        <ele>381</ele>
        <time>2024-03-13T13:52:50Z</time>
      </trkpt>
      <trkpt lat="44.43242" lon="1.60088">
        <ele>381</ele>
        <time>2024-03-13T13:52:51Z</time>
      </trkpt>
      <trkpt lat="44.43243" lon="1.60089">
        <ele>381</ele>
        <time>2024-03-13T13:52:52Z</time>
      </trkpt>
      <trkpt lat="44.43243" lon="1.6009">
        <ele>381</ele>
        <time>2024-03-13T13:52:53Z</time>
      </trkpt>
      <trkpt lat="44.43243" lon="1.60091">
        <ele>381</ele>
        <time>2024-03-13T13:52:54Z</time>
      </trkpt>
      <trkpt lat="44.43244" lon="1.60092">
        <ele>381</ele>
        <time>2024-03-13T13:52:55Z</time>
      </trkpt>
      <trkpt lat="44.43245" lon="1.60092">
        <ele>381</ele>
        <time>2024-03-13T13:52:56Z</time>
      </trkpt>
      <trkpt lat="44.43245" lon="1.60093">
        <ele>381</ele>
        <time>2024-03-13T13:52:57Z</time>
      </trkpt>
      <trkpt lat="44.43245" lon="1.60094">
        <ele>381</ele>
        <time>2024-03-13T13:52:58Z</time>
      </trkpt>
      <trkpt lat="44.43245" lon="1.60095">
        <ele>381</ele>
        <time>2024-03-13T13:52:59Z</time>
      </trkpt>
      <trkpt lat="44.43245" lon="1.60095">
        <ele>381</ele>
        <time>2024-03-13T13:53:00Z</time>
      </trkpt>
      <trkpt lat="44.43245" lon="1.60095">
        <ele>381</ele>
        <time>2024-03-13T13:53:01Z</time>
      </trkpt>
      <trkpt lat="44.43245" lon="1.60095">
        <ele>381</ele>
        <time>2024-03-13T13:53:02Z</time>
      </trkpt>
      <trkpt lat="44.43245" lon="1.60095">
        <ele>381</ele>
        <time>2024-03-13T13:53:03Z</time>
      </trkpt>
      <trkpt lat="44.43245" lon="1.60095">
        <ele>381</ele>
        <time>2024-03-13T13:53:04Z</time>
      </trkpt>
      <trkpt lat="44.43245" lon="1.60095">
        <ele>381</ele>
        <time>2024-03-13T13:53:05Z</time>
      </trkpt>
      <trkpt lat="44.43245" lon="1.60095">
        <ele>381</ele>
        <time>2024-03-13T13:53:06Z</time>
      </trkpt>
      <trkpt lat="44.43246" lon="1.60096">
        <ele>381</ele>
        <time>2024-03-13T13:53:07Z</time>
      </trkpt>
      <trkpt lat="44.43246" lon="1.60096">
        <ele>381</ele>
        <time>2024-03-13T13:53:08Z</time>
      </trkpt>
      <trkpt lat="44.43246" lon="1.60097">
        <ele>380</ele>
        <time>2024-03-13T13:53:09Z</time>
      </trkpt>
      <trkpt lat="44.43246" lon="1.60097">
        <ele>380</ele>
        <time>2024-03-13T13:53:10Z</time>
      </trkpt>
      <trkpt lat="44.43246" lon="1.60098">
        <ele>381</ele>
        <time>2024-03-13T13:53:11Z</time>
      </trkpt>
      <trkpt lat="44.43246" lon="1.60098">
        <ele>381</ele>
        <time>2024-03-13T13:53:12Z</time>
      </trkpt>
      <trkpt lat="44.43246" lon="1.60099">
        <ele>381</ele>
        <time>2024-03-13T13:53:13Z</time>
      </trkpt>
      <trkpt lat="44.43246" lon="1.601">
        <ele>380</ele>
        <time>2024-03-13T13:53:14Z</time>
      </trkpt>
      <trkpt lat="44.43246" lon="1.601">
        <ele>380</ele>
        <time>2024-03-13T13:53:15Z</time>
      </trkpt>
      <trkpt lat="44.43247" lon="1.60101">
        <ele>380</ele>
        <time>2024-03-13T13:53:16Z</time>
      </trkpt>
      <trkpt lat="44.43248" lon="1.60102">
        <ele>380</ele>
        <time>2024-03-13T13:53:17Z</time>
      </trkpt>
      <trkpt lat="44.43248" lon="1.60103">
        <ele>380</ele>
        <time>2024-03-13T13:53:18Z</time>
      </trkpt>
      <trkpt lat="44.43249" lon="1.60105">
        <ele>380</ele>
        <time>2024-03-13T13:53:19Z</time>
      </trkpt>
      <trkpt lat="44.43249" lon="1.60105">
        <ele>379</ele>
        <time>2024-03-13T13:53:20Z</time>
      </trkpt>
      <trkpt lat="44.43249" lon="1.60106">
        <ele>379</ele>
        <time>2024-03-13T13:53:21Z</time>
      </trkpt>
      <trkpt lat="44.4325" lon="1.60106">
        <ele>379</ele>
        <time>2024-03-13T13:53:22Z</time>
      </trkpt>
      <trkpt lat="44.4325" lon="1.60106">
        <ele>379</ele>
        <time>2024-03-13T13:53:23Z</time>
      </trkpt>
      <trkpt lat="44.4325" lon="1.60106">
        <ele>379</ele>
        <time>2024-03-13T13:53:24Z</time>
      </trkpt>
      <trkpt lat="44.4325" lon="1.60106">
        <ele>379</ele>
        <time>2024-03-13T13:53:25Z</time>
      </trkpt>
      <trkpt lat="44.4325" lon="1.60106">
        <ele>379</ele>
        <time>2024-03-13T13:53:26Z</time>
      </trkpt>
      <trkpt lat="44.4325" lon="1.60106">
        <ele>379</ele>
        <time>2024-03-13T13:53:27Z</time>
      </trkpt>
      <trkpt lat="44.4325" lon="1.60106">
        <ele>379</ele>
        <time>2024-03-13T13:53:28Z</time>
      </trkpt>
      <trkpt lat="44.4325" lon="1.60106">
        <ele>379</ele>
        <time>2024-03-13T13:53:29Z</time>
      </trkpt>
      <trkpt lat="44.4325" lon="1.60106">
        <ele>379</ele>
        <time>2024-03-13T13:53:30Z</time>
      </trkpt>
      <trkpt lat="44.4325" lon="1.60106">
        <ele>379</ele>
        <time>2024-03-13T13:53:31Z</time>
      </trkpt>
      <trkpt lat="44.43251" lon="1.60107">
        <ele>379</ele>
        <time>2024-03-13T13:53:32Z</time>
      </trkpt>
      <trkpt lat="44.43252" lon="1.60108">
        <ele>379</ele>
        <time>2024-03-13T13:53:33Z</time>
      </trkpt>
      <trkpt lat="44.43253" lon="1.60109">
        <ele>379</ele>
        <time>2024-03-13T13:53:34Z</time>
      </trkpt>
      <trkpt lat="44.43254" lon="1.60109">
        <ele>379</ele>
        <time>2024-03-13T13:53:35Z</time>
      </trkpt>
      <trkpt lat="44.43254" lon="1.6011">
        <ele>380</ele>
        <time>2024-03-13T13:53:36Z</time>
      </trkpt>
      <trkpt lat="44.43256" lon="1.60111">
        <ele>379</ele>
        <time>2024-03-13T13:53:37Z</time>
      </trkpt>
      <trkpt lat="44.43256" lon="1.60112">
        <ele>379</ele>
        <time>2024-03-13T13:53:38Z</time>
      </trkpt>
      <trkpt lat="44.43257" lon="1.60113">
        <ele>379</ele>
        <time>2024-03-13T13:53:39Z</time>
      </trkpt>
      <trkpt lat="44.43258" lon="1.60114">
        <ele>379</ele>
        <time>2024-03-13T13:53:40Z</time>
      </trkpt>
      <trkpt lat="44.43258" lon="1.60115">
        <ele>379</ele>
        <time>2024-03-13T13:53:41Z</time>
      </trkpt>
      <trkpt lat="44.43259" lon="1.60116">
        <ele>379</ele>
        <time>2024-03-13T13:53:42Z</time>
      </trkpt>
      <trkpt lat="44.43259" lon="1.60117">
        <ele>379</ele>
        <time>2024-03-13T13:53:43Z</time>
      </trkpt>
      <trkpt lat="44.43259" lon="1.60117">
        <ele>379</ele>
        <time>2024-03-13T13:53:44Z</time>
      </trkpt>
      <trkpt lat="44.4326" lon="1.60118">
        <ele>379</ele>
        <time>2024-03-13T13:53:45Z</time>
      </trkpt>
      <trkpt lat="44.43261" lon="1.60119">
        <ele>379</ele>
        <time>2024-03-13T13:53:46Z</time>
      </trkpt>
      <trkpt lat="44.43261" lon="1.6012">
        <ele>380</ele>
        <time>2024-03-13T13:53:47Z</time>
      </trkpt>
      <trkpt lat="44.43262" lon="1.60121">
        <ele>379</ele>
        <time>2024-03-13T13:53:48Z</time>
      </trkpt>
      <trkpt lat="44.43263" lon="1.60122">
        <ele>379</ele>
        <time>2024-03-13T13:53:49Z</time>
      </trkpt>
      <trkpt lat="44.43264" lon="1.60123">
        <ele>379</ele>
        <time>2024-03-13T13:53:50Z</time>
      </trkpt>
      <trkpt lat="44.43264" lon="1.60124">
        <ele>379</ele>
        <time>2024-03-13T13:53:51Z</time>
      </trkpt>
      <trkpt lat="44.43265" lon="1.60125">
        <ele>379</ele>
        <time>2024-03-13T13:53:52Z</time>
      </trkpt>
      <trkpt lat="44.43266" lon="1.60125">
        <ele>379</ele>
        <time>2024-03-13T13:53:53Z</time>
      </trkpt>
      <trkpt lat="44.43266" lon="1.60126">
        <ele>379</ele>
        <time>2024-03-13T13:53:54Z</time>
      </trkpt>
      <trkpt lat="44.43267" lon="1.60127">
        <ele>379</ele>
        <time>2024-03-13T13:53:55Z</time>
      </trkpt>
      <trkpt lat="44.43268" lon="1.60128">
        <ele>379</ele>
        <time>2024-03-13T13:53:56Z</time>
      </trkpt>
      <trkpt lat="44.43268" lon="1.60129">
        <ele>379</ele>
        <time>2024-03-13T13:53:57Z</time>
      </trkpt>
      <trkpt lat="44.43269" lon="1.6013">
        <ele>379</ele>
        <time>2024-03-13T13:53:58Z</time>
      </trkpt>
      <trkpt lat="44.4327" lon="1.60131">
        <ele>379</ele>
        <time>2024-03-13T13:53:59Z</time>
      </trkpt>
      <trkpt lat="44.43271" lon="1.60132">
        <ele>379</ele>
        <time>2024-03-13T13:54:00Z</time>
      </trkpt>
      <trkpt lat="44.43272" lon="1.60133">
        <ele>379</ele>
        <time>2024-03-13T13:54:01Z</time>
      </trkpt>
      <trkpt lat="44.43273" lon="1.60134">
        <ele>379</ele>
        <time>2024-03-13T13:54:02Z</time>
      </trkpt>
      <trkpt lat="44.43274" lon="1.60135">
        <ele>379</ele>
        <time>2024-03-13T13:54:03Z</time>
      </trkpt>
      <trkpt lat="44.43275" lon="1.60136">
        <ele>380</ele>
        <time>2024-03-13T13:54:04Z</time>
      </trkpt>
      <trkpt lat="44.43275" lon="1.60137">
        <ele>380</ele>
        <time>2024-03-13T13:54:05Z</time>
      </trkpt>
      <trkpt lat="44.43277" lon="1.60138">
        <ele>380</ele>
        <time>2024-03-13T13:54:06Z</time>
      </trkpt>
      <trkpt lat="44.43278" lon="1.6014">
        <ele>380</ele>
        <time>2024-03-13T13:54:07Z</time>
      </trkpt>
      <trkpt lat="44.43279" lon="1.60141">
        <ele>379</ele>
        <time>2024-03-13T13:54:08Z</time>
      </trkpt>
      <trkpt lat="44.4328" lon="1.60142">
        <ele>379</ele>
        <time>2024-03-13T13:54:09Z</time>
      </trkpt>
      <trkpt lat="44.43281" lon="1.60143">
        <ele>379</ele>
        <time>2024-03-13T13:54:10Z</time>
      </trkpt>
      <trkpt lat="44.43282" lon="1.60143">
        <ele>379</ele>
        <time>2024-03-13T13:54:11Z</time>
      </trkpt>
      <trkpt lat="44.43283" lon="1.60144">
        <ele>379</ele>
        <time>2024-03-13T13:54:12Z</time>
      </trkpt>
      <trkpt lat="44.43284" lon="1.60145">
        <ele>379</ele>
        <time>2024-03-13T13:54:13Z</time>
      </trkpt>
      <trkpt lat="44.43285" lon="1.60146">
        <ele>379</ele>
        <time>2024-03-13T13:54:14Z</time>
      </trkpt>
      <trkpt lat="44.43285" lon="1.60147">
        <ele>379</ele>
        <time>2024-03-13T13:54:15Z</time>
      </trkpt>
      <trkpt lat="44.43287" lon="1.60148">
        <ele>379</ele>
        <time>2024-03-13T13:54:16Z</time>
      </trkpt>
      <trkpt lat="44.43288" lon="1.60149">
        <ele>379</ele>
        <time>2024-03-13T13:54:17Z</time>
      </trkpt>
      <trkpt lat="44.43288" lon="1.6015">
        <ele>379</ele>
        <time>2024-03-13T13:54:18Z</time>
      </trkpt>
      <trkpt lat="44.4329" lon="1.60151">
        <ele>379</ele>
        <time>2024-03-13T13:54:19Z</time>
      </trkpt>
      <trkpt lat="44.43291" lon="1.60153">
        <ele>379</ele>
        <time>2024-03-13T13:54:20Z</time>
      </trkpt>
      <trkpt lat="44.43293" lon="1.60154">
        <ele>379</ele>
        <time>2024-03-13T13:54:21Z</time>
      </trkpt>
      <trkpt lat="44.43294" lon="1.60155">
        <ele>379</ele>
        <time>2024-03-13T13:54:22Z</time>
      </trkpt>
      <trkpt lat="44.43295" lon="1.60156">
        <ele>379</ele>
        <time>2024-03-13T13:54:23Z</time>
      </trkpt>
      <trkpt lat="44.43296" lon="1.60157">
        <ele>379</ele>
        <time>2024-03-13T13:54:24Z</time>
      </trkpt>
      <trkpt lat="44.43297" lon="1.60158">
        <ele>379</ele>
        <time>2024-03-13T13:54:25Z</time>
      </trkpt>
      <trkpt lat="44.43298" lon="1.60158">
        <ele>379</ele>
        <time>2024-03-13T13:54:26Z</time>
      </trkpt>
      <trkpt lat="44.43299" lon="1.60159">
        <ele>378</ele>
        <time>2024-03-13T13:54:27Z</time>
      </trkpt>
      <trkpt lat="44.433" lon="1.6016">
        <ele>378</ele>
        <time>2024-03-13T13:54:28Z</time>
      </trkpt>
      <trkpt lat="44.43301" lon="1.60161">
        <ele>378</ele>
        <time>2024-03-13T13:54:29Z</time>
      </trkpt>
      <trkpt lat="44.43302" lon="1.60161">
        <ele>378</ele>
        <time>2024-03-13T13:54:30Z</time>
      </trkpt>
      <trkpt lat="44.43303" lon="1.60162">
        <ele>379</ele>
        <time>2024-03-13T13:54:31Z</time>
      </trkpt>
      <trkpt lat="44.43304" lon="1.60163">
        <ele>379</ele>
        <time>2024-03-13T13:54:32Z</time>
      </trkpt>
      <trkpt lat="44.43305" lon="1.60164">
        <ele>379</ele>
        <time>2024-03-13T13:54:33Z</time>
      </trkpt>
      <trkpt lat="44.43306" lon="1.60165">
        <ele>379</ele>
        <time>2024-03-13T13:54:34Z</time>
      </trkpt>
      <trkpt lat="44.43307" lon="1.60166">
        <ele>379</ele>
        <time>2024-03-13T13:54:35Z</time>
      </trkpt>
      <trkpt lat="44.43308" lon="1.60166">
        <ele>379</ele>
        <time>2024-03-13T13:54:36Z</time>
      </trkpt>
      <trkpt lat="44.43309" lon="1.60167">
        <ele>380</ele>
        <time>2024-03-13T13:54:37Z</time>
      </trkpt>
      <trkpt lat="44.4331" lon="1.60168">
        <ele>379</ele>
        <time>2024-03-13T13:54:38Z</time>
      </trkpt>
      <trkpt lat="44.43311" lon="1.60168">
        <ele>379</ele>
        <time>2024-03-13T13:54:39Z</time>
      </trkpt>
      <trkpt lat="44.43312" lon="1.60169">
        <ele>379</ele>
        <time>2024-03-13T13:54:40Z</time>
      </trkpt>
      <trkpt lat="44.43314" lon="1.6017">
        <ele>380</ele>
        <time>2024-03-13T13:54:41Z</time>
      </trkpt>
      <trkpt lat="44.43314" lon="1.60171">
        <ele>380</ele>
        <time>2024-03-13T13:54:42Z</time>
      </trkpt>
      <trkpt lat="44.43316" lon="1.60171">
        <ele>380</ele>
        <time>2024-03-13T13:54:43Z</time>
      </trkpt>
      <trkpt lat="44.43316" lon="1.60172">
        <ele>380</ele>
        <time>2024-03-13T13:54:44Z</time>
      </trkpt>
      <trkpt lat="44.43317" lon="1.60173">
        <ele>380</ele>
        <time>2024-03-13T13:54:45Z</time>
      </trkpt>
      <trkpt lat="44.43319" lon="1.60173">
        <ele>380</ele>
        <time>2024-03-13T13:54:46Z</time>
      </trkpt>
      <trkpt lat="44.4332" lon="1.60174">
        <ele>379</ele>
        <time>2024-03-13T13:54:47Z</time>
      </trkpt>
      <trkpt lat="44.43321" lon="1.60175">
        <ele>379</ele>
        <time>2024-03-13T13:54:48Z</time>
      </trkpt>
      <trkpt lat="44.43322" lon="1.60176">
        <ele>379</ele>
        <time>2024-03-13T13:54:49Z</time>
      </trkpt>
      <trkpt lat="44.43323" lon="1.60176">
        <ele>379</ele>
        <time>2024-03-13T13:54:50Z</time>
      </trkpt>
      <trkpt lat="44.43324" lon="1.60177">
        <ele>379</ele>
        <time>2024-03-13T13:54:51Z</time>
      </trkpt>
      <trkpt lat="44.43324" lon="1.60178">
        <ele>379</ele>
        <time>2024-03-13T13:54:52Z</time>
      </trkpt>
      <trkpt lat="44.43325" lon="1.60179">
        <ele>380</ele>
        <time>2024-03-13T13:54:53Z</time>
      </trkpt>
      <trkpt lat="44.43327" lon="1.60179">
        <ele>380</ele>
        <time>2024-03-13T13:54:54Z</time>
      </trkpt>
      <trkpt lat="44.43328" lon="1.6018">
        <ele>380</ele>
        <time>2024-03-13T13:54:55Z</time>
      </trkpt>
      <trkpt lat="44.43329" lon="1.6018">
        <ele>380</ele>
        <time>2024-03-13T13:54:56Z</time>
      </trkpt>
      <trkpt lat="44.4333" lon="1.60181">
        <ele>380</ele>
        <time>2024-03-13T13:54:57Z</time>
      </trkpt>
      <trkpt lat="44.43331" lon="1.60181">
        <ele>380</ele>
        <time>2024-03-13T13:54:58Z</time>
      </trkpt>
      <trkpt lat="44.43332" lon="1.60182">
        <ele>380</ele>
        <time>2024-03-13T13:54:59Z</time>
      </trkpt>
      <trkpt lat="44.43333" lon="1.60183">
        <ele>380</ele>
        <time>2024-03-13T13:55:00Z</time>
      </trkpt>
      <trkpt lat="44.43335" lon="1.60183">
        <ele>380</ele>
        <time>2024-03-13T13:55:01Z</time>
      </trkpt>
      <trkpt lat="44.43336" lon="1.60183">
        <ele>380</ele>
        <time>2024-03-13T13:55:02Z</time>
      </trkpt>
      <trkpt lat="44.43337" lon="1.60183">
        <ele>380</ele>
        <time>2024-03-13T13:55:03Z</time>
      </trkpt>
      <trkpt lat="44.43338" lon="1.60182">
        <ele>381</ele>
        <time>2024-03-13T13:55:04Z</time>
      </trkpt>
      <trkpt lat="44.4334" lon="1.60182">
        <ele>380</ele>
        <time>2024-03-13T13:55:05Z</time>
      </trkpt>
      <trkpt lat="44.43341" lon="1.60182">
        <ele>380</ele>
        <time>2024-03-13T13:55:06Z</time>
      </trkpt>
      <trkpt lat="44.43343" lon="1.60181">
        <ele>381</ele>
        <time>2024-03-13T13:55:07Z</time>
      </trkpt>
      <trkpt lat="44.43344" lon="1.60181">
        <ele>380</ele>
        <time>2024-03-13T13:55:08Z</time>
      </trkpt>
      <trkpt lat="44.43345" lon="1.6018">
        <ele>381</ele>
        <time>2024-03-13T13:55:09Z</time>
      </trkpt>
      <trkpt lat="44.43346" lon="1.6018">
        <ele>380</ele>
        <time>2024-03-13T13:55:10Z</time>
      </trkpt>
      <trkpt lat="44.43347" lon="1.60179">
        <ele>380</ele>
        <time>2024-03-13T13:55:11Z</time>
      </trkpt>
      <trkpt lat="44.43348" lon="1.60178">
        <ele>381</ele>
        <time>2024-03-13T13:55:12Z</time>
      </trkpt>
      <trkpt lat="44.43349" lon="1.60177">
        <ele>380</ele>
        <time>2024-03-13T13:55:13Z</time>
      </trkpt>
      <trkpt lat="44.43351" lon="1.60175">
        <ele>380</ele>
        <time>2024-03-13T13:55:14Z</time>
      </trkpt>
      <trkpt lat="44.43352" lon="1.60174">
        <ele>380</ele>
        <time>2024-03-13T13:55:15Z</time>
      </trkpt>
      <trkpt lat="44.43353" lon="1.60173">
        <ele>380</ele>
        <time>2024-03-13T13:55:16Z</time>
      </trkpt>
      <trkpt lat="44.43354" lon="1.60172">
        <ele>380</ele>
        <time>2024-03-13T13:55:17Z</time>
      </trkpt>
      <trkpt lat="44.43355" lon="1.60171">
        <ele>381</ele>
        <time>2024-03-13T13:55:18Z</time>
      </trkpt>
      <trkpt lat="44.43356" lon="1.60169">
        <ele>381</ele>
        <time>2024-03-13T13:55:19Z</time>
      </trkpt>
      <trkpt lat="44.43357" lon="1.60168">
        <ele>381</ele>
        <time>2024-03-13T13:55:20Z</time>
      </trkpt>
      <trkpt lat="44.43358" lon="1.60167">
        <ele>380</ele>
        <time>2024-03-13T13:55:21Z</time>
      </trkpt>
      <trkpt lat="44.4336" lon="1.60166">
        <ele>380</ele>
        <time>2024-03-13T13:55:22Z</time>
      </trkpt>
      <trkpt lat="44.43361" lon="1.60164">
        <ele>380</ele>
        <time>2024-03-13T13:55:23Z</time>
      </trkpt>
      <trkpt lat="44.43361" lon="1.60163">
        <ele>380</ele>
        <time>2024-03-13T13:55:24Z</time>
      </trkpt>
      <trkpt lat="44.43362" lon="1.60162">
        <ele>380</ele>
        <time>2024-03-13T13:55:25Z</time>
      </trkpt>
      <trkpt lat="44.43363" lon="1.60161">
        <ele>380</ele>
        <time>2024-03-13T13:55:26Z</time>
      </trkpt>
      <trkpt lat="44.43364" lon="1.60161">
        <ele>380</ele>
        <time>2024-03-13T13:55:27Z</time>
      </trkpt>
      <trkpt lat="44.43365" lon="1.6016">
        <ele>380</ele>
        <time>2024-03-13T13:55:28Z</time>
      </trkpt>
      <trkpt lat="44.43365" lon="1.6016">
        <ele>379</ele>
        <time>2024-03-13T13:55:29Z</time>
      </trkpt>
      <trkpt lat="44.43366" lon="1.6016">
        <ele>380</ele>
        <time>2024-03-13T13:55:30Z</time>
      </trkpt>
      <trkpt lat="44.43366" lon="1.60159">
        <ele>380</ele>
        <time>2024-03-13T13:55:31Z</time>
      </trkpt>
      <trkpt lat="44.43367" lon="1.60159">
        <ele>380</ele>
        <time>2024-03-13T13:55:32Z</time>
      </trkpt>
      <trkpt lat="44.43367" lon="1.60159">
        <ele>380</ele>
        <time>2024-03-13T13:55:33Z</time>
      </trkpt>
      <trkpt lat="44.43367" lon="1.60159">
        <ele>380</ele>
        <time>2024-03-13T13:55:34Z</time>
      </trkpt>
      <trkpt lat="44.43367" lon="1.60159">
        <ele>380</ele>
        <time>2024-03-13T13:55:35Z</time>
      </trkpt>
      <trkpt lat="44.43367" lon="1.60159">
        <ele>380</ele>
        <time>2024-03-13T13:55:36Z</time>
      </trkpt>
      <trkpt lat="44.43367" lon="1.60159">
        <ele>380</ele>
        <time>2024-03-13T13:55:37Z</time>
      </trkpt>
      <trkpt lat="44.43367" lon="1.60159">
        <ele>380</ele>
        <time>2024-03-13T13:55:38Z</time>
      </trkpt>
      <trkpt lat="44.43367" lon="1.60159">
        <ele>380</ele>
        <time>2024-03-13T13:55:39Z</time>
      </trkpt>
      <trkpt lat="44.43367" lon="1.60159">
        <ele>380</ele>
        <time>2024-03-13T13:55:40Z</time>
      </trkpt>
      <trkpt lat="44.43367" lon="1.60159">
        <ele>380</ele>
        <time>2024-03-13T13:55:41Z</time>
      </trkpt>
      <trkpt lat="44.43367" lon="1.60159">
        <ele>380</ele>
        <time>2024-03-13T13:55:42Z</time>
      </trkpt>
      <trkpt lat="44.43367" lon="1.60159">
        <ele>380</ele>
        <time>2024-03-13T13:55:43Z</time>
      </trkpt>
      <trkpt lat="44.43367" lon="1.60159">
        <ele>380</ele>
        <time>2024-03-13T13:55:44Z</time>
      </trkpt>
      <trkpt lat="44.43367" lon="1.60159">
        <ele>380</ele>
        <time>2024-03-13T13:55:45Z</time>
      </trkpt>
      <trkpt lat="44.43367" lon="1.60159">
        <ele>380</ele>
        <time>2024-03-13T13:55:46Z</time>
      </trkpt>
      <trkpt lat="44.43367" lon="1.60159">
        <ele>380</ele>
        <time>2024-03-13T13:55:47Z</time>
      </trkpt>
      <trkpt lat="44.43367" lon="1.60159">
        <ele>380</ele>
        <time>2024-03-13T13:55:48Z</time>
      </trkpt>
      <trkpt lat="44.43367" lon="1.60159">
        <ele>380</ele>
        <time>2024-03-13T13:55:49Z</time>
      </trkpt>
      <trkpt lat="44.43367" lon="1.60159">
        <ele>380</ele>
        <time>2024-03-13T13:55:50Z</time>
      </trkpt>
      <trkpt lat="44.43368" lon="1.60159">
        <ele>380</ele>
        <time>2024-03-13T13:55:51Z</time>
      </trkpt>
      <trkpt lat="44.43367" lon="1.60159">
        <ele>380</ele>
        <time>2024-03-13T13:55:52Z</time>
      </trkpt>
      <trkpt lat="44.43368" lon="1.60159">
        <ele>380</ele>
        <time>2024-03-13T13:55:53Z</time>
      </trkpt>
      <trkpt lat="44.43368" lon="1.60159">
        <ele>380</ele>
        <time>2024-03-13T13:55:54Z</time>
      </trkpt>
      <trkpt lat="44.43368" lon="1.60159">
        <ele>380</ele>
        <time>2024-03-13T13:55:55Z</time>
      </trkpt>
      <trkpt lat="44.43368" lon="1.60159">
        <ele>380</ele>
        <time>2024-03-13T13:55:56Z</time>
      </trkpt>
      <trkpt lat="44.43368" lon="1.60159">
        <ele>380</ele>
        <time>2024-03-13T13:55:57Z</time>
      </trkpt>
      <trkpt lat="44.43368" lon="1.60159">
        <ele>380</ele>
        <time>2024-03-13T13:55:58Z</time>
      </trkpt>
      <trkpt lat="44.43368" lon="1.60159">
        <ele>380</ele>
        <time>2024-03-13T13:55:59Z</time>
      </trkpt>
      <trkpt lat="44.43368" lon="1.60159">
        <ele>380</ele>
        <time>2024-03-13T13:56:00Z</time>
      </trkpt>
      <trkpt lat="44.43368" lon="1.60159">
        <ele>380</ele>
        <time>2024-03-13T13:56:01Z</time>
      </trkpt>
      <trkpt lat="44.43368" lon="1.60159">
        <ele>380</ele>
        <time>2024-03-13T13:56:02Z</time>
      </trkpt>
      <trkpt lat="44.43368" lon="1.60159">
        <ele>380</ele>
        <time>2024-03-13T13:56:03Z</time>
      </trkpt>
      <trkpt lat="44.43368" lon="1.60159">
        <ele>380</ele>
        <time>2024-03-13T13:56:04Z</time>
      </trkpt>
      <trkpt lat="44.43368" lon="1.60159">
        <ele>380</ele>
        <time>2024-03-13T13:56:05Z</time>
      </trkpt>
      <trkpt lat="44.43368" lon="1.60159">
        <ele>380</ele>
        <time>2024-03-13T13:56:06Z</time>
      </trkpt>
      <trkpt lat="44.43368" lon="1.60159">
        <ele>380</ele>
        <time>2024-03-13T13:56:07Z</time>
      </trkpt>
      <trkpt lat="44.43368" lon="1.60159">
        <ele>380</ele>
        <time>2024-03-13T13:56:08Z</time>
      </trkpt>
      <trkpt lat="44.43368" lon="1.60159">
        <ele>380</ele>
        <time>2024-03-13T13:56:09Z</time>
      </trkpt>
      <trkpt lat="44.43368" lon="1.60159">
        <ele>379</ele>
        <time>2024-03-13T13:56:10Z</time>
      </trkpt>
      <trkpt lat="44.43368" lon="1.6016">
        <ele>379</ele>
        <time>2024-03-13T13:56:11Z</time>
      </trkpt>
      <trkpt lat="44.43367" lon="1.6016">
        <ele>379</ele>
        <time>2024-03-13T13:56:12Z</time>
      </trkpt>
      <trkpt lat="44.43367" lon="1.6016">
        <ele>379</ele>
        <time>2024-03-13T13:56:13Z</time>
      </trkpt>
      <trkpt lat="44.43367" lon="1.6016">
        <ele>379</ele>
        <time>2024-03-13T13:56:14Z</time>
      </trkpt>
      <trkpt lat="44.43367" lon="1.6016">
        <ele>379</ele>
        <time>2024-03-13T13:56:15Z</time>
      </trkpt>
      <trkpt lat="44.43367" lon="1.6016">
        <ele>379</ele>
        <time>2024-03-13T13:56:16Z</time>
      </trkpt>
      <trkpt lat="44.43367" lon="1.6016">
        <ele>379</ele>
        <time>2024-03-13T13:56:17Z</time>
      </trkpt>
      <trkpt lat="44.43367" lon="1.6016">
        <ele>379</ele>
        <time>2024-03-13T13:56:18Z</time>
      </trkpt>
      <trkpt lat="44.43367" lon="1.6016">
        <ele>379</ele>
        <time>2024-03-13T13:56:19Z</time>
      </trkpt>
      <trkpt lat="44.43367" lon="1.6016">
        <ele>379</ele>
        <time>2024-03-13T13:56:20Z</time>
      </trkpt>
      <trkpt lat="44.43367" lon="1.6016">
        <ele>379</ele>
        <time>2024-03-13T13:56:21Z</time>
      </trkpt>
      <trkpt lat="44.43367" lon="1.6016">
        <ele>379</ele>
        <time>2024-03-13T13:56:22Z</time>
      </trkpt>
      <trkpt lat="44.43367" lon="1.6016">
        <ele>379</ele>
        <time>2024-03-13T13:56:23Z</time>
      </trkpt>
      <trkpt lat="44.43367" lon="1.6016">
        <ele>379</ele>
        <time>2024-03-13T13:56:24Z</time>
      </trkpt>
      <trkpt lat="44.43367" lon="1.6016">
        <ele>379</ele>
        <time>2024-03-13T13:56:25Z</time>
      </trkpt>
      <trkpt lat="44.43367" lon="1.6016">
        <ele>379</ele>
        <time>2024-03-13T13:56:26Z</time>
      </trkpt>
      <trkpt lat="44.43367" lon="1.6016">
        <ele>379</ele>
        <time>2024-03-13T13:56:27Z</time>
      </trkpt>
      <trkpt lat="44.43367" lon="1.6016">
        <ele>379</ele>
        <time>2024-03-13T13:56:28Z</time>
      </trkpt>
      <trkpt lat="44.43367" lon="1.6016">
        <ele>379</ele>
        <time>2024-03-13T13:56:29Z</time>
      </trkpt>
      <trkpt lat="44.43367" lon="1.6016">
        <ele>379</ele>
        <time>2024-03-13T13:56:30Z</time>
      </trkpt>
      <trkpt lat="44.43367" lon="1.6016">
        <ele>379</ele>
        <time>2024-03-13T13:56:31Z</time>
      </trkpt>
      <trkpt lat="44.43367" lon="1.6016">
        <ele>379</ele>
        <time>2024-03-13T13:56:32Z</time>
      </trkpt>
      <trkpt lat="44.43367" lon="1.6016">
        <ele>379</ele>
        <time>2024-03-13T13:56:33Z</time>
      </trkpt>
      <trkpt lat="44.43367" lon="1.6016">
        <ele>379</ele>
        <time>2024-03-13T13:56:34Z</time>
      </trkpt>
      <trkpt lat="44.43367" lon="1.6016">
        <ele>379</ele>
        <time>2024-03-13T13:56:35Z</time>
      </trkpt>
      <trkpt lat="44.43367" lon="1.6016">
        <ele>379</ele>
        <time>2024-03-13T13:56:36Z</time>
      </trkpt>
      <trkpt lat="44.43367" lon="1.6016">
        <ele>379</ele>
        <time>2024-03-13T13:56:37Z</time>
      </trkpt>
      <trkpt lat="44.43367" lon="1.6016">
        <ele>379</ele>
        <time>2024-03-13T13:56:38Z</time>
      </trkpt>
      <trkpt lat="44.43367" lon="1.6016">
        <ele>379</ele>
        <time>2024-03-13T13:56:39Z</time>
      </trkpt>
      <trkpt lat="44.43367" lon="1.6016">
        <ele>379</ele>
        <time>2024-03-13T13:56:40Z</time>
      </trkpt>
      <trkpt lat="44.43368" lon="1.60162">
        <ele>379</ele>
        <time>2024-03-13T13:56:41Z</time>
      </trkpt>
      <trkpt lat="44.43368" lon="1.60162">
        <ele>379</ele>
        <time>2024-03-13T13:56:42Z</time>
      </trkpt>
      <trkpt lat="44.43369" lon="1.60162">
        <ele>379</ele>
        <time>2024-03-13T13:56:43Z</time>
      </trkpt>
      <trkpt lat="44.43369" lon="1.60162">
        <ele>380</ele>
        <time>2024-03-13T13:56:44Z</time>
      </trkpt>
      <trkpt lat="44.43369" lon="1.60163">
        <ele>380</ele>
        <time>2024-03-13T13:56:45Z</time>
      </trkpt>
      <trkpt lat="44.43369" lon="1.60164">
        <ele>380</ele>
        <time>2024-03-13T13:56:46Z</time>
      </trkpt>
      <trkpt lat="44.43369" lon="1.60165">
        <ele>380</ele>
        <time>2024-03-13T13:56:47Z</time>
      </trkpt>
      <trkpt lat="44.4337" lon="1.60166">
        <ele>380</ele>
        <time>2024-03-13T13:56:48Z</time>
      </trkpt>
      <trkpt lat="44.4337" lon="1.60167">
        <ele>381</ele>
        <time>2024-03-13T13:56:49Z</time>
      </trkpt>
      <trkpt lat="44.4337" lon="1.60168">
        <ele>381</ele>
        <time>2024-03-13T13:56:50Z</time>
      </trkpt>
      <trkpt lat="44.43371" lon="1.60169">
        <ele>381</ele>
        <time>2024-03-13T13:56:51Z</time>
      </trkpt>
      <trkpt lat="44.43371" lon="1.60171">
        <ele>380</ele>
        <time>2024-03-13T13:56:52Z</time>
      </trkpt>
      <trkpt lat="44.43372" lon="1.60172">
        <ele>380</ele>
        <time>2024-03-13T13:56:53Z</time>
      </trkpt>
      <trkpt lat="44.43372" lon="1.60174">
        <ele>380</ele>
        <time>2024-03-13T13:56:54Z</time>
      </trkpt>
      <trkpt lat="44.43372" lon="1.60175">
        <ele>380</ele>
        <time>2024-03-13T13:56:55Z</time>
      </trkpt>
      <trkpt lat="44.43373" lon="1.60177">
        <ele>381</ele>
        <time>2024-03-13T13:56:56Z</time>
      </trkpt>
      <trkpt lat="44.43373" lon="1.60179">
        <ele>380</ele>
        <time>2024-03-13T13:56:57Z</time>
      </trkpt>
      <trkpt lat="44.43374" lon="1.6018">
        <ele>380</ele>
        <time>2024-03-13T13:56:58Z</time>
      </trkpt>
      <trkpt lat="44.43374" lon="1.60181">
        <ele>380</ele>
        <time>2024-03-13T13:56:59Z</time>
      </trkpt>
      <trkpt lat="44.43375" lon="1.60182">
        <ele>380</ele>
        <time>2024-03-13T13:57:00Z</time>
      </trkpt>
      <trkpt lat="44.43375" lon="1.60184">
        <ele>380</ele>
        <time>2024-03-13T13:57:01Z</time>
      </trkpt>
      <trkpt lat="44.43375" lon="1.60185">
        <ele>380</ele>
        <time>2024-03-13T13:57:02Z</time>
      </trkpt>
      <trkpt lat="44.43375" lon="1.60187">
        <ele>381</ele>
        <time>2024-03-13T13:57:03Z</time>
      </trkpt>
      <trkpt lat="44.43375" lon="1.60188">
        <ele>381</ele>
        <time>2024-03-13T13:57:04Z</time>
      </trkpt>
      <trkpt lat="44.43376" lon="1.6019">
        <ele>381</ele>
        <time>2024-03-13T13:57:05Z</time>
      </trkpt>
      <trkpt lat="44.43376" lon="1.60191">
        <ele>381</ele>
        <time>2024-03-13T13:57:06Z</time>
      </trkpt>
      <trkpt lat="44.43376" lon="1.60193">
        <ele>380</ele>
        <time>2024-03-13T13:57:07Z</time>
      </trkpt>
      <trkpt lat="44.43377" lon="1.60194">
        <ele>381</ele>
        <time>2024-03-13T13:57:08Z</time>
      </trkpt>
      <trkpt lat="44.43377" lon="1.60195">
        <ele>381</ele>
        <time>2024-03-13T13:57:09Z</time>
      </trkpt>
      <trkpt lat="44.43378" lon="1.60197">
        <ele>381</ele>
        <time>2024-03-13T13:57:10Z</time>
      </trkpt>
      <trkpt lat="44.43378" lon="1.60198">
        <ele>381</ele>
        <time>2024-03-13T13:57:11Z</time>
      </trkpt>
      <trkpt lat="44.43379" lon="1.602">
        <ele>381</ele>
        <time>2024-03-13T13:57:12Z</time>
      </trkpt>
      <trkpt lat="44.43379" lon="1.60201">
        <ele>381</ele>
        <time>2024-03-13T13:57:13Z</time>
      </trkpt>
      <trkpt lat="44.4338" lon="1.60203">
        <ele>382</ele>
        <time>2024-03-13T13:57:14Z</time>
      </trkpt>
      <trkpt lat="44.43381" lon="1.60205">
        <ele>382</ele>
        <time>2024-03-13T13:57:15Z</time>
      </trkpt>
      <trkpt lat="44.43381" lon="1.60206">
        <ele>382</ele>
        <time>2024-03-13T13:57:16Z</time>
      </trkpt>
      <trkpt lat="44.43382" lon="1.60207">
        <ele>382</ele>
        <time>2024-03-13T13:57:17Z</time>
      </trkpt>
      <trkpt lat="44.43382" lon="1.60209">
        <ele>382</ele>
        <time>2024-03-13T13:57:18Z</time>
      </trkpt>
      <trkpt lat="44.43382" lon="1.6021">
        <ele>382</ele>
        <time>2024-03-13T13:57:19Z</time>
      </trkpt>
      <trkpt lat="44.43383" lon="1.60211">
        <ele>382</ele>
        <time>2024-03-13T13:57:20Z</time>
      </trkpt>
      <trkpt lat="44.43383" lon="1.60212">
        <ele>382</ele>
        <time>2024-03-13T13:57:21Z</time>
      </trkpt>
      <trkpt lat="44.43383" lon="1.60214">
        <ele>382</ele>
        <time>2024-03-13T13:57:22Z</time>
      </trkpt>
      <trkpt lat="44.43384" lon="1.60215">
        <ele>383</ele>
        <time>2024-03-13T13:57:23Z</time>
      </trkpt>
      <trkpt lat="44.43384" lon="1.60217">
        <ele>383</ele>
        <time>2024-03-13T13:57:24Z</time>
      </trkpt>
      <trkpt lat="44.43384" lon="1.60219">
        <ele>383</ele>
        <time>2024-03-13T13:57:25Z</time>
      </trkpt>
      <trkpt lat="44.43385" lon="1.6022">
        <ele>383</ele>
        <time>2024-03-13T13:57:26Z</time>
      </trkpt>
      <trkpt lat="44.43386" lon="1.60221">
        <ele>383</ele>
        <time>2024-03-13T13:57:27Z</time>
      </trkpt>
      <trkpt lat="44.43386" lon="1.60223">
        <ele>383</ele>
        <time>2024-03-13T13:57:28Z</time>
      </trkpt>
      <trkpt lat="44.43387" lon="1.60225">
        <ele>383</ele>
        <time>2024-03-13T13:57:29Z</time>
      </trkpt>
      <trkpt lat="44.43388" lon="1.60227">
        <ele>382</ele>
        <time>2024-03-13T13:57:30Z</time>
      </trkpt>
      <trkpt lat="44.43388" lon="1.60228">
        <ele>383</ele>
        <time>2024-03-13T13:57:31Z</time>
      </trkpt>
      <trkpt lat="44.43389" lon="1.6023">
        <ele>383</ele>
        <time>2024-03-13T13:57:32Z</time>
      </trkpt>
      <trkpt lat="44.4339" lon="1.60231">
        <ele>383</ele>
        <time>2024-03-13T13:57:33Z</time>
      </trkpt>
      <trkpt lat="44.4339" lon="1.60232">
        <ele>383</ele>
        <time>2024-03-13T13:57:34Z</time>
      </trkpt>
      <trkpt lat="44.43391" lon="1.60233">
        <ele>383</ele>
        <time>2024-03-13T13:57:35Z</time>
      </trkpt>
      <trkpt lat="44.43391" lon="1.60234">
        <ele>383</ele>
        <time>2024-03-13T13:57:36Z</time>
      </trkpt>
      <trkpt lat="44.43392" lon="1.60235">
        <ele>383</ele>
        <time>2024-03-13T13:57:37Z</time>
      </trkpt>
      <trkpt lat="44.43393" lon="1.60237">
        <ele>383</ele>
        <time>2024-03-13T13:57:38Z</time>
      </trkpt>
      <trkpt lat="44.43393" lon="1.60238">
        <ele>383</ele>
        <time>2024-03-13T13:57:39Z</time>
      </trkpt>
      <trkpt lat="44.43394" lon="1.6024">
        <ele>384</ele>
        <time>2024-03-13T13:57:40Z</time>
      </trkpt>
      <trkpt lat="44.43394" lon="1.60241">
        <ele>384</ele>
        <time>2024-03-13T13:57:41Z</time>
      </trkpt>
      <trkpt lat="44.43395" lon="1.60243">
        <ele>384</ele>
        <time>2024-03-13T13:57:42Z</time>
      </trkpt>
      <trkpt lat="44.43395" lon="1.60245">
        <ele>384</ele>
        <time>2024-03-13T13:57:43Z</time>
      </trkpt>
      <trkpt lat="44.43396" lon="1.60246">
        <ele>384</ele>
        <time>2024-03-13T13:57:44Z</time>
      </trkpt>
      <trkpt lat="44.43396" lon="1.60247">
        <ele>384</ele>
        <time>2024-03-13T13:57:45Z</time>
      </trkpt>
      <trkpt lat="44.43397" lon="1.60248">
        <ele>384</ele>
        <time>2024-03-13T13:57:46Z</time>
      </trkpt>
      <trkpt lat="44.43398" lon="1.6025">
        <ele>384</ele>
        <time>2024-03-13T13:57:47Z</time>
      </trkpt>
      <trkpt lat="44.43398" lon="1.60251">
        <ele>385</ele>
        <time>2024-03-13T13:57:48Z</time>
      </trkpt>
      <trkpt lat="44.43399" lon="1.60253">
        <ele>385</ele>
        <time>2024-03-13T13:57:49Z</time>
      </trkpt>
      <trkpt lat="44.43399" lon="1.60254">
        <ele>384</ele>
        <time>2024-03-13T13:57:50Z</time>
      </trkpt>
      <trkpt lat="44.434" lon="1.60256">
        <ele>384</ele>
        <time>2024-03-13T13:57:51Z</time>
      </trkpt>
      <trkpt lat="44.43401" lon="1.60258">
        <ele>384</ele>
        <time>2024-03-13T13:57:52Z</time>
      </trkpt>
      <trkpt lat="44.43401" lon="1.60259">
        <ele>384</ele>
        <time>2024-03-13T13:57:53Z</time>
      </trkpt>
      <trkpt lat="44.43402" lon="1.6026">
        <ele>384</ele>
        <time>2024-03-13T13:57:54Z</time>
      </trkpt>
      <trkpt lat="44.43402" lon="1.60261">
        <ele>384</ele>
        <time>2024-03-13T13:57:55Z</time>
      </trkpt>
      <trkpt lat="44.43403" lon="1.60262">
        <ele>384</ele>
        <time>2024-03-13T13:57:56Z</time>
      </trkpt>
      <trkpt lat="44.43404" lon="1.60263">
        <ele>384</ele>
        <time>2024-03-13T13:57:57Z</time>
      </trkpt>
      <trkpt lat="44.43404" lon="1.60264">
        <ele>384</ele>
        <time>2024-03-13T13:57:58Z</time>
      </trkpt>
      <trkpt lat="44.43405" lon="1.60265">
        <ele>384</ele>
        <time>2024-03-13T13:57:59Z</time>
      </trkpt>
      <trkpt lat="44.43406" lon="1.60267">
        <ele>384</ele>
        <time>2024-03-13T13:58:00Z</time>
      </trkpt>
      <trkpt lat="44.43406" lon="1.60268">
        <ele>384</ele>
        <time>2024-03-13T13:58:01Z</time>
      </trkpt>
      <trkpt lat="44.43406" lon="1.60269">
        <ele>384</ele>
        <time>2024-03-13T13:58:02Z</time>
      </trkpt>
      <trkpt lat="44.43407" lon="1.6027">
        <ele>384</ele>
        <time>2024-03-13T13:58:03Z</time>
      </trkpt>
      <trkpt lat="44.43407" lon="1.60272">
        <ele>384</ele>
        <time>2024-03-13T13:58:04Z</time>
      </trkpt>
      <trkpt lat="44.43407" lon="1.60273">
        <ele>384</ele>
        <time>2024-03-13T13:58:05Z</time>
      </trkpt>
      <trkpt lat="44.43408" lon="1.60274">
        <ele>384</ele>
        <time>2024-03-13T13:58:06Z</time>
      </trkpt>
      <trkpt lat="44.43409" lon="1.60275">
        <ele>384</ele>
        <time>2024-03-13T13:58:07Z</time>
      </trkpt>
      <trkpt lat="44.43409" lon="1.60276">
        <ele>385</ele>
        <time>2024-03-13T13:58:08Z</time>
      </trkpt>
      <trkpt lat="44.43409" lon="1.60277">
        <ele>385</ele>
        <time>2024-03-13T13:58:09Z</time>
      </trkpt>
      <trkpt lat="44.4341" lon="1.60278">
        <ele>385</ele>
        <time>2024-03-13T13:58:10Z</time>
      </trkpt>
      <trkpt lat="44.4341" lon="1.60279">
        <ele>385</ele>
        <time>2024-03-13T13:58:11Z</time>
      </trkpt>
      <trkpt lat="44.4341" lon="1.60281">
        <ele>385</ele>
        <time>2024-03-13T13:58:12Z</time>
      </trkpt>
      <trkpt lat="44.43411" lon="1.60282">
        <ele>385</ele>
        <time>2024-03-13T13:58:13Z</time>
      </trkpt>
      <trkpt lat="44.43411" lon="1.60283">
        <ele>385</ele>
        <time>2024-03-13T13:58:14Z</time>
      </trkpt>
      <trkpt lat="44.43412" lon="1.60285">
        <ele>386</ele>
        <time>2024-03-13T13:58:15Z</time>
      </trkpt>
      <trkpt lat="44.43412" lon="1.60286">
        <ele>386</ele>
        <time>2024-03-13T13:58:16Z</time>
      </trkpt>
      <trkpt lat="44.43413" lon="1.60287">
        <ele>386</ele>
        <time>2024-03-13T13:58:17Z</time>
      </trkpt>
      <trkpt lat="44.43414" lon="1.60288">
        <ele>386</ele>
        <time>2024-03-13T13:58:18Z</time>
      </trkpt>
      <trkpt lat="44.43414" lon="1.60289">
        <ele>386</ele>
        <time>2024-03-13T13:58:19Z</time>
      </trkpt>
      <trkpt lat="44.43414" lon="1.6029">
        <ele>386</ele>
        <time>2024-03-13T13:58:20Z</time>
      </trkpt>
      <trkpt lat="44.43415" lon="1.60291">
        <ele>386</ele>
        <time>2024-03-13T13:58:21Z</time>
      </trkpt>
      <trkpt lat="44.43415" lon="1.60291">
        <ele>387</ele>
        <time>2024-03-13T13:58:22Z</time>
      </trkpt>
      <trkpt lat="44.43415" lon="1.60291">
        <ele>387</ele>
        <time>2024-03-13T13:58:23Z</time>
      </trkpt>
      <trkpt lat="44.43415" lon="1.60291">
        <ele>387</ele>
        <time>2024-03-13T13:58:24Z</time>
      </trkpt>
      <trkpt lat="44.43415" lon="1.60291">
        <ele>387</ele>
        <time>2024-03-13T13:58:25Z</time>
      </trkpt>
      <trkpt lat="44.43415" lon="1.60291">
        <ele>387</ele>
        <time>2024-03-13T13:58:26Z</time>
      </trkpt>
      <trkpt lat="44.43415" lon="1.60291">
        <ele>387</ele>
        <time>2024-03-13T13:58:27Z</time>
      </trkpt>
      <trkpt lat="44.43415" lon="1.60291">
        <ele>387</ele>
        <time>2024-03-13T13:58:28Z</time>
      </trkpt>
      <trkpt lat="44.43415" lon="1.60291">
        <ele>387</ele>
        <time>2024-03-13T13:58:29Z</time>
      </trkpt>
      <trkpt lat="44.43415" lon="1.60291">
        <ele>387</ele>
        <time>2024-03-13T13:58:30Z</time>
      </trkpt>
      <trkpt lat="44.43415" lon="1.60291">
        <ele>387</ele>
        <time>2024-03-13T13:58:31Z</time>
      </trkpt>
      <trkpt lat="44.43415" lon="1.60291">
        <ele>387</ele>
        <time>2024-03-13T13:58:32Z</time>
      </trkpt>
      <trkpt lat="44.43415" lon="1.60291">
        <ele>387</ele>
        <time>2024-03-13T13:58:33Z</time>
      </trkpt>
      <trkpt lat="44.43415" lon="1.60291">
        <ele>387</ele>
        <time>2024-03-13T13:58:34Z</time>
      </trkpt>
      <trkpt lat="44.43415" lon="1.60294">
        <ele>387</ele>
        <time>2024-03-13T13:58:35Z</time>
      </trkpt>
      <trkpt lat="44.43416" lon="1.60294">
        <ele>387</ele>
        <time>2024-03-13T13:58:36Z</time>
      </trkpt>
      <trkpt lat="44.43416" lon="1.60296">
        <ele>387</ele>
        <time>2024-03-13T13:58:37Z</time>
      </trkpt>
      <trkpt lat="44.43417" lon="1.60296">
        <ele>387</ele>
        <time>2024-03-13T13:58:38Z</time>
      </trkpt>
      <trkpt lat="44.43417" lon="1.60298">
        <ele>388</ele>
        <time>2024-03-13T13:58:39Z</time>
      </trkpt>
      <trkpt lat="44.43418" lon="1.60299">
        <ele>387</ele>
        <time>2024-03-13T13:58:40Z</time>
      </trkpt>
      <trkpt lat="44.43419" lon="1.603">
        <ele>387</ele>
        <time>2024-03-13T13:58:41Z</time>
      </trkpt>
      <trkpt lat="44.43419" lon="1.603">
        <ele>387</ele>
        <time>2024-03-13T13:58:42Z</time>
      </trkpt>
      <trkpt lat="44.43419" lon="1.60301">
        <ele>387</ele>
        <time>2024-03-13T13:58:43Z</time>
      </trkpt>
      <trkpt lat="44.43419" lon="1.60301">
        <ele>387</ele>
        <time>2024-03-13T13:58:44Z</time>
      </trkpt>
      <trkpt lat="44.43419" lon="1.60301">
        <ele>387</ele>
        <time>2024-03-13T13:58:45Z</time>
      </trkpt>
      <trkpt lat="44.43421" lon="1.60303">
        <ele>388</ele>
        <time>2024-03-13T13:58:46Z</time>
      </trkpt>
      <trkpt lat="44.43421" lon="1.60303">
        <ele>388</ele>
        <time>2024-03-13T13:58:47Z</time>
      </trkpt>
      <trkpt lat="44.43421" lon="1.60303">
        <ele>388</ele>
        <time>2024-03-13T13:58:48Z</time>
      </trkpt>
      <trkpt lat="44.43421" lon="1.60304">
        <ele>387</ele>
        <time>2024-03-13T13:58:49Z</time>
      </trkpt>
      <trkpt lat="44.43422" lon="1.60304">
        <ele>388</ele>
        <time>2024-03-13T13:58:50Z</time>
      </trkpt>
      <trkpt lat="44.43423" lon="1.60305">
        <ele>388</ele>
        <time>2024-03-13T13:58:51Z</time>
      </trkpt>
      <trkpt lat="44.43423" lon="1.60306">
        <ele>388</ele>
        <time>2024-03-13T13:58:52Z</time>
      </trkpt>
      <trkpt lat="44.43423" lon="1.60306">
        <ele>388</ele>
        <time>2024-03-13T13:58:53Z</time>
      </trkpt>
      <trkpt lat="44.43423" lon="1.60306">
        <ele>388</ele>
        <time>2024-03-13T13:58:54Z</time>
      </trkpt>
      <trkpt lat="44.43423" lon="1.60306">
        <ele>388</ele>
        <time>2024-03-13T13:58:55Z</time>
      </trkpt>
      <trkpt lat="44.43425" lon="1.60306">
        <ele>388</ele>
        <time>2024-03-13T13:58:56Z</time>
      </trkpt>
      <trkpt lat="44.43426" lon="1.60307">
        <ele>388</ele>
        <time>2024-03-13T13:58:57Z</time>
      </trkpt>
      <trkpt lat="44.43427" lon="1.60308">
        <ele>388</ele>
        <time>2024-03-13T13:58:58Z</time>
      </trkpt>
      <trkpt lat="44.43427" lon="1.60309">
        <ele>388</ele>
        <time>2024-03-13T13:58:59Z</time>
      </trkpt>
      <trkpt lat="44.43428" lon="1.6031">
        <ele>387</ele>
        <time>2024-03-13T13:59:00Z</time>
      </trkpt>
      <trkpt lat="44.43429" lon="1.60311">
        <ele>388</ele>
        <time>2024-03-13T13:59:01Z</time>
      </trkpt>
      <trkpt lat="44.4343" lon="1.60311">
        <ele>388</ele>
        <time>2024-03-13T13:59:02Z</time>
      </trkpt>
      <trkpt lat="44.4343" lon="1.60313">
        <ele>388</ele>
        <time>2024-03-13T13:59:03Z</time>
      </trkpt>
      <trkpt lat="44.43431" lon="1.60314">
        <ele>388</ele>
        <time>2024-03-13T13:59:04Z</time>
      </trkpt>
      <trkpt lat="44.43431" lon="1.60314">
        <ele>388</ele>
        <time>2024-03-13T13:59:05Z</time>
      </trkpt>
      <trkpt lat="44.43432" lon="1.60315">
        <ele>388</ele>
        <time>2024-03-13T13:59:06Z</time>
      </trkpt>
      <trkpt lat="44.43433" lon="1.60316">
        <ele>388</ele>
        <time>2024-03-13T13:59:07Z</time>
      </trkpt>
      <trkpt lat="44.43433" lon="1.60317">
        <ele>388</ele>
        <time>2024-03-13T13:59:08Z</time>
      </trkpt>
      <trkpt lat="44.43434" lon="1.60318">
        <ele>388</ele>
        <time>2024-03-13T13:59:09Z</time>
      </trkpt>
      <trkpt lat="44.43435" lon="1.60319">
        <ele>389</ele>
        <time>2024-03-13T13:59:10Z</time>
      </trkpt>
      <trkpt lat="44.43435" lon="1.60319">
        <ele>389</ele>
        <time>2024-03-13T13:59:11Z</time>
      </trkpt>
      <trkpt lat="44.43435" lon="1.60319">
        <ele>389</ele>
        <time>2024-03-13T13:59:12Z</time>
      </trkpt>
      <trkpt lat="44.43435" lon="1.6032">
        <ele>389</ele>
        <time>2024-03-13T13:59:13Z</time>
      </trkpt>
      <trkpt lat="44.43435" lon="1.6032">
        <ele>388</ele>
        <time>2024-03-13T13:59:14Z</time>
      </trkpt>
      <trkpt lat="44.43436" lon="1.60321">
        <ele>389</ele>
        <time>2024-03-13T13:59:15Z</time>
      </trkpt>
      <trkpt lat="44.43437" lon="1.60322">
        <ele>389</ele>
        <time>2024-03-13T13:59:16Z</time>
      </trkpt>
      <trkpt lat="44.43438" lon="1.60323">
        <ele>389</ele>
        <time>2024-03-13T13:59:17Z</time>
      </trkpt>
      <trkpt lat="44.43438" lon="1.60324">
        <ele>389</ele>
        <time>2024-03-13T13:59:18Z</time>
      </trkpt>
      <trkpt lat="44.43439" lon="1.60325">
        <ele>389</ele>
        <time>2024-03-13T13:59:19Z</time>
      </trkpt>
      <trkpt lat="44.4344" lon="1.60326">
        <ele>389</ele>
        <time>2024-03-13T13:59:20Z</time>
      </trkpt>
      <trkpt lat="44.43441" lon="1.60328">
        <ele>389</ele>
        <time>2024-03-13T13:59:21Z</time>
      </trkpt>
      <trkpt lat="44.43441" lon="1.60329">
        <ele>390</ele>
        <time>2024-03-13T13:59:22Z</time>
      </trkpt>
      <trkpt lat="44.43442" lon="1.6033">
        <ele>390</ele>
        <time>2024-03-13T13:59:23Z</time>
      </trkpt>
      <trkpt lat="44.43443" lon="1.6033">
        <ele>390</ele>
        <time>2024-03-13T13:59:24Z</time>
      </trkpt>
      <trkpt lat="44.43443" lon="1.60331">
        <ele>390</ele>
        <time>2024-03-13T13:59:25Z</time>
      </trkpt>
      <trkpt lat="44.43444" lon="1.60332">
        <ele>390</ele>
        <time>2024-03-13T13:59:26Z</time>
      </trkpt>
      <trkpt lat="44.43444" lon="1.60333">
        <ele>391</ele>
        <time>2024-03-13T13:59:27Z</time>
      </trkpt>
      <trkpt lat="44.43445" lon="1.60334">
        <ele>391</ele>
        <time>2024-03-13T13:59:28Z</time>
      </trkpt>
      <trkpt lat="44.43446" lon="1.60335">
        <ele>391</ele>
        <time>2024-03-13T13:59:29Z</time>
      </trkpt>
      <trkpt lat="44.43446" lon="1.60336">
        <ele>391</ele>
        <time>2024-03-13T13:59:30Z</time>
      </trkpt>
      <trkpt lat="44.43447" lon="1.60337">
        <ele>391</ele>
        <time>2024-03-13T13:59:31Z</time>
      </trkpt>
      <trkpt lat="44.43448" lon="1.60338">
        <ele>391</ele>
        <time>2024-03-13T13:59:32Z</time>
      </trkpt>
      <trkpt lat="44.43449" lon="1.60339">
        <ele>392</ele>
        <time>2024-03-13T13:59:33Z</time>
      </trkpt>
      <trkpt lat="44.4345" lon="1.6034">
        <ele>391</ele>
        <time>2024-03-13T13:59:34Z</time>
      </trkpt>
      <trkpt lat="44.43451" lon="1.60341">
        <ele>392</ele>
        <time>2024-03-13T13:59:35Z</time>
      </trkpt>
      <trkpt lat="44.43452" lon="1.60342">
        <ele>392</ele>
        <time>2024-03-13T13:59:36Z</time>
      </trkpt>
      <trkpt lat="44.43454" lon="1.60343">
        <ele>391</ele>
        <time>2024-03-13T13:59:37Z</time>
      </trkpt>
      <trkpt lat="44.43454" lon="1.60344">
        <ele>392</ele>
        <time>2024-03-13T13:59:38Z</time>
      </trkpt>
      <trkpt lat="44.43456" lon="1.60345">
        <ele>392</ele>
        <time>2024-03-13T13:59:39Z</time>
      </trkpt>
      <trkpt lat="44.43457" lon="1.60346">
        <ele>392</ele>
        <time>2024-03-13T13:59:40Z</time>
      </trkpt>
      <trkpt lat="44.43458" lon="1.60346">
        <ele>392</ele>
        <time>2024-03-13T13:59:41Z</time>
      </trkpt>
      <trkpt lat="44.43459" lon="1.60347">
        <ele>392</ele>
        <time>2024-03-13T13:59:42Z</time>
      </trkpt>
      <trkpt lat="44.4346" lon="1.60347">
        <ele>393</ele>
        <time>2024-03-13T13:59:43Z</time>
      </trkpt>
      <trkpt lat="44.4346" lon="1.60348">
        <ele>393</ele>
        <time>2024-03-13T13:59:44Z</time>
      </trkpt>
      <trkpt lat="44.43461" lon="1.60349">
        <ele>393</ele>
        <time>2024-03-13T13:59:45Z</time>
      </trkpt>
      <trkpt lat="44.43462" lon="1.60349">
        <ele>393</ele>
        <time>2024-03-13T13:59:46Z</time>
      </trkpt>
      <trkpt lat="44.43464" lon="1.6035">
        <ele>393</ele>
        <time>2024-03-13T13:59:47Z</time>
      </trkpt>
      <trkpt lat="44.43465" lon="1.60351">
        <ele>393</ele>
        <time>2024-03-13T13:59:48Z</time>
      </trkpt>
      <trkpt lat="44.43465" lon="1.60351">
        <ele>393</ele>
        <time>2024-03-13T13:59:49Z</time>
      </trkpt>
      <trkpt lat="44.43467" lon="1.60351">
        <ele>394</ele>
        <time>2024-03-13T13:59:50Z</time>
      </trkpt>
      <trkpt lat="44.43467" lon="1.60351">
        <ele>394</ele>
        <time>2024-03-13T13:59:51Z</time>
      </trkpt>
      <trkpt lat="44.43469" lon="1.60352">
        <ele>394</ele>
        <time>2024-03-13T13:59:53Z</time>
      </trkpt>
      <trkpt lat="44.4347" lon="1.60352">
        <ele>394</ele>
        <time>2024-03-13T13:59:54Z</time>
      </trkpt>
      <trkpt lat="44.43471" lon="1.60353">
        <ele>394</ele>
        <time>2024-03-13T13:59:55Z</time>
      </trkpt>
      <trkpt lat="44.43472" lon="1.60353">
        <ele>395</ele>
        <time>2024-03-13T13:59:56Z</time>
      </trkpt>
      <trkpt lat="44.43472" lon="1.60353">
        <ele>395</ele>
        <time>2024-03-13T13:59:57Z</time>
      </trkpt>
      <trkpt lat="44.43472" lon="1.60353">
        <ele>395</ele>
        <time>2024-03-13T13:59:58Z</time>
      </trkpt>
      <trkpt lat="44.43473" lon="1.60355">
        <ele>395</ele>
        <time>2024-03-13T13:59:59Z</time>
      </trkpt>
      <trkpt lat="44.43474" lon="1.60355">
        <ele>395</ele>
        <time>2024-03-13T14:00:00Z</time>
      </trkpt>
      <trkpt lat="44.43475" lon="1.60356">
        <ele>395</ele>
        <time>2024-03-13T14:00:01Z</time>
      </trkpt>
      <trkpt lat="44.43476" lon="1.60356">
        <ele>395</ele>
        <time>2024-03-13T14:00:02Z</time>
      </trkpt>
      <trkpt lat="44.43478" lon="1.60357">
        <ele>395</ele>
        <time>2024-03-13T14:00:03Z</time>
      </trkpt>
      <trkpt lat="44.43478" lon="1.60357">
        <ele>395</ele>
        <time>2024-03-13T14:00:04Z</time>
      </trkpt>
      <trkpt lat="44.4348" lon="1.60357">
        <ele>396</ele>
        <time>2024-03-13T14:00:05Z</time>
      </trkpt>
      <trkpt lat="44.4348" lon="1.60357">
        <ele>395</ele>
        <time>2024-03-13T14:00:06Z</time>
      </trkpt>
      <trkpt lat="44.43481" lon="1.60358">
        <ele>395</ele>
        <time>2024-03-13T14:00:07Z</time>
      </trkpt>
      <trkpt lat="44.43482" lon="1.60359">
        <ele>395</ele>
        <time>2024-03-13T14:00:08Z</time>
      </trkpt>
      <trkpt lat="44.43483" lon="1.60359">
        <ele>396</ele>
        <time>2024-03-13T14:00:09Z</time>
      </trkpt>
      <trkpt lat="44.43485" lon="1.60359">
        <ele>395</ele>
        <time>2024-03-13T14:00:10Z</time>
      </trkpt>
      <trkpt lat="44.43486" lon="1.6036">
        <ele>395</ele>
        <time>2024-03-13T14:00:11Z</time>
      </trkpt>
      <trkpt lat="44.43487" lon="1.6036">
        <ele>395</ele>
        <time>2024-03-13T14:00:12Z</time>
      </trkpt>
      <trkpt lat="44.43488" lon="1.6036">
        <ele>395</ele>
        <time>2024-03-13T14:00:13Z</time>
      </trkpt>
      <trkpt lat="44.43489" lon="1.6036">
        <ele>395</ele>
        <time>2024-03-13T14:00:14Z</time>
      </trkpt>
      <trkpt lat="44.4349" lon="1.6036">
        <ele>395</ele>
        <time>2024-03-13T14:00:15Z</time>
      </trkpt>
      <trkpt lat="44.43491" lon="1.60361">
        <ele>395</ele>
        <time>2024-03-13T14:00:16Z</time>
      </trkpt>
      <trkpt lat="44.43492" lon="1.60361">
        <ele>395</ele>
        <time>2024-03-13T14:00:17Z</time>
      </trkpt>
      <trkpt lat="44.43494" lon="1.60362">
        <ele>395</ele>
        <time>2024-03-13T14:00:18Z</time>
      </trkpt>
      <trkpt lat="44.43495" lon="1.60362">
        <ele>395</ele>
        <time>2024-03-13T14:00:19Z</time>
      </trkpt>
      <trkpt lat="44.43496" lon="1.60362">
        <ele>395</ele>
        <time>2024-03-13T14:00:20Z</time>
      </trkpt>
      <trkpt lat="44.43496" lon="1.60362">
        <ele>395</ele>
        <time>2024-03-13T14:00:21Z</time>
      </trkpt>
      <trkpt lat="44.43497" lon="1.60362">
        <ele>395</ele>
        <time>2024-03-13T14:00:22Z</time>
      </trkpt>
      <trkpt lat="44.43499" lon="1.60363">
        <ele>395</ele>
        <time>2024-03-13T14:00:23Z</time>
      </trkpt>
      <trkpt lat="44.43499" lon="1.60363">
        <ele>395</ele>
        <time>2024-03-13T14:00:24Z</time>
      </trkpt>
      <trkpt lat="44.43501" lon="1.60363">
        <ele>395</ele>
        <time>2024-03-13T14:00:25Z</time>
      </trkpt>
      <trkpt lat="44.43502" lon="1.60363">
        <ele>395</ele>
        <time>2024-03-13T14:00:26Z</time>
      </trkpt>
      <trkpt lat="44.43503" lon="1.60364">
        <ele>395</ele>
        <time>2024-03-13T14:00:27Z</time>
      </trkpt>
      <trkpt lat="44.43504" lon="1.60364">
        <ele>395</ele>
        <time>2024-03-13T14:00:28Z</time>
      </trkpt>
      <trkpt lat="44.43505" lon="1.60364">
        <ele>395</ele>
        <time>2024-03-13T14:00:29Z</time>
      </trkpt>
      <trkpt lat="44.43506" lon="1.60365">
        <ele>395</ele>
        <time>2024-03-13T14:00:30Z</time>
      </trkpt>
      <trkpt lat="44.43507" lon="1.60364">
        <ele>395</ele>
        <time>2024-03-13T14:00:31Z</time>
      </trkpt>
      <trkpt lat="44.43508" lon="1.60364">
        <ele>395</ele>
        <time>2024-03-13T14:00:32Z</time>
      </trkpt>
      <trkpt lat="44.43509" lon="1.60364">
        <ele>395</ele>
        <time>2024-03-13T14:00:33Z</time>
      </trkpt>
      <trkpt lat="44.4351" lon="1.60364">
        <ele>395</ele>
        <time>2024-03-13T14:00:34Z</time>
      </trkpt>
      <trkpt lat="44.43512" lon="1.60365">
        <ele>395</ele>
        <time>2024-03-13T14:00:35Z</time>
      </trkpt>
      <trkpt lat="44.43512" lon="1.60365">
        <ele>396</ele>
        <time>2024-03-13T14:00:36Z</time>
      </trkpt>
      <trkpt lat="44.43513" lon="1.60365">
        <ele>395</ele>
        <time>2024-03-13T14:00:37Z</time>
      </trkpt>
      <trkpt lat="44.43514" lon="1.60366">
        <ele>396</ele>
        <time>2024-03-13T14:00:38Z</time>
      </trkpt>
      <trkpt lat="44.43515" lon="1.60365">
        <ele>396</ele>
        <time>2024-03-13T14:00:39Z</time>
      </trkpt>
      <trkpt lat="44.43516" lon="1.60366">
        <ele>396</ele>
        <time>2024-03-13T14:00:40Z</time>
      </trkpt>
      <trkpt lat="44.43517" lon="1.60366">
        <ele>396</ele>
        <time>2024-03-13T14:00:41Z</time>
      </trkpt>
      <trkpt lat="44.43518" lon="1.60366">
        <ele>396</ele>
        <time>2024-03-13T14:00:42Z</time>
      </trkpt>
      <trkpt lat="44.43519" lon="1.60365">
        <ele>396</ele>
        <time>2024-03-13T14:00:43Z</time>
      </trkpt>
      <trkpt lat="44.4352" lon="1.60365">
        <ele>396</ele>
        <time>2024-03-13T14:00:44Z</time>
      </trkpt>
      <trkpt lat="44.43521" lon="1.60365">
        <ele>396</ele>
        <time>2024-03-13T14:00:45Z</time>
      </trkpt>
      <trkpt lat="44.43522" lon="1.60365">
        <ele>396</ele>
        <time>2024-03-13T14:00:46Z</time>
      </trkpt>
      <trkpt lat="44.43523" lon="1.60365">
        <ele>396</ele>
        <time>2024-03-13T14:00:47Z</time>
      </trkpt>
      <trkpt lat="44.43523" lon="1.60365">
        <ele>396</ele>
        <time>2024-03-13T14:00:48Z</time>
      </trkpt>
      <trkpt lat="44.43524" lon="1.60365">
        <ele>395</ele>
        <time>2024-03-13T14:00:49Z</time>
      </trkpt>
      <trkpt lat="44.43525" lon="1.60365">
        <ele>396</ele>
        <time>2024-03-13T14:00:50Z</time>
      </trkpt>
      <trkpt lat="44.43526" lon="1.60365">
        <ele>396</ele>
        <time>2024-03-13T14:00:51Z</time>
      </trkpt>
      <trkpt lat="44.43527" lon="1.60365">
        <ele>396</ele>
        <time>2024-03-13T14:00:52Z</time>
      </trkpt>
      <trkpt lat="44.43528" lon="1.60365">
        <ele>396</ele>
        <time>2024-03-13T14:00:53Z</time>
      </trkpt>
      <trkpt lat="44.43529" lon="1.60365">
        <ele>396</ele>
        <time>2024-03-13T14:00:54Z</time>
      </trkpt>
      <trkpt lat="44.4353" lon="1.60364">
        <ele>396</ele>
        <time>2024-03-13T14:00:55Z</time>
      </trkpt>
      <trkpt lat="44.43531" lon="1.60365">
        <ele>396</ele>
        <time>2024-03-13T14:00:56Z</time>
      </trkpt>
      <trkpt lat="44.43532" lon="1.60365">
        <ele>396</ele>
        <time>2024-03-13T14:00:57Z</time>
      </trkpt>
      <trkpt lat="44.43533" lon="1.60365">
        <ele>396</ele>
        <time>2024-03-13T14:00:58Z</time>
      </trkpt>
      <trkpt lat="44.43533" lon="1.60365">
        <ele>396</ele>
        <time>2024-03-13T14:00:59Z</time>
      </trkpt>
      <trkpt lat="44.43534" lon="1.60364">
        <ele>396</ele>
        <time>2024-03-13T14:01:00Z</time>
      </trkpt>
      <trkpt lat="44.43535" lon="1.60364">
        <ele>396</ele>
        <time>2024-03-13T14:01:01Z</time>
      </trkpt>
      <trkpt lat="44.43536" lon="1.60364">
        <ele>396</ele>
        <time>2024-03-13T14:01:02Z</time>
      </trkpt>
      <trkpt lat="44.43537" lon="1.60363">
        <ele>396</ele>
        <time>2024-03-13T14:01:03Z</time>
      </trkpt>
      <trkpt lat="44.43537" lon="1.60363">
        <ele>396</ele>
        <time>2024-03-13T14:01:04Z</time>
      </trkpt>
      <trkpt lat="44.43538" lon="1.60363">
        <ele>396</ele>
        <time>2024-03-13T14:01:05Z</time>
      </trkpt>
      <trkpt lat="44.43539" lon="1.60363">
        <ele>396</ele>
        <time>2024-03-13T14:01:06Z</time>
      </trkpt>
      <trkpt lat="44.43539" lon="1.60363">
        <ele>396</ele>
        <time>2024-03-13T14:01:07Z</time>
      </trkpt>
      <trkpt lat="44.43539" lon="1.60363">
        <ele>396</ele>
        <time>2024-03-13T14:01:08Z</time>
      </trkpt>
      <trkpt lat="44.43541" lon="1.60361">
        <ele>396</ele>
        <time>2024-03-13T14:01:09Z</time>
      </trkpt>
      <trkpt lat="44.43542" lon="1.60361">
        <ele>396</ele>
        <time>2024-03-13T14:01:10Z</time>
      </trkpt>
      <trkpt lat="44.43543" lon="1.6036">
        <ele>396</ele>
        <time>2024-03-13T14:01:11Z</time>
      </trkpt>
      <trkpt lat="44.43544" lon="1.6036">
        <ele>396</ele>
        <time>2024-03-13T14:01:12Z</time>
      </trkpt>
      <trkpt lat="44.43545" lon="1.6036">
        <ele>396</ele>
        <time>2024-03-13T14:01:13Z</time>
      </trkpt>
      <trkpt lat="44.43546" lon="1.60359">
        <ele>396</ele>
        <time>2024-03-13T14:01:14Z</time>
      </trkpt>
      <trkpt lat="44.43547" lon="1.60359">
        <ele>396</ele>
        <time>2024-03-13T14:01:15Z</time>
      </trkpt>
      <trkpt lat="44.43548" lon="1.60359">
        <ele>396</ele>
        <time>2024-03-13T14:01:16Z</time>
      </trkpt>
      <trkpt lat="44.43549" lon="1.60359">
        <ele>395</ele>
        <time>2024-03-13T14:01:17Z</time>
      </trkpt>
      <trkpt lat="44.4355" lon="1.60358">
        <ele>395</ele>
        <time>2024-03-13T14:01:18Z</time>
      </trkpt>
      <trkpt lat="44.4355" lon="1.60358">
        <ele>395</ele>
        <time>2024-03-13T14:01:19Z</time>
      </trkpt>
      <trkpt lat="44.43552" lon="1.60359">
        <ele>395</ele>
        <time>2024-03-13T14:01:20Z</time>
      </trkpt>
      <trkpt lat="44.43552" lon="1.60359">
        <ele>395</ele>
        <time>2024-03-13T14:01:21Z</time>
      </trkpt>
      <trkpt lat="44.43553" lon="1.60359">
        <ele>395</ele>
        <time>2024-03-13T14:01:22Z</time>
      </trkpt>
      <trkpt lat="44.43554" lon="1.60359">
        <ele>395</ele>
        <time>2024-03-13T14:01:23Z</time>
      </trkpt>
      <trkpt lat="44.43554" lon="1.60359">
        <ele>395</ele>
        <time>2024-03-13T14:01:24Z</time>
      </trkpt>
      <trkpt lat="44.43555" lon="1.6036">
        <ele>396</ele>
        <time>2024-03-13T14:01:25Z</time>
      </trkpt>
      <trkpt lat="44.43556" lon="1.60361">
        <ele>396</ele>
        <time>2024-03-13T14:01:26Z</time>
      </trkpt>
      <trkpt lat="44.43557" lon="1.60362">
        <ele>396</ele>
        <time>2024-03-13T14:01:27Z</time>
      </trkpt>
      <trkpt lat="44.43558" lon="1.60362">
        <ele>396</ele>
        <time>2024-03-13T14:01:28Z</time>
      </trkpt>
      <trkpt lat="44.43559" lon="1.60362">
        <ele>395</ele>
        <time>2024-03-13T14:01:29Z</time>
      </trkpt>
      <trkpt lat="44.43559" lon="1.60362">
        <ele>396</ele>
        <time>2024-03-13T14:01:30Z</time>
      </trkpt>
      <trkpt lat="44.4356" lon="1.60361">
        <ele>396</ele>
        <time>2024-03-13T14:01:31Z</time>
      </trkpt>
      <trkpt lat="44.4356" lon="1.60361">
        <ele>396</ele>
        <time>2024-03-13T14:01:32Z</time>
      </trkpt>
      <trkpt lat="44.4356" lon="1.60361">
        <ele>396</ele>
        <time>2024-03-13T14:01:33Z</time>
      </trkpt>
      <trkpt lat="44.43563" lon="1.60362">
        <ele>396</ele>
        <time>2024-03-13T14:01:34Z</time>
      </trkpt>
      <trkpt lat="44.43564" lon="1.60362">
        <ele>396</ele>
        <time>2024-03-13T14:01:35Z</time>
      </trkpt>
      <trkpt lat="44.43565" lon="1.60362">
        <ele>396</ele>
        <time>2024-03-13T14:01:36Z</time>
      </trkpt>
      <trkpt lat="44.43566" lon="1.60363">
        <ele>396</ele>
        <time>2024-03-13T14:01:37Z</time>
      </trkpt>
      <trkpt lat="44.43567" lon="1.60363">
        <ele>396</ele>
        <time>2024-03-13T14:01:38Z</time>
      </trkpt>
      <trkpt lat="44.43568" lon="1.60363">
        <ele>396</ele>
        <time>2024-03-13T14:01:39Z</time>
      </trkpt>
      <trkpt lat="44.4357" lon="1.60364">
        <ele>396</ele>
        <time>2024-03-13T14:01:40Z</time>
      </trkpt>
      <trkpt lat="44.43571" lon="1.60364">
        <ele>396</ele>
        <time>2024-03-13T14:01:41Z</time>
      </trkpt>
      <trkpt lat="44.43572" lon="1.60365">
        <ele>396</ele>
        <time>2024-03-13T14:01:42Z</time>
      </trkpt>
      <trkpt lat="44.43574" lon="1.60365">
        <ele>396</ele>
        <time>2024-03-13T14:01:43Z</time>
      </trkpt>
      <trkpt lat="44.43575" lon="1.60365">
        <ele>396</ele>
        <time>2024-03-13T14:01:44Z</time>
      </trkpt>
      <trkpt lat="44.43576" lon="1.60365">
        <ele>396</ele>
        <time>2024-03-13T14:01:45Z</time>
      </trkpt>
      <trkpt lat="44.43577" lon="1.60366">
        <ele>396</ele>
        <time>2024-03-13T14:01:46Z</time>
      </trkpt>
      <trkpt lat="44.43578" lon="1.60367">
        <ele>396</ele>
        <time>2024-03-13T14:01:47Z</time>
      </trkpt>
      <trkpt lat="44.43579" lon="1.60367">
        <ele>397</ele>
        <time>2024-03-13T14:01:48Z</time>
      </trkpt>
      <trkpt lat="44.43579" lon="1.60368">
        <ele>397</ele>
        <time>2024-03-13T14:01:49Z</time>
      </trkpt>
      <trkpt lat="44.4358" lon="1.60368">
        <ele>397</ele>
        <time>2024-03-13T14:01:50Z</time>
      </trkpt>
      <trkpt lat="44.4358" lon="1.60368">
        <ele>397</ele>
        <time>2024-03-13T14:01:51Z</time>
      </trkpt>
      <trkpt lat="44.4358" lon="1.60368">
        <ele>397</ele>
        <time>2024-03-13T14:01:52Z</time>
      </trkpt>
      <trkpt lat="44.43582" lon="1.6037">
        <ele>397</ele>
        <time>2024-03-13T14:01:53Z</time>
      </trkpt>
      <trkpt lat="44.43583" lon="1.6037">
        <ele>397</ele>
        <time>2024-03-13T14:01:54Z</time>
      </trkpt>
      <trkpt lat="44.43584" lon="1.6037">
        <ele>397</ele>
        <time>2024-03-13T14:01:55Z</time>
      </trkpt>
      <trkpt lat="44.43585" lon="1.60371">
        <ele>397</ele>
        <time>2024-03-13T14:01:56Z</time>
      </trkpt>
      <trkpt lat="44.43586" lon="1.60371">
        <ele>397</ele>
        <time>2024-03-13T14:01:57Z</time>
      </trkpt>
      <trkpt lat="44.43586" lon="1.60371">
        <ele>397</ele>
        <time>2024-03-13T14:01:58Z</time>
      </trkpt>
      <trkpt lat="44.43586" lon="1.60371">
        <ele>397</ele>
        <time>2024-03-13T14:01:59Z</time>
      </trkpt>
      <trkpt lat="44.43589" lon="1.60372">
        <ele>397</ele>
        <time>2024-03-13T14:02:00Z</time>
      </trkpt>
      <trkpt lat="44.4359" lon="1.60373">
        <ele>397</ele>
        <time>2024-03-13T14:02:01Z</time>
      </trkpt>
      <trkpt lat="44.43591" lon="1.60373">
        <ele>398</ele>
        <time>2024-03-13T14:02:02Z</time>
      </trkpt>
      <trkpt lat="44.43592" lon="1.60374">
        <ele>398</ele>
        <time>2024-03-13T14:02:03Z</time>
      </trkpt>
      <trkpt lat="44.43593" lon="1.60375">
        <ele>398</ele>
        <time>2024-03-13T14:02:04Z</time>
      </trkpt>
      <trkpt lat="44.43594" lon="1.60375">
        <ele>399</ele>
        <time>2024-03-13T14:02:05Z</time>
      </trkpt>
      <trkpt lat="44.43595" lon="1.60376">
        <ele>399</ele>
        <time>2024-03-13T14:02:06Z</time>
      </trkpt>
      <trkpt lat="44.43596" lon="1.60376">
        <ele>399</ele>
        <time>2024-03-13T14:02:07Z</time>
      </trkpt>
      <trkpt lat="44.43596" lon="1.60377">
        <ele>399</ele>
        <time>2024-03-13T14:02:08Z</time>
      </trkpt>
      <trkpt lat="44.43597" lon="1.60377">
        <ele>399</ele>
        <time>2024-03-13T14:02:09Z</time>
      </trkpt>
      <trkpt lat="44.43599" lon="1.60378">
        <ele>399</ele>
        <time>2024-03-13T14:02:10Z</time>
      </trkpt>
      <trkpt lat="44.436" lon="1.60378">
        <ele>399</ele>
        <time>2024-03-13T14:02:11Z</time>
      </trkpt>
      <trkpt lat="44.43601" lon="1.60379">
        <ele>399</ele>
        <time>2024-03-13T14:02:12Z</time>
      </trkpt>
      <trkpt lat="44.43602" lon="1.60379">
        <ele>399</ele>
        <time>2024-03-13T14:02:13Z</time>
      </trkpt>
      <trkpt lat="44.43603" lon="1.6038">
        <ele>399</ele>
        <time>2024-03-13T14:02:14Z</time>
      </trkpt>
      <trkpt lat="44.43604" lon="1.6038">
        <ele>399</ele>
        <time>2024-03-13T14:02:15Z</time>
      </trkpt>
      <trkpt lat="44.43605" lon="1.60381">
        <ele>399</ele>
        <time>2024-03-13T14:02:16Z</time>
      </trkpt>
      <trkpt lat="44.43606" lon="1.60381">
        <ele>399</ele>
        <time>2024-03-13T14:02:17Z</time>
      </trkpt>
      <trkpt lat="44.43607" lon="1.60382">
        <ele>400</ele>
        <time>2024-03-13T14:02:18Z</time>
      </trkpt>
      <trkpt lat="44.43608" lon="1.60382">
        <ele>399</ele>
        <time>2024-03-13T14:02:19Z</time>
      </trkpt>
      <trkpt lat="44.43609" lon="1.60383">
        <ele>399</ele>
        <time>2024-03-13T14:02:20Z</time>
      </trkpt>
      <trkpt lat="44.4361" lon="1.60383">
        <ele>399</ele>
        <time>2024-03-13T14:02:21Z</time>
      </trkpt>
      <trkpt lat="44.43612" lon="1.60384">
        <ele>400</ele>
        <time>2024-03-13T14:02:22Z</time>
      </trkpt>
      <trkpt lat="44.43613" lon="1.60385">
        <ele>400</ele>
        <time>2024-03-13T14:02:23Z</time>
      </trkpt>
      <trkpt lat="44.43615" lon="1.60385">
        <ele>400</ele>
        <time>2024-03-13T14:02:24Z</time>
      </trkpt>
      <trkpt lat="44.43616" lon="1.60386">
        <ele>400</ele>
        <time>2024-03-13T14:02:25Z</time>
      </trkpt>
      <trkpt lat="44.43617" lon="1.60386">
        <ele>400</ele>
        <time>2024-03-13T14:02:26Z</time>
      </trkpt>
      <trkpt lat="44.43618" lon="1.60387">
        <ele>400</ele>
        <time>2024-03-13T14:02:27Z</time>
      </trkpt>
      <trkpt lat="44.43619" lon="1.60387">
        <ele>401</ele>
        <time>2024-03-13T14:02:28Z</time>
      </trkpt>
      <trkpt lat="44.4362" lon="1.60387">
        <ele>401</ele>
        <time>2024-03-13T14:02:29Z</time>
      </trkpt>
      <trkpt lat="44.43621" lon="1.60388">
        <ele>401</ele>
        <time>2024-03-13T14:02:30Z</time>
      </trkpt>
      <trkpt lat="44.43622" lon="1.60388">
        <ele>401</ele>
        <time>2024-03-13T14:02:31Z</time>
      </trkpt>
      <trkpt lat="44.43623" lon="1.60388">
        <ele>401</ele>
        <time>2024-03-13T14:02:32Z</time>
      </trkpt>
      <trkpt lat="44.43624" lon="1.60389">
        <ele>402</ele>
        <time>2024-03-13T14:02:33Z</time>
      </trkpt>
      <trkpt lat="44.43625" lon="1.60389">
        <ele>402</ele>
        <time>2024-03-13T14:02:34Z</time>
      </trkpt>
      <trkpt lat="44.43626" lon="1.60389">
        <ele>402</ele>
        <time>2024-03-13T14:02:35Z</time>
      </trkpt>
      <trkpt lat="44.43628" lon="1.6039">
        <ele>402</ele>
        <time>2024-03-13T14:02:36Z</time>
      </trkpt>
      <trkpt lat="44.43629" lon="1.6039">
        <ele>402</ele>
        <time>2024-03-13T14:02:37Z</time>
      </trkpt>
      <trkpt lat="44.4363" lon="1.60391">
        <ele>401</ele>
        <time>2024-03-13T14:02:38Z</time>
      </trkpt>
      <trkpt lat="44.43632" lon="1.60391">
        <ele>402</ele>
        <time>2024-03-13T14:02:39Z</time>
      </trkpt>
      <trkpt lat="44.43634" lon="1.60391">
        <ele>403</ele>
        <time>2024-03-13T14:02:40Z</time>
      </trkpt>
      <trkpt lat="44.43635" lon="1.60392">
        <ele>403</ele>
        <time>2024-03-13T14:02:41Z</time>
      </trkpt>
      <trkpt lat="44.43636" lon="1.60392">
        <ele>403</ele>
        <time>2024-03-13T14:02:42Z</time>
      </trkpt>
      <trkpt lat="44.43637" lon="1.60393">
        <ele>403</ele>
        <time>2024-03-13T14:02:43Z</time>
      </trkpt>
      <trkpt lat="44.43638" lon="1.60393">
        <ele>403</ele>
        <time>2024-03-13T14:02:44Z</time>
      </trkpt>
      <trkpt lat="44.43639" lon="1.60394">
        <ele>403</ele>
        <time>2024-03-13T14:02:45Z</time>
      </trkpt>
      <trkpt lat="44.4364" lon="1.60395">
        <ele>403</ele>
        <time>2024-03-13T14:02:46Z</time>
      </trkpt>
      <trkpt lat="44.43641" lon="1.60395">
        <ele>403</ele>
        <time>2024-03-13T14:02:47Z</time>
      </trkpt>
      <trkpt lat="44.43642" lon="1.60395">
        <ele>403</ele>
        <time>2024-03-13T14:02:48Z</time>
      </trkpt>
      <trkpt lat="44.43642" lon="1.60395">
        <ele>404</ele>
        <time>2024-03-13T14:02:49Z</time>
      </trkpt>
      <trkpt lat="44.43642" lon="1.60395">
        <ele>404</ele>
        <time>2024-03-13T14:02:50Z</time>
      </trkpt>
      <trkpt lat="44.43642" lon="1.60395">
        <ele>404</ele>
        <time>2024-03-13T14:02:51Z</time>
      </trkpt>
      <trkpt lat="44.43645" lon="1.60397">
        <ele>404</ele>
        <time>2024-03-13T14:02:52Z</time>
      </trkpt>
      <trkpt lat="44.43646" lon="1.60397">
        <ele>405</ele>
        <time>2024-03-13T14:02:53Z</time>
      </trkpt>
      <trkpt lat="44.43647" lon="1.60397">
        <ele>405</ele>
        <time>2024-03-13T14:02:54Z</time>
      </trkpt>
      <trkpt lat="44.43648" lon="1.60397">
        <ele>405</ele>
        <time>2024-03-13T14:02:55Z</time>
      </trkpt>
      <trkpt lat="44.43648" lon="1.60397">
        <ele>405</ele>
        <time>2024-03-13T14:02:56Z</time>
      </trkpt>
      <trkpt lat="44.43648" lon="1.60397">
        <ele>405</ele>
        <time>2024-03-13T14:02:57Z</time>
      </trkpt>
      <trkpt lat="44.4365" lon="1.60398">
        <ele>405</ele>
        <time>2024-03-13T14:02:58Z</time>
      </trkpt>
      <trkpt lat="44.43652" lon="1.60397">
        <ele>405</ele>
        <time>2024-03-13T14:02:59Z</time>
      </trkpt>
      <trkpt lat="44.43653" lon="1.60398">
        <ele>405</ele>
        <time>2024-03-13T14:03:00Z</time>
      </trkpt>
      <trkpt lat="44.43654" lon="1.60398">
        <ele>405</ele>
        <time>2024-03-13T14:03:01Z</time>
      </trkpt>
      <trkpt lat="44.43655" lon="1.60398">
        <ele>406</ele>
        <time>2024-03-13T14:03:02Z</time>
      </trkpt>
      <trkpt lat="44.43657" lon="1.60398">
        <ele>406</ele>
        <time>2024-03-13T14:03:03Z</time>
      </trkpt>
      <trkpt lat="44.43658" lon="1.60398">
        <ele>406</ele>
        <time>2024-03-13T14:03:04Z</time>
      </trkpt>
      <trkpt lat="44.43659" lon="1.60399">
        <ele>406</ele>
        <time>2024-03-13T14:03:05Z</time>
      </trkpt>
      <trkpt lat="44.4366" lon="1.60399">
        <ele>406</ele>
        <time>2024-03-13T14:03:06Z</time>
      </trkpt>
      <trkpt lat="44.43661" lon="1.604">
        <ele>406</ele>
        <time>2024-03-13T14:03:07Z</time>
      </trkpt>
      <trkpt lat="44.43662" lon="1.604">
        <ele>406</ele>
        <time>2024-03-13T14:03:08Z</time>
      </trkpt>
      <trkpt lat="44.43663" lon="1.604">
        <ele>406</ele>
        <time>2024-03-13T14:03:09Z</time>
      </trkpt>
      <trkpt lat="44.43665" lon="1.60401">
        <ele>407</ele>
        <time>2024-03-13T14:03:10Z</time>
      </trkpt>
      <trkpt lat="44.43665" lon="1.60401">
        <ele>407</ele>
        <time>2024-03-13T14:03:11Z</time>
      </trkpt>
      <trkpt lat="44.43666" lon="1.60402">
        <ele>407</ele>
        <time>2024-03-13T14:03:12Z</time>
      </trkpt>
      <trkpt lat="44.43668" lon="1.60402">
        <ele>406</ele>
        <time>2024-03-13T14:03:13Z</time>
      </trkpt>
      <trkpt lat="44.43668" lon="1.60403">
        <ele>407</ele>
        <time>2024-03-13T14:03:14Z</time>
      </trkpt>
      <trkpt lat="44.4367" lon="1.60403">
        <ele>406</ele>
        <time>2024-03-13T14:03:15Z</time>
      </trkpt>
      <trkpt lat="44.4367" lon="1.60404">
        <ele>406</ele>
        <time>2024-03-13T14:03:16Z</time>
      </trkpt>
      <trkpt lat="44.43671" lon="1.60404">
        <ele>407</ele>
        <time>2024-03-13T14:03:17Z</time>
      </trkpt>
      <trkpt lat="44.43672" lon="1.60404">
        <ele>406</ele>
        <time>2024-03-13T14:03:18Z</time>
      </trkpt>
      <trkpt lat="44.43673" lon="1.60404">
        <ele>406</ele>
        <time>2024-03-13T14:03:19Z</time>
      </trkpt>
      <trkpt lat="44.43674" lon="1.60404">
        <ele>406</ele>
        <time>2024-03-13T14:03:20Z</time>
      </trkpt>
      <trkpt lat="44.43675" lon="1.60404">
        <ele>406</ele>
        <time>2024-03-13T14:03:21Z</time>
      </trkpt>
      <trkpt lat="44.43675" lon="1.60404">
        <ele>406</ele>
        <time>2024-03-13T14:03:22Z</time>
      </trkpt>
      <trkpt lat="44.43675" lon="1.60404">
        <ele>406</ele>
        <time>2024-03-13T14:03:23Z</time>
      </trkpt>
      <trkpt lat="44.43677" lon="1.60405">
        <ele>407</ele>
        <time>2024-03-13T14:03:24Z</time>
      </trkpt>
      <trkpt lat="44.43678" lon="1.60406">
        <ele>407</ele>
        <time>2024-03-13T14:03:25Z</time>
      </trkpt>
      <trkpt lat="44.43679" lon="1.60406">
        <ele>407</ele>
        <time>2024-03-13T14:03:26Z</time>
      </trkpt>
      <trkpt lat="44.43681" lon="1.60407">
        <ele>407</ele>
        <time>2024-03-13T14:03:27Z</time>
      </trkpt>
      <trkpt lat="44.43682" lon="1.60407">
        <ele>407</ele>
        <time>2024-03-13T14:03:28Z</time>
      </trkpt>
      <trkpt lat="44.43682" lon="1.60407">
        <ele>407</ele>
        <time>2024-03-13T14:03:29Z</time>
      </trkpt>
      <trkpt lat="44.43684" lon="1.60408">
        <ele>407</ele>
        <time>2024-03-13T14:03:30Z</time>
      </trkpt>
      <trkpt lat="44.43684" lon="1.60408">
        <ele>407</ele>
        <time>2024-03-13T14:03:31Z</time>
      </trkpt>
      <trkpt lat="44.43685" lon="1.60409">
        <ele>407</ele>
        <time>2024-03-13T14:03:32Z</time>
      </trkpt>
      <trkpt lat="44.43686" lon="1.60409">
        <ele>407</ele>
        <time>2024-03-13T14:03:33Z</time>
      </trkpt>
      <trkpt lat="44.43687" lon="1.6041">
        <ele>407</ele>
        <time>2024-03-13T14:03:34Z</time>
      </trkpt>
      <trkpt lat="44.43689" lon="1.60411">
        <ele>407</ele>
        <time>2024-03-13T14:03:35Z</time>
      </trkpt>
      <trkpt lat="44.4369" lon="1.60411">
        <ele>407</ele>
        <time>2024-03-13T14:03:36Z</time>
      </trkpt>
      <trkpt lat="44.43691" lon="1.60411">
        <ele>407</ele>
        <time>2024-03-13T14:03:37Z</time>
      </trkpt>
      <trkpt lat="44.43692" lon="1.60412">
        <ele>407</ele>
        <time>2024-03-13T14:03:38Z</time>
      </trkpt>
      <trkpt lat="44.43694" lon="1.60412">
        <ele>408</ele>
        <time>2024-03-13T14:03:39Z</time>
      </trkpt>
      <trkpt lat="44.43694" lon="1.60412">
        <ele>408</ele>
        <time>2024-03-13T14:03:40Z</time>
      </trkpt>
      <trkpt lat="44.43695" lon="1.60413">
        <ele>407</ele>
        <time>2024-03-13T14:03:41Z</time>
      </trkpt>
      <trkpt lat="44.43697" lon="1.60413">
        <ele>407</ele>
        <time>2024-03-13T14:03:42Z</time>
      </trkpt>
      <trkpt lat="44.43698" lon="1.60414">
        <ele>407</ele>
        <time>2024-03-13T14:03:43Z</time>
      </trkpt>
      <trkpt lat="44.43699" lon="1.60414">
        <ele>407</ele>
        <time>2024-03-13T14:03:44Z</time>
      </trkpt>
      <trkpt lat="44.437" lon="1.60414">
        <ele>406</ele>
        <time>2024-03-13T14:03:45Z</time>
      </trkpt>
      <trkpt lat="44.43702" lon="1.60415">
        <ele>406</ele>
        <time>2024-03-13T14:03:46Z</time>
      </trkpt>
      <trkpt lat="44.43703" lon="1.60415">
        <ele>406</ele>
        <time>2024-03-13T14:03:47Z</time>
      </trkpt>
      <trkpt lat="44.43704" lon="1.60415">
        <ele>406</ele>
        <time>2024-03-13T14:03:48Z</time>
      </trkpt>
      <trkpt lat="44.43705" lon="1.60415">
        <ele>406</ele>
        <time>2024-03-13T14:03:49Z</time>
      </trkpt>
      <trkpt lat="44.43707" lon="1.60415">
        <ele>406</ele>
        <time>2024-03-13T14:03:50Z</time>
      </trkpt>
      <trkpt lat="44.43708" lon="1.60415">
        <ele>406</ele>
        <time>2024-03-13T14:03:51Z</time>
      </trkpt>
      <trkpt lat="44.4371" lon="1.60416">
        <ele>406</ele>
        <time>2024-03-13T14:03:52Z</time>
      </trkpt>
      <trkpt lat="44.43712" lon="1.60417">
        <ele>405</ele>
        <time>2024-03-13T14:03:53Z</time>
      </trkpt>
      <trkpt lat="44.43713" lon="1.60417">
        <ele>404</ele>
        <time>2024-03-13T14:03:54Z</time>
      </trkpt>
      <trkpt lat="44.43715" lon="1.60417">
        <ele>404</ele>
        <time>2024-03-13T14:03:55Z</time>
      </trkpt>
      <trkpt lat="44.43717" lon="1.60417">
        <ele>405</ele>
        <time>2024-03-13T14:03:56Z</time>
      </trkpt>
      <trkpt lat="44.43718" lon="1.60418">
        <ele>405</ele>
        <time>2024-03-13T14:03:57Z</time>
      </trkpt>
      <trkpt lat="44.43719" lon="1.60418">
        <ele>405</ele>
        <time>2024-03-13T14:03:58Z</time>
      </trkpt>
      <trkpt lat="44.43721" lon="1.60418">
        <ele>405</ele>
        <time>2024-03-13T14:03:59Z</time>
      </trkpt>
      <trkpt lat="44.43721" lon="1.60419">
        <ele>405</ele>
        <time>2024-03-13T14:04:00Z</time>
      </trkpt>
      <trkpt lat="44.43723" lon="1.60419">
        <ele>405</ele>
        <time>2024-03-13T14:04:01Z</time>
      </trkpt>
      <trkpt lat="44.43724" lon="1.60419">
        <ele>405</ele>
        <time>2024-03-13T14:04:02Z</time>
      </trkpt>
      <trkpt lat="44.43725" lon="1.60419">
        <ele>404</ele>
        <time>2024-03-13T14:04:03Z</time>
      </trkpt>
      <trkpt lat="44.43726" lon="1.6042">
        <ele>404</ele>
        <time>2024-03-13T14:04:04Z</time>
      </trkpt>
      <trkpt lat="44.43727" lon="1.6042">
        <ele>404</ele>
        <time>2024-03-13T14:04:05Z</time>
      </trkpt>
      <trkpt lat="44.43728" lon="1.6042">
        <ele>405</ele>
        <time>2024-03-13T14:04:06Z</time>
      </trkpt>
      <trkpt lat="44.4373" lon="1.60421">
        <ele>405</ele>
        <time>2024-03-13T14:04:07Z</time>
      </trkpt>
      <trkpt lat="44.43731" lon="1.60421">
        <ele>405</ele>
        <time>2024-03-13T14:04:08Z</time>
      </trkpt>
      <trkpt lat="44.43732" lon="1.60422">
        <ele>405</ele>
        <time>2024-03-13T14:04:09Z</time>
      </trkpt>
      <trkpt lat="44.43733" lon="1.60422">
        <ele>406</ele>
        <time>2024-03-13T14:04:10Z</time>
      </trkpt>
      <trkpt lat="44.43734" lon="1.60423">
        <ele>406</ele>
        <time>2024-03-13T14:04:11Z</time>
      </trkpt>
      <trkpt lat="44.43735" lon="1.60424">
        <ele>406</ele>
        <time>2024-03-13T14:04:12Z</time>
      </trkpt>
      <trkpt lat="44.43736" lon="1.60426">
        <ele>405</ele>
        <time>2024-03-13T14:04:13Z</time>
      </trkpt>
      <trkpt lat="44.43736" lon="1.60427">
        <ele>406</ele>
        <time>2024-03-13T14:04:14Z</time>
      </trkpt>
      <trkpt lat="44.43737" lon="1.60428">
        <ele>405</ele>
        <time>2024-03-13T14:04:15Z</time>
      </trkpt>
      <trkpt lat="44.43737" lon="1.60429">
        <ele>406</ele>
        <time>2024-03-13T14:04:16Z</time>
      </trkpt>
      <trkpt lat="44.43738" lon="1.60429">
        <ele>405</ele>
        <time>2024-03-13T14:04:17Z</time>
      </trkpt>
      <trkpt lat="44.43739" lon="1.60431">
        <ele>405</ele>
        <time>2024-03-13T14:04:18Z</time>
      </trkpt>
      <trkpt lat="44.4374" lon="1.60432">
        <ele>405</ele>
        <time>2024-03-13T14:04:19Z</time>
      </trkpt>
      <trkpt lat="44.43741" lon="1.60433">
        <ele>405</ele>
        <time>2024-03-13T14:04:20Z</time>
      </trkpt>
      <trkpt lat="44.43742" lon="1.60434">
        <ele>405</ele>
        <time>2024-03-13T14:04:21Z</time>
      </trkpt>
      <trkpt lat="44.43743" lon="1.60435">
        <ele>405</ele>
        <time>2024-03-13T14:04:22Z</time>
      </trkpt>
      <trkpt lat="44.43743" lon="1.60436">
        <ele>405</ele>
        <time>2024-03-13T14:04:23Z</time>
      </trkpt>
      <trkpt lat="44.43744" lon="1.60438">
        <ele>405</ele>
        <time>2024-03-13T14:04:24Z</time>
      </trkpt>
      <trkpt lat="44.43744" lon="1.60438">
        <ele>405</ele>
        <time>2024-03-13T14:04:25Z</time>
      </trkpt>
      <trkpt lat="44.43744" lon="1.60438">
        <ele>405</ele>
        <time>2024-03-13T14:04:26Z</time>
      </trkpt>
      <trkpt lat="44.43745" lon="1.60439">
        <ele>405</ele>
        <time>2024-03-13T14:04:27Z</time>
      </trkpt>
      <trkpt lat="44.43745" lon="1.60439">
        <ele>405</ele>
        <time>2024-03-13T14:04:28Z</time>
      </trkpt>
      <trkpt lat="44.43746" lon="1.60439">
        <ele>405</ele>
        <time>2024-03-13T14:04:29Z</time>
      </trkpt>
      <trkpt lat="44.43746" lon="1.6044">
        <ele>405</ele>
        <time>2024-03-13T14:04:30Z</time>
      </trkpt>
      <trkpt lat="44.43747" lon="1.6044">
        <ele>405</ele>
        <time>2024-03-13T14:04:31Z</time>
      </trkpt>
      <trkpt lat="44.43747" lon="1.60441">
        <ele>405</ele>
        <time>2024-03-13T14:04:32Z</time>
      </trkpt>
      <trkpt lat="44.43748" lon="1.60441">
        <ele>405</ele>
        <time>2024-03-13T14:04:33Z</time>
      </trkpt>
      <trkpt lat="44.43748" lon="1.60442">
        <ele>405</ele>
        <time>2024-03-13T14:04:34Z</time>
      </trkpt>
      <trkpt lat="44.43749" lon="1.60444">
        <ele>405</ele>
        <time>2024-03-13T14:04:35Z</time>
      </trkpt>
      <trkpt lat="44.4375" lon="1.60445">
        <ele>405</ele>
        <time>2024-03-13T14:04:36Z</time>
      </trkpt>
      <trkpt lat="44.4375" lon="1.60446">
        <ele>405</ele>
        <time>2024-03-13T14:04:37Z</time>
      </trkpt>
      <trkpt lat="44.43751" lon="1.60446">
        <ele>405</ele>
        <time>2024-03-13T14:04:38Z</time>
      </trkpt>
      <trkpt lat="44.43752" lon="1.60447">
        <ele>405</ele>
        <time>2024-03-13T14:04:39Z</time>
      </trkpt>
      <trkpt lat="44.43752" lon="1.60448">
        <ele>405</ele>
        <time>2024-03-13T14:04:40Z</time>
      </trkpt>
      <trkpt lat="44.43753" lon="1.60449">
        <ele>405</ele>
        <time>2024-03-13T14:04:41Z</time>
      </trkpt>
      <trkpt lat="44.43754" lon="1.6045">
        <ele>405</ele>
        <time>2024-03-13T14:04:42Z</time>
      </trkpt>
      <trkpt lat="44.43755" lon="1.60452">
        <ele>405</ele>
        <time>2024-03-13T14:04:43Z</time>
      </trkpt>
      <trkpt lat="44.43755" lon="1.60453">
        <ele>406</ele>
        <time>2024-03-13T14:04:44Z</time>
      </trkpt>
      <trkpt lat="44.43756" lon="1.60454">
        <ele>406</ele>
        <time>2024-03-13T14:04:45Z</time>
      </trkpt>
      <trkpt lat="44.43756" lon="1.60455">
        <ele>405</ele>
        <time>2024-03-13T14:04:46Z</time>
      </trkpt>
      <trkpt lat="44.43757" lon="1.60456">
        <ele>406</ele>
        <time>2024-03-13T14:04:47Z</time>
      </trkpt>
      <trkpt lat="44.43758" lon="1.60457">
        <ele>406</ele>
        <time>2024-03-13T14:04:48Z</time>
      </trkpt>
      <trkpt lat="44.43759" lon="1.60457">
        <ele>406</ele>
        <time>2024-03-13T14:04:49Z</time>
      </trkpt>
      <trkpt lat="44.4376" lon="1.60458">
        <ele>406</ele>
        <time>2024-03-13T14:04:50Z</time>
      </trkpt>
      <trkpt lat="44.4376" lon="1.60459">
        <ele>406</ele>
        <time>2024-03-13T14:04:51Z</time>
      </trkpt>
      <trkpt lat="44.43761" lon="1.6046">
        <ele>406</ele>
        <time>2024-03-13T14:04:52Z</time>
      </trkpt>
      <trkpt lat="44.43761" lon="1.60461">
        <ele>406</ele>
        <time>2024-03-13T14:04:53Z</time>
      </trkpt>
      <trkpt lat="44.43762" lon="1.60461">
        <ele>407</ele>
        <time>2024-03-13T14:04:54Z</time>
      </trkpt>
      <trkpt lat="44.43763" lon="1.60462">
        <ele>407</ele>
        <time>2024-03-13T14:04:55Z</time>
      </trkpt>
      <trkpt lat="44.43763" lon="1.60463">
        <ele>407</ele>
        <time>2024-03-13T14:04:56Z</time>
      </trkpt>
      <trkpt lat="44.43763" lon="1.60464">
        <ele>407</ele>
        <time>2024-03-13T14:04:57Z</time>
      </trkpt>
      <trkpt lat="44.43764" lon="1.60465">
        <ele>407</ele>
        <time>2024-03-13T14:04:58Z</time>
      </trkpt>
      <trkpt lat="44.43764" lon="1.60466">
        <ele>407</ele>
        <time>2024-03-13T14:04:59Z</time>
      </trkpt>
      <trkpt lat="44.43764" lon="1.60466">
        <ele>407</ele>
        <time>2024-03-13T14:05:00Z</time>
      </trkpt>
      <trkpt lat="44.43764" lon="1.60466">
        <ele>407</ele>
        <time>2024-03-13T14:05:01Z</time>
      </trkpt>
      <trkpt lat="44.43765" lon="1.60469">
        <ele>407</ele>
        <time>2024-03-13T14:05:02Z</time>
      </trkpt>
      <trkpt lat="44.43766" lon="1.6047">
        <ele>407</ele>
        <time>2024-03-13T14:05:03Z</time>
      </trkpt>
      <trkpt lat="44.43766" lon="1.60471">
        <ele>407</ele>
        <time>2024-03-13T14:05:04Z</time>
      </trkpt>
      <trkpt lat="44.43767" lon="1.60472">
        <ele>407</ele>
        <time>2024-03-13T14:05:05Z</time>
      </trkpt>
      <trkpt lat="44.43768" lon="1.60473">
        <ele>407</ele>
        <time>2024-03-13T14:05:06Z</time>
      </trkpt>
      <trkpt lat="44.43768" lon="1.60474">
        <ele>407</ele>
        <time>2024-03-13T14:05:07Z</time>
      </trkpt>
      <trkpt lat="44.43768" lon="1.60476">
        <ele>407</ele>
        <time>2024-03-13T14:05:08Z</time>
      </trkpt>
      <trkpt lat="44.43769" lon="1.60477">
        <ele>406</ele>
        <time>2024-03-13T14:05:09Z</time>
      </trkpt>
      <trkpt lat="44.43769" lon="1.60477">
        <ele>407</ele>
        <time>2024-03-13T14:05:10Z</time>
      </trkpt>
      <trkpt lat="44.4377" lon="1.60478">
        <ele>407</ele>
        <time>2024-03-13T14:05:11Z</time>
      </trkpt>
      <trkpt lat="44.43771" lon="1.60479">
        <ele>407</ele>
        <time>2024-03-13T14:05:12Z</time>
      </trkpt>
      <trkpt lat="44.43772" lon="1.6048">
        <ele>407</ele>
        <time>2024-03-13T14:05:13Z</time>
      </trkpt>
      <trkpt lat="44.43773" lon="1.60481">
        <ele>407</ele>
        <time>2024-03-13T14:05:14Z</time>
      </trkpt>
      <trkpt lat="44.43773" lon="1.60482">
        <ele>407</ele>
        <time>2024-03-13T14:05:15Z</time>
      </trkpt>
      <trkpt lat="44.43774" lon="1.60483">
        <ele>408</ele>
        <time>2024-03-13T14:05:16Z</time>
      </trkpt>
      <trkpt lat="44.43774" lon="1.60483">
        <ele>408</ele>
        <time>2024-03-13T14:05:17Z</time>
      </trkpt>
      <trkpt lat="44.43774" lon="1.60485">
        <ele>408</ele>
        <time>2024-03-13T14:05:18Z</time>
      </trkpt>
      <trkpt lat="44.43775" lon="1.60486">
        <ele>408</ele>
        <time>2024-03-13T14:05:19Z</time>
      </trkpt>
      <trkpt lat="44.43776" lon="1.60487">
        <ele>408</ele>
        <time>2024-03-13T14:05:20Z</time>
      </trkpt>
      <trkpt lat="44.43776" lon="1.60488">
        <ele>408</ele>
        <time>2024-03-13T14:05:21Z</time>
      </trkpt>
      <trkpt lat="44.43777" lon="1.6049">
        <ele>408</ele>
        <time>2024-03-13T14:05:22Z</time>
      </trkpt>
      <trkpt lat="44.43777" lon="1.60491">
        <ele>408</ele>
        <time>2024-03-13T14:05:23Z</time>
      </trkpt>
      <trkpt lat="44.43778" lon="1.60492">
        <ele>408</ele>
        <time>2024-03-13T14:05:24Z</time>
      </trkpt>
      <trkpt lat="44.43778" lon="1.60493">
        <ele>408</ele>
        <time>2024-03-13T14:05:25Z</time>
      </trkpt>
      <trkpt lat="44.43779" lon="1.60494">
        <ele>409</ele>
        <time>2024-03-13T14:05:26Z</time>
      </trkpt>
      <trkpt lat="44.4378" lon="1.60496">
        <ele>409</ele>
        <time>2024-03-13T14:05:27Z</time>
      </trkpt>
      <trkpt lat="44.43781" lon="1.60497">
        <ele>409</ele>
        <time>2024-03-13T14:05:28Z</time>
      </trkpt>
      <trkpt lat="44.43781" lon="1.60499">
        <ele>409</ele>
        <time>2024-03-13T14:05:29Z</time>
      </trkpt>
      <trkpt lat="44.43782" lon="1.605">
        <ele>409</ele>
        <time>2024-03-13T14:05:30Z</time>
      </trkpt>
      <trkpt lat="44.43782" lon="1.60501">
        <ele>409</ele>
        <time>2024-03-13T14:05:31Z</time>
      </trkpt>
      <trkpt lat="44.43783" lon="1.60502">
        <ele>409</ele>
        <time>2024-03-13T14:05:32Z</time>
      </trkpt>
      <trkpt lat="44.43784" lon="1.60503">
        <ele>409</ele>
        <time>2024-03-13T14:05:33Z</time>
      </trkpt>
      <trkpt lat="44.43785" lon="1.60504">
        <ele>409</ele>
        <time>2024-03-13T14:05:34Z</time>
      </trkpt>
      <trkpt lat="44.43785" lon="1.60505">
        <ele>409</ele>
        <time>2024-03-13T14:05:35Z</time>
      </trkpt>
      <trkpt lat="44.43786" lon="1.60507">
        <ele>409</ele>
        <time>2024-03-13T14:05:36Z</time>
      </trkpt>
      <trkpt lat="44.43786" lon="1.60508">
        <ele>409</ele>
        <time>2024-03-13T14:05:37Z</time>
      </trkpt>
      <trkpt lat="44.43787" lon="1.60509">
        <ele>409</ele>
        <time>2024-03-13T14:05:38Z</time>
      </trkpt>
      <trkpt lat="44.43788" lon="1.6051">
        <ele>409</ele>
        <time>2024-03-13T14:05:39Z</time>
      </trkpt>
      <trkpt lat="44.43789" lon="1.60511">
        <ele>409</ele>
        <time>2024-03-13T14:05:40Z</time>
      </trkpt>
      <trkpt lat="44.43789" lon="1.60512">
        <ele>409</ele>
        <time>2024-03-13T14:05:41Z</time>
      </trkpt>
      <trkpt lat="44.4379" lon="1.60513">
        <ele>409</ele>
        <time>2024-03-13T14:05:42Z</time>
      </trkpt>
      <trkpt lat="44.43791" lon="1.60514">
        <ele>409</ele>
        <time>2024-03-13T14:05:43Z</time>
      </trkpt>
      <trkpt lat="44.43791" lon="1.60516">
        <ele>409</ele>
        <time>2024-03-13T14:05:44Z</time>
      </trkpt>
      <trkpt lat="44.43792" lon="1.60517">
        <ele>409</ele>
        <time>2024-03-13T14:05:45Z</time>
      </trkpt>
      <trkpt lat="44.43792" lon="1.60518">
        <ele>409</ele>
        <time>2024-03-13T14:05:46Z</time>
      </trkpt>
      <trkpt lat="44.43793" lon="1.60519">
        <ele>409</ele>
        <time>2024-03-13T14:05:47Z</time>
      </trkpt>
      <trkpt lat="44.43794" lon="1.60521">
        <ele>409</ele>
        <time>2024-03-13T14:05:48Z</time>
      </trkpt>
      <trkpt lat="44.43795" lon="1.60522">
        <ele>409</ele>
        <time>2024-03-13T14:05:49Z</time>
      </trkpt>
      <trkpt lat="44.43796" lon="1.60523">
        <ele>409</ele>
        <time>2024-03-13T14:05:50Z</time>
      </trkpt>
      <trkpt lat="44.43797" lon="1.60524">
        <ele>409</ele>
        <time>2024-03-13T14:05:51Z</time>
      </trkpt>
      <trkpt lat="44.43798" lon="1.60526">
        <ele>409</ele>
        <time>2024-03-13T14:05:52Z</time>
      </trkpt>
      <trkpt lat="44.43798" lon="1.60527">
        <ele>409</ele>
        <time>2024-03-13T14:05:53Z</time>
      </trkpt>
      <trkpt lat="44.43799" lon="1.60528">
        <ele>409</ele>
        <time>2024-03-13T14:05:54Z</time>
      </trkpt>
      <trkpt lat="44.438" lon="1.60529">
        <ele>409</ele>
        <time>2024-03-13T14:05:55Z</time>
      </trkpt>
      <trkpt lat="44.438" lon="1.60531">
        <ele>410</ele>
        <time>2024-03-13T14:05:56Z</time>
      </trkpt>
      <trkpt lat="44.43801" lon="1.60532">
        <ele>410</ele>
        <time>2024-03-13T14:05:57Z</time>
      </trkpt>
      <trkpt lat="44.43802" lon="1.60533">
        <ele>410</ele>
        <time>2024-03-13T14:05:58Z</time>
      </trkpt>
      <trkpt lat="44.43803" lon="1.60534">
        <ele>410</ele>
        <time>2024-03-13T14:05:59Z</time>
      </trkpt>
      <trkpt lat="44.43803" lon="1.60535">
        <ele>410</ele>
        <time>2024-03-13T14:06:00Z</time>
      </trkpt>
      <trkpt lat="44.43803" lon="1.60536">
        <ele>410</ele>
        <time>2024-03-13T14:06:01Z</time>
      </trkpt>
      <trkpt lat="44.43804" lon="1.60538">
        <ele>411</ele>
        <time>2024-03-13T14:06:02Z</time>
      </trkpt>
      <trkpt lat="44.43804" lon="1.60539">
        <ele>411</ele>
        <time>2024-03-13T14:06:03Z</time>
      </trkpt>
      <trkpt lat="44.43805" lon="1.6054">
        <ele>411</ele>
        <time>2024-03-13T14:06:04Z</time>
      </trkpt>
      <trkpt lat="44.43805" lon="1.6054">
        <ele>411</ele>
        <time>2024-03-13T14:06:05Z</time>
      </trkpt>
      <trkpt lat="44.43805" lon="1.6054">
        <ele>411</ele>
        <time>2024-03-13T14:06:06Z</time>
      </trkpt>
      <trkpt lat="44.43805" lon="1.6054">
        <ele>411</ele>
        <time>2024-03-13T14:06:07Z</time>
      </trkpt>
      <trkpt lat="44.43807" lon="1.60543">
        <ele>411</ele>
        <time>2024-03-13T14:06:08Z</time>
      </trkpt>
      <trkpt lat="44.43808" lon="1.60544">
        <ele>411</ele>
        <time>2024-03-13T14:06:09Z</time>
      </trkpt>
      <trkpt lat="44.43808" lon="1.60545">
        <ele>410</ele>
        <time>2024-03-13T14:06:10Z</time>
      </trkpt>
      <trkpt lat="44.43809" lon="1.60546">
        <ele>410</ele>
        <time>2024-03-13T14:06:11Z</time>
      </trkpt>
      <trkpt lat="44.43809" lon="1.60547">
        <ele>411</ele>
        <time>2024-03-13T14:06:12Z</time>
      </trkpt>
      <trkpt lat="44.43809" lon="1.60548">
        <ele>412</ele>
        <time>2024-03-13T14:06:13Z</time>
      </trkpt>
      <trkpt lat="44.4381" lon="1.6055">
        <ele>412</ele>
        <time>2024-03-13T14:06:14Z</time>
      </trkpt>
      <trkpt lat="44.4381" lon="1.60551">
        <ele>412</ele>
        <time>2024-03-13T14:06:15Z</time>
      </trkpt>
      <trkpt lat="44.43811" lon="1.60552">
        <ele>412</ele>
        <time>2024-03-13T14:06:16Z</time>
      </trkpt>
      <trkpt lat="44.43811" lon="1.60553">
        <ele>412</ele>
        <time>2024-03-13T14:06:17Z</time>
      </trkpt>
      <trkpt lat="44.43812" lon="1.60554">
        <ele>412</ele>
        <time>2024-03-13T14:06:18Z</time>
      </trkpt>
      <trkpt lat="44.43813" lon="1.60555">
        <ele>412</ele>
        <time>2024-03-13T14:06:19Z</time>
      </trkpt>
      <trkpt lat="44.43813" lon="1.60556">
        <ele>412</ele>
        <time>2024-03-13T14:06:20Z</time>
      </trkpt>
      <trkpt lat="44.43814" lon="1.60557">
        <ele>413</ele>
        <time>2024-03-13T14:06:21Z</time>
      </trkpt>
      <trkpt lat="44.43814" lon="1.60558">
        <ele>412</ele>
        <time>2024-03-13T14:06:22Z</time>
      </trkpt>
      <trkpt lat="44.43814" lon="1.60559">
        <ele>413</ele>
        <time>2024-03-13T14:06:23Z</time>
      </trkpt>
      <trkpt lat="44.43814" lon="1.60561">
        <ele>413</ele>
        <time>2024-03-13T14:06:24Z</time>
      </trkpt>
      <trkpt lat="44.43814" lon="1.60562">
        <ele>413</ele>
        <time>2024-03-13T14:06:25Z</time>
      </trkpt>
      <trkpt lat="44.43815" lon="1.60563">
        <ele>413</ele>
        <time>2024-03-13T14:06:26Z</time>
      </trkpt>
      <trkpt lat="44.43816" lon="1.60564">
        <ele>413</ele>
        <time>2024-03-13T14:06:27Z</time>
      </trkpt>
      <trkpt lat="44.43816" lon="1.60565">
        <ele>413</ele>
        <time>2024-03-13T14:06:28Z</time>
      </trkpt>
      <trkpt lat="44.43817" lon="1.60566">
        <ele>413</ele>
        <time>2024-03-13T14:06:29Z</time>
      </trkpt>
      <trkpt lat="44.43817" lon="1.60566">
        <ele>413</ele>
        <time>2024-03-13T14:06:30Z</time>
      </trkpt>
      <trkpt lat="44.43817" lon="1.60566">
        <ele>413</ele>
        <time>2024-03-13T14:06:31Z</time>
      </trkpt>
      <trkpt lat="44.43819" lon="1.60568">
        <ele>413</ele>
        <time>2024-03-13T14:06:32Z</time>
      </trkpt>
      <trkpt lat="44.4382" lon="1.6057">
        <ele>412</ele>
        <time>2024-03-13T14:06:33Z</time>
      </trkpt>
      <trkpt lat="44.43821" lon="1.60571">
        <ele>412</ele>
        <time>2024-03-13T14:06:34Z</time>
      </trkpt>
      <trkpt lat="44.43822" lon="1.60572">
        <ele>413</ele>
        <time>2024-03-13T14:06:35Z</time>
      </trkpt>
      <trkpt lat="44.43822" lon="1.60573">
        <ele>413</ele>
        <time>2024-03-13T14:06:36Z</time>
      </trkpt>
      <trkpt lat="44.43823" lon="1.60574">
        <ele>413</ele>
        <time>2024-03-13T14:06:37Z</time>
      </trkpt>
      <trkpt lat="44.43824" lon="1.60575">
        <ele>413</ele>
        <time>2024-03-13T14:06:38Z</time>
      </trkpt>
      <trkpt lat="44.43824" lon="1.60576">
        <ele>413</ele>
        <time>2024-03-13T14:06:39Z</time>
      </trkpt>
      <trkpt lat="44.43826" lon="1.60577">
        <ele>413</ele>
        <time>2024-03-13T14:06:40Z</time>
      </trkpt>
      <trkpt lat="44.43826" lon="1.60579">
        <ele>413</ele>
        <time>2024-03-13T14:06:41Z</time>
      </trkpt>
      <trkpt lat="44.43827" lon="1.6058">
        <ele>413</ele>
        <time>2024-03-13T14:06:42Z</time>
      </trkpt>
      <trkpt lat="44.43827" lon="1.60581">
        <ele>413</ele>
        <time>2024-03-13T14:06:43Z</time>
      </trkpt>
      <trkpt lat="44.43827" lon="1.60582">
        <ele>413</ele>
        <time>2024-03-13T14:06:44Z</time>
      </trkpt>
      <trkpt lat="44.43829" lon="1.60584">
        <ele>413</ele>
        <time>2024-03-13T14:06:45Z</time>
      </trkpt>
      <trkpt lat="44.43829" lon="1.60585">
        <ele>413</ele>
        <time>2024-03-13T14:06:46Z</time>
      </trkpt>
      <trkpt lat="44.4383" lon="1.60586">
        <ele>413</ele>
        <time>2024-03-13T14:06:47Z</time>
      </trkpt>
      <trkpt lat="44.43831" lon="1.60586">
        <ele>414</ele>
        <time>2024-03-13T14:06:48Z</time>
      </trkpt>
      <trkpt lat="44.43831" lon="1.60587">
        <ele>414</ele>
        <time>2024-03-13T14:06:49Z</time>
      </trkpt>
      <trkpt lat="44.43831" lon="1.60587">
        <ele>414</ele>
        <time>2024-03-13T14:06:50Z</time>
      </trkpt>
      <trkpt lat="44.43831" lon="1.60587">
        <ele>414</ele>
        <time>2024-03-13T14:06:51Z</time>
      </trkpt>
      <trkpt lat="44.43832" lon="1.60589">
        <ele>415</ele>
        <time>2024-03-13T14:06:52Z</time>
      </trkpt>
      <trkpt lat="44.43833" lon="1.60589">
        <ele>415</ele>
        <time>2024-03-13T14:06:53Z</time>
      </trkpt>
      <trkpt lat="44.43834" lon="1.6059">
        <ele>415</ele>
        <time>2024-03-13T14:06:54Z</time>
      </trkpt>
      <trkpt lat="44.43834" lon="1.60591">
        <ele>415</ele>
        <time>2024-03-13T14:06:55Z</time>
      </trkpt>
      <trkpt lat="44.43834" lon="1.60591">
        <ele>415</ele>
        <time>2024-03-13T14:06:56Z</time>
      </trkpt>
      <trkpt lat="44.43836" lon="1.60592">
        <ele>415</ele>
        <time>2024-03-13T14:06:57Z</time>
      </trkpt>
      <trkpt lat="44.43837" lon="1.60593">
        <ele>415</ele>
        <time>2024-03-13T14:06:58Z</time>
      </trkpt>
      <trkpt lat="44.43837" lon="1.60594">
        <ele>415</ele>
        <time>2024-03-13T14:06:59Z</time>
      </trkpt>
      <trkpt lat="44.43838" lon="1.60594">
        <ele>415</ele>
        <time>2024-03-13T14:07:00Z</time>
      </trkpt>
      <trkpt lat="44.43839" lon="1.60595">
        <ele>415</ele>
        <time>2024-03-13T14:07:01Z</time>
      </trkpt>
      <trkpt lat="44.43839" lon="1.60595">
        <ele>415</ele>
        <time>2024-03-13T14:07:02Z</time>
      </trkpt>
      <trkpt lat="44.43839" lon="1.60595">
        <ele>415</ele>
        <time>2024-03-13T14:07:03Z</time>
      </trkpt>
      <trkpt lat="44.43841" lon="1.60598">
        <ele>415</ele>
        <time>2024-03-13T14:07:04Z</time>
      </trkpt>
      <trkpt lat="44.43842" lon="1.60598">
        <ele>415</ele>
        <time>2024-03-13T14:07:05Z</time>
      </trkpt>
      <trkpt lat="44.43842" lon="1.60599">
        <ele>415</ele>
        <time>2024-03-13T14:07:06Z</time>
      </trkpt>
      <trkpt lat="44.43843" lon="1.606">
        <ele>415</ele>
        <time>2024-03-13T14:07:07Z</time>
      </trkpt>
      <trkpt lat="44.43844" lon="1.60601">
        <ele>415</ele>
        <time>2024-03-13T14:07:08Z</time>
      </trkpt>
      <trkpt lat="44.43845" lon="1.60602">
        <ele>415</ele>
        <time>2024-03-13T14:07:09Z</time>
      </trkpt>
      <trkpt lat="44.43847" lon="1.60603">
        <ele>415</ele>
        <time>2024-03-13T14:07:10Z</time>
      </trkpt>
      <trkpt lat="44.43848" lon="1.60604">
        <ele>415</ele>
        <time>2024-03-13T14:07:11Z</time>
      </trkpt>
      <trkpt lat="44.43849" lon="1.60605">
        <ele>415</ele>
        <time>2024-03-13T14:07:12Z</time>
      </trkpt>
      <trkpt lat="44.4385" lon="1.60606">
        <ele>415</ele>
        <time>2024-03-13T14:07:13Z</time>
      </trkpt>
      <trkpt lat="44.43851" lon="1.60607">
        <ele>415</ele>
        <time>2024-03-13T14:07:14Z</time>
      </trkpt>
      <trkpt lat="44.43851" lon="1.60608">
        <ele>416</ele>
        <time>2024-03-13T14:07:15Z</time>
      </trkpt>
      <trkpt lat="44.43852" lon="1.60609">
        <ele>416</ele>
        <time>2024-03-13T14:07:16Z</time>
      </trkpt>
      <trkpt lat="44.43852" lon="1.60609">
        <ele>416</ele>
        <time>2024-03-13T14:07:17Z</time>
      </trkpt>
      <trkpt lat="44.43852" lon="1.60609">
        <ele>416</ele>
        <time>2024-03-13T14:07:18Z</time>
      </trkpt>
      <trkpt lat="44.43854" lon="1.60611">
        <ele>416</ele>
        <time>2024-03-13T14:07:19Z</time>
      </trkpt>
      <trkpt lat="44.43855" lon="1.60612">
        <ele>416</ele>
        <time>2024-03-13T14:07:20Z</time>
      </trkpt>
      <trkpt lat="44.43856" lon="1.60612">
        <ele>416</ele>
        <time>2024-03-13T14:07:21Z</time>
      </trkpt>
      <trkpt lat="44.43857" lon="1.60613">
        <ele>415</ele>
        <time>2024-03-13T14:07:22Z</time>
      </trkpt>
      <trkpt lat="44.43858" lon="1.60614">
        <ele>415</ele>
        <time>2024-03-13T14:07:23Z</time>
      </trkpt>
      <trkpt lat="44.43859" lon="1.60614">
        <ele>415</ele>
        <time>2024-03-13T14:07:24Z</time>
      </trkpt>
      <trkpt lat="44.43859" lon="1.60615">
        <ele>416</ele>
        <time>2024-03-13T14:07:25Z</time>
      </trkpt>
      <trkpt lat="44.4386" lon="1.60616">
        <ele>416</ele>
        <time>2024-03-13T14:07:26Z</time>
      </trkpt>
      <trkpt lat="44.43861" lon="1.60617">
        <ele>416</ele>
        <time>2024-03-13T14:07:27Z</time>
      </trkpt>
      <trkpt lat="44.43862" lon="1.60618">
        <ele>416</ele>
        <time>2024-03-13T14:07:28Z</time>
      </trkpt>
      <trkpt lat="44.43863" lon="1.60619">
        <ele>416</ele>
        <time>2024-03-13T14:07:29Z</time>
      </trkpt>
      <trkpt lat="44.43864" lon="1.6062">
        <ele>416</ele>
        <time>2024-03-13T14:07:30Z</time>
      </trkpt>
      <trkpt lat="44.43865" lon="1.60621">
        <ele>416</ele>
        <time>2024-03-13T14:07:31Z</time>
      </trkpt>
      <trkpt lat="44.43866" lon="1.60622">
        <ele>416</ele>
        <time>2024-03-13T14:07:32Z</time>
      </trkpt>
      <trkpt lat="44.43866" lon="1.60622">
        <ele>416</ele>
        <time>2024-03-13T14:07:33Z</time>
      </trkpt>
      <trkpt lat="44.43866" lon="1.60622">
        <ele>416</ele>
        <time>2024-03-13T14:07:34Z</time>
      </trkpt>
      <trkpt lat="44.43866" lon="1.60622">
        <ele>416</ele>
        <time>2024-03-13T14:07:35Z</time>
      </trkpt>
      <trkpt lat="44.43866" lon="1.60622">
        <ele>416</ele>
        <time>2024-03-13T14:07:36Z</time>
      </trkpt>
      <trkpt lat="44.43866" lon="1.60622">
        <ele>416</ele>
        <time>2024-03-13T14:07:37Z</time>
      </trkpt>
      <trkpt lat="44.43866" lon="1.60622">
        <ele>416</ele>
        <time>2024-03-13T14:07:38Z</time>
      </trkpt>
      <trkpt lat="44.43866" lon="1.60622">
        <ele>416</ele>
        <time>2024-03-13T14:07:39Z</time>
      </trkpt>
      <trkpt lat="44.43866" lon="1.60622">
        <ele>416</ele>
        <time>2024-03-13T14:07:40Z</time>
      </trkpt>
      <trkpt lat="44.43866" lon="1.60622">
        <ele>416</ele>
        <time>2024-03-13T14:07:41Z</time>
      </trkpt>
      <trkpt lat="44.43866" lon="1.60622">
        <ele>416</ele>
        <time>2024-03-13T14:07:42Z</time>
      </trkpt>
      <trkpt lat="44.43866" lon="1.60622">
        <ele>416</ele>
        <time>2024-03-13T14:07:43Z</time>
      </trkpt>
      <trkpt lat="44.43866" lon="1.60622">
        <ele>416</ele>
        <time>2024-03-13T14:07:44Z</time>
      </trkpt>
      <trkpt lat="44.43866" lon="1.60622">
        <ele>416</ele>
        <time>2024-03-13T14:07:45Z</time>
      </trkpt>
      <trkpt lat="44.43867" lon="1.60624">
        <ele>416</ele>
        <time>2024-03-13T14:07:46Z</time>
      </trkpt>
      <trkpt lat="44.43867" lon="1.60625">
        <ele>415</ele>
        <time>2024-03-13T14:07:47Z</time>
      </trkpt>
      <trkpt lat="44.43868" lon="1.60626">
        <ele>415</ele>
        <time>2024-03-13T14:07:48Z</time>
      </trkpt>
      <trkpt lat="44.43868" lon="1.60627">
        <ele>415</ele>
        <time>2024-03-13T14:07:49Z</time>
      </trkpt>
      <trkpt lat="44.43868" lon="1.60628">
        <ele>415</ele>
        <time>2024-03-13T14:07:50Z</time>
      </trkpt>
      <trkpt lat="44.43869" lon="1.60629">
        <ele>415</ele>
        <time>2024-03-13T14:07:51Z</time>
      </trkpt>
      <trkpt lat="44.43869" lon="1.60631">
        <ele>414</ele>
        <time>2024-03-13T14:07:52Z</time>
      </trkpt>
      <trkpt lat="44.43869" lon="1.60631">
        <ele>414</ele>
        <time>2024-03-13T14:07:53Z</time>
      </trkpt>
      <trkpt lat="44.43869" lon="1.60632">
        <ele>413</ele>
        <time>2024-03-13T14:07:54Z</time>
      </trkpt>
      <trkpt lat="44.4387" lon="1.60633">
        <ele>413</ele>
        <time>2024-03-13T14:07:55Z</time>
      </trkpt>
      <trkpt lat="44.4387" lon="1.60633">
        <ele>413</ele>
        <time>2024-03-13T14:07:56Z</time>
      </trkpt>
      <trkpt lat="44.4387" lon="1.60633">
        <ele>413</ele>
        <time>2024-03-13T14:07:57Z</time>
      </trkpt>
      <trkpt lat="44.4387" lon="1.60633">
        <ele>413</ele>
        <time>2024-03-13T14:07:58Z</time>
      </trkpt>
      <trkpt lat="44.4387" lon="1.60633">
        <ele>413</ele>
        <time>2024-03-13T14:07:59Z</time>
      </trkpt>
      <trkpt lat="44.4387" lon="1.60633">
        <ele>413</ele>
        <time>2024-03-13T14:08:00Z</time>
      </trkpt>
      <trkpt lat="44.4387" lon="1.60633">
        <ele>413</ele>
        <time>2024-03-13T14:08:01Z</time>
      </trkpt>
      <trkpt lat="44.4387" lon="1.60633">
        <ele>413</ele>
        <time>2024-03-13T14:08:02Z</time>
      </trkpt>
      <trkpt lat="44.4387" lon="1.60633">
        <ele>413</ele>
        <time>2024-03-13T14:08:03Z</time>
      </trkpt>
      <trkpt lat="44.4387" lon="1.60633">
        <ele>413</ele>
        <time>2024-03-13T14:08:04Z</time>
      </trkpt>
      <trkpt lat="44.4387" lon="1.60633">
        <ele>413</ele>
        <time>2024-03-13T14:08:05Z</time>
      </trkpt>
      <trkpt lat="44.4387" lon="1.60633">
        <ele>413</ele>
        <time>2024-03-13T14:08:06Z</time>
      </trkpt>
      <trkpt lat="44.4387" lon="1.60633">
        <ele>413</ele>
        <time>2024-03-13T14:08:07Z</time>
      </trkpt>
      <trkpt lat="44.4387" lon="1.60633">
        <ele>413</ele>
        <time>2024-03-13T14:08:08Z</time>
      </trkpt>
      <trkpt lat="44.4387" lon="1.60633">
        <ele>413</ele>
        <time>2024-03-13T14:08:09Z</time>
      </trkpt>
      <trkpt lat="44.4387" lon="1.60633">
        <ele>413</ele>
        <time>2024-03-13T14:08:10Z</time>
      </trkpt>
      <trkpt lat="44.4387" lon="1.60633">
        <ele>413</ele>
        <time>2024-03-13T14:08:11Z</time>
      </trkpt>
      <trkpt lat="44.4387" lon="1.60633">
        <ele>413</ele>
        <time>2024-03-13T14:08:12Z</time>
      </trkpt>
      <trkpt lat="44.4387" lon="1.60633">
        <ele>413</ele>
        <time>2024-03-13T14:08:13Z</time>
      </trkpt>
      <trkpt lat="44.4387" lon="1.60633">
        <ele>413</ele>
        <time>2024-03-13T14:08:14Z</time>
      </trkpt>
      <trkpt lat="44.4387" lon="1.60633">
        <ele>413</ele>
        <time>2024-03-13T14:08:15Z</time>
      </trkpt>
      <trkpt lat="44.4387" lon="1.60633">
        <ele>413</ele>
        <time>2024-03-13T14:08:16Z</time>
      </trkpt>
      <trkpt lat="44.4387" lon="1.60633">
        <ele>413</ele>
        <time>2024-03-13T14:08:17Z</time>
      </trkpt>
      <trkpt lat="44.4387" lon="1.60633">
        <ele>413</ele>
        <time>2024-03-13T14:08:18Z</time>
      </trkpt>
      <trkpt lat="44.4387" lon="1.60633">
        <ele>413</ele>
        <time>2024-03-13T14:08:19Z</time>
      </trkpt>
      <trkpt lat="44.4387" lon="1.60633">
        <ele>413</ele>
        <time>2024-03-13T14:08:20Z</time>
      </trkpt>
      <trkpt lat="44.4387" lon="1.60633">
        <ele>413</ele>
        <time>2024-03-13T14:08:21Z</time>
      </trkpt>
      <trkpt lat="44.4387" lon="1.60633">
        <ele>413</ele>
        <time>2024-03-13T14:08:22Z</time>
      </trkpt>
      <trkpt lat="44.4387" lon="1.60633">
        <ele>413</ele>
        <time>2024-03-13T14:08:23Z</time>
      </trkpt>
      <trkpt lat="44.4387" lon="1.60633">
        <ele>413</ele>
        <time>2024-03-13T14:08:24Z</time>
      </trkpt>
      <trkpt lat="44.4387" lon="1.60633">
        <ele>413</ele>
        <time>2024-03-13T14:08:25Z</time>
      </trkpt>
      <trkpt lat="44.4387" lon="1.60633">
        <ele>413</ele>
        <time>2024-03-13T14:08:26Z</time>
      </trkpt>
      <trkpt lat="44.4387" lon="1.60633">
        <ele>413</ele>
        <time>2024-03-13T14:08:27Z</time>
      </trkpt>
      <trkpt lat="44.4387" lon="1.60633">
        <ele>413</ele>
        <time>2024-03-13T14:08:28Z</time>
      </trkpt>
      <trkpt lat="44.4387" lon="1.60633">
        <ele>413</ele>
        <time>2024-03-13T14:08:29Z</time>
      </trkpt>
      <trkpt lat="44.4387" lon="1.60633">
        <ele>413</ele>
        <time>2024-03-13T14:08:30Z</time>
      </trkpt>
      <trkpt lat="44.4387" lon="1.60633">
        <ele>413</ele>
        <time>2024-03-13T14:08:31Z</time>
      </trkpt>
      <trkpt lat="44.4387" lon="1.60633">
        <ele>413</ele>
        <time>2024-03-13T14:08:32Z</time>
      </trkpt>
      <trkpt lat="44.4387" lon="1.60633">
        <ele>413</ele>
        <time>2024-03-13T14:08:33Z</time>
      </trkpt>
      <trkpt lat="44.4387" lon="1.60633">
        <ele>413</ele>
        <time>2024-03-13T14:08:34Z</time>
      </trkpt>
      <trkpt lat="44.4387" lon="1.60633">
        <ele>413</ele>
        <time>2024-03-13T14:08:35Z</time>
      </trkpt>
      <trkpt lat="44.4387" lon="1.60633">
        <ele>413</ele>
        <time>2024-03-13T14:08:36Z</time>
      </trkpt>
      <trkpt lat="44.4387" lon="1.60633">
        <ele>413</ele>
        <time>2024-03-13T14:08:37Z</time>
      </trkpt>
      <trkpt lat="44.4387" lon="1.60633">
        <ele>413</ele>
        <time>2024-03-13T14:08:38Z</time>
      </trkpt>
      <trkpt lat="44.4387" lon="1.60633">
        <ele>413</ele>
        <time>2024-03-13T14:08:39Z</time>
      </trkpt>
      <trkpt lat="44.4387" lon="1.60633">
        <ele>413</ele>
        <time>2024-03-13T14:08:40Z</time>
      </trkpt>
      <trkpt lat="44.4387" lon="1.60633">
        <ele>413</ele>
        <time>2024-03-13T14:08:41Z</time>
      </trkpt>
      <trkpt lat="44.4387" lon="1.60633">
        <ele>413</ele>
        <time>2024-03-13T14:08:42Z</time>
      </trkpt>
      <trkpt lat="44.4387" lon="1.60633">
        <ele>413</ele>
        <time>2024-03-13T14:08:43Z</time>
      </trkpt>
      <trkpt lat="44.4387" lon="1.60633">
        <ele>413</ele>
        <time>2024-03-13T14:08:44Z</time>
      </trkpt>
      <trkpt lat="44.4387" lon="1.60633">
        <ele>413</ele>
        <time>2024-03-13T14:08:45Z</time>
      </trkpt>
      <trkpt lat="44.4387" lon="1.60633">
        <ele>413</ele>
        <time>2024-03-13T14:08:46Z</time>
      </trkpt>
      <trkpt lat="44.4387" lon="1.60633">
        <ele>413</ele>
        <time>2024-03-13T14:08:47Z</time>
      </trkpt>
      <trkpt lat="44.4387" lon="1.60633">
        <ele>413</ele>
        <time>2024-03-13T14:08:48Z</time>
      </trkpt>
      <trkpt lat="44.43871" lon="1.60636">
        <ele>414</ele>
        <time>2024-03-13T14:08:49Z</time>
      </trkpt>
      <trkpt lat="44.43871" lon="1.60636">
        <ele>414</ele>
        <time>2024-03-13T14:08:50Z</time>
      </trkpt>
      <trkpt lat="44.43871" lon="1.60637">
        <ele>413</ele>
        <time>2024-03-13T14:08:51Z</time>
      </trkpt>
      <trkpt lat="44.43871" lon="1.60637">
        <ele>414</ele>
        <time>2024-03-13T14:08:52Z</time>
      </trkpt>
      <trkpt lat="44.43871" lon="1.60637">
        <ele>414</ele>
        <time>2024-03-13T14:08:53Z</time>
      </trkpt>
      <trkpt lat="44.43871" lon="1.60637">
        <ele>414</ele>
        <time>2024-03-13T14:08:54Z</time>
      </trkpt>
      <trkpt lat="44.43871" lon="1.60637">
        <ele>414</ele>
        <time>2024-03-13T14:08:55Z</time>
      </trkpt>
      <trkpt lat="44.43871" lon="1.60639">
        <ele>413</ele>
        <time>2024-03-13T14:08:56Z</time>
      </trkpt>
      <trkpt lat="44.43871" lon="1.6064">
        <ele>413</ele>
        <time>2024-03-13T14:08:57Z</time>
      </trkpt>
      <trkpt lat="44.43871" lon="1.6064">
        <ele>413</ele>
        <time>2024-03-13T14:08:58Z</time>
      </trkpt>
      <trkpt lat="44.43871" lon="1.6064">
        <ele>413</ele>
        <time>2024-03-13T14:08:59Z</time>
      </trkpt>
      <trkpt lat="44.43871" lon="1.6064">
        <ele>413</ele>
        <time>2024-03-13T14:09:00Z</time>
      </trkpt>
      <trkpt lat="44.43871" lon="1.6064">
        <ele>413</ele>
        <time>2024-03-13T14:09:01Z</time>
      </trkpt>
      <trkpt lat="44.43871" lon="1.60641">
        <ele>413</ele>
        <time>2024-03-13T14:09:02Z</time>
      </trkpt>
      <trkpt lat="44.4387" lon="1.60642">
        <ele>413</ele>
        <time>2024-03-13T14:09:03Z</time>
      </trkpt>
      <trkpt lat="44.43869" lon="1.60642">
        <ele>413</ele>
        <time>2024-03-13T14:09:04Z</time>
      </trkpt>
      <trkpt lat="44.43869" lon="1.60643">
        <ele>413</ele>
        <time>2024-03-13T14:09:05Z</time>
      </trkpt>
      <trkpt lat="44.43868" lon="1.60644">
        <ele>413</ele>
        <time>2024-03-13T14:09:06Z</time>
      </trkpt>
      <trkpt lat="44.43867" lon="1.60645">
        <ele>413</ele>
        <time>2024-03-13T14:09:07Z</time>
      </trkpt>
      <trkpt lat="44.43866" lon="1.60646">
        <ele>413</ele>
        <time>2024-03-13T14:09:08Z</time>
      </trkpt>
      <trkpt lat="44.43866" lon="1.60647">
        <ele>413</ele>
        <time>2024-03-13T14:09:09Z</time>
      </trkpt>
      <trkpt lat="44.43865" lon="1.60648">
        <ele>413</ele>
        <time>2024-03-13T14:09:10Z</time>
      </trkpt>
      <trkpt lat="44.43864" lon="1.60649">
        <ele>413</ele>
        <time>2024-03-13T14:09:11Z</time>
      </trkpt>
      <trkpt lat="44.43863" lon="1.6065">
        <ele>413</ele>
        <time>2024-03-13T14:09:12Z</time>
      </trkpt>
      <trkpt lat="44.43862" lon="1.60651">
        <ele>413</ele>
        <time>2024-03-13T14:09:13Z</time>
      </trkpt>
      <trkpt lat="44.43861" lon="1.60652">
        <ele>413</ele>
        <time>2024-03-13T14:09:14Z</time>
      </trkpt>
      <trkpt lat="44.43861" lon="1.60653">
        <ele>413</ele>
        <time>2024-03-13T14:09:15Z</time>
      </trkpt>
      <trkpt lat="44.4386" lon="1.60654">
        <ele>413</ele>
        <time>2024-03-13T14:09:16Z</time>
      </trkpt>
      <trkpt lat="44.43859" lon="1.60655">
        <ele>413</ele>
        <time>2024-03-13T14:09:17Z</time>
      </trkpt>
      <trkpt lat="44.43858" lon="1.60656">
        <ele>413</ele>
        <time>2024-03-13T14:09:18Z</time>
      </trkpt>
      <trkpt lat="44.43857" lon="1.60657">
        <ele>413</ele>
        <time>2024-03-13T14:09:19Z</time>
      </trkpt>
      <trkpt lat="44.43856" lon="1.60658">
        <ele>413</ele>
        <time>2024-03-13T14:09:20Z</time>
      </trkpt>
      <trkpt lat="44.43855" lon="1.60658">
        <ele>414</ele>
        <time>2024-03-13T14:09:21Z</time>
      </trkpt>
      <trkpt lat="44.43854" lon="1.60659">
        <ele>414</ele>
        <time>2024-03-13T14:09:22Z</time>
      </trkpt>
      <trkpt lat="44.43854" lon="1.6066">
        <ele>414</ele>
        <time>2024-03-13T14:09:23Z</time>
      </trkpt>
      <trkpt lat="44.43853" lon="1.60661">
        <ele>414</ele>
        <time>2024-03-13T14:09:24Z</time>
      </trkpt>
      <trkpt lat="44.43852" lon="1.60661">
        <ele>414</ele>
        <time>2024-03-13T14:09:25Z</time>
      </trkpt>
      <trkpt lat="44.43851" lon="1.60662">
        <ele>414</ele>
        <time>2024-03-13T14:09:26Z</time>
      </trkpt>
      <trkpt lat="44.4385" lon="1.60662">
        <ele>414</ele>
        <time>2024-03-13T14:09:27Z</time>
      </trkpt>
      <trkpt lat="44.4385" lon="1.60663">
        <ele>414</ele>
        <time>2024-03-13T14:09:28Z</time>
      </trkpt>
      <trkpt lat="44.43848" lon="1.60664">
        <ele>414</ele>
        <time>2024-03-13T14:09:29Z</time>
      </trkpt>
      <trkpt lat="44.43847" lon="1.60665">
        <ele>414</ele>
        <time>2024-03-13T14:09:30Z</time>
      </trkpt>
      <trkpt lat="44.43847" lon="1.60666">
        <ele>414</ele>
        <time>2024-03-13T14:09:31Z</time>
      </trkpt>
      <trkpt lat="44.43846" lon="1.60667">
        <ele>414</ele>
        <time>2024-03-13T14:09:32Z</time>
      </trkpt>
      <trkpt lat="44.43845" lon="1.60668">
        <ele>414</ele>
        <time>2024-03-13T14:09:33Z</time>
      </trkpt>
      <trkpt lat="44.43844" lon="1.60669">
        <ele>414</ele>
        <time>2024-03-13T14:09:34Z</time>
      </trkpt>
      <trkpt lat="44.43843" lon="1.60671">
        <ele>414</ele>
        <time>2024-03-13T14:09:35Z</time>
      </trkpt>
      <trkpt lat="44.43843" lon="1.60671">
        <ele>414</ele>
        <time>2024-03-13T14:09:36Z</time>
      </trkpt>
      <trkpt lat="44.43842" lon="1.60673">
        <ele>415</ele>
        <time>2024-03-13T14:09:37Z</time>
      </trkpt>
      <trkpt lat="44.43842" lon="1.60673">
        <ele>415</ele>
        <time>2024-03-13T14:09:38Z</time>
      </trkpt>
      <trkpt lat="44.43841" lon="1.60674">
        <ele>415</ele>
        <time>2024-03-13T14:09:39Z</time>
      </trkpt>
      <trkpt lat="44.43841" lon="1.60675">
        <ele>415</ele>
        <time>2024-03-13T14:09:40Z</time>
      </trkpt>
      <trkpt lat="44.4384" lon="1.60675">
        <ele>415</ele>
        <time>2024-03-13T14:09:41Z</time>
      </trkpt>
      <trkpt lat="44.43839" lon="1.60676">
        <ele>415</ele>
        <time>2024-03-13T14:09:42Z</time>
      </trkpt>
      <trkpt lat="44.43838" lon="1.60677">
        <ele>415</ele>
        <time>2024-03-13T14:09:43Z</time>
      </trkpt>
      <trkpt lat="44.43837" lon="1.60678">
        <ele>415</ele>
        <time>2024-03-13T14:09:44Z</time>
      </trkpt>
      <trkpt lat="44.43836" lon="1.60678">
        <ele>415</ele>
        <time>2024-03-13T14:09:45Z</time>
      </trkpt>
      <trkpt lat="44.43836" lon="1.60679">
        <ele>415</ele>
        <time>2024-03-13T14:09:46Z</time>
      </trkpt>
      <trkpt lat="44.43835" lon="1.6068">
        <ele>415</ele>
        <time>2024-03-13T14:09:47Z</time>
      </trkpt>
      <trkpt lat="44.43834" lon="1.60682">
        <ele>415</ele>
        <time>2024-03-13T14:09:48Z</time>
      </trkpt>
      <trkpt lat="44.43834" lon="1.60683">
        <ele>415</ele>
        <time>2024-03-13T14:09:49Z</time>
      </trkpt>
      <trkpt lat="44.43832" lon="1.60685">
        <ele>416</ele>
        <time>2024-03-13T14:09:50Z</time>
      </trkpt>
      <trkpt lat="44.43831" lon="1.60686">
        <ele>416</ele>
        <time>2024-03-13T14:09:51Z</time>
      </trkpt>
      <trkpt lat="44.4383" lon="1.60687">
        <ele>415</ele>
        <time>2024-03-13T14:09:52Z</time>
      </trkpt>
      <trkpt lat="44.43829" lon="1.60688">
        <ele>415</ele>
        <time>2024-03-13T14:09:53Z</time>
      </trkpt>
      <trkpt lat="44.43829" lon="1.60689">
        <ele>415</ele>
        <time>2024-03-13T14:09:54Z</time>
      </trkpt>
      <trkpt lat="44.43827" lon="1.60691">
        <ele>416</ele>
        <time>2024-03-13T14:09:55Z</time>
      </trkpt>
      <trkpt lat="44.43826" lon="1.60693">
        <ele>416</ele>
        <time>2024-03-13T14:09:56Z</time>
      </trkpt>
      <trkpt lat="44.43825" lon="1.60694">
        <ele>416</ele>
        <time>2024-03-13T14:09:57Z</time>
      </trkpt>
      <trkpt lat="44.43824" lon="1.60696">
        <ele>416</ele>
        <time>2024-03-13T14:09:58Z</time>
      </trkpt>
      <trkpt lat="44.43824" lon="1.60697">
        <ele>416</ele>
        <time>2024-03-13T14:09:59Z</time>
      </trkpt>
      <trkpt lat="44.43823" lon="1.60699">
        <ele>416</ele>
        <time>2024-03-13T14:10:00Z</time>
      </trkpt>
      <trkpt lat="44.43822" lon="1.607">
        <ele>416</ele>
        <time>2024-03-13T14:10:01Z</time>
      </trkpt>
      <trkpt lat="44.43821" lon="1.60701">
        <ele>416</ele>
        <time>2024-03-13T14:10:02Z</time>
      </trkpt>
      <trkpt lat="44.43821" lon="1.60702">
        <ele>416</ele>
        <time>2024-03-13T14:10:03Z</time>
      </trkpt>
      <trkpt lat="44.4382" lon="1.60704">
        <ele>416</ele>
        <time>2024-03-13T14:10:04Z</time>
      </trkpt>
      <trkpt lat="44.43819" lon="1.60706">
        <ele>416</ele>
        <time>2024-03-13T14:10:05Z</time>
      </trkpt>
      <trkpt lat="44.43818" lon="1.60707">
        <ele>416</ele>
        <time>2024-03-13T14:10:06Z</time>
      </trkpt>
      <trkpt lat="44.43818" lon="1.60708">
        <ele>416</ele>
        <time>2024-03-13T14:10:07Z</time>
      </trkpt>
      <trkpt lat="44.43816" lon="1.6071">
        <ele>416</ele>
        <time>2024-03-13T14:10:08Z</time>
      </trkpt>
      <trkpt lat="44.43815" lon="1.60711">
        <ele>416</ele>
        <time>2024-03-13T14:10:09Z</time>
      </trkpt>
      <trkpt lat="44.43814" lon="1.60713">
        <ele>416</ele>
        <time>2024-03-13T14:10:10Z</time>
      </trkpt>
      <trkpt lat="44.43813" lon="1.60715">
        <ele>416</ele>
        <time>2024-03-13T14:10:11Z</time>
      </trkpt>
      <trkpt lat="44.43812" lon="1.60716">
        <ele>416</ele>
        <time>2024-03-13T14:10:12Z</time>
      </trkpt>
      <trkpt lat="44.43811" lon="1.60718">
        <ele>415</ele>
        <time>2024-03-13T14:10:13Z</time>
      </trkpt>
      <trkpt lat="44.4381" lon="1.60719">
        <ele>415</ele>
        <time>2024-03-13T14:10:14Z</time>
      </trkpt>
      <trkpt lat="44.4381" lon="1.6072">
        <ele>415</ele>
        <time>2024-03-13T14:10:15Z</time>
      </trkpt>
      <trkpt lat="44.43809" lon="1.6072">
        <ele>415</ele>
        <time>2024-03-13T14:10:16Z</time>
      </trkpt>
      <trkpt lat="44.43808" lon="1.60722">
        <ele>415</ele>
        <time>2024-03-13T14:10:17Z</time>
      </trkpt>
      <trkpt lat="44.43808" lon="1.60722">
        <ele>416</ele>
        <time>2024-03-13T14:10:18Z</time>
      </trkpt>
      <trkpt lat="44.43807" lon="1.60723">
        <ele>415</ele>
        <time>2024-03-13T14:10:19Z</time>
      </trkpt>
      <trkpt lat="44.43806" lon="1.60724">
        <ele>415</ele>
        <time>2024-03-13T14:10:20Z</time>
      </trkpt>
      <trkpt lat="44.43805" lon="1.60725">
        <ele>416</ele>
        <time>2024-03-13T14:10:21Z</time>
      </trkpt>
      <trkpt lat="44.43804" lon="1.60726">
        <ele>416</ele>
        <time>2024-03-13T14:10:22Z</time>
      </trkpt>
      <trkpt lat="44.43804" lon="1.60727">
        <ele>416</ele>
        <time>2024-03-13T14:10:23Z</time>
      </trkpt>
      <trkpt lat="44.43803" lon="1.60729">
        <ele>416</ele>
        <time>2024-03-13T14:10:24Z</time>
      </trkpt>
      <trkpt lat="44.43802" lon="1.6073">
        <ele>416</ele>
        <time>2024-03-13T14:10:25Z</time>
      </trkpt>
      <trkpt lat="44.43801" lon="1.60731">
        <ele>416</ele>
        <time>2024-03-13T14:10:26Z</time>
      </trkpt>
      <trkpt lat="44.438" lon="1.60732">
        <ele>416</ele>
        <time>2024-03-13T14:10:27Z</time>
      </trkpt>
      <trkpt lat="44.438" lon="1.60733">
        <ele>416</ele>
        <time>2024-03-13T14:10:28Z</time>
      </trkpt>
      <trkpt lat="44.43799" lon="1.60734">
        <ele>416</ele>
        <time>2024-03-13T14:10:29Z</time>
      </trkpt>
      <trkpt lat="44.43798" lon="1.60734">
        <ele>416</ele>
        <time>2024-03-13T14:10:30Z</time>
      </trkpt>
      <trkpt lat="44.43798" lon="1.60735">
        <ele>416</ele>
        <time>2024-03-13T14:10:31Z</time>
      </trkpt>
      <trkpt lat="44.43797" lon="1.60735">
        <ele>416</ele>
        <time>2024-03-13T14:10:32Z</time>
      </trkpt>
      <trkpt lat="44.43796" lon="1.60735">
        <ele>416</ele>
        <time>2024-03-13T14:10:33Z</time>
      </trkpt>
      <trkpt lat="44.43795" lon="1.60735">
        <ele>416</ele>
        <time>2024-03-13T14:10:34Z</time>
      </trkpt>
      <trkpt lat="44.43794" lon="1.60735">
        <ele>416</ele>
        <time>2024-03-13T14:10:35Z</time>
      </trkpt>
      <trkpt lat="44.43793" lon="1.60736">
        <ele>416</ele>
        <time>2024-03-13T14:10:36Z</time>
      </trkpt>
      <trkpt lat="44.43793" lon="1.60736">
        <ele>415</ele>
        <time>2024-03-13T14:10:37Z</time>
      </trkpt>
      <trkpt lat="44.43792" lon="1.60736">
        <ele>415</ele>
        <time>2024-03-13T14:10:38Z</time>
      </trkpt>
      <trkpt lat="44.43791" lon="1.60736">
        <ele>415</ele>
        <time>2024-03-13T14:10:39Z</time>
      </trkpt>
      <trkpt lat="44.4379" lon="1.60736">
        <ele>415</ele>
        <time>2024-03-13T14:10:40Z</time>
      </trkpt>
      <trkpt lat="44.43789" lon="1.60736">
        <ele>414</ele>
        <time>2024-03-13T14:10:41Z</time>
      </trkpt>
      <trkpt lat="44.43788" lon="1.60736">
        <ele>414</ele>
        <time>2024-03-13T14:10:42Z</time>
      </trkpt>
      <trkpt lat="44.43787" lon="1.60736">
        <ele>414</ele>
        <time>2024-03-13T14:10:43Z</time>
      </trkpt>
      <trkpt lat="44.43786" lon="1.60736">
        <ele>414</ele>
        <time>2024-03-13T14:10:44Z</time>
      </trkpt>
      <trkpt lat="44.43785" lon="1.60737">
        <ele>415</ele>
        <time>2024-03-13T14:10:45Z</time>
      </trkpt>
      <trkpt lat="44.43784" lon="1.60737">
        <ele>414</ele>
        <time>2024-03-13T14:10:46Z</time>
      </trkpt>
      <trkpt lat="44.43783" lon="1.60737">
        <ele>415</ele>
        <time>2024-03-13T14:10:47Z</time>
      </trkpt>
      <trkpt lat="44.43782" lon="1.60737">
        <ele>415</ele>
        <time>2024-03-13T14:10:48Z</time>
      </trkpt>
      <trkpt lat="44.43781" lon="1.60738">
        <ele>415</ele>
        <time>2024-03-13T14:10:49Z</time>
      </trkpt>
      <trkpt lat="44.43781" lon="1.60738">
        <ele>415</ele>
        <time>2024-03-13T14:10:50Z</time>
      </trkpt>
      <trkpt lat="44.4378" lon="1.60738">
        <ele>415</ele>
        <time>2024-03-13T14:10:51Z</time>
      </trkpt>
      <trkpt lat="44.43779" lon="1.60738">
        <ele>415</ele>
        <time>2024-03-13T14:10:52Z</time>
      </trkpt>
      <trkpt lat="44.43778" lon="1.60738">
        <ele>415</ele>
        <time>2024-03-13T14:10:53Z</time>
      </trkpt>
      <trkpt lat="44.43777" lon="1.60738">
        <ele>415</ele>
        <time>2024-03-13T14:10:54Z</time>
      </trkpt>
      <trkpt lat="44.43776" lon="1.60738">
        <ele>415</ele>
        <time>2024-03-13T14:10:55Z</time>
      </trkpt>
      <trkpt lat="44.43775" lon="1.60738">
        <ele>416</ele>
        <time>2024-03-13T14:10:56Z</time>
      </trkpt>
      <trkpt lat="44.43774" lon="1.60738">
        <ele>416</ele>
        <time>2024-03-13T14:10:57Z</time>
      </trkpt>
      <trkpt lat="44.43773" lon="1.60738">
        <ele>416</ele>
        <time>2024-03-13T14:10:58Z</time>
      </trkpt>
      <trkpt lat="44.43772" lon="1.60738">
        <ele>415</ele>
        <time>2024-03-13T14:10:59Z</time>
      </trkpt>
      <trkpt lat="44.43771" lon="1.60738">
        <ele>416</ele>
        <time>2024-03-13T14:11:00Z</time>
      </trkpt>
      <trkpt lat="44.43769" lon="1.60737">
        <ele>416</ele>
        <time>2024-03-13T14:11:01Z</time>
      </trkpt>
      <trkpt lat="44.43768" lon="1.60737">
        <ele>416</ele>
        <time>2024-03-13T14:11:02Z</time>
      </trkpt>
      <trkpt lat="44.43767" lon="1.60737">
        <ele>416</ele>
        <time>2024-03-13T14:11:03Z</time>
      </trkpt>
      <trkpt lat="44.43766" lon="1.60738">
        <ele>416</ele>
        <time>2024-03-13T14:11:04Z</time>
      </trkpt>
      <trkpt lat="44.43765" lon="1.60738">
        <ele>416</ele>
        <time>2024-03-13T14:11:05Z</time>
      </trkpt>
      <trkpt lat="44.43763" lon="1.60738">
        <ele>416</ele>
        <time>2024-03-13T14:11:06Z</time>
      </trkpt>
      <trkpt lat="44.43762" lon="1.60738">
        <ele>415</ele>
        <time>2024-03-13T14:11:07Z</time>
      </trkpt>
      <trkpt lat="44.43761" lon="1.60738">
        <ele>415</ele>
        <time>2024-03-13T14:11:08Z</time>
      </trkpt>
      <trkpt lat="44.4376" lon="1.60738">
        <ele>415</ele>
        <time>2024-03-13T14:11:09Z</time>
      </trkpt>
      <trkpt lat="44.43758" lon="1.60737">
        <ele>415</ele>
        <time>2024-03-13T14:11:10Z</time>
      </trkpt>
      <trkpt lat="44.43758" lon="1.60737">
        <ele>415</ele>
        <time>2024-03-13T14:11:11Z</time>
      </trkpt>
      <trkpt lat="44.43757" lon="1.60737">
        <ele>415</ele>
        <time>2024-03-13T14:11:12Z</time>
      </trkpt>
      <trkpt lat="44.43756" lon="1.60737">
        <ele>415</ele>
        <time>2024-03-13T14:11:13Z</time>
      </trkpt>
      <trkpt lat="44.43755" lon="1.60737">
        <ele>415</ele>
        <time>2024-03-13T14:11:14Z</time>
      </trkpt>
      <trkpt lat="44.43755" lon="1.60737">
        <ele>415</ele>
        <time>2024-03-13T14:11:15Z</time>
      </trkpt>
      <trkpt lat="44.43753" lon="1.60736">
        <ele>415</ele>
        <time>2024-03-13T14:11:16Z</time>
      </trkpt>
      <trkpt lat="44.43752" lon="1.60736">
        <ele>415</ele>
        <time>2024-03-13T14:11:17Z</time>
      </trkpt>
      <trkpt lat="44.43751" lon="1.60736">
        <ele>415</ele>
        <time>2024-03-13T14:11:18Z</time>
      </trkpt>
      <trkpt lat="44.43749" lon="1.60736">
        <ele>415</ele>
        <time>2024-03-13T14:11:19Z</time>
      </trkpt>
      <trkpt lat="44.43748" lon="1.60736">
        <ele>415</ele>
        <time>2024-03-13T14:11:20Z</time>
      </trkpt>
      <trkpt lat="44.43747" lon="1.60736">
        <ele>415</ele>
        <time>2024-03-13T14:11:21Z</time>
      </trkpt>
      <trkpt lat="44.43745" lon="1.60737">
        <ele>415</ele>
        <time>2024-03-13T14:11:22Z</time>
      </trkpt>
      <trkpt lat="44.43744" lon="1.60736">
        <ele>415</ele>
        <time>2024-03-13T14:11:23Z</time>
      </trkpt>
      <trkpt lat="44.43742" lon="1.60736">
        <ele>415</ele>
        <time>2024-03-13T14:11:24Z</time>
      </trkpt>
      <trkpt lat="44.43741" lon="1.60736">
        <ele>415</ele>
        <time>2024-03-13T14:11:25Z</time>
      </trkpt>
      <trkpt lat="44.4374" lon="1.60736">
        <ele>415</ele>
        <time>2024-03-13T14:11:26Z</time>
      </trkpt>
      <trkpt lat="44.43739" lon="1.60735">
        <ele>415</ele>
        <time>2024-03-13T14:11:27Z</time>
      </trkpt>
      <trkpt lat="44.43737" lon="1.60735">
        <ele>415</ele>
        <time>2024-03-13T14:11:28Z</time>
      </trkpt>
      <trkpt lat="44.43736" lon="1.60736">
        <ele>415</ele>
        <time>2024-03-13T14:11:29Z</time>
      </trkpt>
      <trkpt lat="44.43735" lon="1.60736">
        <ele>415</ele>
        <time>2024-03-13T14:11:30Z</time>
      </trkpt>
      <trkpt lat="44.43734" lon="1.60736">
        <ele>415</ele>
        <time>2024-03-13T14:11:31Z</time>
      </trkpt>
      <trkpt lat="44.43733" lon="1.60737">
        <ele>415</ele>
        <time>2024-03-13T14:11:32Z</time>
      </trkpt>
      <trkpt lat="44.43732" lon="1.60737">
        <ele>415</ele>
        <time>2024-03-13T14:11:33Z</time>
      </trkpt>
      <trkpt lat="44.43731" lon="1.60737">
        <ele>415</ele>
        <time>2024-03-13T14:11:34Z</time>
      </trkpt>
      <trkpt lat="44.43729" lon="1.60737">
        <ele>415</ele>
        <time>2024-03-13T14:11:35Z</time>
      </trkpt>
      <trkpt lat="44.43728" lon="1.60737">
        <ele>415</ele>
        <time>2024-03-13T14:11:36Z</time>
      </trkpt>
      <trkpt lat="44.43727" lon="1.60737">
        <ele>415</ele>
        <time>2024-03-13T14:11:37Z</time>
      </trkpt>
      <trkpt lat="44.43726" lon="1.60736">
        <ele>415</ele>
        <time>2024-03-13T14:11:38Z</time>
      </trkpt>
      <trkpt lat="44.43724" lon="1.60736">
        <ele>415</ele>
        <time>2024-03-13T14:11:39Z</time>
      </trkpt>
      <trkpt lat="44.43723" lon="1.60736">
        <ele>414</ele>
        <time>2024-03-13T14:11:40Z</time>
      </trkpt>
      <trkpt lat="44.43722" lon="1.60736">
        <ele>414</ele>
        <time>2024-03-13T14:11:41Z</time>
      </trkpt>
      <trkpt lat="44.43721" lon="1.60735">
        <ele>414</ele>
        <time>2024-03-13T14:11:42Z</time>
      </trkpt>
      <trkpt lat="44.43719" lon="1.60735">
        <ele>414</ele>
        <time>2024-03-13T14:11:43Z</time>
      </trkpt>
      <trkpt lat="44.43718" lon="1.60735">
        <ele>414</ele>
        <time>2024-03-13T14:11:44Z</time>
      </trkpt>
      <trkpt lat="44.43716" lon="1.60735">
        <ele>414</ele>
        <time>2024-03-13T14:11:45Z</time>
      </trkpt>
      <trkpt lat="44.43715" lon="1.60734">
        <ele>414</ele>
        <time>2024-03-13T14:11:46Z</time>
      </trkpt>
      <trkpt lat="44.43713" lon="1.60734">
        <ele>414</ele>
        <time>2024-03-13T14:11:47Z</time>
      </trkpt>
      <trkpt lat="44.43711" lon="1.60734">
        <ele>414</ele>
        <time>2024-03-13T14:11:48Z</time>
      </trkpt>
      <trkpt lat="44.4371" lon="1.60735">
        <ele>414</ele>
        <time>2024-03-13T14:11:49Z</time>
      </trkpt>
      <trkpt lat="44.43708" lon="1.60735">
        <ele>414</ele>
        <time>2024-03-13T14:11:50Z</time>
      </trkpt>
      <trkpt lat="44.43707" lon="1.60735">
        <ele>414</ele>
        <time>2024-03-13T14:11:51Z</time>
      </trkpt>
      <trkpt lat="44.43706" lon="1.60735">
        <ele>413</ele>
        <time>2024-03-13T14:11:52Z</time>
      </trkpt>
      <trkpt lat="44.43705" lon="1.60735">
        <ele>413</ele>
        <time>2024-03-13T14:11:53Z</time>
      </trkpt>
      <trkpt lat="44.43704" lon="1.60734">
        <ele>413</ele>
        <time>2024-03-13T14:11:54Z</time>
      </trkpt>
      <trkpt lat="44.43702" lon="1.60734">
        <ele>413</ele>
        <time>2024-03-13T14:11:55Z</time>
      </trkpt>
      <trkpt lat="44.43701" lon="1.60734">
        <ele>413</ele>
        <time>2024-03-13T14:11:56Z</time>
      </trkpt>
      <trkpt lat="44.43699" lon="1.60734">
        <ele>413</ele>
        <time>2024-03-13T14:11:57Z</time>
      </trkpt>
      <trkpt lat="44.43698" lon="1.60734">
        <ele>412</ele>
        <time>2024-03-13T14:11:58Z</time>
      </trkpt>
      <trkpt lat="44.43697" lon="1.60734">
        <ele>413</ele>
        <time>2024-03-13T14:11:59Z</time>
      </trkpt>
      <trkpt lat="44.43695" lon="1.60734">
        <ele>413</ele>
        <time>2024-03-13T14:12:00Z</time>
      </trkpt>
      <trkpt lat="44.43694" lon="1.60734">
        <ele>413</ele>
        <time>2024-03-13T14:12:01Z</time>
      </trkpt>
      <trkpt lat="44.43693" lon="1.60734">
        <ele>413</ele>
        <time>2024-03-13T14:12:02Z</time>
      </trkpt>
      <trkpt lat="44.43692" lon="1.60734">
        <ele>413</ele>
        <time>2024-03-13T14:12:03Z</time>
      </trkpt>
      <trkpt lat="44.43691" lon="1.60734">
        <ele>413</ele>
        <time>2024-03-13T14:12:04Z</time>
      </trkpt>
      <trkpt lat="44.4369" lon="1.60734">
        <ele>413</ele>
        <time>2024-03-13T14:12:05Z</time>
      </trkpt>
      <trkpt lat="44.43689" lon="1.60734">
        <ele>413</ele>
        <time>2024-03-13T14:12:06Z</time>
      </trkpt>
      <trkpt lat="44.43688" lon="1.60734">
        <ele>413</ele>
        <time>2024-03-13T14:12:07Z</time>
      </trkpt>
      <trkpt lat="44.43687" lon="1.60735">
        <ele>413</ele>
        <time>2024-03-13T14:12:08Z</time>
      </trkpt>
      <trkpt lat="44.43686" lon="1.60735">
        <ele>412</ele>
        <time>2024-03-13T14:12:09Z</time>
      </trkpt>
      <trkpt lat="44.43685" lon="1.60735">
        <ele>412</ele>
        <time>2024-03-13T14:12:10Z</time>
      </trkpt>
      <trkpt lat="44.43684" lon="1.60735">
        <ele>412</ele>
        <time>2024-03-13T14:12:11Z</time>
      </trkpt>
      <trkpt lat="44.43682" lon="1.60735">
        <ele>412</ele>
        <time>2024-03-13T14:12:12Z</time>
      </trkpt>
      <trkpt lat="44.43681" lon="1.60735">
        <ele>412</ele>
        <time>2024-03-13T14:12:13Z</time>
      </trkpt>
      <trkpt lat="44.4368" lon="1.60735">
        <ele>411</ele>
        <time>2024-03-13T14:12:14Z</time>
      </trkpt>
      <trkpt lat="44.43679" lon="1.60734">
        <ele>412</ele>
        <time>2024-03-13T14:12:15Z</time>
      </trkpt>
      <trkpt lat="44.43678" lon="1.60734">
        <ele>411</ele>
        <time>2024-03-13T14:12:16Z</time>
      </trkpt>
      <trkpt lat="44.43677" lon="1.60734">
        <ele>412</ele>
        <time>2024-03-13T14:12:17Z</time>
      </trkpt>
      <trkpt lat="44.43676" lon="1.60734">
        <ele>411</ele>
        <time>2024-03-13T14:12:18Z</time>
      </trkpt>
      <trkpt lat="44.43675" lon="1.60734">
        <ele>411</ele>
        <time>2024-03-13T14:12:19Z</time>
      </trkpt>
      <trkpt lat="44.43673" lon="1.60734">
        <ele>411</ele>
        <time>2024-03-13T14:12:20Z</time>
      </trkpt>
      <trkpt lat="44.43672" lon="1.60734">
        <ele>412</ele>
        <time>2024-03-13T14:12:21Z</time>
      </trkpt>
      <trkpt lat="44.43671" lon="1.60734">
        <ele>411</ele>
        <time>2024-03-13T14:12:22Z</time>
      </trkpt>
      <trkpt lat="44.43669" lon="1.60734">
        <ele>411</ele>
        <time>2024-03-13T14:12:23Z</time>
      </trkpt>
      <trkpt lat="44.43668" lon="1.60733">
        <ele>411</ele>
        <time>2024-03-13T14:12:24Z</time>
      </trkpt>
      <trkpt lat="44.43666" lon="1.60734">
        <ele>411</ele>
        <time>2024-03-13T14:12:25Z</time>
      </trkpt>
      <trkpt lat="44.43665" lon="1.60734">
        <ele>411</ele>
        <time>2024-03-13T14:12:26Z</time>
      </trkpt>
      <trkpt lat="44.43664" lon="1.60734">
        <ele>410</ele>
        <time>2024-03-13T14:12:27Z</time>
      </trkpt>
      <trkpt lat="44.43662" lon="1.60734">
        <ele>410</ele>
        <time>2024-03-13T14:12:28Z</time>
      </trkpt>
      <trkpt lat="44.43661" lon="1.60734">
        <ele>410</ele>
        <time>2024-03-13T14:12:29Z</time>
      </trkpt>
      <trkpt lat="44.43659" lon="1.60734">
        <ele>410</ele>
        <time>2024-03-13T14:12:30Z</time>
      </trkpt>
      <trkpt lat="44.43657" lon="1.60734">
        <ele>410</ele>
        <time>2024-03-13T14:12:31Z</time>
      </trkpt>
      <trkpt lat="44.43656" lon="1.60734">
        <ele>409</ele>
        <time>2024-03-13T14:12:32Z</time>
      </trkpt>
      <trkpt lat="44.43655" lon="1.60734">
        <ele>409</ele>
        <time>2024-03-13T14:12:33Z</time>
      </trkpt>
      <trkpt lat="44.43653" lon="1.60734">
        <ele>409</ele>
        <time>2024-03-13T14:12:34Z</time>
      </trkpt>
      <trkpt lat="44.43652" lon="1.60734">
        <ele>409</ele>
        <time>2024-03-13T14:12:35Z</time>
      </trkpt>
      <trkpt lat="44.43651" lon="1.60734">
        <ele>409</ele>
        <time>2024-03-13T14:12:36Z</time>
      </trkpt>
      <trkpt lat="44.4365" lon="1.60735">
        <ele>409</ele>
        <time>2024-03-13T14:12:37Z</time>
      </trkpt>
      <trkpt lat="44.43649" lon="1.60735">
        <ele>409</ele>
        <time>2024-03-13T14:12:38Z</time>
      </trkpt>
      <trkpt lat="44.43648" lon="1.60735">
        <ele>409</ele>
        <time>2024-03-13T14:12:39Z</time>
      </trkpt>
      <trkpt lat="44.43647" lon="1.60734">
        <ele>409</ele>
        <time>2024-03-13T14:12:40Z</time>
      </trkpt>
      <trkpt lat="44.43645" lon="1.60735">
        <ele>409</ele>
        <time>2024-03-13T14:12:41Z</time>
      </trkpt>
      <trkpt lat="44.43644" lon="1.60734">
        <ele>409</ele>
        <time>2024-03-13T14:12:42Z</time>
      </trkpt>
      <trkpt lat="44.43643" lon="1.60734">
        <ele>408</ele>
        <time>2024-03-13T14:12:43Z</time>
      </trkpt>
      <trkpt lat="44.43642" lon="1.60735">
        <ele>408</ele>
        <time>2024-03-13T14:12:44Z</time>
      </trkpt>
      <trkpt lat="44.4364" lon="1.60735">
        <ele>408</ele>
        <time>2024-03-13T14:12:45Z</time>
      </trkpt>
      <trkpt lat="44.43639" lon="1.60735">
        <ele>407</ele>
        <time>2024-03-13T14:12:46Z</time>
      </trkpt>
      <trkpt lat="44.43637" lon="1.60736">
        <ele>407</ele>
        <time>2024-03-13T14:12:47Z</time>
      </trkpt>
      <trkpt lat="44.43636" lon="1.60736">
        <ele>407</ele>
        <time>2024-03-13T14:12:48Z</time>
      </trkpt>
      <trkpt lat="44.43634" lon="1.60736">
        <ele>407</ele>
        <time>2024-03-13T14:12:49Z</time>
      </trkpt>
      <trkpt lat="44.43633" lon="1.60737">
        <ele>406</ele>
        <time>2024-03-13T14:12:50Z</time>
      </trkpt>
      <trkpt lat="44.43631" lon="1.60737">
        <ele>406</ele>
        <time>2024-03-13T14:12:51Z</time>
      </trkpt>
      <trkpt lat="44.4363" lon="1.60738">
        <ele>406</ele>
        <time>2024-03-13T14:12:52Z</time>
      </trkpt>
      <trkpt lat="44.43629" lon="1.60738">
        <ele>406</ele>
        <time>2024-03-13T14:12:53Z</time>
      </trkpt>
      <trkpt lat="44.43628" lon="1.60739">
        <ele>406</ele>
        <time>2024-03-13T14:12:54Z</time>
      </trkpt>
      <trkpt lat="44.43627" lon="1.60739">
        <ele>406</ele>
        <time>2024-03-13T14:12:55Z</time>
      </trkpt>
      <trkpt lat="44.43626" lon="1.6074">
        <ele>406</ele>
        <time>2024-03-13T14:12:56Z</time>
      </trkpt>
      <trkpt lat="44.43624" lon="1.60741">
        <ele>406</ele>
        <time>2024-03-13T14:12:57Z</time>
      </trkpt>
      <trkpt lat="44.43623" lon="1.60741">
        <ele>405</ele>
        <time>2024-03-13T14:12:58Z</time>
      </trkpt>
      <trkpt lat="44.43621" lon="1.60742">
        <ele>406</ele>
        <time>2024-03-13T14:12:59Z</time>
      </trkpt>
      <trkpt lat="44.4362" lon="1.60743">
        <ele>405</ele>
        <time>2024-03-13T14:13:00Z</time>
      </trkpt>
      <trkpt lat="44.43619" lon="1.60744">
        <ele>406</ele>
        <time>2024-03-13T14:13:01Z</time>
      </trkpt>
      <trkpt lat="44.43617" lon="1.60744">
        <ele>406</ele>
        <time>2024-03-13T14:13:02Z</time>
      </trkpt>
      <trkpt lat="44.43616" lon="1.60745">
        <ele>406</ele>
        <time>2024-03-13T14:13:03Z</time>
      </trkpt>
      <trkpt lat="44.43615" lon="1.60745">
        <ele>406</ele>
        <time>2024-03-13T14:13:04Z</time>
      </trkpt>
      <trkpt lat="44.43613" lon="1.60746">
        <ele>406</ele>
        <time>2024-03-13T14:13:05Z</time>
      </trkpt>
      <trkpt lat="44.43612" lon="1.60747">
        <ele>406</ele>
        <time>2024-03-13T14:13:06Z</time>
      </trkpt>
      <trkpt lat="44.43611" lon="1.60747">
        <ele>406</ele>
        <time>2024-03-13T14:13:07Z</time>
      </trkpt>
      <trkpt lat="44.4361" lon="1.60747">
        <ele>406</ele>
        <time>2024-03-13T14:13:08Z</time>
      </trkpt>
      <trkpt lat="44.43608" lon="1.60748">
        <ele>406</ele>
        <time>2024-03-13T14:13:09Z</time>
      </trkpt>
      <trkpt lat="44.43608" lon="1.60748">
        <ele>406</ele>
        <time>2024-03-13T14:13:10Z</time>
      </trkpt>
      <trkpt lat="44.43607" lon="1.60749">
        <ele>406</ele>
        <time>2024-03-13T14:13:11Z</time>
      </trkpt>
      <trkpt lat="44.43605" lon="1.6075">
        <ele>406</ele>
        <time>2024-03-13T14:13:12Z</time>
      </trkpt>
      <trkpt lat="44.43604" lon="1.6075">
        <ele>406</ele>
        <time>2024-03-13T14:13:13Z</time>
      </trkpt>
      <trkpt lat="44.43604" lon="1.60751">
        <ele>406</ele>
        <time>2024-03-13T14:13:14Z</time>
      </trkpt>
      <trkpt lat="44.43603" lon="1.60752">
        <ele>406</ele>
        <time>2024-03-13T14:13:15Z</time>
      </trkpt>
      <trkpt lat="44.43602" lon="1.60753">
        <ele>407</ele>
        <time>2024-03-13T14:13:16Z</time>
      </trkpt>
      <trkpt lat="44.436" lon="1.60753">
        <ele>408</ele>
        <time>2024-03-13T14:13:17Z</time>
      </trkpt>
      <trkpt lat="44.436" lon="1.60754">
        <ele>407</ele>
        <time>2024-03-13T14:13:18Z</time>
      </trkpt>
      <trkpt lat="44.43599" lon="1.60755">
        <ele>407</ele>
        <time>2024-03-13T14:13:19Z</time>
      </trkpt>
      <trkpt lat="44.43599" lon="1.60756">
        <ele>407</ele>
        <time>2024-03-13T14:13:20Z</time>
      </trkpt>
      <trkpt lat="44.43598" lon="1.60757">
        <ele>407</ele>
        <time>2024-03-13T14:13:21Z</time>
      </trkpt>
      <trkpt lat="44.43597" lon="1.60758">
        <ele>407</ele>
        <time>2024-03-13T14:13:22Z</time>
      </trkpt>
      <trkpt lat="44.43596" lon="1.60759">
        <ele>407</ele>
        <time>2024-03-13T14:13:23Z</time>
      </trkpt>
      <trkpt lat="44.43596" lon="1.6076">
        <ele>407</ele>
        <time>2024-03-13T14:13:24Z</time>
      </trkpt>
      <trkpt lat="44.43595" lon="1.6076">
        <ele>407</ele>
        <time>2024-03-13T14:13:25Z</time>
      </trkpt>
      <trkpt lat="44.43594" lon="1.60761">
        <ele>407</ele>
        <time>2024-03-13T14:13:26Z</time>
      </trkpt>
      <trkpt lat="44.43593" lon="1.60761">
        <ele>407</ele>
        <time>2024-03-13T14:13:27Z</time>
      </trkpt>
      <trkpt lat="44.43592" lon="1.60762">
        <ele>407</ele>
        <time>2024-03-13T14:13:28Z</time>
      </trkpt>
      <trkpt lat="44.43592" lon="1.60763">
        <ele>407</ele>
        <time>2024-03-13T14:13:29Z</time>
      </trkpt>
      <trkpt lat="44.43591" lon="1.60764">
        <ele>407</ele>
        <time>2024-03-13T14:13:30Z</time>
      </trkpt>
      <trkpt lat="44.43589" lon="1.60765">
        <ele>407</ele>
        <time>2024-03-13T14:13:31Z</time>
      </trkpt>
      <trkpt lat="44.43588" lon="1.60766">
        <ele>407</ele>
        <time>2024-03-13T14:13:32Z</time>
      </trkpt>
      <trkpt lat="44.43587" lon="1.60767">
        <ele>407</ele>
        <time>2024-03-13T14:13:33Z</time>
      </trkpt>
      <trkpt lat="44.43586" lon="1.60769">
        <ele>407</ele>
        <time>2024-03-13T14:13:34Z</time>
      </trkpt>
      <trkpt lat="44.43585" lon="1.6077">
        <ele>407</ele>
        <time>2024-03-13T14:13:35Z</time>
      </trkpt>
      <trkpt lat="44.43584" lon="1.60771">
        <ele>407</ele>
        <time>2024-03-13T14:13:36Z</time>
      </trkpt>
      <trkpt lat="44.43583" lon="1.60772">
        <ele>407</ele>
        <time>2024-03-13T14:13:37Z</time>
      </trkpt>
      <trkpt lat="44.43583" lon="1.60773">
        <ele>407</ele>
        <time>2024-03-13T14:13:38Z</time>
      </trkpt>
      <trkpt lat="44.43582" lon="1.60774">
        <ele>407</ele>
        <time>2024-03-13T14:13:39Z</time>
      </trkpt>
      <trkpt lat="44.43581" lon="1.60775">
        <ele>407</ele>
        <time>2024-03-13T14:13:40Z</time>
      </trkpt>
      <trkpt lat="44.4358" lon="1.60776">
        <ele>407</ele>
        <time>2024-03-13T14:13:41Z</time>
      </trkpt>
      <trkpt lat="44.43579" lon="1.60777">
        <ele>407</ele>
        <time>2024-03-13T14:13:42Z</time>
      </trkpt>
      <trkpt lat="44.43578" lon="1.60779">
        <ele>407</ele>
        <time>2024-03-13T14:13:43Z</time>
      </trkpt>
      <trkpt lat="44.43577" lon="1.6078">
        <ele>407</ele>
        <time>2024-03-13T14:13:44Z</time>
      </trkpt>
      <trkpt lat="44.43576" lon="1.60781">
        <ele>407</ele>
        <time>2024-03-13T14:13:45Z</time>
      </trkpt>
      <trkpt lat="44.43576" lon="1.60783">
        <ele>407</ele>
        <time>2024-03-13T14:13:46Z</time>
      </trkpt>
      <trkpt lat="44.43576" lon="1.60783">
        <ele>407</ele>
        <time>2024-03-13T14:13:47Z</time>
      </trkpt>
      <trkpt lat="44.43575" lon="1.60784">
        <ele>408</ele>
        <time>2024-03-13T14:13:48Z</time>
      </trkpt>
      <trkpt lat="44.43574" lon="1.60785">
        <ele>408</ele>
        <time>2024-03-13T14:13:49Z</time>
      </trkpt>
      <trkpt lat="44.43573" lon="1.60785">
        <ele>408</ele>
        <time>2024-03-13T14:13:50Z</time>
      </trkpt>
      <trkpt lat="44.43573" lon="1.60786">
        <ele>408</ele>
        <time>2024-03-13T14:13:51Z</time>
      </trkpt>
      <trkpt lat="44.43571" lon="1.60786">
        <ele>408</ele>
        <time>2024-03-13T14:13:52Z</time>
      </trkpt>
      <trkpt lat="44.43571" lon="1.60786">
        <ele>407</ele>
        <time>2024-03-13T14:13:53Z</time>
      </trkpt>
      <trkpt lat="44.4357" lon="1.60785">
        <ele>407</ele>
        <time>2024-03-13T14:13:54Z</time>
      </trkpt>
      <trkpt lat="44.4357" lon="1.60785">
        <ele>407</ele>
        <time>2024-03-13T14:13:55Z</time>
      </trkpt>
      <trkpt lat="44.4357" lon="1.60785">
        <ele>407</ele>
        <time>2024-03-13T14:13:56Z</time>
      </trkpt>
      <trkpt lat="44.43569" lon="1.60785">
        <ele>407</ele>
        <time>2024-03-13T14:13:57Z</time>
      </trkpt>
      <trkpt lat="44.43569" lon="1.60785">
        <ele>407</ele>
        <time>2024-03-13T14:13:58Z</time>
      </trkpt>
      <trkpt lat="44.43569" lon="1.60785">
        <ele>407</ele>
        <time>2024-03-13T14:13:59Z</time>
      </trkpt>
      <trkpt lat="44.43568" lon="1.60786">
        <ele>407</ele>
        <time>2024-03-13T14:14:00Z</time>
      </trkpt>
      <trkpt lat="44.43567" lon="1.60786">
        <ele>406</ele>
        <time>2024-03-13T14:14:01Z</time>
      </trkpt>
      <trkpt lat="44.43567" lon="1.60786">
        <ele>406</ele>
        <time>2024-03-13T14:14:02Z</time>
      </trkpt>
      <trkpt lat="44.43567" lon="1.60786">
        <ele>406</ele>
        <time>2024-03-13T14:14:03Z</time>
      </trkpt>
      <trkpt lat="44.43567" lon="1.60786">
        <ele>406</ele>
        <time>2024-03-13T14:14:04Z</time>
      </trkpt>
      <trkpt lat="44.43567" lon="1.60787">
        <ele>407</ele>
        <time>2024-03-13T14:14:05Z</time>
      </trkpt>
      <trkpt lat="44.43567" lon="1.60788">
        <ele>407</ele>
        <time>2024-03-13T14:14:06Z</time>
      </trkpt>
      <trkpt lat="44.43567" lon="1.60789">
        <ele>407</ele>
        <time>2024-03-13T14:14:07Z</time>
      </trkpt>
      <trkpt lat="44.43567" lon="1.6079">
        <ele>406</ele>
        <time>2024-03-13T14:14:08Z</time>
      </trkpt>
      <trkpt lat="44.43567" lon="1.6079">
        <ele>406</ele>
        <time>2024-03-13T14:14:09Z</time>
      </trkpt>
      <trkpt lat="44.43567" lon="1.60789">
        <ele>407</ele>
        <time>2024-03-13T14:14:10Z</time>
      </trkpt>
      <trkpt lat="44.43567" lon="1.60789">
        <ele>407</ele>
        <time>2024-03-13T14:14:11Z</time>
      </trkpt>
      <trkpt lat="44.43567" lon="1.60789">
        <ele>407</ele>
        <time>2024-03-13T14:14:12Z</time>
      </trkpt>
      <trkpt lat="44.43567" lon="1.60789">
        <ele>407</ele>
        <time>2024-03-13T14:14:13Z</time>
      </trkpt>
      <trkpt lat="44.43567" lon="1.60789">
        <ele>407</ele>
        <time>2024-03-13T14:14:14Z</time>
      </trkpt>
      <trkpt lat="44.43567" lon="1.60789">
        <ele>407</ele>
        <time>2024-03-13T14:14:15Z</time>
      </trkpt>
      <trkpt lat="44.43567" lon="1.60789">
        <ele>407</ele>
        <time>2024-03-13T14:14:16Z</time>
      </trkpt>
      <trkpt lat="44.43567" lon="1.60789">
        <ele>407</ele>
        <time>2024-03-13T14:14:17Z</time>
      </trkpt>
      <trkpt lat="44.43567" lon="1.60789">
        <ele>407</ele>
        <time>2024-03-13T14:14:18Z</time>
      </trkpt>
      <trkpt lat="44.43567" lon="1.60789">
        <ele>407</ele>
        <time>2024-03-13T14:14:19Z</time>
      </trkpt>
      <trkpt lat="44.43567" lon="1.60789">
        <ele>407</ele>
        <time>2024-03-13T14:14:20Z</time>
      </trkpt>
      <trkpt lat="44.43567" lon="1.6079">
        <ele>405</ele>
        <time>2024-03-13T14:14:21Z</time>
      </trkpt>
      <trkpt lat="44.43566" lon="1.6079">
        <ele>405</ele>
        <time>2024-03-13T14:14:22Z</time>
      </trkpt>
      <trkpt lat="44.43567" lon="1.6079">
        <ele>405</ele>
        <time>2024-03-13T14:14:23Z</time>
      </trkpt>
      <trkpt lat="44.43567" lon="1.6079">
        <ele>405</ele>
        <time>2024-03-13T14:14:24Z</time>
      </trkpt>
      <trkpt lat="44.43568" lon="1.60789">
        <ele>405</ele>
        <time>2024-03-13T14:14:25Z</time>
      </trkpt>
      <trkpt lat="44.43569" lon="1.60789">
        <ele>405</ele>
        <time>2024-03-13T14:14:26Z</time>
      </trkpt>
      <trkpt lat="44.4357" lon="1.60789">
        <ele>405</ele>
        <time>2024-03-13T14:14:27Z</time>
      </trkpt>
      <trkpt lat="44.4357" lon="1.6079">
        <ele>405</ele>
        <time>2024-03-13T14:14:28Z</time>
      </trkpt>
      <trkpt lat="44.43571" lon="1.6079">
        <ele>405</ele>
        <time>2024-03-13T14:14:29Z</time>
      </trkpt>
      <trkpt lat="44.43571" lon="1.60791">
        <ele>405</ele>
        <time>2024-03-13T14:14:30Z</time>
      </trkpt>
      <trkpt lat="44.43571" lon="1.60791">
        <ele>405</ele>
        <time>2024-03-13T14:14:31Z</time>
      </trkpt>
      <trkpt lat="44.43571" lon="1.60792">
        <ele>404</ele>
        <time>2024-03-13T14:14:32Z</time>
      </trkpt>
      <trkpt lat="44.43572" lon="1.60793">
        <ele>404</ele>
        <time>2024-03-13T14:14:33Z</time>
      </trkpt>
      <trkpt lat="44.43571" lon="1.60792">
        <ele>404</ele>
        <time>2024-03-13T14:14:34Z</time>
      </trkpt>
      <trkpt lat="44.43571" lon="1.60793">
        <ele>404</ele>
        <time>2024-03-13T14:14:35Z</time>
      </trkpt>
      <trkpt lat="44.43572" lon="1.60794">
        <ele>404</ele>
        <time>2024-03-13T14:14:36Z</time>
      </trkpt>
      <trkpt lat="44.43572" lon="1.60795">
        <ele>404</ele>
        <time>2024-03-13T14:14:37Z</time>
      </trkpt>
      <trkpt lat="44.43572" lon="1.60796">
        <ele>404</ele>
        <time>2024-03-13T14:14:38Z</time>
      </trkpt>
      <trkpt lat="44.43572" lon="1.60798">
        <ele>404</ele>
        <time>2024-03-13T14:14:39Z</time>
      </trkpt>
      <trkpt lat="44.43572" lon="1.60799">
        <ele>404</ele>
        <time>2024-03-13T14:14:40Z</time>
      </trkpt>
      <trkpt lat="44.43571" lon="1.608">
        <ele>404</ele>
        <time>2024-03-13T14:14:41Z</time>
      </trkpt>
      <trkpt lat="44.43571" lon="1.60802">
        <ele>404</ele>
        <time>2024-03-13T14:14:42Z</time>
      </trkpt>
      <trkpt lat="44.43571" lon="1.60803">
        <ele>404</ele>
        <time>2024-03-13T14:14:43Z</time>
      </trkpt>
      <trkpt lat="44.43571" lon="1.60804">
        <ele>404</ele>
        <time>2024-03-13T14:14:44Z</time>
      </trkpt>
      <trkpt lat="44.43571" lon="1.60805">
        <ele>404</ele>
        <time>2024-03-13T14:14:45Z</time>
      </trkpt>
      <trkpt lat="44.43571" lon="1.60807">
        <ele>404</ele>
        <time>2024-03-13T14:14:46Z</time>
      </trkpt>
      <trkpt lat="44.4357" lon="1.60808">
        <ele>404</ele>
        <time>2024-03-13T14:14:47Z</time>
      </trkpt>
      <trkpt lat="44.4357" lon="1.60809">
        <ele>405</ele>
        <time>2024-03-13T14:14:48Z</time>
      </trkpt>
      <trkpt lat="44.4357" lon="1.6081">
        <ele>405</ele>
        <time>2024-03-13T14:14:49Z</time>
      </trkpt>
      <trkpt lat="44.43569" lon="1.60811">
        <ele>405</ele>
        <time>2024-03-13T14:14:50Z</time>
      </trkpt>
      <trkpt lat="44.43568" lon="1.60812">
        <ele>405</ele>
        <time>2024-03-13T14:14:51Z</time>
      </trkpt>
      <trkpt lat="44.43568" lon="1.60812">
        <ele>406</ele>
        <time>2024-03-13T14:14:52Z</time>
      </trkpt>
      <trkpt lat="44.43568" lon="1.60812">
        <ele>405</ele>
        <time>2024-03-13T14:14:53Z</time>
      </trkpt>
      <trkpt lat="44.43567" lon="1.60812">
        <ele>405</ele>
        <time>2024-03-13T14:14:54Z</time>
      </trkpt>
      <trkpt lat="44.43567" lon="1.60812">
        <ele>405</ele>
        <time>2024-03-13T14:14:55Z</time>
      </trkpt>
      <trkpt lat="44.43567" lon="1.60813">
        <ele>405</ele>
        <time>2024-03-13T14:14:56Z</time>
      </trkpt>
      <trkpt lat="44.43567" lon="1.60813">
        <ele>405</ele>
        <time>2024-03-13T14:14:57Z</time>
      </trkpt>
      <trkpt lat="44.43567" lon="1.60813">
        <ele>405</ele>
        <time>2024-03-13T14:14:58Z</time>
      </trkpt>
      <trkpt lat="44.43567" lon="1.60813">
        <ele>405</ele>
        <time>2024-03-13T14:14:59Z</time>
      </trkpt>
      <trkpt lat="44.43567" lon="1.60813">
        <ele>405</ele>
        <time>2024-03-13T14:15:00Z</time>
      </trkpt>
      <trkpt lat="44.43567" lon="1.60813">
        <ele>405</ele>
        <time>2024-03-13T14:15:01Z</time>
      </trkpt>
      <trkpt lat="44.43567" lon="1.60813">
        <ele>405</ele>
        <time>2024-03-13T14:15:02Z</time>
      </trkpt>
      <trkpt lat="44.43567" lon="1.60813">
        <ele>405</ele>
        <time>2024-03-13T14:15:03Z</time>
      </trkpt>
      <trkpt lat="44.43567" lon="1.60813">
        <ele>405</ele>
        <time>2024-03-13T14:15:04Z</time>
      </trkpt>
      <trkpt lat="44.43567" lon="1.60813">
        <ele>405</ele>
        <time>2024-03-13T14:15:05Z</time>
      </trkpt>
      <trkpt lat="44.43567" lon="1.60813">
        <ele>405</ele>
        <time>2024-03-13T14:15:06Z</time>
      </trkpt>
      <trkpt lat="44.43568" lon="1.60814">
        <ele>406</ele>
        <time>2024-03-13T14:15:07Z</time>
      </trkpt>
      <trkpt lat="44.43568" lon="1.60814">
        <ele>406</ele>
        <time>2024-03-13T14:15:08Z</time>
      </trkpt>
      <trkpt lat="44.43568" lon="1.60815">
        <ele>406</ele>
        <time>2024-03-13T14:15:09Z</time>
      </trkpt>
      <trkpt lat="44.43568" lon="1.60816">
        <ele>406</ele>
        <time>2024-03-13T14:15:10Z</time>
      </trkpt>
      <trkpt lat="44.43568" lon="1.60817">
        <ele>406</ele>
        <time>2024-03-13T14:15:11Z</time>
      </trkpt>
      <trkpt lat="44.43568" lon="1.60818">
        <ele>406</ele>
        <time>2024-03-13T14:15:12Z</time>
      </trkpt>
      <trkpt lat="44.43568" lon="1.60819">
        <ele>406</ele>
        <time>2024-03-13T14:15:13Z</time>
      </trkpt>
      <trkpt lat="44.43567" lon="1.6082">
        <ele>406</ele>
        <time>2024-03-13T14:15:14Z</time>
      </trkpt>
      <trkpt lat="44.43567" lon="1.60821">
        <ele>406</ele>
        <time>2024-03-13T14:15:15Z</time>
      </trkpt>
      <trkpt lat="44.43567" lon="1.60822">
        <ele>406</ele>
        <time>2024-03-13T14:15:16Z</time>
      </trkpt>
      <trkpt lat="44.43567" lon="1.60823">
        <ele>406</ele>
        <time>2024-03-13T14:15:17Z</time>
      </trkpt>
      <trkpt lat="44.43567" lon="1.60824">
        <ele>406</ele>
        <time>2024-03-13T14:15:18Z</time>
      </trkpt>
      <trkpt lat="44.43567" lon="1.60825">
        <ele>406</ele>
        <time>2024-03-13T14:15:19Z</time>
      </trkpt>
      <trkpt lat="44.43567" lon="1.60826">
        <ele>406</ele>
        <time>2024-03-13T14:15:20Z</time>
      </trkpt>
      <trkpt lat="44.43567" lon="1.60828">
        <ele>406</ele>
        <time>2024-03-13T14:15:21Z</time>
      </trkpt>
      <trkpt lat="44.43566" lon="1.60829">
        <ele>406</ele>
        <time>2024-03-13T14:15:22Z</time>
      </trkpt>
      <trkpt lat="44.43566" lon="1.60831">
        <ele>406</ele>
        <time>2024-03-13T14:15:23Z</time>
      </trkpt>
      <trkpt lat="44.43566" lon="1.60833">
        <ele>406</ele>
        <time>2024-03-13T14:15:24Z</time>
      </trkpt>
      <trkpt lat="44.43566" lon="1.60834">
        <ele>406</ele>
        <time>2024-03-13T14:15:25Z</time>
      </trkpt>
      <trkpt lat="44.43565" lon="1.60835">
        <ele>405</ele>
        <time>2024-03-13T14:15:26Z</time>
      </trkpt>
      <trkpt lat="44.43566" lon="1.60836">
        <ele>405</ele>
        <time>2024-03-13T14:15:27Z</time>
      </trkpt>
      <trkpt lat="44.43566" lon="1.60837">
        <ele>405</ele>
        <time>2024-03-13T14:15:28Z</time>
      </trkpt>
      <trkpt lat="44.43566" lon="1.60838">
        <ele>406</ele>
        <time>2024-03-13T14:15:29Z</time>
      </trkpt>
      <trkpt lat="44.43567" lon="1.60839">
        <ele>406</ele>
        <time>2024-03-13T14:15:30Z</time>
      </trkpt>
      <trkpt lat="44.43567" lon="1.6084">
        <ele>406</ele>
        <time>2024-03-13T14:15:31Z</time>
      </trkpt>
      <trkpt lat="44.43568" lon="1.60841">
        <ele>406</ele>
        <time>2024-03-13T14:15:32Z</time>
      </trkpt>
      <trkpt lat="44.43568" lon="1.60842">
        <ele>406</ele>
        <time>2024-03-13T14:15:33Z</time>
      </trkpt>
      <trkpt lat="44.43569" lon="1.60843">
        <ele>405</ele>
        <time>2024-03-13T14:15:34Z</time>
      </trkpt>
      <trkpt lat="44.4357" lon="1.60844">
        <ele>405</ele>
        <time>2024-03-13T14:15:35Z</time>
      </trkpt>
      <trkpt lat="44.4357" lon="1.60845">
        <ele>405</ele>
        <time>2024-03-13T14:15:36Z</time>
      </trkpt>
      <trkpt lat="44.43571" lon="1.60846">
        <ele>406</ele>
        <time>2024-03-13T14:15:37Z</time>
      </trkpt>
      <trkpt lat="44.43571" lon="1.60846">
        <ele>406</ele>
        <time>2024-03-13T14:15:38Z</time>
      </trkpt>
      <trkpt lat="44.43572" lon="1.60846">
        <ele>406</ele>
        <time>2024-03-13T14:15:39Z</time>
      </trkpt>
      <trkpt lat="44.43573" lon="1.60846">
        <ele>406</ele>
        <time>2024-03-13T14:15:40Z</time>
      </trkpt>
      <trkpt lat="44.43573" lon="1.60847">
        <ele>406</ele>
        <time>2024-03-13T14:15:41Z</time>
      </trkpt>
      <trkpt lat="44.43574" lon="1.60848">
        <ele>406</ele>
        <time>2024-03-13T14:15:42Z</time>
      </trkpt>
      <trkpt lat="44.43575" lon="1.60849">
        <ele>406</ele>
        <time>2024-03-13T14:15:43Z</time>
      </trkpt>
      <trkpt lat="44.43575" lon="1.6085">
        <ele>406</ele>
        <time>2024-03-13T14:15:44Z</time>
      </trkpt>
      <trkpt lat="44.43575" lon="1.6085">
        <ele>406</ele>
        <time>2024-03-13T14:15:45Z</time>
      </trkpt>
      <trkpt lat="44.43576" lon="1.60852">
        <ele>406</ele>
        <time>2024-03-13T14:15:46Z</time>
      </trkpt>
      <trkpt lat="44.43576" lon="1.60853">
        <ele>406</ele>
        <time>2024-03-13T14:15:47Z</time>
      </trkpt>
      <trkpt lat="44.43577" lon="1.60853">
        <ele>406</ele>
        <time>2024-03-13T14:15:48Z</time>
      </trkpt>
      <trkpt lat="44.43578" lon="1.60854">
        <ele>406</ele>
        <time>2024-03-13T14:15:49Z</time>
      </trkpt>
      <trkpt lat="44.43579" lon="1.60854">
        <ele>406</ele>
        <time>2024-03-13T14:15:50Z</time>
      </trkpt>
      <trkpt lat="44.4358" lon="1.60855">
        <ele>405</ele>
        <time>2024-03-13T14:15:51Z</time>
      </trkpt>
      <trkpt lat="44.4358" lon="1.60856">
        <ele>405</ele>
        <time>2024-03-13T14:15:52Z</time>
      </trkpt>
      <trkpt lat="44.43581" lon="1.60857">
        <ele>405</ele>
        <time>2024-03-13T14:15:53Z</time>
      </trkpt>
      <trkpt lat="44.43581" lon="1.60857">
        <ele>405</ele>
        <time>2024-03-13T14:15:54Z</time>
      </trkpt>
      <trkpt lat="44.43581" lon="1.60857">
        <ele>405</ele>
        <time>2024-03-13T14:15:55Z</time>
      </trkpt>
      <trkpt lat="44.43582" lon="1.60858">
        <ele>406</ele>
        <time>2024-03-13T14:15:56Z</time>
      </trkpt>
      <trkpt lat="44.43583" lon="1.60859">
        <ele>405</ele>
        <time>2024-03-13T14:15:57Z</time>
      </trkpt>
      <trkpt lat="44.43583" lon="1.60861">
        <ele>405</ele>
        <time>2024-03-13T14:15:58Z</time>
      </trkpt>
      <trkpt lat="44.43584" lon="1.60861">
        <ele>405</ele>
        <time>2024-03-13T14:15:59Z</time>
      </trkpt>
      <trkpt lat="44.43584" lon="1.60861">
        <ele>405</ele>
        <time>2024-03-13T14:16:00Z</time>
      </trkpt>
      <trkpt lat="44.43584" lon="1.60861">
        <ele>405</ele>
        <time>2024-03-13T14:16:01Z</time>
      </trkpt>
      <trkpt lat="44.43586" lon="1.60864">
        <ele>405</ele>
        <time>2024-03-13T14:16:02Z</time>
      </trkpt>
      <trkpt lat="44.43587" lon="1.60864">
        <ele>405</ele>
        <time>2024-03-13T14:16:03Z</time>
      </trkpt>
      <trkpt lat="44.43588" lon="1.60865">
        <ele>405</ele>
        <time>2024-03-13T14:16:05Z</time>
      </trkpt>
      <trkpt lat="44.43589" lon="1.60866">
        <ele>405</ele>
        <time>2024-03-13T14:16:06Z</time>
      </trkpt>
      <trkpt lat="44.4359" lon="1.60867">
        <ele>405</ele>
        <time>2024-03-13T14:16:07Z</time>
      </trkpt>
      <trkpt lat="44.43591" lon="1.60868">
        <ele>405</ele>
        <time>2024-03-13T14:16:08Z</time>
      </trkpt>
      <trkpt lat="44.43592" lon="1.60869">
        <ele>405</ele>
        <time>2024-03-13T14:16:09Z</time>
      </trkpt>
      <trkpt lat="44.43592" lon="1.6087">
        <ele>405</ele>
        <time>2024-03-13T14:16:10Z</time>
      </trkpt>
      <trkpt lat="44.43594" lon="1.6087">
        <ele>405</ele>
        <time>2024-03-13T14:16:11Z</time>
      </trkpt>
      <trkpt lat="44.43594" lon="1.60871">
        <ele>405</ele>
        <time>2024-03-13T14:16:12Z</time>
      </trkpt>
      <trkpt lat="44.43596" lon="1.60871">
        <ele>405</ele>
        <time>2024-03-13T14:16:13Z</time>
      </trkpt>
      <trkpt lat="44.43596" lon="1.6087">
        <ele>405</ele>
        <time>2024-03-13T14:16:14Z</time>
      </trkpt>
      <trkpt lat="44.43597" lon="1.6087">
        <ele>405</ele>
        <time>2024-03-13T14:16:15Z</time>
      </trkpt>
      <trkpt lat="44.43599" lon="1.6087">
        <ele>405</ele>
        <time>2024-03-13T14:16:16Z</time>
      </trkpt>
      <trkpt lat="44.43601" lon="1.60871">
        <ele>405</ele>
        <time>2024-03-13T14:16:17Z</time>
      </trkpt>
      <trkpt lat="44.43602" lon="1.60872">
        <ele>404</ele>
        <time>2024-03-13T14:16:18Z</time>
      </trkpt>
      <trkpt lat="44.43604" lon="1.60871">
        <ele>403</ele>
        <time>2024-03-13T14:16:19Z</time>
      </trkpt>
      <trkpt lat="44.43606" lon="1.60872">
        <ele>404</ele>
        <time>2024-03-13T14:16:20Z</time>
      </trkpt>
      <trkpt lat="44.43607" lon="1.60873">
        <ele>405</ele>
        <time>2024-03-13T14:16:21Z</time>
      </trkpt>
      <trkpt lat="44.43609" lon="1.60874">
        <ele>405</ele>
        <time>2024-03-13T14:16:22Z</time>
      </trkpt>
      <trkpt lat="44.43611" lon="1.60874">
        <ele>405</ele>
        <time>2024-03-13T14:16:23Z</time>
      </trkpt>
      <trkpt lat="44.43613" lon="1.60875">
        <ele>405</ele>
        <time>2024-03-13T14:16:24Z</time>
      </trkpt>
      <trkpt lat="44.43615" lon="1.60876">
        <ele>404</ele>
        <time>2024-03-13T14:16:25Z</time>
      </trkpt>
      <trkpt lat="44.43616" lon="1.60876">
        <ele>404</ele>
        <time>2024-03-13T14:16:26Z</time>
      </trkpt>
      <trkpt lat="44.43617" lon="1.60876">
        <ele>403</ele>
        <time>2024-03-13T14:16:27Z</time>
      </trkpt>
      <trkpt lat="44.43618" lon="1.60877">
        <ele>403</ele>
        <time>2024-03-13T14:16:28Z</time>
      </trkpt>
      <trkpt lat="44.43618" lon="1.60878">
        <ele>402</ele>
        <time>2024-03-13T14:16:29Z</time>
      </trkpt>
      <trkpt lat="44.43619" lon="1.60879">
        <ele>402</ele>
        <time>2024-03-13T14:16:30Z</time>
      </trkpt>
      <trkpt lat="44.4362" lon="1.6088">
        <ele>402</ele>
        <time>2024-03-13T14:16:31Z</time>
      </trkpt>
      <trkpt lat="44.43621" lon="1.60881">
        <ele>401</ele>
        <time>2024-03-13T14:16:32Z</time>
      </trkpt>
      <trkpt lat="44.43621" lon="1.60882">
        <ele>401</ele>
        <time>2024-03-13T14:16:33Z</time>
      </trkpt>
      <trkpt lat="44.43621" lon="1.60883">
        <ele>401</ele>
        <time>2024-03-13T14:16:34Z</time>
      </trkpt>
      <trkpt lat="44.43622" lon="1.60884">
        <ele>401</ele>
        <time>2024-03-13T14:16:35Z</time>
      </trkpt>
      <trkpt lat="44.43623" lon="1.60885">
        <ele>401</ele>
        <time>2024-03-13T14:16:36Z</time>
      </trkpt>
      <trkpt lat="44.43624" lon="1.60886">
        <ele>401</ele>
        <time>2024-03-13T14:16:37Z</time>
      </trkpt>
      <trkpt lat="44.43624" lon="1.60887">
        <ele>400</ele>
        <time>2024-03-13T14:16:38Z</time>
      </trkpt>
      <trkpt lat="44.43625" lon="1.60888">
        <ele>401</ele>
        <time>2024-03-13T14:16:39Z</time>
      </trkpt>
      <trkpt lat="44.43625" lon="1.60889">
        <ele>401</ele>
        <time>2024-03-13T14:16:40Z</time>
      </trkpt>
      <trkpt lat="44.43626" lon="1.6089">
        <ele>401</ele>
        <time>2024-03-13T14:16:41Z</time>
      </trkpt>
      <trkpt lat="44.43626" lon="1.60891">
        <ele>401</ele>
        <time>2024-03-13T14:16:42Z</time>
      </trkpt>
      <trkpt lat="44.43626" lon="1.60892">
        <ele>401</ele>
        <time>2024-03-13T14:16:43Z</time>
      </trkpt>
      <trkpt lat="44.43626" lon="1.60893">
        <ele>401</ele>
        <time>2024-03-13T14:16:44Z</time>
      </trkpt>
      <trkpt lat="44.43626" lon="1.60894">
        <ele>400</ele>
        <time>2024-03-13T14:16:45Z</time>
      </trkpt>
      <trkpt lat="44.43626" lon="1.60894">
        <ele>401</ele>
        <time>2024-03-13T14:16:46Z</time>
      </trkpt>
      <trkpt lat="44.43626" lon="1.60895">
        <ele>401</ele>
        <time>2024-03-13T14:16:47Z</time>
      </trkpt>
      <trkpt lat="44.43626" lon="1.60895">
        <ele>401</ele>
        <time>2024-03-13T14:16:48Z</time>
      </trkpt>
      <trkpt lat="44.43626" lon="1.60895">
        <ele>401</ele>
        <time>2024-03-13T14:16:49Z</time>
      </trkpt>
      <trkpt lat="44.43627" lon="1.60898">
        <ele>401</ele>
        <time>2024-03-13T14:16:50Z</time>
      </trkpt>
      <trkpt lat="44.43627" lon="1.60899">
        <ele>401</ele>
        <time>2024-03-13T14:16:51Z</time>
      </trkpt>
      <trkpt lat="44.43627" lon="1.609">
        <ele>402</ele>
        <time>2024-03-13T14:16:52Z</time>
      </trkpt>
      <trkpt lat="44.43627" lon="1.60901">
        <ele>401</ele>
        <time>2024-03-13T14:16:53Z</time>
      </trkpt>
      <trkpt lat="44.43627" lon="1.60902">
        <ele>402</ele>
        <time>2024-03-13T14:16:54Z</time>
      </trkpt>
      <trkpt lat="44.43627" lon="1.60903">
        <ele>402</ele>
        <time>2024-03-13T14:16:55Z</time>
      </trkpt>
      <trkpt lat="44.43628" lon="1.60904">
        <ele>402</ele>
        <time>2024-03-13T14:16:56Z</time>
      </trkpt>
      <trkpt lat="44.43628" lon="1.60905">
        <ele>402</ele>
        <time>2024-03-13T14:16:57Z</time>
      </trkpt>
      <trkpt lat="44.43628" lon="1.60906">
        <ele>403</ele>
        <time>2024-03-13T14:16:58Z</time>
      </trkpt>
      <trkpt lat="44.43628" lon="1.60907">
        <ele>403</ele>
        <time>2024-03-13T14:16:59Z</time>
      </trkpt>
      <trkpt lat="44.43628" lon="1.60909">
        <ele>403</ele>
        <time>2024-03-13T14:17:00Z</time>
      </trkpt>
      <trkpt lat="44.43629" lon="1.6091">
        <ele>403</ele>
        <time>2024-03-13T14:17:01Z</time>
      </trkpt>
      <trkpt lat="44.43629" lon="1.60911">
        <ele>403</ele>
        <time>2024-03-13T14:17:02Z</time>
      </trkpt>
      <trkpt lat="44.43629" lon="1.60913">
        <ele>403</ele>
        <time>2024-03-13T14:17:03Z</time>
      </trkpt>
      <trkpt lat="44.4363" lon="1.60914">
        <ele>403</ele>
        <time>2024-03-13T14:17:04Z</time>
      </trkpt>
      <trkpt lat="44.43631" lon="1.60915">
        <ele>403</ele>
        <time>2024-03-13T14:17:05Z</time>
      </trkpt>
      <trkpt lat="44.43631" lon="1.60917">
        <ele>403</ele>
        <time>2024-03-13T14:17:06Z</time>
      </trkpt>
      <trkpt lat="44.43632" lon="1.60918">
        <ele>403</ele>
        <time>2024-03-13T14:17:07Z</time>
      </trkpt>
      <trkpt lat="44.43632" lon="1.60919">
        <ele>403</ele>
        <time>2024-03-13T14:17:08Z</time>
      </trkpt>
      <trkpt lat="44.43632" lon="1.6092">
        <ele>403</ele>
        <time>2024-03-13T14:17:09Z</time>
      </trkpt>
      <trkpt lat="44.43633" lon="1.60922">
        <ele>403</ele>
        <time>2024-03-13T14:17:10Z</time>
      </trkpt>
      <trkpt lat="44.43633" lon="1.60923">
        <ele>402</ele>
        <time>2024-03-13T14:17:11Z</time>
      </trkpt>
      <trkpt lat="44.43634" lon="1.60925">
        <ele>402</ele>
        <time>2024-03-13T14:17:12Z</time>
      </trkpt>
      <trkpt lat="44.43635" lon="1.60926">
        <ele>403</ele>
        <time>2024-03-13T14:17:13Z</time>
      </trkpt>
      <trkpt lat="44.43635" lon="1.60927">
        <ele>403</ele>
        <time>2024-03-13T14:17:14Z</time>
      </trkpt>
      <trkpt lat="44.43636" lon="1.60929">
        <ele>403</ele>
        <time>2024-03-13T14:17:15Z</time>
      </trkpt>
      <trkpt lat="44.43636" lon="1.60931">
        <ele>403</ele>
        <time>2024-03-13T14:17:16Z</time>
      </trkpt>
      <trkpt lat="44.43637" lon="1.60932">
        <ele>403</ele>
        <time>2024-03-13T14:17:17Z</time>
      </trkpt>
      <trkpt lat="44.43637" lon="1.60933">
        <ele>403</ele>
        <time>2024-03-13T14:17:18Z</time>
      </trkpt>
      <trkpt lat="44.43638" lon="1.60935">
        <ele>403</ele>
        <time>2024-03-13T14:17:19Z</time>
      </trkpt>
      <trkpt lat="44.43638" lon="1.60937">
        <ele>403</ele>
        <time>2024-03-13T14:17:20Z</time>
      </trkpt>
      <trkpt lat="44.43638" lon="1.60939">
        <ele>403</ele>
        <time>2024-03-13T14:17:21Z</time>
      </trkpt>
      <trkpt lat="44.43638" lon="1.60939">
        <ele>403</ele>
        <time>2024-03-13T14:17:22Z</time>
      </trkpt>
      <trkpt lat="44.43639" lon="1.60939">
        <ele>403</ele>
        <time>2024-03-13T14:17:23Z</time>
      </trkpt>
      <trkpt lat="44.43639" lon="1.6094">
        <ele>403</ele>
        <time>2024-03-13T14:17:24Z</time>
      </trkpt>
      <trkpt lat="44.4364" lon="1.60941">
        <ele>403</ele>
        <time>2024-03-13T14:17:25Z</time>
      </trkpt>
      <trkpt lat="44.43641" lon="1.60943">
        <ele>403</ele>
        <time>2024-03-13T14:17:26Z</time>
      </trkpt>
      <trkpt lat="44.43642" lon="1.60944">
        <ele>403</ele>
        <time>2024-03-13T14:17:27Z</time>
      </trkpt>
      <trkpt lat="44.43644" lon="1.60945">
        <ele>403</ele>
        <time>2024-03-13T14:17:28Z</time>
      </trkpt>
      <trkpt lat="44.43644" lon="1.60946">
        <ele>403</ele>
        <time>2024-03-13T14:17:29Z</time>
      </trkpt>
      <trkpt lat="44.43645" lon="1.60948">
        <ele>403</ele>
        <time>2024-03-13T14:17:30Z</time>
      </trkpt>
      <trkpt lat="44.43645" lon="1.60949">
        <ele>403</ele>
        <time>2024-03-13T14:17:31Z</time>
      </trkpt>
      <trkpt lat="44.43645" lon="1.6095">
        <ele>403</ele>
        <time>2024-03-13T14:17:32Z</time>
      </trkpt>
      <trkpt lat="44.43646" lon="1.60952">
        <ele>403</ele>
        <time>2024-03-13T14:17:33Z</time>
      </trkpt>
      <trkpt lat="44.43646" lon="1.60952">
        <ele>403</ele>
        <time>2024-03-13T14:17:34Z</time>
      </trkpt>
      <trkpt lat="44.43646" lon="1.60952">
        <ele>403</ele>
        <time>2024-03-13T14:17:35Z</time>
      </trkpt>
      <trkpt lat="44.43647" lon="1.60955">
        <ele>404</ele>
        <time>2024-03-13T14:17:36Z</time>
      </trkpt>
      <trkpt lat="44.43648" lon="1.60956">
        <ele>404</ele>
        <time>2024-03-13T14:17:37Z</time>
      </trkpt>
      <trkpt lat="44.43649" lon="1.60957">
        <ele>404</ele>
        <time>2024-03-13T14:17:38Z</time>
      </trkpt>
      <trkpt lat="44.43649" lon="1.60958">
        <ele>404</ele>
        <time>2024-03-13T14:17:39Z</time>
      </trkpt>
      <trkpt lat="44.43649" lon="1.60959">
        <ele>404</ele>
        <time>2024-03-13T14:17:40Z</time>
      </trkpt>
      <trkpt lat="44.43649" lon="1.60959">
        <ele>404</ele>
        <time>2024-03-13T14:17:41Z</time>
      </trkpt>
      <trkpt lat="44.43649" lon="1.60959">
        <ele>404</ele>
        <time>2024-03-13T14:17:42Z</time>
      </trkpt>
      <trkpt lat="44.43651" lon="1.60962">
        <ele>404</ele>
        <time>2024-03-13T14:17:43Z</time>
      </trkpt>
      <trkpt lat="44.43651" lon="1.60963">
        <ele>404</ele>
        <time>2024-03-13T14:17:44Z</time>
      </trkpt>
      <trkpt lat="44.43652" lon="1.60964">
        <ele>403</ele>
        <time>2024-03-13T14:17:45Z</time>
      </trkpt>
      <trkpt lat="44.43652" lon="1.60965">
        <ele>403</ele>
        <time>2024-03-13T14:17:46Z</time>
      </trkpt>
      <trkpt lat="44.43652" lon="1.60966">
        <ele>403</ele>
        <time>2024-03-13T14:17:47Z</time>
      </trkpt>
      <trkpt lat="44.43652" lon="1.60968">
        <ele>403</ele>
        <time>2024-03-13T14:17:48Z</time>
      </trkpt>
      <trkpt lat="44.43653" lon="1.6097">
        <ele>403</ele>
        <time>2024-03-13T14:17:49Z</time>
      </trkpt>
      <trkpt lat="44.43653" lon="1.60972">
        <ele>404</ele>
        <time>2024-03-13T14:17:50Z</time>
      </trkpt>
      <trkpt lat="44.43653" lon="1.60973">
        <ele>404</ele>
        <time>2024-03-13T14:17:51Z</time>
      </trkpt>
      <trkpt lat="44.43654" lon="1.60975">
        <ele>404</ele>
        <time>2024-03-13T14:17:52Z</time>
      </trkpt>
      <trkpt lat="44.43654" lon="1.60977">
        <ele>404</ele>
        <time>2024-03-13T14:17:53Z</time>
      </trkpt>
      <trkpt lat="44.43655" lon="1.60979">
        <ele>404</ele>
        <time>2024-03-13T14:17:54Z</time>
      </trkpt>
      <trkpt lat="44.43655" lon="1.60981">
        <ele>404</ele>
        <time>2024-03-13T14:17:55Z</time>
      </trkpt>
      <trkpt lat="44.43655" lon="1.60983">
        <ele>404</ele>
        <time>2024-03-13T14:17:56Z</time>
      </trkpt>
      <trkpt lat="44.43655" lon="1.60985">
        <ele>404</ele>
        <time>2024-03-13T14:17:57Z</time>
      </trkpt>
      <trkpt lat="44.43656" lon="1.60986">
        <ele>405</ele>
        <time>2024-03-13T14:17:58Z</time>
      </trkpt>
      <trkpt lat="44.43657" lon="1.60988">
        <ele>405</ele>
        <time>2024-03-13T14:17:59Z</time>
      </trkpt>
      <trkpt lat="44.43657" lon="1.60989">
        <ele>405</ele>
        <time>2024-03-13T14:18:00Z</time>
      </trkpt>
      <trkpt lat="44.43657" lon="1.6099">
        <ele>406</ele>
        <time>2024-03-13T14:18:01Z</time>
      </trkpt>
      <trkpt lat="44.43657" lon="1.60991">
        <ele>406</ele>
        <time>2024-03-13T14:18:02Z</time>
      </trkpt>
      <trkpt lat="44.43657" lon="1.60992">
        <ele>406</ele>
        <time>2024-03-13T14:18:03Z</time>
      </trkpt>
      <trkpt lat="44.43657" lon="1.60992">
        <ele>406</ele>
        <time>2024-03-13T14:18:04Z</time>
      </trkpt>
      <trkpt lat="44.43657" lon="1.60992">
        <ele>406</ele>
        <time>2024-03-13T14:18:05Z</time>
      </trkpt>
      <trkpt lat="44.43658" lon="1.60997">
        <ele>406</ele>
        <time>2024-03-13T14:18:06Z</time>
      </trkpt>
      <trkpt lat="44.43659" lon="1.60997">
        <ele>405</ele>
        <time>2024-03-13T14:18:07Z</time>
      </trkpt>
      <trkpt lat="44.43659" lon="1.60997">
        <ele>405</ele>
        <time>2024-03-13T14:18:08Z</time>
      </trkpt>
      <trkpt lat="44.43659" lon="1.60998">
        <ele>404</ele>
        <time>2024-03-13T14:18:09Z</time>
      </trkpt>
      <trkpt lat="44.43659" lon="1.60998">
        <ele>404</ele>
        <time>2024-03-13T14:18:10Z</time>
      </trkpt>
      <trkpt lat="44.43659" lon="1.60998">
        <ele>404</ele>
        <time>2024-03-13T14:18:11Z</time>
      </trkpt>
      <trkpt lat="44.43659" lon="1.60998">
        <ele>404</ele>
        <time>2024-03-13T14:18:12Z</time>
      </trkpt>
      <trkpt lat="44.43659" lon="1.60998">
        <ele>404</ele>
        <time>2024-03-13T14:18:14Z</time>
      </trkpt>
      <trkpt lat="44.43659" lon="1.60998">
        <ele>404</ele>
        <time>2024-03-13T14:18:15Z</time>
      </trkpt>
      <trkpt lat="44.43659" lon="1.60998">
        <ele>404</ele>
        <time>2024-03-13T14:18:16Z</time>
      </trkpt>
      <trkpt lat="44.43659" lon="1.60998">
        <ele>404</ele>
        <time>2024-03-13T14:18:17Z</time>
      </trkpt>
      <trkpt lat="44.43658" lon="1.60999">
        <ele>404</ele>
        <time>2024-03-13T14:18:18Z</time>
      </trkpt>
      <trkpt lat="44.43658" lon="1.61">
        <ele>404</ele>
        <time>2024-03-13T14:18:19Z</time>
      </trkpt>
      <trkpt lat="44.43658" lon="1.61001">
        <ele>404</ele>
        <time>2024-03-13T14:18:20Z</time>
      </trkpt>
      <trkpt lat="44.43657" lon="1.61002">
        <ele>404</ele>
        <time>2024-03-13T14:18:21Z</time>
      </trkpt>
      <trkpt lat="44.43657" lon="1.61003">
        <ele>404</ele>
        <time>2024-03-13T14:18:22Z</time>
      </trkpt>
      <trkpt lat="44.43657" lon="1.61004">
        <ele>404</ele>
        <time>2024-03-13T14:18:23Z</time>
      </trkpt>
      <trkpt lat="44.43656" lon="1.61005">
        <ele>404</ele>
        <time>2024-03-13T14:18:24Z</time>
      </trkpt>
      <trkpt lat="44.43656" lon="1.61007">
        <ele>404</ele>
        <time>2024-03-13T14:18:25Z</time>
      </trkpt>
      <trkpt lat="44.43655" lon="1.61008">
        <ele>404</ele>
        <time>2024-03-13T14:18:26Z</time>
      </trkpt>
      <trkpt lat="44.43655" lon="1.61008">
        <ele>404</ele>
        <time>2024-03-13T14:18:27Z</time>
      </trkpt>
      <trkpt lat="44.43655" lon="1.61009">
        <ele>404</ele>
        <time>2024-03-13T14:18:28Z</time>
      </trkpt>
      <trkpt lat="44.43655" lon="1.6101">
        <ele>404</ele>
        <time>2024-03-13T14:18:29Z</time>
      </trkpt>
      <trkpt lat="44.43654" lon="1.61011">
        <ele>404</ele>
        <time>2024-03-13T14:18:30Z</time>
      </trkpt>
      <trkpt lat="44.43654" lon="1.61013">
        <ele>404</ele>
        <time>2024-03-13T14:18:31Z</time>
      </trkpt>
      <trkpt lat="44.43653" lon="1.61014">
        <ele>404</ele>
        <time>2024-03-13T14:18:32Z</time>
      </trkpt>
      <trkpt lat="44.43652" lon="1.61015">
        <ele>404</ele>
        <time>2024-03-13T14:18:33Z</time>
      </trkpt>
      <trkpt lat="44.43651" lon="1.61018">
        <ele>404</ele>
        <time>2024-03-13T14:18:34Z</time>
      </trkpt>
      <trkpt lat="44.4365" lon="1.61021">
        <ele>404</ele>
        <time>2024-03-13T14:18:36Z</time>
      </trkpt>
      <trkpt lat="44.43649" lon="1.61022">
        <ele>404</ele>
        <time>2024-03-13T14:18:38Z</time>
      </trkpt>
      <trkpt lat="44.43647" lon="1.61025">
        <ele>404</ele>
        <time>2024-03-13T14:18:39Z</time>
      </trkpt>
      <trkpt lat="44.43647" lon="1.61026">
        <ele>404</ele>
        <time>2024-03-13T14:18:41Z</time>
      </trkpt>
      <trkpt lat="44.43646" lon="1.61027">
        <ele>404</ele>
        <time>2024-03-13T14:18:42Z</time>
      </trkpt>
      <trkpt lat="44.43645" lon="1.61029">
        <ele>404</ele>
        <time>2024-03-13T14:18:43Z</time>
      </trkpt>
      <trkpt lat="44.43644" lon="1.61031">
        <ele>404</ele>
        <time>2024-03-13T14:18:44Z</time>
      </trkpt>
      <trkpt lat="44.43644" lon="1.61032">
        <ele>404</ele>
        <time>2024-03-13T14:18:45Z</time>
      </trkpt>
      <trkpt lat="44.43643" lon="1.61033">
        <ele>404</ele>
        <time>2024-03-13T14:18:46Z</time>
      </trkpt>
      <trkpt lat="44.43642" lon="1.61034">
        <ele>404</ele>
        <time>2024-03-13T14:18:47Z</time>
      </trkpt>
      <trkpt lat="44.43641" lon="1.61036">
        <ele>404</ele>
        <time>2024-03-13T14:18:48Z</time>
      </trkpt>
      <trkpt lat="44.43641" lon="1.61037">
        <ele>404</ele>
        <time>2024-03-13T14:18:49Z</time>
      </trkpt>
      <trkpt lat="44.43639" lon="1.61039">
        <ele>404</ele>
        <time>2024-03-13T14:18:50Z</time>
      </trkpt>
      <trkpt lat="44.43638" lon="1.6104">
        <ele>404</ele>
        <time>2024-03-13T14:18:51Z</time>
      </trkpt>
      <trkpt lat="44.43637" lon="1.61041">
        <ele>404</ele>
        <time>2024-03-13T14:18:52Z</time>
      </trkpt>
      <trkpt lat="44.43637" lon="1.61043">
        <ele>404</ele>
        <time>2024-03-13T14:18:54Z</time>
      </trkpt>
      <trkpt lat="44.43636" lon="1.61044">
        <ele>404</ele>
        <time>2024-03-13T14:18:55Z</time>
      </trkpt>
      <trkpt lat="44.43636" lon="1.61045">
        <ele>405</ele>
        <time>2024-03-13T14:18:56Z</time>
      </trkpt>
      <trkpt lat="44.43635" lon="1.61046">
        <ele>404</ele>
        <time>2024-03-13T14:18:57Z</time>
      </trkpt>
      <trkpt lat="44.43634" lon="1.61047">
        <ele>404</ele>
        <time>2024-03-13T14:18:58Z</time>
      </trkpt>
      <trkpt lat="44.43633" lon="1.61049">
        <ele>404</ele>
        <time>2024-03-13T14:18:59Z</time>
      </trkpt>
      <trkpt lat="44.43633" lon="1.6105">
        <ele>404</ele>
        <time>2024-03-13T14:19:00Z</time>
      </trkpt>
      <trkpt lat="44.43632" lon="1.61051">
        <ele>404</ele>
        <time>2024-03-13T14:19:01Z</time>
      </trkpt>
      <trkpt lat="44.43631" lon="1.61054">
        <ele>404</ele>
        <time>2024-03-13T14:19:02Z</time>
      </trkpt>
      <trkpt lat="44.43629" lon="1.61056">
        <ele>404</ele>
        <time>2024-03-13T14:19:04Z</time>
      </trkpt>
      <trkpt lat="44.43628" lon="1.61057">
        <ele>404</ele>
        <time>2024-03-13T14:19:06Z</time>
      </trkpt>
      <trkpt lat="44.43628" lon="1.61058">
        <ele>404</ele>
        <time>2024-03-13T14:19:07Z</time>
      </trkpt>
      <trkpt lat="44.43626" lon="1.61061">
        <ele>404</ele>
        <time>2024-03-13T14:19:08Z</time>
      </trkpt>
      <trkpt lat="44.43626" lon="1.61062">
        <ele>404</ele>
        <time>2024-03-13T14:19:10Z</time>
      </trkpt>
      <trkpt lat="44.43624" lon="1.61064">
        <ele>404</ele>
        <time>2024-03-13T14:19:11Z</time>
      </trkpt>
      <trkpt lat="44.43623" lon="1.61065">
        <ele>404</ele>
        <time>2024-03-13T14:19:12Z</time>
      </trkpt>
      <trkpt lat="44.43621" lon="1.61068">
        <ele>404</ele>
        <time>2024-03-13T14:19:14Z</time>
      </trkpt>
      <trkpt lat="44.43621" lon="1.6107">
        <ele>404</ele>
        <time>2024-03-13T14:19:15Z</time>
      </trkpt>
      <trkpt lat="44.4362" lon="1.61071">
        <ele>404</ele>
        <time>2024-03-13T14:19:16Z</time>
      </trkpt>
      <trkpt lat="44.43618" lon="1.61072">
        <ele>404</ele>
        <time>2024-03-13T14:19:17Z</time>
      </trkpt>
      <trkpt lat="44.43618" lon="1.61073">
        <ele>403</ele>
        <time>2024-03-13T14:19:18Z</time>
      </trkpt>
      <trkpt lat="44.43617" lon="1.61074">
        <ele>403</ele>
        <time>2024-03-13T14:19:19Z</time>
      </trkpt>
      <trkpt lat="44.43616" lon="1.61075">
        <ele>403</ele>
        <time>2024-03-13T14:19:20Z</time>
      </trkpt>
      <trkpt lat="44.43615" lon="1.61077">
        <ele>403</ele>
        <time>2024-03-13T14:19:21Z</time>
      </trkpt>
      <trkpt lat="44.43615" lon="1.61078">
        <ele>403</ele>
        <time>2024-03-13T14:19:22Z</time>
      </trkpt>
      <trkpt lat="44.43614" lon="1.6108">
        <ele>403</ele>
        <time>2024-03-13T14:19:23Z</time>
      </trkpt>
      <trkpt lat="44.43613" lon="1.61081">
        <ele>403</ele>
        <time>2024-03-13T14:19:24Z</time>
      </trkpt>
      <trkpt lat="44.43612" lon="1.61082">
        <ele>403</ele>
        <time>2024-03-13T14:19:25Z</time>
      </trkpt>
      <trkpt lat="44.43611" lon="1.61083">
        <ele>403</ele>
        <time>2024-03-13T14:19:26Z</time>
      </trkpt>
      <trkpt lat="44.4361" lon="1.61085">
        <ele>403</ele>
        <time>2024-03-13T14:19:27Z</time>
      </trkpt>
      <trkpt lat="44.43609" lon="1.61086">
        <ele>403</ele>
        <time>2024-03-13T14:19:28Z</time>
      </trkpt>
      <trkpt lat="44.43608" lon="1.61088">
        <ele>403</ele>
        <time>2024-03-13T14:19:29Z</time>
      </trkpt>
      <trkpt lat="44.43608" lon="1.61089">
        <ele>403</ele>
        <time>2024-03-13T14:19:30Z</time>
      </trkpt>
      <trkpt lat="44.43607" lon="1.61091">
        <ele>403</ele>
        <time>2024-03-13T14:19:31Z</time>
      </trkpt>
      <trkpt lat="44.43606" lon="1.61093">
        <ele>403</ele>
        <time>2024-03-13T14:19:32Z</time>
      </trkpt>
      <trkpt lat="44.43605" lon="1.61094">
        <ele>403</ele>
        <time>2024-03-13T14:19:33Z</time>
      </trkpt>
      <trkpt lat="44.43605" lon="1.61095">
        <ele>403</ele>
        <time>2024-03-13T14:19:34Z</time>
      </trkpt>
      <trkpt lat="44.43604" lon="1.61096">
        <ele>403</ele>
        <time>2024-03-13T14:19:35Z</time>
      </trkpt>
      <trkpt lat="44.43603" lon="1.61097">
        <ele>403</ele>
        <time>2024-03-13T14:19:36Z</time>
      </trkpt>
      <trkpt lat="44.43602" lon="1.61098">
        <ele>403</ele>
        <time>2024-03-13T14:19:37Z</time>
      </trkpt>
      <trkpt lat="44.43601" lon="1.61099">
        <ele>403</ele>
        <time>2024-03-13T14:19:38Z</time>
      </trkpt>
      <trkpt lat="44.436" lon="1.61101">
        <ele>403</ele>
        <time>2024-03-13T14:19:39Z</time>
      </trkpt>
      <trkpt lat="44.43599" lon="1.61102">
        <ele>403</ele>
        <time>2024-03-13T14:19:40Z</time>
      </trkpt>
      <trkpt lat="44.43599" lon="1.61104">
        <ele>403</ele>
        <time>2024-03-13T14:19:41Z</time>
      </trkpt>
      <trkpt lat="44.43598" lon="1.61105">
        <ele>403</ele>
        <time>2024-03-13T14:19:42Z</time>
      </trkpt>
      <trkpt lat="44.43597" lon="1.61107">
        <ele>402</ele>
        <time>2024-03-13T14:19:43Z</time>
      </trkpt>
      <trkpt lat="44.43597" lon="1.61109">
        <ele>402</ele>
        <time>2024-03-13T14:19:44Z</time>
      </trkpt>
      <trkpt lat="44.43596" lon="1.6111">
        <ele>402</ele>
        <time>2024-03-13T14:19:45Z</time>
      </trkpt>
      <trkpt lat="44.43594" lon="1.61111">
        <ele>402</ele>
        <time>2024-03-13T14:19:46Z</time>
      </trkpt>
      <trkpt lat="44.43594" lon="1.61113">
        <ele>402</ele>
        <time>2024-03-13T14:19:47Z</time>
      </trkpt>
      <trkpt lat="44.43593" lon="1.61114">
        <ele>403</ele>
        <time>2024-03-13T14:19:48Z</time>
      </trkpt>
      <trkpt lat="44.43592" lon="1.61115">
        <ele>403</ele>
        <time>2024-03-13T14:19:49Z</time>
      </trkpt>
      <trkpt lat="44.43592" lon="1.61117">
        <ele>403</ele>
        <time>2024-03-13T14:19:50Z</time>
      </trkpt>
      <trkpt lat="44.43591" lon="1.61118">
        <ele>402</ele>
        <time>2024-03-13T14:19:51Z</time>
      </trkpt>
      <trkpt lat="44.4359" lon="1.6112">
        <ele>402</ele>
        <time>2024-03-13T14:19:52Z</time>
      </trkpt>
      <trkpt lat="44.43589" lon="1.61121">
        <ele>402</ele>
        <time>2024-03-13T14:19:53Z</time>
      </trkpt>
      <trkpt lat="44.43588" lon="1.61122">
        <ele>402</ele>
        <time>2024-03-13T14:19:54Z</time>
      </trkpt>
      <trkpt lat="44.43587" lon="1.61123">
        <ele>402</ele>
        <time>2024-03-13T14:19:55Z</time>
      </trkpt>
      <trkpt lat="44.43586" lon="1.61124">
        <ele>403</ele>
        <time>2024-03-13T14:19:56Z</time>
      </trkpt>
      <trkpt lat="44.43586" lon="1.61126">
        <ele>403</ele>
        <time>2024-03-13T14:19:57Z</time>
      </trkpt>
      <trkpt lat="44.43585" lon="1.61127">
        <ele>403</ele>
        <time>2024-03-13T14:19:58Z</time>
      </trkpt>
      <trkpt lat="44.43584" lon="1.61129">
        <ele>403</ele>
        <time>2024-03-13T14:19:59Z</time>
      </trkpt>
      <trkpt lat="44.43584" lon="1.6113">
        <ele>403</ele>
        <time>2024-03-13T14:20:00Z</time>
      </trkpt>
      <trkpt lat="44.43583" lon="1.61131">
        <ele>403</ele>
        <time>2024-03-13T14:20:01Z</time>
      </trkpt>
      <trkpt lat="44.43583" lon="1.61133">
        <ele>403</ele>
        <time>2024-03-13T14:20:02Z</time>
      </trkpt>
      <trkpt lat="44.43582" lon="1.61134">
        <ele>403</ele>
        <time>2024-03-13T14:20:03Z</time>
      </trkpt>
      <trkpt lat="44.43582" lon="1.61135">
        <ele>403</ele>
        <time>2024-03-13T14:20:04Z</time>
      </trkpt>
      <trkpt lat="44.43581" lon="1.61136">
        <ele>403</ele>
        <time>2024-03-13T14:20:05Z</time>
      </trkpt>
      <trkpt lat="44.4358" lon="1.61137">
        <ele>403</ele>
        <time>2024-03-13T14:20:06Z</time>
      </trkpt>
      <trkpt lat="44.43579" lon="1.61139">
        <ele>403</ele>
        <time>2024-03-13T14:20:07Z</time>
      </trkpt>
      <trkpt lat="44.43579" lon="1.6114">
        <ele>403</ele>
        <time>2024-03-13T14:20:08Z</time>
      </trkpt>
      <trkpt lat="44.43578" lon="1.61141">
        <ele>403</ele>
        <time>2024-03-13T14:20:09Z</time>
      </trkpt>
      <trkpt lat="44.43577" lon="1.61142">
        <ele>402</ele>
        <time>2024-03-13T14:20:10Z</time>
      </trkpt>
      <trkpt lat="44.43576" lon="1.61143">
        <ele>403</ele>
        <time>2024-03-13T14:20:11Z</time>
      </trkpt>
      <trkpt lat="44.43574" lon="1.61144">
        <ele>403</ele>
        <time>2024-03-13T14:20:12Z</time>
      </trkpt>
      <trkpt lat="44.43573" lon="1.61146">
        <ele>403</ele>
        <time>2024-03-13T14:20:13Z</time>
      </trkpt>
      <trkpt lat="44.43572" lon="1.61148">
        <ele>403</ele>
        <time>2024-03-13T14:20:14Z</time>
      </trkpt>
      <trkpt lat="44.43571" lon="1.61149">
        <ele>403</ele>
        <time>2024-03-13T14:20:15Z</time>
      </trkpt>
      <trkpt lat="44.4357" lon="1.6115">
        <ele>403</ele>
        <time>2024-03-13T14:20:16Z</time>
      </trkpt>
      <trkpt lat="44.43568" lon="1.6115">
        <ele>403</ele>
        <time>2024-03-13T14:20:17Z</time>
      </trkpt>
      <trkpt lat="44.43568" lon="1.61151">
        <ele>403</ele>
        <time>2024-03-13T14:20:18Z</time>
      </trkpt>
      <trkpt lat="44.43567" lon="1.61152">
        <ele>403</ele>
        <time>2024-03-13T14:20:19Z</time>
      </trkpt>
      <trkpt lat="44.43566" lon="1.61154">
        <ele>403</ele>
        <time>2024-03-13T14:20:20Z</time>
      </trkpt>
      <trkpt lat="44.43565" lon="1.61155">
        <ele>403</ele>
        <time>2024-03-13T14:20:21Z</time>
      </trkpt>
      <trkpt lat="44.43564" lon="1.61156">
        <ele>404</ele>
        <time>2024-03-13T14:20:22Z</time>
      </trkpt>
      <trkpt lat="44.43563" lon="1.61157">
        <ele>404</ele>
        <time>2024-03-13T14:20:23Z</time>
      </trkpt>
      <trkpt lat="44.43562" lon="1.61158">
        <ele>404</ele>
        <time>2024-03-13T14:20:24Z</time>
      </trkpt>
      <trkpt lat="44.43561" lon="1.61159">
        <ele>404</ele>
        <time>2024-03-13T14:20:25Z</time>
      </trkpt>
      <trkpt lat="44.43561" lon="1.6116">
        <ele>404</ele>
        <time>2024-03-13T14:20:26Z</time>
      </trkpt>
      <trkpt lat="44.4356" lon="1.61162">
        <ele>404</ele>
        <time>2024-03-13T14:20:27Z</time>
      </trkpt>
      <trkpt lat="44.43559" lon="1.61163">
        <ele>404</ele>
        <time>2024-03-13T14:20:28Z</time>
      </trkpt>
      <trkpt lat="44.43559" lon="1.61164">
        <ele>404</ele>
        <time>2024-03-13T14:20:29Z</time>
      </trkpt>
      <trkpt lat="44.43558" lon="1.61166">
        <ele>404</ele>
        <time>2024-03-13T14:20:30Z</time>
      </trkpt>
      <trkpt lat="44.43557" lon="1.61167">
        <ele>403</ele>
        <time>2024-03-13T14:20:31Z</time>
      </trkpt>
      <trkpt lat="44.43556" lon="1.61168">
        <ele>403</ele>
        <time>2024-03-13T14:20:32Z</time>
      </trkpt>
      <trkpt lat="44.43555" lon="1.6117">
        <ele>403</ele>
        <time>2024-03-13T14:20:33Z</time>
      </trkpt>
      <trkpt lat="44.43554" lon="1.61171">
        <ele>403</ele>
        <time>2024-03-13T14:20:34Z</time>
      </trkpt>
      <trkpt lat="44.43553" lon="1.61172">
        <ele>403</ele>
        <time>2024-03-13T14:20:35Z</time>
      </trkpt>
      <trkpt lat="44.43552" lon="1.61173">
        <ele>403</ele>
        <time>2024-03-13T14:20:36Z</time>
      </trkpt>
      <trkpt lat="44.43551" lon="1.61174">
        <ele>404</ele>
        <time>2024-03-13T14:20:37Z</time>
      </trkpt>
      <trkpt lat="44.4355" lon="1.61175">
        <ele>404</ele>
        <time>2024-03-13T14:20:38Z</time>
      </trkpt>
      <trkpt lat="44.4355" lon="1.61177">
        <ele>404</ele>
        <time>2024-03-13T14:20:39Z</time>
      </trkpt>
      <trkpt lat="44.43549" lon="1.61178">
        <ele>404</ele>
        <time>2024-03-13T14:20:40Z</time>
      </trkpt>
      <trkpt lat="44.43548" lon="1.61179">
        <ele>404</ele>
        <time>2024-03-13T14:20:41Z</time>
      </trkpt>
      <trkpt lat="44.43547" lon="1.6118">
        <ele>404</ele>
        <time>2024-03-13T14:20:42Z</time>
      </trkpt>
      <trkpt lat="44.43547" lon="1.61181">
        <ele>404</ele>
        <time>2024-03-13T14:20:43Z</time>
      </trkpt>
      <trkpt lat="44.43546" lon="1.61182">
        <ele>404</ele>
        <time>2024-03-13T14:20:44Z</time>
      </trkpt>
      <trkpt lat="44.43546" lon="1.61182">
        <ele>404</ele>
        <time>2024-03-13T14:20:45Z</time>
      </trkpt>
      <trkpt lat="44.43545" lon="1.61183">
        <ele>404</ele>
        <time>2024-03-13T14:20:46Z</time>
      </trkpt>
      <trkpt lat="44.43544" lon="1.61184">
        <ele>404</ele>
        <time>2024-03-13T14:20:47Z</time>
      </trkpt>
      <trkpt lat="44.43543" lon="1.61185">
        <ele>404</ele>
        <time>2024-03-13T14:20:48Z</time>
      </trkpt>
      <trkpt lat="44.43542" lon="1.61186">
        <ele>404</ele>
        <time>2024-03-13T14:20:49Z</time>
      </trkpt>
      <trkpt lat="44.43542" lon="1.61187">
        <ele>404</ele>
        <time>2024-03-13T14:20:50Z</time>
      </trkpt>
      <trkpt lat="44.43541" lon="1.61188">
        <ele>404</ele>
        <time>2024-03-13T14:20:51Z</time>
      </trkpt>
      <trkpt lat="44.43541" lon="1.61189">
        <ele>405</ele>
        <time>2024-03-13T14:20:52Z</time>
      </trkpt>
      <trkpt lat="44.4354" lon="1.6119">
        <ele>405</ele>
        <time>2024-03-13T14:20:53Z</time>
      </trkpt>
      <trkpt lat="44.43539" lon="1.61191">
        <ele>405</ele>
        <time>2024-03-13T14:20:54Z</time>
      </trkpt>
      <trkpt lat="44.43539" lon="1.61192">
        <ele>405</ele>
        <time>2024-03-13T14:20:55Z</time>
      </trkpt>
      <trkpt lat="44.43538" lon="1.61193">
        <ele>405</ele>
        <time>2024-03-13T14:20:56Z</time>
      </trkpt>
      <trkpt lat="44.43537" lon="1.61194">
        <ele>405</ele>
        <time>2024-03-13T14:20:57Z</time>
      </trkpt>
      <trkpt lat="44.43536" lon="1.61196">
        <ele>405</ele>
        <time>2024-03-13T14:20:58Z</time>
      </trkpt>
      <trkpt lat="44.43536" lon="1.61197">
        <ele>405</ele>
        <time>2024-03-13T14:20:59Z</time>
      </trkpt>
      <trkpt lat="44.43535" lon="1.61198">
        <ele>405</ele>
        <time>2024-03-13T14:21:00Z</time>
      </trkpt>
      <trkpt lat="44.43534" lon="1.61199">
        <ele>405</ele>
        <time>2024-03-13T14:21:01Z</time>
      </trkpt>
      <trkpt lat="44.43533" lon="1.61201">
        <ele>405</ele>
        <time>2024-03-13T14:21:02Z</time>
      </trkpt>
      <trkpt lat="44.43532" lon="1.61202">
        <ele>405</ele>
        <time>2024-03-13T14:21:03Z</time>
      </trkpt>
      <trkpt lat="44.43531" lon="1.61203">
        <ele>404</ele>
        <time>2024-03-13T14:21:04Z</time>
      </trkpt>
      <trkpt lat="44.4353" lon="1.61204">
        <ele>404</ele>
        <time>2024-03-13T14:21:05Z</time>
      </trkpt>
      <trkpt lat="44.43529" lon="1.61205">
        <ele>403</ele>
        <time>2024-03-13T14:21:06Z</time>
      </trkpt>
      <trkpt lat="44.43528" lon="1.61206">
        <ele>403</ele>
        <time>2024-03-13T14:21:07Z</time>
      </trkpt>
      <trkpt lat="44.43528" lon="1.61208">
        <ele>404</ele>
        <time>2024-03-13T14:21:08Z</time>
      </trkpt>
      <trkpt lat="44.43527" lon="1.61209">
        <ele>404</ele>
        <time>2024-03-13T14:21:09Z</time>
      </trkpt>
      <trkpt lat="44.43526" lon="1.6121">
        <ele>404</ele>
        <time>2024-03-13T14:21:10Z</time>
      </trkpt>
      <trkpt lat="44.43525" lon="1.61211">
        <ele>404</ele>
        <time>2024-03-13T14:21:11Z</time>
      </trkpt>
      <trkpt lat="44.43524" lon="1.61212">
        <ele>403</ele>
        <time>2024-03-13T14:21:12Z</time>
      </trkpt>
      <trkpt lat="44.43523" lon="1.61213">
        <ele>403</ele>
        <time>2024-03-13T14:21:13Z</time>
      </trkpt>
      <trkpt lat="44.43522" lon="1.61215">
        <ele>403</ele>
        <time>2024-03-13T14:21:14Z</time>
      </trkpt>
      <trkpt lat="44.43521" lon="1.61216">
        <ele>403</ele>
        <time>2024-03-13T14:21:15Z</time>
      </trkpt>
      <trkpt lat="44.43521" lon="1.61217">
        <ele>403</ele>
        <time>2024-03-13T14:21:16Z</time>
      </trkpt>
      <trkpt lat="44.4352" lon="1.61218">
        <ele>403</ele>
        <time>2024-03-13T14:21:17Z</time>
      </trkpt>
      <trkpt lat="44.4352" lon="1.61219">
        <ele>403</ele>
        <time>2024-03-13T14:21:18Z</time>
      </trkpt>
      <trkpt lat="44.43519" lon="1.61219">
        <ele>403</ele>
        <time>2024-03-13T14:21:19Z</time>
      </trkpt>
      <trkpt lat="44.43518" lon="1.6122">
        <ele>403</ele>
        <time>2024-03-13T14:21:20Z</time>
      </trkpt>
      <trkpt lat="44.43518" lon="1.61221">
        <ele>403</ele>
        <time>2024-03-13T14:21:21Z</time>
      </trkpt>
      <trkpt lat="44.43517" lon="1.61222">
        <ele>403</ele>
        <time>2024-03-13T14:21:22Z</time>
      </trkpt>
      <trkpt lat="44.43516" lon="1.61222">
        <ele>403</ele>
        <time>2024-03-13T14:21:23Z</time>
      </trkpt>
      <trkpt lat="44.43515" lon="1.61223">
        <ele>403</ele>
        <time>2024-03-13T14:21:24Z</time>
      </trkpt>
      <trkpt lat="44.43515" lon="1.61224">
        <ele>403</ele>
        <time>2024-03-13T14:21:25Z</time>
      </trkpt>
      <trkpt lat="44.43514" lon="1.61224">
        <ele>403</ele>
        <time>2024-03-13T14:21:26Z</time>
      </trkpt>
      <trkpt lat="44.43513" lon="1.61224">
        <ele>403</ele>
        <time>2024-03-13T14:21:27Z</time>
      </trkpt>
      <trkpt lat="44.43512" lon="1.61224">
        <ele>403</ele>
        <time>2024-03-13T14:21:28Z</time>
      </trkpt>
      <trkpt lat="44.43511" lon="1.61224">
        <ele>403</ele>
        <time>2024-03-13T14:21:29Z</time>
      </trkpt>
      <trkpt lat="44.43511" lon="1.61223">
        <ele>403</ele>
        <time>2024-03-13T14:21:30Z</time>
      </trkpt>
      <trkpt lat="44.4351" lon="1.61223">
        <ele>403</ele>
        <time>2024-03-13T14:21:31Z</time>
      </trkpt>
      <trkpt lat="44.43509" lon="1.61223">
        <ele>403</ele>
        <time>2024-03-13T14:21:32Z</time>
      </trkpt>
      <trkpt lat="44.43509" lon="1.61223">
        <ele>403</ele>
        <time>2024-03-13T14:21:33Z</time>
      </trkpt>
      <trkpt lat="44.43509" lon="1.61223">
        <ele>403</ele>
        <time>2024-03-13T14:21:34Z</time>
      </trkpt>
      <trkpt lat="44.43509" lon="1.61223">
        <ele>403</ele>
        <time>2024-03-13T14:21:35Z</time>
      </trkpt>
      <trkpt lat="44.43509" lon="1.61223">
        <ele>403</ele>
        <time>2024-03-13T14:21:36Z</time>
      </trkpt>
      <trkpt lat="44.43509" lon="1.61223">
        <ele>403</ele>
        <time>2024-03-13T14:21:37Z</time>
      </trkpt>
      <trkpt lat="44.43509" lon="1.61224">
        <ele>403</ele>
        <time>2024-03-13T14:21:38Z</time>
      </trkpt>
      <trkpt lat="44.43507" lon="1.61225">
        <ele>403</ele>
        <time>2024-03-13T14:21:39Z</time>
      </trkpt>
      <trkpt lat="44.43506" lon="1.61226">
        <ele>403</ele>
        <time>2024-03-13T14:21:40Z</time>
      </trkpt>
      <trkpt lat="44.43505" lon="1.61226">
        <ele>404</ele>
        <time>2024-03-13T14:21:41Z</time>
      </trkpt>
      <trkpt lat="44.43505" lon="1.61226">
        <ele>403</ele>
        <time>2024-03-13T14:21:42Z</time>
      </trkpt>
      <trkpt lat="44.43504" lon="1.61227">
        <ele>404</ele>
        <time>2024-03-13T14:21:43Z</time>
      </trkpt>
      <trkpt lat="44.43502" lon="1.61227">
        <ele>404</ele>
        <time>2024-03-13T14:21:44Z</time>
      </trkpt>
      <trkpt lat="44.43501" lon="1.61228">
        <ele>404</ele>
        <time>2024-03-13T14:21:45Z</time>
      </trkpt>
      <trkpt lat="44.435" lon="1.61228">
        <ele>404</ele>
        <time>2024-03-13T14:21:46Z</time>
      </trkpt>
      <trkpt lat="44.43499" lon="1.61229">
        <ele>404</ele>
        <time>2024-03-13T14:21:47Z</time>
      </trkpt>
      <trkpt lat="44.43498" lon="1.61229">
        <ele>404</ele>
        <time>2024-03-13T14:21:48Z</time>
      </trkpt>
      <trkpt lat="44.43497" lon="1.6123">
        <ele>403</ele>
        <time>2024-03-13T14:21:49Z</time>
      </trkpt>
      <trkpt lat="44.43496" lon="1.6123">
        <ele>403</ele>
        <time>2024-03-13T14:21:50Z</time>
      </trkpt>
      <trkpt lat="44.43494" lon="1.6123">
        <ele>403</ele>
        <time>2024-03-13T14:21:51Z</time>
      </trkpt>
      <trkpt lat="44.43493" lon="1.6123">
        <ele>402</ele>
        <time>2024-03-13T14:21:52Z</time>
      </trkpt>
      <trkpt lat="44.43493" lon="1.6123">
        <ele>402</ele>
        <time>2024-03-13T14:21:53Z</time>
      </trkpt>
      <trkpt lat="44.43491" lon="1.6123">
        <ele>402</ele>
        <time>2024-03-13T14:21:54Z</time>
      </trkpt>
      <trkpt lat="44.4349" lon="1.6123">
        <ele>402</ele>
        <time>2024-03-13T14:21:55Z</time>
      </trkpt>
      <trkpt lat="44.43489" lon="1.61231">
        <ele>402</ele>
        <time>2024-03-13T14:21:56Z</time>
      </trkpt>
      <trkpt lat="44.43488" lon="1.61232">
        <ele>402</ele>
        <time>2024-03-13T14:21:57Z</time>
      </trkpt>
      <trkpt lat="44.43488" lon="1.61232">
        <ele>402</ele>
        <time>2024-03-13T14:21:58Z</time>
      </trkpt>
      <trkpt lat="44.43486" lon="1.61232">
        <ele>402</ele>
        <time>2024-03-13T14:21:59Z</time>
      </trkpt>
      <trkpt lat="44.43486" lon="1.61232">
        <ele>401</ele>
        <time>2024-03-13T14:22:00Z</time>
      </trkpt>
      <trkpt lat="44.43485" lon="1.61232">
        <ele>401</ele>
        <time>2024-03-13T14:22:01Z</time>
      </trkpt>
      <trkpt lat="44.43484" lon="1.61233">
        <ele>401</ele>
        <time>2024-03-13T14:22:02Z</time>
      </trkpt>
      <trkpt lat="44.43483" lon="1.61233">
        <ele>401</ele>
        <time>2024-03-13T14:22:03Z</time>
      </trkpt>
      <trkpt lat="44.43481" lon="1.61233">
        <ele>401</ele>
        <time>2024-03-13T14:22:04Z</time>
      </trkpt>
      <trkpt lat="44.4348" lon="1.61234">
        <ele>401</ele>
        <time>2024-03-13T14:22:05Z</time>
      </trkpt>
      <trkpt lat="44.43479" lon="1.61234">
        <ele>401</ele>
        <time>2024-03-13T14:22:06Z</time>
      </trkpt>
      <trkpt lat="44.43478" lon="1.61234">
        <ele>401</ele>
        <time>2024-03-13T14:22:07Z</time>
      </trkpt>
      <trkpt lat="44.43476" lon="1.61234">
        <ele>401</ele>
        <time>2024-03-13T14:22:08Z</time>
      </trkpt>
      <trkpt lat="44.43475" lon="1.61235">
        <ele>401</ele>
        <time>2024-03-13T14:22:09Z</time>
      </trkpt>
      <trkpt lat="44.43474" lon="1.61235">
        <ele>400</ele>
        <time>2024-03-13T14:22:10Z</time>
      </trkpt>
      <trkpt lat="44.43473" lon="1.61236">
        <ele>401</ele>
        <time>2024-03-13T14:22:11Z</time>
      </trkpt>
      <trkpt lat="44.43472" lon="1.61236">
        <ele>401</ele>
        <time>2024-03-13T14:22:12Z</time>
      </trkpt>
      <trkpt lat="44.4347" lon="1.61236">
        <ele>401</ele>
        <time>2024-03-13T14:22:13Z</time>
      </trkpt>
      <trkpt lat="44.43469" lon="1.61236">
        <ele>402</ele>
        <time>2024-03-13T14:22:14Z</time>
      </trkpt>
      <trkpt lat="44.43467" lon="1.61237">
        <ele>401</ele>
        <time>2024-03-13T14:22:15Z</time>
      </trkpt>
      <trkpt lat="44.43466" lon="1.61237">
        <ele>401</ele>
        <time>2024-03-13T14:22:16Z</time>
      </trkpt>
      <trkpt lat="44.43464" lon="1.61238">
        <ele>402</ele>
        <time>2024-03-13T14:22:17Z</time>
      </trkpt>
      <trkpt lat="44.43464" lon="1.61238">
        <ele>402</ele>
        <time>2024-03-13T14:22:18Z</time>
      </trkpt>
      <trkpt lat="44.43462" lon="1.61239">
        <ele>402</ele>
        <time>2024-03-13T14:22:19Z</time>
      </trkpt>
      <trkpt lat="44.43461" lon="1.61239">
        <ele>402</ele>
        <time>2024-03-13T14:22:20Z</time>
      </trkpt>
      <trkpt lat="44.4346" lon="1.61239">
        <ele>402</ele>
        <time>2024-03-13T14:22:21Z</time>
      </trkpt>
      <trkpt lat="44.43458" lon="1.6124">
        <ele>402</ele>
        <time>2024-03-13T14:22:22Z</time>
      </trkpt>
      <trkpt lat="44.43457" lon="1.6124">
        <ele>402</ele>
        <time>2024-03-13T14:22:23Z</time>
      </trkpt>
      <trkpt lat="44.43456" lon="1.61241">
        <ele>402</ele>
        <time>2024-03-13T14:22:24Z</time>
      </trkpt>
      <trkpt lat="44.43454" lon="1.61242">
        <ele>401</ele>
        <time>2024-03-13T14:22:25Z</time>
      </trkpt>
      <trkpt lat="44.43453" lon="1.61242">
        <ele>402</ele>
        <time>2024-03-13T14:22:26Z</time>
      </trkpt>
      <trkpt lat="44.43452" lon="1.61243">
        <ele>401</ele>
        <time>2024-03-13T14:22:27Z</time>
      </trkpt>
      <trkpt lat="44.43451" lon="1.61243">
        <ele>401</ele>
        <time>2024-03-13T14:22:28Z</time>
      </trkpt>
      <trkpt lat="44.4345" lon="1.61244">
        <ele>402</ele>
        <time>2024-03-13T14:22:29Z</time>
      </trkpt>
      <trkpt lat="44.43449" lon="1.61245">
        <ele>402</ele>
        <time>2024-03-13T14:22:30Z</time>
      </trkpt>
      <trkpt lat="44.43447" lon="1.61245">
        <ele>402</ele>
        <time>2024-03-13T14:22:31Z</time>
      </trkpt>
      <trkpt lat="44.43446" lon="1.61246">
        <ele>402</ele>
        <time>2024-03-13T14:22:32Z</time>
      </trkpt>
      <trkpt lat="44.43445" lon="1.61246">
        <ele>402</ele>
        <time>2024-03-13T14:22:33Z</time>
      </trkpt>
      <trkpt lat="44.43444" lon="1.61247">
        <ele>402</ele>
        <time>2024-03-13T14:22:34Z</time>
      </trkpt>
      <trkpt lat="44.43443" lon="1.61248">
        <ele>402</ele>
        <time>2024-03-13T14:22:35Z</time>
      </trkpt>
      <trkpt lat="44.43441" lon="1.61248">
        <ele>402</ele>
        <time>2024-03-13T14:22:36Z</time>
      </trkpt>
      <trkpt lat="44.43439" lon="1.61248">
        <ele>402</ele>
        <time>2024-03-13T14:22:37Z</time>
      </trkpt>
      <trkpt lat="44.43438" lon="1.61249">
        <ele>402</ele>
        <time>2024-03-13T14:22:38Z</time>
      </trkpt>
      <trkpt lat="44.43437" lon="1.61249">
        <ele>401</ele>
        <time>2024-03-13T14:22:39Z</time>
      </trkpt>
      <trkpt lat="44.43435" lon="1.61249">
        <ele>401</ele>
        <time>2024-03-13T14:22:40Z</time>
      </trkpt>
      <trkpt lat="44.43434" lon="1.6125">
        <ele>401</ele>
        <time>2024-03-13T14:22:41Z</time>
      </trkpt>
      <trkpt lat="44.43433" lon="1.6125">
        <ele>401</ele>
        <time>2024-03-13T14:22:42Z</time>
      </trkpt>
      <trkpt lat="44.43431" lon="1.6125">
        <ele>401</ele>
        <time>2024-03-13T14:22:43Z</time>
      </trkpt>
      <trkpt lat="44.4343" lon="1.61251">
        <ele>401</ele>
        <time>2024-03-13T14:22:44Z</time>
      </trkpt>
      <trkpt lat="44.43429" lon="1.61251">
        <ele>401</ele>
        <time>2024-03-13T14:22:45Z</time>
      </trkpt>
      <trkpt lat="44.43428" lon="1.61252">
        <ele>401</ele>
        <time>2024-03-13T14:22:46Z</time>
      </trkpt>
      <trkpt lat="44.43427" lon="1.61252">
        <ele>402</ele>
        <time>2024-03-13T14:22:47Z</time>
      </trkpt>
      <trkpt lat="44.43425" lon="1.61253">
        <ele>402</ele>
        <time>2024-03-13T14:22:48Z</time>
      </trkpt>
      <trkpt lat="44.43424" lon="1.61254">
        <ele>401</ele>
        <time>2024-03-13T14:22:49Z</time>
      </trkpt>
      <trkpt lat="44.43423" lon="1.61254">
        <ele>402</ele>
        <time>2024-03-13T14:22:50Z</time>
      </trkpt>
      <trkpt lat="44.43422" lon="1.61254">
        <ele>402</ele>
        <time>2024-03-13T14:22:51Z</time>
      </trkpt>
      <trkpt lat="44.43421" lon="1.61255">
        <ele>401</ele>
        <time>2024-03-13T14:22:52Z</time>
      </trkpt>
      <trkpt lat="44.4342" lon="1.61255">
        <ele>402</ele>
        <time>2024-03-13T14:22:54Z</time>
      </trkpt>
      <trkpt lat="44.43419" lon="1.61255">
        <ele>402</ele>
        <time>2024-03-13T14:22:55Z</time>
      </trkpt>
      <trkpt lat="44.43419" lon="1.61255">
        <ele>402</ele>
        <time>2024-03-13T14:22:56Z</time>
      </trkpt>
      <trkpt lat="44.43419" lon="1.61255">
        <ele>402</ele>
        <time>2024-03-13T14:22:57Z</time>
      </trkpt>
      <trkpt lat="44.43419" lon="1.61255">
        <ele>402</ele>
        <time>2024-03-13T14:22:58Z</time>
      </trkpt>
      <trkpt lat="44.43416" lon="1.61255">
        <ele>401</ele>
        <time>2024-03-13T14:22:59Z</time>
      </trkpt>
      <trkpt lat="44.43415" lon="1.61255">
        <ele>401</ele>
        <time>2024-03-13T14:23:00Z</time>
      </trkpt>
      <trkpt lat="44.43414" lon="1.61255">
        <ele>402</ele>
        <time>2024-03-13T14:23:01Z</time>
      </trkpt>
      <trkpt lat="44.43412" lon="1.61256">
        <ele>402</ele>
        <time>2024-03-13T14:23:02Z</time>
      </trkpt>
      <trkpt lat="44.43411" lon="1.61256">
        <ele>402</ele>
        <time>2024-03-13T14:23:03Z</time>
      </trkpt>
      <trkpt lat="44.4341" lon="1.61256">
        <ele>402</ele>
        <time>2024-03-13T14:23:04Z</time>
      </trkpt>
      <trkpt lat="44.43409" lon="1.61256">
        <ele>402</ele>
        <time>2024-03-13T14:23:05Z</time>
      </trkpt>
      <trkpt lat="44.43408" lon="1.61257">
        <ele>402</ele>
        <time>2024-03-13T14:23:06Z</time>
      </trkpt>
      <trkpt lat="44.43408" lon="1.61257">
        <ele>402</ele>
        <time>2024-03-13T14:23:07Z</time>
      </trkpt>
      <trkpt lat="44.43406" lon="1.61257">
        <ele>402</ele>
        <time>2024-03-13T14:23:08Z</time>
      </trkpt>
      <trkpt lat="44.43404" lon="1.61258">
        <ele>402</ele>
        <time>2024-03-13T14:23:09Z</time>
      </trkpt>
      <trkpt lat="44.43403" lon="1.61258">
        <ele>401</ele>
        <time>2024-03-13T14:23:10Z</time>
      </trkpt>
      <trkpt lat="44.43401" lon="1.61258">
        <ele>402</ele>
        <time>2024-03-13T14:23:11Z</time>
      </trkpt>
      <trkpt lat="44.434" lon="1.61258">
        <ele>401</ele>
        <time>2024-03-13T14:23:12Z</time>
      </trkpt>
      <trkpt lat="44.43398" lon="1.61258">
        <ele>401</ele>
        <time>2024-03-13T14:23:13Z</time>
      </trkpt>
      <trkpt lat="44.43396" lon="1.61258">
        <ele>401</ele>
        <time>2024-03-13T14:23:14Z</time>
      </trkpt>
      <trkpt lat="44.43395" lon="1.61259">
        <ele>401</ele>
        <time>2024-03-13T14:23:15Z</time>
      </trkpt>
      <trkpt lat="44.43394" lon="1.61259">
        <ele>401</ele>
        <time>2024-03-13T14:23:16Z</time>
      </trkpt>
      <trkpt lat="44.43393" lon="1.6126">
        <ele>401</ele>
        <time>2024-03-13T14:23:17Z</time>
      </trkpt>
      <trkpt lat="44.43391" lon="1.61261">
        <ele>402</ele>
        <time>2024-03-13T14:23:18Z</time>
      </trkpt>
      <trkpt lat="44.4339" lon="1.61261">
        <ele>401</ele>
        <time>2024-03-13T14:23:19Z</time>
      </trkpt>
      <trkpt lat="44.43389" lon="1.61262">
        <ele>401</ele>
        <time>2024-03-13T14:23:20Z</time>
      </trkpt>
      <trkpt lat="44.43388" lon="1.61262">
        <ele>400</ele>
        <time>2024-03-13T14:23:21Z</time>
      </trkpt>
      <trkpt lat="44.43386" lon="1.61263">
        <ele>401</ele>
        <time>2024-03-13T14:23:22Z</time>
      </trkpt>
      <trkpt lat="44.43386" lon="1.61263">
        <ele>400</ele>
        <time>2024-03-13T14:23:23Z</time>
      </trkpt>
      <trkpt lat="44.43385" lon="1.61264">
        <ele>400</ele>
        <time>2024-03-13T14:23:24Z</time>
      </trkpt>
      <trkpt lat="44.43383" lon="1.61264">
        <ele>401</ele>
        <time>2024-03-13T14:23:25Z</time>
      </trkpt>
      <trkpt lat="44.43382" lon="1.61264">
        <ele>400</ele>
        <time>2024-03-13T14:23:26Z</time>
      </trkpt>
      <trkpt lat="44.43381" lon="1.61265">
        <ele>400</ele>
        <time>2024-03-13T14:23:27Z</time>
      </trkpt>
      <trkpt lat="44.4338" lon="1.61265">
        <ele>400</ele>
        <time>2024-03-13T14:23:28Z</time>
      </trkpt>
      <trkpt lat="44.43379" lon="1.61266">
        <ele>401</ele>
        <time>2024-03-13T14:23:29Z</time>
      </trkpt>
      <trkpt lat="44.43378" lon="1.61266">
        <ele>400</ele>
        <time>2024-03-13T14:23:30Z</time>
      </trkpt>
      <trkpt lat="44.43377" lon="1.61267">
        <ele>400</ele>
        <time>2024-03-13T14:23:31Z</time>
      </trkpt>
      <trkpt lat="44.43376" lon="1.61268">
        <ele>400</ele>
        <time>2024-03-13T14:23:32Z</time>
      </trkpt>
      <trkpt lat="44.43375" lon="1.61268">
        <ele>400</ele>
        <time>2024-03-13T14:23:33Z</time>
      </trkpt>
      <trkpt lat="44.43374" lon="1.61269">
        <ele>400</ele>
        <time>2024-03-13T14:23:34Z</time>
      </trkpt>
      <trkpt lat="44.43373" lon="1.6127">
        <ele>400</ele>
        <time>2024-03-13T14:23:35Z</time>
      </trkpt>
      <trkpt lat="44.43372" lon="1.6127">
        <ele>400</ele>
        <time>2024-03-13T14:23:36Z</time>
      </trkpt>
      <trkpt lat="44.4337" lon="1.6127">
        <ele>400</ele>
        <time>2024-03-13T14:23:37Z</time>
      </trkpt>
      <trkpt lat="44.43369" lon="1.61271">
        <ele>400</ele>
        <time>2024-03-13T14:23:38Z</time>
      </trkpt>
      <trkpt lat="44.43367" lon="1.61271">
        <ele>400</ele>
        <time>2024-03-13T14:23:39Z</time>
      </trkpt>
      <trkpt lat="44.43366" lon="1.61272">
        <ele>400</ele>
        <time>2024-03-13T14:23:40Z</time>
      </trkpt>
      <trkpt lat="44.43365" lon="1.61272">
        <ele>400</ele>
        <time>2024-03-13T14:23:41Z</time>
      </trkpt>
      <trkpt lat="44.43364" lon="1.61273">
        <ele>400</ele>
        <time>2024-03-13T14:23:42Z</time>
      </trkpt>
      <trkpt lat="44.43363" lon="1.61273">
        <ele>400</ele>
        <time>2024-03-13T14:23:43Z</time>
      </trkpt>
      <trkpt lat="44.43362" lon="1.61273">
        <ele>400</ele>
        <time>2024-03-13T14:23:44Z</time>
      </trkpt>
      <trkpt lat="44.43361" lon="1.61274">
        <ele>401</ele>
        <time>2024-03-13T14:23:45Z</time>
      </trkpt>
      <trkpt lat="44.43359" lon="1.61274">
        <ele>401</ele>
        <time>2024-03-13T14:23:46Z</time>
      </trkpt>
      <trkpt lat="44.43358" lon="1.61275">
        <ele>401</ele>
        <time>2024-03-13T14:23:47Z</time>
      </trkpt>
      <trkpt lat="44.43357" lon="1.61275">
        <ele>401</ele>
        <time>2024-03-13T14:23:48Z</time>
      </trkpt>
      <trkpt lat="44.43356" lon="1.61276">
        <ele>400</ele>
        <time>2024-03-13T14:23:49Z</time>
      </trkpt>
      <trkpt lat="44.43355" lon="1.61277">
        <ele>400</ele>
        <time>2024-03-13T14:23:50Z</time>
      </trkpt>
      <trkpt lat="44.43354" lon="1.61277">
        <ele>400</ele>
        <time>2024-03-13T14:23:51Z</time>
      </trkpt>
      <trkpt lat="44.43353" lon="1.61277">
        <ele>400</ele>
        <time>2024-03-13T14:23:52Z</time>
      </trkpt>
      <trkpt lat="44.43351" lon="1.61278">
        <ele>400</ele>
        <time>2024-03-13T14:23:53Z</time>
      </trkpt>
      <trkpt lat="44.4335" lon="1.61278">
        <ele>400</ele>
        <time>2024-03-13T14:23:54Z</time>
      </trkpt>
      <trkpt lat="44.43349" lon="1.61279">
        <ele>400</ele>
        <time>2024-03-13T14:23:55Z</time>
      </trkpt>
      <trkpt lat="44.43348" lon="1.61279">
        <ele>400</ele>
        <time>2024-03-13T14:23:56Z</time>
      </trkpt>
      <trkpt lat="44.43347" lon="1.6128">
        <ele>400</ele>
        <time>2024-03-13T14:23:57Z</time>
      </trkpt>
      <trkpt lat="44.43346" lon="1.6128">
        <ele>399</ele>
        <time>2024-03-13T14:23:58Z</time>
      </trkpt>
      <trkpt lat="44.43344" lon="1.6128">
        <ele>399</ele>
        <time>2024-03-13T14:23:59Z</time>
      </trkpt>
      <trkpt lat="44.43343" lon="1.6128">
        <ele>399</ele>
        <time>2024-03-13T14:24:00Z</time>
      </trkpt>
      <trkpt lat="44.43342" lon="1.6128">
        <ele>399</ele>
        <time>2024-03-13T14:24:01Z</time>
      </trkpt>
      <trkpt lat="44.43341" lon="1.6128">
        <ele>398</ele>
        <time>2024-03-13T14:24:02Z</time>
      </trkpt>
      <trkpt lat="44.4334" lon="1.6128">
        <ele>398</ele>
        <time>2024-03-13T14:24:03Z</time>
      </trkpt>
      <trkpt lat="44.43338" lon="1.6128">
        <ele>398</ele>
        <time>2024-03-13T14:24:04Z</time>
      </trkpt>
      <trkpt lat="44.43337" lon="1.6128">
        <ele>398</ele>
        <time>2024-03-13T14:24:05Z</time>
      </trkpt>
      <trkpt lat="44.43336" lon="1.6128">
        <ele>398</ele>
        <time>2024-03-13T14:24:06Z</time>
      </trkpt>
      <trkpt lat="44.43335" lon="1.6128">
        <ele>398</ele>
        <time>2024-03-13T14:24:07Z</time>
      </trkpt>
      <trkpt lat="44.43334" lon="1.6128">
        <ele>398</ele>
        <time>2024-03-13T14:24:08Z</time>
      </trkpt>
      <trkpt lat="44.43333" lon="1.6128">
        <ele>398</ele>
        <time>2024-03-13T14:24:09Z</time>
      </trkpt>
      <trkpt lat="44.43332" lon="1.61281">
        <ele>397</ele>
        <time>2024-03-13T14:24:10Z</time>
      </trkpt>
      <trkpt lat="44.43332" lon="1.61281">
        <ele>397</ele>
        <time>2024-03-13T14:24:11Z</time>
      </trkpt>
      <trkpt lat="44.43332" lon="1.61281">
        <ele>397</ele>
        <time>2024-03-13T14:24:12Z</time>
      </trkpt>
      <trkpt lat="44.43328" lon="1.6128">
        <ele>397</ele>
        <time>2024-03-13T14:24:13Z</time>
      </trkpt>
      <trkpt lat="44.43327" lon="1.6128">
        <ele>396</ele>
        <time>2024-03-13T14:24:14Z</time>
      </trkpt>
      <trkpt lat="44.43326" lon="1.61281">
        <ele>395</ele>
        <time>2024-03-13T14:24:15Z</time>
      </trkpt>
      <trkpt lat="44.43324" lon="1.61281">
        <ele>396</ele>
        <time>2024-03-13T14:24:16Z</time>
      </trkpt>
      <trkpt lat="44.43323" lon="1.61282">
        <ele>396</ele>
        <time>2024-03-13T14:24:17Z</time>
      </trkpt>
      <trkpt lat="44.43322" lon="1.61282">
        <ele>396</ele>
        <time>2024-03-13T14:24:18Z</time>
      </trkpt>
      <trkpt lat="44.43321" lon="1.61283">
        <ele>395</ele>
        <time>2024-03-13T14:24:19Z</time>
      </trkpt>
      <trkpt lat="44.4332" lon="1.61282">
        <ele>396</ele>
        <time>2024-03-13T14:24:20Z</time>
      </trkpt>
      <trkpt lat="44.4332" lon="1.61283">
        <ele>396</ele>
        <time>2024-03-13T14:24:21Z</time>
      </trkpt>
      <trkpt lat="44.4332" lon="1.61283">
        <ele>396</ele>
        <time>2024-03-13T14:24:22Z</time>
      </trkpt>
      <trkpt lat="44.4332" lon="1.61283">
        <ele>396</ele>
        <time>2024-03-13T14:24:23Z</time>
      </trkpt>
      <trkpt lat="44.4332" lon="1.61283">
        <ele>396</ele>
        <time>2024-03-13T14:24:24Z</time>
      </trkpt>
      <trkpt lat="44.4332" lon="1.61283">
        <ele>396</ele>
        <time>2024-03-13T14:24:25Z</time>
      </trkpt>
      <trkpt lat="44.4332" lon="1.61283">
        <ele>396</ele>
        <time>2024-03-13T14:24:26Z</time>
      </trkpt>
      <trkpt lat="44.4332" lon="1.61283">
        <ele>396</ele>
        <time>2024-03-13T14:24:27Z</time>
      </trkpt>
      <trkpt lat="44.4332" lon="1.61283">
        <ele>396</ele>
        <time>2024-03-13T14:24:28Z</time>
      </trkpt>
      <trkpt lat="44.43319" lon="1.61284">
        <ele>396</ele>
        <time>2024-03-13T14:24:29Z</time>
      </trkpt>
      <trkpt lat="44.43318" lon="1.61285">
        <ele>396</ele>
        <time>2024-03-13T14:24:30Z</time>
      </trkpt>
      <trkpt lat="44.43317" lon="1.61285">
        <ele>396</ele>
        <time>2024-03-13T14:24:31Z</time>
      </trkpt>
      <trkpt lat="44.43316" lon="1.61286">
        <ele>395</ele>
        <time>2024-03-13T14:24:32Z</time>
      </trkpt>
      <trkpt lat="44.43315" lon="1.61286">
        <ele>396</ele>
        <time>2024-03-13T14:24:33Z</time>
      </trkpt>
      <trkpt lat="44.43314" lon="1.61287">
        <ele>395</ele>
        <time>2024-03-13T14:24:34Z</time>
      </trkpt>
      <trkpt lat="44.43313" lon="1.61287">
        <ele>395</ele>
        <time>2024-03-13T14:24:35Z</time>
      </trkpt>
      <trkpt lat="44.43312" lon="1.61288">
        <ele>395</ele>
        <time>2024-03-13T14:24:36Z</time>
      </trkpt>
      <trkpt lat="44.43311" lon="1.61288">
        <ele>394</ele>
        <time>2024-03-13T14:24:37Z</time>
      </trkpt>
      <trkpt lat="44.4331" lon="1.61289">
        <ele>394</ele>
        <time>2024-03-13T14:24:38Z</time>
      </trkpt>
      <trkpt lat="44.43309" lon="1.6129">
        <ele>394</ele>
        <time>2024-03-13T14:24:39Z</time>
      </trkpt>
      <trkpt lat="44.43308" lon="1.6129">
        <ele>394</ele>
        <time>2024-03-13T14:24:40Z</time>
      </trkpt>
      <trkpt lat="44.43306" lon="1.61291">
        <ele>395</ele>
        <time>2024-03-13T14:24:41Z</time>
      </trkpt>
      <trkpt lat="44.43305" lon="1.61291">
        <ele>394</ele>
        <time>2024-03-13T14:24:42Z</time>
      </trkpt>
      <trkpt lat="44.43304" lon="1.61293">
        <ele>394</ele>
        <time>2024-03-13T14:24:43Z</time>
      </trkpt>
      <trkpt lat="44.43303" lon="1.61294">
        <ele>394</ele>
        <time>2024-03-13T14:24:44Z</time>
      </trkpt>
      <trkpt lat="44.43301" lon="1.61295">
        <ele>394</ele>
        <time>2024-03-13T14:24:45Z</time>
      </trkpt>
      <trkpt lat="44.433" lon="1.61295">
        <ele>393</ele>
        <time>2024-03-13T14:24:46Z</time>
      </trkpt>
      <trkpt lat="44.43299" lon="1.61297">
        <ele>393</ele>
        <time>2024-03-13T14:24:47Z</time>
      </trkpt>
      <trkpt lat="44.43297" lon="1.61298">
        <ele>393</ele>
        <time>2024-03-13T14:24:48Z</time>
      </trkpt>
      <trkpt lat="44.43296" lon="1.61298">
        <ele>393</ele>
        <time>2024-03-13T14:24:49Z</time>
      </trkpt>
      <trkpt lat="44.43295" lon="1.61299">
        <ele>393</ele>
        <time>2024-03-13T14:24:50Z</time>
      </trkpt>
      <trkpt lat="44.43294" lon="1.613">
        <ele>393</ele>
        <time>2024-03-13T14:24:51Z</time>
      </trkpt>
      <trkpt lat="44.43293" lon="1.61302">
        <ele>393</ele>
        <time>2024-03-13T14:24:52Z</time>
      </trkpt>
      <trkpt lat="44.43291" lon="1.61303">
        <ele>393</ele>
        <time>2024-03-13T14:24:53Z</time>
      </trkpt>
      <trkpt lat="44.43291" lon="1.61304">
        <ele>393</ele>
        <time>2024-03-13T14:24:54Z</time>
      </trkpt>
      <trkpt lat="44.4329" lon="1.61305">
        <ele>393</ele>
        <time>2024-03-13T14:24:55Z</time>
      </trkpt>
      <trkpt lat="44.43289" lon="1.61306">
        <ele>393</ele>
        <time>2024-03-13T14:24:56Z</time>
      </trkpt>
      <trkpt lat="44.43288" lon="1.61308">
        <ele>393</ele>
        <time>2024-03-13T14:24:57Z</time>
      </trkpt>
      <trkpt lat="44.43288" lon="1.61309">
        <ele>393</ele>
        <time>2024-03-13T14:24:58Z</time>
      </trkpt>
      <trkpt lat="44.43287" lon="1.6131">
        <ele>393</ele>
        <time>2024-03-13T14:24:59Z</time>
      </trkpt>
      <trkpt lat="44.43286" lon="1.61311">
        <ele>392</ele>
        <time>2024-03-13T14:25:00Z</time>
      </trkpt>
      <trkpt lat="44.43285" lon="1.61312">
        <ele>392</ele>
        <time>2024-03-13T14:25:01Z</time>
      </trkpt>
      <trkpt lat="44.43284" lon="1.61313">
        <ele>392</ele>
        <time>2024-03-13T14:25:02Z</time>
      </trkpt>
      <trkpt lat="44.43283" lon="1.61313">
        <ele>392</ele>
        <time>2024-03-13T14:25:03Z</time>
      </trkpt>
      <trkpt lat="44.43282" lon="1.61314">
        <ele>392</ele>
        <time>2024-03-13T14:25:04Z</time>
      </trkpt>
      <trkpt lat="44.43281" lon="1.61315">
        <ele>392</ele>
        <time>2024-03-13T14:25:05Z</time>
      </trkpt>
      <trkpt lat="44.4328" lon="1.61316">
        <ele>391</ele>
        <time>2024-03-13T14:25:06Z</time>
      </trkpt>
      <trkpt lat="44.43279" lon="1.61317">
        <ele>391</ele>
        <time>2024-03-13T14:25:07Z</time>
      </trkpt>
      <trkpt lat="44.43278" lon="1.61317">
        <ele>391</ele>
        <time>2024-03-13T14:25:08Z</time>
      </trkpt>
      <trkpt lat="44.43277" lon="1.61318">
        <ele>391</ele>
        <time>2024-03-13T14:25:09Z</time>
      </trkpt>
      <trkpt lat="44.43276" lon="1.61318">
        <ele>392</ele>
        <time>2024-03-13T14:25:10Z</time>
      </trkpt>
      <trkpt lat="44.43275" lon="1.61319">
        <ele>392</ele>
        <time>2024-03-13T14:25:11Z</time>
      </trkpt>
      <trkpt lat="44.43274" lon="1.61321">
        <ele>392</ele>
        <time>2024-03-13T14:25:12Z</time>
      </trkpt>
      <trkpt lat="44.43273" lon="1.61323">
        <ele>392</ele>
        <time>2024-03-13T14:25:13Z</time>
      </trkpt>
      <trkpt lat="44.43272" lon="1.61324">
        <ele>391</ele>
        <time>2024-03-13T14:25:14Z</time>
      </trkpt>
      <trkpt lat="44.43272" lon="1.61325">
        <ele>391</ele>
        <time>2024-03-13T14:25:15Z</time>
      </trkpt>
      <trkpt lat="44.43271" lon="1.61327">
        <ele>391</ele>
        <time>2024-03-13T14:25:16Z</time>
      </trkpt>
      <trkpt lat="44.4327" lon="1.61329">
        <ele>391</ele>
        <time>2024-03-13T14:25:17Z</time>
      </trkpt>
      <trkpt lat="44.4327" lon="1.61331">
        <ele>391</ele>
        <time>2024-03-13T14:25:18Z</time>
      </trkpt>
      <trkpt lat="44.43269" lon="1.61332">
        <ele>391</ele>
        <time>2024-03-13T14:25:19Z</time>
      </trkpt>
      <trkpt lat="44.43269" lon="1.61333">
        <ele>390</ele>
        <time>2024-03-13T14:25:20Z</time>
      </trkpt>
      <trkpt lat="44.43268" lon="1.61335">
        <ele>390</ele>
        <time>2024-03-13T14:25:21Z</time>
      </trkpt>
      <trkpt lat="44.43267" lon="1.61337">
        <ele>390</ele>
        <time>2024-03-13T14:25:22Z</time>
      </trkpt>
      <trkpt lat="44.43266" lon="1.61339">
        <ele>389</ele>
        <time>2024-03-13T14:25:23Z</time>
      </trkpt>
      <trkpt lat="44.43265" lon="1.61341">
        <ele>389</ele>
        <time>2024-03-13T14:25:24Z</time>
      </trkpt>
      <trkpt lat="44.43264" lon="1.61342">
        <ele>389</ele>
        <time>2024-03-13T14:25:25Z</time>
      </trkpt>
      <trkpt lat="44.43263" lon="1.61343">
        <ele>389</ele>
        <time>2024-03-13T14:25:26Z</time>
      </trkpt>
      <trkpt lat="44.43262" lon="1.61345">
        <ele>389</ele>
        <time>2024-03-13T14:25:27Z</time>
      </trkpt>
      <trkpt lat="44.43262" lon="1.61347">
        <ele>388</ele>
        <time>2024-03-13T14:25:28Z</time>
      </trkpt>
      <trkpt lat="44.43261" lon="1.61349">
        <ele>388</ele>
        <time>2024-03-13T14:25:29Z</time>
      </trkpt>
      <trkpt lat="44.4326" lon="1.61351">
        <ele>388</ele>
        <time>2024-03-13T14:25:30Z</time>
      </trkpt>
      <trkpt lat="44.43259" lon="1.61352">
        <ele>387</ele>
        <time>2024-03-13T14:25:31Z</time>
      </trkpt>
      <trkpt lat="44.43259" lon="1.61354">
        <ele>388</ele>
        <time>2024-03-13T14:25:32Z</time>
      </trkpt>
      <trkpt lat="44.43259" lon="1.61355">
        <ele>388</ele>
        <time>2024-03-13T14:25:33Z</time>
      </trkpt>
      <trkpt lat="44.43258" lon="1.61357">
        <ele>387</ele>
        <time>2024-03-13T14:25:34Z</time>
      </trkpt>
      <trkpt lat="44.43258" lon="1.61358">
        <ele>387</ele>
        <time>2024-03-13T14:25:35Z</time>
      </trkpt>
      <trkpt lat="44.43257" lon="1.6136">
        <ele>387</ele>
        <time>2024-03-13T14:25:36Z</time>
      </trkpt>
      <trkpt lat="44.43257" lon="1.61362">
        <ele>387</ele>
        <time>2024-03-13T14:25:37Z</time>
      </trkpt>
      <trkpt lat="44.43257" lon="1.61363">
        <ele>387</ele>
        <time>2024-03-13T14:25:38Z</time>
      </trkpt>
      <trkpt lat="44.43256" lon="1.61365">
        <ele>388</ele>
        <time>2024-03-13T14:25:39Z</time>
      </trkpt>
      <trkpt lat="44.43256" lon="1.61367">
        <ele>387</ele>
        <time>2024-03-13T14:25:40Z</time>
      </trkpt>
      <trkpt lat="44.43255" lon="1.61368">
        <ele>387</ele>
        <time>2024-03-13T14:25:41Z</time>
      </trkpt>
      <trkpt lat="44.43254" lon="1.6137">
        <ele>388</ele>
        <time>2024-03-13T14:25:42Z</time>
      </trkpt>
      <trkpt lat="44.43254" lon="1.61371">
        <ele>387</ele>
        <time>2024-03-13T14:25:43Z</time>
      </trkpt>
      <trkpt lat="44.43254" lon="1.61373">
        <ele>388</ele>
        <time>2024-03-13T14:25:44Z</time>
      </trkpt>
      <trkpt lat="44.43254" lon="1.61374">
        <ele>388</ele>
        <time>2024-03-13T14:25:45Z</time>
      </trkpt>
      <trkpt lat="44.43254" lon="1.61376">
        <ele>388</ele>
        <time>2024-03-13T14:25:46Z</time>
      </trkpt>
      <trkpt lat="44.43254" lon="1.61377">
        <ele>387</ele>
        <time>2024-03-13T14:25:47Z</time>
      </trkpt>
      <trkpt lat="44.43254" lon="1.61378">
        <ele>387</ele>
        <time>2024-03-13T14:25:48Z</time>
      </trkpt>
      <trkpt lat="44.43254" lon="1.6138">
        <ele>387</ele>
        <time>2024-03-13T14:25:49Z</time>
      </trkpt>
      <trkpt lat="44.43254" lon="1.61382">
        <ele>387</ele>
        <time>2024-03-13T14:25:50Z</time>
      </trkpt>
      <trkpt lat="44.43253" lon="1.61384">
        <ele>386</ele>
        <time>2024-03-13T14:25:51Z</time>
      </trkpt>
      <trkpt lat="44.43253" lon="1.61386">
        <ele>386</ele>
        <time>2024-03-13T14:25:52Z</time>
      </trkpt>
      <trkpt lat="44.43253" lon="1.61388">
        <ele>386</ele>
        <time>2024-03-13T14:25:53Z</time>
      </trkpt>
      <trkpt lat="44.43253" lon="1.61389">
        <ele>386</ele>
        <time>2024-03-13T14:25:54Z</time>
      </trkpt>
      <trkpt lat="44.43252" lon="1.61391">
        <ele>386</ele>
        <time>2024-03-13T14:25:55Z</time>
      </trkpt>
      <trkpt lat="44.43252" lon="1.61392">
        <ele>386</ele>
        <time>2024-03-13T14:25:56Z</time>
      </trkpt>
      <trkpt lat="44.43251" lon="1.61393">
        <ele>386</ele>
        <time>2024-03-13T14:25:57Z</time>
      </trkpt>
      <trkpt lat="44.43251" lon="1.61394">
        <ele>386</ele>
        <time>2024-03-13T14:25:58Z</time>
      </trkpt>
      <trkpt lat="44.43251" lon="1.61396">
        <ele>385</ele>
        <time>2024-03-13T14:25:59Z</time>
      </trkpt>
      <trkpt lat="44.43251" lon="1.61397">
        <ele>385</ele>
        <time>2024-03-13T14:26:00Z</time>
      </trkpt>
      <trkpt lat="44.4325" lon="1.61399">
        <ele>385</ele>
        <time>2024-03-13T14:26:01Z</time>
      </trkpt>
      <trkpt lat="44.4325" lon="1.614">
        <ele>385</ele>
        <time>2024-03-13T14:26:02Z</time>
      </trkpt>
      <trkpt lat="44.4325" lon="1.61401">
        <ele>385</ele>
        <time>2024-03-13T14:26:03Z</time>
      </trkpt>
      <trkpt lat="44.43249" lon="1.61403">
        <ele>385</ele>
        <time>2024-03-13T14:26:04Z</time>
      </trkpt>
      <trkpt lat="44.43249" lon="1.61404">
        <ele>385</ele>
        <time>2024-03-13T14:26:05Z</time>
      </trkpt>
      <trkpt lat="44.43249" lon="1.61406">
        <ele>384</ele>
        <time>2024-03-13T14:26:06Z</time>
      </trkpt>
      <trkpt lat="44.43248" lon="1.61407">
        <ele>384</ele>
        <time>2024-03-13T14:26:07Z</time>
      </trkpt>
      <trkpt lat="44.43248" lon="1.61408">
        <ele>384</ele>
        <time>2024-03-13T14:26:08Z</time>
      </trkpt>
      <trkpt lat="44.43247" lon="1.6141">
        <ele>384</ele>
        <time>2024-03-13T14:26:09Z</time>
      </trkpt>
      <trkpt lat="44.43246" lon="1.61411">
        <ele>384</ele>
        <time>2024-03-13T14:26:10Z</time>
      </trkpt>
      <trkpt lat="44.43246" lon="1.61412">
        <ele>384</ele>
        <time>2024-03-13T14:26:11Z</time>
      </trkpt>
      <trkpt lat="44.43246" lon="1.61414">
        <ele>383</ele>
        <time>2024-03-13T14:26:12Z</time>
      </trkpt>
      <trkpt lat="44.43245" lon="1.61415">
        <ele>383</ele>
        <time>2024-03-13T14:26:13Z</time>
      </trkpt>
      <trkpt lat="44.43245" lon="1.61417">
        <ele>383</ele>
        <time>2024-03-13T14:26:14Z</time>
      </trkpt>
      <trkpt lat="44.43245" lon="1.61419">
        <ele>383</ele>
        <time>2024-03-13T14:26:15Z</time>
      </trkpt>
      <trkpt lat="44.43245" lon="1.6142">
        <ele>383</ele>
        <time>2024-03-13T14:26:16Z</time>
      </trkpt>
      <trkpt lat="44.43245" lon="1.61421">
        <ele>383</ele>
        <time>2024-03-13T14:26:17Z</time>
      </trkpt>
      <trkpt lat="44.43245" lon="1.61423">
        <ele>383</ele>
        <time>2024-03-13T14:26:18Z</time>
      </trkpt>
      <trkpt lat="44.43245" lon="1.61424">
        <ele>383</ele>
        <time>2024-03-13T14:26:19Z</time>
      </trkpt>
      <trkpt lat="44.43245" lon="1.61425">
        <ele>383</ele>
        <time>2024-03-13T14:26:20Z</time>
      </trkpt>
      <trkpt lat="44.43245" lon="1.61426">
        <ele>383</ele>
        <time>2024-03-13T14:26:21Z</time>
      </trkpt>
      <trkpt lat="44.43245" lon="1.61426">
        <ele>383</ele>
        <time>2024-03-13T14:26:22Z</time>
      </trkpt>
      <trkpt lat="44.43245" lon="1.61426">
        <ele>383</ele>
        <time>2024-03-13T14:26:23Z</time>
      </trkpt>
      <trkpt lat="44.43245" lon="1.61426">
        <ele>383</ele>
        <time>2024-03-13T14:26:24Z</time>
      </trkpt>
      <trkpt lat="44.43245" lon="1.61426">
        <ele>383</ele>
        <time>2024-03-13T14:26:25Z</time>
      </trkpt>
      <trkpt lat="44.43245" lon="1.61426">
        <ele>383</ele>
        <time>2024-03-13T14:26:26Z</time>
      </trkpt>
      <trkpt lat="44.43245" lon="1.61426">
        <ele>383</ele>
        <time>2024-03-13T14:26:27Z</time>
      </trkpt>
      <trkpt lat="44.43245" lon="1.61426">
        <ele>383</ele>
        <time>2024-03-13T14:26:28Z</time>
      </trkpt>
      <trkpt lat="44.43245" lon="1.61426">
        <ele>383</ele>
        <time>2024-03-13T14:26:29Z</time>
      </trkpt>
      <trkpt lat="44.43245" lon="1.61426">
        <ele>383</ele>
        <time>2024-03-13T14:26:30Z</time>
      </trkpt>
      <trkpt lat="44.43245" lon="1.61426">
        <ele>383</ele>
        <time>2024-03-13T14:26:31Z</time>
      </trkpt>
      <trkpt lat="44.43245" lon="1.61426">
        <ele>383</ele>
        <time>2024-03-13T14:26:32Z</time>
      </trkpt>
      <trkpt lat="44.43245" lon="1.61426">
        <ele>383</ele>
        <time>2024-03-13T14:26:33Z</time>
      </trkpt>
      <trkpt lat="44.43245" lon="1.61426">
        <ele>383</ele>
        <time>2024-03-13T14:26:34Z</time>
      </trkpt>
      <trkpt lat="44.43245" lon="1.61426">
        <ele>383</ele>
        <time>2024-03-13T14:26:35Z</time>
      </trkpt>
      <trkpt lat="44.43245" lon="1.61426">
        <ele>383</ele>
        <time>2024-03-13T14:26:36Z</time>
      </trkpt>
      <trkpt lat="44.43245" lon="1.61426">
        <ele>383</ele>
        <time>2024-03-13T14:26:37Z</time>
      </trkpt>
      <trkpt lat="44.43245" lon="1.61426">
        <ele>383</ele>
        <time>2024-03-13T14:26:38Z</time>
      </trkpt>
      <trkpt lat="44.43245" lon="1.61426">
        <ele>383</ele>
        <time>2024-03-13T14:26:39Z</time>
      </trkpt>
      <trkpt lat="44.43245" lon="1.61426">
        <ele>383</ele>
        <time>2024-03-13T14:26:40Z</time>
      </trkpt>
      <trkpt lat="44.43245" lon="1.61426">
        <ele>383</ele>
        <time>2024-03-13T14:26:41Z</time>
      </trkpt>
      <trkpt lat="44.43245" lon="1.61427">
        <ele>383</ele>
        <time>2024-03-13T14:26:42Z</time>
      </trkpt>
      <trkpt lat="44.43244" lon="1.61427">
        <ele>383</ele>
        <time>2024-03-13T14:26:43Z</time>
      </trkpt>
      <trkpt lat="44.43244" lon="1.61427">
        <ele>383</ele>
        <time>2024-03-13T14:26:44Z</time>
      </trkpt>
      <trkpt lat="44.43244" lon="1.61427">
        <ele>383</ele>
        <time>2024-03-13T14:26:45Z</time>
      </trkpt>
      <trkpt lat="44.43244" lon="1.61427">
        <ele>383</ele>
        <time>2024-03-13T14:26:46Z</time>
      </trkpt>
      <trkpt lat="44.43244" lon="1.61427">
        <ele>383</ele>
        <time>2024-03-13T14:26:47Z</time>
      </trkpt>
      <trkpt lat="44.43244" lon="1.61427">
        <ele>383</ele>
        <time>2024-03-13T14:26:48Z</time>
      </trkpt>
      <trkpt lat="44.43244" lon="1.61427">
        <ele>383</ele>
        <time>2024-03-13T14:26:49Z</time>
      </trkpt>
      <trkpt lat="44.43244" lon="1.61427">
        <ele>383</ele>
        <time>2024-03-13T14:26:50Z</time>
      </trkpt>
      <trkpt lat="44.43244" lon="1.61427">
        <ele>383</ele>
        <time>2024-03-13T14:26:51Z</time>
      </trkpt>
      <trkpt lat="44.43244" lon="1.61427">
        <ele>383</ele>
        <time>2024-03-13T14:26:52Z</time>
      </trkpt>
      <trkpt lat="44.43244" lon="1.61427">
        <ele>383</ele>
        <time>2024-03-13T14:26:53Z</time>
      </trkpt>
      <trkpt lat="44.43244" lon="1.61427">
        <ele>383</ele>
        <time>2024-03-13T14:26:54Z</time>
      </trkpt>
      <trkpt lat="44.43244" lon="1.61427">
        <ele>383</ele>
        <time>2024-03-13T14:26:55Z</time>
      </trkpt>
      <trkpt lat="44.43244" lon="1.61427">
        <ele>383</ele>
        <time>2024-03-13T14:26:56Z</time>
      </trkpt>
      <trkpt lat="44.43244" lon="1.61427">
        <ele>383</ele>
        <time>2024-03-13T14:26:57Z</time>
      </trkpt>
      <trkpt lat="44.43244" lon="1.61427">
        <ele>383</ele>
        <time>2024-03-13T14:26:58Z</time>
      </trkpt>
      <trkpt lat="44.43244" lon="1.61427">
        <ele>383</ele>
        <time>2024-03-13T14:26:59Z</time>
      </trkpt>
      <trkpt lat="44.43244" lon="1.61427">
        <ele>383</ele>
        <time>2024-03-13T14:27:00Z</time>
      </trkpt>
      <trkpt lat="44.43244" lon="1.61427">
        <ele>383</ele>
        <time>2024-03-13T14:27:01Z</time>
      </trkpt>
      <trkpt lat="44.43244" lon="1.61427">
        <ele>383</ele>
        <time>2024-03-13T14:27:02Z</time>
      </trkpt>
      <trkpt lat="44.43244" lon="1.61427">
        <ele>383</ele>
        <time>2024-03-13T14:27:03Z</time>
      </trkpt>
      <trkpt lat="44.43244" lon="1.61427">
        <ele>383</ele>
        <time>2024-03-13T14:27:04Z</time>
      </trkpt>
      <trkpt lat="44.43244" lon="1.61427">
        <ele>383</ele>
        <time>2024-03-13T14:27:05Z</time>
      </trkpt>
      <trkpt lat="44.43244" lon="1.61427">
        <ele>383</ele>
        <time>2024-03-13T14:27:06Z</time>
      </trkpt>
      <trkpt lat="44.43243" lon="1.61429">
        <ele>382</ele>
        <time>2024-03-13T14:27:07Z</time>
      </trkpt>
      <trkpt lat="44.43243" lon="1.6143">
        <ele>382</ele>
        <time>2024-03-13T14:27:08Z</time>
      </trkpt>
      <trkpt lat="44.43243" lon="1.6143">
        <ele>382</ele>
        <time>2024-03-13T14:27:09Z</time>
      </trkpt>
      <trkpt lat="44.43243" lon="1.6143">
        <ele>382</ele>
        <time>2024-03-13T14:27:10Z</time>
      </trkpt>
      <trkpt lat="44.43243" lon="1.6143">
        <ele>382</ele>
        <time>2024-03-13T14:27:11Z</time>
      </trkpt>
      <trkpt lat="44.43243" lon="1.6143">
        <ele>382</ele>
        <time>2024-03-13T14:27:12Z</time>
      </trkpt>
      <trkpt lat="44.43243" lon="1.6143">
        <ele>382</ele>
        <time>2024-03-13T14:27:13Z</time>
      </trkpt>
      <trkpt lat="44.43243" lon="1.6143">
        <ele>382</ele>
        <time>2024-03-13T14:27:14Z</time>
      </trkpt>
      <trkpt lat="44.43243" lon="1.6143">
        <ele>382</ele>
        <time>2024-03-13T14:27:15Z</time>
      </trkpt>
      <trkpt lat="44.43243" lon="1.6143">
        <ele>382</ele>
        <time>2024-03-13T14:27:16Z</time>
      </trkpt>
      <trkpt lat="44.43243" lon="1.6143">
        <ele>382</ele>
        <time>2024-03-13T14:27:17Z</time>
      </trkpt>
      <trkpt lat="44.43243" lon="1.6143">
        <ele>382</ele>
        <time>2024-03-13T14:27:18Z</time>
      </trkpt>
      <trkpt lat="44.43243" lon="1.6143">
        <ele>382</ele>
        <time>2024-03-13T14:27:19Z</time>
      </trkpt>
      <trkpt lat="44.43243" lon="1.6143">
        <ele>382</ele>
        <time>2024-03-13T14:27:20Z</time>
      </trkpt>
      <trkpt lat="44.43243" lon="1.6143">
        <ele>382</ele>
        <time>2024-03-13T14:27:21Z</time>
      </trkpt>
      <trkpt lat="44.43243" lon="1.6143">
        <ele>382</ele>
        <time>2024-03-13T14:27:22Z</time>
      </trkpt>
      <trkpt lat="44.43243" lon="1.6143">
        <ele>382</ele>
        <time>2024-03-13T14:27:23Z</time>
      </trkpt>
      <trkpt lat="44.43243" lon="1.6143">
        <ele>382</ele>
        <time>2024-03-13T14:27:24Z</time>
      </trkpt>
      <trkpt lat="44.43243" lon="1.6143">
        <ele>382</ele>
        <time>2024-03-13T14:27:25Z</time>
      </trkpt>
      <trkpt lat="44.43243" lon="1.6143">
        <ele>382</ele>
        <time>2024-03-13T14:27:26Z</time>
      </trkpt>
      <trkpt lat="44.43243" lon="1.6143">
        <ele>382</ele>
        <time>2024-03-13T14:27:27Z</time>
      </trkpt>
      <trkpt lat="44.43243" lon="1.6143">
        <ele>382</ele>
        <time>2024-03-13T14:27:28Z</time>
      </trkpt>
      <trkpt lat="44.43243" lon="1.6143">
        <ele>382</ele>
        <time>2024-03-13T14:27:29Z</time>
      </trkpt>
      <trkpt lat="44.43243" lon="1.6143">
        <ele>382</ele>
        <time>2024-03-13T14:27:30Z</time>
      </trkpt>
      <trkpt lat="44.43243" lon="1.6143">
        <ele>382</ele>
        <time>2024-03-13T14:27:31Z</time>
      </trkpt>
      <trkpt lat="44.43243" lon="1.6143">
        <ele>382</ele>
        <time>2024-03-13T14:27:32Z</time>
      </trkpt>
      <trkpt lat="44.43243" lon="1.6143">
        <ele>382</ele>
        <time>2024-03-13T14:27:33Z</time>
      </trkpt>
      <trkpt lat="44.43243" lon="1.6143">
        <ele>382</ele>
        <time>2024-03-13T14:27:34Z</time>
      </trkpt>
      <trkpt lat="44.43243" lon="1.6143">
        <ele>382</ele>
        <time>2024-03-13T14:27:35Z</time>
      </trkpt>
      <trkpt lat="44.43243" lon="1.6143">
        <ele>382</ele>
        <time>2024-03-13T14:27:36Z</time>
      </trkpt>
      <trkpt lat="44.43243" lon="1.6143">
        <ele>382</ele>
        <time>2024-03-13T14:27:37Z</time>
      </trkpt>
      <trkpt lat="44.43243" lon="1.6143">
        <ele>382</ele>
        <time>2024-03-13T14:27:38Z</time>
      </trkpt>
      <trkpt lat="44.43243" lon="1.6143">
        <ele>382</ele>
        <time>2024-03-13T14:27:39Z</time>
      </trkpt>
      <trkpt lat="44.43243" lon="1.6143">
        <ele>382</ele>
        <time>2024-03-13T14:27:40Z</time>
      </trkpt>
      <trkpt lat="44.43243" lon="1.6143">
        <ele>382</ele>
        <time>2024-03-13T14:27:41Z</time>
      </trkpt>
      <trkpt lat="44.43243" lon="1.6143">
        <ele>382</ele>
        <time>2024-03-13T14:27:42Z</time>
      </trkpt>
      <trkpt lat="44.43243" lon="1.6143">
        <ele>382</ele>
        <time>2024-03-13T14:27:43Z</time>
      </trkpt>
      <trkpt lat="44.43243" lon="1.6143">
        <ele>382</ele>
        <time>2024-03-13T14:27:44Z</time>
      </trkpt>
      <trkpt lat="44.43243" lon="1.6143">
        <ele>382</ele>
        <time>2024-03-13T14:27:45Z</time>
      </trkpt>
      <trkpt lat="44.43243" lon="1.6143">
        <ele>382</ele>
        <time>2024-03-13T14:27:46Z</time>
      </trkpt>
      <trkpt lat="44.43243" lon="1.6143">
        <ele>382</ele>
        <time>2024-03-13T14:27:47Z</time>
      </trkpt>
      <trkpt lat="44.43243" lon="1.6143">
        <ele>382</ele>
        <time>2024-03-13T14:27:48Z</time>
      </trkpt>
      <trkpt lat="44.43243" lon="1.6143">
        <ele>382</ele>
        <time>2024-03-13T14:27:49Z</time>
      </trkpt>
      <trkpt lat="44.43243" lon="1.6143">
        <ele>382</ele>
        <time>2024-03-13T14:27:50Z</time>
      </trkpt>
      <trkpt lat="44.43243" lon="1.6143">
        <ele>382</ele>
        <time>2024-03-13T14:27:51Z</time>
      </trkpt>
      <trkpt lat="44.43243" lon="1.6143">
        <ele>382</ele>
        <time>2024-03-13T14:27:52Z</time>
      </trkpt>
      <trkpt lat="44.43243" lon="1.6143">
        <ele>382</ele>
        <time>2024-03-13T14:27:53Z</time>
      </trkpt>
      <trkpt lat="44.43243" lon="1.6143">
        <ele>382</ele>
        <time>2024-03-13T14:27:54Z</time>
      </trkpt>
      <trkpt lat="44.43243" lon="1.6143">
        <ele>382</ele>
        <time>2024-03-13T14:27:55Z</time>
      </trkpt>
      <trkpt lat="44.43243" lon="1.6143">
        <ele>382</ele>
        <time>2024-03-13T14:27:56Z</time>
      </trkpt>
      <trkpt lat="44.43243" lon="1.6143">
        <ele>382</ele>
        <time>2024-03-13T14:27:57Z</time>
      </trkpt>
      <trkpt lat="44.43243" lon="1.6143">
        <ele>382</ele>
        <time>2024-03-13T14:27:58Z</time>
      </trkpt>
      <trkpt lat="44.43243" lon="1.6143">
        <ele>382</ele>
        <time>2024-03-13T14:27:59Z</time>
      </trkpt>
      <trkpt lat="44.43243" lon="1.6143">
        <ele>382</ele>
        <time>2024-03-13T14:28:00Z</time>
      </trkpt>
      <trkpt lat="44.43243" lon="1.6143">
        <ele>382</ele>
        <time>2024-03-13T14:28:01Z</time>
      </trkpt>
      <trkpt lat="44.43243" lon="1.6143">
        <ele>382</ele>
        <time>2024-03-13T14:28:02Z</time>
      </trkpt>
      <trkpt lat="44.43243" lon="1.6143">
        <ele>382</ele>
        <time>2024-03-13T14:28:03Z</time>
      </trkpt>
      <trkpt lat="44.43243" lon="1.6143">
        <ele>382</ele>
        <time>2024-03-13T14:28:04Z</time>
      </trkpt>
      <trkpt lat="44.43243" lon="1.6143">
        <ele>382</ele>
        <time>2024-03-13T14:28:05Z</time>
      </trkpt>
      <trkpt lat="44.43243" lon="1.6143">
        <ele>382</ele>
        <time>2024-03-13T14:28:06Z</time>
      </trkpt>
      <trkpt lat="44.43243" lon="1.6143">
        <ele>382</ele>
        <time>2024-03-13T14:28:07Z</time>
      </trkpt>
      <trkpt lat="44.43243" lon="1.6143">
        <ele>382</ele>
        <time>2024-03-13T14:28:08Z</time>
      </trkpt>
      <trkpt lat="44.43243" lon="1.6143">
        <ele>382</ele>
        <time>2024-03-13T14:28:09Z</time>
      </trkpt>
      <trkpt lat="44.43243" lon="1.6143">
        <ele>382</ele>
        <time>2024-03-13T14:28:10Z</time>
      </trkpt>
      <trkpt lat="44.43243" lon="1.6143">
        <ele>382</ele>
        <time>2024-03-13T14:28:11Z</time>
      </trkpt>
      <trkpt lat="44.43243" lon="1.6143">
        <ele>382</ele>
        <time>2024-03-13T14:28:12Z</time>
      </trkpt>
      <trkpt lat="44.43243" lon="1.6143">
        <ele>382</ele>
        <time>2024-03-13T14:28:13Z</time>
      </trkpt>
      <trkpt lat="44.43243" lon="1.6143">
        <ele>382</ele>
        <time>2024-03-13T14:28:14Z</time>
      </trkpt>
      <trkpt lat="44.43243" lon="1.6143">
        <ele>382</ele>
        <time>2024-03-13T14:28:15Z</time>
      </trkpt>
      <trkpt lat="44.43243" lon="1.6143">
        <ele>382</ele>
        <time>2024-03-13T14:28:16Z</time>
      </trkpt>
      <trkpt lat="44.43243" lon="1.61431">
        <ele>382</ele>
        <time>2024-03-13T14:28:17Z</time>
      </trkpt>
      <trkpt lat="44.43244" lon="1.61432">
        <ele>382</ele>
        <time>2024-03-13T14:28:18Z</time>
      </trkpt>
      <trkpt lat="44.43244" lon="1.61432">
        <ele>382</ele>
        <time>2024-03-13T14:28:19Z</time>
      </trkpt>
      <trkpt lat="44.43243" lon="1.61431">
        <ele>381</ele>
        <time>2024-03-13T14:28:20Z</time>
      </trkpt>
      <trkpt lat="44.43243" lon="1.61431">
        <ele>381</ele>
        <time>2024-03-13T14:28:21Z</time>
      </trkpt>
      <trkpt lat="44.43243" lon="1.61431">
        <ele>381</ele>
        <time>2024-03-13T14:28:22Z</time>
      </trkpt>
      <trkpt lat="44.43243" lon="1.61431">
        <ele>381</ele>
        <time>2024-03-13T14:28:23Z</time>
      </trkpt>
      <trkpt lat="44.43243" lon="1.61431">
        <ele>381</ele>
        <time>2024-03-13T14:28:24Z</time>
      </trkpt>
      <trkpt lat="44.43243" lon="1.61431">
        <ele>381</ele>
        <time>2024-03-13T14:28:25Z</time>
      </trkpt>
      <trkpt lat="44.43243" lon="1.61431">
        <ele>381</ele>
        <time>2024-03-13T14:28:26Z</time>
      </trkpt>
      <trkpt lat="44.43243" lon="1.61434">
        <ele>381</ele>
        <time>2024-03-13T14:28:27Z</time>
      </trkpt>
      <trkpt lat="44.43244" lon="1.61435">
        <ele>381</ele>
        <time>2024-03-13T14:28:28Z</time>
      </trkpt>
      <trkpt lat="44.43243" lon="1.61436">
        <ele>381</ele>
        <time>2024-03-13T14:28:29Z</time>
      </trkpt>
      <trkpt lat="44.43243" lon="1.61437">
        <ele>380</ele>
        <time>2024-03-13T14:28:30Z</time>
      </trkpt>
      <trkpt lat="44.43243" lon="1.61438">
        <ele>380</ele>
        <time>2024-03-13T14:28:31Z</time>
      </trkpt>
      <trkpt lat="44.43243" lon="1.6144">
        <ele>380</ele>
        <time>2024-03-13T14:28:32Z</time>
      </trkpt>
      <trkpt lat="44.43243" lon="1.61441">
        <ele>380</ele>
        <time>2024-03-13T14:28:33Z</time>
      </trkpt>
      <trkpt lat="44.43243" lon="1.61443">
        <ele>380</ele>
        <time>2024-03-13T14:28:34Z</time>
      </trkpt>
      <trkpt lat="44.43244" lon="1.61444">
        <ele>380</ele>
        <time>2024-03-13T14:28:35Z</time>
      </trkpt>
      <trkpt lat="44.43244" lon="1.61445">
        <ele>379</ele>
        <time>2024-03-13T14:28:36Z</time>
      </trkpt>
      <trkpt lat="44.43244" lon="1.61447">
        <ele>379</ele>
        <time>2024-03-13T14:28:37Z</time>
      </trkpt>
      <trkpt lat="44.43245" lon="1.61448">
        <ele>379</ele>
        <time>2024-03-13T14:28:38Z</time>
      </trkpt>
      <trkpt lat="44.43245" lon="1.6145">
        <ele>379</ele>
        <time>2024-03-13T14:28:39Z</time>
      </trkpt>
      <trkpt lat="44.43245" lon="1.61451">
        <ele>378</ele>
        <time>2024-03-13T14:28:40Z</time>
      </trkpt>
      <trkpt lat="44.43245" lon="1.61452">
        <ele>378</ele>
        <time>2024-03-13T14:28:41Z</time>
      </trkpt>
      <trkpt lat="44.43245" lon="1.61453">
        <ele>378</ele>
        <time>2024-03-13T14:28:42Z</time>
      </trkpt>
      <trkpt lat="44.43245" lon="1.61453">
        <ele>378</ele>
        <time>2024-03-13T14:28:43Z</time>
      </trkpt>
      <trkpt lat="44.43245" lon="1.61456">
        <ele>378</ele>
        <time>2024-03-13T14:28:44Z</time>
      </trkpt>
      <trkpt lat="44.43245" lon="1.61457">
        <ele>378</ele>
        <time>2024-03-13T14:28:45Z</time>
      </trkpt>
      <trkpt lat="44.43245" lon="1.61458">
        <ele>378</ele>
        <time>2024-03-13T14:28:46Z</time>
      </trkpt>
      <trkpt lat="44.43245" lon="1.61459">
        <ele>378</ele>
        <time>2024-03-13T14:28:47Z</time>
      </trkpt>
      <trkpt lat="44.43245" lon="1.61461">
        <ele>378</ele>
        <time>2024-03-13T14:28:48Z</time>
      </trkpt>
      <trkpt lat="44.43245" lon="1.61462">
        <ele>377</ele>
        <time>2024-03-13T14:28:49Z</time>
      </trkpt>
      <trkpt lat="44.43246" lon="1.61464">
        <ele>377</ele>
        <time>2024-03-13T14:28:50Z</time>
      </trkpt>
      <trkpt lat="44.43246" lon="1.61465">
        <ele>377</ele>
        <time>2024-03-13T14:28:51Z</time>
      </trkpt>
      <trkpt lat="44.43246" lon="1.61467">
        <ele>377</ele>
        <time>2024-03-13T14:28:52Z</time>
      </trkpt>
      <trkpt lat="44.43246" lon="1.61468">
        <ele>377</ele>
        <time>2024-03-13T14:28:53Z</time>
      </trkpt>
      <trkpt lat="44.43246" lon="1.6147">
        <ele>377</ele>
        <time>2024-03-13T14:28:54Z</time>
      </trkpt>
      <trkpt lat="44.43246" lon="1.61471">
        <ele>378</ele>
        <time>2024-03-13T14:28:55Z</time>
      </trkpt>
      <trkpt lat="44.43246" lon="1.61472">
        <ele>378</ele>
        <time>2024-03-13T14:28:56Z</time>
      </trkpt>
      <trkpt lat="44.43246" lon="1.61473">
        <ele>377</ele>
        <time>2024-03-13T14:28:57Z</time>
      </trkpt>
      <trkpt lat="44.43246" lon="1.61475">
        <ele>377</ele>
        <time>2024-03-13T14:28:58Z</time>
      </trkpt>
      <trkpt lat="44.43245" lon="1.61476">
        <ele>378</ele>
        <time>2024-03-13T14:28:59Z</time>
      </trkpt>
      <trkpt lat="44.43245" lon="1.61476">
        <ele>377</ele>
        <time>2024-03-13T14:29:00Z</time>
      </trkpt>
      <trkpt lat="44.43245" lon="1.61477">
        <ele>377</ele>
        <time>2024-03-13T14:29:01Z</time>
      </trkpt>
      <trkpt lat="44.43245" lon="1.61477">
        <ele>377</ele>
        <time>2024-03-13T14:29:02Z</time>
      </trkpt>
      <trkpt lat="44.43245" lon="1.61479">
        <ele>377</ele>
        <time>2024-03-13T14:29:03Z</time>
      </trkpt>
      <trkpt lat="44.43245" lon="1.61479">
        <ele>376</ele>
        <time>2024-03-13T14:29:04Z</time>
      </trkpt>
      <trkpt lat="44.43245" lon="1.6148">
        <ele>376</ele>
        <time>2024-03-13T14:29:05Z</time>
      </trkpt>
      <trkpt lat="44.43246" lon="1.6148">
        <ele>376</ele>
        <time>2024-03-13T14:29:06Z</time>
      </trkpt>
      <trkpt lat="44.43246" lon="1.6148">
        <ele>376</ele>
        <time>2024-03-13T14:29:07Z</time>
      </trkpt>
      <trkpt lat="44.43245" lon="1.6148">
        <ele>376</ele>
        <time>2024-03-13T14:29:08Z</time>
      </trkpt>
      <trkpt lat="44.43245" lon="1.61482">
        <ele>376</ele>
        <time>2024-03-13T14:29:09Z</time>
      </trkpt>
      <trkpt lat="44.43246" lon="1.61483">
        <ele>376</ele>
        <time>2024-03-13T14:29:10Z</time>
      </trkpt>
      <trkpt lat="44.43246" lon="1.61484">
        <ele>376</ele>
        <time>2024-03-13T14:29:11Z</time>
      </trkpt>
      <trkpt lat="44.43247" lon="1.61485">
        <ele>375</ele>
        <time>2024-03-13T14:29:12Z</time>
      </trkpt>
      <trkpt lat="44.43248" lon="1.61485">
        <ele>375</ele>
        <time>2024-03-13T14:29:13Z</time>
      </trkpt>
      <trkpt lat="44.4325" lon="1.61487">
        <ele>375</ele>
        <time>2024-03-13T14:29:14Z</time>
      </trkpt>
      <trkpt lat="44.4325" lon="1.61487">
        <ele>375</ele>
        <time>2024-03-13T14:29:15Z</time>
      </trkpt>
      <trkpt lat="44.4325" lon="1.61488">
        <ele>375</ele>
        <time>2024-03-13T14:29:16Z</time>
      </trkpt>
      <trkpt lat="44.4325" lon="1.61489">
        <ele>374</ele>
        <time>2024-03-13T14:29:17Z</time>
      </trkpt>
      <trkpt lat="44.43251" lon="1.6149">
        <ele>374</ele>
        <time>2024-03-13T14:29:18Z</time>
      </trkpt>
      <trkpt lat="44.43251" lon="1.61491">
        <ele>374</ele>
        <time>2024-03-13T14:29:19Z</time>
      </trkpt>
      <trkpt lat="44.43252" lon="1.61492">
        <ele>374</ele>
        <time>2024-03-13T14:29:20Z</time>
      </trkpt>
      <trkpt lat="44.43252" lon="1.61493">
        <ele>373</ele>
        <time>2024-03-13T14:29:21Z</time>
      </trkpt>
      <trkpt lat="44.43253" lon="1.61494">
        <ele>373</ele>
        <time>2024-03-13T14:29:22Z</time>
      </trkpt>
      <trkpt lat="44.43252" lon="1.61495">
        <ele>373</ele>
        <time>2024-03-13T14:29:23Z</time>
      </trkpt>
      <trkpt lat="44.43253" lon="1.61496">
        <ele>373</ele>
        <time>2024-03-13T14:29:24Z</time>
      </trkpt>
      <trkpt lat="44.43253" lon="1.61497">
        <ele>373</ele>
        <time>2024-03-13T14:29:25Z</time>
      </trkpt>
      <trkpt lat="44.43253" lon="1.61498">
        <ele>373</ele>
        <time>2024-03-13T14:29:26Z</time>
      </trkpt>
      <trkpt lat="44.43253" lon="1.61499">
        <ele>373</ele>
        <time>2024-03-13T14:29:27Z</time>
      </trkpt>
      <trkpt lat="44.43252" lon="1.61501">
        <ele>373</ele>
        <time>2024-03-13T14:29:28Z</time>
      </trkpt>
      <trkpt lat="44.43252" lon="1.61502">
        <ele>373</ele>
        <time>2024-03-13T14:29:29Z</time>
      </trkpt>
      <trkpt lat="44.43251" lon="1.61503">
        <ele>373</ele>
        <time>2024-03-13T14:29:30Z</time>
      </trkpt>
      <trkpt lat="44.43251" lon="1.61505">
        <ele>373</ele>
        <time>2024-03-13T14:29:31Z</time>
      </trkpt>
      <trkpt lat="44.4325" lon="1.61506">
        <ele>373</ele>
        <time>2024-03-13T14:29:32Z</time>
      </trkpt>
      <trkpt lat="44.4325" lon="1.61507">
        <ele>373</ele>
        <time>2024-03-13T14:29:33Z</time>
      </trkpt>
      <trkpt lat="44.4325" lon="1.61508">
        <ele>373</ele>
        <time>2024-03-13T14:29:34Z</time>
      </trkpt>
      <trkpt lat="44.4325" lon="1.61509">
        <ele>373</ele>
        <time>2024-03-13T14:29:35Z</time>
      </trkpt>
      <trkpt lat="44.4325" lon="1.61511">
        <ele>373</ele>
        <time>2024-03-13T14:29:36Z</time>
      </trkpt>
      <trkpt lat="44.4325" lon="1.61512">
        <ele>373</ele>
        <time>2024-03-13T14:29:37Z</time>
      </trkpt>
      <trkpt lat="44.43249" lon="1.61513">
        <ele>373</ele>
        <time>2024-03-13T14:29:38Z</time>
      </trkpt>
      <trkpt lat="44.43249" lon="1.61514">
        <ele>373</ele>
        <time>2024-03-13T14:29:39Z</time>
      </trkpt>
      <trkpt lat="44.43249" lon="1.61516">
        <ele>372</ele>
        <time>2024-03-13T14:29:40Z</time>
      </trkpt>
      <trkpt lat="44.43249" lon="1.61516">
        <ele>372</ele>
        <time>2024-03-13T14:29:41Z</time>
      </trkpt>
      <trkpt lat="44.43248" lon="1.61517">
        <ele>372</ele>
        <time>2024-03-13T14:29:42Z</time>
      </trkpt>
      <trkpt lat="44.43248" lon="1.61517">
        <ele>372</ele>
        <time>2024-03-13T14:29:43Z</time>
      </trkpt>
      <trkpt lat="44.43248" lon="1.61517">
        <ele>372</ele>
        <time>2024-03-13T14:29:44Z</time>
      </trkpt>
      <trkpt lat="44.43248" lon="1.61517">
        <ele>372</ele>
        <time>2024-03-13T14:29:45Z</time>
      </trkpt>
      <trkpt lat="44.43248" lon="1.61517">
        <ele>372</ele>
        <time>2024-03-13T14:29:46Z</time>
      </trkpt>
      <trkpt lat="44.43248" lon="1.61517">
        <ele>372</ele>
        <time>2024-03-13T14:29:47Z</time>
      </trkpt>
      <trkpt lat="44.43248" lon="1.61517">
        <ele>372</ele>
        <time>2024-03-13T14:29:48Z</time>
      </trkpt>
      <trkpt lat="44.43248" lon="1.61517">
        <ele>372</ele>
        <time>2024-03-13T14:29:49Z</time>
      </trkpt>
      <trkpt lat="44.43248" lon="1.61517">
        <ele>372</ele>
        <time>2024-03-13T14:29:50Z</time>
      </trkpt>
      <trkpt lat="44.43248" lon="1.61517">
        <ele>372</ele>
        <time>2024-03-13T14:29:51Z</time>
      </trkpt>
      <trkpt lat="44.43248" lon="1.61517">
        <ele>372</ele>
        <time>2024-03-13T14:29:52Z</time>
      </trkpt>
      <trkpt lat="44.43248" lon="1.61517">
        <ele>372</ele>
        <time>2024-03-13T14:29:53Z</time>
      </trkpt>
      <trkpt lat="44.43247" lon="1.6152">
        <ele>372</ele>
        <time>2024-03-13T14:29:54Z</time>
      </trkpt>
      <trkpt lat="44.43246" lon="1.61521">
        <ele>371</ele>
        <time>2024-03-13T14:29:55Z</time>
      </trkpt>
      <trkpt lat="44.43246" lon="1.61522">
        <ele>371</ele>
        <time>2024-03-13T14:29:56Z</time>
      </trkpt>
      <trkpt lat="44.43245" lon="1.61523">
        <ele>371</ele>
        <time>2024-03-13T14:29:57Z</time>
      </trkpt>
      <trkpt lat="44.43245" lon="1.61524">
        <ele>371</ele>
        <time>2024-03-13T14:29:58Z</time>
      </trkpt>
      <trkpt lat="44.43244" lon="1.61524">
        <ele>371</ele>
        <time>2024-03-13T14:29:59Z</time>
      </trkpt>
      <trkpt lat="44.43243" lon="1.61524">
        <ele>371</ele>
        <time>2024-03-13T14:30:00Z</time>
      </trkpt>
      <trkpt lat="44.43242" lon="1.61525">
        <ele>371</ele>
        <time>2024-03-13T14:30:01Z</time>
      </trkpt>
      <trkpt lat="44.43242" lon="1.61525">
        <ele>371</ele>
        <time>2024-03-13T14:30:02Z</time>
      </trkpt>
      <trkpt lat="44.43241" lon="1.61526">
        <ele>371</ele>
        <time>2024-03-13T14:30:03Z</time>
      </trkpt>
      <trkpt lat="44.4324" lon="1.61527">
        <ele>371</ele>
        <time>2024-03-13T14:30:04Z</time>
      </trkpt>
      <trkpt lat="44.4324" lon="1.61528">
        <ele>371</ele>
        <time>2024-03-13T14:30:05Z</time>
      </trkpt>
      <trkpt lat="44.43239" lon="1.61528">
        <ele>371</ele>
        <time>2024-03-13T14:30:06Z</time>
      </trkpt>
      <trkpt lat="44.43238" lon="1.61529">
        <ele>371</ele>
        <time>2024-03-13T14:30:07Z</time>
      </trkpt>
      <trkpt lat="44.43238" lon="1.6153">
        <ele>371</ele>
        <time>2024-03-13T14:30:08Z</time>
      </trkpt>
      <trkpt lat="44.43237" lon="1.6153">
        <ele>371</ele>
        <time>2024-03-13T14:30:09Z</time>
      </trkpt>
      <trkpt lat="44.43236" lon="1.61531">
        <ele>370</ele>
        <time>2024-03-13T14:30:10Z</time>
      </trkpt>
      <trkpt lat="44.43235" lon="1.61532">
        <ele>371</ele>
        <time>2024-03-13T14:30:11Z</time>
      </trkpt>
      <trkpt lat="44.43234" lon="1.61533">
        <ele>371</ele>
        <time>2024-03-13T14:30:12Z</time>
      </trkpt>
      <trkpt lat="44.43233" lon="1.61534">
        <ele>371</ele>
        <time>2024-03-13T14:30:13Z</time>
      </trkpt>
      <trkpt lat="44.43233" lon="1.61535">
        <ele>370</ele>
        <time>2024-03-13T14:30:14Z</time>
      </trkpt>
      <trkpt lat="44.43232" lon="1.61536">
        <ele>370</ele>
        <time>2024-03-13T14:30:15Z</time>
      </trkpt>
      <trkpt lat="44.43231" lon="1.61537">
        <ele>370</ele>
        <time>2024-03-13T14:30:16Z</time>
      </trkpt>
      <trkpt lat="44.4323" lon="1.61537">
        <ele>370</ele>
        <time>2024-03-13T14:30:17Z</time>
      </trkpt>
      <trkpt lat="44.43229" lon="1.61538">
        <ele>371</ele>
        <time>2024-03-13T14:30:18Z</time>
      </trkpt>
      <trkpt lat="44.43229" lon="1.61539">
        <ele>371</ele>
        <time>2024-03-13T14:30:19Z</time>
      </trkpt>
      <trkpt lat="44.43229" lon="1.61539">
        <ele>370</ele>
        <time>2024-03-13T14:30:20Z</time>
      </trkpt>
      <trkpt lat="44.43229" lon="1.61539">
        <ele>370</ele>
        <time>2024-03-13T14:30:21Z</time>
      </trkpt>
      <trkpt lat="44.43229" lon="1.6154">
        <ele>370</ele>
        <time>2024-03-13T14:30:22Z</time>
      </trkpt>
      <trkpt lat="44.43229" lon="1.6154">
        <ele>370</ele>
        <time>2024-03-13T14:30:23Z</time>
      </trkpt>
      <trkpt lat="44.43229" lon="1.6154">
        <ele>370</ele>
        <time>2024-03-13T14:30:24Z</time>
      </trkpt>
      <trkpt lat="44.43229" lon="1.6154">
        <ele>370</ele>
        <time>2024-03-13T14:30:25Z</time>
      </trkpt>
      <trkpt lat="44.43229" lon="1.6154">
        <ele>370</ele>
        <time>2024-03-13T14:30:26Z</time>
      </trkpt>
      <trkpt lat="44.43229" lon="1.6154">
        <ele>370</ele>
        <time>2024-03-13T14:30:27Z</time>
      </trkpt>
      <trkpt lat="44.43229" lon="1.6154">
        <ele>370</ele>
        <time>2024-03-13T14:30:28Z</time>
      </trkpt>
      <trkpt lat="44.43229" lon="1.6154">
        <ele>370</ele>
        <time>2024-03-13T14:30:29Z</time>
      </trkpt>
      <trkpt lat="44.43228" lon="1.61543">
        <ele>369</ele>
        <time>2024-03-13T14:30:30Z</time>
      </trkpt>
      <trkpt lat="44.43227" lon="1.61543">
        <ele>369</ele>
        <time>2024-03-13T14:30:31Z</time>
      </trkpt>
      <trkpt lat="44.43227" lon="1.61543">
        <ele>369</ele>
        <time>2024-03-13T14:30:32Z</time>
      </trkpt>
      <trkpt lat="44.43227" lon="1.61543">
        <ele>369</ele>
        <time>2024-03-13T14:30:33Z</time>
      </trkpt>
      <trkpt lat="44.43227" lon="1.61543">
        <ele>369</ele>
        <time>2024-03-13T14:30:34Z</time>
      </trkpt>
      <trkpt lat="44.43227" lon="1.61543">
        <ele>369</ele>
        <time>2024-03-13T14:30:35Z</time>
      </trkpt>
      <trkpt lat="44.43227" lon="1.61543">
        <ele>369</ele>
        <time>2024-03-13T14:30:36Z</time>
      </trkpt>
      <trkpt lat="44.43227" lon="1.61543">
        <ele>369</ele>
        <time>2024-03-13T14:30:37Z</time>
      </trkpt>
      <trkpt lat="44.43227" lon="1.61543">
        <ele>369</ele>
        <time>2024-03-13T14:30:38Z</time>
      </trkpt>
      <trkpt lat="44.43227" lon="1.61543">
        <ele>369</ele>
        <time>2024-03-13T14:30:39Z</time>
      </trkpt>
      <trkpt lat="44.43227" lon="1.61543">
        <ele>369</ele>
        <time>2024-03-13T14:30:40Z</time>
      </trkpt>
      <trkpt lat="44.43228" lon="1.61545">
        <ele>369</ele>
        <time>2024-03-13T14:30:41Z</time>
      </trkpt>
      <trkpt lat="44.43228" lon="1.61547">
        <ele>368</ele>
        <time>2024-03-13T14:30:42Z</time>
      </trkpt>
      <trkpt lat="44.43228" lon="1.61548">
        <ele>368</ele>
        <time>2024-03-13T14:30:43Z</time>
      </trkpt>
      <trkpt lat="44.43229" lon="1.61549">
        <ele>368</ele>
        <time>2024-03-13T14:30:44Z</time>
      </trkpt>
      <trkpt lat="44.43229" lon="1.61551">
        <ele>367</ele>
        <time>2024-03-13T14:30:45Z</time>
      </trkpt>
      <trkpt lat="44.4323" lon="1.61552">
        <ele>367</ele>
        <time>2024-03-13T14:30:46Z</time>
      </trkpt>
      <trkpt lat="44.4323" lon="1.61553">
        <ele>367</ele>
        <time>2024-03-13T14:30:47Z</time>
      </trkpt>
      <trkpt lat="44.43231" lon="1.61555">
        <ele>367</ele>
        <time>2024-03-13T14:30:48Z</time>
      </trkpt>
      <trkpt lat="44.43232" lon="1.61556">
        <ele>367</ele>
        <time>2024-03-13T14:30:49Z</time>
      </trkpt>
      <trkpt lat="44.43232" lon="1.61557">
        <ele>367</ele>
        <time>2024-03-13T14:30:50Z</time>
      </trkpt>
      <trkpt lat="44.43232" lon="1.61558">
        <ele>367</ele>
        <time>2024-03-13T14:30:51Z</time>
      </trkpt>
      <trkpt lat="44.43232" lon="1.6156">
        <ele>367</ele>
        <time>2024-03-13T14:30:52Z</time>
      </trkpt>
      <trkpt lat="44.43232" lon="1.61561">
        <ele>367</ele>
        <time>2024-03-13T14:30:53Z</time>
      </trkpt>
      <trkpt lat="44.43232" lon="1.61562">
        <ele>367</ele>
        <time>2024-03-13T14:30:54Z</time>
      </trkpt>
      <trkpt lat="44.43232" lon="1.61564">
        <ele>367</ele>
        <time>2024-03-13T14:30:55Z</time>
      </trkpt>
      <trkpt lat="44.43233" lon="1.61565">
        <ele>367</ele>
        <time>2024-03-13T14:30:56Z</time>
      </trkpt>
      <trkpt lat="44.43233" lon="1.61565">
        <ele>367</ele>
        <time>2024-03-13T14:30:57Z</time>
      </trkpt>
      <trkpt lat="44.43233" lon="1.61566">
        <ele>367</ele>
        <time>2024-03-13T14:30:58Z</time>
      </trkpt>
      <trkpt lat="44.43234" lon="1.61566">
        <ele>367</ele>
        <time>2024-03-13T14:30:59Z</time>
      </trkpt>
      <trkpt lat="44.43234" lon="1.61567">
        <ele>367</ele>
        <time>2024-03-13T14:31:00Z</time>
      </trkpt>
      <trkpt lat="44.43234" lon="1.61567">
        <ele>367</ele>
        <time>2024-03-13T14:31:01Z</time>
      </trkpt>
      <trkpt lat="44.43234" lon="1.61567">
        <ele>367</ele>
        <time>2024-03-13T14:31:02Z</time>
      </trkpt>
      <trkpt lat="44.43235" lon="1.61568">
        <ele>367</ele>
        <time>2024-03-13T14:31:03Z</time>
      </trkpt>
      <trkpt lat="44.43236" lon="1.61569">
        <ele>366</ele>
        <time>2024-03-13T14:31:04Z</time>
      </trkpt>
      <trkpt lat="44.43237" lon="1.6157">
        <ele>366</ele>
        <time>2024-03-13T14:31:05Z</time>
      </trkpt>
      <trkpt lat="44.43237" lon="1.61571">
        <ele>366</ele>
        <time>2024-03-13T14:31:06Z</time>
      </trkpt>
      <trkpt lat="44.43237" lon="1.61571">
        <ele>367</ele>
        <time>2024-03-13T14:31:07Z</time>
      </trkpt>
      <trkpt lat="44.43238" lon="1.61572">
        <ele>367</ele>
        <time>2024-03-13T14:31:08Z</time>
      </trkpt>
      <trkpt lat="44.43238" lon="1.61573">
        <ele>367</ele>
        <time>2024-03-13T14:31:09Z</time>
      </trkpt>
      <trkpt lat="44.43239" lon="1.61574">
        <ele>367</ele>
        <time>2024-03-13T14:31:10Z</time>
      </trkpt>
      <trkpt lat="44.4324" lon="1.61576">
        <ele>367</ele>
        <time>2024-03-13T14:31:11Z</time>
      </trkpt>
      <trkpt lat="44.43241" lon="1.61576">
        <ele>367</ele>
        <time>2024-03-13T14:31:12Z</time>
      </trkpt>
      <trkpt lat="44.43242" lon="1.61577">
        <ele>367</ele>
        <time>2024-03-13T14:31:13Z</time>
      </trkpt>
      <trkpt lat="44.43243" lon="1.61578">
        <ele>366</ele>
        <time>2024-03-13T14:31:14Z</time>
      </trkpt>
      <trkpt lat="44.43244" lon="1.61579">
        <ele>366</ele>
        <time>2024-03-13T14:31:15Z</time>
      </trkpt>
      <trkpt lat="44.43245" lon="1.61579">
        <ele>366</ele>
        <time>2024-03-13T14:31:16Z</time>
      </trkpt>
      <trkpt lat="44.43245" lon="1.61581">
        <ele>366</ele>
        <time>2024-03-13T14:31:17Z</time>
      </trkpt>
      <trkpt lat="44.43246" lon="1.61582">
        <ele>366</ele>
        <time>2024-03-13T14:31:18Z</time>
      </trkpt>
      <trkpt lat="44.43247" lon="1.61582">
        <ele>366</ele>
        <time>2024-03-13T14:31:19Z</time>
      </trkpt>
      <trkpt lat="44.43248" lon="1.61583">
        <ele>365</ele>
        <time>2024-03-13T14:31:20Z</time>
      </trkpt>
      <trkpt lat="44.43248" lon="1.61583">
        <ele>365</ele>
        <time>2024-03-13T14:31:21Z</time>
      </trkpt>
      <trkpt lat="44.43248" lon="1.61583">
        <ele>365</ele>
        <time>2024-03-13T14:31:22Z</time>
      </trkpt>
      <trkpt lat="44.43248" lon="1.61583">
        <ele>365</ele>
        <time>2024-03-13T14:31:23Z</time>
      </trkpt>
      <trkpt lat="44.43248" lon="1.61584">
        <ele>365</ele>
        <time>2024-03-13T14:31:24Z</time>
      </trkpt>
      <trkpt lat="44.43248" lon="1.61585">
        <ele>365</ele>
        <time>2024-03-13T14:31:25Z</time>
      </trkpt>
      <trkpt lat="44.43249" lon="1.61586">
        <ele>365</ele>
        <time>2024-03-13T14:31:26Z</time>
      </trkpt>
      <trkpt lat="44.43249" lon="1.61587">
        <ele>365</ele>
        <time>2024-03-13T14:31:27Z</time>
      </trkpt>
      <trkpt lat="44.4325" lon="1.61588">
        <ele>366</ele>
        <time>2024-03-13T14:31:28Z</time>
      </trkpt>
      <trkpt lat="44.43251" lon="1.61589">
        <ele>366</ele>
        <time>2024-03-13T14:31:29Z</time>
      </trkpt>
      <trkpt lat="44.43253" lon="1.61589">
        <ele>365</ele>
        <time>2024-03-13T14:31:30Z</time>
      </trkpt>
      <trkpt lat="44.43254" lon="1.61591">
        <ele>365</ele>
        <time>2024-03-13T14:31:31Z</time>
      </trkpt>
      <trkpt lat="44.43256" lon="1.61592">
        <ele>365</ele>
        <time>2024-03-13T14:31:32Z</time>
      </trkpt>
      <trkpt lat="44.43258" lon="1.61592">
        <ele>365</ele>
        <time>2024-03-13T14:31:33Z</time>
      </trkpt>
      <trkpt lat="44.43259" lon="1.61593">
        <ele>365</ele>
        <time>2024-03-13T14:31:34Z</time>
      </trkpt>
      <trkpt lat="44.4326" lon="1.61593">
        <ele>365</ele>
        <time>2024-03-13T14:31:35Z</time>
      </trkpt>
      <trkpt lat="44.43261" lon="1.61593">
        <ele>365</ele>
        <time>2024-03-13T14:31:36Z</time>
      </trkpt>
      <trkpt lat="44.43263" lon="1.61594">
        <ele>365</ele>
        <time>2024-03-13T14:31:37Z</time>
      </trkpt>
      <trkpt lat="44.43264" lon="1.61595">
        <ele>365</ele>
        <time>2024-03-13T14:31:38Z</time>
      </trkpt>
      <trkpt lat="44.43266" lon="1.61596">
        <ele>364</ele>
        <time>2024-03-13T14:31:39Z</time>
      </trkpt>
      <trkpt lat="44.43267" lon="1.61597">
        <ele>364</ele>
        <time>2024-03-13T14:31:40Z</time>
      </trkpt>
      <trkpt lat="44.43268" lon="1.61598">
        <ele>364</ele>
        <time>2024-03-13T14:31:41Z</time>
      </trkpt>
      <trkpt lat="44.43269" lon="1.61599">
        <ele>363</ele>
        <time>2024-03-13T14:31:42Z</time>
      </trkpt>
      <trkpt lat="44.4327" lon="1.61599">
        <ele>363</ele>
        <time>2024-03-13T14:31:43Z</time>
      </trkpt>
      <trkpt lat="44.43272" lon="1.616">
        <ele>363</ele>
        <time>2024-03-13T14:31:44Z</time>
      </trkpt>
      <trkpt lat="44.43273" lon="1.61601">
        <ele>364</ele>
        <time>2024-03-13T14:31:45Z</time>
      </trkpt>
      <trkpt lat="44.43274" lon="1.61602">
        <ele>364</ele>
        <time>2024-03-13T14:31:46Z</time>
      </trkpt>
      <trkpt lat="44.43276" lon="1.61602">
        <ele>363</ele>
        <time>2024-03-13T14:31:47Z</time>
      </trkpt>
      <trkpt lat="44.43276" lon="1.61603">
        <ele>363</ele>
        <time>2024-03-13T14:31:48Z</time>
      </trkpt>
      <trkpt lat="44.43278" lon="1.61604">
        <ele>363</ele>
        <time>2024-03-13T14:31:49Z</time>
      </trkpt>
      <trkpt lat="44.43279" lon="1.61604">
        <ele>363</ele>
        <time>2024-03-13T14:31:50Z</time>
      </trkpt>
      <trkpt lat="44.4328" lon="1.61605">
        <ele>362</ele>
        <time>2024-03-13T14:31:51Z</time>
      </trkpt>
      <trkpt lat="44.43282" lon="1.61605">
        <ele>362</ele>
        <time>2024-03-13T14:31:52Z</time>
      </trkpt>
      <trkpt lat="44.43283" lon="1.61606">
        <ele>362</ele>
        <time>2024-03-13T14:31:53Z</time>
      </trkpt>
      <trkpt lat="44.43284" lon="1.61606">
        <ele>362</ele>
        <time>2024-03-13T14:31:54Z</time>
      </trkpt>
      <trkpt lat="44.43285" lon="1.61606">
        <ele>362</ele>
        <time>2024-03-13T14:31:55Z</time>
      </trkpt>
      <trkpt lat="44.43286" lon="1.61606">
        <ele>362</ele>
        <time>2024-03-13T14:31:56Z</time>
      </trkpt>
      <trkpt lat="44.43287" lon="1.61607">
        <ele>362</ele>
        <time>2024-03-13T14:31:57Z</time>
      </trkpt>
      <trkpt lat="44.43288" lon="1.61607">
        <ele>362</ele>
        <time>2024-03-13T14:31:58Z</time>
      </trkpt>
      <trkpt lat="44.43289" lon="1.61608">
        <ele>361</ele>
        <time>2024-03-13T14:31:59Z</time>
      </trkpt>
      <trkpt lat="44.4329" lon="1.61609">
        <ele>361</ele>
        <time>2024-03-13T14:32:00Z</time>
      </trkpt>
      <trkpt lat="44.43291" lon="1.6161">
        <ele>361</ele>
        <time>2024-03-13T14:32:01Z</time>
      </trkpt>
      <trkpt lat="44.43292" lon="1.61611">
        <ele>362</ele>
        <time>2024-03-13T14:32:02Z</time>
      </trkpt>
      <trkpt lat="44.43293" lon="1.61612">
        <ele>362</ele>
        <time>2024-03-13T14:32:03Z</time>
      </trkpt>
      <trkpt lat="44.43293" lon="1.61612">
        <ele>361</ele>
        <time>2024-03-13T14:32:04Z</time>
      </trkpt>
      <trkpt lat="44.43294" lon="1.61612">
        <ele>361</ele>
        <time>2024-03-13T14:32:05Z</time>
      </trkpt>
      <trkpt lat="44.43295" lon="1.61613">
        <ele>361</ele>
        <time>2024-03-13T14:32:06Z</time>
      </trkpt>
      <trkpt lat="44.43296" lon="1.61615">
        <ele>361</ele>
        <time>2024-03-13T14:32:07Z</time>
      </trkpt>
      <trkpt lat="44.43297" lon="1.61615">
        <ele>360</ele>
        <time>2024-03-13T14:32:08Z</time>
      </trkpt>
      <trkpt lat="44.43297" lon="1.61616">
        <ele>360</ele>
        <time>2024-03-13T14:32:09Z</time>
      </trkpt>
      <trkpt lat="44.43297" lon="1.61616">
        <ele>360</ele>
        <time>2024-03-13T14:32:10Z</time>
      </trkpt>
      <trkpt lat="44.43297" lon="1.61616">
        <ele>360</ele>
        <time>2024-03-13T14:32:11Z</time>
      </trkpt>
      <trkpt lat="44.43298" lon="1.61616">
        <ele>359</ele>
        <time>2024-03-13T14:32:12Z</time>
      </trkpt>
      <trkpt lat="44.43298" lon="1.61616">
        <ele>359</ele>
        <time>2024-03-13T14:32:13Z</time>
      </trkpt>
      <trkpt lat="44.43298" lon="1.61616">
        <ele>359</ele>
        <time>2024-03-13T14:32:14Z</time>
      </trkpt>
      <trkpt lat="44.43298" lon="1.61616">
        <ele>359</ele>
        <time>2024-03-13T14:32:15Z</time>
      </trkpt>
      <trkpt lat="44.43298" lon="1.61616">
        <ele>359</ele>
        <time>2024-03-13T14:32:16Z</time>
      </trkpt>
      <trkpt lat="44.43298" lon="1.61616">
        <ele>359</ele>
        <time>2024-03-13T14:32:17Z</time>
      </trkpt>
      <trkpt lat="44.43298" lon="1.61616">
        <ele>359</ele>
        <time>2024-03-13T14:32:18Z</time>
      </trkpt>
      <trkpt lat="44.43298" lon="1.61616">
        <ele>359</ele>
        <time>2024-03-13T14:32:19Z</time>
      </trkpt>
      <trkpt lat="44.43298" lon="1.61616">
        <ele>359</ele>
        <time>2024-03-13T14:32:20Z</time>
      </trkpt>
      <trkpt lat="44.43298" lon="1.61616">
        <ele>359</ele>
        <time>2024-03-13T14:32:21Z</time>
      </trkpt>
      <trkpt lat="44.43298" lon="1.61616">
        <ele>359</ele>
        <time>2024-03-13T14:32:22Z</time>
      </trkpt>
      <trkpt lat="44.43298" lon="1.61616">
        <ele>359</ele>
        <time>2024-03-13T14:32:23Z</time>
      </trkpt>
      <trkpt lat="44.43298" lon="1.61616">
        <ele>359</ele>
        <time>2024-03-13T14:32:24Z</time>
      </trkpt>
      <trkpt lat="44.43298" lon="1.61616">
        <ele>359</ele>
        <time>2024-03-13T14:32:25Z</time>
      </trkpt>
      <trkpt lat="44.43298" lon="1.61616">
        <ele>359</ele>
        <time>2024-03-13T14:32:26Z</time>
      </trkpt>
      <trkpt lat="44.43298" lon="1.61616">
        <ele>359</ele>
        <time>2024-03-13T14:32:27Z</time>
      </trkpt>
      <trkpt lat="44.43298" lon="1.61616">
        <ele>359</ele>
        <time>2024-03-13T14:32:28Z</time>
      </trkpt>
      <trkpt lat="44.43298" lon="1.61616">
        <ele>359</ele>
        <time>2024-03-13T14:32:29Z</time>
      </trkpt>
      <trkpt lat="44.43298" lon="1.61616">
        <ele>359</ele>
        <time>2024-03-13T14:32:30Z</time>
      </trkpt>
      <trkpt lat="44.43298" lon="1.61616">
        <ele>359</ele>
        <time>2024-03-13T14:32:31Z</time>
      </trkpt>
      <trkpt lat="44.43298" lon="1.61616">
        <ele>359</ele>
        <time>2024-03-13T14:32:32Z</time>
      </trkpt>
      <trkpt lat="44.43298" lon="1.61616">
        <ele>359</ele>
        <time>2024-03-13T14:32:33Z</time>
      </trkpt>
      <trkpt lat="44.43298" lon="1.61616">
        <ele>359</ele>
        <time>2024-03-13T14:32:34Z</time>
      </trkpt>
      <trkpt lat="44.43298" lon="1.61616">
        <ele>359</ele>
        <time>2024-03-13T14:32:35Z</time>
      </trkpt>
      <trkpt lat="44.43298" lon="1.61616">
        <ele>359</ele>
        <time>2024-03-13T14:32:36Z</time>
      </trkpt>
      <trkpt lat="44.43298" lon="1.61616">
        <ele>359</ele>
        <time>2024-03-13T14:32:37Z</time>
      </trkpt>
      <trkpt lat="44.43298" lon="1.61616">
        <ele>359</ele>
        <time>2024-03-13T14:32:38Z</time>
      </trkpt>
      <trkpt lat="44.43298" lon="1.61616">
        <ele>359</ele>
        <time>2024-03-13T14:32:39Z</time>
      </trkpt>
      <trkpt lat="44.43298" lon="1.61616">
        <ele>359</ele>
        <time>2024-03-13T14:32:40Z</time>
      </trkpt>
      <trkpt lat="44.43299" lon="1.61617">
        <ele>359</ele>
        <time>2024-03-13T14:32:41Z</time>
      </trkpt>
      <trkpt lat="44.43299" lon="1.61617">
        <ele>359</ele>
        <time>2024-03-13T14:32:42Z</time>
      </trkpt>
      <trkpt lat="44.43299" lon="1.61618">
        <ele>358</ele>
        <time>2024-03-13T14:32:43Z</time>
      </trkpt>
      <trkpt lat="44.43299" lon="1.61618">
        <ele>358</ele>
        <time>2024-03-13T14:32:44Z</time>
      </trkpt>
      <trkpt lat="44.43299" lon="1.61619">
        <ele>359</ele>
        <time>2024-03-13T14:32:45Z</time>
      </trkpt>
      <trkpt lat="44.43299" lon="1.61619">
        <ele>358</ele>
        <time>2024-03-13T14:32:46Z</time>
      </trkpt>
      <trkpt lat="44.433" lon="1.6162">
        <ele>358</ele>
        <time>2024-03-13T14:32:47Z</time>
      </trkpt>
      <trkpt lat="44.433" lon="1.61621">
        <ele>358</ele>
        <time>2024-03-13T14:32:48Z</time>
      </trkpt>
      <trkpt lat="44.43301" lon="1.61621">
        <ele>358</ele>
        <time>2024-03-13T14:32:49Z</time>
      </trkpt>
      <trkpt lat="44.43301" lon="1.61622">
        <ele>358</ele>
        <time>2024-03-13T14:32:50Z</time>
      </trkpt>
      <trkpt lat="44.43301" lon="1.61622">
        <ele>358</ele>
        <time>2024-03-13T14:32:51Z</time>
      </trkpt>
      <trkpt lat="44.43302" lon="1.61623">
        <ele>358</ele>
        <time>2024-03-13T14:32:52Z</time>
      </trkpt>
      <trkpt lat="44.43302" lon="1.61625">
        <ele>358</ele>
        <time>2024-03-13T14:32:53Z</time>
      </trkpt>
      <trkpt lat="44.43303" lon="1.61625">
        <ele>358</ele>
        <time>2024-03-13T14:32:54Z</time>
      </trkpt>
      <trkpt lat="44.43304" lon="1.61626">
        <ele>358</ele>
        <time>2024-03-13T14:32:55Z</time>
      </trkpt>
      <trkpt lat="44.43304" lon="1.61627">
        <ele>358</ele>
        <time>2024-03-13T14:32:56Z</time>
      </trkpt>
      <trkpt lat="44.43305" lon="1.61628">
        <ele>358</ele>
        <time>2024-03-13T14:32:57Z</time>
      </trkpt>
      <trkpt lat="44.43306" lon="1.61629">
        <ele>357</ele>
        <time>2024-03-13T14:32:58Z</time>
      </trkpt>
      <trkpt lat="44.43306" lon="1.61629">
        <ele>358</ele>
        <time>2024-03-13T14:32:59Z</time>
      </trkpt>
      <trkpt lat="44.43307" lon="1.6163">
        <ele>357</ele>
        <time>2024-03-13T14:33:00Z</time>
      </trkpt>
      <trkpt lat="44.43307" lon="1.6163">
        <ele>357</ele>
        <time>2024-03-13T14:33:01Z</time>
      </trkpt>
      <trkpt lat="44.43308" lon="1.6163">
        <ele>357</ele>
        <time>2024-03-13T14:33:02Z</time>
      </trkpt>
      <trkpt lat="44.43309" lon="1.61631">
        <ele>357</ele>
        <time>2024-03-13T14:33:03Z</time>
      </trkpt>
      <trkpt lat="44.4331" lon="1.61632">
        <ele>357</ele>
        <time>2024-03-13T14:33:04Z</time>
      </trkpt>
      <trkpt lat="44.43311" lon="1.61633">
        <ele>357</ele>
        <time>2024-03-13T14:33:05Z</time>
      </trkpt>
      <trkpt lat="44.43311" lon="1.61634">
        <ele>357</ele>
        <time>2024-03-13T14:33:06Z</time>
      </trkpt>
      <trkpt lat="44.43312" lon="1.61634">
        <ele>357</ele>
        <time>2024-03-13T14:33:07Z</time>
      </trkpt>
      <trkpt lat="44.43312" lon="1.61635">
        <ele>357</ele>
        <time>2024-03-13T14:33:08Z</time>
      </trkpt>
      <trkpt lat="44.43313" lon="1.61636">
        <ele>357</ele>
        <time>2024-03-13T14:33:09Z</time>
      </trkpt>
      <trkpt lat="44.43314" lon="1.61636">
        <ele>357</ele>
        <time>2024-03-13T14:33:10Z</time>
      </trkpt>
      <trkpt lat="44.43314" lon="1.61637">
        <ele>357</ele>
        <time>2024-03-13T14:33:11Z</time>
      </trkpt>
      <trkpt lat="44.43315" lon="1.61639">
        <ele>357</ele>
        <time>2024-03-13T14:33:12Z</time>
      </trkpt>
      <trkpt lat="44.43315" lon="1.61641">
        <ele>357</ele>
        <time>2024-03-13T14:33:13Z</time>
      </trkpt>
      <trkpt lat="44.43316" lon="1.61643">
        <ele>357</ele>
        <time>2024-03-13T14:33:15Z</time>
      </trkpt>
      <trkpt lat="44.43316" lon="1.61645">
        <ele>357</ele>
        <time>2024-03-13T14:33:16Z</time>
      </trkpt>
      <trkpt lat="44.43316" lon="1.61646">
        <ele>357</ele>
        <time>2024-03-13T14:33:17Z</time>
      </trkpt>
      <trkpt lat="44.43317" lon="1.61647">
        <ele>356</ele>
        <time>2024-03-13T14:33:18Z</time>
      </trkpt>
      <trkpt lat="44.43317" lon="1.61648">
        <ele>356</ele>
        <time>2024-03-13T14:33:19Z</time>
      </trkpt>
      <trkpt lat="44.43318" lon="1.61649">
        <ele>356</ele>
        <time>2024-03-13T14:33:20Z</time>
      </trkpt>
      <trkpt lat="44.43319" lon="1.6165">
        <ele>356</ele>
        <time>2024-03-13T14:33:21Z</time>
      </trkpt>
      <trkpt lat="44.4332" lon="1.61652">
        <ele>356</ele>
        <time>2024-03-13T14:33:22Z</time>
      </trkpt>
      <trkpt lat="44.43322" lon="1.61654">
        <ele>356</ele>
        <time>2024-03-13T14:33:23Z</time>
      </trkpt>
      <trkpt lat="44.43322" lon="1.61655">
        <ele>356</ele>
        <time>2024-03-13T14:33:24Z</time>
      </trkpt>
      <trkpt lat="44.43323" lon="1.61657">
        <ele>356</ele>
        <time>2024-03-13T14:33:25Z</time>
      </trkpt>
      <trkpt lat="44.43324" lon="1.61658">
        <ele>356</ele>
        <time>2024-03-13T14:33:26Z</time>
      </trkpt>
      <trkpt lat="44.43325" lon="1.6166">
        <ele>356</ele>
        <time>2024-03-13T14:33:27Z</time>
      </trkpt>
      <trkpt lat="44.43326" lon="1.61662">
        <ele>356</ele>
        <time>2024-03-13T14:33:28Z</time>
      </trkpt>
      <trkpt lat="44.43327" lon="1.61664">
        <ele>356</ele>
        <time>2024-03-13T14:33:29Z</time>
      </trkpt>
      <trkpt lat="44.43327" lon="1.61665">
        <ele>356</ele>
        <time>2024-03-13T14:33:30Z</time>
      </trkpt>
      <trkpt lat="44.43328" lon="1.61667">
        <ele>356</ele>
        <time>2024-03-13T14:33:31Z</time>
      </trkpt>
      <trkpt lat="44.43329" lon="1.61669">
        <ele>356</ele>
        <time>2024-03-13T14:33:32Z</time>
      </trkpt>
      <trkpt lat="44.4333" lon="1.6167">
        <ele>356</ele>
        <time>2024-03-13T14:33:33Z</time>
      </trkpt>
      <trkpt lat="44.4333" lon="1.61671">
        <ele>356</ele>
        <time>2024-03-13T14:33:34Z</time>
      </trkpt>
      <trkpt lat="44.43331" lon="1.61673">
        <ele>356</ele>
        <time>2024-03-13T14:33:35Z</time>
      </trkpt>
      <trkpt lat="44.43332" lon="1.61675">
        <ele>356</ele>
        <time>2024-03-13T14:33:36Z</time>
      </trkpt>
      <trkpt lat="44.43332" lon="1.61676">
        <ele>356</ele>
        <time>2024-03-13T14:33:37Z</time>
      </trkpt>
      <trkpt lat="44.43333" lon="1.61677">
        <ele>356</ele>
        <time>2024-03-13T14:33:38Z</time>
      </trkpt>
      <trkpt lat="44.43333" lon="1.61679">
        <ele>356</ele>
        <time>2024-03-13T14:33:39Z</time>
      </trkpt>
      <trkpt lat="44.43334" lon="1.6168">
        <ele>356</ele>
        <time>2024-03-13T14:33:40Z</time>
      </trkpt>
      <trkpt lat="44.43334" lon="1.61682">
        <ele>356</ele>
        <time>2024-03-13T14:33:41Z</time>
      </trkpt>
      <trkpt lat="44.43335" lon="1.61683">
        <ele>356</ele>
        <time>2024-03-13T14:33:42Z</time>
      </trkpt>
      <trkpt lat="44.43336" lon="1.61686">
        <ele>355</ele>
        <time>2024-03-13T14:33:43Z</time>
      </trkpt>
      <trkpt lat="44.43336" lon="1.61687">
        <ele>355</ele>
        <time>2024-03-13T14:33:44Z</time>
      </trkpt>
      <trkpt lat="44.43337" lon="1.61689">
        <ele>356</ele>
        <time>2024-03-13T14:33:45Z</time>
      </trkpt>
      <trkpt lat="44.43338" lon="1.61691">
        <ele>356</ele>
        <time>2024-03-13T14:33:46Z</time>
      </trkpt>
      <trkpt lat="44.43338" lon="1.61693">
        <ele>356</ele>
        <time>2024-03-13T14:33:47Z</time>
      </trkpt>
      <trkpt lat="44.43339" lon="1.61695">
        <ele>356</ele>
        <time>2024-03-13T14:33:48Z</time>
      </trkpt>
      <trkpt lat="44.4334" lon="1.61696">
        <ele>356</ele>
        <time>2024-03-13T14:33:49Z</time>
      </trkpt>
      <trkpt lat="44.4334" lon="1.61698">
        <ele>356</ele>
        <time>2024-03-13T14:33:50Z</time>
      </trkpt>
      <trkpt lat="44.43341" lon="1.61699">
        <ele>356</ele>
        <time>2024-03-13T14:33:51Z</time>
      </trkpt>
      <trkpt lat="44.43342" lon="1.61701">
        <ele>356</ele>
        <time>2024-03-13T14:33:52Z</time>
      </trkpt>
      <trkpt lat="44.43342" lon="1.61702">
        <ele>356</ele>
        <time>2024-03-13T14:33:53Z</time>
      </trkpt>
      <trkpt lat="44.43343" lon="1.61704">
        <ele>356</ele>
        <time>2024-03-13T14:33:54Z</time>
      </trkpt>
      <trkpt lat="44.43343" lon="1.61705">
        <ele>356</ele>
        <time>2024-03-13T14:33:55Z</time>
      </trkpt>
      <trkpt lat="44.43344" lon="1.61707">
        <ele>355</ele>
        <time>2024-03-13T14:33:56Z</time>
      </trkpt>
      <trkpt lat="44.43344" lon="1.61709">
        <ele>355</ele>
        <time>2024-03-13T14:33:57Z</time>
      </trkpt>
      <trkpt lat="44.43345" lon="1.6171">
        <ele>355</ele>
        <time>2024-03-13T14:33:58Z</time>
      </trkpt>
      <trkpt lat="44.43346" lon="1.61712">
        <ele>355</ele>
        <time>2024-03-13T14:33:59Z</time>
      </trkpt>
      <trkpt lat="44.43346" lon="1.61714">
        <ele>355</ele>
        <time>2024-03-13T14:34:00Z</time>
      </trkpt>
      <trkpt lat="44.43347" lon="1.61715">
        <ele>355</ele>
        <time>2024-03-13T14:34:01Z</time>
      </trkpt>
      <trkpt lat="44.43347" lon="1.61717">
        <ele>355</ele>
        <time>2024-03-13T14:34:02Z</time>
      </trkpt>
      <trkpt lat="44.43348" lon="1.61718">
        <ele>355</ele>
        <time>2024-03-13T14:34:03Z</time>
      </trkpt>
      <trkpt lat="44.43348" lon="1.6172">
        <ele>355</ele>
        <time>2024-03-13T14:34:04Z</time>
      </trkpt>
      <trkpt lat="44.43348" lon="1.61722">
        <ele>355</ele>
        <time>2024-03-13T14:34:05Z</time>
      </trkpt>
      <trkpt lat="44.43348" lon="1.61723">
        <ele>355</ele>
        <time>2024-03-13T14:34:06Z</time>
      </trkpt>
      <trkpt lat="44.43349" lon="1.61725">
        <ele>355</ele>
        <time>2024-03-13T14:34:07Z</time>
      </trkpt>
      <trkpt lat="44.43349" lon="1.61726">
        <ele>355</ele>
        <time>2024-03-13T14:34:08Z</time>
      </trkpt>
      <trkpt lat="44.4335" lon="1.61728">
        <ele>355</ele>
        <time>2024-03-13T14:34:09Z</time>
      </trkpt>
      <trkpt lat="44.4335" lon="1.61729">
        <ele>355</ele>
        <time>2024-03-13T14:34:10Z</time>
      </trkpt>
      <trkpt lat="44.43351" lon="1.61731">
        <ele>355</ele>
        <time>2024-03-13T14:34:11Z</time>
      </trkpt>
      <trkpt lat="44.43351" lon="1.61732">
        <ele>355</ele>
        <time>2024-03-13T14:34:12Z</time>
      </trkpt>
      <trkpt lat="44.43351" lon="1.61733">
        <ele>355</ele>
        <time>2024-03-13T14:34:13Z</time>
      </trkpt>
      <trkpt lat="44.43351" lon="1.61735">
        <ele>355</ele>
        <time>2024-03-13T14:34:14Z</time>
      </trkpt>
      <trkpt lat="44.43352" lon="1.61736">
        <ele>354</ele>
        <time>2024-03-13T14:34:15Z</time>
      </trkpt>
      <trkpt lat="44.43353" lon="1.61737">
        <ele>354</ele>
        <time>2024-03-13T14:34:16Z</time>
      </trkpt>
      <trkpt lat="44.43353" lon="1.61738">
        <ele>354</ele>
        <time>2024-03-13T14:34:17Z</time>
      </trkpt>
      <trkpt lat="44.43354" lon="1.6174">
        <ele>354</ele>
        <time>2024-03-13T14:34:18Z</time>
      </trkpt>
      <trkpt lat="44.43354" lon="1.61742">
        <ele>354</ele>
        <time>2024-03-13T14:34:19Z</time>
      </trkpt>
      <trkpt lat="44.43354" lon="1.61743">
        <ele>354</ele>
        <time>2024-03-13T14:34:20Z</time>
      </trkpt>
      <trkpt lat="44.43355" lon="1.61745">
        <ele>354</ele>
        <time>2024-03-13T14:34:21Z</time>
      </trkpt>
      <trkpt lat="44.43355" lon="1.61747">
        <ele>354</ele>
        <time>2024-03-13T14:34:22Z</time>
      </trkpt>
      <trkpt lat="44.43356" lon="1.61748">
        <ele>354</ele>
        <time>2024-03-13T14:34:23Z</time>
      </trkpt>
      <trkpt lat="44.43356" lon="1.6175">
        <ele>353</ele>
        <time>2024-03-13T14:34:24Z</time>
      </trkpt>
      <trkpt lat="44.43356" lon="1.61751">
        <ele>353</ele>
        <time>2024-03-13T14:34:25Z</time>
      </trkpt>
      <trkpt lat="44.43357" lon="1.61753">
        <ele>353</ele>
        <time>2024-03-13T14:34:26Z</time>
      </trkpt>
      <trkpt lat="44.43357" lon="1.61755">
        <ele>353</ele>
        <time>2024-03-13T14:34:27Z</time>
      </trkpt>
      <trkpt lat="44.43358" lon="1.61757">
        <ele>353</ele>
        <time>2024-03-13T14:34:28Z</time>
      </trkpt>
      <trkpt lat="44.43358" lon="1.61759">
        <ele>353</ele>
        <time>2024-03-13T14:34:29Z</time>
      </trkpt>
      <trkpt lat="44.43359" lon="1.61761">
        <ele>353</ele>
        <time>2024-03-13T14:34:30Z</time>
      </trkpt>
      <trkpt lat="44.4336" lon="1.61762">
        <ele>353</ele>
        <time>2024-03-13T14:34:31Z</time>
      </trkpt>
      <trkpt lat="44.4336" lon="1.61764">
        <ele>353</ele>
        <time>2024-03-13T14:34:32Z</time>
      </trkpt>
      <trkpt lat="44.43361" lon="1.61765">
        <ele>353</ele>
        <time>2024-03-13T14:34:33Z</time>
      </trkpt>
      <trkpt lat="44.43362" lon="1.61767">
        <ele>353</ele>
        <time>2024-03-13T14:34:34Z</time>
      </trkpt>
      <trkpt lat="44.43363" lon="1.61769">
        <ele>352</ele>
        <time>2024-03-13T14:34:35Z</time>
      </trkpt>
      <trkpt lat="44.43364" lon="1.6177">
        <ele>352</ele>
        <time>2024-03-13T14:34:36Z</time>
      </trkpt>
      <trkpt lat="44.43364" lon="1.61772">
        <ele>352</ele>
        <time>2024-03-13T14:34:37Z</time>
      </trkpt>
      <trkpt lat="44.43365" lon="1.61773">
        <ele>351</ele>
        <time>2024-03-13T14:34:38Z</time>
      </trkpt>
      <trkpt lat="44.43366" lon="1.61775">
        <ele>351</ele>
        <time>2024-03-13T14:34:39Z</time>
      </trkpt>
      <trkpt lat="44.43367" lon="1.61776">
        <ele>351</ele>
        <time>2024-03-13T14:34:40Z</time>
      </trkpt>
      <trkpt lat="44.43368" lon="1.61777">
        <ele>351</ele>
        <time>2024-03-13T14:34:41Z</time>
      </trkpt>
      <trkpt lat="44.43369" lon="1.61778">
        <ele>350</ele>
        <time>2024-03-13T14:34:42Z</time>
      </trkpt>
      <trkpt lat="44.4337" lon="1.6178">
        <ele>350</ele>
        <time>2024-03-13T14:34:43Z</time>
      </trkpt>
      <trkpt lat="44.43371" lon="1.61781">
        <ele>350</ele>
        <time>2024-03-13T14:34:44Z</time>
      </trkpt>
      <trkpt lat="44.43372" lon="1.61783">
        <ele>350</ele>
        <time>2024-03-13T14:34:45Z</time>
      </trkpt>
      <trkpt lat="44.43373" lon="1.61784">
        <ele>350</ele>
        <time>2024-03-13T14:34:46Z</time>
      </trkpt>
      <trkpt lat="44.43373" lon="1.61786">
        <ele>349</ele>
        <time>2024-03-13T14:34:47Z</time>
      </trkpt>
      <trkpt lat="44.43374" lon="1.61787">
        <ele>349</ele>
        <time>2024-03-13T14:34:48Z</time>
      </trkpt>
      <trkpt lat="44.43375" lon="1.61788">
        <ele>349</ele>
        <time>2024-03-13T14:34:49Z</time>
      </trkpt>
      <trkpt lat="44.43376" lon="1.61789">
        <ele>349</ele>
        <time>2024-03-13T14:34:50Z</time>
      </trkpt>
      <trkpt lat="44.43377" lon="1.6179">
        <ele>349</ele>
        <time>2024-03-13T14:34:51Z</time>
      </trkpt>
      <trkpt lat="44.43378" lon="1.61792">
        <ele>349</ele>
        <time>2024-03-13T14:34:52Z</time>
      </trkpt>
      <trkpt lat="44.43379" lon="1.61793">
        <ele>348</ele>
        <time>2024-03-13T14:34:53Z</time>
      </trkpt>
      <trkpt lat="44.4338" lon="1.61794">
        <ele>348</ele>
        <time>2024-03-13T14:34:54Z</time>
      </trkpt>
      <trkpt lat="44.43382" lon="1.61795">
        <ele>348</ele>
        <time>2024-03-13T14:34:55Z</time>
      </trkpt>
      <trkpt lat="44.43382" lon="1.61796">
        <ele>348</ele>
        <time>2024-03-13T14:34:56Z</time>
      </trkpt>
      <trkpt lat="44.43383" lon="1.61797">
        <ele>348</ele>
        <time>2024-03-13T14:34:57Z</time>
      </trkpt>
      <trkpt lat="44.43384" lon="1.61798">
        <ele>348</ele>
        <time>2024-03-13T14:34:58Z</time>
      </trkpt>
      <trkpt lat="44.43384" lon="1.618">
        <ele>348</ele>
        <time>2024-03-13T14:34:59Z</time>
      </trkpt>
      <trkpt lat="44.43385" lon="1.61802">
        <ele>347</ele>
        <time>2024-03-13T14:35:00Z</time>
      </trkpt>
      <trkpt lat="44.43386" lon="1.61803">
        <ele>347</ele>
        <time>2024-03-13T14:35:01Z</time>
      </trkpt>
      <trkpt lat="44.43386" lon="1.61804">
        <ele>347</ele>
        <time>2024-03-13T14:35:02Z</time>
      </trkpt>
      <trkpt lat="44.43387" lon="1.61805">
        <ele>347</ele>
        <time>2024-03-13T14:35:03Z</time>
      </trkpt>
      <trkpt lat="44.43388" lon="1.61806">
        <ele>347</ele>
        <time>2024-03-13T14:35:04Z</time>
      </trkpt>
      <trkpt lat="44.43388" lon="1.61807">
        <ele>347</ele>
        <time>2024-03-13T14:35:05Z</time>
      </trkpt>
      <trkpt lat="44.43389" lon="1.61808">
        <ele>346</ele>
        <time>2024-03-13T14:35:06Z</time>
      </trkpt>
      <trkpt lat="44.43389" lon="1.61809">
        <ele>346</ele>
        <time>2024-03-13T14:35:07Z</time>
      </trkpt>
      <trkpt lat="44.4339" lon="1.6181">
        <ele>346</ele>
        <time>2024-03-13T14:35:08Z</time>
      </trkpt>
      <trkpt lat="44.4339" lon="1.61811">
        <ele>346</ele>
        <time>2024-03-13T14:35:09Z</time>
      </trkpt>
      <trkpt lat="44.43391" lon="1.61811">
        <ele>346</ele>
        <time>2024-03-13T14:35:10Z</time>
      </trkpt>
      <trkpt lat="44.43391" lon="1.61812">
        <ele>346</ele>
        <time>2024-03-13T14:35:11Z</time>
      </trkpt>
      <trkpt lat="44.43392" lon="1.61813">
        <ele>346</ele>
        <time>2024-03-13T14:35:12Z</time>
      </trkpt>
      <trkpt lat="44.43393" lon="1.61815">
        <ele>347</ele>
        <time>2024-03-13T14:35:13Z</time>
      </trkpt>
      <trkpt lat="44.43394" lon="1.61815">
        <ele>347</ele>
        <time>2024-03-13T14:35:14Z</time>
      </trkpt>
      <trkpt lat="44.43394" lon="1.61816">
        <ele>347</ele>
        <time>2024-03-13T14:35:15Z</time>
      </trkpt>
      <trkpt lat="44.43394" lon="1.61816">
        <ele>347</ele>
        <time>2024-03-13T14:35:16Z</time>
      </trkpt>
      <trkpt lat="44.43394" lon="1.61816">
        <ele>347</ele>
        <time>2024-03-13T14:35:17Z</time>
      </trkpt>
      <trkpt lat="44.43395" lon="1.61818">
        <ele>347</ele>
        <time>2024-03-13T14:35:18Z</time>
      </trkpt>
      <trkpt lat="44.43396" lon="1.61819">
        <ele>347</ele>
        <time>2024-03-13T14:35:19Z</time>
      </trkpt>
      <trkpt lat="44.43396" lon="1.6182">
        <ele>347</ele>
        <time>2024-03-13T14:35:20Z</time>
      </trkpt>
      <trkpt lat="44.43397" lon="1.61821">
        <ele>347</ele>
        <time>2024-03-13T14:35:21Z</time>
      </trkpt>
      <trkpt lat="44.43398" lon="1.61821">
        <ele>347</ele>
        <time>2024-03-13T14:35:22Z</time>
      </trkpt>
      <trkpt lat="44.43398" lon="1.61822">
        <ele>347</ele>
        <time>2024-03-13T14:35:23Z</time>
      </trkpt>
      <trkpt lat="44.43399" lon="1.61823">
        <ele>347</ele>
        <time>2024-03-13T14:35:24Z</time>
      </trkpt>
      <trkpt lat="44.434" lon="1.61824">
        <ele>346</ele>
        <time>2024-03-13T14:35:25Z</time>
      </trkpt>
      <trkpt lat="44.434" lon="1.61825">
        <ele>346</ele>
        <time>2024-03-13T14:35:26Z</time>
      </trkpt>
      <trkpt lat="44.43401" lon="1.61826">
        <ele>346</ele>
        <time>2024-03-13T14:35:27Z</time>
      </trkpt>
      <trkpt lat="44.43401" lon="1.61828">
        <ele>346</ele>
        <time>2024-03-13T14:35:28Z</time>
      </trkpt>
      <trkpt lat="44.43402" lon="1.61829">
        <ele>347</ele>
        <time>2024-03-13T14:35:29Z</time>
      </trkpt>
      <trkpt lat="44.43403" lon="1.6183">
        <ele>347</ele>
        <time>2024-03-13T14:35:30Z</time>
      </trkpt>
      <trkpt lat="44.43404" lon="1.61831">
        <ele>347</ele>
        <time>2024-03-13T14:35:31Z</time>
      </trkpt>
      <trkpt lat="44.43405" lon="1.61833">
        <ele>347</ele>
        <time>2024-03-13T14:35:32Z</time>
      </trkpt>
      <trkpt lat="44.43406" lon="1.61833">
        <ele>347</ele>
        <time>2024-03-13T14:35:33Z</time>
      </trkpt>
      <trkpt lat="44.43406" lon="1.61835">
        <ele>347</ele>
        <time>2024-03-13T14:35:34Z</time>
      </trkpt>
      <trkpt lat="44.43408" lon="1.61836">
        <ele>347</ele>
        <time>2024-03-13T14:35:35Z</time>
      </trkpt>
      <trkpt lat="44.43408" lon="1.61837">
        <ele>347</ele>
        <time>2024-03-13T14:35:36Z</time>
      </trkpt>
      <trkpt lat="44.43409" lon="1.61838">
        <ele>347</ele>
        <time>2024-03-13T14:35:37Z</time>
      </trkpt>
      <trkpt lat="44.4341" lon="1.61839">
        <ele>347</ele>
        <time>2024-03-13T14:35:38Z</time>
      </trkpt>
      <trkpt lat="44.4341" lon="1.6184">
        <ele>347</ele>
        <time>2024-03-13T14:35:39Z</time>
      </trkpt>
      <trkpt lat="44.43411" lon="1.61841">
        <ele>347</ele>
        <time>2024-03-13T14:35:40Z</time>
      </trkpt>
      <trkpt lat="44.43412" lon="1.61843">
        <ele>347</ele>
        <time>2024-03-13T14:35:41Z</time>
      </trkpt>
      <trkpt lat="44.43412" lon="1.61844">
        <ele>347</ele>
        <time>2024-03-13T14:35:42Z</time>
      </trkpt>
      <trkpt lat="44.43413" lon="1.61845">
        <ele>347</ele>
        <time>2024-03-13T14:35:43Z</time>
      </trkpt>
      <trkpt lat="44.43414" lon="1.61847">
        <ele>347</ele>
        <time>2024-03-13T14:35:44Z</time>
      </trkpt>
      <trkpt lat="44.43414" lon="1.61848">
        <ele>347</ele>
        <time>2024-03-13T14:35:45Z</time>
      </trkpt>
      <trkpt lat="44.43415" lon="1.6185">
        <ele>347</ele>
        <time>2024-03-13T14:35:46Z</time>
      </trkpt>
      <trkpt lat="44.43416" lon="1.61851">
        <ele>347</ele>
        <time>2024-03-13T14:35:47Z</time>
      </trkpt>
      <trkpt lat="44.43417" lon="1.61853">
        <ele>347</ele>
        <time>2024-03-13T14:35:48Z</time>
      </trkpt>
      <trkpt lat="44.43418" lon="1.61854">
        <ele>348</ele>
        <time>2024-03-13T14:35:49Z</time>
      </trkpt>
      <trkpt lat="44.43419" lon="1.61856">
        <ele>348</ele>
        <time>2024-03-13T14:35:50Z</time>
      </trkpt>
      <trkpt lat="44.4342" lon="1.61857">
        <ele>348</ele>
        <time>2024-03-13T14:35:51Z</time>
      </trkpt>
      <trkpt lat="44.43422" lon="1.61859">
        <ele>348</ele>
        <time>2024-03-13T14:35:52Z</time>
      </trkpt>
      <trkpt lat="44.43423" lon="1.61861">
        <ele>348</ele>
        <time>2024-03-13T14:35:53Z</time>
      </trkpt>
      <trkpt lat="44.43424" lon="1.61862">
        <ele>348</ele>
        <time>2024-03-13T14:35:54Z</time>
      </trkpt>
      <trkpt lat="44.43425" lon="1.61863">
        <ele>347</ele>
        <time>2024-03-13T14:35:55Z</time>
      </trkpt>
      <trkpt lat="44.43426" lon="1.61864">
        <ele>347</ele>
        <time>2024-03-13T14:35:56Z</time>
      </trkpt>
      <trkpt lat="44.43427" lon="1.61864">
        <ele>347</ele>
        <time>2024-03-13T14:35:57Z</time>
      </trkpt>
      <trkpt lat="44.43428" lon="1.61865">
        <ele>347</ele>
        <time>2024-03-13T14:35:58Z</time>
      </trkpt>
      <trkpt lat="44.43429" lon="1.61867">
        <ele>347</ele>
        <time>2024-03-13T14:35:59Z</time>
      </trkpt>
      <trkpt lat="44.4343" lon="1.61868">
        <ele>347</ele>
        <time>2024-03-13T14:36:00Z</time>
      </trkpt>
      <trkpt lat="44.43431" lon="1.61869">
        <ele>347</ele>
        <time>2024-03-13T14:36:01Z</time>
      </trkpt>
      <trkpt lat="44.43431" lon="1.6187">
        <ele>347</ele>
        <time>2024-03-13T14:36:02Z</time>
      </trkpt>
      <trkpt lat="44.43432" lon="1.61871">
        <ele>348</ele>
        <time>2024-03-13T14:36:03Z</time>
      </trkpt>
      <trkpt lat="44.43433" lon="1.61872">
        <ele>348</ele>
        <time>2024-03-13T14:36:04Z</time>
      </trkpt>
      <trkpt lat="44.43433" lon="1.61873">
        <ele>348</ele>
        <time>2024-03-13T14:36:05Z</time>
      </trkpt>
      <trkpt lat="44.43435" lon="1.61873">
        <ele>348</ele>
        <time>2024-03-13T14:36:06Z</time>
      </trkpt>
      <trkpt lat="44.43435" lon="1.61874">
        <ele>348</ele>
        <time>2024-03-13T14:36:07Z</time>
      </trkpt>
      <trkpt lat="44.43436" lon="1.61875">
        <ele>348</ele>
        <time>2024-03-13T14:36:08Z</time>
      </trkpt>
      <trkpt lat="44.43437" lon="1.61876">
        <ele>348</ele>
        <time>2024-03-13T14:36:09Z</time>
      </trkpt>
      <trkpt lat="44.43438" lon="1.61877">
        <ele>348</ele>
        <time>2024-03-13T14:36:10Z</time>
      </trkpt>
      <trkpt lat="44.43439" lon="1.61878">
        <ele>348</ele>
        <time>2024-03-13T14:36:11Z</time>
      </trkpt>
      <trkpt lat="44.4344" lon="1.61879">
        <ele>348</ele>
        <time>2024-03-13T14:36:12Z</time>
      </trkpt>
      <trkpt lat="44.43441" lon="1.6188">
        <ele>348</ele>
        <time>2024-03-13T14:36:13Z</time>
      </trkpt>
      <trkpt lat="44.43442" lon="1.61881">
        <ele>348</ele>
        <time>2024-03-13T14:36:14Z</time>
      </trkpt>
      <trkpt lat="44.43443" lon="1.61883">
        <ele>348</ele>
        <time>2024-03-13T14:36:15Z</time>
      </trkpt>
      <trkpt lat="44.43444" lon="1.61884">
        <ele>348</ele>
        <time>2024-03-13T14:36:16Z</time>
      </trkpt>
      <trkpt lat="44.43445" lon="1.61885">
        <ele>348</ele>
        <time>2024-03-13T14:36:17Z</time>
      </trkpt>
      <trkpt lat="44.43446" lon="1.61887">
        <ele>348</ele>
        <time>2024-03-13T14:36:18Z</time>
      </trkpt>
      <trkpt lat="44.43447" lon="1.61888">
        <ele>348</ele>
        <time>2024-03-13T14:36:19Z</time>
      </trkpt>
      <trkpt lat="44.43448" lon="1.61889">
        <ele>348</ele>
        <time>2024-03-13T14:36:20Z</time>
      </trkpt>
      <trkpt lat="44.43449" lon="1.6189">
        <ele>348</ele>
        <time>2024-03-13T14:36:21Z</time>
      </trkpt>
      <trkpt lat="44.4345" lon="1.61891">
        <ele>348</ele>
        <time>2024-03-13T14:36:22Z</time>
      </trkpt>
      <trkpt lat="44.4345" lon="1.61892">
        <ele>348</ele>
        <time>2024-03-13T14:36:23Z</time>
      </trkpt>
      <trkpt lat="44.43451" lon="1.61893">
        <ele>348</ele>
        <time>2024-03-13T14:36:24Z</time>
      </trkpt>
      <trkpt lat="44.43451" lon="1.61894">
        <ele>348</ele>
        <time>2024-03-13T14:36:25Z</time>
      </trkpt>
      <trkpt lat="44.43451" lon="1.61895">
        <ele>348</ele>
        <time>2024-03-13T14:36:26Z</time>
      </trkpt>
      <trkpt lat="44.43452" lon="1.61896">
        <ele>348</ele>
        <time>2024-03-13T14:36:27Z</time>
      </trkpt>
      <trkpt lat="44.43452" lon="1.61897">
        <ele>348</ele>
        <time>2024-03-13T14:36:28Z</time>
      </trkpt>
      <trkpt lat="44.43453" lon="1.61898">
        <ele>348</ele>
        <time>2024-03-13T14:36:29Z</time>
      </trkpt>
      <trkpt lat="44.43454" lon="1.61899">
        <ele>348</ele>
        <time>2024-03-13T14:36:30Z</time>
      </trkpt>
      <trkpt lat="44.43454" lon="1.619">
        <ele>348</ele>
        <time>2024-03-13T14:36:31Z</time>
      </trkpt>
      <trkpt lat="44.43455" lon="1.61902">
        <ele>348</ele>
        <time>2024-03-13T14:36:32Z</time>
      </trkpt>
      <trkpt lat="44.43456" lon="1.61903">
        <ele>348</ele>
        <time>2024-03-13T14:36:33Z</time>
      </trkpt>
      <trkpt lat="44.43456" lon="1.61904">
        <ele>348</ele>
        <time>2024-03-13T14:36:34Z</time>
      </trkpt>
      <trkpt lat="44.43457" lon="1.61905">
        <ele>348</ele>
        <time>2024-03-13T14:36:35Z</time>
      </trkpt>
      <trkpt lat="44.43458" lon="1.61907">
        <ele>348</ele>
        <time>2024-03-13T14:36:36Z</time>
      </trkpt>
      <trkpt lat="44.43459" lon="1.61908">
        <ele>348</ele>
        <time>2024-03-13T14:36:37Z</time>
      </trkpt>
      <trkpt lat="44.4346" lon="1.6191">
        <ele>348</ele>
        <time>2024-03-13T14:36:38Z</time>
      </trkpt>
      <trkpt lat="44.43461" lon="1.61912">
        <ele>348</ele>
        <time>2024-03-13T14:36:39Z</time>
      </trkpt>
      <trkpt lat="44.43463" lon="1.61913">
        <ele>347</ele>
        <time>2024-03-13T14:36:40Z</time>
      </trkpt>
      <trkpt lat="44.43464" lon="1.61914">
        <ele>347</ele>
        <time>2024-03-13T14:36:41Z</time>
      </trkpt>
      <trkpt lat="44.43465" lon="1.61915">
        <ele>347</ele>
        <time>2024-03-13T14:36:42Z</time>
      </trkpt>
      <trkpt lat="44.43467" lon="1.61917">
        <ele>347</ele>
        <time>2024-03-13T14:36:43Z</time>
      </trkpt>
      <trkpt lat="44.43468" lon="1.61918">
        <ele>346</ele>
        <time>2024-03-13T14:36:44Z</time>
      </trkpt>
      <trkpt lat="44.4347" lon="1.6192">
        <ele>346</ele>
        <time>2024-03-13T14:36:45Z</time>
      </trkpt>
      <trkpt lat="44.43471" lon="1.61921">
        <ele>346</ele>
        <time>2024-03-13T14:36:46Z</time>
      </trkpt>
      <trkpt lat="44.43472" lon="1.61923">
        <ele>346</ele>
        <time>2024-03-13T14:36:47Z</time>
      </trkpt>
      <trkpt lat="44.43473" lon="1.61924">
        <ele>346</ele>
        <time>2024-03-13T14:36:48Z</time>
      </trkpt>
      <trkpt lat="44.43474" lon="1.61925">
        <ele>346</ele>
        <time>2024-03-13T14:36:49Z</time>
      </trkpt>
      <trkpt lat="44.43476" lon="1.61926">
        <ele>346</ele>
        <time>2024-03-13T14:36:50Z</time>
      </trkpt>
      <trkpt lat="44.43477" lon="1.61927">
        <ele>346</ele>
        <time>2024-03-13T14:36:51Z</time>
      </trkpt>
      <trkpt lat="44.43478" lon="1.61928">
        <ele>346</ele>
        <time>2024-03-13T14:36:52Z</time>
      </trkpt>
      <trkpt lat="44.4348" lon="1.61929">
        <ele>345</ele>
        <time>2024-03-13T14:36:53Z</time>
      </trkpt>
      <trkpt lat="44.43481" lon="1.6193">
        <ele>345</ele>
        <time>2024-03-13T14:36:54Z</time>
      </trkpt>
      <trkpt lat="44.43481" lon="1.6193">
        <ele>345</ele>
        <time>2024-03-13T14:36:55Z</time>
      </trkpt>
      <trkpt lat="44.43482" lon="1.61931">
        <ele>345</ele>
        <time>2024-03-13T14:36:56Z</time>
      </trkpt>
      <trkpt lat="44.43483" lon="1.61932">
        <ele>344</ele>
        <time>2024-03-13T14:36:57Z</time>
      </trkpt>
      <trkpt lat="44.43484" lon="1.61933">
        <ele>344</ele>
        <time>2024-03-13T14:36:58Z</time>
      </trkpt>
      <trkpt lat="44.43485" lon="1.61934">
        <ele>344</ele>
        <time>2024-03-13T14:36:59Z</time>
      </trkpt>
      <trkpt lat="44.43486" lon="1.61935">
        <ele>345</ele>
        <time>2024-03-13T14:37:00Z</time>
      </trkpt>
      <trkpt lat="44.43486" lon="1.61937">
        <ele>344</ele>
        <time>2024-03-13T14:37:01Z</time>
      </trkpt>
      <trkpt lat="44.43488" lon="1.61938">
        <ele>344</ele>
        <time>2024-03-13T14:37:02Z</time>
      </trkpt>
      <trkpt lat="44.43489" lon="1.61939">
        <ele>344</ele>
        <time>2024-03-13T14:37:03Z</time>
      </trkpt>
      <trkpt lat="44.4349" lon="1.6194">
        <ele>344</ele>
        <time>2024-03-13T14:37:04Z</time>
      </trkpt>
      <trkpt lat="44.43491" lon="1.61942">
        <ele>343</ele>
        <time>2024-03-13T14:37:05Z</time>
      </trkpt>
      <trkpt lat="44.43492" lon="1.61943">
        <ele>343</ele>
        <time>2024-03-13T14:37:06Z</time>
      </trkpt>
      <trkpt lat="44.43493" lon="1.61943">
        <ele>344</ele>
        <time>2024-03-13T14:37:07Z</time>
      </trkpt>
      <trkpt lat="44.43494" lon="1.61944">
        <ele>344</ele>
        <time>2024-03-13T14:37:08Z</time>
      </trkpt>
      <trkpt lat="44.43495" lon="1.61945">
        <ele>343</ele>
        <time>2024-03-13T14:37:09Z</time>
      </trkpt>
      <trkpt lat="44.43496" lon="1.61947">
        <ele>343</ele>
        <time>2024-03-13T14:37:10Z</time>
      </trkpt>
      <trkpt lat="44.43497" lon="1.61948">
        <ele>343</ele>
        <time>2024-03-13T14:37:11Z</time>
      </trkpt>
      <trkpt lat="44.43499" lon="1.61949">
        <ele>343</ele>
        <time>2024-03-13T14:37:12Z</time>
      </trkpt>
      <trkpt lat="44.435" lon="1.6195">
        <ele>343</ele>
        <time>2024-03-13T14:37:13Z</time>
      </trkpt>
      <trkpt lat="44.43501" lon="1.61951">
        <ele>343</ele>
        <time>2024-03-13T14:37:14Z</time>
      </trkpt>
      <trkpt lat="44.43502" lon="1.61952">
        <ele>343</ele>
        <time>2024-03-13T14:37:15Z</time>
      </trkpt>
      <trkpt lat="44.43504" lon="1.61952">
        <ele>343</ele>
        <time>2024-03-13T14:37:16Z</time>
      </trkpt>
      <trkpt lat="44.43504" lon="1.61953">
        <ele>343</ele>
        <time>2024-03-13T14:37:17Z</time>
      </trkpt>
      <trkpt lat="44.43505" lon="1.61954">
        <ele>343</ele>
        <time>2024-03-13T14:37:18Z</time>
      </trkpt>
      <trkpt lat="44.43506" lon="1.61955">
        <ele>343</ele>
        <time>2024-03-13T14:37:19Z</time>
      </trkpt>
      <trkpt lat="44.43507" lon="1.61956">
        <ele>343</ele>
        <time>2024-03-13T14:37:20Z</time>
      </trkpt>
      <trkpt lat="44.43509" lon="1.61957">
        <ele>343</ele>
        <time>2024-03-13T14:37:21Z</time>
      </trkpt>
      <trkpt lat="44.43509" lon="1.61958">
        <ele>343</ele>
        <time>2024-03-13T14:37:22Z</time>
      </trkpt>
      <trkpt lat="44.4351" lon="1.61959">
        <ele>343</ele>
        <time>2024-03-13T14:37:23Z</time>
      </trkpt>
      <trkpt lat="44.43512" lon="1.6196">
        <ele>343</ele>
        <time>2024-03-13T14:37:24Z</time>
      </trkpt>
      <trkpt lat="44.43513" lon="1.61961">
        <ele>342</ele>
        <time>2024-03-13T14:37:25Z</time>
      </trkpt>
      <trkpt lat="44.43514" lon="1.61962">
        <ele>342</ele>
        <time>2024-03-13T14:37:26Z</time>
      </trkpt>
      <trkpt lat="44.43515" lon="1.61963">
        <ele>342</ele>
        <time>2024-03-13T14:37:27Z</time>
      </trkpt>
      <trkpt lat="44.43516" lon="1.61964">
        <ele>342</ele>
        <time>2024-03-13T14:37:28Z</time>
      </trkpt>
      <trkpt lat="44.43517" lon="1.61965">
        <ele>343</ele>
        <time>2024-03-13T14:37:29Z</time>
      </trkpt>
      <trkpt lat="44.43518" lon="1.61965">
        <ele>343</ele>
        <time>2024-03-13T14:37:30Z</time>
      </trkpt>
      <trkpt lat="44.43519" lon="1.61966">
        <ele>343</ele>
        <time>2024-03-13T14:37:31Z</time>
      </trkpt>
      <trkpt lat="44.4352" lon="1.61967">
        <ele>343</ele>
        <time>2024-03-13T14:37:32Z</time>
      </trkpt>
      <trkpt lat="44.43521" lon="1.61968">
        <ele>343</ele>
        <time>2024-03-13T14:37:33Z</time>
      </trkpt>
      <trkpt lat="44.43522" lon="1.61969">
        <ele>343</ele>
        <time>2024-03-13T14:37:34Z</time>
      </trkpt>
      <trkpt lat="44.43523" lon="1.6197">
        <ele>343</ele>
        <time>2024-03-13T14:37:35Z</time>
      </trkpt>
      <trkpt lat="44.43523" lon="1.6197">
        <ele>343</ele>
        <time>2024-03-13T14:37:36Z</time>
      </trkpt>
      <trkpt lat="44.43524" lon="1.61971">
        <ele>343</ele>
        <time>2024-03-13T14:37:37Z</time>
      </trkpt>
      <trkpt lat="44.43525" lon="1.61971">
        <ele>343</ele>
        <time>2024-03-13T14:37:38Z</time>
      </trkpt>
      <trkpt lat="44.43526" lon="1.61972">
        <ele>343</ele>
        <time>2024-03-13T14:37:39Z</time>
      </trkpt>
      <trkpt lat="44.43526" lon="1.61972">
        <ele>343</ele>
        <time>2024-03-13T14:37:40Z</time>
      </trkpt>
      <trkpt lat="44.43527" lon="1.61973">
        <ele>343</ele>
        <time>2024-03-13T14:37:41Z</time>
      </trkpt>
      <trkpt lat="44.43528" lon="1.61974">
        <ele>343</ele>
        <time>2024-03-13T14:37:42Z</time>
      </trkpt>
      <trkpt lat="44.43528" lon="1.61974">
        <ele>343</ele>
        <time>2024-03-13T14:37:43Z</time>
      </trkpt>
      <trkpt lat="44.4353" lon="1.61975">
        <ele>343</ele>
        <time>2024-03-13T14:37:44Z</time>
      </trkpt>
      <trkpt lat="44.43531" lon="1.61976">
        <ele>343</ele>
        <time>2024-03-13T14:37:45Z</time>
      </trkpt>
      <trkpt lat="44.43532" lon="1.61976">
        <ele>343</ele>
        <time>2024-03-13T14:37:46Z</time>
      </trkpt>
      <trkpt lat="44.43533" lon="1.61977">
        <ele>344</ele>
        <time>2024-03-13T14:37:47Z</time>
      </trkpt>
      <trkpt lat="44.43534" lon="1.61977">
        <ele>344</ele>
        <time>2024-03-13T14:37:48Z</time>
      </trkpt>
      <trkpt lat="44.43535" lon="1.61978">
        <ele>344</ele>
        <time>2024-03-13T14:37:49Z</time>
      </trkpt>
      <trkpt lat="44.43536" lon="1.61979">
        <ele>344</ele>
        <time>2024-03-13T14:37:50Z</time>
      </trkpt>
      <trkpt lat="44.43537" lon="1.6198">
        <ele>344</ele>
        <time>2024-03-13T14:37:51Z</time>
      </trkpt>
      <trkpt lat="44.43538" lon="1.61981">
        <ele>343</ele>
        <time>2024-03-13T14:37:52Z</time>
      </trkpt>
      <trkpt lat="44.43539" lon="1.61981">
        <ele>343</ele>
        <time>2024-03-13T14:37:53Z</time>
      </trkpt>
      <trkpt lat="44.4354" lon="1.61982">
        <ele>344</ele>
        <time>2024-03-13T14:37:54Z</time>
      </trkpt>
      <trkpt lat="44.43541" lon="1.61983">
        <ele>344</ele>
        <time>2024-03-13T14:37:55Z</time>
      </trkpt>
      <trkpt lat="44.43543" lon="1.61984">
        <ele>344</ele>
        <time>2024-03-13T14:37:56Z</time>
      </trkpt>
      <trkpt lat="44.43544" lon="1.61985">
        <ele>344</ele>
        <time>2024-03-13T14:37:57Z</time>
      </trkpt>
      <trkpt lat="44.43546" lon="1.61986">
        <ele>343</ele>
        <time>2024-03-13T14:37:58Z</time>
      </trkpt>
      <trkpt lat="44.43547" lon="1.61987">
        <ele>343</ele>
        <time>2024-03-13T14:37:59Z</time>
      </trkpt>
      <trkpt lat="44.43548" lon="1.61988">
        <ele>343</ele>
        <time>2024-03-13T14:38:00Z</time>
      </trkpt>
      <trkpt lat="44.43549" lon="1.61989">
        <ele>343</ele>
        <time>2024-03-13T14:38:01Z</time>
      </trkpt>
      <trkpt lat="44.4355" lon="1.6199">
        <ele>343</ele>
        <time>2024-03-13T14:38:02Z</time>
      </trkpt>
      <trkpt lat="44.43552" lon="1.6199">
        <ele>343</ele>
        <time>2024-03-13T14:38:03Z</time>
      </trkpt>
      <trkpt lat="44.43553" lon="1.61991">
        <ele>343</ele>
        <time>2024-03-13T14:38:04Z</time>
      </trkpt>
      <trkpt lat="44.43554" lon="1.61992">
        <ele>343</ele>
        <time>2024-03-13T14:38:05Z</time>
      </trkpt>
      <trkpt lat="44.43555" lon="1.61993">
        <ele>343</ele>
        <time>2024-03-13T14:38:06Z</time>
      </trkpt>
      <trkpt lat="44.43556" lon="1.61993">
        <ele>343</ele>
        <time>2024-03-13T14:38:07Z</time>
      </trkpt>
      <trkpt lat="44.43557" lon="1.61994">
        <ele>343</ele>
        <time>2024-03-13T14:38:08Z</time>
      </trkpt>
      <trkpt lat="44.43559" lon="1.61995">
        <ele>343</ele>
        <time>2024-03-13T14:38:09Z</time>
      </trkpt>
      <trkpt lat="44.4356" lon="1.61996">
        <ele>343</ele>
        <time>2024-03-13T14:38:10Z</time>
      </trkpt>
      <trkpt lat="44.43561" lon="1.61997">
        <ele>343</ele>
        <time>2024-03-13T14:38:11Z</time>
      </trkpt>
      <trkpt lat="44.43562" lon="1.61998">
        <ele>342</ele>
        <time>2024-03-13T14:38:12Z</time>
      </trkpt>
      <trkpt lat="44.43563" lon="1.61999">
        <ele>343</ele>
        <time>2024-03-13T14:38:13Z</time>
      </trkpt>
      <trkpt lat="44.43564" lon="1.61999">
        <ele>342</ele>
        <time>2024-03-13T14:38:14Z</time>
      </trkpt>
      <trkpt lat="44.43565" lon="1.62">
        <ele>342</ele>
        <time>2024-03-13T14:38:15Z</time>
      </trkpt>
      <trkpt lat="44.43566" lon="1.62">
        <ele>342</ele>
        <time>2024-03-13T14:38:16Z</time>
      </trkpt>
      <trkpt lat="44.43567" lon="1.62001">
        <ele>342</ele>
        <time>2024-03-13T14:38:17Z</time>
      </trkpt>
      <trkpt lat="44.43568" lon="1.62002">
        <ele>342</ele>
        <time>2024-03-13T14:38:18Z</time>
      </trkpt>
      <trkpt lat="44.43569" lon="1.62002">
        <ele>342</ele>
        <time>2024-03-13T14:38:19Z</time>
      </trkpt>
      <trkpt lat="44.4357" lon="1.62003">
        <ele>342</ele>
        <time>2024-03-13T14:38:20Z</time>
      </trkpt>
      <trkpt lat="44.4357" lon="1.62004">
        <ele>342</ele>
        <time>2024-03-13T14:38:21Z</time>
      </trkpt>
      <trkpt lat="44.43571" lon="1.62005">
        <ele>342</ele>
        <time>2024-03-13T14:38:22Z</time>
      </trkpt>
      <trkpt lat="44.43572" lon="1.62005">
        <ele>342</ele>
        <time>2024-03-13T14:38:23Z</time>
      </trkpt>
      <trkpt lat="44.43573" lon="1.62006">
        <ele>342</ele>
        <time>2024-03-13T14:38:24Z</time>
      </trkpt>
      <trkpt lat="44.43574" lon="1.62007">
        <ele>342</ele>
        <time>2024-03-13T14:38:25Z</time>
      </trkpt>
      <trkpt lat="44.43575" lon="1.62009">
        <ele>341</ele>
        <time>2024-03-13T14:38:26Z</time>
      </trkpt>
      <trkpt lat="44.43576" lon="1.62009">
        <ele>341</ele>
        <time>2024-03-13T14:38:27Z</time>
      </trkpt>
      <trkpt lat="44.43577" lon="1.6201">
        <ele>341</ele>
        <time>2024-03-13T14:38:28Z</time>
      </trkpt>
      <trkpt lat="44.43578" lon="1.62011">
        <ele>341</ele>
        <time>2024-03-13T14:38:29Z</time>
      </trkpt>
      <trkpt lat="44.43579" lon="1.62011">
        <ele>340</ele>
        <time>2024-03-13T14:38:30Z</time>
      </trkpt>
      <trkpt lat="44.43579" lon="1.62011">
        <ele>341</ele>
        <time>2024-03-13T14:38:31Z</time>
      </trkpt>
      <trkpt lat="44.4358" lon="1.62012">
        <ele>340</ele>
        <time>2024-03-13T14:38:32Z</time>
      </trkpt>
      <trkpt lat="44.4358" lon="1.62012">
        <ele>340</ele>
        <time>2024-03-13T14:38:33Z</time>
      </trkpt>
      <trkpt lat="44.43582" lon="1.62012">
        <ele>341</ele>
        <time>2024-03-13T14:38:34Z</time>
      </trkpt>
      <trkpt lat="44.43583" lon="1.62013">
        <ele>340</ele>
        <time>2024-03-13T14:38:35Z</time>
      </trkpt>
      <trkpt lat="44.43584" lon="1.62014">
        <ele>340</ele>
        <time>2024-03-13T14:38:36Z</time>
      </trkpt>
      <trkpt lat="44.43585" lon="1.62014">
        <ele>340</ele>
        <time>2024-03-13T14:38:37Z</time>
      </trkpt>
      <trkpt lat="44.43586" lon="1.62015">
        <ele>340</ele>
        <time>2024-03-13T14:38:38Z</time>
      </trkpt>
      <trkpt lat="44.43587" lon="1.62016">
        <ele>340</ele>
        <time>2024-03-13T14:38:39Z</time>
      </trkpt>
      <trkpt lat="44.43589" lon="1.62016">
        <ele>339</ele>
        <time>2024-03-13T14:38:40Z</time>
      </trkpt>
      <trkpt lat="44.4359" lon="1.62017">
        <ele>340</ele>
        <time>2024-03-13T14:38:41Z</time>
      </trkpt>
      <trkpt lat="44.43591" lon="1.62017">
        <ele>340</ele>
        <time>2024-03-13T14:38:42Z</time>
      </trkpt>
      <trkpt lat="44.43592" lon="1.62017">
        <ele>340</ele>
        <time>2024-03-13T14:38:43Z</time>
      </trkpt>
      <trkpt lat="44.43594" lon="1.62018">
        <ele>340</ele>
        <time>2024-03-13T14:38:44Z</time>
      </trkpt>
      <trkpt lat="44.43595" lon="1.62019">
        <ele>340</ele>
        <time>2024-03-13T14:38:45Z</time>
      </trkpt>
      <trkpt lat="44.43596" lon="1.6202">
        <ele>340</ele>
        <time>2024-03-13T14:38:46Z</time>
      </trkpt>
      <trkpt lat="44.43596" lon="1.6202">
        <ele>340</ele>
        <time>2024-03-13T14:38:47Z</time>
      </trkpt>
      <trkpt lat="44.43597" lon="1.62021">
        <ele>340</ele>
        <time>2024-03-13T14:38:48Z</time>
      </trkpt>
      <trkpt lat="44.43598" lon="1.62022">
        <ele>340</ele>
        <time>2024-03-13T14:38:49Z</time>
      </trkpt>
      <trkpt lat="44.43599" lon="1.62024">
        <ele>340</ele>
        <time>2024-03-13T14:38:50Z</time>
      </trkpt>
      <trkpt lat="44.436" lon="1.62024">
        <ele>339</ele>
        <time>2024-03-13T14:38:51Z</time>
      </trkpt>
      <trkpt lat="44.43601" lon="1.62025">
        <ele>339</ele>
        <time>2024-03-13T14:38:52Z</time>
      </trkpt>
      <trkpt lat="44.43602" lon="1.62026">
        <ele>339</ele>
        <time>2024-03-13T14:38:53Z</time>
      </trkpt>
      <trkpt lat="44.43603" lon="1.62028">
        <ele>339</ele>
        <time>2024-03-13T14:38:54Z</time>
      </trkpt>
      <trkpt lat="44.43604" lon="1.62029">
        <ele>339</ele>
        <time>2024-03-13T14:38:55Z</time>
      </trkpt>
      <trkpt lat="44.43605" lon="1.6203">
        <ele>338</ele>
        <time>2024-03-13T14:38:56Z</time>
      </trkpt>
      <trkpt lat="44.43606" lon="1.62031">
        <ele>338</ele>
        <time>2024-03-13T14:38:57Z</time>
      </trkpt>
      <trkpt lat="44.43607" lon="1.62032">
        <ele>338</ele>
        <time>2024-03-13T14:38:58Z</time>
      </trkpt>
      <trkpt lat="44.43608" lon="1.62033">
        <ele>337</ele>
        <time>2024-03-13T14:38:59Z</time>
      </trkpt>
      <trkpt lat="44.43609" lon="1.62034">
        <ele>337</ele>
        <time>2024-03-13T14:39:00Z</time>
      </trkpt>
      <trkpt lat="44.4361" lon="1.62035">
        <ele>338</ele>
        <time>2024-03-13T14:39:01Z</time>
      </trkpt>
      <trkpt lat="44.4361" lon="1.62036">
        <ele>338</ele>
        <time>2024-03-13T14:39:02Z</time>
      </trkpt>
      <trkpt lat="44.43611" lon="1.62037">
        <ele>337</ele>
        <time>2024-03-13T14:39:03Z</time>
      </trkpt>
      <trkpt lat="44.43612" lon="1.62038">
        <ele>338</ele>
        <time>2024-03-13T14:39:04Z</time>
      </trkpt>
      <trkpt lat="44.43613" lon="1.62039">
        <ele>338</ele>
        <time>2024-03-13T14:39:05Z</time>
      </trkpt>
      <trkpt lat="44.43614" lon="1.6204">
        <ele>338</ele>
        <time>2024-03-13T14:39:06Z</time>
      </trkpt>
      <trkpt lat="44.43615" lon="1.62041">
        <ele>337</ele>
        <time>2024-03-13T14:39:07Z</time>
      </trkpt>
      <trkpt lat="44.43616" lon="1.62042">
        <ele>337</ele>
        <time>2024-03-13T14:39:08Z</time>
      </trkpt>
      <trkpt lat="44.43616" lon="1.62043">
        <ele>337</ele>
        <time>2024-03-13T14:39:09Z</time>
      </trkpt>
      <trkpt lat="44.43617" lon="1.62044">
        <ele>337</ele>
        <time>2024-03-13T14:39:10Z</time>
      </trkpt>
      <trkpt lat="44.43618" lon="1.62045">
        <ele>338</ele>
        <time>2024-03-13T14:39:11Z</time>
      </trkpt>
      <trkpt lat="44.43618" lon="1.62046">
        <ele>338</ele>
        <time>2024-03-13T14:39:12Z</time>
      </trkpt>
      <trkpt lat="44.43619" lon="1.62047">
        <ele>338</ele>
        <time>2024-03-13T14:39:13Z</time>
      </trkpt>
      <trkpt lat="44.4362" lon="1.62048">
        <ele>338</ele>
        <time>2024-03-13T14:39:14Z</time>
      </trkpt>
      <trkpt lat="44.4362" lon="1.62049">
        <ele>337</ele>
        <time>2024-03-13T14:39:15Z</time>
      </trkpt>
      <trkpt lat="44.43621" lon="1.62051">
        <ele>337</ele>
        <time>2024-03-13T14:39:16Z</time>
      </trkpt>
      <trkpt lat="44.43622" lon="1.62052">
        <ele>338</ele>
        <time>2024-03-13T14:39:17Z</time>
      </trkpt>
      <trkpt lat="44.43623" lon="1.62053">
        <ele>338</ele>
        <time>2024-03-13T14:39:18Z</time>
      </trkpt>
      <trkpt lat="44.43624" lon="1.62055">
        <ele>338</ele>
        <time>2024-03-13T14:39:19Z</time>
      </trkpt>
      <trkpt lat="44.43626" lon="1.62056">
        <ele>338</ele>
        <time>2024-03-13T14:39:20Z</time>
      </trkpt>
      <trkpt lat="44.43627" lon="1.62058">
        <ele>337</ele>
        <time>2024-03-13T14:39:21Z</time>
      </trkpt>
      <trkpt lat="44.43628" lon="1.62059">
        <ele>337</ele>
        <time>2024-03-13T14:39:22Z</time>
      </trkpt>
      <trkpt lat="44.43629" lon="1.62061">
        <ele>337</ele>
        <time>2024-03-13T14:39:23Z</time>
      </trkpt>
      <trkpt lat="44.43631" lon="1.62063">
        <ele>337</ele>
        <time>2024-03-13T14:39:24Z</time>
      </trkpt>
      <trkpt lat="44.43631" lon="1.62065">
        <ele>337</ele>
        <time>2024-03-13T14:39:25Z</time>
      </trkpt>
      <trkpt lat="44.43632" lon="1.62066">
        <ele>337</ele>
        <time>2024-03-13T14:39:26Z</time>
      </trkpt>
      <trkpt lat="44.43633" lon="1.62067">
        <ele>336</ele>
        <time>2024-03-13T14:39:27Z</time>
      </trkpt>
      <trkpt lat="44.43634" lon="1.62069">
        <ele>336</ele>
        <time>2024-03-13T14:39:28Z</time>
      </trkpt>
      <trkpt lat="44.43635" lon="1.6207">
        <ele>336</ele>
        <time>2024-03-13T14:39:29Z</time>
      </trkpt>
      <trkpt lat="44.43636" lon="1.62071">
        <ele>335</ele>
        <time>2024-03-13T14:39:30Z</time>
      </trkpt>
      <trkpt lat="44.43637" lon="1.62072">
        <ele>335</ele>
        <time>2024-03-13T14:39:31Z</time>
      </trkpt>
      <trkpt lat="44.43637" lon="1.62072">
        <ele>335</ele>
        <time>2024-03-13T14:39:32Z</time>
      </trkpt>
      <trkpt lat="44.43637" lon="1.62072">
        <ele>335</ele>
        <time>2024-03-13T14:39:33Z</time>
      </trkpt>
      <trkpt lat="44.43637" lon="1.62072">
        <ele>335</ele>
        <time>2024-03-13T14:39:34Z</time>
      </trkpt>
      <trkpt lat="44.43638" lon="1.62072">
        <ele>334</ele>
        <time>2024-03-13T14:39:35Z</time>
      </trkpt>
      <trkpt lat="44.43638" lon="1.62072">
        <ele>334</ele>
        <time>2024-03-13T14:39:36Z</time>
      </trkpt>
      <trkpt lat="44.43638" lon="1.62072">
        <ele>334</ele>
        <time>2024-03-13T14:39:37Z</time>
      </trkpt>
      <trkpt lat="44.43639" lon="1.62073">
        <ele>334</ele>
        <time>2024-03-13T14:39:38Z</time>
      </trkpt>
      <trkpt lat="44.43639" lon="1.62073">
        <ele>334</ele>
        <time>2024-03-13T14:39:39Z</time>
      </trkpt>
      <trkpt lat="44.43639" lon="1.62074">
        <ele>333</ele>
        <time>2024-03-13T14:39:40Z</time>
      </trkpt>
      <trkpt lat="44.4364" lon="1.62075">
        <ele>334</ele>
        <time>2024-03-13T14:39:41Z</time>
      </trkpt>
      <trkpt lat="44.4364" lon="1.62075">
        <ele>334</ele>
        <time>2024-03-13T14:39:42Z</time>
      </trkpt>
      <trkpt lat="44.43641" lon="1.62075">
        <ele>334</ele>
        <time>2024-03-13T14:39:43Z</time>
      </trkpt>
      <trkpt lat="44.43641" lon="1.62076">
        <ele>333</ele>
        <time>2024-03-13T14:39:44Z</time>
      </trkpt>
      <trkpt lat="44.43641" lon="1.62076">
        <ele>333</ele>
        <time>2024-03-13T14:39:45Z</time>
      </trkpt>
      <trkpt lat="44.43641" lon="1.62076">
        <ele>333</ele>
        <time>2024-03-13T14:39:46Z</time>
      </trkpt>
      <trkpt lat="44.43641" lon="1.62076">
        <ele>333</ele>
        <time>2024-03-13T14:39:47Z</time>
      </trkpt>
      <trkpt lat="44.43641" lon="1.62076">
        <ele>333</ele>
        <time>2024-03-13T14:39:48Z</time>
      </trkpt>
      <trkpt lat="44.43642" lon="1.62077">
        <ele>333</ele>
        <time>2024-03-13T14:39:49Z</time>
      </trkpt>
      <trkpt lat="44.43642" lon="1.62078">
        <ele>332</ele>
        <time>2024-03-13T14:39:50Z</time>
      </trkpt>
      <trkpt lat="44.43643" lon="1.62078">
        <ele>332</ele>
        <time>2024-03-13T14:39:51Z</time>
      </trkpt>
      <trkpt lat="44.43644" lon="1.62079">
        <ele>332</ele>
        <time>2024-03-13T14:39:52Z</time>
      </trkpt>
      <trkpt lat="44.43645" lon="1.6208">
        <ele>332</ele>
        <time>2024-03-13T14:39:53Z</time>
      </trkpt>
      <trkpt lat="44.43645" lon="1.62081">
        <ele>332</ele>
        <time>2024-03-13T14:39:54Z</time>
      </trkpt>
      <trkpt lat="44.43646" lon="1.62081">
        <ele>332</ele>
        <time>2024-03-13T14:39:55Z</time>
      </trkpt>
      <trkpt lat="44.43647" lon="1.62082">
        <ele>331</ele>
        <time>2024-03-13T14:39:56Z</time>
      </trkpt>
      <trkpt lat="44.43648" lon="1.62083">
        <ele>331</ele>
        <time>2024-03-13T14:39:57Z</time>
      </trkpt>
      <trkpt lat="44.43649" lon="1.62084">
        <ele>331</ele>
        <time>2024-03-13T14:39:58Z</time>
      </trkpt>
      <trkpt lat="44.43649" lon="1.62085">
        <ele>331</ele>
        <time>2024-03-13T14:39:59Z</time>
      </trkpt>
      <trkpt lat="44.4365" lon="1.62085">
        <ele>331</ele>
        <time>2024-03-13T14:40:00Z</time>
      </trkpt>
      <trkpt lat="44.43651" lon="1.62086">
        <ele>332</ele>
        <time>2024-03-13T14:40:01Z</time>
      </trkpt>
      <trkpt lat="44.43652" lon="1.62087">
        <ele>332</ele>
        <time>2024-03-13T14:40:02Z</time>
      </trkpt>
      <trkpt lat="44.43653" lon="1.62088">
        <ele>332</ele>
        <time>2024-03-13T14:40:03Z</time>
      </trkpt>
      <trkpt lat="44.43653" lon="1.62089">
        <ele>332</ele>
        <time>2024-03-13T14:40:04Z</time>
      </trkpt>
      <trkpt lat="44.43654" lon="1.6209">
        <ele>332</ele>
        <time>2024-03-13T14:40:05Z</time>
      </trkpt>
      <trkpt lat="44.43655" lon="1.62091">
        <ele>333</ele>
        <time>2024-03-13T14:40:06Z</time>
      </trkpt>
      <trkpt lat="44.43655" lon="1.62092">
        <ele>332</ele>
        <time>2024-03-13T14:40:07Z</time>
      </trkpt>
      <trkpt lat="44.43656" lon="1.62094">
        <ele>332</ele>
        <time>2024-03-13T14:40:08Z</time>
      </trkpt>
      <trkpt lat="44.43657" lon="1.62095">
        <ele>331</ele>
        <time>2024-03-13T14:40:09Z</time>
      </trkpt>
      <trkpt lat="44.43658" lon="1.62095">
        <ele>331</ele>
        <time>2024-03-13T14:40:10Z</time>
      </trkpt>
      <trkpt lat="44.43659" lon="1.62096">
        <ele>331</ele>
        <time>2024-03-13T14:40:11Z</time>
      </trkpt>
      <trkpt lat="44.4366" lon="1.62097">
        <ele>330</ele>
        <time>2024-03-13T14:40:12Z</time>
      </trkpt>
      <trkpt lat="44.4366" lon="1.62098">
        <ele>330</ele>
        <time>2024-03-13T14:40:13Z</time>
      </trkpt>
      <trkpt lat="44.43661" lon="1.62099">
        <ele>330</ele>
        <time>2024-03-13T14:40:14Z</time>
      </trkpt>
      <trkpt lat="44.43661" lon="1.621">
        <ele>330</ele>
        <time>2024-03-13T14:40:15Z</time>
      </trkpt>
      <trkpt lat="44.43662" lon="1.62101">
        <ele>330</ele>
        <time>2024-03-13T14:40:16Z</time>
      </trkpt>
      <trkpt lat="44.43663" lon="1.62102">
        <ele>329</ele>
        <time>2024-03-13T14:40:17Z</time>
      </trkpt>
      <trkpt lat="44.43664" lon="1.62103">
        <ele>329</ele>
        <time>2024-03-13T14:40:18Z</time>
      </trkpt>
      <trkpt lat="44.43665" lon="1.62104">
        <ele>330</ele>
        <time>2024-03-13T14:40:19Z</time>
      </trkpt>
      <trkpt lat="44.43665" lon="1.62105">
        <ele>330</ele>
        <time>2024-03-13T14:40:20Z</time>
      </trkpt>
      <trkpt lat="44.43666" lon="1.62105">
        <ele>329</ele>
        <time>2024-03-13T14:40:21Z</time>
      </trkpt>
      <trkpt lat="44.43667" lon="1.62106">
        <ele>329</ele>
        <time>2024-03-13T14:40:22Z</time>
      </trkpt>
      <trkpt lat="44.43668" lon="1.62107">
        <ele>329</ele>
        <time>2024-03-13T14:40:23Z</time>
      </trkpt>
      <trkpt lat="44.43668" lon="1.62108">
        <ele>329</ele>
        <time>2024-03-13T14:40:24Z</time>
      </trkpt>
      <trkpt lat="44.43669" lon="1.62108">
        <ele>329</ele>
        <time>2024-03-13T14:40:25Z</time>
      </trkpt>
      <trkpt lat="44.4367" lon="1.62109">
        <ele>329</ele>
        <time>2024-03-13T14:40:26Z</time>
      </trkpt>
      <trkpt lat="44.4367" lon="1.6211">
        <ele>329</ele>
        <time>2024-03-13T14:40:27Z</time>
      </trkpt>
      <trkpt lat="44.4367" lon="1.62111">
        <ele>329</ele>
        <time>2024-03-13T14:40:28Z</time>
      </trkpt>
      <trkpt lat="44.4367" lon="1.62111">
        <ele>329</ele>
        <time>2024-03-13T14:40:29Z</time>
      </trkpt>
      <trkpt lat="44.43671" lon="1.62113">
        <ele>330</ele>
        <time>2024-03-13T14:40:30Z</time>
      </trkpt>
      <trkpt lat="44.43671" lon="1.62114">
        <ele>330</ele>
        <time>2024-03-13T14:40:31Z</time>
      </trkpt>
      <trkpt lat="44.43672" lon="1.62115">
        <ele>329</ele>
        <time>2024-03-13T14:40:32Z</time>
      </trkpt>
      <trkpt lat="44.43673" lon="1.62116">
        <ele>329</ele>
        <time>2024-03-13T14:40:33Z</time>
      </trkpt>
      <trkpt lat="44.43673" lon="1.62117">
        <ele>330</ele>
        <time>2024-03-13T14:40:34Z</time>
      </trkpt>
      <trkpt lat="44.43674" lon="1.62119">
        <ele>330</ele>
        <time>2024-03-13T14:40:35Z</time>
      </trkpt>
      <trkpt lat="44.43674" lon="1.6212">
        <ele>329</ele>
        <time>2024-03-13T14:40:36Z</time>
      </trkpt>
      <trkpt lat="44.43675" lon="1.62122">
        <ele>329</ele>
        <time>2024-03-13T14:40:37Z</time>
      </trkpt>
      <trkpt lat="44.43676" lon="1.62123">
        <ele>329</ele>
        <time>2024-03-13T14:40:38Z</time>
      </trkpt>
      <trkpt lat="44.43677" lon="1.62124">
        <ele>329</ele>
        <time>2024-03-13T14:40:39Z</time>
      </trkpt>
      <trkpt lat="44.43678" lon="1.62125">
        <ele>329</ele>
        <time>2024-03-13T14:40:40Z</time>
      </trkpt>
      <trkpt lat="44.43679" lon="1.62126">
        <ele>329</ele>
        <time>2024-03-13T14:40:41Z</time>
      </trkpt>
      <trkpt lat="44.4368" lon="1.62128">
        <ele>329</ele>
        <time>2024-03-13T14:40:42Z</time>
      </trkpt>
      <trkpt lat="44.43681" lon="1.62129">
        <ele>329</ele>
        <time>2024-03-13T14:40:43Z</time>
      </trkpt>
      <trkpt lat="44.43681" lon="1.62131">
        <ele>329</ele>
        <time>2024-03-13T14:40:44Z</time>
      </trkpt>
      <trkpt lat="44.43682" lon="1.62133">
        <ele>328</ele>
        <time>2024-03-13T14:40:45Z</time>
      </trkpt>
      <trkpt lat="44.43683" lon="1.62135">
        <ele>328</ele>
        <time>2024-03-13T14:40:46Z</time>
      </trkpt>
      <trkpt lat="44.43684" lon="1.62136">
        <ele>327</ele>
        <time>2024-03-13T14:40:47Z</time>
      </trkpt>
      <trkpt lat="44.43685" lon="1.62137">
        <ele>327</ele>
        <time>2024-03-13T14:40:48Z</time>
      </trkpt>
      <trkpt lat="44.43686" lon="1.62139">
        <ele>327</ele>
        <time>2024-03-13T14:40:49Z</time>
      </trkpt>
      <trkpt lat="44.43687" lon="1.6214">
        <ele>326</ele>
        <time>2024-03-13T14:40:50Z</time>
      </trkpt>
      <trkpt lat="44.43688" lon="1.62142">
        <ele>326</ele>
        <time>2024-03-13T14:40:51Z</time>
      </trkpt>
      <trkpt lat="44.43689" lon="1.62143">
        <ele>326</ele>
        <time>2024-03-13T14:40:52Z</time>
      </trkpt>
      <trkpt lat="44.43689" lon="1.62145">
        <ele>326</ele>
        <time>2024-03-13T14:40:53Z</time>
      </trkpt>
      <trkpt lat="44.4369" lon="1.62146">
        <ele>326</ele>
        <time>2024-03-13T14:40:54Z</time>
      </trkpt>
      <trkpt lat="44.4369" lon="1.62148">
        <ele>326</ele>
        <time>2024-03-13T14:40:55Z</time>
      </trkpt>
      <trkpt lat="44.43691" lon="1.6215">
        <ele>326</ele>
        <time>2024-03-13T14:40:56Z</time>
      </trkpt>
      <trkpt lat="44.43692" lon="1.62151">
        <ele>326</ele>
        <time>2024-03-13T14:40:57Z</time>
      </trkpt>
      <trkpt lat="44.43693" lon="1.62152">
        <ele>325</ele>
        <time>2024-03-13T14:40:58Z</time>
      </trkpt>
      <trkpt lat="44.43694" lon="1.62153">
        <ele>325</ele>
        <time>2024-03-13T14:40:59Z</time>
      </trkpt>
      <trkpt lat="44.43694" lon="1.62154">
        <ele>325</ele>
        <time>2024-03-13T14:41:00Z</time>
      </trkpt>
      <trkpt lat="44.43695" lon="1.62156">
        <ele>325</ele>
        <time>2024-03-13T14:41:01Z</time>
      </trkpt>
      <trkpt lat="44.43695" lon="1.62157">
        <ele>324</ele>
        <time>2024-03-13T14:41:02Z</time>
      </trkpt>
      <trkpt lat="44.43697" lon="1.62159">
        <ele>324</ele>
        <time>2024-03-13T14:41:03Z</time>
      </trkpt>
      <trkpt lat="44.43697" lon="1.6216">
        <ele>324</ele>
        <time>2024-03-13T14:41:04Z</time>
      </trkpt>
      <trkpt lat="44.43699" lon="1.62162">
        <ele>324</ele>
        <time>2024-03-13T14:41:05Z</time>
      </trkpt>
      <trkpt lat="44.43699" lon="1.62163">
        <ele>324</ele>
        <time>2024-03-13T14:41:06Z</time>
      </trkpt>
      <trkpt lat="44.437" lon="1.62164">
        <ele>324</ele>
        <time>2024-03-13T14:41:07Z</time>
      </trkpt>
      <trkpt lat="44.43701" lon="1.62165">
        <ele>324</ele>
        <time>2024-03-13T14:41:08Z</time>
      </trkpt>
      <trkpt lat="44.43702" lon="1.62166">
        <ele>323</ele>
        <time>2024-03-13T14:41:09Z</time>
      </trkpt>
      <trkpt lat="44.43702" lon="1.62167">
        <ele>323</ele>
        <time>2024-03-13T14:41:10Z</time>
      </trkpt>
      <trkpt lat="44.43703" lon="1.62169">
        <ele>323</ele>
        <time>2024-03-13T14:41:11Z</time>
      </trkpt>
      <trkpt lat="44.43703" lon="1.6217">
        <ele>322</ele>
        <time>2024-03-13T14:41:12Z</time>
      </trkpt>
      <trkpt lat="44.43704" lon="1.62171">
        <ele>322</ele>
        <time>2024-03-13T14:41:13Z</time>
      </trkpt>
      <trkpt lat="44.43705" lon="1.62172">
        <ele>322</ele>
        <time>2024-03-13T14:41:14Z</time>
      </trkpt>
      <trkpt lat="44.43705" lon="1.62172">
        <ele>322</ele>
        <time>2024-03-13T14:41:15Z</time>
      </trkpt>
      <trkpt lat="44.43705" lon="1.62172">
        <ele>322</ele>
        <time>2024-03-13T14:41:16Z</time>
      </trkpt>
      <trkpt lat="44.43705" lon="1.62173">
        <ele>322</ele>
        <time>2024-03-13T14:41:17Z</time>
      </trkpt>
      <trkpt lat="44.43707" lon="1.62174">
        <ele>322</ele>
        <time>2024-03-13T14:41:18Z</time>
      </trkpt>
      <trkpt lat="44.43707" lon="1.62175">
        <ele>322</ele>
        <time>2024-03-13T14:41:19Z</time>
      </trkpt>
      <trkpt lat="44.43708" lon="1.62176">
        <ele>322</ele>
        <time>2024-03-13T14:41:20Z</time>
      </trkpt>
      <trkpt lat="44.43709" lon="1.62177">
        <ele>321</ele>
        <time>2024-03-13T14:41:21Z</time>
      </trkpt>
      <trkpt lat="44.4371" lon="1.62179">
        <ele>321</ele>
        <time>2024-03-13T14:41:22Z</time>
      </trkpt>
      <trkpt lat="44.43711" lon="1.6218">
        <ele>321</ele>
        <time>2024-03-13T14:41:23Z</time>
      </trkpt>
      <trkpt lat="44.43711" lon="1.62181">
        <ele>321</ele>
        <time>2024-03-13T14:41:24Z</time>
      </trkpt>
      <trkpt lat="44.43712" lon="1.62183">
        <ele>321</ele>
        <time>2024-03-13T14:41:25Z</time>
      </trkpt>
      <trkpt lat="44.43712" lon="1.62184">
        <ele>322</ele>
        <time>2024-03-13T14:41:26Z</time>
      </trkpt>
      <trkpt lat="44.43713" lon="1.62186">
        <ele>322</ele>
        <time>2024-03-13T14:41:27Z</time>
      </trkpt>
      <trkpt lat="44.43714" lon="1.62187">
        <ele>322</ele>
        <time>2024-03-13T14:41:28Z</time>
      </trkpt>
      <trkpt lat="44.43715" lon="1.62188">
        <ele>322</ele>
        <time>2024-03-13T14:41:29Z</time>
      </trkpt>
      <trkpt lat="44.43715" lon="1.6219">
        <ele>322</ele>
        <time>2024-03-13T14:41:30Z</time>
      </trkpt>
      <trkpt lat="44.43716" lon="1.62192">
        <ele>322</ele>
        <time>2024-03-13T14:41:31Z</time>
      </trkpt>
      <trkpt lat="44.43716" lon="1.62193">
        <ele>322</ele>
        <time>2024-03-13T14:41:32Z</time>
      </trkpt>
      <trkpt lat="44.43717" lon="1.62195">
        <ele>322</ele>
        <time>2024-03-13T14:41:33Z</time>
      </trkpt>
      <trkpt lat="44.43717" lon="1.62196">
        <ele>322</ele>
        <time>2024-03-13T14:41:34Z</time>
      </trkpt>
      <trkpt lat="44.43718" lon="1.62197">
        <ele>322</ele>
        <time>2024-03-13T14:41:35Z</time>
      </trkpt>
      <trkpt lat="44.43719" lon="1.62198">
        <ele>322</ele>
        <time>2024-03-13T14:41:36Z</time>
      </trkpt>
      <trkpt lat="44.43719" lon="1.62198">
        <ele>322</ele>
        <time>2024-03-13T14:41:37Z</time>
      </trkpt>
      <trkpt lat="44.4372" lon="1.62199">
        <ele>321</ele>
        <time>2024-03-13T14:41:38Z</time>
      </trkpt>
      <trkpt lat="44.4372" lon="1.622">
        <ele>321</ele>
        <time>2024-03-13T14:41:39Z</time>
      </trkpt>
      <trkpt lat="44.4372" lon="1.62201">
        <ele>320</ele>
        <time>2024-03-13T14:41:40Z</time>
      </trkpt>
      <trkpt lat="44.43721" lon="1.62202">
        <ele>320</ele>
        <time>2024-03-13T14:41:41Z</time>
      </trkpt>
      <trkpt lat="44.43721" lon="1.62202">
        <ele>320</ele>
        <time>2024-03-13T14:41:42Z</time>
      </trkpt>
      <trkpt lat="44.43721" lon="1.62202">
        <ele>320</ele>
        <time>2024-03-13T14:41:43Z</time>
      </trkpt>
      <trkpt lat="44.43721" lon="1.62204">
        <ele>319</ele>
        <time>2024-03-13T14:41:44Z</time>
      </trkpt>
      <trkpt lat="44.43721" lon="1.62204">
        <ele>319</ele>
        <time>2024-03-13T14:41:45Z</time>
      </trkpt>
      <trkpt lat="44.43721" lon="1.62204">
        <ele>319</ele>
        <time>2024-03-13T14:41:46Z</time>
      </trkpt>
      <trkpt lat="44.43721" lon="1.62204">
        <ele>319</ele>
        <time>2024-03-13T14:41:47Z</time>
      </trkpt>
      <trkpt lat="44.43721" lon="1.62204">
        <ele>319</ele>
        <time>2024-03-13T14:41:48Z</time>
      </trkpt>
      <trkpt lat="44.43721" lon="1.62204">
        <ele>319</ele>
        <time>2024-03-13T14:41:49Z</time>
      </trkpt>
      <trkpt lat="44.43721" lon="1.62204">
        <ele>319</ele>
        <time>2024-03-13T14:41:50Z</time>
      </trkpt>
      <trkpt lat="44.43721" lon="1.62204">
        <ele>319</ele>
        <time>2024-03-13T14:41:51Z</time>
      </trkpt>
      <trkpt lat="44.43721" lon="1.62204">
        <ele>319</ele>
        <time>2024-03-13T14:41:52Z</time>
      </trkpt>
      <trkpt lat="44.43721" lon="1.62204">
        <ele>319</ele>
        <time>2024-03-13T14:41:53Z</time>
      </trkpt>
      <trkpt lat="44.4372" lon="1.62206">
        <ele>319</ele>
        <time>2024-03-13T14:41:54Z</time>
      </trkpt>
      <trkpt lat="44.4372" lon="1.62206">
        <ele>319</ele>
        <time>2024-03-13T14:41:55Z</time>
      </trkpt>
      <trkpt lat="44.4372" lon="1.62206">
        <ele>319</ele>
        <time>2024-03-13T14:41:56Z</time>
      </trkpt>
      <trkpt lat="44.43721" lon="1.62206">
        <ele>319</ele>
        <time>2024-03-13T14:41:57Z</time>
      </trkpt>
      <trkpt lat="44.43721" lon="1.62206">
        <ele>319</ele>
        <time>2024-03-13T14:41:58Z</time>
      </trkpt>
      <trkpt lat="44.43721" lon="1.62206">
        <ele>319</ele>
        <time>2024-03-13T14:41:59Z</time>
      </trkpt>
      <trkpt lat="44.43721" lon="1.62206">
        <ele>319</ele>
        <time>2024-03-13T14:42:00Z</time>
      </trkpt>
      <trkpt lat="44.43721" lon="1.62206">
        <ele>319</ele>
        <time>2024-03-13T14:42:01Z</time>
      </trkpt>
      <trkpt lat="44.43721" lon="1.62206">
        <ele>319</ele>
        <time>2024-03-13T14:42:02Z</time>
      </trkpt>
      <trkpt lat="44.43721" lon="1.62206">
        <ele>319</ele>
        <time>2024-03-13T14:42:03Z</time>
      </trkpt>
      <trkpt lat="44.43721" lon="1.62208">
        <ele>318</ele>
        <time>2024-03-13T14:42:04Z</time>
      </trkpt>
      <trkpt lat="44.43721" lon="1.62209">
        <ele>318</ele>
        <time>2024-03-13T14:42:05Z</time>
      </trkpt>
      <trkpt lat="44.4372" lon="1.6221">
        <ele>318</ele>
        <time>2024-03-13T14:42:06Z</time>
      </trkpt>
      <trkpt lat="44.4372" lon="1.62211">
        <ele>318</ele>
        <time>2024-03-13T14:42:07Z</time>
      </trkpt>
      <trkpt lat="44.43719" lon="1.62212">
        <ele>318</ele>
        <time>2024-03-13T14:42:08Z</time>
      </trkpt>
      <trkpt lat="44.43719" lon="1.62213">
        <ele>318</ele>
        <time>2024-03-13T14:42:09Z</time>
      </trkpt>
      <trkpt lat="44.43719" lon="1.62214">
        <ele>318</ele>
        <time>2024-03-13T14:42:10Z</time>
      </trkpt>
      <trkpt lat="44.43718" lon="1.62215">
        <ele>318</ele>
        <time>2024-03-13T14:42:11Z</time>
      </trkpt>
      <trkpt lat="44.43718" lon="1.62216">
        <ele>318</ele>
        <time>2024-03-13T14:42:12Z</time>
      </trkpt>
      <trkpt lat="44.43717" lon="1.62217">
        <ele>318</ele>
        <time>2024-03-13T14:42:13Z</time>
      </trkpt>
      <trkpt lat="44.43716" lon="1.62218">
        <ele>317</ele>
        <time>2024-03-13T14:42:14Z</time>
      </trkpt>
      <trkpt lat="44.43715" lon="1.62219">
        <ele>317</ele>
        <time>2024-03-13T14:42:15Z</time>
      </trkpt>
      <trkpt lat="44.43714" lon="1.6222">
        <ele>317</ele>
        <time>2024-03-13T14:42:16Z</time>
      </trkpt>
      <trkpt lat="44.43713" lon="1.62221">
        <ele>318</ele>
        <time>2024-03-13T14:42:17Z</time>
      </trkpt>
      <trkpt lat="44.43712" lon="1.62223">
        <ele>318</ele>
        <time>2024-03-13T14:42:18Z</time>
      </trkpt>
      <trkpt lat="44.43711" lon="1.62224">
        <ele>318</ele>
        <time>2024-03-13T14:42:19Z</time>
      </trkpt>
      <trkpt lat="44.4371" lon="1.62225">
        <ele>318</ele>
        <time>2024-03-13T14:42:20Z</time>
      </trkpt>
      <trkpt lat="44.43709" lon="1.62227">
        <ele>318</ele>
        <time>2024-03-13T14:42:21Z</time>
      </trkpt>
      <trkpt lat="44.43708" lon="1.62228">
        <ele>318</ele>
        <time>2024-03-13T14:42:22Z</time>
      </trkpt>
      <trkpt lat="44.43707" lon="1.62228">
        <ele>318</ele>
        <time>2024-03-13T14:42:23Z</time>
      </trkpt>
      <trkpt lat="44.43706" lon="1.6223">
        <ele>318</ele>
        <time>2024-03-13T14:42:24Z</time>
      </trkpt>
      <trkpt lat="44.43705" lon="1.62231">
        <ele>318</ele>
        <time>2024-03-13T14:42:25Z</time>
      </trkpt>
      <trkpt lat="44.43704" lon="1.62232">
        <ele>318</ele>
        <time>2024-03-13T14:42:26Z</time>
      </trkpt>
      <trkpt lat="44.43703" lon="1.62233">
        <ele>318</ele>
        <time>2024-03-13T14:42:27Z</time>
      </trkpt>
      <trkpt lat="44.43703" lon="1.62234">
        <ele>318</ele>
        <time>2024-03-13T14:42:28Z</time>
      </trkpt>
      <trkpt lat="44.43702" lon="1.62235">
        <ele>317</ele>
        <time>2024-03-13T14:42:29Z</time>
      </trkpt>
      <trkpt lat="44.43701" lon="1.62236">
        <ele>318</ele>
        <time>2024-03-13T14:42:30Z</time>
      </trkpt>
      <trkpt lat="44.43701" lon="1.62237">
        <ele>317</ele>
        <time>2024-03-13T14:42:31Z</time>
      </trkpt>
      <trkpt lat="44.437" lon="1.62238">
        <ele>317</ele>
        <time>2024-03-13T14:42:32Z</time>
      </trkpt>
      <trkpt lat="44.43699" lon="1.62239">
        <ele>317</ele>
        <time>2024-03-13T14:42:33Z</time>
      </trkpt>
      <trkpt lat="44.43698" lon="1.6224">
        <ele>317</ele>
        <time>2024-03-13T14:42:34Z</time>
      </trkpt>
      <trkpt lat="44.43697" lon="1.62242">
        <ele>317</ele>
        <time>2024-03-13T14:42:35Z</time>
      </trkpt>
      <trkpt lat="44.43696" lon="1.62243">
        <ele>317</ele>
        <time>2024-03-13T14:42:36Z</time>
      </trkpt>
      <trkpt lat="44.43695" lon="1.62244">
        <ele>317</ele>
        <time>2024-03-13T14:42:37Z</time>
      </trkpt>
      <trkpt lat="44.43694" lon="1.62245">
        <ele>317</ele>
        <time>2024-03-13T14:42:38Z</time>
      </trkpt>
      <trkpt lat="44.43694" lon="1.62247">
        <ele>317</ele>
        <time>2024-03-13T14:42:39Z</time>
      </trkpt>
      <trkpt lat="44.43693" lon="1.62248">
        <ele>317</ele>
        <time>2024-03-13T14:42:40Z</time>
      </trkpt>
      <trkpt lat="44.43692" lon="1.62249">
        <ele>317</ele>
        <time>2024-03-13T14:42:41Z</time>
      </trkpt>
      <trkpt lat="44.43691" lon="1.62251">
        <ele>317</ele>
        <time>2024-03-13T14:42:42Z</time>
      </trkpt>
      <trkpt lat="44.4369" lon="1.62252">
        <ele>317</ele>
        <time>2024-03-13T14:42:43Z</time>
      </trkpt>
      <trkpt lat="44.43689" lon="1.62254">
        <ele>316</ele>
        <time>2024-03-13T14:42:44Z</time>
      </trkpt>
      <trkpt lat="44.43688" lon="1.62256">
        <ele>316</ele>
        <time>2024-03-13T14:42:45Z</time>
      </trkpt>
      <trkpt lat="44.43687" lon="1.62258">
        <ele>317</ele>
        <time>2024-03-13T14:42:46Z</time>
      </trkpt>
      <trkpt lat="44.43686" lon="1.62259">
        <ele>316</ele>
        <time>2024-03-13T14:42:47Z</time>
      </trkpt>
      <trkpt lat="44.43685" lon="1.62261">
        <ele>316</ele>
        <time>2024-03-13T14:42:48Z</time>
      </trkpt>
      <trkpt lat="44.43684" lon="1.62262">
        <ele>316</ele>
        <time>2024-03-13T14:42:49Z</time>
      </trkpt>
      <trkpt lat="44.43683" lon="1.62263">
        <ele>316</ele>
        <time>2024-03-13T14:42:50Z</time>
      </trkpt>
      <trkpt lat="44.43682" lon="1.62265">
        <ele>316</ele>
        <time>2024-03-13T14:42:51Z</time>
      </trkpt>
      <trkpt lat="44.43681" lon="1.62266">
        <ele>316</ele>
        <time>2024-03-13T14:42:52Z</time>
      </trkpt>
      <trkpt lat="44.43681" lon="1.62267">
        <ele>316</ele>
        <time>2024-03-13T14:42:53Z</time>
      </trkpt>
      <trkpt lat="44.4368" lon="1.62268">
        <ele>316</ele>
        <time>2024-03-13T14:42:54Z</time>
      </trkpt>
      <trkpt lat="44.43679" lon="1.62269">
        <ele>315</ele>
        <time>2024-03-13T14:42:55Z</time>
      </trkpt>
      <trkpt lat="44.43678" lon="1.6227">
        <ele>315</ele>
        <time>2024-03-13T14:42:56Z</time>
      </trkpt>
      <trkpt lat="44.43677" lon="1.6227">
        <ele>315</ele>
        <time>2024-03-13T14:42:57Z</time>
      </trkpt>
      <trkpt lat="44.43676" lon="1.62271">
        <ele>315</ele>
        <time>2024-03-13T14:42:58Z</time>
      </trkpt>
      <trkpt lat="44.43675" lon="1.62272">
        <ele>315</ele>
        <time>2024-03-13T14:42:59Z</time>
      </trkpt>
      <trkpt lat="44.43674" lon="1.62273">
        <ele>315</ele>
        <time>2024-03-13T14:43:00Z</time>
      </trkpt>
      <trkpt lat="44.43673" lon="1.62274">
        <ele>315</ele>
        <time>2024-03-13T14:43:01Z</time>
      </trkpt>
      <trkpt lat="44.43671" lon="1.62275">
        <ele>315</ele>
        <time>2024-03-13T14:43:02Z</time>
      </trkpt>
      <trkpt lat="44.43671" lon="1.62276">
        <ele>315</ele>
        <time>2024-03-13T14:43:03Z</time>
      </trkpt>
      <trkpt lat="44.4367" lon="1.62277">
        <ele>315</ele>
        <time>2024-03-13T14:43:04Z</time>
      </trkpt>
      <trkpt lat="44.43669" lon="1.62278">
        <ele>315</ele>
        <time>2024-03-13T14:43:05Z</time>
      </trkpt>
      <trkpt lat="44.43668" lon="1.62279">
        <ele>315</ele>
        <time>2024-03-13T14:43:06Z</time>
      </trkpt>
      <trkpt lat="44.43668" lon="1.62279">
        <ele>316</ele>
        <time>2024-03-13T14:43:07Z</time>
      </trkpt>
      <trkpt lat="44.43667" lon="1.6228">
        <ele>316</ele>
        <time>2024-03-13T14:43:08Z</time>
      </trkpt>
      <trkpt lat="44.43666" lon="1.62281">
        <ele>316</ele>
        <time>2024-03-13T14:43:09Z</time>
      </trkpt>
      <trkpt lat="44.43665" lon="1.62281">
        <ele>316</ele>
        <time>2024-03-13T14:43:10Z</time>
      </trkpt>
      <trkpt lat="44.43664" lon="1.62282">
        <ele>316</ele>
        <time>2024-03-13T14:43:11Z</time>
      </trkpt>
      <trkpt lat="44.43663" lon="1.62282">
        <ele>317</ele>
        <time>2024-03-13T14:43:12Z</time>
      </trkpt>
      <trkpt lat="44.43662" lon="1.62282">
        <ele>317</ele>
        <time>2024-03-13T14:43:13Z</time>
      </trkpt>
      <trkpt lat="44.43661" lon="1.62283">
        <ele>317</ele>
        <time>2024-03-13T14:43:14Z</time>
      </trkpt>
      <trkpt lat="44.4366" lon="1.62284">
        <ele>317</ele>
        <time>2024-03-13T14:43:15Z</time>
      </trkpt>
      <trkpt lat="44.4366" lon="1.62284">
        <ele>317</ele>
        <time>2024-03-13T14:43:16Z</time>
      </trkpt>
      <trkpt lat="44.4366" lon="1.62285">
        <ele>317</ele>
        <time>2024-03-13T14:43:17Z</time>
      </trkpt>
      <trkpt lat="44.43659" lon="1.62286">
        <ele>317</ele>
        <time>2024-03-13T14:43:18Z</time>
      </trkpt>
      <trkpt lat="44.43659" lon="1.62287">
        <ele>317</ele>
        <time>2024-03-13T14:43:19Z</time>
      </trkpt>
      <trkpt lat="44.43658" lon="1.62287">
        <ele>317</ele>
        <time>2024-03-13T14:43:20Z</time>
      </trkpt>
      <trkpt lat="44.43658" lon="1.62288">
        <ele>317</ele>
        <time>2024-03-13T14:43:21Z</time>
      </trkpt>
      <trkpt lat="44.43657" lon="1.62289">
        <ele>317</ele>
        <time>2024-03-13T14:43:22Z</time>
      </trkpt>
      <trkpt lat="44.43656" lon="1.62289">
        <ele>317</ele>
        <time>2024-03-13T14:43:23Z</time>
      </trkpt>
      <trkpt lat="44.43655" lon="1.6229">
        <ele>317</ele>
        <time>2024-03-13T14:43:24Z</time>
      </trkpt>
      <trkpt lat="44.43653" lon="1.62291">
        <ele>317</ele>
        <time>2024-03-13T14:43:25Z</time>
      </trkpt>
      <trkpt lat="44.43652" lon="1.62292">
        <ele>317</ele>
        <time>2024-03-13T14:43:26Z</time>
      </trkpt>
      <trkpt lat="44.43651" lon="1.62292">
        <ele>316</ele>
        <time>2024-03-13T14:43:27Z</time>
      </trkpt>
      <trkpt lat="44.43651" lon="1.62293">
        <ele>317</ele>
        <time>2024-03-13T14:43:28Z</time>
      </trkpt>
      <trkpt lat="44.4365" lon="1.62293">
        <ele>317</ele>
        <time>2024-03-13T14:43:29Z</time>
      </trkpt>
      <trkpt lat="44.43649" lon="1.62294">
        <ele>316</ele>
        <time>2024-03-13T14:43:30Z</time>
      </trkpt>
      <trkpt lat="44.43648" lon="1.62295">
        <ele>317</ele>
        <time>2024-03-13T14:43:31Z</time>
      </trkpt>
      <trkpt lat="44.43647" lon="1.62296">
        <ele>316</ele>
        <time>2024-03-13T14:43:32Z</time>
      </trkpt>
      <trkpt lat="44.43646" lon="1.62297">
        <ele>317</ele>
        <time>2024-03-13T14:43:33Z</time>
      </trkpt>
      <trkpt lat="44.43645" lon="1.62299">
        <ele>317</ele>
        <time>2024-03-13T14:43:34Z</time>
      </trkpt>
      <trkpt lat="44.43644" lon="1.62299">
        <ele>317</ele>
        <time>2024-03-13T14:43:35Z</time>
      </trkpt>
      <trkpt lat="44.43643" lon="1.62301">
        <ele>317</ele>
        <time>2024-03-13T14:43:36Z</time>
      </trkpt>
      <trkpt lat="44.43642" lon="1.62302">
        <ele>317</ele>
        <time>2024-03-13T14:43:37Z</time>
      </trkpt>
      <trkpt lat="44.43641" lon="1.62302">
        <ele>316</ele>
        <time>2024-03-13T14:43:38Z</time>
      </trkpt>
      <trkpt lat="44.4364" lon="1.62302">
        <ele>317</ele>
        <time>2024-03-13T14:43:39Z</time>
      </trkpt>
      <trkpt lat="44.43639" lon="1.62303">
        <ele>317</ele>
        <time>2024-03-13T14:43:40Z</time>
      </trkpt>
      <trkpt lat="44.43639" lon="1.62304">
        <ele>317</ele>
        <time>2024-03-13T14:43:41Z</time>
      </trkpt>
      <trkpt lat="44.43637" lon="1.62305">
        <ele>318</ele>
        <time>2024-03-13T14:43:42Z</time>
      </trkpt>
      <trkpt lat="44.43636" lon="1.62306">
        <ele>318</ele>
        <time>2024-03-13T14:43:43Z</time>
      </trkpt>
      <trkpt lat="44.43636" lon="1.62307">
        <ele>318</ele>
        <time>2024-03-13T14:43:44Z</time>
      </trkpt>
      <trkpt lat="44.43634" lon="1.62308">
        <ele>318</ele>
        <time>2024-03-13T14:43:45Z</time>
      </trkpt>
      <trkpt lat="44.43633" lon="1.62309">
        <ele>317</ele>
        <time>2024-03-13T14:43:46Z</time>
      </trkpt>
      <trkpt lat="44.43633" lon="1.6231">
        <ele>318</ele>
        <time>2024-03-13T14:43:47Z</time>
      </trkpt>
      <trkpt lat="44.43631" lon="1.6231">
        <ele>318</ele>
        <time>2024-03-13T14:43:48Z</time>
      </trkpt>
      <trkpt lat="44.43631" lon="1.62311">
        <ele>318</ele>
        <time>2024-03-13T14:43:49Z</time>
      </trkpt>
      <trkpt lat="44.43629" lon="1.62312">
        <ele>318</ele>
        <time>2024-03-13T14:43:50Z</time>
      </trkpt>
      <trkpt lat="44.43628" lon="1.62312">
        <ele>318</ele>
        <time>2024-03-13T14:43:51Z</time>
      </trkpt>
      <trkpt lat="44.43627" lon="1.62313">
        <ele>318</ele>
        <time>2024-03-13T14:43:52Z</time>
      </trkpt>
      <trkpt lat="44.43626" lon="1.62314">
        <ele>318</ele>
        <time>2024-03-13T14:43:53Z</time>
      </trkpt>
      <trkpt lat="44.43625" lon="1.62315">
        <ele>318</ele>
        <time>2024-03-13T14:43:54Z</time>
      </trkpt>
      <trkpt lat="44.43624" lon="1.62315">
        <ele>318</ele>
        <time>2024-03-13T14:43:55Z</time>
      </trkpt>
      <trkpt lat="44.43623" lon="1.62316">
        <ele>318</ele>
        <time>2024-03-13T14:43:56Z</time>
      </trkpt>
      <trkpt lat="44.43622" lon="1.62317">
        <ele>318</ele>
        <time>2024-03-13T14:43:57Z</time>
      </trkpt>
      <trkpt lat="44.43621" lon="1.62318">
        <ele>318</ele>
        <time>2024-03-13T14:43:58Z</time>
      </trkpt>
      <trkpt lat="44.4362" lon="1.62319">
        <ele>318</ele>
        <time>2024-03-13T14:43:59Z</time>
      </trkpt>
      <trkpt lat="44.43619" lon="1.6232">
        <ele>318</ele>
        <time>2024-03-13T14:44:00Z</time>
      </trkpt>
      <trkpt lat="44.43618" lon="1.62321">
        <ele>318</ele>
        <time>2024-03-13T14:44:01Z</time>
      </trkpt>
      <trkpt lat="44.43618" lon="1.62323">
        <ele>318</ele>
        <time>2024-03-13T14:44:02Z</time>
      </trkpt>
      <trkpt lat="44.43617" lon="1.62323">
        <ele>318</ele>
        <time>2024-03-13T14:44:03Z</time>
      </trkpt>
      <trkpt lat="44.43616" lon="1.62324">
        <ele>318</ele>
        <time>2024-03-13T14:44:04Z</time>
      </trkpt>
      <trkpt lat="44.43615" lon="1.62325">
        <ele>318</ele>
        <time>2024-03-13T14:44:05Z</time>
      </trkpt>
      <trkpt lat="44.43614" lon="1.62326">
        <ele>318</ele>
        <time>2024-03-13T14:44:06Z</time>
      </trkpt>
      <trkpt lat="44.43613" lon="1.62326">
        <ele>318</ele>
        <time>2024-03-13T14:44:07Z</time>
      </trkpt>
      <trkpt lat="44.43611" lon="1.62327">
        <ele>318</ele>
        <time>2024-03-13T14:44:08Z</time>
      </trkpt>
      <trkpt lat="44.4361" lon="1.62329">
        <ele>318</ele>
        <time>2024-03-13T14:44:09Z</time>
      </trkpt>
      <trkpt lat="44.43609" lon="1.6233">
        <ele>318</ele>
        <time>2024-03-13T14:44:10Z</time>
      </trkpt>
      <trkpt lat="44.43608" lon="1.62331">
        <ele>318</ele>
        <time>2024-03-13T14:44:11Z</time>
      </trkpt>
      <trkpt lat="44.43607" lon="1.62331">
        <ele>318</ele>
        <time>2024-03-13T14:44:12Z</time>
      </trkpt>
      <trkpt lat="44.43607" lon="1.62332">
        <ele>318</ele>
        <time>2024-03-13T14:44:13Z</time>
      </trkpt>
      <trkpt lat="44.43605" lon="1.62333">
        <ele>318</ele>
        <time>2024-03-13T14:44:14Z</time>
      </trkpt>
      <trkpt lat="44.43604" lon="1.62334">
        <ele>318</ele>
        <time>2024-03-13T14:44:15Z</time>
      </trkpt>
      <trkpt lat="44.43602" lon="1.62335">
        <ele>318</ele>
        <time>2024-03-13T14:44:16Z</time>
      </trkpt>
      <trkpt lat="44.43601" lon="1.62336">
        <ele>318</ele>
        <time>2024-03-13T14:44:17Z</time>
      </trkpt>
      <trkpt lat="44.436" lon="1.62338">
        <ele>318</ele>
        <time>2024-03-13T14:44:18Z</time>
      </trkpt>
      <trkpt lat="44.43599" lon="1.62339">
        <ele>318</ele>
        <time>2024-03-13T14:44:19Z</time>
      </trkpt>
      <trkpt lat="44.43598" lon="1.62341">
        <ele>318</ele>
        <time>2024-03-13T14:44:20Z</time>
      </trkpt>
      <trkpt lat="44.43597" lon="1.62342">
        <ele>319</ele>
        <time>2024-03-13T14:44:21Z</time>
      </trkpt>
      <trkpt lat="44.43596" lon="1.62344">
        <ele>319</ele>
        <time>2024-03-13T14:44:22Z</time>
      </trkpt>
      <trkpt lat="44.43595" lon="1.62345">
        <ele>319</ele>
        <time>2024-03-13T14:44:23Z</time>
      </trkpt>
      <trkpt lat="44.43594" lon="1.62347">
        <ele>319</ele>
        <time>2024-03-13T14:44:24Z</time>
      </trkpt>
      <trkpt lat="44.43593" lon="1.62349">
        <ele>319</ele>
        <time>2024-03-13T14:44:25Z</time>
      </trkpt>
      <trkpt lat="44.43592" lon="1.6235">
        <ele>319</ele>
        <time>2024-03-13T14:44:26Z</time>
      </trkpt>
      <trkpt lat="44.43592" lon="1.62352">
        <ele>319</ele>
        <time>2024-03-13T14:44:27Z</time>
      </trkpt>
      <trkpt lat="44.43591" lon="1.62353">
        <ele>320</ele>
        <time>2024-03-13T14:44:28Z</time>
      </trkpt>
      <trkpt lat="44.4359" lon="1.62355">
        <ele>320</ele>
        <time>2024-03-13T14:44:29Z</time>
      </trkpt>
      <trkpt lat="44.43589" lon="1.62357">
        <ele>320</ele>
        <time>2024-03-13T14:44:30Z</time>
      </trkpt>
      <trkpt lat="44.43588" lon="1.62358">
        <ele>320</ele>
        <time>2024-03-13T14:44:31Z</time>
      </trkpt>
      <trkpt lat="44.43587" lon="1.6236">
        <ele>320</ele>
        <time>2024-03-13T14:44:32Z</time>
      </trkpt>
      <trkpt lat="44.43587" lon="1.62361">
        <ele>320</ele>
        <time>2024-03-13T14:44:33Z</time>
      </trkpt>
      <trkpt lat="44.43586" lon="1.62363">
        <ele>320</ele>
        <time>2024-03-13T14:44:34Z</time>
      </trkpt>
      <trkpt lat="44.43586" lon="1.62364">
        <ele>320</ele>
        <time>2024-03-13T14:44:35Z</time>
      </trkpt>
      <trkpt lat="44.43585" lon="1.62365">
        <ele>319</ele>
        <time>2024-03-13T14:44:36Z</time>
      </trkpt>
      <trkpt lat="44.43585" lon="1.62367">
        <ele>319</ele>
        <time>2024-03-13T14:44:37Z</time>
      </trkpt>
      <trkpt lat="44.43585" lon="1.62369">
        <ele>319</ele>
        <time>2024-03-13T14:44:38Z</time>
      </trkpt>
      <trkpt lat="44.43584" lon="1.6237">
        <ele>320</ele>
        <time>2024-03-13T14:44:39Z</time>
      </trkpt>
      <trkpt lat="44.43584" lon="1.62371">
        <ele>320</ele>
        <time>2024-03-13T14:44:40Z</time>
      </trkpt>
      <trkpt lat="44.43583" lon="1.62373">
        <ele>320</ele>
        <time>2024-03-13T14:44:41Z</time>
      </trkpt>
      <trkpt lat="44.43582" lon="1.62374">
        <ele>320</ele>
        <time>2024-03-13T14:44:42Z</time>
      </trkpt>
      <trkpt lat="44.43581" lon="1.62375">
        <ele>320</ele>
        <time>2024-03-13T14:44:43Z</time>
      </trkpt>
      <trkpt lat="44.43581" lon="1.62376">
        <ele>320</ele>
        <time>2024-03-13T14:44:44Z</time>
      </trkpt>
      <trkpt lat="44.4358" lon="1.62377">
        <ele>320</ele>
        <time>2024-03-13T14:44:45Z</time>
      </trkpt>
      <trkpt lat="44.4358" lon="1.62379">
        <ele>320</ele>
        <time>2024-03-13T14:44:46Z</time>
      </trkpt>
      <trkpt lat="44.4358" lon="1.6238">
        <ele>320</ele>
        <time>2024-03-13T14:44:47Z</time>
      </trkpt>
      <trkpt lat="44.4358" lon="1.62382">
        <ele>321</ele>
        <time>2024-03-13T14:44:48Z</time>
      </trkpt>
      <trkpt lat="44.43579" lon="1.62384">
        <ele>321</ele>
        <time>2024-03-13T14:44:49Z</time>
      </trkpt>
      <trkpt lat="44.43579" lon="1.62385">
        <ele>320</ele>
        <time>2024-03-13T14:44:50Z</time>
      </trkpt>
      <trkpt lat="44.43579" lon="1.62387">
        <ele>320</ele>
        <time>2024-03-13T14:44:51Z</time>
      </trkpt>
      <trkpt lat="44.43579" lon="1.62389">
        <ele>320</ele>
        <time>2024-03-13T14:44:52Z</time>
      </trkpt>
      <trkpt lat="44.43579" lon="1.62391">
        <ele>320</ele>
        <time>2024-03-13T14:44:53Z</time>
      </trkpt>
      <trkpt lat="44.43578" lon="1.62392">
        <ele>320</ele>
        <time>2024-03-13T14:44:54Z</time>
      </trkpt>
      <trkpt lat="44.43578" lon="1.62394">
        <ele>319</ele>
        <time>2024-03-13T14:44:55Z</time>
      </trkpt>
      <trkpt lat="44.43578" lon="1.62396">
        <ele>320</ele>
        <time>2024-03-13T14:44:56Z</time>
      </trkpt>
      <trkpt lat="44.43578" lon="1.62398">
        <ele>320</ele>
        <time>2024-03-13T14:44:57Z</time>
      </trkpt>
      <trkpt lat="44.43578" lon="1.624">
        <ele>320</ele>
        <time>2024-03-13T14:44:58Z</time>
      </trkpt>
      <trkpt lat="44.43577" lon="1.62402">
        <ele>320</ele>
        <time>2024-03-13T14:44:59Z</time>
      </trkpt>
      <trkpt lat="44.43576" lon="1.62404">
        <ele>320</ele>
        <time>2024-03-13T14:45:00Z</time>
      </trkpt>
      <trkpt lat="44.43576" lon="1.62405">
        <ele>320</ele>
        <time>2024-03-13T14:45:01Z</time>
      </trkpt>
      <trkpt lat="44.43576" lon="1.62406">
        <ele>320</ele>
        <time>2024-03-13T14:45:02Z</time>
      </trkpt>
      <trkpt lat="44.43576" lon="1.62408">
        <ele>320</ele>
        <time>2024-03-13T14:45:03Z</time>
      </trkpt>
      <trkpt lat="44.43576" lon="1.6241">
        <ele>320</ele>
        <time>2024-03-13T14:45:04Z</time>
      </trkpt>
      <trkpt lat="44.43576" lon="1.62412">
        <ele>320</ele>
        <time>2024-03-13T14:45:05Z</time>
      </trkpt>
      <trkpt lat="44.43576" lon="1.62413">
        <ele>320</ele>
        <time>2024-03-13T14:45:06Z</time>
      </trkpt>
      <trkpt lat="44.43576" lon="1.62415">
        <ele>319</ele>
        <time>2024-03-13T14:45:07Z</time>
      </trkpt>
      <trkpt lat="44.43575" lon="1.62417">
        <ele>319</ele>
        <time>2024-03-13T14:45:08Z</time>
      </trkpt>
      <trkpt lat="44.43575" lon="1.62419">
        <ele>319</ele>
        <time>2024-03-13T14:45:09Z</time>
      </trkpt>
      <trkpt lat="44.43575" lon="1.62421">
        <ele>319</ele>
        <time>2024-03-13T14:45:10Z</time>
      </trkpt>
      <trkpt lat="44.43575" lon="1.62422">
        <ele>320</ele>
        <time>2024-03-13T14:45:11Z</time>
      </trkpt>
      <trkpt lat="44.43575" lon="1.62424">
        <ele>320</ele>
        <time>2024-03-13T14:45:12Z</time>
      </trkpt>
      <trkpt lat="44.43575" lon="1.62426">
        <ele>320</ele>
        <time>2024-03-13T14:45:13Z</time>
      </trkpt>
      <trkpt lat="44.43575" lon="1.62428">
        <ele>319</ele>
        <time>2024-03-13T14:45:14Z</time>
      </trkpt>
      <trkpt lat="44.43574" lon="1.6243">
        <ele>319</ele>
        <time>2024-03-13T14:45:15Z</time>
      </trkpt>
      <trkpt lat="44.43574" lon="1.62432">
        <ele>319</ele>
        <time>2024-03-13T14:45:16Z</time>
      </trkpt>
      <trkpt lat="44.43574" lon="1.62433">
        <ele>319</ele>
        <time>2024-03-13T14:45:17Z</time>
      </trkpt>
      <trkpt lat="44.43574" lon="1.62434">
        <ele>319</ele>
        <time>2024-03-13T14:45:18Z</time>
      </trkpt>
      <trkpt lat="44.43575" lon="1.62435">
        <ele>319</ele>
        <time>2024-03-13T14:45:19Z</time>
      </trkpt>
      <trkpt lat="44.43575" lon="1.62435">
        <ele>319</ele>
        <time>2024-03-13T14:45:20Z</time>
      </trkpt>
      <trkpt lat="44.43575" lon="1.62435">
        <ele>319</ele>
        <time>2024-03-13T14:45:21Z</time>
      </trkpt>
      <trkpt lat="44.43575" lon="1.62438">
        <ele>319</ele>
        <time>2024-03-13T14:45:22Z</time>
      </trkpt>
      <trkpt lat="44.43575" lon="1.6244">
        <ele>319</ele>
        <time>2024-03-13T14:45:23Z</time>
      </trkpt>
      <trkpt lat="44.43576" lon="1.62442">
        <ele>319</ele>
        <time>2024-03-13T14:45:24Z</time>
      </trkpt>
      <trkpt lat="44.43576" lon="1.62444">
        <ele>319</ele>
        <time>2024-03-13T14:45:25Z</time>
      </trkpt>
      <trkpt lat="44.43576" lon="1.62446">
        <ele>320</ele>
        <time>2024-03-13T14:45:26Z</time>
      </trkpt>
      <trkpt lat="44.43576" lon="1.62448">
        <ele>320</ele>
        <time>2024-03-13T14:45:27Z</time>
      </trkpt>
      <trkpt lat="44.43576" lon="1.62449">
        <ele>319</ele>
        <time>2024-03-13T14:45:28Z</time>
      </trkpt>
      <trkpt lat="44.43576" lon="1.62451">
        <ele>319</ele>
        <time>2024-03-13T14:45:29Z</time>
      </trkpt>
      <trkpt lat="44.43576" lon="1.62453">
        <ele>319</ele>
        <time>2024-03-13T14:45:30Z</time>
      </trkpt>
      <trkpt lat="44.43576" lon="1.62455">
        <ele>319</ele>
        <time>2024-03-13T14:45:31Z</time>
      </trkpt>
      <trkpt lat="44.43576" lon="1.62457">
        <ele>319</ele>
        <time>2024-03-13T14:45:32Z</time>
      </trkpt>
      <trkpt lat="44.43576" lon="1.62458">
        <ele>318</ele>
        <time>2024-03-13T14:45:33Z</time>
      </trkpt>
      <trkpt lat="44.43576" lon="1.6246">
        <ele>318</ele>
        <time>2024-03-13T14:45:34Z</time>
      </trkpt>
      <trkpt lat="44.43576" lon="1.62461">
        <ele>318</ele>
        <time>2024-03-13T14:45:35Z</time>
      </trkpt>
      <trkpt lat="44.43576" lon="1.62462">
        <ele>318</ele>
        <time>2024-03-13T14:45:36Z</time>
      </trkpt>
      <trkpt lat="44.43576" lon="1.62464">
        <ele>318</ele>
        <time>2024-03-13T14:45:37Z</time>
      </trkpt>
      <trkpt lat="44.43576" lon="1.62465">
        <ele>318</ele>
        <time>2024-03-13T14:45:38Z</time>
      </trkpt>
      <trkpt lat="44.43577" lon="1.62467">
        <ele>318</ele>
        <time>2024-03-13T14:45:39Z</time>
      </trkpt>
      <trkpt lat="44.43576" lon="1.62469">
        <ele>318</ele>
        <time>2024-03-13T14:45:40Z</time>
      </trkpt>
      <trkpt lat="44.43576" lon="1.62471">
        <ele>318</ele>
        <time>2024-03-13T14:45:41Z</time>
      </trkpt>
      <trkpt lat="44.43576" lon="1.62472">
        <ele>318</ele>
        <time>2024-03-13T14:45:42Z</time>
      </trkpt>
      <trkpt lat="44.43576" lon="1.62474">
        <ele>319</ele>
        <time>2024-03-13T14:45:43Z</time>
      </trkpt>
      <trkpt lat="44.43576" lon="1.62475">
        <ele>318</ele>
        <time>2024-03-13T14:45:44Z</time>
      </trkpt>
      <trkpt lat="44.43576" lon="1.62477">
        <ele>319</ele>
        <time>2024-03-13T14:45:45Z</time>
      </trkpt>
      <trkpt lat="44.43576" lon="1.62479">
        <ele>318</ele>
        <time>2024-03-13T14:45:46Z</time>
      </trkpt>
      <trkpt lat="44.43577" lon="1.62481">
        <ele>318</ele>
        <time>2024-03-13T14:45:47Z</time>
      </trkpt>
      <trkpt lat="44.43577" lon="1.62483">
        <ele>318</ele>
        <time>2024-03-13T14:45:48Z</time>
      </trkpt>
      <trkpt lat="44.43578" lon="1.62485">
        <ele>318</ele>
        <time>2024-03-13T14:45:49Z</time>
      </trkpt>
      <trkpt lat="44.43578" lon="1.62487">
        <ele>318</ele>
        <time>2024-03-13T14:45:50Z</time>
      </trkpt>
      <trkpt lat="44.43578" lon="1.62489">
        <ele>319</ele>
        <time>2024-03-13T14:45:51Z</time>
      </trkpt>
      <trkpt lat="44.43578" lon="1.6249">
        <ele>318</ele>
        <time>2024-03-13T14:45:52Z</time>
      </trkpt>
      <trkpt lat="44.43578" lon="1.62492">
        <ele>318</ele>
        <time>2024-03-13T14:45:53Z</time>
      </trkpt>
      <trkpt lat="44.43578" lon="1.62493">
        <ele>318</ele>
        <time>2024-03-13T14:45:54Z</time>
      </trkpt>
      <trkpt lat="44.43578" lon="1.62494">
        <ele>318</ele>
        <time>2024-03-13T14:45:55Z</time>
      </trkpt>
      <trkpt lat="44.43579" lon="1.62496">
        <ele>318</ele>
        <time>2024-03-13T14:45:56Z</time>
      </trkpt>
      <trkpt lat="44.43579" lon="1.62498">
        <ele>318</ele>
        <time>2024-03-13T14:45:57Z</time>
      </trkpt>
      <trkpt lat="44.43579" lon="1.625">
        <ele>318</ele>
        <time>2024-03-13T14:45:58Z</time>
      </trkpt>
      <trkpt lat="44.4358" lon="1.62502">
        <ele>318</ele>
        <time>2024-03-13T14:45:59Z</time>
      </trkpt>
      <trkpt lat="44.4358" lon="1.62504">
        <ele>318</ele>
        <time>2024-03-13T14:46:00Z</time>
      </trkpt>
      <trkpt lat="44.4358" lon="1.62506">
        <ele>318</ele>
        <time>2024-03-13T14:46:01Z</time>
      </trkpt>
      <trkpt lat="44.4358" lon="1.62507">
        <ele>317</ele>
        <time>2024-03-13T14:46:02Z</time>
      </trkpt>
      <trkpt lat="44.43581" lon="1.62509">
        <ele>317</ele>
        <time>2024-03-13T14:46:03Z</time>
      </trkpt>
      <trkpt lat="44.43581" lon="1.62511">
        <ele>317</ele>
        <time>2024-03-13T14:46:04Z</time>
      </trkpt>
      <trkpt lat="44.43581" lon="1.62512">
        <ele>317</ele>
        <time>2024-03-13T14:46:05Z</time>
      </trkpt>
      <trkpt lat="44.43581" lon="1.62513">
        <ele>317</ele>
        <time>2024-03-13T14:46:06Z</time>
      </trkpt>
      <trkpt lat="44.43581" lon="1.62513">
        <ele>317</ele>
        <time>2024-03-13T14:46:07Z</time>
      </trkpt>
      <trkpt lat="44.43581" lon="1.62515">
        <ele>317</ele>
        <time>2024-03-13T14:46:08Z</time>
      </trkpt>
      <trkpt lat="44.43581" lon="1.62517">
        <ele>318</ele>
        <time>2024-03-13T14:46:09Z</time>
      </trkpt>
      <trkpt lat="44.43581" lon="1.62519">
        <ele>317</ele>
        <time>2024-03-13T14:46:10Z</time>
      </trkpt>
      <trkpt lat="44.43581" lon="1.62521">
        <ele>318</ele>
        <time>2024-03-13T14:46:11Z</time>
      </trkpt>
      <trkpt lat="44.43581" lon="1.62522">
        <ele>318</ele>
        <time>2024-03-13T14:46:12Z</time>
      </trkpt>
      <trkpt lat="44.43581" lon="1.62523">
        <ele>318</ele>
        <time>2024-03-13T14:46:13Z</time>
      </trkpt>
      <trkpt lat="44.43581" lon="1.62525">
        <ele>317</ele>
        <time>2024-03-13T14:46:14Z</time>
      </trkpt>
      <trkpt lat="44.43581" lon="1.62526">
        <ele>317</ele>
        <time>2024-03-13T14:46:15Z</time>
      </trkpt>
      <trkpt lat="44.43581" lon="1.62528">
        <ele>317</ele>
        <time>2024-03-13T14:46:16Z</time>
      </trkpt>
      <trkpt lat="44.43581" lon="1.62529">
        <ele>317</ele>
        <time>2024-03-13T14:46:17Z</time>
      </trkpt>
      <trkpt lat="44.4358" lon="1.62531">
        <ele>317</ele>
        <time>2024-03-13T14:46:18Z</time>
      </trkpt>
      <trkpt lat="44.4358" lon="1.62532">
        <ele>317</ele>
        <time>2024-03-13T14:46:19Z</time>
      </trkpt>
      <trkpt lat="44.4358" lon="1.62534">
        <ele>317</ele>
        <time>2024-03-13T14:46:20Z</time>
      </trkpt>
      <trkpt lat="44.43579" lon="1.62536">
        <ele>317</ele>
        <time>2024-03-13T14:46:21Z</time>
      </trkpt>
      <trkpt lat="44.43579" lon="1.62537">
        <ele>317</ele>
        <time>2024-03-13T14:46:22Z</time>
      </trkpt>
      <trkpt lat="44.43578" lon="1.62539">
        <ele>318</ele>
        <time>2024-03-13T14:46:23Z</time>
      </trkpt>
      <trkpt lat="44.43577" lon="1.6254">
        <ele>318</ele>
        <time>2024-03-13T14:46:24Z</time>
      </trkpt>
      <trkpt lat="44.43577" lon="1.62542">
        <ele>318</ele>
        <time>2024-03-13T14:46:25Z</time>
      </trkpt>
      <trkpt lat="44.43576" lon="1.62545">
        <ele>317</ele>
        <time>2024-03-13T14:46:27Z</time>
      </trkpt>
      <trkpt lat="44.43576" lon="1.62547">
        <ele>317</ele>
        <time>2024-03-13T14:46:28Z</time>
      </trkpt>
      <trkpt lat="44.43575" lon="1.62548">
        <ele>318</ele>
        <time>2024-03-13T14:46:29Z</time>
      </trkpt>
      <trkpt lat="44.43575" lon="1.62549">
        <ele>318</ele>
        <time>2024-03-13T14:46:30Z</time>
      </trkpt>
      <trkpt lat="44.43575" lon="1.62551">
        <ele>318</ele>
        <time>2024-03-13T14:46:31Z</time>
      </trkpt>
      <trkpt lat="44.43575" lon="1.62554">
        <ele>318</ele>
        <time>2024-03-13T14:46:32Z</time>
      </trkpt>
      <trkpt lat="44.43575" lon="1.62559">
        <ele>317</ele>
        <time>2024-03-13T14:46:33Z</time>
      </trkpt>
      <trkpt lat="44.43575" lon="1.62562">
        <ele>316</ele>
        <time>2024-03-13T14:46:34Z</time>
      </trkpt>
      <trkpt lat="44.43575" lon="1.62565">
        <ele>315</ele>
        <time>2024-03-13T14:46:35Z</time>
      </trkpt>
      <trkpt lat="44.43575" lon="1.62567">
        <ele>314</ele>
        <time>2024-03-13T14:46:36Z</time>
      </trkpt>
      <trkpt lat="44.43573" lon="1.62569">
        <ele>314</ele>
        <time>2024-03-13T14:46:37Z</time>
      </trkpt>
      <trkpt lat="44.43571" lon="1.62572">
        <ele>315</ele>
        <time>2024-03-13T14:46:38Z</time>
      </trkpt>
      <trkpt lat="44.4357" lon="1.62576">
        <ele>315</ele>
        <time>2024-03-13T14:46:40Z</time>
      </trkpt>
      <trkpt lat="44.43569" lon="1.62578">
        <ele>315</ele>
        <time>2024-03-13T14:46:41Z</time>
      </trkpt>
      <trkpt lat="44.43568" lon="1.6258">
        <ele>314</ele>
        <time>2024-03-13T14:46:42Z</time>
      </trkpt>
      <trkpt lat="44.43567" lon="1.62582">
        <ele>315</ele>
        <time>2024-03-13T14:46:43Z</time>
      </trkpt>
      <trkpt lat="44.43567" lon="1.62584">
        <ele>315</ele>
        <time>2024-03-13T14:46:44Z</time>
      </trkpt>
      <trkpt lat="44.43566" lon="1.62586">
        <ele>314</ele>
        <time>2024-03-13T14:46:45Z</time>
      </trkpt>
      <trkpt lat="44.43565" lon="1.62588">
        <ele>314</ele>
        <time>2024-03-13T14:46:46Z</time>
      </trkpt>
      <trkpt lat="44.43565" lon="1.62589">
        <ele>314</ele>
        <time>2024-03-13T14:46:47Z</time>
      </trkpt>
      <trkpt lat="44.43564" lon="1.6259">
        <ele>314</ele>
        <time>2024-03-13T14:46:48Z</time>
      </trkpt>
      <trkpt lat="44.43563" lon="1.62592">
        <ele>314</ele>
        <time>2024-03-13T14:46:49Z</time>
      </trkpt>
      <trkpt lat="44.43563" lon="1.62594">
        <ele>314</ele>
        <time>2024-03-13T14:46:50Z</time>
      </trkpt>
      <trkpt lat="44.43562" lon="1.62596">
        <ele>314</ele>
        <time>2024-03-13T14:46:51Z</time>
      </trkpt>
      <trkpt lat="44.43561" lon="1.62598">
        <ele>314</ele>
        <time>2024-03-13T14:46:52Z</time>
      </trkpt>
      <trkpt lat="44.43561" lon="1.62599">
        <ele>314</ele>
        <time>2024-03-13T14:46:53Z</time>
      </trkpt>
      <trkpt lat="44.4356" lon="1.62601">
        <ele>315</ele>
        <time>2024-03-13T14:46:54Z</time>
      </trkpt>
      <trkpt lat="44.43559" lon="1.62602">
        <ele>315</ele>
        <time>2024-03-13T14:46:55Z</time>
      </trkpt>
      <trkpt lat="44.43559" lon="1.62604">
        <ele>315</ele>
        <time>2024-03-13T14:46:56Z</time>
      </trkpt>
      <trkpt lat="44.43558" lon="1.62606">
        <ele>314</ele>
        <time>2024-03-13T14:46:57Z</time>
      </trkpt>
      <trkpt lat="44.43557" lon="1.62607">
        <ele>314</ele>
        <time>2024-03-13T14:46:58Z</time>
      </trkpt>
      <trkpt lat="44.43556" lon="1.62608">
        <ele>315</ele>
        <time>2024-03-13T14:46:59Z</time>
      </trkpt>
      <trkpt lat="44.43556" lon="1.62609">
        <ele>314</ele>
        <time>2024-03-13T14:47:00Z</time>
      </trkpt>
      <trkpt lat="44.43555" lon="1.6261">
        <ele>314</ele>
        <time>2024-03-13T14:47:01Z</time>
      </trkpt>
      <trkpt lat="44.43555" lon="1.62611">
        <ele>314</ele>
        <time>2024-03-13T14:47:02Z</time>
      </trkpt>
      <trkpt lat="44.43554" lon="1.62612">
        <ele>314</ele>
        <time>2024-03-13T14:47:03Z</time>
      </trkpt>
      <trkpt lat="44.43553" lon="1.62613">
        <ele>314</ele>
        <time>2024-03-13T14:47:04Z</time>
      </trkpt>
      <trkpt lat="44.43552" lon="1.62614">
        <ele>314</ele>
        <time>2024-03-13T14:47:05Z</time>
      </trkpt>
      <trkpt lat="44.43552" lon="1.62615">
        <ele>314</ele>
        <time>2024-03-13T14:47:06Z</time>
      </trkpt>
      <trkpt lat="44.43551" lon="1.62617">
        <ele>314</ele>
        <time>2024-03-13T14:47:07Z</time>
      </trkpt>
      <trkpt lat="44.4355" lon="1.62619">
        <ele>314</ele>
        <time>2024-03-13T14:47:08Z</time>
      </trkpt>
      <trkpt lat="44.43549" lon="1.6262">
        <ele>314</ele>
        <time>2024-03-13T14:47:09Z</time>
      </trkpt>
      <trkpt lat="44.43549" lon="1.62621">
        <ele>314</ele>
        <time>2024-03-13T14:47:10Z</time>
      </trkpt>
      <trkpt lat="44.43548" lon="1.62623">
        <ele>313</ele>
        <time>2024-03-13T14:47:11Z</time>
      </trkpt>
      <trkpt lat="44.43547" lon="1.62624">
        <ele>313</ele>
        <time>2024-03-13T14:47:12Z</time>
      </trkpt>
      <trkpt lat="44.43546" lon="1.62625">
        <ele>313</ele>
        <time>2024-03-13T14:47:13Z</time>
      </trkpt>
      <trkpt lat="44.43546" lon="1.62626">
        <ele>313</ele>
        <time>2024-03-13T14:47:14Z</time>
      </trkpt>
      <trkpt lat="44.43545" lon="1.62627">
        <ele>313</ele>
        <time>2024-03-13T14:47:15Z</time>
      </trkpt>
      <trkpt lat="44.43545" lon="1.62627">
        <ele>313</ele>
        <time>2024-03-13T14:47:16Z</time>
      </trkpt>
      <trkpt lat="44.43544" lon="1.62628">
        <ele>313</ele>
        <time>2024-03-13T14:47:17Z</time>
      </trkpt>
      <trkpt lat="44.43544" lon="1.62628">
        <ele>313</ele>
        <time>2024-03-13T14:47:18Z</time>
      </trkpt>
      <trkpt lat="44.43543" lon="1.62629">
        <ele>313</ele>
        <time>2024-03-13T14:47:19Z</time>
      </trkpt>
      <trkpt lat="44.43543" lon="1.6263">
        <ele>313</ele>
        <time>2024-03-13T14:47:20Z</time>
      </trkpt>
      <trkpt lat="44.43542" lon="1.62631">
        <ele>314</ele>
        <time>2024-03-13T14:47:21Z</time>
      </trkpt>
      <trkpt lat="44.43541" lon="1.62633">
        <ele>314</ele>
        <time>2024-03-13T14:47:22Z</time>
      </trkpt>
      <trkpt lat="44.43541" lon="1.62634">
        <ele>314</ele>
        <time>2024-03-13T14:47:23Z</time>
      </trkpt>
      <trkpt lat="44.4354" lon="1.62635">
        <ele>314</ele>
        <time>2024-03-13T14:47:24Z</time>
      </trkpt>
      <trkpt lat="44.43539" lon="1.62636">
        <ele>315</ele>
        <time>2024-03-13T14:47:25Z</time>
      </trkpt>
      <trkpt lat="44.43539" lon="1.62637">
        <ele>315</ele>
        <time>2024-03-13T14:47:26Z</time>
      </trkpt>
      <trkpt lat="44.43538" lon="1.62638">
        <ele>315</ele>
        <time>2024-03-13T14:47:27Z</time>
      </trkpt>
      <trkpt lat="44.43537" lon="1.62639">
        <ele>315</ele>
        <time>2024-03-13T14:47:28Z</time>
      </trkpt>
      <trkpt lat="44.43536" lon="1.6264">
        <ele>315</ele>
        <time>2024-03-13T14:47:29Z</time>
      </trkpt>
      <trkpt lat="44.43536" lon="1.62641">
        <ele>315</ele>
        <time>2024-03-13T14:47:30Z</time>
      </trkpt>
      <trkpt lat="44.43534" lon="1.62642">
        <ele>315</ele>
        <time>2024-03-13T14:47:31Z</time>
      </trkpt>
      <trkpt lat="44.43533" lon="1.62644">
        <ele>314</ele>
        <time>2024-03-13T14:47:32Z</time>
      </trkpt>
      <trkpt lat="44.43533" lon="1.62645">
        <ele>314</ele>
        <time>2024-03-13T14:47:33Z</time>
      </trkpt>
      <trkpt lat="44.43531" lon="1.62647">
        <ele>315</ele>
        <time>2024-03-13T14:47:34Z</time>
      </trkpt>
      <trkpt lat="44.43531" lon="1.62648">
        <ele>315</ele>
        <time>2024-03-13T14:47:35Z</time>
      </trkpt>
      <trkpt lat="44.4353" lon="1.62649">
        <ele>315</ele>
        <time>2024-03-13T14:47:36Z</time>
      </trkpt>
      <trkpt lat="44.43529" lon="1.6265">
        <ele>315</ele>
        <time>2024-03-13T14:47:37Z</time>
      </trkpt>
      <trkpt lat="44.43528" lon="1.62651">
        <ele>315</ele>
        <time>2024-03-13T14:47:38Z</time>
      </trkpt>
      <trkpt lat="44.43528" lon="1.62652">
        <ele>315</ele>
        <time>2024-03-13T14:47:39Z</time>
      </trkpt>
      <trkpt lat="44.43527" lon="1.62653">
        <ele>315</ele>
        <time>2024-03-13T14:47:40Z</time>
      </trkpt>
      <trkpt lat="44.43526" lon="1.62655">
        <ele>315</ele>
        <time>2024-03-13T14:47:41Z</time>
      </trkpt>
      <trkpt lat="44.43526" lon="1.62656">
        <ele>315</ele>
        <time>2024-03-13T14:47:42Z</time>
      </trkpt>
      <trkpt lat="44.43525" lon="1.62657">
        <ele>315</ele>
        <time>2024-03-13T14:47:43Z</time>
      </trkpt>
      <trkpt lat="44.43524" lon="1.62658">
        <ele>315</ele>
        <time>2024-03-13T14:47:44Z</time>
      </trkpt>
      <trkpt lat="44.43523" lon="1.62659">
        <ele>315</ele>
        <time>2024-03-13T14:47:45Z</time>
      </trkpt>
      <trkpt lat="44.43522" lon="1.6266">
        <ele>315</ele>
        <time>2024-03-13T14:47:46Z</time>
      </trkpt>
      <trkpt lat="44.43522" lon="1.6266">
        <ele>316</ele>
        <time>2024-03-13T14:47:47Z</time>
      </trkpt>
      <trkpt lat="44.43521" lon="1.62661">
        <ele>316</ele>
        <time>2024-03-13T14:47:48Z</time>
      </trkpt>
      <trkpt lat="44.4352" lon="1.62662">
        <ele>316</ele>
        <time>2024-03-13T14:47:49Z</time>
      </trkpt>
      <trkpt lat="44.43519" lon="1.62663">
        <ele>315</ele>
        <time>2024-03-13T14:47:50Z</time>
      </trkpt>
      <trkpt lat="44.43518" lon="1.62664">
        <ele>315</ele>
        <time>2024-03-13T14:47:51Z</time>
      </trkpt>
      <trkpt lat="44.43518" lon="1.62664">
        <ele>315</ele>
        <time>2024-03-13T14:47:52Z</time>
      </trkpt>
      <trkpt lat="44.43517" lon="1.62665">
        <ele>315</ele>
        <time>2024-03-13T14:47:53Z</time>
      </trkpt>
      <trkpt lat="44.43516" lon="1.62665">
        <ele>315</ele>
        <time>2024-03-13T14:47:54Z</time>
      </trkpt>
      <trkpt lat="44.43515" lon="1.62666">
        <ele>315</ele>
        <time>2024-03-13T14:47:55Z</time>
      </trkpt>
      <trkpt lat="44.43514" lon="1.62667">
        <ele>315</ele>
        <time>2024-03-13T14:47:56Z</time>
      </trkpt>
      <trkpt lat="44.43513" lon="1.62667">
        <ele>315</ele>
        <time>2024-03-13T14:47:57Z</time>
      </trkpt>
      <trkpt lat="44.43512" lon="1.62668">
        <ele>314</ele>
        <time>2024-03-13T14:47:58Z</time>
      </trkpt>
      <trkpt lat="44.43511" lon="1.62669">
        <ele>315</ele>
        <time>2024-03-13T14:47:59Z</time>
      </trkpt>
      <trkpt lat="44.4351" lon="1.6267">
        <ele>315</ele>
        <time>2024-03-13T14:48:00Z</time>
      </trkpt>
      <trkpt lat="44.43509" lon="1.62672">
        <ele>315</ele>
        <time>2024-03-13T14:48:01Z</time>
      </trkpt>
      <trkpt lat="44.43509" lon="1.62672">
        <ele>315</ele>
        <time>2024-03-13T14:48:02Z</time>
      </trkpt>
      <trkpt lat="44.43508" lon="1.62673">
        <ele>315</ele>
        <time>2024-03-13T14:48:03Z</time>
      </trkpt>
      <trkpt lat="44.43507" lon="1.62674">
        <ele>315</ele>
        <time>2024-03-13T14:48:04Z</time>
      </trkpt>
      <trkpt lat="44.43506" lon="1.62675">
        <ele>316</ele>
        <time>2024-03-13T14:48:05Z</time>
      </trkpt>
      <trkpt lat="44.43505" lon="1.62676">
        <ele>315</ele>
        <time>2024-03-13T14:48:06Z</time>
      </trkpt>
      <trkpt lat="44.43504" lon="1.62677">
        <ele>315</ele>
        <time>2024-03-13T14:48:07Z</time>
      </trkpt>
      <trkpt lat="44.43504" lon="1.62678">
        <ele>315</ele>
        <time>2024-03-13T14:48:08Z</time>
      </trkpt>
      <trkpt lat="44.43502" lon="1.6268">
        <ele>315</ele>
        <time>2024-03-13T14:48:09Z</time>
      </trkpt>
      <trkpt lat="44.43501" lon="1.62681">
        <ele>315</ele>
        <time>2024-03-13T14:48:10Z</time>
      </trkpt>
      <trkpt lat="44.435" lon="1.62683">
        <ele>315</ele>
        <time>2024-03-13T14:48:11Z</time>
      </trkpt>
      <trkpt lat="44.43499" lon="1.62684">
        <ele>315</ele>
        <time>2024-03-13T14:48:12Z</time>
      </trkpt>
      <trkpt lat="44.43498" lon="1.62686">
        <ele>314</ele>
        <time>2024-03-13T14:48:13Z</time>
      </trkpt>
      <trkpt lat="44.43497" lon="1.62687">
        <ele>315</ele>
        <time>2024-03-13T14:48:14Z</time>
      </trkpt>
      <trkpt lat="44.43496" lon="1.62689">
        <ele>315</ele>
        <time>2024-03-13T14:48:15Z</time>
      </trkpt>
      <trkpt lat="44.43495" lon="1.6269">
        <ele>314</ele>
        <time>2024-03-13T14:48:16Z</time>
      </trkpt>
      <trkpt lat="44.43494" lon="1.62692">
        <ele>314</ele>
        <time>2024-03-13T14:48:17Z</time>
      </trkpt>
      <trkpt lat="44.43493" lon="1.62692">
        <ele>314</ele>
        <time>2024-03-13T14:48:18Z</time>
      </trkpt>
      <trkpt lat="44.43491" lon="1.62693">
        <ele>314</ele>
        <time>2024-03-13T14:48:19Z</time>
      </trkpt>
      <trkpt lat="44.4349" lon="1.62694">
        <ele>314</ele>
        <time>2024-03-13T14:48:20Z</time>
      </trkpt>
      <trkpt lat="44.43489" lon="1.62695">
        <ele>315</ele>
        <time>2024-03-13T14:48:21Z</time>
      </trkpt>
      <trkpt lat="44.43488" lon="1.62695">
        <ele>314</ele>
        <time>2024-03-13T14:48:22Z</time>
      </trkpt>
      <trkpt lat="44.43487" lon="1.62697">
        <ele>314</ele>
        <time>2024-03-13T14:48:23Z</time>
      </trkpt>
      <trkpt lat="44.43486" lon="1.62697">
        <ele>314</ele>
        <time>2024-03-13T14:48:24Z</time>
      </trkpt>
      <trkpt lat="44.43485" lon="1.62698">
        <ele>314</ele>
        <time>2024-03-13T14:48:25Z</time>
      </trkpt>
      <trkpt lat="44.43484" lon="1.62699">
        <ele>314</ele>
        <time>2024-03-13T14:48:26Z</time>
      </trkpt>
      <trkpt lat="44.43483" lon="1.627">
        <ele>314</ele>
        <time>2024-03-13T14:48:27Z</time>
      </trkpt>
      <trkpt lat="44.43481" lon="1.62701">
        <ele>314</ele>
        <time>2024-03-13T14:48:28Z</time>
      </trkpt>
      <trkpt lat="44.43481" lon="1.62702">
        <ele>314</ele>
        <time>2024-03-13T14:48:29Z</time>
      </trkpt>
      <trkpt lat="44.43479" lon="1.62703">
        <ele>314</ele>
        <time>2024-03-13T14:48:30Z</time>
      </trkpt>
      <trkpt lat="44.43478" lon="1.62703">
        <ele>314</ele>
        <time>2024-03-13T14:48:31Z</time>
      </trkpt>
      <trkpt lat="44.43477" lon="1.62705">
        <ele>314</ele>
        <time>2024-03-13T14:48:32Z</time>
      </trkpt>
      <trkpt lat="44.43476" lon="1.62706">
        <ele>314</ele>
        <time>2024-03-13T14:48:33Z</time>
      </trkpt>
      <trkpt lat="44.43475" lon="1.62707">
        <ele>314</ele>
        <time>2024-03-13T14:48:34Z</time>
      </trkpt>
      <trkpt lat="44.43474" lon="1.62708">
        <ele>314</ele>
        <time>2024-03-13T14:48:35Z</time>
      </trkpt>
      <trkpt lat="44.43473" lon="1.62709">
        <ele>315</ele>
        <time>2024-03-13T14:48:36Z</time>
      </trkpt>
      <trkpt lat="44.43472" lon="1.6271">
        <ele>315</ele>
        <time>2024-03-13T14:48:37Z</time>
      </trkpt>
      <trkpt lat="44.43471" lon="1.62712">
        <ele>314</ele>
        <time>2024-03-13T14:48:38Z</time>
      </trkpt>
      <trkpt lat="44.4347" lon="1.62713">
        <ele>315</ele>
        <time>2024-03-13T14:48:39Z</time>
      </trkpt>
      <trkpt lat="44.43469" lon="1.62714">
        <ele>315</ele>
        <time>2024-03-13T14:48:40Z</time>
      </trkpt>
      <trkpt lat="44.43468" lon="1.62715">
        <ele>316</ele>
        <time>2024-03-13T14:48:41Z</time>
      </trkpt>
      <trkpt lat="44.43467" lon="1.62715">
        <ele>316</ele>
        <time>2024-03-13T14:48:42Z</time>
      </trkpt>
      <trkpt lat="44.43466" lon="1.62716">
        <ele>316</ele>
        <time>2024-03-13T14:48:43Z</time>
      </trkpt>
      <trkpt lat="44.43465" lon="1.62717">
        <ele>316</ele>
        <time>2024-03-13T14:48:44Z</time>
      </trkpt>
      <trkpt lat="44.43465" lon="1.62718">
        <ele>316</ele>
        <time>2024-03-13T14:48:45Z</time>
      </trkpt>
      <trkpt lat="44.43464" lon="1.62719">
        <ele>316</ele>
        <time>2024-03-13T14:48:46Z</time>
      </trkpt>
      <trkpt lat="44.43463" lon="1.6272">
        <ele>317</ele>
        <time>2024-03-13T14:48:47Z</time>
      </trkpt>
      <trkpt lat="44.43462" lon="1.62721">
        <ele>317</ele>
        <time>2024-03-13T14:48:48Z</time>
      </trkpt>
      <trkpt lat="44.43461" lon="1.62722">
        <ele>317</ele>
        <time>2024-03-13T14:48:49Z</time>
      </trkpt>
      <trkpt lat="44.4346" lon="1.62723">
        <ele>317</ele>
        <time>2024-03-13T14:48:50Z</time>
      </trkpt>
      <trkpt lat="44.4346" lon="1.62724">
        <ele>317</ele>
        <time>2024-03-13T14:48:51Z</time>
      </trkpt>
      <trkpt lat="44.43459" lon="1.62725">
        <ele>317</ele>
        <time>2024-03-13T14:48:52Z</time>
      </trkpt>
      <trkpt lat="44.43458" lon="1.62725">
        <ele>317</ele>
        <time>2024-03-13T14:48:53Z</time>
      </trkpt>
      <trkpt lat="44.43457" lon="1.62726">
        <ele>317</ele>
        <time>2024-03-13T14:48:54Z</time>
      </trkpt>
      <trkpt lat="44.43456" lon="1.62726">
        <ele>317</ele>
        <time>2024-03-13T14:48:55Z</time>
      </trkpt>
      <trkpt lat="44.43456" lon="1.62727">
        <ele>318</ele>
        <time>2024-03-13T14:48:56Z</time>
      </trkpt>
      <trkpt lat="44.43455" lon="1.62728">
        <ele>317</ele>
        <time>2024-03-13T14:48:57Z</time>
      </trkpt>
      <trkpt lat="44.43454" lon="1.62729">
        <ele>318</ele>
        <time>2024-03-13T14:48:58Z</time>
      </trkpt>
      <trkpt lat="44.43453" lon="1.62731">
        <ele>318</ele>
        <time>2024-03-13T14:48:59Z</time>
      </trkpt>
      <trkpt lat="44.43452" lon="1.62732">
        <ele>318</ele>
        <time>2024-03-13T14:49:00Z</time>
      </trkpt>
      <trkpt lat="44.43452" lon="1.62733">
        <ele>317</ele>
        <time>2024-03-13T14:49:01Z</time>
      </trkpt>
      <trkpt lat="44.43451" lon="1.62734">
        <ele>317</ele>
        <time>2024-03-13T14:49:02Z</time>
      </trkpt>
      <trkpt lat="44.4345" lon="1.62736">
        <ele>317</ele>
        <time>2024-03-13T14:49:03Z</time>
      </trkpt>
      <trkpt lat="44.43449" lon="1.62737">
        <ele>317</ele>
        <time>2024-03-13T14:49:04Z</time>
      </trkpt>
      <trkpt lat="44.43449" lon="1.62739">
        <ele>317</ele>
        <time>2024-03-13T14:49:05Z</time>
      </trkpt>
      <trkpt lat="44.43448" lon="1.6274">
        <ele>317</ele>
        <time>2024-03-13T14:49:06Z</time>
      </trkpt>
      <trkpt lat="44.43447" lon="1.6274">
        <ele>317</ele>
        <time>2024-03-13T14:49:07Z</time>
      </trkpt>
      <trkpt lat="44.43446" lon="1.62742">
        <ele>317</ele>
        <time>2024-03-13T14:49:08Z</time>
      </trkpt>
      <trkpt lat="44.43445" lon="1.62743">
        <ele>317</ele>
        <time>2024-03-13T14:49:09Z</time>
      </trkpt>
      <trkpt lat="44.43445" lon="1.62744">
        <ele>317</ele>
        <time>2024-03-13T14:49:10Z</time>
      </trkpt>
      <trkpt lat="44.43444" lon="1.62745">
        <ele>317</ele>
        <time>2024-03-13T14:49:11Z</time>
      </trkpt>
      <trkpt lat="44.43444" lon="1.62747">
        <ele>317</ele>
        <time>2024-03-13T14:49:12Z</time>
      </trkpt>
      <trkpt lat="44.43443" lon="1.62748">
        <ele>317</ele>
        <time>2024-03-13T14:49:13Z</time>
      </trkpt>
      <trkpt lat="44.43442" lon="1.6275">
        <ele>317</ele>
        <time>2024-03-13T14:49:14Z</time>
      </trkpt>
      <trkpt lat="44.43441" lon="1.62751">
        <ele>317</ele>
        <time>2024-03-13T14:49:15Z</time>
      </trkpt>
      <trkpt lat="44.43441" lon="1.62753">
        <ele>317</ele>
        <time>2024-03-13T14:49:16Z</time>
      </trkpt>
      <trkpt lat="44.4344" lon="1.62755">
        <ele>317</ele>
        <time>2024-03-13T14:49:17Z</time>
      </trkpt>
      <trkpt lat="44.43439" lon="1.62757">
        <ele>316</ele>
        <time>2024-03-13T14:49:18Z</time>
      </trkpt>
      <trkpt lat="44.43438" lon="1.62758">
        <ele>316</ele>
        <time>2024-03-13T14:49:19Z</time>
      </trkpt>
      <trkpt lat="44.43437" lon="1.6276">
        <ele>316</ele>
        <time>2024-03-13T14:49:20Z</time>
      </trkpt>
      <trkpt lat="44.43436" lon="1.62762">
        <ele>316</ele>
        <time>2024-03-13T14:49:21Z</time>
      </trkpt>
      <trkpt lat="44.43436" lon="1.62763">
        <ele>316</ele>
        <time>2024-03-13T14:49:22Z</time>
      </trkpt>
      <trkpt lat="44.43435" lon="1.62766">
        <ele>316</ele>
        <time>2024-03-13T14:49:23Z</time>
      </trkpt>
      <trkpt lat="44.43435" lon="1.62768">
        <ele>315</ele>
        <time>2024-03-13T14:49:24Z</time>
      </trkpt>
      <trkpt lat="44.43434" lon="1.62769">
        <ele>315</ele>
        <time>2024-03-13T14:49:25Z</time>
      </trkpt>
      <trkpt lat="44.43433" lon="1.62771">
        <ele>315</ele>
        <time>2024-03-13T14:49:26Z</time>
      </trkpt>
      <trkpt lat="44.43433" lon="1.62772">
        <ele>315</ele>
        <time>2024-03-13T14:49:27Z</time>
      </trkpt>
      <trkpt lat="44.43432" lon="1.62774">
        <ele>315</ele>
        <time>2024-03-13T14:49:28Z</time>
      </trkpt>
      <trkpt lat="44.43431" lon="1.62775">
        <ele>315</ele>
        <time>2024-03-13T14:49:29Z</time>
      </trkpt>
      <trkpt lat="44.43431" lon="1.62777">
        <ele>315</ele>
        <time>2024-03-13T14:49:30Z</time>
      </trkpt>
      <trkpt lat="44.4343" lon="1.62778">
        <ele>315</ele>
        <time>2024-03-13T14:49:31Z</time>
      </trkpt>
      <trkpt lat="44.4343" lon="1.6278">
        <ele>315</ele>
        <time>2024-03-13T14:49:32Z</time>
      </trkpt>
      <trkpt lat="44.43429" lon="1.62782">
        <ele>315</ele>
        <time>2024-03-13T14:49:33Z</time>
      </trkpt>
      <trkpt lat="44.43428" lon="1.62783">
        <ele>315</ele>
        <time>2024-03-13T14:49:34Z</time>
      </trkpt>
      <trkpt lat="44.43427" lon="1.62785">
        <ele>314</ele>
        <time>2024-03-13T14:49:35Z</time>
      </trkpt>
      <trkpt lat="44.43427" lon="1.62786">
        <ele>314</ele>
        <time>2024-03-13T14:49:36Z</time>
      </trkpt>
      <trkpt lat="44.43426" lon="1.62787">
        <ele>314</ele>
        <time>2024-03-13T14:49:37Z</time>
      </trkpt>
      <trkpt lat="44.43425" lon="1.62788">
        <ele>314</ele>
        <time>2024-03-13T14:49:38Z</time>
      </trkpt>
      <trkpt lat="44.43424" lon="1.6279">
        <ele>313</ele>
        <time>2024-03-13T14:49:39Z</time>
      </trkpt>
      <trkpt lat="44.43424" lon="1.62791">
        <ele>314</ele>
        <time>2024-03-13T14:49:40Z</time>
      </trkpt>
      <trkpt lat="44.43423" lon="1.62793">
        <ele>314</ele>
        <time>2024-03-13T14:49:41Z</time>
      </trkpt>
      <trkpt lat="44.43422" lon="1.62794">
        <ele>314</ele>
        <time>2024-03-13T14:49:42Z</time>
      </trkpt>
      <trkpt lat="44.43422" lon="1.62796">
        <ele>314</ele>
        <time>2024-03-13T14:49:43Z</time>
      </trkpt>
      <trkpt lat="44.43421" lon="1.62797">
        <ele>314</ele>
        <time>2024-03-13T14:49:44Z</time>
      </trkpt>
      <trkpt lat="44.4342" lon="1.62799">
        <ele>314</ele>
        <time>2024-03-13T14:49:45Z</time>
      </trkpt>
      <trkpt lat="44.43419" lon="1.628">
        <ele>314</ele>
        <time>2024-03-13T14:49:46Z</time>
      </trkpt>
      <trkpt lat="44.43419" lon="1.62801">
        <ele>314</ele>
        <time>2024-03-13T14:49:47Z</time>
      </trkpt>
      <trkpt lat="44.43418" lon="1.62803">
        <ele>314</ele>
        <time>2024-03-13T14:49:48Z</time>
      </trkpt>
      <trkpt lat="44.43417" lon="1.62804">
        <ele>314</ele>
        <time>2024-03-13T14:49:49Z</time>
      </trkpt>
      <trkpt lat="44.43417" lon="1.62805">
        <ele>314</ele>
        <time>2024-03-13T14:49:50Z</time>
      </trkpt>
      <trkpt lat="44.43416" lon="1.62807">
        <ele>314</ele>
        <time>2024-03-13T14:49:51Z</time>
      </trkpt>
      <trkpt lat="44.43415" lon="1.62808">
        <ele>314</ele>
        <time>2024-03-13T14:49:52Z</time>
      </trkpt>
      <trkpt lat="44.43414" lon="1.6281">
        <ele>314</ele>
        <time>2024-03-13T14:49:53Z</time>
      </trkpt>
      <trkpt lat="44.43413" lon="1.62811">
        <ele>314</ele>
        <time>2024-03-13T14:49:54Z</time>
      </trkpt>
      <trkpt lat="44.43412" lon="1.62812">
        <ele>314</ele>
        <time>2024-03-13T14:49:55Z</time>
      </trkpt>
      <trkpt lat="44.43412" lon="1.62813">
        <ele>314</ele>
        <time>2024-03-13T14:49:56Z</time>
      </trkpt>
      <trkpt lat="44.43411" lon="1.62815">
        <ele>314</ele>
        <time>2024-03-13T14:49:57Z</time>
      </trkpt>
      <trkpt lat="44.4341" lon="1.62816">
        <ele>314</ele>
        <time>2024-03-13T14:49:58Z</time>
      </trkpt>
      <trkpt lat="44.43409" lon="1.62817">
        <ele>313</ele>
        <time>2024-03-13T14:49:59Z</time>
      </trkpt>
      <trkpt lat="44.43409" lon="1.62819">
        <ele>313</ele>
        <time>2024-03-13T14:50:00Z</time>
      </trkpt>
      <trkpt lat="44.43408" lon="1.6282">
        <ele>313</ele>
        <time>2024-03-13T14:50:01Z</time>
      </trkpt>
      <trkpt lat="44.43407" lon="1.62821">
        <ele>312</ele>
        <time>2024-03-13T14:50:02Z</time>
      </trkpt>
      <trkpt lat="44.43407" lon="1.62821">
        <ele>312</ele>
        <time>2024-03-13T14:50:03Z</time>
      </trkpt>
      <trkpt lat="44.43406" lon="1.62822">
        <ele>312</ele>
        <time>2024-03-13T14:50:04Z</time>
      </trkpt>
      <trkpt lat="44.43406" lon="1.62823">
        <ele>313</ele>
        <time>2024-03-13T14:50:05Z</time>
      </trkpt>
      <trkpt lat="44.43405" lon="1.62824">
        <ele>313</ele>
        <time>2024-03-13T14:50:06Z</time>
      </trkpt>
      <trkpt lat="44.43405" lon="1.62824">
        <ele>313</ele>
        <time>2024-03-13T14:50:07Z</time>
      </trkpt>
      <trkpt lat="44.43405" lon="1.62824">
        <ele>313</ele>
        <time>2024-03-13T14:50:08Z</time>
      </trkpt>
      <trkpt lat="44.43405" lon="1.62824">
        <ele>313</ele>
        <time>2024-03-13T14:50:09Z</time>
      </trkpt>
      <trkpt lat="44.43405" lon="1.62824">
        <ele>313</ele>
        <time>2024-03-13T14:50:10Z</time>
      </trkpt>
      <trkpt lat="44.43405" lon="1.62824">
        <ele>313</ele>
        <time>2024-03-13T14:50:11Z</time>
      </trkpt>
      <trkpt lat="44.43405" lon="1.62824">
        <ele>313</ele>
        <time>2024-03-13T14:50:12Z</time>
      </trkpt>
      <trkpt lat="44.43405" lon="1.62824">
        <ele>313</ele>
        <time>2024-03-13T14:50:13Z</time>
      </trkpt>
      <trkpt lat="44.43405" lon="1.62824">
        <ele>313</ele>
        <time>2024-03-13T14:50:14Z</time>
      </trkpt>
      <trkpt lat="44.43405" lon="1.62824">
        <ele>313</ele>
        <time>2024-03-13T14:50:15Z</time>
      </trkpt>
      <trkpt lat="44.43405" lon="1.62824">
        <ele>313</ele>
        <time>2024-03-13T14:50:16Z</time>
      </trkpt>
      <trkpt lat="44.43405" lon="1.62824">
        <ele>313</ele>
        <time>2024-03-13T14:50:17Z</time>
      </trkpt>
      <trkpt lat="44.43405" lon="1.62825">
        <ele>313</ele>
        <time>2024-03-13T14:50:18Z</time>
      </trkpt>
      <trkpt lat="44.43405" lon="1.62826">
        <ele>312</ele>
        <time>2024-03-13T14:50:19Z</time>
      </trkpt>
      <trkpt lat="44.43404" lon="1.62827">
        <ele>312</ele>
        <time>2024-03-13T14:50:20Z</time>
      </trkpt>
      <trkpt lat="44.43404" lon="1.62827">
        <ele>312</ele>
        <time>2024-03-13T14:50:21Z</time>
      </trkpt>
      <trkpt lat="44.43404" lon="1.62827">
        <ele>312</ele>
        <time>2024-03-13T14:50:22Z</time>
      </trkpt>
      <trkpt lat="44.43404" lon="1.62827">
        <ele>312</ele>
        <time>2024-03-13T14:50:23Z</time>
      </trkpt>
      <trkpt lat="44.43404" lon="1.62827">
        <ele>312</ele>
        <time>2024-03-13T14:50:24Z</time>
      </trkpt>
      <trkpt lat="44.43404" lon="1.62827">
        <ele>312</ele>
        <time>2024-03-13T14:50:25Z</time>
      </trkpt>
      <trkpt lat="44.43404" lon="1.62827">
        <ele>312</ele>
        <time>2024-03-13T14:50:26Z</time>
      </trkpt>
      <trkpt lat="44.43404" lon="1.62827">
        <ele>312</ele>
        <time>2024-03-13T14:50:27Z</time>
      </trkpt>
      <trkpt lat="44.43404" lon="1.62827">
        <ele>312</ele>
        <time>2024-03-13T14:50:28Z</time>
      </trkpt>
      <trkpt lat="44.43404" lon="1.62827">
        <ele>312</ele>
        <time>2024-03-13T14:50:29Z</time>
      </trkpt>
      <trkpt lat="44.43404" lon="1.62827">
        <ele>312</ele>
        <time>2024-03-13T14:50:30Z</time>
      </trkpt>
      <trkpt lat="44.43404" lon="1.62829">
        <ele>312</ele>
        <time>2024-03-13T14:50:31Z</time>
      </trkpt>
      <trkpt lat="44.43404" lon="1.62829">
        <ele>311</ele>
        <time>2024-03-13T14:50:32Z</time>
      </trkpt>
      <trkpt lat="44.43403" lon="1.6283">
        <ele>312</ele>
        <time>2024-03-13T14:50:33Z</time>
      </trkpt>
      <trkpt lat="44.43403" lon="1.6283">
        <ele>311</ele>
        <time>2024-03-13T14:50:34Z</time>
      </trkpt>
      <trkpt lat="44.43403" lon="1.6283">
        <ele>311</ele>
        <time>2024-03-13T14:50:35Z</time>
      </trkpt>
      <trkpt lat="44.43403" lon="1.6283">
        <ele>311</ele>
        <time>2024-03-13T14:50:36Z</time>
      </trkpt>
      <trkpt lat="44.43402" lon="1.62831">
        <ele>311</ele>
        <time>2024-03-13T14:50:37Z</time>
      </trkpt>
      <trkpt lat="44.43402" lon="1.62831">
        <ele>311</ele>
        <time>2024-03-13T14:50:38Z</time>
      </trkpt>
      <trkpt lat="44.43402" lon="1.62831">
        <ele>311</ele>
        <time>2024-03-13T14:50:39Z</time>
      </trkpt>
      <trkpt lat="44.43402" lon="1.62831">
        <ele>311</ele>
        <time>2024-03-13T14:50:40Z</time>
      </trkpt>
      <trkpt lat="44.43402" lon="1.62831">
        <ele>311</ele>
        <time>2024-03-13T14:50:41Z</time>
      </trkpt>
      <trkpt lat="44.43402" lon="1.62831">
        <ele>311</ele>
        <time>2024-03-13T14:50:42Z</time>
      </trkpt>
      <trkpt lat="44.43402" lon="1.62831">
        <ele>311</ele>
        <time>2024-03-13T14:50:43Z</time>
      </trkpt>
      <trkpt lat="44.43402" lon="1.62831">
        <ele>311</ele>
        <time>2024-03-13T14:50:44Z</time>
      </trkpt>
      <trkpt lat="44.43402" lon="1.62831">
        <ele>311</ele>
        <time>2024-03-13T14:50:45Z</time>
      </trkpt>
      <trkpt lat="44.43402" lon="1.62831">
        <ele>311</ele>
        <time>2024-03-13T14:50:46Z</time>
      </trkpt>
      <trkpt lat="44.43402" lon="1.62831">
        <ele>311</ele>
        <time>2024-03-13T14:50:47Z</time>
      </trkpt>
      <trkpt lat="44.43402" lon="1.62831">
        <ele>311</ele>
        <time>2024-03-13T14:50:48Z</time>
      </trkpt>
      <trkpt lat="44.43402" lon="1.62831">
        <ele>311</ele>
        <time>2024-03-13T14:50:49Z</time>
      </trkpt>
      <trkpt lat="44.43402" lon="1.62831">
        <ele>311</ele>
        <time>2024-03-13T14:50:50Z</time>
      </trkpt>
      <trkpt lat="44.43402" lon="1.62831">
        <ele>311</ele>
        <time>2024-03-13T14:50:51Z</time>
      </trkpt>
      <trkpt lat="44.43402" lon="1.62831">
        <ele>311</ele>
        <time>2024-03-13T14:50:52Z</time>
      </trkpt>
      <trkpt lat="44.43402" lon="1.62832">
        <ele>311</ele>
        <time>2024-03-13T14:50:53Z</time>
      </trkpt>
      <trkpt lat="44.43402" lon="1.62832">
        <ele>311</ele>
        <time>2024-03-13T14:50:54Z</time>
      </trkpt>
      <trkpt lat="44.43402" lon="1.62832">
        <ele>311</ele>
        <time>2024-03-13T14:50:55Z</time>
      </trkpt>
      <trkpt lat="44.43402" lon="1.62832">
        <ele>311</ele>
        <time>2024-03-13T14:50:56Z</time>
      </trkpt>
      <trkpt lat="44.43402" lon="1.62832">
        <ele>311</ele>
        <time>2024-03-13T14:50:57Z</time>
      </trkpt>
      <trkpt lat="44.43402" lon="1.62832">
        <ele>311</ele>
        <time>2024-03-13T14:50:58Z</time>
      </trkpt>
      <trkpt lat="44.43402" lon="1.62832">
        <ele>311</ele>
        <time>2024-03-13T14:50:59Z</time>
      </trkpt>
      <trkpt lat="44.43402" lon="1.62832">
        <ele>311</ele>
        <time>2024-03-13T14:51:00Z</time>
      </trkpt>
      <trkpt lat="44.43402" lon="1.62832">
        <ele>311</ele>
        <time>2024-03-13T14:51:01Z</time>
      </trkpt>
      <trkpt lat="44.43402" lon="1.62831">
        <ele>311</ele>
        <time>2024-03-13T14:51:02Z</time>
      </trkpt>
      <trkpt lat="44.43402" lon="1.6283">
        <ele>311</ele>
        <time>2024-03-13T14:51:03Z</time>
      </trkpt>
      <trkpt lat="44.43402" lon="1.62831">
        <ele>311</ele>
        <time>2024-03-13T14:51:04Z</time>
      </trkpt>
      <trkpt lat="44.43402" lon="1.62831">
        <ele>311</ele>
        <time>2024-03-13T14:51:05Z</time>
      </trkpt>
      <trkpt lat="44.43401" lon="1.62832">
        <ele>310</ele>
        <time>2024-03-13T14:51:06Z</time>
      </trkpt>
      <trkpt lat="44.43401" lon="1.62832">
        <ele>310</ele>
        <time>2024-03-13T14:51:07Z</time>
      </trkpt>
      <trkpt lat="44.43401" lon="1.62832">
        <ele>310</ele>
        <time>2024-03-13T14:51:08Z</time>
      </trkpt>
      <trkpt lat="44.43401" lon="1.62832">
        <ele>310</ele>
        <time>2024-03-13T14:51:09Z</time>
      </trkpt>
      <trkpt lat="44.43401" lon="1.62832">
        <ele>310</ele>
        <time>2024-03-13T14:51:10Z</time>
      </trkpt>
      <trkpt lat="44.43401" lon="1.62832">
        <ele>310</ele>
        <time>2024-03-13T14:51:11Z</time>
      </trkpt>
      <trkpt lat="44.43401" lon="1.62832">
        <ele>310</ele>
        <time>2024-03-13T14:51:12Z</time>
      </trkpt>
      <trkpt lat="44.43401" lon="1.62832">
        <ele>310</ele>
        <time>2024-03-13T14:51:13Z</time>
      </trkpt>
      <trkpt lat="44.43401" lon="1.62832">
        <ele>310</ele>
        <time>2024-03-13T14:51:14Z</time>
      </trkpt>
      <trkpt lat="44.43401" lon="1.62832">
        <ele>310</ele>
        <time>2024-03-13T14:51:15Z</time>
      </trkpt>
      <trkpt lat="44.43401" lon="1.62832">
        <ele>310</ele>
        <time>2024-03-13T14:51:16Z</time>
      </trkpt>
      <trkpt lat="44.43401" lon="1.62832">
        <ele>310</ele>
        <time>2024-03-13T14:51:17Z</time>
      </trkpt>
      <trkpt lat="44.43401" lon="1.62832">
        <ele>310</ele>
        <time>2024-03-13T14:51:18Z</time>
      </trkpt>
      <trkpt lat="44.43401" lon="1.62832">
        <ele>310</ele>
        <time>2024-03-13T14:51:19Z</time>
      </trkpt>
      <trkpt lat="44.43401" lon="1.62832">
        <ele>310</ele>
        <time>2024-03-13T14:51:20Z</time>
      </trkpt>
      <trkpt lat="44.43401" lon="1.62832">
        <ele>310</ele>
        <time>2024-03-13T14:51:21Z</time>
      </trkpt>
      <trkpt lat="44.43401" lon="1.62832">
        <ele>310</ele>
        <time>2024-03-13T14:51:22Z</time>
      </trkpt>
      <trkpt lat="44.43401" lon="1.62832">
        <ele>310</ele>
        <time>2024-03-13T14:51:23Z</time>
      </trkpt>
      <trkpt lat="44.43401" lon="1.62832">
        <ele>310</ele>
        <time>2024-03-13T14:51:24Z</time>
      </trkpt>
      <trkpt lat="44.43401" lon="1.62832">
        <ele>310</ele>
        <time>2024-03-13T14:51:25Z</time>
      </trkpt>
      <trkpt lat="44.43401" lon="1.62832">
        <ele>310</ele>
        <time>2024-03-13T14:51:26Z</time>
      </trkpt>
      <trkpt lat="44.43401" lon="1.62832">
        <ele>310</ele>
        <time>2024-03-13T14:51:27Z</time>
      </trkpt>
      <trkpt lat="44.43401" lon="1.62832">
        <ele>310</ele>
        <time>2024-03-13T14:51:28Z</time>
      </trkpt>
      <trkpt lat="44.43401" lon="1.62832">
        <ele>310</ele>
        <time>2024-03-13T14:51:29Z</time>
      </trkpt>
      <trkpt lat="44.43401" lon="1.62832">
        <ele>310</ele>
        <time>2024-03-13T14:51:30Z</time>
      </trkpt>
      <trkpt lat="44.43401" lon="1.62832">
        <ele>310</ele>
        <time>2024-03-13T14:51:31Z</time>
      </trkpt>
      <trkpt lat="44.43401" lon="1.62832">
        <ele>310</ele>
        <time>2024-03-13T14:51:32Z</time>
      </trkpt>
      <trkpt lat="44.43401" lon="1.62832">
        <ele>310</ele>
        <time>2024-03-13T14:51:33Z</time>
      </trkpt>
      <trkpt lat="44.43401" lon="1.62832">
        <ele>310</ele>
        <time>2024-03-13T14:51:34Z</time>
      </trkpt>
      <trkpt lat="44.43401" lon="1.62832">
        <ele>310</ele>
        <time>2024-03-13T14:51:35Z</time>
      </trkpt>
      <trkpt lat="44.43401" lon="1.62832">
        <ele>310</ele>
        <time>2024-03-13T14:51:36Z</time>
      </trkpt>
      <trkpt lat="44.43401" lon="1.62832">
        <ele>310</ele>
        <time>2024-03-13T14:51:37Z</time>
      </trkpt>
      <trkpt lat="44.43401" lon="1.62832">
        <ele>310</ele>
        <time>2024-03-13T14:51:38Z</time>
      </trkpt>
      <trkpt lat="44.43401" lon="1.62832">
        <ele>310</ele>
        <time>2024-03-13T14:51:39Z</time>
      </trkpt>
      <trkpt lat="44.43401" lon="1.62832">
        <ele>310</ele>
        <time>2024-03-13T14:51:40Z</time>
      </trkpt>
      <trkpt lat="44.43401" lon="1.62832">
        <ele>310</ele>
        <time>2024-03-13T14:51:41Z</time>
      </trkpt>
      <trkpt lat="44.43401" lon="1.62832">
        <ele>310</ele>
        <time>2024-03-13T14:51:42Z</time>
      </trkpt>
      <trkpt lat="44.43401" lon="1.62832">
        <ele>310</ele>
        <time>2024-03-13T14:51:43Z</time>
      </trkpt>
      <trkpt lat="44.43401" lon="1.62832">
        <ele>310</ele>
        <time>2024-03-13T14:51:44Z</time>
      </trkpt>
      <trkpt lat="44.43401" lon="1.62832">
        <ele>310</ele>
        <time>2024-03-13T14:51:45Z</time>
      </trkpt>
      <trkpt lat="44.43401" lon="1.62832">
        <ele>310</ele>
        <time>2024-03-13T14:51:46Z</time>
      </trkpt>
      <trkpt lat="44.43401" lon="1.62832">
        <ele>310</ele>
        <time>2024-03-13T14:51:47Z</time>
      </trkpt>
      <trkpt lat="44.43401" lon="1.62832">
        <ele>310</ele>
        <time>2024-03-13T14:51:48Z</time>
      </trkpt>
      <trkpt lat="44.43401" lon="1.62832">
        <ele>310</ele>
        <time>2024-03-13T14:51:49Z</time>
      </trkpt>
      <trkpt lat="44.43401" lon="1.62832">
        <ele>310</ele>
        <time>2024-03-13T14:51:50Z</time>
      </trkpt>
      <trkpt lat="44.43401" lon="1.62832">
        <ele>310</ele>
        <time>2024-03-13T14:51:51Z</time>
      </trkpt>
      <trkpt lat="44.43401" lon="1.62832">
        <ele>311</ele>
        <time>2024-03-13T14:51:52Z</time>
      </trkpt>
      <trkpt lat="44.434" lon="1.62832">
        <ele>311</ele>
        <time>2024-03-13T14:51:53Z</time>
      </trkpt>
      <trkpt lat="44.434" lon="1.62833">
        <ele>311</ele>
        <time>2024-03-13T14:51:54Z</time>
      </trkpt>
      <trkpt lat="44.434" lon="1.62832">
        <ele>311</ele>
        <time>2024-03-13T14:51:55Z</time>
      </trkpt>
      <trkpt lat="44.434" lon="1.62832">
        <ele>311</ele>
        <time>2024-03-13T14:51:56Z</time>
      </trkpt>
      <trkpt lat="44.434" lon="1.62832">
        <ele>311</ele>
        <time>2024-03-13T14:51:57Z</time>
      </trkpt>
      <trkpt lat="44.434" lon="1.62832">
        <ele>311</ele>
        <time>2024-03-13T14:51:58Z</time>
      </trkpt>
      <trkpt lat="44.434" lon="1.62832">
        <ele>311</ele>
        <time>2024-03-13T14:51:59Z</time>
      </trkpt>
      <trkpt lat="44.434" lon="1.62832">
        <ele>311</ele>
        <time>2024-03-13T14:52:00Z</time>
      </trkpt>
      <trkpt lat="44.434" lon="1.62832">
        <ele>311</ele>
        <time>2024-03-13T14:52:01Z</time>
      </trkpt>
      <trkpt lat="44.434" lon="1.62832">
        <ele>311</ele>
        <time>2024-03-13T14:52:02Z</time>
      </trkpt>
      <trkpt lat="44.434" lon="1.62832">
        <ele>311</ele>
        <time>2024-03-13T14:52:03Z</time>
      </trkpt>
      <trkpt lat="44.434" lon="1.62832">
        <ele>311</ele>
        <time>2024-03-13T14:52:04Z</time>
      </trkpt>
      <trkpt lat="44.434" lon="1.62832">
        <ele>311</ele>
        <time>2024-03-13T14:52:05Z</time>
      </trkpt>
      <trkpt lat="44.434" lon="1.62832">
        <ele>311</ele>
        <time>2024-03-13T14:52:06Z</time>
      </trkpt>
      <trkpt lat="44.434" lon="1.62832">
        <ele>311</ele>
        <time>2024-03-13T14:52:07Z</time>
      </trkpt>
      <trkpt lat="44.434" lon="1.62832">
        <ele>311</ele>
        <time>2024-03-13T14:52:08Z</time>
      </trkpt>
      <trkpt lat="44.43401" lon="1.62832">
        <ele>311</ele>
        <time>2024-03-13T14:52:09Z</time>
      </trkpt>
      <trkpt lat="44.43401" lon="1.62832">
        <ele>311</ele>
        <time>2024-03-13T14:52:10Z</time>
      </trkpt>
      <trkpt lat="44.434" lon="1.62832">
        <ele>311</ele>
        <time>2024-03-13T14:52:11Z</time>
      </trkpt>
      <trkpt lat="44.43399" lon="1.62831">
        <ele>311</ele>
        <time>2024-03-13T14:52:12Z</time>
      </trkpt>
      <trkpt lat="44.43398" lon="1.6283">
        <ele>311</ele>
        <time>2024-03-13T14:52:13Z</time>
      </trkpt>
      <trkpt lat="44.43398" lon="1.6283">
        <ele>311</ele>
        <time>2024-03-13T14:52:14Z</time>
      </trkpt>
      <trkpt lat="44.43397" lon="1.6283">
        <ele>311</ele>
        <time>2024-03-13T14:52:15Z</time>
      </trkpt>
      <trkpt lat="44.43397" lon="1.6283">
        <ele>311</ele>
        <time>2024-03-13T14:52:16Z</time>
      </trkpt>
      <trkpt lat="44.43397" lon="1.6283">
        <ele>311</ele>
        <time>2024-03-13T14:52:17Z</time>
      </trkpt>
      <trkpt lat="44.43397" lon="1.6283">
        <ele>311</ele>
        <time>2024-03-13T14:52:18Z</time>
      </trkpt>
      <trkpt lat="44.43397" lon="1.6283">
        <ele>311</ele>
        <time>2024-03-13T14:52:19Z</time>
      </trkpt>
      <trkpt lat="44.43397" lon="1.6283">
        <ele>311</ele>
        <time>2024-03-13T14:52:20Z</time>
      </trkpt>
      <trkpt lat="44.43397" lon="1.6283">
        <ele>311</ele>
        <time>2024-03-13T14:52:21Z</time>
      </trkpt>
      <trkpt lat="44.43397" lon="1.6283">
        <ele>311</ele>
        <time>2024-03-13T14:52:22Z</time>
      </trkpt>
      <trkpt lat="44.43397" lon="1.6283">
        <ele>311</ele>
        <time>2024-03-13T14:52:23Z</time>
      </trkpt>
      <trkpt lat="44.43397" lon="1.6283">
        <ele>311</ele>
        <time>2024-03-13T14:52:24Z</time>
      </trkpt>
      <trkpt lat="44.43397" lon="1.6283">
        <ele>311</ele>
        <time>2024-03-13T14:52:25Z</time>
      </trkpt>
      <trkpt lat="44.43397" lon="1.6283">
        <ele>311</ele>
        <time>2024-03-13T14:52:26Z</time>
      </trkpt>
      <trkpt lat="44.43397" lon="1.6283">
        <ele>311</ele>
        <time>2024-03-13T14:52:27Z</time>
      </trkpt>
      <trkpt lat="44.43397" lon="1.6283">
        <ele>311</ele>
        <time>2024-03-13T14:52:28Z</time>
      </trkpt>
      <trkpt lat="44.43397" lon="1.6283">
        <ele>311</ele>
        <time>2024-03-13T14:52:29Z</time>
      </trkpt>
      <trkpt lat="44.43397" lon="1.6283">
        <ele>311</ele>
        <time>2024-03-13T14:52:30Z</time>
      </trkpt>
      <trkpt lat="44.43397" lon="1.6283">
        <ele>311</ele>
        <time>2024-03-13T14:52:31Z</time>
      </trkpt>
      <trkpt lat="44.43397" lon="1.6283">
        <ele>311</ele>
        <time>2024-03-13T14:52:32Z</time>
      </trkpt>
      <trkpt lat="44.43397" lon="1.6283">
        <ele>311</ele>
        <time>2024-03-13T14:52:33Z</time>
      </trkpt>
      <trkpt lat="44.43397" lon="1.6283">
        <ele>311</ele>
        <time>2024-03-13T14:52:34Z</time>
      </trkpt>
      <trkpt lat="44.43397" lon="1.6283">
        <ele>311</ele>
        <time>2024-03-13T14:52:35Z</time>
      </trkpt>
      <trkpt lat="44.43397" lon="1.6283">
        <ele>311</ele>
        <time>2024-03-13T14:52:36Z</time>
      </trkpt>
      <trkpt lat="44.43397" lon="1.6283">
        <ele>311</ele>
        <time>2024-03-13T14:52:37Z</time>
      </trkpt>
      <trkpt lat="44.43398" lon="1.62829">
        <ele>312</ele>
        <time>2024-03-13T14:52:38Z</time>
      </trkpt>
      <trkpt lat="44.43398" lon="1.62829">
        <ele>312</ele>
        <time>2024-03-13T14:52:39Z</time>
      </trkpt>
      <trkpt lat="44.43398" lon="1.62829">
        <ele>312</ele>
        <time>2024-03-13T14:52:40Z</time>
      </trkpt>
      <trkpt lat="44.43398" lon="1.62829">
        <ele>312</ele>
        <time>2024-03-13T14:52:41Z</time>
      </trkpt>
      <trkpt lat="44.43398" lon="1.62829">
        <ele>312</ele>
        <time>2024-03-13T14:52:42Z</time>
      </trkpt>
      <trkpt lat="44.43398" lon="1.62829">
        <ele>312</ele>
        <time>2024-03-13T14:52:43Z</time>
      </trkpt>
      <trkpt lat="44.43398" lon="1.62829">
        <ele>312</ele>
        <time>2024-03-13T14:52:44Z</time>
      </trkpt>
      <trkpt lat="44.43398" lon="1.62829">
        <ele>312</ele>
        <time>2024-03-13T14:52:45Z</time>
      </trkpt>
      <trkpt lat="44.43398" lon="1.62829">
        <ele>312</ele>
        <time>2024-03-13T14:52:46Z</time>
      </trkpt>
      <trkpt lat="44.43398" lon="1.62829">
        <ele>312</ele>
        <time>2024-03-13T14:52:47Z</time>
      </trkpt>
      <trkpt lat="44.43398" lon="1.62829">
        <ele>312</ele>
        <time>2024-03-13T14:52:48Z</time>
      </trkpt>
      <trkpt lat="44.43398" lon="1.62829">
        <ele>312</ele>
        <time>2024-03-13T14:52:49Z</time>
      </trkpt>
      <trkpt lat="44.43398" lon="1.62829">
        <ele>312</ele>
        <time>2024-03-13T14:52:50Z</time>
      </trkpt>
      <trkpt lat="44.43398" lon="1.62829">
        <ele>312</ele>
        <time>2024-03-13T14:52:51Z</time>
      </trkpt>
      <trkpt lat="44.43398" lon="1.62829">
        <ele>312</ele>
        <time>2024-03-13T14:52:52Z</time>
      </trkpt>
      <trkpt lat="44.43398" lon="1.62829">
        <ele>312</ele>
        <time>2024-03-13T14:52:53Z</time>
      </trkpt>
      <trkpt lat="44.43398" lon="1.62829">
        <ele>312</ele>
        <time>2024-03-13T14:52:54Z</time>
      </trkpt>
      <trkpt lat="44.43398" lon="1.62829">
        <ele>312</ele>
        <time>2024-03-13T14:52:55Z</time>
      </trkpt>
      <trkpt lat="44.43398" lon="1.62829">
        <ele>312</ele>
        <time>2024-03-13T14:52:56Z</time>
      </trkpt>
      <trkpt lat="44.43398" lon="1.62829">
        <ele>312</ele>
        <time>2024-03-13T14:52:57Z</time>
      </trkpt>
      <trkpt lat="44.43398" lon="1.62829">
        <ele>312</ele>
        <time>2024-03-13T14:52:58Z</time>
      </trkpt>
      <trkpt lat="44.43398" lon="1.62829">
        <ele>312</ele>
        <time>2024-03-13T14:52:59Z</time>
      </trkpt>
      <trkpt lat="44.43398" lon="1.62829">
        <ele>312</ele>
        <time>2024-03-13T14:53:00Z</time>
      </trkpt>
      <trkpt lat="44.43399" lon="1.6283">
        <ele>314</ele>
        <time>2024-03-13T14:53:01Z</time>
      </trkpt>
      <trkpt lat="44.43399" lon="1.6283">
        <ele>314</ele>
        <time>2024-03-13T14:53:02Z</time>
      </trkpt>
      <trkpt lat="44.434" lon="1.62831">
        <ele>313</ele>
        <time>2024-03-13T14:53:03Z</time>
      </trkpt>
      <trkpt lat="44.43401" lon="1.62831">
        <ele>313</ele>
        <time>2024-03-13T14:53:04Z</time>
      </trkpt>
      <trkpt lat="44.43402" lon="1.62832">
        <ele>313</ele>
        <time>2024-03-13T14:53:05Z</time>
      </trkpt>
      <trkpt lat="44.43402" lon="1.62833">
        <ele>314</ele>
        <time>2024-03-13T14:53:06Z</time>
      </trkpt>
      <trkpt lat="44.43403" lon="1.62834">
        <ele>314</ele>
        <time>2024-03-13T14:53:07Z</time>
      </trkpt>
      <trkpt lat="44.43404" lon="1.62835">
        <ele>314</ele>
        <time>2024-03-13T14:53:08Z</time>
      </trkpt>
      <trkpt lat="44.43405" lon="1.62835">
        <ele>314</ele>
        <time>2024-03-13T14:53:09Z</time>
      </trkpt>
      <trkpt lat="44.43406" lon="1.62836">
        <ele>314</ele>
        <time>2024-03-13T14:53:10Z</time>
      </trkpt>
      <trkpt lat="44.43406" lon="1.62837">
        <ele>314</ele>
        <time>2024-03-13T14:53:11Z</time>
      </trkpt>
      <trkpt lat="44.43407" lon="1.62839">
        <ele>314</ele>
        <time>2024-03-13T14:53:12Z</time>
      </trkpt>
      <trkpt lat="44.43408" lon="1.6284">
        <ele>314</ele>
        <time>2024-03-13T14:53:13Z</time>
      </trkpt>
      <trkpt lat="44.43409" lon="1.62841">
        <ele>314</ele>
        <time>2024-03-13T14:53:14Z</time>
      </trkpt>
      <trkpt lat="44.4341" lon="1.62841">
        <ele>314</ele>
        <time>2024-03-13T14:53:15Z</time>
      </trkpt>
      <trkpt lat="44.43411" lon="1.62842">
        <ele>314</ele>
        <time>2024-03-13T14:53:16Z</time>
      </trkpt>
      <trkpt lat="44.43412" lon="1.62843">
        <ele>314</ele>
        <time>2024-03-13T14:53:17Z</time>
      </trkpt>
      <trkpt lat="44.43413" lon="1.62844">
        <ele>314</ele>
        <time>2024-03-13T14:53:18Z</time>
      </trkpt>
      <trkpt lat="44.43414" lon="1.62845">
        <ele>314</ele>
        <time>2024-03-13T14:53:19Z</time>
      </trkpt>
      <trkpt lat="44.43415" lon="1.62845">
        <ele>315</ele>
        <time>2024-03-13T14:53:20Z</time>
      </trkpt>
      <trkpt lat="44.43416" lon="1.62845">
        <ele>314</ele>
        <time>2024-03-13T14:53:21Z</time>
      </trkpt>
      <trkpt lat="44.43417" lon="1.62845">
        <ele>314</ele>
        <time>2024-03-13T14:53:22Z</time>
      </trkpt>
      <trkpt lat="44.43417" lon="1.62845">
        <ele>315</ele>
        <time>2024-03-13T14:53:23Z</time>
      </trkpt>
      <trkpt lat="44.43419" lon="1.62846">
        <ele>315</ele>
        <time>2024-03-13T14:53:24Z</time>
      </trkpt>
      <trkpt lat="44.43419" lon="1.62846">
        <ele>314</ele>
        <time>2024-03-13T14:53:25Z</time>
      </trkpt>
      <trkpt lat="44.4342" lon="1.62847">
        <ele>315</ele>
        <time>2024-03-13T14:53:26Z</time>
      </trkpt>
      <trkpt lat="44.43422" lon="1.62847">
        <ele>315</ele>
        <time>2024-03-13T14:53:27Z</time>
      </trkpt>
      <trkpt lat="44.43422" lon="1.62847">
        <ele>315</ele>
        <time>2024-03-13T14:53:28Z</time>
      </trkpt>
      <trkpt lat="44.43423" lon="1.62848">
        <ele>315</ele>
        <time>2024-03-13T14:53:29Z</time>
      </trkpt>
      <trkpt lat="44.43424" lon="1.62849">
        <ele>315</ele>
        <time>2024-03-13T14:53:30Z</time>
      </trkpt>
      <trkpt lat="44.43425" lon="1.6285">
        <ele>315</ele>
        <time>2024-03-13T14:53:31Z</time>
      </trkpt>
      <trkpt lat="44.43426" lon="1.62851">
        <ele>315</ele>
        <time>2024-03-13T14:53:32Z</time>
      </trkpt>
      <trkpt lat="44.43427" lon="1.62852">
        <ele>315</ele>
        <time>2024-03-13T14:53:33Z</time>
      </trkpt>
      <trkpt lat="44.43428" lon="1.62853">
        <ele>315</ele>
        <time>2024-03-13T14:53:34Z</time>
      </trkpt>
      <trkpt lat="44.43429" lon="1.62854">
        <ele>316</ele>
        <time>2024-03-13T14:53:35Z</time>
      </trkpt>
      <trkpt lat="44.43429" lon="1.62854">
        <ele>316</ele>
        <time>2024-03-13T14:53:36Z</time>
      </trkpt>
      <trkpt lat="44.4343" lon="1.62855">
        <ele>316</ele>
        <time>2024-03-13T14:53:37Z</time>
      </trkpt>
      <trkpt lat="44.43431" lon="1.62856">
        <ele>315</ele>
        <time>2024-03-13T14:53:38Z</time>
      </trkpt>
      <trkpt lat="44.43432" lon="1.62857">
        <ele>316</ele>
        <time>2024-03-13T14:53:39Z</time>
      </trkpt>
      <trkpt lat="44.43433" lon="1.62858">
        <ele>315</ele>
        <time>2024-03-13T14:53:40Z</time>
      </trkpt>
      <trkpt lat="44.43434" lon="1.62859">
        <ele>315</ele>
        <time>2024-03-13T14:53:41Z</time>
      </trkpt>
      <trkpt lat="44.43435" lon="1.6286">
        <ele>315</ele>
        <time>2024-03-13T14:53:42Z</time>
      </trkpt>
      <trkpt lat="44.43436" lon="1.62861">
        <ele>316</ele>
        <time>2024-03-13T14:53:43Z</time>
      </trkpt>
      <trkpt lat="44.43437" lon="1.62862">
        <ele>315</ele>
        <time>2024-03-13T14:53:44Z</time>
      </trkpt>
      <trkpt lat="44.43438" lon="1.62863">
        <ele>315</ele>
        <time>2024-03-13T14:53:45Z</time>
      </trkpt>
      <trkpt lat="44.43439" lon="1.62864">
        <ele>315</ele>
        <time>2024-03-13T14:53:46Z</time>
      </trkpt>
      <trkpt lat="44.43439" lon="1.62866">
        <ele>315</ele>
        <time>2024-03-13T14:53:47Z</time>
      </trkpt>
      <trkpt lat="44.4344" lon="1.62867">
        <ele>316</ele>
        <time>2024-03-13T14:53:48Z</time>
      </trkpt>
      <trkpt lat="44.43441" lon="1.62868">
        <ele>315</ele>
        <time>2024-03-13T14:53:49Z</time>
      </trkpt>
      <trkpt lat="44.43442" lon="1.62868">
        <ele>315</ele>
        <time>2024-03-13T14:53:50Z</time>
      </trkpt>
      <trkpt lat="44.43443" lon="1.62869">
        <ele>315</ele>
        <time>2024-03-13T14:53:51Z</time>
      </trkpt>
      <trkpt lat="44.43444" lon="1.6287">
        <ele>315</ele>
        <time>2024-03-13T14:53:52Z</time>
      </trkpt>
      <trkpt lat="44.43445" lon="1.62871">
        <ele>315</ele>
        <time>2024-03-13T14:53:53Z</time>
      </trkpt>
      <trkpt lat="44.43446" lon="1.62871">
        <ele>315</ele>
        <time>2024-03-13T14:53:54Z</time>
      </trkpt>
      <trkpt lat="44.43447" lon="1.62872">
        <ele>315</ele>
        <time>2024-03-13T14:53:55Z</time>
      </trkpt>
      <trkpt lat="44.43448" lon="1.62873">
        <ele>315</ele>
        <time>2024-03-13T14:53:56Z</time>
      </trkpt>
      <trkpt lat="44.43449" lon="1.62874">
        <ele>315</ele>
        <time>2024-03-13T14:53:57Z</time>
      </trkpt>
      <trkpt lat="44.43451" lon="1.62875">
        <ele>314</ele>
        <time>2024-03-13T14:53:58Z</time>
      </trkpt>
      <trkpt lat="44.43452" lon="1.62875">
        <ele>315</ele>
        <time>2024-03-13T14:53:59Z</time>
      </trkpt>
      <trkpt lat="44.43453" lon="1.62876">
        <ele>315</ele>
        <time>2024-03-13T14:54:00Z</time>
      </trkpt>
      <trkpt lat="44.43454" lon="1.62877">
        <ele>315</ele>
        <time>2024-03-13T14:54:01Z</time>
      </trkpt>
      <trkpt lat="44.43455" lon="1.62878">
        <ele>314</ele>
        <time>2024-03-13T14:54:02Z</time>
      </trkpt>
      <trkpt lat="44.43457" lon="1.62879">
        <ele>314</ele>
        <time>2024-03-13T14:54:03Z</time>
      </trkpt>
      <trkpt lat="44.43458" lon="1.6288">
        <ele>314</ele>
        <time>2024-03-13T14:54:04Z</time>
      </trkpt>
      <trkpt lat="44.43459" lon="1.62881">
        <ele>314</ele>
        <time>2024-03-13T14:54:05Z</time>
      </trkpt>
      <trkpt lat="44.4346" lon="1.62881">
        <ele>315</ele>
        <time>2024-03-13T14:54:06Z</time>
      </trkpt>
      <trkpt lat="44.4346" lon="1.62883">
        <ele>314</ele>
        <time>2024-03-13T14:54:07Z</time>
      </trkpt>
      <trkpt lat="44.43461" lon="1.62884">
        <ele>314</ele>
        <time>2024-03-13T14:54:08Z</time>
      </trkpt>
      <trkpt lat="44.43462" lon="1.62886">
        <ele>314</ele>
        <time>2024-03-13T14:54:09Z</time>
      </trkpt>
      <trkpt lat="44.43463" lon="1.62887">
        <ele>314</ele>
        <time>2024-03-13T14:54:10Z</time>
      </trkpt>
      <trkpt lat="44.43464" lon="1.62888">
        <ele>314</ele>
        <time>2024-03-13T14:54:11Z</time>
      </trkpt>
      <trkpt lat="44.43466" lon="1.62888">
        <ele>315</ele>
        <time>2024-03-13T14:54:12Z</time>
      </trkpt>
      <trkpt lat="44.43467" lon="1.62889">
        <ele>315</ele>
        <time>2024-03-13T14:54:13Z</time>
      </trkpt>
      <trkpt lat="44.43467" lon="1.6289">
        <ele>315</ele>
        <time>2024-03-13T14:54:14Z</time>
      </trkpt>
      <trkpt lat="44.43468" lon="1.62891">
        <ele>315</ele>
        <time>2024-03-13T14:54:15Z</time>
      </trkpt>
      <trkpt lat="44.4347" lon="1.62892">
        <ele>316</ele>
        <time>2024-03-13T14:54:16Z</time>
      </trkpt>
      <trkpt lat="44.4347" lon="1.62893">
        <ele>315</ele>
        <time>2024-03-13T14:54:17Z</time>
      </trkpt>
      <trkpt lat="44.43471" lon="1.62894">
        <ele>316</ele>
        <time>2024-03-13T14:54:18Z</time>
      </trkpt>
      <trkpt lat="44.43472" lon="1.62895">
        <ele>315</ele>
        <time>2024-03-13T14:54:19Z</time>
      </trkpt>
      <trkpt lat="44.43473" lon="1.62896">
        <ele>315</ele>
        <time>2024-03-13T14:54:20Z</time>
      </trkpt>
      <trkpt lat="44.43475" lon="1.62897">
        <ele>315</ele>
        <time>2024-03-13T14:54:21Z</time>
      </trkpt>
      <trkpt lat="44.43475" lon="1.62898">
        <ele>315</ele>
        <time>2024-03-13T14:54:22Z</time>
      </trkpt>
      <trkpt lat="44.43476" lon="1.629">
        <ele>315</ele>
        <time>2024-03-13T14:54:23Z</time>
      </trkpt>
      <trkpt lat="44.43478" lon="1.62901">
        <ele>315</ele>
        <time>2024-03-13T14:54:24Z</time>
      </trkpt>
      <trkpt lat="44.43479" lon="1.62902">
        <ele>315</ele>
        <time>2024-03-13T14:54:25Z</time>
      </trkpt>
      <trkpt lat="44.4348" lon="1.62903">
        <ele>315</ele>
        <time>2024-03-13T14:54:26Z</time>
      </trkpt>
      <trkpt lat="44.43481" lon="1.62905">
        <ele>315</ele>
        <time>2024-03-13T14:54:27Z</time>
      </trkpt>
      <trkpt lat="44.43482" lon="1.62906">
        <ele>315</ele>
        <time>2024-03-13T14:54:28Z</time>
      </trkpt>
      <trkpt lat="44.43483" lon="1.62907">
        <ele>315</ele>
        <time>2024-03-13T14:54:29Z</time>
      </trkpt>
      <trkpt lat="44.43484" lon="1.62909">
        <ele>315</ele>
        <time>2024-03-13T14:54:30Z</time>
      </trkpt>
      <trkpt lat="44.43485" lon="1.62911">
        <ele>315</ele>
        <time>2024-03-13T14:54:31Z</time>
      </trkpt>
      <trkpt lat="44.43486" lon="1.62912">
        <ele>315</ele>
        <time>2024-03-13T14:54:32Z</time>
      </trkpt>
      <trkpt lat="44.43487" lon="1.62914">
        <ele>315</ele>
        <time>2024-03-13T14:54:33Z</time>
      </trkpt>
      <trkpt lat="44.43488" lon="1.62915">
        <ele>316</ele>
        <time>2024-03-13T14:54:34Z</time>
      </trkpt>
      <trkpt lat="44.43489" lon="1.62916">
        <ele>316</ele>
        <time>2024-03-13T14:54:35Z</time>
      </trkpt>
      <trkpt lat="44.4349" lon="1.62918">
        <ele>316</ele>
        <time>2024-03-13T14:54:36Z</time>
      </trkpt>
      <trkpt lat="44.43491" lon="1.62919">
        <ele>316</ele>
        <time>2024-03-13T14:54:37Z</time>
      </trkpt>
      <trkpt lat="44.43492" lon="1.62921">
        <ele>316</ele>
        <time>2024-03-13T14:54:38Z</time>
      </trkpt>
      <trkpt lat="44.43493" lon="1.62922">
        <ele>316</ele>
        <time>2024-03-13T14:54:39Z</time>
      </trkpt>
      <trkpt lat="44.43493" lon="1.62923">
        <ele>316</ele>
        <time>2024-03-13T14:54:40Z</time>
      </trkpt>
      <trkpt lat="44.43494" lon="1.62925">
        <ele>317</ele>
        <time>2024-03-13T14:54:41Z</time>
      </trkpt>
      <trkpt lat="44.43495" lon="1.62927">
        <ele>317</ele>
        <time>2024-03-13T14:54:42Z</time>
      </trkpt>
      <trkpt lat="44.43496" lon="1.62928">
        <ele>317</ele>
        <time>2024-03-13T14:54:43Z</time>
      </trkpt>
      <trkpt lat="44.43496" lon="1.62929">
        <ele>317</ele>
        <time>2024-03-13T14:54:44Z</time>
      </trkpt>
      <trkpt lat="44.43497" lon="1.62931">
        <ele>317</ele>
        <time>2024-03-13T14:54:45Z</time>
      </trkpt>
      <trkpt lat="44.43497" lon="1.62932">
        <ele>317</ele>
        <time>2024-03-13T14:54:46Z</time>
      </trkpt>
      <trkpt lat="44.43497" lon="1.62934">
        <ele>316</ele>
        <time>2024-03-13T14:54:47Z</time>
      </trkpt>
      <trkpt lat="44.43497" lon="1.62935">
        <ele>316</ele>
        <time>2024-03-13T14:54:48Z</time>
      </trkpt>
      <trkpt lat="44.43499" lon="1.62937">
        <ele>316</ele>
        <time>2024-03-13T14:54:49Z</time>
      </trkpt>
      <trkpt lat="44.43499" lon="1.62938">
        <ele>316</ele>
        <time>2024-03-13T14:54:50Z</time>
      </trkpt>
      <trkpt lat="44.43499" lon="1.6294">
        <ele>316</ele>
        <time>2024-03-13T14:54:51Z</time>
      </trkpt>
      <trkpt lat="44.435" lon="1.62942">
        <ele>316</ele>
        <time>2024-03-13T14:54:52Z</time>
      </trkpt>
      <trkpt lat="44.43501" lon="1.62944">
        <ele>316</ele>
        <time>2024-03-13T14:54:53Z</time>
      </trkpt>
      <trkpt lat="44.43501" lon="1.62945">
        <ele>316</ele>
        <time>2024-03-13T14:54:54Z</time>
      </trkpt>
      <trkpt lat="44.43502" lon="1.62946">
        <ele>316</ele>
        <time>2024-03-13T14:54:55Z</time>
      </trkpt>
      <trkpt lat="44.43502" lon="1.62948">
        <ele>317</ele>
        <time>2024-03-13T14:54:56Z</time>
      </trkpt>
      <trkpt lat="44.43503" lon="1.62949">
        <ele>317</ele>
        <time>2024-03-13T14:54:57Z</time>
      </trkpt>
      <trkpt lat="44.43504" lon="1.62951">
        <ele>316</ele>
        <time>2024-03-13T14:54:58Z</time>
      </trkpt>
      <trkpt lat="44.43504" lon="1.62952">
        <ele>317</ele>
        <time>2024-03-13T14:54:59Z</time>
      </trkpt>
      <trkpt lat="44.43505" lon="1.62954">
        <ele>317</ele>
        <time>2024-03-13T14:55:00Z</time>
      </trkpt>
      <trkpt lat="44.43505" lon="1.62956">
        <ele>317</ele>
        <time>2024-03-13T14:55:01Z</time>
      </trkpt>
      <trkpt lat="44.43505" lon="1.62957">
        <ele>317</ele>
        <time>2024-03-13T14:55:02Z</time>
      </trkpt>
      <trkpt lat="44.43505" lon="1.62959">
        <ele>317</ele>
        <time>2024-03-13T14:55:03Z</time>
      </trkpt>
      <trkpt lat="44.43505" lon="1.6296">
        <ele>316</ele>
        <time>2024-03-13T14:55:04Z</time>
      </trkpt>
      <trkpt lat="44.43505" lon="1.62962">
        <ele>316</ele>
        <time>2024-03-13T14:55:05Z</time>
      </trkpt>
      <trkpt lat="44.43505" lon="1.62963">
        <ele>316</ele>
        <time>2024-03-13T14:55:06Z</time>
      </trkpt>
      <trkpt lat="44.43505" lon="1.62965">
        <ele>316</ele>
        <time>2024-03-13T14:55:07Z</time>
      </trkpt>
      <trkpt lat="44.43505" lon="1.62966">
        <ele>316</ele>
        <time>2024-03-13T14:55:08Z</time>
      </trkpt>
      <trkpt lat="44.43506" lon="1.62968">
        <ele>317</ele>
        <time>2024-03-13T14:55:09Z</time>
      </trkpt>
      <trkpt lat="44.43505" lon="1.6297">
        <ele>317</ele>
        <time>2024-03-13T14:55:10Z</time>
      </trkpt>
      <trkpt lat="44.43505" lon="1.62971">
        <ele>317</ele>
        <time>2024-03-13T14:55:11Z</time>
      </trkpt>
      <trkpt lat="44.43505" lon="1.62973">
        <ele>317</ele>
        <time>2024-03-13T14:55:12Z</time>
      </trkpt>
      <trkpt lat="44.43505" lon="1.62974">
        <ele>317</ele>
        <time>2024-03-13T14:55:13Z</time>
      </trkpt>
      <trkpt lat="44.43505" lon="1.62976">
        <ele>317</ele>
        <time>2024-03-13T14:55:14Z</time>
      </trkpt>
      <trkpt lat="44.43505" lon="1.62977">
        <ele>317</ele>
        <time>2024-03-13T14:55:15Z</time>
      </trkpt>
      <trkpt lat="44.43505" lon="1.62979">
        <ele>318</ele>
        <time>2024-03-13T14:55:16Z</time>
      </trkpt>
      <trkpt lat="44.43505" lon="1.6298">
        <ele>318</ele>
        <time>2024-03-13T14:55:17Z</time>
      </trkpt>
      <trkpt lat="44.43505" lon="1.62981">
        <ele>318</ele>
        <time>2024-03-13T14:55:18Z</time>
      </trkpt>
      <trkpt lat="44.43505" lon="1.62983">
        <ele>318</ele>
        <time>2024-03-13T14:55:19Z</time>
      </trkpt>
      <trkpt lat="44.43505" lon="1.62984">
        <ele>318</ele>
        <time>2024-03-13T14:55:20Z</time>
      </trkpt>
      <trkpt lat="44.43505" lon="1.62986">
        <ele>319</ele>
        <time>2024-03-13T14:55:21Z</time>
      </trkpt>
      <trkpt lat="44.43505" lon="1.62987">
        <ele>319</ele>
        <time>2024-03-13T14:55:22Z</time>
      </trkpt>
      <trkpt lat="44.43505" lon="1.62989">
        <ele>319</ele>
        <time>2024-03-13T14:55:23Z</time>
      </trkpt>
      <trkpt lat="44.43505" lon="1.6299">
        <ele>319</ele>
        <time>2024-03-13T14:55:24Z</time>
      </trkpt>
      <trkpt lat="44.43504" lon="1.62991">
        <ele>319</ele>
        <time>2024-03-13T14:55:25Z</time>
      </trkpt>
      <trkpt lat="44.43504" lon="1.62993">
        <ele>319</ele>
        <time>2024-03-13T14:55:26Z</time>
      </trkpt>
      <trkpt lat="44.43503" lon="1.62994">
        <ele>319</ele>
        <time>2024-03-13T14:55:27Z</time>
      </trkpt>
      <trkpt lat="44.43503" lon="1.62995">
        <ele>320</ele>
        <time>2024-03-13T14:55:28Z</time>
      </trkpt>
      <trkpt lat="44.43503" lon="1.62997">
        <ele>320</ele>
        <time>2024-03-13T14:55:29Z</time>
      </trkpt>
      <trkpt lat="44.43502" lon="1.62999">
        <ele>320</ele>
        <time>2024-03-13T14:55:30Z</time>
      </trkpt>
      <trkpt lat="44.43502" lon="1.62999">
        <ele>320</ele>
        <time>2024-03-13T14:55:31Z</time>
      </trkpt>
      <trkpt lat="44.43502" lon="1.63001">
        <ele>320</ele>
        <time>2024-03-13T14:55:32Z</time>
      </trkpt>
      <trkpt lat="44.43502" lon="1.63002">
        <ele>320</ele>
        <time>2024-03-13T14:55:33Z</time>
      </trkpt>
      <trkpt lat="44.43501" lon="1.63004">
        <ele>320</ele>
        <time>2024-03-13T14:55:34Z</time>
      </trkpt>
      <trkpt lat="44.43501" lon="1.63005">
        <ele>320</ele>
        <time>2024-03-13T14:55:35Z</time>
      </trkpt>
      <trkpt lat="44.43501" lon="1.63006">
        <ele>321</ele>
        <time>2024-03-13T14:55:36Z</time>
      </trkpt>
      <trkpt lat="44.435" lon="1.63008">
        <ele>321</ele>
        <time>2024-03-13T14:55:37Z</time>
      </trkpt>
      <trkpt lat="44.435" lon="1.63009">
        <ele>321</ele>
        <time>2024-03-13T14:55:38Z</time>
      </trkpt>
      <trkpt lat="44.43499" lon="1.63011">
        <ele>321</ele>
        <time>2024-03-13T14:55:39Z</time>
      </trkpt>
      <trkpt lat="44.43499" lon="1.63013">
        <ele>321</ele>
        <time>2024-03-13T14:55:40Z</time>
      </trkpt>
      <trkpt lat="44.43499" lon="1.63014">
        <ele>321</ele>
        <time>2024-03-13T14:55:41Z</time>
      </trkpt>
      <trkpt lat="44.43499" lon="1.63015">
        <ele>321</ele>
        <time>2024-03-13T14:55:42Z</time>
      </trkpt>
      <trkpt lat="44.43499" lon="1.63017">
        <ele>321</ele>
        <time>2024-03-13T14:55:43Z</time>
      </trkpt>
      <trkpt lat="44.43499" lon="1.63018">
        <ele>321</ele>
        <time>2024-03-13T14:55:44Z</time>
      </trkpt>
      <trkpt lat="44.43499" lon="1.63019">
        <ele>321</ele>
        <time>2024-03-13T14:55:45Z</time>
      </trkpt>
      <trkpt lat="44.43499" lon="1.63019">
        <ele>321</ele>
        <time>2024-03-13T14:55:46Z</time>
      </trkpt>
      <trkpt lat="44.43499" lon="1.63019">
        <ele>321</ele>
        <time>2024-03-13T14:55:47Z</time>
      </trkpt>
      <trkpt lat="44.43499" lon="1.63019">
        <ele>321</ele>
        <time>2024-03-13T14:55:48Z</time>
      </trkpt>
      <trkpt lat="44.43498" lon="1.6302">
        <ele>322</ele>
        <time>2024-03-13T14:55:49Z</time>
      </trkpt>
      <trkpt lat="44.43497" lon="1.63022">
        <ele>322</ele>
        <time>2024-03-13T14:55:50Z</time>
      </trkpt>
      <trkpt lat="44.43497" lon="1.63023">
        <ele>322</ele>
        <time>2024-03-13T14:55:51Z</time>
      </trkpt>
      <trkpt lat="44.43496" lon="1.63024">
        <ele>322</ele>
        <time>2024-03-13T14:55:52Z</time>
      </trkpt>
      <trkpt lat="44.43496" lon="1.63025">
        <ele>322</ele>
        <time>2024-03-13T14:55:53Z</time>
      </trkpt>
      <trkpt lat="44.43495" lon="1.63026">
        <ele>323</ele>
        <time>2024-03-13T14:55:54Z</time>
      </trkpt>
      <trkpt lat="44.43495" lon="1.63028">
        <ele>323</ele>
        <time>2024-03-13T14:55:55Z</time>
      </trkpt>
      <trkpt lat="44.43495" lon="1.63029">
        <ele>323</ele>
        <time>2024-03-13T14:55:56Z</time>
      </trkpt>
      <trkpt lat="44.43494" lon="1.6303">
        <ele>323</ele>
        <time>2024-03-13T14:55:57Z</time>
      </trkpt>
      <trkpt lat="44.43494" lon="1.63032">
        <ele>324</ele>
        <time>2024-03-13T14:55:58Z</time>
      </trkpt>
      <trkpt lat="44.43494" lon="1.63034">
        <ele>323</ele>
        <time>2024-03-13T14:55:59Z</time>
      </trkpt>
      <trkpt lat="44.43494" lon="1.63035">
        <ele>324</ele>
        <time>2024-03-13T14:56:00Z</time>
      </trkpt>
      <trkpt lat="44.43493" lon="1.63037">
        <ele>324</ele>
        <time>2024-03-13T14:56:01Z</time>
      </trkpt>
      <trkpt lat="44.43493" lon="1.63038">
        <ele>324</ele>
        <time>2024-03-13T14:56:02Z</time>
      </trkpt>
      <trkpt lat="44.43493" lon="1.63039">
        <ele>324</ele>
        <time>2024-03-13T14:56:03Z</time>
      </trkpt>
      <trkpt lat="44.43493" lon="1.63041">
        <ele>324</ele>
        <time>2024-03-13T14:56:04Z</time>
      </trkpt>
      <trkpt lat="44.43492" lon="1.63043">
        <ele>324</ele>
        <time>2024-03-13T14:56:05Z</time>
      </trkpt>
      <trkpt lat="44.43492" lon="1.63044">
        <ele>324</ele>
        <time>2024-03-13T14:56:06Z</time>
      </trkpt>
      <trkpt lat="44.43492" lon="1.63045">
        <ele>324</ele>
        <time>2024-03-13T14:56:07Z</time>
      </trkpt>
      <trkpt lat="44.43491" lon="1.63046">
        <ele>324</ele>
        <time>2024-03-13T14:56:08Z</time>
      </trkpt>
      <trkpt lat="44.43491" lon="1.63047">
        <ele>324</ele>
        <time>2024-03-13T14:56:09Z</time>
      </trkpt>
      <trkpt lat="44.43491" lon="1.63048">
        <ele>324</ele>
        <time>2024-03-13T14:56:10Z</time>
      </trkpt>
      <trkpt lat="44.4349" lon="1.63049">
        <ele>324</ele>
        <time>2024-03-13T14:56:11Z</time>
      </trkpt>
      <trkpt lat="44.4349" lon="1.63051">
        <ele>324</ele>
        <time>2024-03-13T14:56:12Z</time>
      </trkpt>
      <trkpt lat="44.43489" lon="1.63052">
        <ele>324</ele>
        <time>2024-03-13T14:56:13Z</time>
      </trkpt>
      <trkpt lat="44.43489" lon="1.63053">
        <ele>323</ele>
        <time>2024-03-13T14:56:14Z</time>
      </trkpt>
      <trkpt lat="44.43488" lon="1.63055">
        <ele>323</ele>
        <time>2024-03-13T14:56:15Z</time>
      </trkpt>
      <trkpt lat="44.43488" lon="1.63056">
        <ele>323</ele>
        <time>2024-03-13T14:56:16Z</time>
      </trkpt>
      <trkpt lat="44.43487" lon="1.63057">
        <ele>323</ele>
        <time>2024-03-13T14:56:17Z</time>
      </trkpt>
      <trkpt lat="44.43486" lon="1.63058">
        <ele>323</ele>
        <time>2024-03-13T14:56:18Z</time>
      </trkpt>
      <trkpt lat="44.43485" lon="1.63059">
        <ele>323</ele>
        <time>2024-03-13T14:56:19Z</time>
      </trkpt>
      <trkpt lat="44.43484" lon="1.63061">
        <ele>323</ele>
        <time>2024-03-13T14:56:20Z</time>
      </trkpt>
      <trkpt lat="44.43484" lon="1.63062">
        <ele>324</ele>
        <time>2024-03-13T14:56:21Z</time>
      </trkpt>
      <trkpt lat="44.43483" lon="1.63063">
        <ele>324</ele>
        <time>2024-03-13T14:56:22Z</time>
      </trkpt>
      <trkpt lat="44.43482" lon="1.63065">
        <ele>323</ele>
        <time>2024-03-13T14:56:23Z</time>
      </trkpt>
      <trkpt lat="44.43482" lon="1.63066">
        <ele>323</ele>
        <time>2024-03-13T14:56:24Z</time>
      </trkpt>
      <trkpt lat="44.43481" lon="1.63068">
        <ele>322</ele>
        <time>2024-03-13T14:56:25Z</time>
      </trkpt>
      <trkpt lat="44.43481" lon="1.6307">
        <ele>322</ele>
        <time>2024-03-13T14:56:26Z</time>
      </trkpt>
      <trkpt lat="44.43482" lon="1.63073">
        <ele>322</ele>
        <time>2024-03-13T14:56:27Z</time>
      </trkpt>
      <trkpt lat="44.43481" lon="1.63074">
        <ele>321</ele>
        <time>2024-03-13T14:56:28Z</time>
      </trkpt>
      <trkpt lat="44.43482" lon="1.63076">
        <ele>321</ele>
        <time>2024-03-13T14:56:29Z</time>
      </trkpt>
      <trkpt lat="44.43482" lon="1.63078">
        <ele>321</ele>
        <time>2024-03-13T14:56:30Z</time>
      </trkpt>
      <trkpt lat="44.43482" lon="1.63079">
        <ele>321</ele>
        <time>2024-03-13T14:56:31Z</time>
      </trkpt>
      <trkpt lat="44.43482" lon="1.63081">
        <ele>321</ele>
        <time>2024-03-13T14:56:32Z</time>
      </trkpt>
      <trkpt lat="44.43483" lon="1.63082">
        <ele>321</ele>
        <time>2024-03-13T14:56:33Z</time>
      </trkpt>
      <trkpt lat="44.43484" lon="1.63084">
        <ele>321</ele>
        <time>2024-03-13T14:56:34Z</time>
      </trkpt>
      <trkpt lat="44.43484" lon="1.63085">
        <ele>321</ele>
        <time>2024-03-13T14:56:35Z</time>
      </trkpt>
      <trkpt lat="44.43485" lon="1.63086">
        <ele>321</ele>
        <time>2024-03-13T14:56:36Z</time>
      </trkpt>
      <trkpt lat="44.43485" lon="1.63087">
        <ele>321</ele>
        <time>2024-03-13T14:56:37Z</time>
      </trkpt>
      <trkpt lat="44.43486" lon="1.63087">
        <ele>321</ele>
        <time>2024-03-13T14:56:38Z</time>
      </trkpt>
      <trkpt lat="44.43486" lon="1.63087">
        <ele>321</ele>
        <time>2024-03-13T14:56:39Z</time>
      </trkpt>
      <trkpt lat="44.43486" lon="1.63087">
        <ele>320</ele>
        <time>2024-03-13T14:56:40Z</time>
      </trkpt>
      <trkpt lat="44.43486" lon="1.63087">
        <ele>320</ele>
        <time>2024-03-13T14:56:41Z</time>
      </trkpt>
      <trkpt lat="44.43486" lon="1.63087">
        <ele>320</ele>
        <time>2024-03-13T14:56:42Z</time>
      </trkpt>
      <trkpt lat="44.43486" lon="1.63089">
        <ele>321</ele>
        <time>2024-03-13T14:56:43Z</time>
      </trkpt>
      <trkpt lat="44.43486" lon="1.63089">
        <ele>321</ele>
        <time>2024-03-13T14:56:44Z</time>
      </trkpt>
      <trkpt lat="44.43486" lon="1.63089">
        <ele>321</ele>
        <time>2024-03-13T14:56:45Z</time>
      </trkpt>
      <trkpt lat="44.43486" lon="1.63089">
        <ele>320</ele>
        <time>2024-03-13T14:56:46Z</time>
      </trkpt>
      <trkpt lat="44.43486" lon="1.63089">
        <ele>320</ele>
        <time>2024-03-13T14:56:47Z</time>
      </trkpt>
      <trkpt lat="44.43486" lon="1.63089">
        <ele>320</ele>
        <time>2024-03-13T14:56:48Z</time>
      </trkpt>
      <trkpt lat="44.43486" lon="1.63089">
        <ele>320</ele>
        <time>2024-03-13T14:56:49Z</time>
      </trkpt>
      <trkpt lat="44.43486" lon="1.63089">
        <ele>320</ele>
        <time>2024-03-13T14:56:50Z</time>
      </trkpt>
      <trkpt lat="44.43486" lon="1.63089">
        <ele>320</ele>
        <time>2024-03-13T14:56:51Z</time>
      </trkpt>
      <trkpt lat="44.43486" lon="1.63089">
        <ele>320</ele>
        <time>2024-03-13T14:56:52Z</time>
      </trkpt>
      <trkpt lat="44.43486" lon="1.63089">
        <ele>320</ele>
        <time>2024-03-13T14:56:53Z</time>
      </trkpt>
      <trkpt lat="44.43486" lon="1.63089">
        <ele>320</ele>
        <time>2024-03-13T14:56:54Z</time>
      </trkpt>
      <trkpt lat="44.43486" lon="1.63089">
        <ele>320</ele>
        <time>2024-03-13T14:56:55Z</time>
      </trkpt>
      <trkpt lat="44.43486" lon="1.63089">
        <ele>320</ele>
        <time>2024-03-13T14:56:56Z</time>
      </trkpt>
      <trkpt lat="44.43486" lon="1.63089">
        <ele>320</ele>
        <time>2024-03-13T14:56:57Z</time>
      </trkpt>
      <trkpt lat="44.43486" lon="1.63089">
        <ele>320</ele>
        <time>2024-03-13T14:56:58Z</time>
      </trkpt>
      <trkpt lat="44.43486" lon="1.63089">
        <ele>320</ele>
        <time>2024-03-13T14:56:59Z</time>
      </trkpt>
      <trkpt lat="44.43486" lon="1.63089">
        <ele>320</ele>
        <time>2024-03-13T14:57:00Z</time>
      </trkpt>
      <trkpt lat="44.43486" lon="1.63089">
        <ele>320</ele>
        <time>2024-03-13T14:57:01Z</time>
      </trkpt>
      <trkpt lat="44.43486" lon="1.63089">
        <ele>320</ele>
        <time>2024-03-13T14:57:02Z</time>
      </trkpt>
      <trkpt lat="44.43486" lon="1.63089">
        <ele>320</ele>
        <time>2024-03-13T14:57:03Z</time>
      </trkpt>
      <trkpt lat="44.43486" lon="1.63089">
        <ele>320</ele>
        <time>2024-03-13T14:57:04Z</time>
      </trkpt>
      <trkpt lat="44.43486" lon="1.63089">
        <ele>320</ele>
        <time>2024-03-13T14:57:05Z</time>
      </trkpt>
      <trkpt lat="44.43486" lon="1.63089">
        <ele>320</ele>
        <time>2024-03-13T14:57:06Z</time>
      </trkpt>
      <trkpt lat="44.43486" lon="1.63089">
        <ele>320</ele>
        <time>2024-03-13T14:57:07Z</time>
      </trkpt>
      <trkpt lat="44.43486" lon="1.63089">
        <ele>320</ele>
        <time>2024-03-13T14:57:08Z</time>
      </trkpt>
      <trkpt lat="44.43486" lon="1.63089">
        <ele>320</ele>
        <time>2024-03-13T14:57:09Z</time>
      </trkpt>
      <trkpt lat="44.43486" lon="1.63089">
        <ele>320</ele>
        <time>2024-03-13T14:57:10Z</time>
      </trkpt>
      <trkpt lat="44.43486" lon="1.63089">
        <ele>320</ele>
        <time>2024-03-13T14:57:11Z</time>
      </trkpt>
      <trkpt lat="44.43486" lon="1.63089">
        <ele>320</ele>
        <time>2024-03-13T14:57:12Z</time>
      </trkpt>
      <trkpt lat="44.43486" lon="1.63089">
        <ele>320</ele>
        <time>2024-03-13T14:57:13Z</time>
      </trkpt>
      <trkpt lat="44.43486" lon="1.63089">
        <ele>320</ele>
        <time>2024-03-13T14:57:14Z</time>
      </trkpt>
      <trkpt lat="44.43486" lon="1.63089">
        <ele>320</ele>
        <time>2024-03-13T14:57:15Z</time>
      </trkpt>
      <trkpt lat="44.43486" lon="1.63089">
        <ele>320</ele>
        <time>2024-03-13T14:57:16Z</time>
      </trkpt>
      <trkpt lat="44.43486" lon="1.63089">
        <ele>320</ele>
        <time>2024-03-13T14:57:17Z</time>
      </trkpt>
      <trkpt lat="44.43486" lon="1.63089">
        <ele>320</ele>
        <time>2024-03-13T14:57:18Z</time>
      </trkpt>
      <trkpt lat="44.43486" lon="1.63089">
        <ele>320</ele>
        <time>2024-03-13T14:57:19Z</time>
      </trkpt>
      <trkpt lat="44.43486" lon="1.63089">
        <ele>320</ele>
        <time>2024-03-13T14:57:20Z</time>
      </trkpt>
      <trkpt lat="44.43486" lon="1.63089">
        <ele>320</ele>
        <time>2024-03-13T14:57:21Z</time>
      </trkpt>
      <trkpt lat="44.43486" lon="1.63089">
        <ele>320</ele>
        <time>2024-03-13T14:57:22Z</time>
      </trkpt>
      <trkpt lat="44.43486" lon="1.63089">
        <ele>320</ele>
        <time>2024-03-13T14:57:23Z</time>
      </trkpt>
      <trkpt lat="44.43486" lon="1.63089">
        <ele>320</ele>
        <time>2024-03-13T14:57:24Z</time>
      </trkpt>
      <trkpt lat="44.43486" lon="1.63089">
        <ele>320</ele>
        <time>2024-03-13T14:57:25Z</time>
      </trkpt>
      <trkpt lat="44.43486" lon="1.63089">
        <ele>320</ele>
        <time>2024-03-13T14:57:26Z</time>
      </trkpt>
      <trkpt lat="44.43486" lon="1.63089">
        <ele>320</ele>
        <time>2024-03-13T14:57:27Z</time>
      </trkpt>
      <trkpt lat="44.43486" lon="1.63089">
        <ele>320</ele>
        <time>2024-03-13T14:57:28Z</time>
      </trkpt>
      <trkpt lat="44.43486" lon="1.63089">
        <ele>320</ele>
        <time>2024-03-13T14:57:29Z</time>
      </trkpt>
      <trkpt lat="44.43486" lon="1.63089">
        <ele>320</ele>
        <time>2024-03-13T14:57:31Z</time>
      </trkpt>
      <trkpt lat="44.43486" lon="1.63091">
        <ele>321</ele>
        <time>2024-03-13T14:57:32Z</time>
      </trkpt>
      <trkpt lat="44.43485" lon="1.63092">
        <ele>322</ele>
        <time>2024-03-13T14:57:34Z</time>
      </trkpt>
      <trkpt lat="44.43486" lon="1.63092">
        <ele>322</ele>
        <time>2024-03-13T14:57:35Z</time>
      </trkpt>
      <trkpt lat="44.43486" lon="1.63093">
        <ele>322</ele>
        <time>2024-03-13T14:57:36Z</time>
      </trkpt>
      <trkpt lat="44.43486" lon="1.63093">
        <ele>322</ele>
        <time>2024-03-13T14:57:37Z</time>
      </trkpt>
      <trkpt lat="44.43486" lon="1.63093">
        <ele>322</ele>
        <time>2024-03-13T14:57:38Z</time>
      </trkpt>
      <trkpt lat="44.43486" lon="1.63093">
        <ele>322</ele>
        <time>2024-03-13T14:57:39Z</time>
      </trkpt>
      <trkpt lat="44.43486" lon="1.63093">
        <ele>322</ele>
        <time>2024-03-13T14:57:40Z</time>
      </trkpt>
      <trkpt lat="44.43486" lon="1.63093">
        <ele>322</ele>
        <time>2024-03-13T14:57:41Z</time>
      </trkpt>
      <trkpt lat="44.43486" lon="1.63093">
        <ele>322</ele>
        <time>2024-03-13T14:57:42Z</time>
      </trkpt>
      <trkpt lat="44.43486" lon="1.63093">
        <ele>322</ele>
        <time>2024-03-13T14:57:44Z</time>
      </trkpt>
      <trkpt lat="44.43486" lon="1.63093">
        <ele>322</ele>
        <time>2024-03-13T14:57:45Z</time>
      </trkpt>
      <trkpt lat="44.43486" lon="1.63093">
        <ele>322</ele>
        <time>2024-03-13T14:57:47Z</time>
      </trkpt>
      <trkpt lat="44.43486" lon="1.63093">
        <ele>322</ele>
        <time>2024-03-13T14:57:48Z</time>
      </trkpt>
      <trkpt lat="44.43486" lon="1.63093">
        <ele>322</ele>
        <time>2024-03-13T14:57:49Z</time>
      </trkpt>
      <trkpt lat="44.43486" lon="1.63093">
        <ele>322</ele>
        <time>2024-03-13T14:57:50Z</time>
      </trkpt>
      <trkpt lat="44.43486" lon="1.63093">
        <ele>322</ele>
        <time>2024-03-13T14:57:51Z</time>
      </trkpt>
      <trkpt lat="44.43486" lon="1.63093">
        <ele>322</ele>
        <time>2024-03-13T14:57:52Z</time>
      </trkpt>
      <trkpt lat="44.43486" lon="1.63093">
        <ele>322</ele>
        <time>2024-03-13T14:57:53Z</time>
      </trkpt>
      <trkpt lat="44.43486" lon="1.63093">
        <ele>322</ele>
        <time>2024-03-13T14:57:55Z</time>
      </trkpt>
      <trkpt lat="44.43486" lon="1.63093">
        <ele>322</ele>
        <time>2024-03-13T14:57:56Z</time>
      </trkpt>
      <trkpt lat="44.43486" lon="1.63093">
        <ele>322</ele>
        <time>2024-03-13T14:57:57Z</time>
      </trkpt>
      <trkpt lat="44.43486" lon="1.63093">
        <ele>322</ele>
        <time>2024-03-13T14:57:58Z</time>
      </trkpt>
      <trkpt lat="44.43486" lon="1.63093">
        <ele>322</ele>
        <time>2024-03-13T14:57:59Z</time>
      </trkpt>
      <trkpt lat="44.43486" lon="1.63093">
        <ele>322</ele>
        <time>2024-03-13T14:58:00Z</time>
      </trkpt>
      <trkpt lat="44.43486" lon="1.63093">
        <ele>322</ele>
        <time>2024-03-13T14:58:01Z</time>
      </trkpt>
      <trkpt lat="44.43486" lon="1.63093">
        <ele>322</ele>
        <time>2024-03-13T14:58:02Z</time>
      </trkpt>
      <trkpt lat="44.43486" lon="1.63093">
        <ele>322</ele>
        <time>2024-03-13T14:58:03Z</time>
      </trkpt>
      <trkpt lat="44.43486" lon="1.63093">
        <ele>322</ele>
        <time>2024-03-13T14:58:04Z</time>
      </trkpt>
      <trkpt lat="44.43486" lon="1.63093">
        <ele>322</ele>
        <time>2024-03-13T14:58:06Z</time>
      </trkpt>
      <trkpt lat="44.43486" lon="1.63093">
        <ele>322</ele>
        <time>2024-03-13T14:58:07Z</time>
      </trkpt>
      <trkpt lat="44.43486" lon="1.63093">
        <ele>322</ele>
        <time>2024-03-13T14:58:08Z</time>
      </trkpt>
      <trkpt lat="44.43486" lon="1.63093">
        <ele>322</ele>
        <time>2024-03-13T14:58:09Z</time>
      </trkpt>
      <trkpt lat="44.43486" lon="1.63093">
        <ele>322</ele>
        <time>2024-03-13T14:58:10Z</time>
      </trkpt>
      <trkpt lat="44.43486" lon="1.63093">
        <ele>322</ele>
        <time>2024-03-13T14:58:11Z</time>
      </trkpt>
      <trkpt lat="44.43486" lon="1.63093">
        <ele>322</ele>
        <time>2024-03-13T14:58:12Z</time>
      </trkpt>
      <trkpt lat="44.43486" lon="1.63093">
        <ele>322</ele>
        <time>2024-03-13T14:58:13Z</time>
      </trkpt>
      <trkpt lat="44.43486" lon="1.63093">
        <ele>322</ele>
        <time>2024-03-13T14:58:14Z</time>
      </trkpt>
      <trkpt lat="44.43486" lon="1.63093">
        <ele>322</ele>
        <time>2024-03-13T14:58:15Z</time>
      </trkpt>
      <trkpt lat="44.43486" lon="1.63093">
        <ele>322</ele>
        <time>2024-03-13T14:58:16Z</time>
      </trkpt>
      <trkpt lat="44.43486" lon="1.63093">
        <ele>322</ele>
        <time>2024-03-13T14:58:17Z</time>
      </trkpt>
      <trkpt lat="44.43486" lon="1.63093">
        <ele>322</ele>
        <time>2024-03-13T14:58:18Z</time>
      </trkpt>
      <trkpt lat="44.43486" lon="1.63093">
        <ele>322</ele>
        <time>2024-03-13T14:58:20Z</time>
      </trkpt>
      <trkpt lat="44.43486" lon="1.63093">
        <ele>322</ele>
        <time>2024-03-13T14:58:21Z</time>
      </trkpt>
      <trkpt lat="44.43486" lon="1.63093">
        <ele>322</ele>
        <time>2024-03-13T14:58:22Z</time>
      </trkpt>
      <trkpt lat="44.43486" lon="1.63093">
        <ele>322</ele>
        <time>2024-03-13T14:58:23Z</time>
      </trkpt>
      <trkpt lat="44.43486" lon="1.63093">
        <ele>322</ele>
        <time>2024-03-13T14:58:24Z</time>
      </trkpt>
      <trkpt lat="44.43486" lon="1.63093">
        <ele>322</ele>
        <time>2024-03-13T14:58:25Z</time>
      </trkpt>
      <trkpt lat="44.43486" lon="1.63093">
        <ele>322</ele>
        <time>2024-03-13T14:58:26Z</time>
      </trkpt>
      <trkpt lat="44.43486" lon="1.63093">
        <ele>322</ele>
        <time>2024-03-13T14:58:27Z</time>
      </trkpt>
      <trkpt lat="44.43486" lon="1.63093">
        <ele>322</ele>
        <time>2024-03-13T14:58:28Z</time>
      </trkpt>
      <trkpt lat="44.43486" lon="1.63093">
        <ele>322</ele>
        <time>2024-03-13T14:58:29Z</time>
      </trkpt>
      <trkpt lat="44.43486" lon="1.63093">
        <ele>322</ele>
        <time>2024-03-13T14:58:30Z</time>
      </trkpt>
      <trkpt lat="44.43486" lon="1.63093">
        <ele>322</ele>
        <time>2024-03-13T14:58:31Z</time>
      </trkpt>
      <trkpt lat="44.43486" lon="1.63093">
        <ele>322</ele>
        <time>2024-03-13T14:58:32Z</time>
      </trkpt>
      <trkpt lat="44.43486" lon="1.63093">
        <ele>322</ele>
        <time>2024-03-13T14:58:33Z</time>
      </trkpt>
      <trkpt lat="44.43486" lon="1.63093">
        <ele>322</ele>
        <time>2024-03-13T14:58:34Z</time>
      </trkpt>
      <trkpt lat="44.43486" lon="1.63093">
        <ele>322</ele>
        <time>2024-03-13T14:58:35Z</time>
      </trkpt>
      <trkpt lat="44.43486" lon="1.63093">
        <ele>322</ele>
        <time>2024-03-13T14:58:36Z</time>
      </trkpt>
      <trkpt lat="44.43486" lon="1.63093">
        <ele>322</ele>
        <time>2024-03-13T14:58:37Z</time>
      </trkpt>
      <trkpt lat="44.43486" lon="1.63093">
        <ele>322</ele>
        <time>2024-03-13T14:58:38Z</time>
      </trkpt>
      <trkpt lat="44.43486" lon="1.63093">
        <ele>322</ele>
        <time>2024-03-13T14:58:39Z</time>
      </trkpt>
      <trkpt lat="44.43486" lon="1.63093">
        <ele>322</ele>
        <time>2024-03-13T14:58:40Z</time>
      </trkpt>
      <trkpt lat="44.43486" lon="1.63093">
        <ele>322</ele>
        <time>2024-03-13T14:58:41Z</time>
      </trkpt>
      <trkpt lat="44.43486" lon="1.63093">
        <ele>322</ele>
        <time>2024-03-13T14:58:42Z</time>
      </trkpt>
      <trkpt lat="44.43486" lon="1.63093">
        <ele>322</ele>
        <time>2024-03-13T14:58:43Z</time>
      </trkpt>
      <trkpt lat="44.43486" lon="1.63093">
        <ele>322</ele>
        <time>2024-03-13T14:58:44Z</time>
      </trkpt>
      <trkpt lat="44.43486" lon="1.63093">
        <ele>322</ele>
        <time>2024-03-13T14:58:45Z</time>
      </trkpt>
      <trkpt lat="44.43486" lon="1.63093">
        <ele>322</ele>
        <time>2024-03-13T14:58:46Z</time>
      </trkpt>
      <trkpt lat="44.43486" lon="1.63093">
        <ele>322</ele>
        <time>2024-03-13T14:58:47Z</time>
      </trkpt>
      <trkpt lat="44.43486" lon="1.63093">
        <ele>322</ele>
        <time>2024-03-13T14:58:48Z</time>
      </trkpt>
      <trkpt lat="44.43486" lon="1.63093">
        <ele>322</ele>
        <time>2024-03-13T14:58:49Z</time>
      </trkpt>
      <trkpt lat="44.43486" lon="1.63093">
        <ele>322</ele>
        <time>2024-03-13T14:58:50Z</time>
      </trkpt>
      <trkpt lat="44.43486" lon="1.63093">
        <ele>322</ele>
        <time>2024-03-13T14:58:51Z</time>
      </trkpt>
      <trkpt lat="44.43486" lon="1.63093">
        <ele>322</ele>
        <time>2024-03-13T14:58:52Z</time>
      </trkpt>
      <trkpt lat="44.43486" lon="1.63093">
        <ele>322</ele>
        <time>2024-03-13T14:58:53Z</time>
      </trkpt>
      <trkpt lat="44.43486" lon="1.63093">
        <ele>322</ele>
        <time>2024-03-13T14:58:54Z</time>
      </trkpt>
      <trkpt lat="44.43486" lon="1.63093">
        <ele>322</ele>
        <time>2024-03-13T14:58:55Z</time>
      </trkpt>
      <trkpt lat="44.43486" lon="1.63093">
        <ele>322</ele>
        <time>2024-03-13T14:58:56Z</time>
      </trkpt>
      <trkpt lat="44.43486" lon="1.63093">
        <ele>322</ele>
        <time>2024-03-13T14:58:57Z</time>
      </trkpt>
      <trkpt lat="44.43485" lon="1.63094">
        <ele>323</ele>
        <time>2024-03-13T14:58:58Z</time>
      </trkpt>
      <trkpt lat="44.43485" lon="1.63094">
        <ele>323</ele>
        <time>2024-03-13T14:58:59Z</time>
      </trkpt>
      <trkpt lat="44.43485" lon="1.63094">
        <ele>323</ele>
        <time>2024-03-13T14:59:00Z</time>
      </trkpt>
      <trkpt lat="44.43485" lon="1.63094">
        <ele>323</ele>
        <time>2024-03-13T14:59:01Z</time>
      </trkpt>
      <trkpt lat="44.43485" lon="1.63094">
        <ele>323</ele>
        <time>2024-03-13T14:59:02Z</time>
      </trkpt>
      <trkpt lat="44.43485" lon="1.63094">
        <ele>323</ele>
        <time>2024-03-13T14:59:03Z</time>
      </trkpt>
      <trkpt lat="44.43485" lon="1.63094">
        <ele>323</ele>
        <time>2024-03-13T14:59:04Z</time>
      </trkpt>
      <trkpt lat="44.43485" lon="1.63094">
        <ele>323</ele>
        <time>2024-03-13T14:59:05Z</time>
      </trkpt>
      <trkpt lat="44.43485" lon="1.63094">
        <ele>323</ele>
        <time>2024-03-13T14:59:06Z</time>
      </trkpt>
      <trkpt lat="44.43485" lon="1.63094">
        <ele>323</ele>
        <time>2024-03-13T14:59:07Z</time>
      </trkpt>
      <trkpt lat="44.43485" lon="1.63094">
        <ele>323</ele>
        <time>2024-03-13T14:59:08Z</time>
      </trkpt>
      <trkpt lat="44.43485" lon="1.63094">
        <ele>323</ele>
        <time>2024-03-13T14:59:09Z</time>
      </trkpt>
      <trkpt lat="44.43485" lon="1.63094">
        <ele>323</ele>
        <time>2024-03-13T14:59:10Z</time>
      </trkpt>
      <trkpt lat="44.43485" lon="1.63094">
        <ele>323</ele>
        <time>2024-03-13T14:59:11Z</time>
      </trkpt>
      <trkpt lat="44.43485" lon="1.63094">
        <ele>323</ele>
        <time>2024-03-13T14:59:12Z</time>
      </trkpt>
      <trkpt lat="44.43485" lon="1.63094">
        <ele>323</ele>
        <time>2024-03-13T14:59:13Z</time>
      </trkpt>
      <trkpt lat="44.43485" lon="1.63094">
        <ele>323</ele>
        <time>2024-03-13T14:59:14Z</time>
      </trkpt>
      <trkpt lat="44.43485" lon="1.63094">
        <ele>323</ele>
        <time>2024-03-13T14:59:15Z</time>
      </trkpt>
      <trkpt lat="44.43485" lon="1.63094">
        <ele>323</ele>
        <time>2024-03-13T14:59:16Z</time>
      </trkpt>
      <trkpt lat="44.43485" lon="1.63094">
        <ele>323</ele>
        <time>2024-03-13T14:59:17Z</time>
      </trkpt>
      <trkpt lat="44.43485" lon="1.63094">
        <ele>323</ele>
        <time>2024-03-13T14:59:18Z</time>
      </trkpt>
      <trkpt lat="44.43485" lon="1.63094">
        <ele>323</ele>
        <time>2024-03-13T14:59:19Z</time>
      </trkpt>
      <trkpt lat="44.43485" lon="1.63094">
        <ele>323</ele>
        <time>2024-03-13T14:59:20Z</time>
      </trkpt>
      <trkpt lat="44.43485" lon="1.63094">
        <ele>323</ele>
        <time>2024-03-13T14:59:21Z</time>
      </trkpt>
      <trkpt lat="44.43485" lon="1.63094">
        <ele>323</ele>
        <time>2024-03-13T14:59:22Z</time>
      </trkpt>
      <trkpt lat="44.43485" lon="1.63094">
        <ele>323</ele>
        <time>2024-03-13T14:59:23Z</time>
      </trkpt>
      <trkpt lat="44.43485" lon="1.63094">
        <ele>323</ele>
        <time>2024-03-13T14:59:24Z</time>
      </trkpt>
      <trkpt lat="44.43485" lon="1.63094">
        <ele>323</ele>
        <time>2024-03-13T14:59:25Z</time>
      </trkpt>
      <trkpt lat="44.43485" lon="1.63094">
        <ele>323</ele>
        <time>2024-03-13T14:59:26Z</time>
      </trkpt>
      <trkpt lat="44.43485" lon="1.63094">
        <ele>323</ele>
        <time>2024-03-13T14:59:27Z</time>
      </trkpt>
      <trkpt lat="44.43485" lon="1.63094">
        <ele>323</ele>
        <time>2024-03-13T14:59:28Z</time>
      </trkpt>
      <trkpt lat="44.43485" lon="1.63094">
        <ele>323</ele>
        <time>2024-03-13T14:59:29Z</time>
      </trkpt>
      <trkpt lat="44.43485" lon="1.63094">
        <ele>323</ele>
        <time>2024-03-13T14:59:30Z</time>
      </trkpt>
      <trkpt lat="44.43485" lon="1.63094">
        <ele>323</ele>
        <time>2024-03-13T14:59:31Z</time>
      </trkpt>
      <trkpt lat="44.43485" lon="1.63094">
        <ele>323</ele>
        <time>2024-03-13T14:59:32Z</time>
      </trkpt>
      <trkpt lat="44.43485" lon="1.63094">
        <ele>323</ele>
        <time>2024-03-13T14:59:33Z</time>
      </trkpt>
      <trkpt lat="44.43485" lon="1.63094">
        <ele>323</ele>
        <time>2024-03-13T14:59:34Z</time>
      </trkpt>
      <trkpt lat="44.43485" lon="1.63094">
        <ele>323</ele>
        <time>2024-03-13T14:59:35Z</time>
      </trkpt>
      <trkpt lat="44.43485" lon="1.63094">
        <ele>323</ele>
        <time>2024-03-13T14:59:36Z</time>
      </trkpt>
      <trkpt lat="44.43485" lon="1.63094">
        <ele>323</ele>
        <time>2024-03-13T14:59:37Z</time>
      </trkpt>
      <trkpt lat="44.43485" lon="1.63094">
        <ele>323</ele>
        <time>2024-03-13T14:59:38Z</time>
      </trkpt>
      <trkpt lat="44.43485" lon="1.63094">
        <ele>323</ele>
        <time>2024-03-13T14:59:39Z</time>
      </trkpt>
      <trkpt lat="44.43485" lon="1.63094">
        <ele>323</ele>
        <time>2024-03-13T14:59:40Z</time>
      </trkpt>
      <trkpt lat="44.43485" lon="1.63094">
        <ele>323</ele>
        <time>2024-03-13T14:59:41Z</time>
      </trkpt>
      <trkpt lat="44.43485" lon="1.63094">
        <ele>323</ele>
        <time>2024-03-13T14:59:42Z</time>
      </trkpt>
      <trkpt lat="44.43485" lon="1.63094">
        <ele>323</ele>
        <time>2024-03-13T14:59:43Z</time>
      </trkpt>
      <trkpt lat="44.43485" lon="1.63094">
        <ele>323</ele>
        <time>2024-03-13T14:59:44Z</time>
      </trkpt>
      <trkpt lat="44.43485" lon="1.63094">
        <ele>323</ele>
        <time>2024-03-13T14:59:45Z</time>
      </trkpt>
      <trkpt lat="44.43485" lon="1.63094">
        <ele>323</ele>
        <time>2024-03-13T14:59:46Z</time>
      </trkpt>
      <trkpt lat="44.43485" lon="1.63094">
        <ele>323</ele>
        <time>2024-03-13T14:59:47Z</time>
      </trkpt>
      <trkpt lat="44.43485" lon="1.63094">
        <ele>323</ele>
        <time>2024-03-13T14:59:48Z</time>
      </trkpt>
      <trkpt lat="44.43485" lon="1.63094">
        <ele>323</ele>
        <time>2024-03-13T14:59:49Z</time>
      </trkpt>
      <trkpt lat="44.43485" lon="1.63094">
        <ele>323</ele>
        <time>2024-03-13T14:59:50Z</time>
      </trkpt>
      <trkpt lat="44.43485" lon="1.63094">
        <ele>323</ele>
        <time>2024-03-13T14:59:51Z</time>
      </trkpt>
      <trkpt lat="44.43485" lon="1.63094">
        <ele>323</ele>
        <time>2024-03-13T14:59:52Z</time>
      </trkpt>
      <trkpt lat="44.43485" lon="1.63094">
        <ele>323</ele>
        <time>2024-03-13T14:59:53Z</time>
      </trkpt>
      <trkpt lat="44.43485" lon="1.63094">
        <ele>323</ele>
        <time>2024-03-13T14:59:54Z</time>
      </trkpt>
      <trkpt lat="44.43485" lon="1.63094">
        <ele>323</ele>
        <time>2024-03-13T14:59:55Z</time>
      </trkpt>
      <trkpt lat="44.43485" lon="1.63094">
        <ele>323</ele>
        <time>2024-03-13T14:59:56Z</time>
      </trkpt>
      <trkpt lat="44.43485" lon="1.63094">
        <ele>323</ele>
        <time>2024-03-13T14:59:57Z</time>
      </trkpt>
      <trkpt lat="44.43485" lon="1.63094">
        <ele>323</ele>
        <time>2024-03-13T14:59:58Z</time>
      </trkpt>
      <trkpt lat="44.43485" lon="1.63094">
        <ele>323</ele>
        <time>2024-03-13T14:59:59Z</time>
      </trkpt>
      <trkpt lat="44.43485" lon="1.63094">
        <ele>323</ele>
        <time>2024-03-13T15:00:00Z</time>
      </trkpt>
      <trkpt lat="44.43485" lon="1.63094">
        <ele>323</ele>
        <time>2024-03-13T15:00:01Z</time>
      </trkpt>
      <trkpt lat="44.43485" lon="1.63094">
        <ele>323</ele>
        <time>2024-03-13T15:00:02Z</time>
      </trkpt>
      <trkpt lat="44.43485" lon="1.63094">
        <ele>323</ele>
        <time>2024-03-13T15:00:03Z</time>
      </trkpt>
      <trkpt lat="44.43485" lon="1.63094">
        <ele>323</ele>
        <time>2024-03-13T15:00:04Z</time>
      </trkpt>
      <trkpt lat="44.43485" lon="1.63094">
        <ele>323</ele>
        <time>2024-03-13T15:00:05Z</time>
      </trkpt>
      <trkpt lat="44.43485" lon="1.63094">
        <ele>323</ele>
        <time>2024-03-13T15:00:06Z</time>
      </trkpt>
      <trkpt lat="44.43485" lon="1.63094">
        <ele>323</ele>
        <time>2024-03-13T15:00:07Z</time>
      </trkpt>
      <trkpt lat="44.43485" lon="1.63094">
        <ele>323</ele>
        <time>2024-03-13T15:00:08Z</time>
      </trkpt>
      <trkpt lat="44.43485" lon="1.63094">
        <ele>323</ele>
        <time>2024-03-13T15:00:09Z</time>
      </trkpt>
      <trkpt lat="44.43485" lon="1.63094">
        <ele>323</ele>
        <time>2024-03-13T15:00:10Z</time>
      </trkpt>
      <trkpt lat="44.43485" lon="1.63094">
        <ele>323</ele>
        <time>2024-03-13T15:00:11Z</time>
      </trkpt>
      <trkpt lat="44.43485" lon="1.63094">
        <ele>323</ele>
        <time>2024-03-13T15:00:12Z</time>
      </trkpt>
      <trkpt lat="44.43485" lon="1.63094">
        <ele>323</ele>
        <time>2024-03-13T15:00:13Z</time>
      </trkpt>
      <trkpt lat="44.43485" lon="1.63094">
        <ele>323</ele>
        <time>2024-03-13T15:00:14Z</time>
      </trkpt>
      <trkpt lat="44.43485" lon="1.63094">
        <ele>323</ele>
        <time>2024-03-13T15:00:15Z</time>
      </trkpt>
      <trkpt lat="44.43485" lon="1.63094">
        <ele>323</ele>
        <time>2024-03-13T15:00:16Z</time>
      </trkpt>
      <trkpt lat="44.43485" lon="1.63094">
        <ele>323</ele>
        <time>2024-03-13T15:00:17Z</time>
      </trkpt>
      <trkpt lat="44.43485" lon="1.63094">
        <ele>323</ele>
        <time>2024-03-13T15:00:18Z</time>
      </trkpt>
      <trkpt lat="44.43485" lon="1.63094">
        <ele>323</ele>
        <time>2024-03-13T15:00:19Z</time>
      </trkpt>
      <trkpt lat="44.43485" lon="1.63094">
        <ele>323</ele>
        <time>2024-03-13T15:00:20Z</time>
      </trkpt>
      <trkpt lat="44.43485" lon="1.63094">
        <ele>323</ele>
        <time>2024-03-13T15:00:21Z</time>
      </trkpt>
      <trkpt lat="44.43485" lon="1.63094">
        <ele>323</ele>
        <time>2024-03-13T15:00:22Z</time>
      </trkpt>
      <trkpt lat="44.43485" lon="1.63094">
        <ele>323</ele>
        <time>2024-03-13T15:00:23Z</time>
      </trkpt>
      <trkpt lat="44.43485" lon="1.63094">
        <ele>323</ele>
        <time>2024-03-13T15:00:24Z</time>
      </trkpt>
      <trkpt lat="44.43485" lon="1.63094">
        <ele>323</ele>
        <time>2024-03-13T15:00:25Z</time>
      </trkpt>
      <trkpt lat="44.43485" lon="1.63094">
        <ele>323</ele>
        <time>2024-03-13T15:00:26Z</time>
      </trkpt>
      <trkpt lat="44.43485" lon="1.63094">
        <ele>323</ele>
        <time>2024-03-13T15:00:27Z</time>
      </trkpt>
      <trkpt lat="44.43485" lon="1.63094">
        <ele>323</ele>
        <time>2024-03-13T15:00:28Z</time>
      </trkpt>
      <trkpt lat="44.43485" lon="1.63094">
        <ele>323</ele>
        <time>2024-03-13T15:00:29Z</time>
      </trkpt>
      <trkpt lat="44.43485" lon="1.63094">
        <ele>323</ele>
        <time>2024-03-13T15:00:30Z</time>
      </trkpt>
      <trkpt lat="44.43485" lon="1.63094">
        <ele>323</ele>
        <time>2024-03-13T15:00:31Z</time>
      </trkpt>
      <trkpt lat="44.43485" lon="1.63094">
        <ele>323</ele>
        <time>2024-03-13T15:00:32Z</time>
      </trkpt>
      <trkpt lat="44.43485" lon="1.63094">
        <ele>323</ele>
        <time>2024-03-13T15:00:33Z</time>
      </trkpt>
      <trkpt lat="44.43485" lon="1.63094">
        <ele>323</ele>
        <time>2024-03-13T15:00:34Z</time>
      </trkpt>
      <trkpt lat="44.43485" lon="1.63094">
        <ele>323</ele>
        <time>2024-03-13T15:00:35Z</time>
      </trkpt>
      <trkpt lat="44.43485" lon="1.63094">
        <ele>323</ele>
        <time>2024-03-13T15:00:36Z</time>
      </trkpt>
      <trkpt lat="44.43485" lon="1.63094">
        <ele>323</ele>
        <time>2024-03-13T15:00:37Z</time>
      </trkpt>
      <trkpt lat="44.43485" lon="1.63094">
        <ele>323</ele>
        <time>2024-03-13T15:00:38Z</time>
      </trkpt>
      <trkpt lat="44.43485" lon="1.63094">
        <ele>323</ele>
        <time>2024-03-13T15:00:39Z</time>
      </trkpt>
      <trkpt lat="44.43485" lon="1.63094">
        <ele>323</ele>
        <time>2024-03-13T15:00:40Z</time>
      </trkpt>
      <trkpt lat="44.43485" lon="1.63094">
        <ele>323</ele>
        <time>2024-03-13T15:00:41Z</time>
      </trkpt>
      <trkpt lat="44.43485" lon="1.63094">
        <ele>323</ele>
        <time>2024-03-13T15:00:42Z</time>
      </trkpt>
      <trkpt lat="44.43485" lon="1.63094">
        <ele>323</ele>
        <time>2024-03-13T15:00:43Z</time>
      </trkpt>
      <trkpt lat="44.43485" lon="1.63094">
        <ele>323</ele>
        <time>2024-03-13T15:00:44Z</time>
      </trkpt>
      <trkpt lat="44.43485" lon="1.63094">
        <ele>323</ele>
        <time>2024-03-13T15:00:45Z</time>
      </trkpt>
      <trkpt lat="44.43485" lon="1.63094">
        <ele>323</ele>
        <time>2024-03-13T15:00:46Z</time>
      </trkpt>
      <trkpt lat="44.43485" lon="1.63094">
        <ele>323</ele>
        <time>2024-03-13T15:00:47Z</time>
      </trkpt>
      <trkpt lat="44.43485" lon="1.63094">
        <ele>323</ele>
        <time>2024-03-13T15:00:48Z</time>
      </trkpt>
      <trkpt lat="44.43485" lon="1.63094">
        <ele>323</ele>
        <time>2024-03-13T15:00:49Z</time>
      </trkpt>
      <trkpt lat="44.43485" lon="1.63094">
        <ele>323</ele>
        <time>2024-03-13T15:00:50Z</time>
      </trkpt>
      <trkpt lat="44.43485" lon="1.63094">
        <ele>323</ele>
        <time>2024-03-13T15:00:51Z</time>
      </trkpt>
      <trkpt lat="44.43485" lon="1.63094">
        <ele>323</ele>
        <time>2024-03-13T15:00:52Z</time>
      </trkpt>
      <trkpt lat="44.43485" lon="1.63094">
        <ele>323</ele>
        <time>2024-03-13T15:00:53Z</time>
      </trkpt>
      <trkpt lat="44.43485" lon="1.63094">
        <ele>323</ele>
        <time>2024-03-13T15:00:54Z</time>
      </trkpt>
      <trkpt lat="44.43485" lon="1.63094">
        <ele>323</ele>
        <time>2024-03-13T15:00:55Z</time>
      </trkpt>
      <trkpt lat="44.43485" lon="1.63094">
        <ele>323</ele>
        <time>2024-03-13T15:00:56Z</time>
      </trkpt>
      <trkpt lat="44.43485" lon="1.63094">
        <ele>323</ele>
        <time>2024-03-13T15:00:57Z</time>
      </trkpt>
      <trkpt lat="44.43485" lon="1.63094">
        <ele>323</ele>
        <time>2024-03-13T15:00:58Z</time>
      </trkpt>
      <trkpt lat="44.43485" lon="1.63094">
        <ele>323</ele>
        <time>2024-03-13T15:00:59Z</time>
      </trkpt>
      <trkpt lat="44.43485" lon="1.63094">
        <ele>323</ele>
        <time>2024-03-13T15:01:00Z</time>
      </trkpt>
      <trkpt lat="44.43485" lon="1.63094">
        <ele>323</ele>
        <time>2024-03-13T15:01:01Z</time>
      </trkpt>
      <trkpt lat="44.43485" lon="1.63094">
        <ele>323</ele>
        <time>2024-03-13T15:01:02Z</time>
      </trkpt>
      <trkpt lat="44.43485" lon="1.63094">
        <ele>323</ele>
        <time>2024-03-13T15:01:03Z</time>
      </trkpt>
      <trkpt lat="44.43485" lon="1.63094">
        <ele>323</ele>
        <time>2024-03-13T15:01:04Z</time>
      </trkpt>
      <trkpt lat="44.43485" lon="1.63094">
        <ele>323</ele>
        <time>2024-03-13T15:01:05Z</time>
      </trkpt>
      <trkpt lat="44.43485" lon="1.63094">
        <ele>323</ele>
        <time>2024-03-13T15:01:06Z</time>
      </trkpt>
      <trkpt lat="44.43485" lon="1.63094">
        <ele>323</ele>
        <time>2024-03-13T15:01:07Z</time>
      </trkpt>
      <trkpt lat="44.43485" lon="1.63095">
        <ele>322</ele>
        <time>2024-03-13T15:01:08Z</time>
      </trkpt>
      <trkpt lat="44.43485" lon="1.63095">
        <ele>322</ele>
        <time>2024-03-13T15:01:09Z</time>
      </trkpt>
      <trkpt lat="44.43485" lon="1.63095">
        <ele>322</ele>
        <time>2024-03-13T15:01:10Z</time>
      </trkpt>
      <trkpt lat="44.43485" lon="1.63095">
        <ele>322</ele>
        <time>2024-03-13T15:01:11Z</time>
      </trkpt>
      <trkpt lat="44.43485" lon="1.63095">
        <ele>322</ele>
        <time>2024-03-13T15:01:12Z</time>
      </trkpt>
      <trkpt lat="44.43485" lon="1.63095">
        <ele>322</ele>
        <time>2024-03-13T15:01:13Z</time>
      </trkpt>
      <trkpt lat="44.43485" lon="1.63095">
        <ele>322</ele>
        <time>2024-03-13T15:01:14Z</time>
      </trkpt>
      <trkpt lat="44.43485" lon="1.63095">
        <ele>322</ele>
        <time>2024-03-13T15:01:15Z</time>
      </trkpt>
      <trkpt lat="44.43485" lon="1.63095">
        <ele>322</ele>
        <time>2024-03-13T15:01:16Z</time>
      </trkpt>
      <trkpt lat="44.43485" lon="1.63095">
        <ele>322</ele>
        <time>2024-03-13T15:01:17Z</time>
      </trkpt>
      <trkpt lat="44.43485" lon="1.63095">
        <ele>322</ele>
        <time>2024-03-13T15:01:18Z</time>
      </trkpt>
      <trkpt lat="44.43485" lon="1.63095">
        <ele>322</ele>
        <time>2024-03-13T15:01:19Z</time>
      </trkpt>
      <trkpt lat="44.43485" lon="1.63095">
        <ele>322</ele>
        <time>2024-03-13T15:01:20Z</time>
      </trkpt>
      <trkpt lat="44.43485" lon="1.63095">
        <ele>322</ele>
        <time>2024-03-13T15:01:21Z</time>
      </trkpt>
      <trkpt lat="44.43485" lon="1.63095">
        <ele>322</ele>
        <time>2024-03-13T15:01:22Z</time>
      </trkpt>
      <trkpt lat="44.43485" lon="1.63095">
        <ele>322</ele>
        <time>2024-03-13T15:01:23Z</time>
      </trkpt>
      <trkpt lat="44.43485" lon="1.63095">
        <ele>322</ele>
        <time>2024-03-13T15:01:24Z</time>
      </trkpt>
      <trkpt lat="44.43485" lon="1.63095">
        <ele>322</ele>
        <time>2024-03-13T15:01:25Z</time>
      </trkpt>
      <trkpt lat="44.43485" lon="1.63095">
        <ele>322</ele>
        <time>2024-03-13T15:01:26Z</time>
      </trkpt>
      <trkpt lat="44.43486" lon="1.63095">
        <ele>321</ele>
        <time>2024-03-13T15:01:27Z</time>
      </trkpt>
      <trkpt lat="44.43487" lon="1.63095">
        <ele>322</ele>
        <time>2024-03-13T15:01:28Z</time>
      </trkpt>
      <trkpt lat="44.43487" lon="1.63095">
        <ele>321</ele>
        <time>2024-03-13T15:01:29Z</time>
      </trkpt>
      <trkpt lat="44.43487" lon="1.63094">
        <ele>321</ele>
        <time>2024-03-13T15:01:30Z</time>
      </trkpt>
      <trkpt lat="44.43487" lon="1.63094">
        <ele>321</ele>
        <time>2024-03-13T15:01:31Z</time>
      </trkpt>
      <trkpt lat="44.43487" lon="1.63094">
        <ele>321</ele>
        <time>2024-03-13T15:01:32Z</time>
      </trkpt>
      <trkpt lat="44.43487" lon="1.63093">
        <ele>321</ele>
        <time>2024-03-13T15:01:33Z</time>
      </trkpt>
      <trkpt lat="44.43486" lon="1.63092">
        <ele>321</ele>
        <time>2024-03-13T15:01:34Z</time>
      </trkpt>
      <trkpt lat="44.43486" lon="1.63091">
        <ele>321</ele>
        <time>2024-03-13T15:01:35Z</time>
      </trkpt>
      <trkpt lat="44.43486" lon="1.6309">
        <ele>321</ele>
        <time>2024-03-13T15:01:36Z</time>
      </trkpt>
      <trkpt lat="44.43486" lon="1.6309">
        <ele>321</ele>
        <time>2024-03-13T15:01:37Z</time>
      </trkpt>
      <trkpt lat="44.43485" lon="1.63089">
        <ele>320</ele>
        <time>2024-03-13T15:01:38Z</time>
      </trkpt>
      <trkpt lat="44.43485" lon="1.63088">
        <ele>320</ele>
        <time>2024-03-13T15:01:39Z</time>
      </trkpt>
      <trkpt lat="44.43485" lon="1.63087">
        <ele>321</ele>
        <time>2024-03-13T15:01:40Z</time>
      </trkpt>
      <trkpt lat="44.43485" lon="1.63086">
        <ele>321</ele>
        <time>2024-03-13T15:01:41Z</time>
      </trkpt>
      <trkpt lat="44.43485" lon="1.63085">
        <ele>320</ele>
        <time>2024-03-13T15:01:42Z</time>
      </trkpt>
      <trkpt lat="44.43485" lon="1.63085">
        <ele>321</ele>
        <time>2024-03-13T15:01:43Z</time>
      </trkpt>
      <trkpt lat="44.43485" lon="1.63084">
        <ele>321</ele>
        <time>2024-03-13T15:01:44Z</time>
      </trkpt>
      <trkpt lat="44.43485" lon="1.63083">
        <ele>321</ele>
        <time>2024-03-13T15:01:45Z</time>
      </trkpt>
      <trkpt lat="44.43485" lon="1.63081">
        <ele>321</ele>
        <time>2024-03-13T15:01:46Z</time>
      </trkpt>
      <trkpt lat="44.43486" lon="1.63081">
        <ele>321</ele>
        <time>2024-03-13T15:01:47Z</time>
      </trkpt>
      <trkpt lat="44.43487" lon="1.6308">
        <ele>321</ele>
        <time>2024-03-13T15:01:48Z</time>
      </trkpt>
      <trkpt lat="44.43487" lon="1.63079">
        <ele>321</ele>
        <time>2024-03-13T15:01:49Z</time>
      </trkpt>
      <trkpt lat="44.43487" lon="1.63078">
        <ele>321</ele>
        <time>2024-03-13T15:01:50Z</time>
      </trkpt>
      <trkpt lat="44.43488" lon="1.63077">
        <ele>321</ele>
        <time>2024-03-13T15:01:51Z</time>
      </trkpt>
      <trkpt lat="44.43488" lon="1.63075">
        <ele>321</ele>
        <time>2024-03-13T15:01:52Z</time>
      </trkpt>
      <trkpt lat="44.43488" lon="1.63074">
        <ele>322</ele>
        <time>2024-03-13T15:01:53Z</time>
      </trkpt>
      <trkpt lat="44.43489" lon="1.63073">
        <ele>322</ele>
        <time>2024-03-13T15:01:54Z</time>
      </trkpt>
      <trkpt lat="44.43489" lon="1.63071">
        <ele>321</ele>
        <time>2024-03-13T15:01:55Z</time>
      </trkpt>
      <trkpt lat="44.43489" lon="1.6307">
        <ele>322</ele>
        <time>2024-03-13T15:01:56Z</time>
      </trkpt>
      <trkpt lat="44.4349" lon="1.63069">
        <ele>321</ele>
        <time>2024-03-13T15:01:57Z</time>
      </trkpt>
      <trkpt lat="44.4349" lon="1.63068">
        <ele>322</ele>
        <time>2024-03-13T15:01:58Z</time>
      </trkpt>
      <trkpt lat="44.43491" lon="1.63067">
        <ele>322</ele>
        <time>2024-03-13T15:01:59Z</time>
      </trkpt>
      <trkpt lat="44.43491" lon="1.63066">
        <ele>322</ele>
        <time>2024-03-13T15:02:00Z</time>
      </trkpt>
      <trkpt lat="44.43491" lon="1.63065">
        <ele>322</ele>
        <time>2024-03-13T15:02:01Z</time>
      </trkpt>
      <trkpt lat="44.43492" lon="1.63063">
        <ele>322</ele>
        <time>2024-03-13T15:02:02Z</time>
      </trkpt>
      <trkpt lat="44.43492" lon="1.63062">
        <ele>322</ele>
        <time>2024-03-13T15:02:03Z</time>
      </trkpt>
      <trkpt lat="44.43493" lon="1.63061">
        <ele>323</ele>
        <time>2024-03-13T15:02:04Z</time>
      </trkpt>
      <trkpt lat="44.43493" lon="1.63059">
        <ele>323</ele>
        <time>2024-03-13T15:02:05Z</time>
      </trkpt>
      <trkpt lat="44.43494" lon="1.63058">
        <ele>323</ele>
        <time>2024-03-13T15:02:06Z</time>
      </trkpt>
      <trkpt lat="44.43494" lon="1.63057">
        <ele>323</ele>
        <time>2024-03-13T15:02:07Z</time>
      </trkpt>
      <trkpt lat="44.43494" lon="1.63055">
        <ele>323</ele>
        <time>2024-03-13T15:02:08Z</time>
      </trkpt>
      <trkpt lat="44.43495" lon="1.63053">
        <ele>324</ele>
        <time>2024-03-13T15:02:10Z</time>
      </trkpt>
      <trkpt lat="44.43495" lon="1.63051">
        <ele>324</ele>
        <time>2024-03-13T15:02:11Z</time>
      </trkpt>
      <trkpt lat="44.43496" lon="1.6305">
        <ele>325</ele>
        <time>2024-03-13T15:02:12Z</time>
      </trkpt>
      <trkpt lat="44.43496" lon="1.63049">
        <ele>325</ele>
        <time>2024-03-13T15:02:13Z</time>
      </trkpt>
      <trkpt lat="44.43496" lon="1.63047">
        <ele>325</ele>
        <time>2024-03-13T15:02:14Z</time>
      </trkpt>
      <trkpt lat="44.43496" lon="1.63046">
        <ele>325</ele>
        <time>2024-03-13T15:02:15Z</time>
      </trkpt>
      <trkpt lat="44.43496" lon="1.63045">
        <ele>325</ele>
        <time>2024-03-13T15:02:16Z</time>
      </trkpt>
      <trkpt lat="44.43497" lon="1.63044">
        <ele>325</ele>
        <time>2024-03-13T15:02:18Z</time>
      </trkpt>
      <trkpt lat="44.43497" lon="1.63043">
        <ele>325</ele>
        <time>2024-03-13T15:02:19Z</time>
      </trkpt>
      <trkpt lat="44.43497" lon="1.63041">
        <ele>325</ele>
        <time>2024-03-13T15:02:20Z</time>
      </trkpt>
      <trkpt lat="44.43497" lon="1.6304">
        <ele>325</ele>
        <time>2024-03-13T15:02:21Z</time>
      </trkpt>
      <trkpt lat="44.43497" lon="1.63039">
        <ele>326</ele>
        <time>2024-03-13T15:02:22Z</time>
      </trkpt>
      <trkpt lat="44.43498" lon="1.63037">
        <ele>326</ele>
        <time>2024-03-13T15:02:23Z</time>
      </trkpt>
      <trkpt lat="44.43498" lon="1.63035">
        <ele>325</ele>
        <time>2024-03-13T15:02:24Z</time>
      </trkpt>
      <trkpt lat="44.43498" lon="1.63034">
        <ele>326</ele>
        <time>2024-03-13T15:02:25Z</time>
      </trkpt>
      <trkpt lat="44.43499" lon="1.63032">
        <ele>326</ele>
        <time>2024-03-13T15:02:26Z</time>
      </trkpt>
      <trkpt lat="44.43499" lon="1.63031">
        <ele>326</ele>
        <time>2024-03-13T15:02:27Z</time>
      </trkpt>
      <trkpt lat="44.43499" lon="1.6303">
        <ele>326</ele>
        <time>2024-03-13T15:02:28Z</time>
      </trkpt>
      <trkpt lat="44.43499" lon="1.63028">
        <ele>326</ele>
        <time>2024-03-13T15:02:29Z</time>
      </trkpt>
      <trkpt lat="44.435" lon="1.63027">
        <ele>326</ele>
        <time>2024-03-13T15:02:30Z</time>
      </trkpt>
      <trkpt lat="44.435" lon="1.63026">
        <ele>326</ele>
        <time>2024-03-13T15:02:31Z</time>
      </trkpt>
      <trkpt lat="44.43501" lon="1.63024">
        <ele>327</ele>
        <time>2024-03-13T15:02:32Z</time>
      </trkpt>
      <trkpt lat="44.43501" lon="1.63023">
        <ele>327</ele>
        <time>2024-03-13T15:02:33Z</time>
      </trkpt>
      <trkpt lat="44.43501" lon="1.63021">
        <ele>327</ele>
        <time>2024-03-13T15:02:34Z</time>
      </trkpt>
      <trkpt lat="44.43501" lon="1.63019">
        <ele>327</ele>
        <time>2024-03-13T15:02:35Z</time>
      </trkpt>
      <trkpt lat="44.43501" lon="1.63018">
        <ele>327</ele>
        <time>2024-03-13T15:02:36Z</time>
      </trkpt>
      <trkpt lat="44.43502" lon="1.63017">
        <ele>328</ele>
        <time>2024-03-13T15:02:37Z</time>
      </trkpt>
      <trkpt lat="44.43502" lon="1.63015">
        <ele>328</ele>
        <time>2024-03-13T15:02:38Z</time>
      </trkpt>
      <trkpt lat="44.43502" lon="1.63013">
        <ele>328</ele>
        <time>2024-03-13T15:02:39Z</time>
      </trkpt>
      <trkpt lat="44.43502" lon="1.63011">
        <ele>328</ele>
        <time>2024-03-13T15:02:40Z</time>
      </trkpt>
      <trkpt lat="44.43502" lon="1.63009">
        <ele>328</ele>
        <time>2024-03-13T15:02:41Z</time>
      </trkpt>
      <trkpt lat="44.43502" lon="1.63008">
        <ele>328</ele>
        <time>2024-03-13T15:02:42Z</time>
      </trkpt>
      <trkpt lat="44.43503" lon="1.63006">
        <ele>328</ele>
        <time>2024-03-13T15:02:43Z</time>
      </trkpt>
      <trkpt lat="44.43504" lon="1.63004">
        <ele>328</ele>
        <time>2024-03-13T15:02:44Z</time>
      </trkpt>
      <trkpt lat="44.43504" lon="1.63002">
        <ele>328</ele>
        <time>2024-03-13T15:02:45Z</time>
      </trkpt>
      <trkpt lat="44.43504" lon="1.63001">
        <ele>328</ele>
        <time>2024-03-13T15:02:46Z</time>
      </trkpt>
      <trkpt lat="44.43505" lon="1.62999">
        <ele>327</ele>
        <time>2024-03-13T15:02:47Z</time>
      </trkpt>
      <trkpt lat="44.43505" lon="1.62997">
        <ele>327</ele>
        <time>2024-03-13T15:02:48Z</time>
      </trkpt>
      <trkpt lat="44.43505" lon="1.62996">
        <ele>327</ele>
        <time>2024-03-13T15:02:49Z</time>
      </trkpt>
      <trkpt lat="44.43505" lon="1.62994">
        <ele>327</ele>
        <time>2024-03-13T15:02:50Z</time>
      </trkpt>
      <trkpt lat="44.43505" lon="1.62993">
        <ele>327</ele>
        <time>2024-03-13T15:02:51Z</time>
      </trkpt>
      <trkpt lat="44.43506" lon="1.62991">
        <ele>326</ele>
        <time>2024-03-13T15:02:52Z</time>
      </trkpt>
      <trkpt lat="44.43506" lon="1.6299">
        <ele>326</ele>
        <time>2024-03-13T15:02:53Z</time>
      </trkpt>
      <trkpt lat="44.43506" lon="1.62988">
        <ele>326</ele>
        <time>2024-03-13T15:02:54Z</time>
      </trkpt>
      <trkpt lat="44.43506" lon="1.62987">
        <ele>326</ele>
        <time>2024-03-13T15:02:55Z</time>
      </trkpt>
      <trkpt lat="44.43506" lon="1.62985">
        <ele>325</ele>
        <time>2024-03-13T15:02:56Z</time>
      </trkpt>
      <trkpt lat="44.43507" lon="1.62982">
        <ele>325</ele>
        <time>2024-03-13T15:02:57Z</time>
      </trkpt>
      <trkpt lat="44.43507" lon="1.6298">
        <ele>325</ele>
        <time>2024-03-13T15:02:58Z</time>
      </trkpt>
      <trkpt lat="44.43507" lon="1.62978">
        <ele>325</ele>
        <time>2024-03-13T15:02:59Z</time>
      </trkpt>
      <trkpt lat="44.43507" lon="1.62976">
        <ele>325</ele>
        <time>2024-03-13T15:03:00Z</time>
      </trkpt>
      <trkpt lat="44.43507" lon="1.62974">
        <ele>325</ele>
        <time>2024-03-13T15:03:01Z</time>
      </trkpt>
      <trkpt lat="44.43507" lon="1.62972">
        <ele>325</ele>
        <time>2024-03-13T15:03:02Z</time>
      </trkpt>
      <trkpt lat="44.43507" lon="1.62971">
        <ele>325</ele>
        <time>2024-03-13T15:03:03Z</time>
      </trkpt>
      <trkpt lat="44.43507" lon="1.62969">
        <ele>325</ele>
        <time>2024-03-13T15:03:04Z</time>
      </trkpt>
      <trkpt lat="44.43506" lon="1.62967">
        <ele>325</ele>
        <time>2024-03-13T15:03:05Z</time>
      </trkpt>
      <trkpt lat="44.43506" lon="1.62965">
        <ele>325</ele>
        <time>2024-03-13T15:03:06Z</time>
      </trkpt>
      <trkpt lat="44.43506" lon="1.62963">
        <ele>325</ele>
        <time>2024-03-13T15:03:07Z</time>
      </trkpt>
      <trkpt lat="44.43505" lon="1.62961">
        <ele>325</ele>
        <time>2024-03-13T15:03:08Z</time>
      </trkpt>
      <trkpt lat="44.43505" lon="1.6296">
        <ele>326</ele>
        <time>2024-03-13T15:03:09Z</time>
      </trkpt>
      <trkpt lat="44.43505" lon="1.62958">
        <ele>326</ele>
        <time>2024-03-13T15:03:10Z</time>
      </trkpt>
      <trkpt lat="44.43505" lon="1.62956">
        <ele>326</ele>
        <time>2024-03-13T15:03:11Z</time>
      </trkpt>
      <trkpt lat="44.43504" lon="1.62955">
        <ele>326</ele>
        <time>2024-03-13T15:03:12Z</time>
      </trkpt>
      <trkpt lat="44.43504" lon="1.62953">
        <ele>326</ele>
        <time>2024-03-13T15:03:13Z</time>
      </trkpt>
      <trkpt lat="44.43504" lon="1.62951">
        <ele>325</ele>
        <time>2024-03-13T15:03:14Z</time>
      </trkpt>
      <trkpt lat="44.43503" lon="1.62949">
        <ele>325</ele>
        <time>2024-03-13T15:03:15Z</time>
      </trkpt>
      <trkpt lat="44.43503" lon="1.62948">
        <ele>325</ele>
        <time>2024-03-13T15:03:16Z</time>
      </trkpt>
      <trkpt lat="44.43502" lon="1.62946">
        <ele>325</ele>
        <time>2024-03-13T15:03:17Z</time>
      </trkpt>
      <trkpt lat="44.43502" lon="1.62945">
        <ele>325</ele>
        <time>2024-03-13T15:03:18Z</time>
      </trkpt>
      <trkpt lat="44.43501" lon="1.62943">
        <ele>325</ele>
        <time>2024-03-13T15:03:19Z</time>
      </trkpt>
      <trkpt lat="44.43501" lon="1.62941">
        <ele>325</ele>
        <time>2024-03-13T15:03:20Z</time>
      </trkpt>
      <trkpt lat="44.43499" lon="1.62939">
        <ele>325</ele>
        <time>2024-03-13T15:03:21Z</time>
      </trkpt>
      <trkpt lat="44.43499" lon="1.62937">
        <ele>326</ele>
        <time>2024-03-13T15:03:22Z</time>
      </trkpt>
      <trkpt lat="44.43497" lon="1.62936">
        <ele>326</ele>
        <time>2024-03-13T15:03:23Z</time>
      </trkpt>
      <trkpt lat="44.43497" lon="1.62934">
        <ele>326</ele>
        <time>2024-03-13T15:03:24Z</time>
      </trkpt>
      <trkpt lat="44.43497" lon="1.62932">
        <ele>325</ele>
        <time>2024-03-13T15:03:25Z</time>
      </trkpt>
      <trkpt lat="44.43496" lon="1.6293">
        <ele>325</ele>
        <time>2024-03-13T15:03:26Z</time>
      </trkpt>
      <trkpt lat="44.43495" lon="1.62928">
        <ele>325</ele>
        <time>2024-03-13T15:03:27Z</time>
      </trkpt>
      <trkpt lat="44.43494" lon="1.62926">
        <ele>326</ele>
        <time>2024-03-13T15:03:28Z</time>
      </trkpt>
      <trkpt lat="44.43493" lon="1.62925">
        <ele>325</ele>
        <time>2024-03-13T15:03:29Z</time>
      </trkpt>
      <trkpt lat="44.43493" lon="1.62923">
        <ele>325</ele>
        <time>2024-03-13T15:03:30Z</time>
      </trkpt>
      <trkpt lat="44.43491" lon="1.6292">
        <ele>325</ele>
        <time>2024-03-13T15:03:31Z</time>
      </trkpt>
      <trkpt lat="44.43491" lon="1.62919">
        <ele>325</ele>
        <time>2024-03-13T15:03:32Z</time>
      </trkpt>
      <trkpt lat="44.4349" lon="1.62918">
        <ele>324</ele>
        <time>2024-03-13T15:03:33Z</time>
      </trkpt>
      <trkpt lat="44.43489" lon="1.62916">
        <ele>324</ele>
        <time>2024-03-13T15:03:34Z</time>
      </trkpt>
      <trkpt lat="44.43488" lon="1.62914">
        <ele>324</ele>
        <time>2024-03-13T15:03:35Z</time>
      </trkpt>
      <trkpt lat="44.43488" lon="1.62913">
        <ele>324</ele>
        <time>2024-03-13T15:03:36Z</time>
      </trkpt>
      <trkpt lat="44.43487" lon="1.62912">
        <ele>324</ele>
        <time>2024-03-13T15:03:37Z</time>
      </trkpt>
      <trkpt lat="44.43486" lon="1.62911">
        <ele>323</ele>
        <time>2024-03-13T15:03:38Z</time>
      </trkpt>
      <trkpt lat="44.43485" lon="1.6291">
        <ele>324</ele>
        <time>2024-03-13T15:03:39Z</time>
      </trkpt>
      <trkpt lat="44.43484" lon="1.62909">
        <ele>323</ele>
        <time>2024-03-13T15:03:40Z</time>
      </trkpt>
      <trkpt lat="44.43483" lon="1.62908">
        <ele>323</ele>
        <time>2024-03-13T15:03:41Z</time>
      </trkpt>
      <trkpt lat="44.43483" lon="1.62907">
        <ele>324</ele>
        <time>2024-03-13T15:03:42Z</time>
      </trkpt>
      <trkpt lat="44.43482" lon="1.62905">
        <ele>324</ele>
        <time>2024-03-13T15:03:43Z</time>
      </trkpt>
      <trkpt lat="44.43481" lon="1.62904">
        <ele>324</ele>
        <time>2024-03-13T15:03:44Z</time>
      </trkpt>
      <trkpt lat="44.4348" lon="1.62903">
        <ele>324</ele>
        <time>2024-03-13T15:03:45Z</time>
      </trkpt>
      <trkpt lat="44.43479" lon="1.62902">
        <ele>324</ele>
        <time>2024-03-13T15:03:46Z</time>
      </trkpt>
      <trkpt lat="44.43478" lon="1.62901">
        <ele>324</ele>
        <time>2024-03-13T15:03:47Z</time>
      </trkpt>
      <trkpt lat="44.43477" lon="1.62901">
        <ele>324</ele>
        <time>2024-03-13T15:03:48Z</time>
      </trkpt>
      <trkpt lat="44.43476" lon="1.629">
        <ele>324</ele>
        <time>2024-03-13T15:03:49Z</time>
      </trkpt>
      <trkpt lat="44.43475" lon="1.62899">
        <ele>324</ele>
        <time>2024-03-13T15:03:50Z</time>
      </trkpt>
      <trkpt lat="44.43474" lon="1.62898">
        <ele>324</ele>
        <time>2024-03-13T15:03:51Z</time>
      </trkpt>
      <trkpt lat="44.43473" lon="1.62897">
        <ele>324</ele>
        <time>2024-03-13T15:03:52Z</time>
      </trkpt>
      <trkpt lat="44.43472" lon="1.62896">
        <ele>324</ele>
        <time>2024-03-13T15:03:53Z</time>
      </trkpt>
      <trkpt lat="44.43471" lon="1.62894">
        <ele>324</ele>
        <time>2024-03-13T15:03:54Z</time>
      </trkpt>
      <trkpt lat="44.4347" lon="1.62894">
        <ele>324</ele>
        <time>2024-03-13T15:03:55Z</time>
      </trkpt>
      <trkpt lat="44.43469" lon="1.62893">
        <ele>324</ele>
        <time>2024-03-13T15:03:56Z</time>
      </trkpt>
      <trkpt lat="44.43468" lon="1.62892">
        <ele>324</ele>
        <time>2024-03-13T15:03:57Z</time>
      </trkpt>
      <trkpt lat="44.43467" lon="1.62891">
        <ele>324</ele>
        <time>2024-03-13T15:03:58Z</time>
      </trkpt>
      <trkpt lat="44.43467" lon="1.6289">
        <ele>324</ele>
        <time>2024-03-13T15:03:59Z</time>
      </trkpt>
      <trkpt lat="44.43466" lon="1.62889">
        <ele>324</ele>
        <time>2024-03-13T15:04:00Z</time>
      </trkpt>
      <trkpt lat="44.43465" lon="1.62888">
        <ele>324</ele>
        <time>2024-03-13T15:04:01Z</time>
      </trkpt>
      <trkpt lat="44.43465" lon="1.62887">
        <ele>324</ele>
        <time>2024-03-13T15:04:02Z</time>
      </trkpt>
      <trkpt lat="44.43464" lon="1.62886">
        <ele>324</ele>
        <time>2024-03-13T15:04:03Z</time>
      </trkpt>
      <trkpt lat="44.43463" lon="1.62885">
        <ele>324</ele>
        <time>2024-03-13T15:04:04Z</time>
      </trkpt>
      <trkpt lat="44.43462" lon="1.62884">
        <ele>324</ele>
        <time>2024-03-13T15:04:05Z</time>
      </trkpt>
      <trkpt lat="44.43462" lon="1.62883">
        <ele>324</ele>
        <time>2024-03-13T15:04:06Z</time>
      </trkpt>
      <trkpt lat="44.43461" lon="1.62882">
        <ele>324</ele>
        <time>2024-03-13T15:04:07Z</time>
      </trkpt>
      <trkpt lat="44.4346" lon="1.62881">
        <ele>324</ele>
        <time>2024-03-13T15:04:08Z</time>
      </trkpt>
      <trkpt lat="44.4346" lon="1.6288">
        <ele>324</ele>
        <time>2024-03-13T15:04:09Z</time>
      </trkpt>
      <trkpt lat="44.43459" lon="1.62878">
        <ele>324</ele>
        <time>2024-03-13T15:04:10Z</time>
      </trkpt>
      <trkpt lat="44.43458" lon="1.62878">
        <ele>324</ele>
        <time>2024-03-13T15:04:11Z</time>
      </trkpt>
      <trkpt lat="44.43457" lon="1.62876">
        <ele>325</ele>
        <time>2024-03-13T15:04:12Z</time>
      </trkpt>
      <trkpt lat="44.43457" lon="1.62875">
        <ele>325</ele>
        <time>2024-03-13T15:04:13Z</time>
      </trkpt>
      <trkpt lat="44.43456" lon="1.62874">
        <ele>325</ele>
        <time>2024-03-13T15:04:14Z</time>
      </trkpt>
      <trkpt lat="44.43455" lon="1.62872">
        <ele>325</ele>
        <time>2024-03-13T15:04:15Z</time>
      </trkpt>
      <trkpt lat="44.43454" lon="1.62871">
        <ele>325</ele>
        <time>2024-03-13T15:04:16Z</time>
      </trkpt>
      <trkpt lat="44.43453" lon="1.6287">
        <ele>325</ele>
        <time>2024-03-13T15:04:17Z</time>
      </trkpt>
      <trkpt lat="44.43452" lon="1.62868">
        <ele>325</ele>
        <time>2024-03-13T15:04:18Z</time>
      </trkpt>
      <trkpt lat="44.43452" lon="1.62867">
        <ele>324</ele>
        <time>2024-03-13T15:04:19Z</time>
      </trkpt>
      <trkpt lat="44.43451" lon="1.62867">
        <ele>324</ele>
        <time>2024-03-13T15:04:20Z</time>
      </trkpt>
      <trkpt lat="44.43451" lon="1.62866">
        <ele>325</ele>
        <time>2024-03-13T15:04:21Z</time>
      </trkpt>
      <trkpt lat="44.4345" lon="1.62865">
        <ele>324</ele>
        <time>2024-03-13T15:04:22Z</time>
      </trkpt>
      <trkpt lat="44.4345" lon="1.62864">
        <ele>324</ele>
        <time>2024-03-13T15:04:23Z</time>
      </trkpt>
      <trkpt lat="44.43449" lon="1.62862">
        <ele>324</ele>
        <time>2024-03-13T15:04:24Z</time>
      </trkpt>
      <trkpt lat="44.43449" lon="1.62861">
        <ele>324</ele>
        <time>2024-03-13T15:04:25Z</time>
      </trkpt>
      <trkpt lat="44.43448" lon="1.6286">
        <ele>324</ele>
        <time>2024-03-13T15:04:26Z</time>
      </trkpt>
      <trkpt lat="44.43447" lon="1.62859">
        <ele>324</ele>
        <time>2024-03-13T15:04:27Z</time>
      </trkpt>
      <trkpt lat="44.43446" lon="1.62858">
        <ele>324</ele>
        <time>2024-03-13T15:04:28Z</time>
      </trkpt>
      <trkpt lat="44.43445" lon="1.62857">
        <ele>324</ele>
        <time>2024-03-13T15:04:29Z</time>
      </trkpt>
      <trkpt lat="44.43444" lon="1.62857">
        <ele>324</ele>
        <time>2024-03-13T15:04:30Z</time>
      </trkpt>
      <trkpt lat="44.43443" lon="1.62856">
        <ele>324</ele>
        <time>2024-03-13T15:04:31Z</time>
      </trkpt>
      <trkpt lat="44.43442" lon="1.62855">
        <ele>324</ele>
        <time>2024-03-13T15:04:32Z</time>
      </trkpt>
      <trkpt lat="44.43441" lon="1.62853">
        <ele>324</ele>
        <time>2024-03-13T15:04:33Z</time>
      </trkpt>
      <trkpt lat="44.4344" lon="1.62852">
        <ele>324</ele>
        <time>2024-03-13T15:04:34Z</time>
      </trkpt>
      <trkpt lat="44.43439" lon="1.62851">
        <ele>324</ele>
        <time>2024-03-13T15:04:35Z</time>
      </trkpt>
      <trkpt lat="44.43438" lon="1.62851">
        <ele>324</ele>
        <time>2024-03-13T15:04:36Z</time>
      </trkpt>
      <trkpt lat="44.43437" lon="1.6285">
        <ele>324</ele>
        <time>2024-03-13T15:04:37Z</time>
      </trkpt>
      <trkpt lat="44.43436" lon="1.62849">
        <ele>324</ele>
        <time>2024-03-13T15:04:38Z</time>
      </trkpt>
      <trkpt lat="44.43435" lon="1.62848">
        <ele>323</ele>
        <time>2024-03-13T15:04:39Z</time>
      </trkpt>
      <trkpt lat="44.43434" lon="1.62847">
        <ele>323</ele>
        <time>2024-03-13T15:04:40Z</time>
      </trkpt>
      <trkpt lat="44.43433" lon="1.62846">
        <ele>323</ele>
        <time>2024-03-13T15:04:41Z</time>
      </trkpt>
      <trkpt lat="44.43431" lon="1.62845">
        <ele>324</ele>
        <time>2024-03-13T15:04:42Z</time>
      </trkpt>
      <trkpt lat="44.43431" lon="1.62844">
        <ele>324</ele>
        <time>2024-03-13T15:04:43Z</time>
      </trkpt>
      <trkpt lat="44.4343" lon="1.62843">
        <ele>324</ele>
        <time>2024-03-13T15:04:44Z</time>
      </trkpt>
      <trkpt lat="44.43428" lon="1.62842">
        <ele>323</ele>
        <time>2024-03-13T15:04:45Z</time>
      </trkpt>
      <trkpt lat="44.43427" lon="1.62841">
        <ele>323</ele>
        <time>2024-03-13T15:04:46Z</time>
      </trkpt>
      <trkpt lat="44.43425" lon="1.62841">
        <ele>323</ele>
        <time>2024-03-13T15:04:47Z</time>
      </trkpt>
      <trkpt lat="44.43424" lon="1.6284">
        <ele>323</ele>
        <time>2024-03-13T15:04:48Z</time>
      </trkpt>
      <trkpt lat="44.43423" lon="1.62839">
        <ele>323</ele>
        <time>2024-03-13T15:04:49Z</time>
      </trkpt>
      <trkpt lat="44.43422" lon="1.62838">
        <ele>323</ele>
        <time>2024-03-13T15:04:50Z</time>
      </trkpt>
      <trkpt lat="44.4342" lon="1.62837">
        <ele>323</ele>
        <time>2024-03-13T15:04:51Z</time>
      </trkpt>
      <trkpt lat="44.43419" lon="1.62836">
        <ele>322</ele>
        <time>2024-03-13T15:04:52Z</time>
      </trkpt>
      <trkpt lat="44.43418" lon="1.62835">
        <ele>322</ele>
        <time>2024-03-13T15:04:53Z</time>
      </trkpt>
      <trkpt lat="44.43416" lon="1.62834">
        <ele>322</ele>
        <time>2024-03-13T15:04:54Z</time>
      </trkpt>
      <trkpt lat="44.43415" lon="1.62833">
        <ele>322</ele>
        <time>2024-03-13T15:04:55Z</time>
      </trkpt>
      <trkpt lat="44.43414" lon="1.62832">
        <ele>322</ele>
        <time>2024-03-13T15:04:56Z</time>
      </trkpt>
      <trkpt lat="44.43413" lon="1.62831">
        <ele>321</ele>
        <time>2024-03-13T15:04:57Z</time>
      </trkpt>
      <trkpt lat="44.43412" lon="1.6283">
        <ele>321</ele>
        <time>2024-03-13T15:04:58Z</time>
      </trkpt>
      <trkpt lat="44.4341" lon="1.6283">
        <ele>321</ele>
        <time>2024-03-13T15:04:59Z</time>
      </trkpt>
      <trkpt lat="44.43409" lon="1.62829">
        <ele>321</ele>
        <time>2024-03-13T15:05:00Z</time>
      </trkpt>
      <trkpt lat="44.43408" lon="1.62827">
        <ele>321</ele>
        <time>2024-03-13T15:05:01Z</time>
      </trkpt>
      <trkpt lat="44.43407" lon="1.62826">
        <ele>321</ele>
        <time>2024-03-13T15:05:02Z</time>
      </trkpt>
      <trkpt lat="44.43406" lon="1.62825">
        <ele>321</ele>
        <time>2024-03-13T15:05:03Z</time>
      </trkpt>
      <trkpt lat="44.43404" lon="1.62824">
        <ele>321</ele>
        <time>2024-03-13T15:05:04Z</time>
      </trkpt>
      <trkpt lat="44.43402" lon="1.62823">
        <ele>321</ele>
        <time>2024-03-13T15:05:05Z</time>
      </trkpt>
      <trkpt lat="44.43401" lon="1.62823">
        <ele>320</ele>
        <time>2024-03-13T15:05:06Z</time>
      </trkpt>
      <trkpt lat="44.434" lon="1.62822">
        <ele>321</ele>
        <time>2024-03-13T15:05:07Z</time>
      </trkpt>
      <trkpt lat="44.43398" lon="1.62821">
        <ele>321</ele>
        <time>2024-03-13T15:05:08Z</time>
      </trkpt>
      <trkpt lat="44.43397" lon="1.6282">
        <ele>320</ele>
        <time>2024-03-13T15:05:09Z</time>
      </trkpt>
      <trkpt lat="44.43396" lon="1.6282">
        <ele>320</ele>
        <time>2024-03-13T15:05:10Z</time>
      </trkpt>
      <trkpt lat="44.43394" lon="1.62819">
        <ele>320</ele>
        <time>2024-03-13T15:05:11Z</time>
      </trkpt>
      <trkpt lat="44.43393" lon="1.62819">
        <ele>320</ele>
        <time>2024-03-13T15:05:12Z</time>
      </trkpt>
      <trkpt lat="44.43391" lon="1.62819">
        <ele>319</ele>
        <time>2024-03-13T15:05:13Z</time>
      </trkpt>
      <trkpt lat="44.4339" lon="1.62818">
        <ele>319</ele>
        <time>2024-03-13T15:05:14Z</time>
      </trkpt>
      <trkpt lat="44.43388" lon="1.62818">
        <ele>319</ele>
        <time>2024-03-13T15:05:15Z</time>
      </trkpt>
      <trkpt lat="44.43387" lon="1.62817">
        <ele>319</ele>
        <time>2024-03-13T15:05:16Z</time>
      </trkpt>
      <trkpt lat="44.43385" lon="1.62816">
        <ele>319</ele>
        <time>2024-03-13T15:05:17Z</time>
      </trkpt>
      <trkpt lat="44.43384" lon="1.62816">
        <ele>319</ele>
        <time>2024-03-13T15:05:18Z</time>
      </trkpt>
      <trkpt lat="44.43382" lon="1.62815">
        <ele>318</ele>
        <time>2024-03-13T15:05:19Z</time>
      </trkpt>
      <trkpt lat="44.43381" lon="1.62814">
        <ele>318</ele>
        <time>2024-03-13T15:05:20Z</time>
      </trkpt>
      <trkpt lat="44.43379" lon="1.62814">
        <ele>318</ele>
        <time>2024-03-13T15:05:21Z</time>
      </trkpt>
      <trkpt lat="44.43378" lon="1.62813">
        <ele>318</ele>
        <time>2024-03-13T15:05:22Z</time>
      </trkpt>
      <trkpt lat="44.43376" lon="1.62812">
        <ele>317</ele>
        <time>2024-03-13T15:05:23Z</time>
      </trkpt>
      <trkpt lat="44.43375" lon="1.62811">
        <ele>317</ele>
        <time>2024-03-13T15:05:24Z</time>
      </trkpt>
      <trkpt lat="44.43373" lon="1.62811">
        <ele>317</ele>
        <time>2024-03-13T15:05:25Z</time>
      </trkpt>
      <trkpt lat="44.43372" lon="1.6281">
        <ele>317</ele>
        <time>2024-03-13T15:05:26Z</time>
      </trkpt>
      <trkpt lat="44.43371" lon="1.62809">
        <ele>317</ele>
        <time>2024-03-13T15:05:27Z</time>
      </trkpt>
      <trkpt lat="44.43369" lon="1.62808">
        <ele>317</ele>
        <time>2024-03-13T15:05:28Z</time>
      </trkpt>
      <trkpt lat="44.43368" lon="1.62807">
        <ele>317</ele>
        <time>2024-03-13T15:05:29Z</time>
      </trkpt>
      <trkpt lat="44.43367" lon="1.62806">
        <ele>317</ele>
        <time>2024-03-13T15:05:30Z</time>
      </trkpt>
      <trkpt lat="44.43365" lon="1.62805">
        <ele>317</ele>
        <time>2024-03-13T15:05:31Z</time>
      </trkpt>
      <trkpt lat="44.43364" lon="1.62804">
        <ele>317</ele>
        <time>2024-03-13T15:05:32Z</time>
      </trkpt>
      <trkpt lat="44.43363" lon="1.62803">
        <ele>317</ele>
        <time>2024-03-13T15:05:33Z</time>
      </trkpt>
      <trkpt lat="44.43362" lon="1.62802">
        <ele>317</ele>
        <time>2024-03-13T15:05:34Z</time>
      </trkpt>
      <trkpt lat="44.4336" lon="1.62802">
        <ele>317</ele>
        <time>2024-03-13T15:05:35Z</time>
      </trkpt>
      <trkpt lat="44.43359" lon="1.62801">
        <ele>317</ele>
        <time>2024-03-13T15:05:36Z</time>
      </trkpt>
      <trkpt lat="44.43357" lon="1.628">
        <ele>317</ele>
        <time>2024-03-13T15:05:37Z</time>
      </trkpt>
      <trkpt lat="44.43356" lon="1.628">
        <ele>317</ele>
        <time>2024-03-13T15:05:38Z</time>
      </trkpt>
      <trkpt lat="44.43355" lon="1.62799">
        <ele>317</ele>
        <time>2024-03-13T15:05:39Z</time>
      </trkpt>
      <trkpt lat="44.43354" lon="1.62798">
        <ele>317</ele>
        <time>2024-03-13T15:05:40Z</time>
      </trkpt>
      <trkpt lat="44.43353" lon="1.62797">
        <ele>318</ele>
        <time>2024-03-13T15:05:41Z</time>
      </trkpt>
      <trkpt lat="44.43351" lon="1.62795">
        <ele>318</ele>
        <time>2024-03-13T15:05:42Z</time>
      </trkpt>
      <trkpt lat="44.4335" lon="1.62794">
        <ele>318</ele>
        <time>2024-03-13T15:05:43Z</time>
      </trkpt>
      <trkpt lat="44.43349" lon="1.62794">
        <ele>318</ele>
        <time>2024-03-13T15:05:44Z</time>
      </trkpt>
      <trkpt lat="44.43348" lon="1.62793">
        <ele>318</ele>
        <time>2024-03-13T15:05:45Z</time>
      </trkpt>
      <trkpt lat="44.43346" lon="1.62792">
        <ele>318</ele>
        <time>2024-03-13T15:05:46Z</time>
      </trkpt>
      <trkpt lat="44.43345" lon="1.62791">
        <ele>318</ele>
        <time>2024-03-13T15:05:47Z</time>
      </trkpt>
      <trkpt lat="44.43344" lon="1.6279">
        <ele>318</ele>
        <time>2024-03-13T15:05:48Z</time>
      </trkpt>
      <trkpt lat="44.43342" lon="1.62789">
        <ele>318</ele>
        <time>2024-03-13T15:05:49Z</time>
      </trkpt>
      <trkpt lat="44.43341" lon="1.62788">
        <ele>317</ele>
        <time>2024-03-13T15:05:50Z</time>
      </trkpt>
      <trkpt lat="44.4334" lon="1.62788">
        <ele>317</ele>
        <time>2024-03-13T15:05:51Z</time>
      </trkpt>
      <trkpt lat="44.43339" lon="1.62787">
        <ele>317</ele>
        <time>2024-03-13T15:05:52Z</time>
      </trkpt>
      <trkpt lat="44.43338" lon="1.62786">
        <ele>317</ele>
        <time>2024-03-13T15:05:53Z</time>
      </trkpt>
      <trkpt lat="44.43337" lon="1.62785">
        <ele>317</ele>
        <time>2024-03-13T15:05:54Z</time>
      </trkpt>
      <trkpt lat="44.43336" lon="1.62784">
        <ele>317</ele>
        <time>2024-03-13T15:05:55Z</time>
      </trkpt>
      <trkpt lat="44.43335" lon="1.62783">
        <ele>317</ele>
        <time>2024-03-13T15:05:56Z</time>
      </trkpt>
      <trkpt lat="44.43333" lon="1.62782">
        <ele>317</ele>
        <time>2024-03-13T15:05:57Z</time>
      </trkpt>
      <trkpt lat="44.43332" lon="1.62781">
        <ele>317</ele>
        <time>2024-03-13T15:05:58Z</time>
      </trkpt>
      <trkpt lat="44.4333" lon="1.62781">
        <ele>317</ele>
        <time>2024-03-13T15:05:59Z</time>
      </trkpt>
      <trkpt lat="44.4333" lon="1.6278">
        <ele>317</ele>
        <time>2024-03-13T15:06:00Z</time>
      </trkpt>
      <trkpt lat="44.43328" lon="1.62779">
        <ele>317</ele>
        <time>2024-03-13T15:06:01Z</time>
      </trkpt>
      <trkpt lat="44.43327" lon="1.62778">
        <ele>317</ele>
        <time>2024-03-13T15:06:02Z</time>
      </trkpt>
      <trkpt lat="44.43326" lon="1.62777">
        <ele>316</ele>
        <time>2024-03-13T15:06:03Z</time>
      </trkpt>
      <trkpt lat="44.43325" lon="1.62777">
        <ele>316</ele>
        <time>2024-03-13T15:06:04Z</time>
      </trkpt>
      <trkpt lat="44.43324" lon="1.62776">
        <ele>316</ele>
        <time>2024-03-13T15:06:05Z</time>
      </trkpt>
      <trkpt lat="44.43323" lon="1.62774">
        <ele>316</ele>
        <time>2024-03-13T15:06:06Z</time>
      </trkpt>
      <trkpt lat="44.43322" lon="1.62773">
        <ele>316</ele>
        <time>2024-03-13T15:06:07Z</time>
      </trkpt>
      <trkpt lat="44.43321" lon="1.62772">
        <ele>316</ele>
        <time>2024-03-13T15:06:08Z</time>
      </trkpt>
      <trkpt lat="44.4332" lon="1.62771">
        <ele>315</ele>
        <time>2024-03-13T15:06:09Z</time>
      </trkpt>
      <trkpt lat="44.43319" lon="1.6277">
        <ele>315</ele>
        <time>2024-03-13T15:06:10Z</time>
      </trkpt>
      <trkpt lat="44.43318" lon="1.62769">
        <ele>315</ele>
        <time>2024-03-13T15:06:11Z</time>
      </trkpt>
      <trkpt lat="44.43317" lon="1.62768">
        <ele>316</ele>
        <time>2024-03-13T15:06:12Z</time>
      </trkpt>
      <trkpt lat="44.43316" lon="1.62768">
        <ele>315</ele>
        <time>2024-03-13T15:06:13Z</time>
      </trkpt>
      <trkpt lat="44.43315" lon="1.62766">
        <ele>315</ele>
        <time>2024-03-13T15:06:14Z</time>
      </trkpt>
      <trkpt lat="44.43314" lon="1.62766">
        <ele>315</ele>
        <time>2024-03-13T15:06:15Z</time>
      </trkpt>
      <trkpt lat="44.43313" lon="1.62765">
        <ele>315</ele>
        <time>2024-03-13T15:06:16Z</time>
      </trkpt>
      <trkpt lat="44.43312" lon="1.62764">
        <ele>315</ele>
        <time>2024-03-13T15:06:17Z</time>
      </trkpt>
      <trkpt lat="44.43311" lon="1.62763">
        <ele>315</ele>
        <time>2024-03-13T15:06:18Z</time>
      </trkpt>
      <trkpt lat="44.4331" lon="1.62762">
        <ele>315</ele>
        <time>2024-03-13T15:06:19Z</time>
      </trkpt>
      <trkpt lat="44.43309" lon="1.62762">
        <ele>315</ele>
        <time>2024-03-13T15:06:20Z</time>
      </trkpt>
      <trkpt lat="44.43309" lon="1.6276">
        <ele>315</ele>
        <time>2024-03-13T15:06:21Z</time>
      </trkpt>
      <trkpt lat="44.43308" lon="1.62759">
        <ele>315</ele>
        <time>2024-03-13T15:06:22Z</time>
      </trkpt>
      <trkpt lat="44.43307" lon="1.62758">
        <ele>315</ele>
        <time>2024-03-13T15:06:23Z</time>
      </trkpt>
      <trkpt lat="44.43306" lon="1.62757">
        <ele>315</ele>
        <time>2024-03-13T15:06:24Z</time>
      </trkpt>
      <trkpt lat="44.43305" lon="1.62756">
        <ele>315</ele>
        <time>2024-03-13T15:06:25Z</time>
      </trkpt>
      <trkpt lat="44.43304" lon="1.62755">
        <ele>315</ele>
        <time>2024-03-13T15:06:26Z</time>
      </trkpt>
      <trkpt lat="44.43303" lon="1.62754">
        <ele>315</ele>
        <time>2024-03-13T15:06:27Z</time>
      </trkpt>
      <trkpt lat="44.43302" lon="1.62753">
        <ele>315</ele>
        <time>2024-03-13T15:06:28Z</time>
      </trkpt>
      <trkpt lat="44.43301" lon="1.62752">
        <ele>315</ele>
        <time>2024-03-13T15:06:29Z</time>
      </trkpt>
      <trkpt lat="44.433" lon="1.62751">
        <ele>315</ele>
        <time>2024-03-13T15:06:30Z</time>
      </trkpt>
      <trkpt lat="44.43299" lon="1.6275">
        <ele>316</ele>
        <time>2024-03-13T15:06:31Z</time>
      </trkpt>
      <trkpt lat="44.43298" lon="1.62748">
        <ele>316</ele>
        <time>2024-03-13T15:06:32Z</time>
      </trkpt>
      <trkpt lat="44.43297" lon="1.62747">
        <ele>316</ele>
        <time>2024-03-13T15:06:33Z</time>
      </trkpt>
      <trkpt lat="44.43296" lon="1.62745">
        <ele>316</ele>
        <time>2024-03-13T15:06:35Z</time>
      </trkpt>
      <trkpt lat="44.43295" lon="1.62744">
        <ele>316</ele>
        <time>2024-03-13T15:06:36Z</time>
      </trkpt>
      <trkpt lat="44.43295" lon="1.62742">
        <ele>316</ele>
        <time>2024-03-13T15:06:37Z</time>
      </trkpt>
      <trkpt lat="44.43294" lon="1.62741">
        <ele>316</ele>
        <time>2024-03-13T15:06:38Z</time>
      </trkpt>
      <trkpt lat="44.43293" lon="1.6274">
        <ele>316</ele>
        <time>2024-03-13T15:06:39Z</time>
      </trkpt>
      <trkpt lat="44.43292" lon="1.62738">
        <ele>317</ele>
        <time>2024-03-13T15:06:40Z</time>
      </trkpt>
      <trkpt lat="44.43291" lon="1.62737">
        <ele>317</ele>
        <time>2024-03-13T15:06:41Z</time>
      </trkpt>
      <trkpt lat="44.43291" lon="1.62736">
        <ele>317</ele>
        <time>2024-03-13T15:06:42Z</time>
      </trkpt>
      <trkpt lat="44.43289" lon="1.62734">
        <ele>317</ele>
        <time>2024-03-13T15:06:43Z</time>
      </trkpt>
      <trkpt lat="44.43288" lon="1.62733">
        <ele>316</ele>
        <time>2024-03-13T15:06:44Z</time>
      </trkpt>
      <trkpt lat="44.43286" lon="1.62731">
        <ele>316</ele>
        <time>2024-03-13T15:06:45Z</time>
      </trkpt>
      <trkpt lat="44.43285" lon="1.6273">
        <ele>316</ele>
        <time>2024-03-13T15:06:46Z</time>
      </trkpt>
      <trkpt lat="44.43283" lon="1.62729">
        <ele>315</ele>
        <time>2024-03-13T15:06:47Z</time>
      </trkpt>
      <trkpt lat="44.43282" lon="1.62727">
        <ele>314</ele>
        <time>2024-03-13T15:06:48Z</time>
      </trkpt>
      <trkpt lat="44.43281" lon="1.62726">
        <ele>314</ele>
        <time>2024-03-13T15:06:49Z</time>
      </trkpt>
      <trkpt lat="44.4328" lon="1.62725">
        <ele>314</ele>
        <time>2024-03-13T15:06:50Z</time>
      </trkpt>
      <trkpt lat="44.43278" lon="1.62723">
        <ele>314</ele>
        <time>2024-03-13T15:06:51Z</time>
      </trkpt>
      <trkpt lat="44.43276" lon="1.62721">
        <ele>313</ele>
        <time>2024-03-13T15:06:52Z</time>
      </trkpt>
      <trkpt lat="44.43275" lon="1.6272">
        <ele>313</ele>
        <time>2024-03-13T15:06:53Z</time>
      </trkpt>
      <trkpt lat="44.43274" lon="1.62719">
        <ele>313</ele>
        <time>2024-03-13T15:06:54Z</time>
      </trkpt>
      <trkpt lat="44.43273" lon="1.62718">
        <ele>313</ele>
        <time>2024-03-13T15:06:55Z</time>
      </trkpt>
      <trkpt lat="44.43272" lon="1.62717">
        <ele>313</ele>
        <time>2024-03-13T15:06:56Z</time>
      </trkpt>
      <trkpt lat="44.4327" lon="1.62715">
        <ele>313</ele>
        <time>2024-03-13T15:06:57Z</time>
      </trkpt>
      <trkpt lat="44.4327" lon="1.62714">
        <ele>313</ele>
        <time>2024-03-13T15:06:58Z</time>
      </trkpt>
      <trkpt lat="44.43269" lon="1.62713">
        <ele>313</ele>
        <time>2024-03-13T15:06:59Z</time>
      </trkpt>
      <trkpt lat="44.43268" lon="1.62712">
        <ele>312</ele>
        <time>2024-03-13T15:07:00Z</time>
      </trkpt>
      <trkpt lat="44.43267" lon="1.62711">
        <ele>312</ele>
        <time>2024-03-13T15:07:01Z</time>
      </trkpt>
      <trkpt lat="44.43266" lon="1.6271">
        <ele>312</ele>
        <time>2024-03-13T15:07:02Z</time>
      </trkpt>
      <trkpt lat="44.43264" lon="1.62709">
        <ele>312</ele>
        <time>2024-03-13T15:07:03Z</time>
      </trkpt>
      <trkpt lat="44.43264" lon="1.62708">
        <ele>312</ele>
        <time>2024-03-13T15:07:04Z</time>
      </trkpt>
      <trkpt lat="44.43263" lon="1.62706">
        <ele>312</ele>
        <time>2024-03-13T15:07:05Z</time>
      </trkpt>
      <trkpt lat="44.43262" lon="1.62706">
        <ele>312</ele>
        <time>2024-03-13T15:07:06Z</time>
      </trkpt>
      <trkpt lat="44.43261" lon="1.62706">
        <ele>312</ele>
        <time>2024-03-13T15:07:07Z</time>
      </trkpt>
      <trkpt lat="44.4326" lon="1.62705">
        <ele>312</ele>
        <time>2024-03-13T15:07:08Z</time>
      </trkpt>
      <trkpt lat="44.43259" lon="1.62705">
        <ele>312</ele>
        <time>2024-03-13T15:07:09Z</time>
      </trkpt>
      <trkpt lat="44.43259" lon="1.62704">
        <ele>312</ele>
        <time>2024-03-13T15:07:10Z</time>
      </trkpt>
      <trkpt lat="44.43258" lon="1.62704">
        <ele>312</ele>
        <time>2024-03-13T15:07:11Z</time>
      </trkpt>
      <trkpt lat="44.43257" lon="1.62703">
        <ele>312</ele>
        <time>2024-03-13T15:07:12Z</time>
      </trkpt>
      <trkpt lat="44.43256" lon="1.62703">
        <ele>312</ele>
        <time>2024-03-13T15:07:13Z</time>
      </trkpt>
      <trkpt lat="44.43255" lon="1.62703">
        <ele>313</ele>
        <time>2024-03-13T15:07:14Z</time>
      </trkpt>
      <trkpt lat="44.43254" lon="1.62703">
        <ele>313</ele>
        <time>2024-03-13T15:07:15Z</time>
      </trkpt>
      <trkpt lat="44.43253" lon="1.62702">
        <ele>313</ele>
        <time>2024-03-13T15:07:16Z</time>
      </trkpt>
      <trkpt lat="44.43252" lon="1.62702">
        <ele>313</ele>
        <time>2024-03-13T15:07:17Z</time>
      </trkpt>
      <trkpt lat="44.43251" lon="1.62702">
        <ele>313</ele>
        <time>2024-03-13T15:07:18Z</time>
      </trkpt>
      <trkpt lat="44.4325" lon="1.62701">
        <ele>314</ele>
        <time>2024-03-13T15:07:19Z</time>
      </trkpt>
      <trkpt lat="44.43249" lon="1.62701">
        <ele>314</ele>
        <time>2024-03-13T15:07:20Z</time>
      </trkpt>
      <trkpt lat="44.43248" lon="1.62701">
        <ele>314</ele>
        <time>2024-03-13T15:07:21Z</time>
      </trkpt>
      <trkpt lat="44.43246" lon="1.62701">
        <ele>314</ele>
        <time>2024-03-13T15:07:22Z</time>
      </trkpt>
      <trkpt lat="44.43245" lon="1.62701">
        <ele>314</ele>
        <time>2024-03-13T15:07:23Z</time>
      </trkpt>
      <trkpt lat="44.43244" lon="1.62701">
        <ele>314</ele>
        <time>2024-03-13T15:07:24Z</time>
      </trkpt>
      <trkpt lat="44.43243" lon="1.62701">
        <ele>313</ele>
        <time>2024-03-13T15:07:25Z</time>
      </trkpt>
      <trkpt lat="44.43242" lon="1.62701">
        <ele>313</ele>
        <time>2024-03-13T15:07:26Z</time>
      </trkpt>
      <trkpt lat="44.4324" lon="1.62701">
        <ele>313</ele>
        <time>2024-03-13T15:07:27Z</time>
      </trkpt>
      <trkpt lat="44.43239" lon="1.62701">
        <ele>313</ele>
        <time>2024-03-13T15:07:28Z</time>
      </trkpt>
      <trkpt lat="44.43237" lon="1.62701">
        <ele>313</ele>
        <time>2024-03-13T15:07:29Z</time>
      </trkpt>
      <trkpt lat="44.43236" lon="1.62701">
        <ele>313</ele>
        <time>2024-03-13T15:07:30Z</time>
      </trkpt>
      <trkpt lat="44.43235" lon="1.62701">
        <ele>313</ele>
        <time>2024-03-13T15:07:31Z</time>
      </trkpt>
      <trkpt lat="44.43234" lon="1.62702">
        <ele>313</ele>
        <time>2024-03-13T15:07:32Z</time>
      </trkpt>
      <trkpt lat="44.43232" lon="1.62702">
        <ele>313</ele>
        <time>2024-03-13T15:07:33Z</time>
      </trkpt>
      <trkpt lat="44.43231" lon="1.62702">
        <ele>313</ele>
        <time>2024-03-13T15:07:34Z</time>
      </trkpt>
      <trkpt lat="44.4323" lon="1.62702">
        <ele>313</ele>
        <time>2024-03-13T15:07:35Z</time>
      </trkpt>
      <trkpt lat="44.43229" lon="1.62702">
        <ele>313</ele>
        <time>2024-03-13T15:07:36Z</time>
      </trkpt>
      <trkpt lat="44.43228" lon="1.62702">
        <ele>313</ele>
        <time>2024-03-13T15:07:37Z</time>
      </trkpt>
      <trkpt lat="44.43226" lon="1.62703">
        <ele>312</ele>
        <time>2024-03-13T15:07:38Z</time>
      </trkpt>
      <trkpt lat="44.43225" lon="1.62703">
        <ele>313</ele>
        <time>2024-03-13T15:07:39Z</time>
      </trkpt>
      <trkpt lat="44.43224" lon="1.62703">
        <ele>313</ele>
        <time>2024-03-13T15:07:40Z</time>
      </trkpt>
      <trkpt lat="44.43222" lon="1.62703">
        <ele>313</ele>
        <time>2024-03-13T15:07:41Z</time>
      </trkpt>
      <trkpt lat="44.43221" lon="1.62703">
        <ele>313</ele>
        <time>2024-03-13T15:07:42Z</time>
      </trkpt>
      <trkpt lat="44.4322" lon="1.62704">
        <ele>313</ele>
        <time>2024-03-13T15:07:43Z</time>
      </trkpt>
      <trkpt lat="44.43219" lon="1.62704">
        <ele>313</ele>
        <time>2024-03-13T15:07:44Z</time>
      </trkpt>
      <trkpt lat="44.43218" lon="1.62704">
        <ele>313</ele>
        <time>2024-03-13T15:07:45Z</time>
      </trkpt>
      <trkpt lat="44.43216" lon="1.62705">
        <ele>313</ele>
        <time>2024-03-13T15:07:46Z</time>
      </trkpt>
      <trkpt lat="44.43215" lon="1.62705">
        <ele>313</ele>
        <time>2024-03-13T15:07:47Z</time>
      </trkpt>
      <trkpt lat="44.43214" lon="1.62705">
        <ele>313</ele>
        <time>2024-03-13T15:07:48Z</time>
      </trkpt>
      <trkpt lat="44.43213" lon="1.62705">
        <ele>313</ele>
        <time>2024-03-13T15:07:49Z</time>
      </trkpt>
      <trkpt lat="44.43212" lon="1.62705">
        <ele>313</ele>
        <time>2024-03-13T15:07:50Z</time>
      </trkpt>
      <trkpt lat="44.43211" lon="1.62705">
        <ele>313</ele>
        <time>2024-03-13T15:07:51Z</time>
      </trkpt>
      <trkpt lat="44.43209" lon="1.62705">
        <ele>313</ele>
        <time>2024-03-13T15:07:52Z</time>
      </trkpt>
      <trkpt lat="44.43209" lon="1.62705">
        <ele>313</ele>
        <time>2024-03-13T15:07:53Z</time>
      </trkpt>
      <trkpt lat="44.43208" lon="1.62705">
        <ele>313</ele>
        <time>2024-03-13T15:07:54Z</time>
      </trkpt>
      <trkpt lat="44.43206" lon="1.62704">
        <ele>313</ele>
        <time>2024-03-13T15:07:55Z</time>
      </trkpt>
      <trkpt lat="44.43205" lon="1.62704">
        <ele>313</ele>
        <time>2024-03-13T15:07:56Z</time>
      </trkpt>
      <trkpt lat="44.43204" lon="1.62704">
        <ele>313</ele>
        <time>2024-03-13T15:07:57Z</time>
      </trkpt>
      <trkpt lat="44.43202" lon="1.62704">
        <ele>313</ele>
        <time>2024-03-13T15:07:58Z</time>
      </trkpt>
      <trkpt lat="44.43201" lon="1.62703">
        <ele>313</ele>
        <time>2024-03-13T15:07:59Z</time>
      </trkpt>
      <trkpt lat="44.432" lon="1.62703">
        <ele>313</ele>
        <time>2024-03-13T15:08:00Z</time>
      </trkpt>
      <trkpt lat="44.432" lon="1.62702">
        <ele>313</ele>
        <time>2024-03-13T15:08:01Z</time>
      </trkpt>
      <trkpt lat="44.43198" lon="1.62702">
        <ele>313</ele>
        <time>2024-03-13T15:08:02Z</time>
      </trkpt>
      <trkpt lat="44.43197" lon="1.62701">
        <ele>313</ele>
        <time>2024-03-13T15:08:03Z</time>
      </trkpt>
      <trkpt lat="44.43196" lon="1.62701">
        <ele>313</ele>
        <time>2024-03-13T15:08:04Z</time>
      </trkpt>
      <trkpt lat="44.43195" lon="1.627">
        <ele>313</ele>
        <time>2024-03-13T15:08:05Z</time>
      </trkpt>
      <trkpt lat="44.43194" lon="1.62699">
        <ele>313</ele>
        <time>2024-03-13T15:08:06Z</time>
      </trkpt>
      <trkpt lat="44.43194" lon="1.62698">
        <ele>314</ele>
        <time>2024-03-13T15:08:07Z</time>
      </trkpt>
      <trkpt lat="44.43193" lon="1.62697">
        <ele>314</ele>
        <time>2024-03-13T15:08:08Z</time>
      </trkpt>
      <trkpt lat="44.43192" lon="1.62696">
        <ele>314</ele>
        <time>2024-03-13T15:08:09Z</time>
      </trkpt>
      <trkpt lat="44.43191" lon="1.62695">
        <ele>314</ele>
        <time>2024-03-13T15:08:10Z</time>
      </trkpt>
      <trkpt lat="44.4319" lon="1.62694">
        <ele>314</ele>
        <time>2024-03-13T15:08:11Z</time>
      </trkpt>
      <trkpt lat="44.43189" lon="1.62693">
        <ele>314</ele>
        <time>2024-03-13T15:08:12Z</time>
      </trkpt>
      <trkpt lat="44.43188" lon="1.62691">
        <ele>315</ele>
        <time>2024-03-13T15:08:13Z</time>
      </trkpt>
      <trkpt lat="44.43187" lon="1.6269">
        <ele>316</ele>
        <time>2024-03-13T15:08:14Z</time>
      </trkpt>
      <trkpt lat="44.43186" lon="1.62689">
        <ele>316</ele>
        <time>2024-03-13T15:08:15Z</time>
      </trkpt>
      <trkpt lat="44.43185" lon="1.62688">
        <ele>316</ele>
        <time>2024-03-13T15:08:16Z</time>
      </trkpt>
      <trkpt lat="44.43184" lon="1.62686">
        <ele>316</ele>
        <time>2024-03-13T15:08:17Z</time>
      </trkpt>
      <trkpt lat="44.43184" lon="1.62685">
        <ele>316</ele>
        <time>2024-03-13T15:08:18Z</time>
      </trkpt>
      <trkpt lat="44.43183" lon="1.62684">
        <ele>316</ele>
        <time>2024-03-13T15:08:19Z</time>
      </trkpt>
      <trkpt lat="44.43182" lon="1.62683">
        <ele>316</ele>
        <time>2024-03-13T15:08:20Z</time>
      </trkpt>
      <trkpt lat="44.43181" lon="1.62682">
        <ele>316</ele>
        <time>2024-03-13T15:08:21Z</time>
      </trkpt>
      <trkpt lat="44.4318" lon="1.62681">
        <ele>316</ele>
        <time>2024-03-13T15:08:22Z</time>
      </trkpt>
      <trkpt lat="44.4318" lon="1.6268">
        <ele>316</ele>
        <time>2024-03-13T15:08:23Z</time>
      </trkpt>
      <trkpt lat="44.43179" lon="1.62679">
        <ele>316</ele>
        <time>2024-03-13T15:08:24Z</time>
      </trkpt>
      <trkpt lat="44.43178" lon="1.62678">
        <ele>316</ele>
        <time>2024-03-13T15:08:25Z</time>
      </trkpt>
      <trkpt lat="44.43177" lon="1.62678">
        <ele>316</ele>
        <time>2024-03-13T15:08:26Z</time>
      </trkpt>
      <trkpt lat="44.43177" lon="1.62677">
        <ele>316</ele>
        <time>2024-03-13T15:08:27Z</time>
      </trkpt>
      <trkpt lat="44.43176" lon="1.62676">
        <ele>317</ele>
        <time>2024-03-13T15:08:28Z</time>
      </trkpt>
      <trkpt lat="44.43175" lon="1.62676">
        <ele>317</ele>
        <time>2024-03-13T15:08:29Z</time>
      </trkpt>
      <trkpt lat="44.43174" lon="1.62675">
        <ele>317</ele>
        <time>2024-03-13T15:08:30Z</time>
      </trkpt>
      <trkpt lat="44.43174" lon="1.62674">
        <ele>317</ele>
        <time>2024-03-13T15:08:31Z</time>
      </trkpt>
      <trkpt lat="44.43173" lon="1.62673">
        <ele>317</ele>
        <time>2024-03-13T15:08:32Z</time>
      </trkpt>
      <trkpt lat="44.43172" lon="1.62672">
        <ele>317</ele>
        <time>2024-03-13T15:08:33Z</time>
      </trkpt>
      <trkpt lat="44.43171" lon="1.62672">
        <ele>317</ele>
        <time>2024-03-13T15:08:34Z</time>
      </trkpt>
      <trkpt lat="44.43171" lon="1.62671">
        <ele>317</ele>
        <time>2024-03-13T15:08:35Z</time>
      </trkpt>
      <trkpt lat="44.4317" lon="1.62671">
        <ele>318</ele>
        <time>2024-03-13T15:08:36Z</time>
      </trkpt>
      <trkpt lat="44.43169" lon="1.6267">
        <ele>317</ele>
        <time>2024-03-13T15:08:37Z</time>
      </trkpt>
      <trkpt lat="44.43168" lon="1.62669">
        <ele>318</ele>
        <time>2024-03-13T15:08:38Z</time>
      </trkpt>
      <trkpt lat="44.43167" lon="1.62668">
        <ele>318</ele>
        <time>2024-03-13T15:08:39Z</time>
      </trkpt>
      <trkpt lat="44.43166" lon="1.62667">
        <ele>318</ele>
        <time>2024-03-13T15:08:40Z</time>
      </trkpt>
      <trkpt lat="44.43166" lon="1.62666">
        <ele>319</ele>
        <time>2024-03-13T15:08:41Z</time>
      </trkpt>
      <trkpt lat="44.43165" lon="1.62665">
        <ele>319</ele>
        <time>2024-03-13T15:08:42Z</time>
      </trkpt>
      <trkpt lat="44.43164" lon="1.62664">
        <ele>319</ele>
        <time>2024-03-13T15:08:43Z</time>
      </trkpt>
      <trkpt lat="44.43163" lon="1.62663">
        <ele>319</ele>
        <time>2024-03-13T15:08:44Z</time>
      </trkpt>
      <trkpt lat="44.43163" lon="1.62662">
        <ele>319</ele>
        <time>2024-03-13T15:08:45Z</time>
      </trkpt>
      <trkpt lat="44.43162" lon="1.62661">
        <ele>319</ele>
        <time>2024-03-13T15:08:46Z</time>
      </trkpt>
      <trkpt lat="44.43161" lon="1.6266">
        <ele>319</ele>
        <time>2024-03-13T15:08:47Z</time>
      </trkpt>
      <trkpt lat="44.4316" lon="1.6266">
        <ele>319</ele>
        <time>2024-03-13T15:08:48Z</time>
      </trkpt>
      <trkpt lat="44.43159" lon="1.62659">
        <ele>320</ele>
        <time>2024-03-13T15:08:49Z</time>
      </trkpt>
      <trkpt lat="44.43158" lon="1.62658">
        <ele>320</ele>
        <time>2024-03-13T15:08:50Z</time>
      </trkpt>
      <trkpt lat="44.43157" lon="1.62658">
        <ele>320</ele>
        <time>2024-03-13T15:08:51Z</time>
      </trkpt>
      <trkpt lat="44.43156" lon="1.62657">
        <ele>320</ele>
        <time>2024-03-13T15:08:52Z</time>
      </trkpt>
      <trkpt lat="44.43155" lon="1.62656">
        <ele>320</ele>
        <time>2024-03-13T15:08:53Z</time>
      </trkpt>
      <trkpt lat="44.43155" lon="1.62656">
        <ele>320</ele>
        <time>2024-03-13T15:08:54Z</time>
      </trkpt>
      <trkpt lat="44.43154" lon="1.62655">
        <ele>320</ele>
        <time>2024-03-13T15:08:55Z</time>
      </trkpt>
      <trkpt lat="44.43153" lon="1.62655">
        <ele>320</ele>
        <time>2024-03-13T15:08:56Z</time>
      </trkpt>
      <trkpt lat="44.43152" lon="1.62654">
        <ele>320</ele>
        <time>2024-03-13T15:08:57Z</time>
      </trkpt>
      <trkpt lat="44.43151" lon="1.62653">
        <ele>320</ele>
        <time>2024-03-13T15:08:58Z</time>
      </trkpt>
      <trkpt lat="44.4315" lon="1.62652">
        <ele>320</ele>
        <time>2024-03-13T15:08:59Z</time>
      </trkpt>
      <trkpt lat="44.43149" lon="1.62652">
        <ele>321</ele>
        <time>2024-03-13T15:09:00Z</time>
      </trkpt>
      <trkpt lat="44.43148" lon="1.62651">
        <ele>321</ele>
        <time>2024-03-13T15:09:01Z</time>
      </trkpt>
      <trkpt lat="44.43147" lon="1.62649">
        <ele>321</ele>
        <time>2024-03-13T15:09:02Z</time>
      </trkpt>
      <trkpt lat="44.43146" lon="1.62648">
        <ele>321</ele>
        <time>2024-03-13T15:09:03Z</time>
      </trkpt>
      <trkpt lat="44.43145" lon="1.62647">
        <ele>321</ele>
        <time>2024-03-13T15:09:04Z</time>
      </trkpt>
      <trkpt lat="44.43144" lon="1.62645">
        <ele>321</ele>
        <time>2024-03-13T15:09:05Z</time>
      </trkpt>
      <trkpt lat="44.43143" lon="1.62644">
        <ele>321</ele>
        <time>2024-03-13T15:09:06Z</time>
      </trkpt>
      <trkpt lat="44.43141" lon="1.62643">
        <ele>321</ele>
        <time>2024-03-13T15:09:07Z</time>
      </trkpt>
      <trkpt lat="44.4314" lon="1.62643">
        <ele>321</ele>
        <time>2024-03-13T15:09:08Z</time>
      </trkpt>
      <trkpt lat="44.43139" lon="1.62642">
        <ele>322</ele>
        <time>2024-03-13T15:09:09Z</time>
      </trkpt>
      <trkpt lat="44.43137" lon="1.6264">
        <ele>322</ele>
        <time>2024-03-13T15:09:10Z</time>
      </trkpt>
      <trkpt lat="44.43136" lon="1.6264">
        <ele>322</ele>
        <time>2024-03-13T15:09:11Z</time>
      </trkpt>
      <trkpt lat="44.43135" lon="1.62639">
        <ele>322</ele>
        <time>2024-03-13T15:09:12Z</time>
      </trkpt>
      <trkpt lat="44.43134" lon="1.62638">
        <ele>322</ele>
        <time>2024-03-13T15:09:13Z</time>
      </trkpt>
      <trkpt lat="44.43133" lon="1.62637">
        <ele>322</ele>
        <time>2024-03-13T15:09:14Z</time>
      </trkpt>
      <trkpt lat="44.43132" lon="1.62636">
        <ele>322</ele>
        <time>2024-03-13T15:09:15Z</time>
      </trkpt>
      <trkpt lat="44.43131" lon="1.62634">
        <ele>322</ele>
        <time>2024-03-13T15:09:16Z</time>
      </trkpt>
      <trkpt lat="44.4313" lon="1.62633">
        <ele>322</ele>
        <time>2024-03-13T15:09:17Z</time>
      </trkpt>
      <trkpt lat="44.43129" lon="1.62632">
        <ele>323</ele>
        <time>2024-03-13T15:09:18Z</time>
      </trkpt>
      <trkpt lat="44.43128" lon="1.62631">
        <ele>323</ele>
        <time>2024-03-13T15:09:19Z</time>
      </trkpt>
      <trkpt lat="44.43127" lon="1.62629">
        <ele>323</ele>
        <time>2024-03-13T15:09:20Z</time>
      </trkpt>
      <trkpt lat="44.43127" lon="1.62628">
        <ele>323</ele>
        <time>2024-03-13T15:09:21Z</time>
      </trkpt>
      <trkpt lat="44.43126" lon="1.62627">
        <ele>323</ele>
        <time>2024-03-13T15:09:22Z</time>
      </trkpt>
      <trkpt lat="44.43125" lon="1.62626">
        <ele>322</ele>
        <time>2024-03-13T15:09:23Z</time>
      </trkpt>
      <trkpt lat="44.43124" lon="1.62625">
        <ele>322</ele>
        <time>2024-03-13T15:09:24Z</time>
      </trkpt>
      <trkpt lat="44.43124" lon="1.62623">
        <ele>322</ele>
        <time>2024-03-13T15:09:25Z</time>
      </trkpt>
      <trkpt lat="44.43123" lon="1.62622">
        <ele>322</ele>
        <time>2024-03-13T15:09:26Z</time>
      </trkpt>
      <trkpt lat="44.43122" lon="1.62621">
        <ele>322</ele>
        <time>2024-03-13T15:09:27Z</time>
      </trkpt>
      <trkpt lat="44.43121" lon="1.6262">
        <ele>323</ele>
        <time>2024-03-13T15:09:28Z</time>
      </trkpt>
      <trkpt lat="44.43121" lon="1.62619">
        <ele>323</ele>
        <time>2024-03-13T15:09:29Z</time>
      </trkpt>
      <trkpt lat="44.4312" lon="1.62619">
        <ele>322</ele>
        <time>2024-03-13T15:09:30Z</time>
      </trkpt>
      <trkpt lat="44.43119" lon="1.62618">
        <ele>323</ele>
        <time>2024-03-13T15:09:31Z</time>
      </trkpt>
      <trkpt lat="44.43119" lon="1.62618">
        <ele>323</ele>
        <time>2024-03-13T15:09:32Z</time>
      </trkpt>
      <trkpt lat="44.43119" lon="1.62618">
        <ele>323</ele>
        <time>2024-03-13T15:09:33Z</time>
      </trkpt>
      <trkpt lat="44.43119" lon="1.62618">
        <ele>323</ele>
        <time>2024-03-13T15:09:34Z</time>
      </trkpt>
      <trkpt lat="44.43119" lon="1.62618">
        <ele>323</ele>
        <time>2024-03-13T15:09:35Z</time>
      </trkpt>
      <trkpt lat="44.43119" lon="1.62617">
        <ele>323</ele>
        <time>2024-03-13T15:09:36Z</time>
      </trkpt>
      <trkpt lat="44.43119" lon="1.62616">
        <ele>323</ele>
        <time>2024-03-13T15:09:37Z</time>
      </trkpt>
      <trkpt lat="44.43119" lon="1.62616">
        <ele>323</ele>
        <time>2024-03-13T15:09:38Z</time>
      </trkpt>
      <trkpt lat="44.43119" lon="1.62615">
        <ele>323</ele>
        <time>2024-03-13T15:09:39Z</time>
      </trkpt>
      <trkpt lat="44.43119" lon="1.62614">
        <ele>322</ele>
        <time>2024-03-13T15:09:40Z</time>
      </trkpt>
      <trkpt lat="44.43119" lon="1.62613">
        <ele>322</ele>
        <time>2024-03-13T15:09:41Z</time>
      </trkpt>
      <trkpt lat="44.43119" lon="1.62611">
        <ele>322</ele>
        <time>2024-03-13T15:09:42Z</time>
      </trkpt>
      <trkpt lat="44.43118" lon="1.6261">
        <ele>322</ele>
        <time>2024-03-13T15:09:43Z</time>
      </trkpt>
      <trkpt lat="44.43118" lon="1.62609">
        <ele>323</ele>
        <time>2024-03-13T15:09:44Z</time>
      </trkpt>
      <trkpt lat="44.43118" lon="1.6261">
        <ele>323</ele>
        <time>2024-03-13T15:09:45Z</time>
      </trkpt>
      <trkpt lat="44.43118" lon="1.6261">
        <ele>323</ele>
        <time>2024-03-13T15:09:46Z</time>
      </trkpt>
      <trkpt lat="44.43118" lon="1.6261">
        <ele>323</ele>
        <time>2024-03-13T15:09:47Z</time>
      </trkpt>
      <trkpt lat="44.43118" lon="1.6261">
        <ele>323</ele>
        <time>2024-03-13T15:09:48Z</time>
      </trkpt>
      <trkpt lat="44.43118" lon="1.6261">
        <ele>323</ele>
        <time>2024-03-13T15:09:49Z</time>
      </trkpt>
      <trkpt lat="44.43118" lon="1.6261">
        <ele>323</ele>
        <time>2024-03-13T15:09:50Z</time>
      </trkpt>
      <trkpt lat="44.43118" lon="1.6261">
        <ele>323</ele>
        <time>2024-03-13T15:09:51Z</time>
      </trkpt>
      <trkpt lat="44.43118" lon="1.6261">
        <ele>323</ele>
        <time>2024-03-13T15:09:52Z</time>
      </trkpt>
      <trkpt lat="44.43118" lon="1.6261">
        <ele>323</ele>
        <time>2024-03-13T15:09:53Z</time>
      </trkpt>
      <trkpt lat="44.43118" lon="1.6261">
        <ele>323</ele>
        <time>2024-03-13T15:09:54Z</time>
      </trkpt>
      <trkpt lat="44.43118" lon="1.6261">
        <ele>323</ele>
        <time>2024-03-13T15:09:55Z</time>
      </trkpt>
      <trkpt lat="44.43118" lon="1.6261">
        <ele>323</ele>
        <time>2024-03-13T15:09:56Z</time>
      </trkpt>
      <trkpt lat="44.43117" lon="1.62608">
        <ele>321</ele>
        <time>2024-03-13T15:09:57Z</time>
      </trkpt>
      <trkpt lat="44.43117" lon="1.62607">
        <ele>321</ele>
        <time>2024-03-13T15:09:58Z</time>
      </trkpt>
      <trkpt lat="44.43118" lon="1.62606">
        <ele>322</ele>
        <time>2024-03-13T15:09:59Z</time>
      </trkpt>
      <trkpt lat="44.43118" lon="1.62605">
        <ele>322</ele>
        <time>2024-03-13T15:10:00Z</time>
      </trkpt>
      <trkpt lat="44.43118" lon="1.62604">
        <ele>322</ele>
        <time>2024-03-13T15:10:01Z</time>
      </trkpt>
      <trkpt lat="44.43118" lon="1.62603">
        <ele>323</ele>
        <time>2024-03-13T15:10:02Z</time>
      </trkpt>
      <trkpt lat="44.43119" lon="1.62602">
        <ele>322</ele>
        <time>2024-03-13T15:10:03Z</time>
      </trkpt>
      <trkpt lat="44.43119" lon="1.626">
        <ele>322</ele>
        <time>2024-03-13T15:10:04Z</time>
      </trkpt>
      <trkpt lat="44.43119" lon="1.62599">
        <ele>322</ele>
        <time>2024-03-13T15:10:05Z</time>
      </trkpt>
      <trkpt lat="44.43119" lon="1.62598">
        <ele>323</ele>
        <time>2024-03-13T15:10:06Z</time>
      </trkpt>
      <trkpt lat="44.43119" lon="1.62597">
        <ele>322</ele>
        <time>2024-03-13T15:10:07Z</time>
      </trkpt>
      <trkpt lat="44.43119" lon="1.62596">
        <ele>322</ele>
        <time>2024-03-13T15:10:08Z</time>
      </trkpt>
      <trkpt lat="44.43119" lon="1.62595">
        <ele>322</ele>
        <time>2024-03-13T15:10:09Z</time>
      </trkpt>
      <trkpt lat="44.43119" lon="1.62594">
        <ele>322</ele>
        <time>2024-03-13T15:10:10Z</time>
      </trkpt>
      <trkpt lat="44.43119" lon="1.62592">
        <ele>323</ele>
        <time>2024-03-13T15:10:11Z</time>
      </trkpt>
      <trkpt lat="44.4312" lon="1.62591">
        <ele>323</ele>
        <time>2024-03-13T15:10:12Z</time>
      </trkpt>
      <trkpt lat="44.4312" lon="1.6259">
        <ele>323</ele>
        <time>2024-03-13T15:10:13Z</time>
      </trkpt>
      <trkpt lat="44.4312" lon="1.62589">
        <ele>323</ele>
        <time>2024-03-13T15:10:14Z</time>
      </trkpt>
      <trkpt lat="44.4312" lon="1.62587">
        <ele>323</ele>
        <time>2024-03-13T15:10:15Z</time>
      </trkpt>
      <trkpt lat="44.4312" lon="1.62586">
        <ele>323</ele>
        <time>2024-03-13T15:10:16Z</time>
      </trkpt>
      <trkpt lat="44.4312" lon="1.62585">
        <ele>323</ele>
        <time>2024-03-13T15:10:17Z</time>
      </trkpt>
      <trkpt lat="44.43121" lon="1.62583">
        <ele>323</ele>
        <time>2024-03-13T15:10:18Z</time>
      </trkpt>
      <trkpt lat="44.43121" lon="1.62582">
        <ele>323</ele>
        <time>2024-03-13T15:10:19Z</time>
      </trkpt>
      <trkpt lat="44.4312" lon="1.62581">
        <ele>323</ele>
        <time>2024-03-13T15:10:20Z</time>
      </trkpt>
      <trkpt lat="44.43121" lon="1.6258">
        <ele>323</ele>
        <time>2024-03-13T15:10:21Z</time>
      </trkpt>
      <trkpt lat="44.4312" lon="1.62579">
        <ele>323</ele>
        <time>2024-03-13T15:10:22Z</time>
      </trkpt>
      <trkpt lat="44.4312" lon="1.62578">
        <ele>323</ele>
        <time>2024-03-13T15:10:23Z</time>
      </trkpt>
      <trkpt lat="44.4312" lon="1.62578">
        <ele>323</ele>
        <time>2024-03-13T15:10:24Z</time>
      </trkpt>
      <trkpt lat="44.4312" lon="1.62578">
        <ele>323</ele>
        <time>2024-03-13T15:10:25Z</time>
      </trkpt>
      <trkpt lat="44.43121" lon="1.62575">
        <ele>323</ele>
        <time>2024-03-13T15:10:26Z</time>
      </trkpt>
      <trkpt lat="44.43121" lon="1.62574">
        <ele>323</ele>
        <time>2024-03-13T15:10:27Z</time>
      </trkpt>
      <trkpt lat="44.43121" lon="1.62573">
        <ele>323</ele>
        <time>2024-03-13T15:10:28Z</time>
      </trkpt>
      <trkpt lat="44.43121" lon="1.62571">
        <ele>323</ele>
        <time>2024-03-13T15:10:29Z</time>
      </trkpt>
      <trkpt lat="44.43121" lon="1.6257">
        <ele>323</ele>
        <time>2024-03-13T15:10:30Z</time>
      </trkpt>
      <trkpt lat="44.43121" lon="1.62569">
        <ele>323</ele>
        <time>2024-03-13T15:10:31Z</time>
      </trkpt>
      <trkpt lat="44.43121" lon="1.62567">
        <ele>323</ele>
        <time>2024-03-13T15:10:32Z</time>
      </trkpt>
      <trkpt lat="44.43121" lon="1.62566">
        <ele>323</ele>
        <time>2024-03-13T15:10:33Z</time>
      </trkpt>
      <trkpt lat="44.43121" lon="1.62565">
        <ele>323</ele>
        <time>2024-03-13T15:10:34Z</time>
      </trkpt>
      <trkpt lat="44.43122" lon="1.62564">
        <ele>323</ele>
        <time>2024-03-13T15:10:35Z</time>
      </trkpt>
      <trkpt lat="44.43122" lon="1.62563">
        <ele>323</ele>
        <time>2024-03-13T15:10:36Z</time>
      </trkpt>
      <trkpt lat="44.43122" lon="1.62561">
        <ele>323</ele>
        <time>2024-03-13T15:10:37Z</time>
      </trkpt>
      <trkpt lat="44.43122" lon="1.6256">
        <ele>323</ele>
        <time>2024-03-13T15:10:38Z</time>
      </trkpt>
      <trkpt lat="44.43122" lon="1.62559">
        <ele>324</ele>
        <time>2024-03-13T15:10:39Z</time>
      </trkpt>
      <trkpt lat="44.43122" lon="1.62557">
        <ele>324</ele>
        <time>2024-03-13T15:10:40Z</time>
      </trkpt>
      <trkpt lat="44.43123" lon="1.62556">
        <ele>324</ele>
        <time>2024-03-13T15:10:41Z</time>
      </trkpt>
      <trkpt lat="44.43123" lon="1.62554">
        <ele>324</ele>
        <time>2024-03-13T15:10:42Z</time>
      </trkpt>
      <trkpt lat="44.43123" lon="1.62553">
        <ele>324</ele>
        <time>2024-03-13T15:10:43Z</time>
      </trkpt>
      <trkpt lat="44.43124" lon="1.62552">
        <ele>324</ele>
        <time>2024-03-13T15:10:44Z</time>
      </trkpt>
      <trkpt lat="44.43124" lon="1.62551">
        <ele>324</ele>
        <time>2024-03-13T15:10:45Z</time>
      </trkpt>
      <trkpt lat="44.43124" lon="1.62549">
        <ele>324</ele>
        <time>2024-03-13T15:10:46Z</time>
      </trkpt>
      <trkpt lat="44.43124" lon="1.62548">
        <ele>324</ele>
        <time>2024-03-13T15:10:47Z</time>
      </trkpt>
      <trkpt lat="44.43125" lon="1.62547">
        <ele>324</ele>
        <time>2024-03-13T15:10:48Z</time>
      </trkpt>
      <trkpt lat="44.43125" lon="1.62545">
        <ele>324</ele>
        <time>2024-03-13T15:10:49Z</time>
      </trkpt>
      <trkpt lat="44.43126" lon="1.62544">
        <ele>324</ele>
        <time>2024-03-13T15:10:50Z</time>
      </trkpt>
      <trkpt lat="44.43126" lon="1.62543">
        <ele>324</ele>
        <time>2024-03-13T15:10:51Z</time>
      </trkpt>
      <trkpt lat="44.43126" lon="1.62542">
        <ele>325</ele>
        <time>2024-03-13T15:10:52Z</time>
      </trkpt>
      <trkpt lat="44.43126" lon="1.62541">
        <ele>325</ele>
        <time>2024-03-13T15:10:53Z</time>
      </trkpt>
      <trkpt lat="44.43126" lon="1.6254">
        <ele>325</ele>
        <time>2024-03-13T15:10:54Z</time>
      </trkpt>
      <trkpt lat="44.43126" lon="1.62539">
        <ele>325</ele>
        <time>2024-03-13T15:10:55Z</time>
      </trkpt>
      <trkpt lat="44.43127" lon="1.62537">
        <ele>325</ele>
        <time>2024-03-13T15:10:56Z</time>
      </trkpt>
      <trkpt lat="44.43127" lon="1.62536">
        <ele>325</ele>
        <time>2024-03-13T15:10:57Z</time>
      </trkpt>
      <trkpt lat="44.43127" lon="1.62535">
        <ele>325</ele>
        <time>2024-03-13T15:10:58Z</time>
      </trkpt>
      <trkpt lat="44.43128" lon="1.62534">
        <ele>325</ele>
        <time>2024-03-13T15:10:59Z</time>
      </trkpt>
      <trkpt lat="44.43128" lon="1.62533">
        <ele>326</ele>
        <time>2024-03-13T15:11:00Z</time>
      </trkpt>
      <trkpt lat="44.43129" lon="1.62531">
        <ele>326</ele>
        <time>2024-03-13T15:11:01Z</time>
      </trkpt>
      <trkpt lat="44.43129" lon="1.6253">
        <ele>327</ele>
        <time>2024-03-13T15:11:02Z</time>
      </trkpt>
      <trkpt lat="44.43129" lon="1.62529">
        <ele>326</ele>
        <time>2024-03-13T15:11:03Z</time>
      </trkpt>
      <trkpt lat="44.4313" lon="1.62528">
        <ele>327</ele>
        <time>2024-03-13T15:11:04Z</time>
      </trkpt>
      <trkpt lat="44.4313" lon="1.62527">
        <ele>327</ele>
        <time>2024-03-13T15:11:05Z</time>
      </trkpt>
      <trkpt lat="44.4313" lon="1.62526">
        <ele>327</ele>
        <time>2024-03-13T15:11:06Z</time>
      </trkpt>
      <trkpt lat="44.43131" lon="1.62524">
        <ele>327</ele>
        <time>2024-03-13T15:11:07Z</time>
      </trkpt>
      <trkpt lat="44.43131" lon="1.62523">
        <ele>326</ele>
        <time>2024-03-13T15:11:08Z</time>
      </trkpt>
      <trkpt lat="44.43132" lon="1.62521">
        <ele>327</ele>
        <time>2024-03-13T15:11:09Z</time>
      </trkpt>
      <trkpt lat="44.43132" lon="1.6252">
        <ele>326</ele>
        <time>2024-03-13T15:11:10Z</time>
      </trkpt>
      <trkpt lat="44.43132" lon="1.62518">
        <ele>326</ele>
        <time>2024-03-13T15:11:11Z</time>
      </trkpt>
      <trkpt lat="44.43133" lon="1.62517">
        <ele>326</ele>
        <time>2024-03-13T15:11:12Z</time>
      </trkpt>
      <trkpt lat="44.43133" lon="1.62515">
        <ele>327</ele>
        <time>2024-03-13T15:11:13Z</time>
      </trkpt>
      <trkpt lat="44.43134" lon="1.62514">
        <ele>327</ele>
        <time>2024-03-13T15:11:14Z</time>
      </trkpt>
      <trkpt lat="44.43134" lon="1.62512">
        <ele>326</ele>
        <time>2024-03-13T15:11:15Z</time>
      </trkpt>
      <trkpt lat="44.43135" lon="1.62511">
        <ele>326</ele>
        <time>2024-03-13T15:11:16Z</time>
      </trkpt>
      <trkpt lat="44.43135" lon="1.62509">
        <ele>327</ele>
        <time>2024-03-13T15:11:17Z</time>
      </trkpt>
      <trkpt lat="44.43136" lon="1.62508">
        <ele>327</ele>
        <time>2024-03-13T15:11:18Z</time>
      </trkpt>
      <trkpt lat="44.43137" lon="1.62507">
        <ele>327</ele>
        <time>2024-03-13T15:11:19Z</time>
      </trkpt>
      <trkpt lat="44.43137" lon="1.62506">
        <ele>327</ele>
        <time>2024-03-13T15:11:20Z</time>
      </trkpt>
      <trkpt lat="44.43138" lon="1.62506">
        <ele>327</ele>
        <time>2024-03-13T15:11:21Z</time>
      </trkpt>
      <trkpt lat="44.43138" lon="1.62504">
        <ele>327</ele>
        <time>2024-03-13T15:11:22Z</time>
      </trkpt>
      <trkpt lat="44.43139" lon="1.62503">
        <ele>328</ele>
        <time>2024-03-13T15:11:23Z</time>
      </trkpt>
      <trkpt lat="44.4314" lon="1.62502">
        <ele>327</ele>
        <time>2024-03-13T15:11:24Z</time>
      </trkpt>
      <trkpt lat="44.4314" lon="1.62501">
        <ele>327</ele>
        <time>2024-03-13T15:11:25Z</time>
      </trkpt>
      <trkpt lat="44.43141" lon="1.625">
        <ele>327</ele>
        <time>2024-03-13T15:11:26Z</time>
      </trkpt>
      <trkpt lat="44.43142" lon="1.62499">
        <ele>327</ele>
        <time>2024-03-13T15:11:27Z</time>
      </trkpt>
      <trkpt lat="44.43142" lon="1.62498">
        <ele>327</ele>
        <time>2024-03-13T15:11:28Z</time>
      </trkpt>
      <trkpt lat="44.43143" lon="1.62497">
        <ele>327</ele>
        <time>2024-03-13T15:11:29Z</time>
      </trkpt>
      <trkpt lat="44.43143" lon="1.62496">
        <ele>327</ele>
        <time>2024-03-13T15:11:30Z</time>
      </trkpt>
      <trkpt lat="44.43144" lon="1.62495">
        <ele>328</ele>
        <time>2024-03-13T15:11:31Z</time>
      </trkpt>
      <trkpt lat="44.43145" lon="1.62494">
        <ele>328</ele>
        <time>2024-03-13T15:11:32Z</time>
      </trkpt>
      <trkpt lat="44.43146" lon="1.62494">
        <ele>327</ele>
        <time>2024-03-13T15:11:33Z</time>
      </trkpt>
      <trkpt lat="44.43146" lon="1.62492">
        <ele>328</ele>
        <time>2024-03-13T15:11:34Z</time>
      </trkpt>
      <trkpt lat="44.43147" lon="1.62491">
        <ele>328</ele>
        <time>2024-03-13T15:11:35Z</time>
      </trkpt>
      <trkpt lat="44.43147" lon="1.62491">
        <ele>328</ele>
        <time>2024-03-13T15:11:36Z</time>
      </trkpt>
      <trkpt lat="44.43148" lon="1.62489">
        <ele>327</ele>
        <time>2024-03-13T15:11:37Z</time>
      </trkpt>
      <trkpt lat="44.43149" lon="1.62488">
        <ele>328</ele>
        <time>2024-03-13T15:11:38Z</time>
      </trkpt>
      <trkpt lat="44.4315" lon="1.62487">
        <ele>327</ele>
        <time>2024-03-13T15:11:39Z</time>
      </trkpt>
      <trkpt lat="44.43151" lon="1.62486">
        <ele>327</ele>
        <time>2024-03-13T15:11:40Z</time>
      </trkpt>
      <trkpt lat="44.43151" lon="1.62485">
        <ele>327</ele>
        <time>2024-03-13T15:11:41Z</time>
      </trkpt>
      <trkpt lat="44.43152" lon="1.62484">
        <ele>327</ele>
        <time>2024-03-13T15:11:42Z</time>
      </trkpt>
      <trkpt lat="44.43153" lon="1.62483">
        <ele>328</ele>
        <time>2024-03-13T15:11:43Z</time>
      </trkpt>
      <trkpt lat="44.43154" lon="1.62482">
        <ele>328</ele>
        <time>2024-03-13T15:11:44Z</time>
      </trkpt>
      <trkpt lat="44.43155" lon="1.62481">
        <ele>328</ele>
        <time>2024-03-13T15:11:45Z</time>
      </trkpt>
      <trkpt lat="44.43156" lon="1.6248">
        <ele>328</ele>
        <time>2024-03-13T15:11:46Z</time>
      </trkpt>
      <trkpt lat="44.43156" lon="1.6248">
        <ele>328</ele>
        <time>2024-03-13T15:11:47Z</time>
      </trkpt>
      <trkpt lat="44.43158" lon="1.62479">
        <ele>328</ele>
        <time>2024-03-13T15:11:48Z</time>
      </trkpt>
      <trkpt lat="44.43158" lon="1.62478">
        <ele>328</ele>
        <time>2024-03-13T15:11:49Z</time>
      </trkpt>
      <trkpt lat="44.43159" lon="1.62477">
        <ele>328</ele>
        <time>2024-03-13T15:11:50Z</time>
      </trkpt>
      <trkpt lat="44.43159" lon="1.62476">
        <ele>328</ele>
        <time>2024-03-13T15:11:51Z</time>
      </trkpt>
      <trkpt lat="44.43161" lon="1.62475">
        <ele>328</ele>
        <time>2024-03-13T15:11:52Z</time>
      </trkpt>
      <trkpt lat="44.43161" lon="1.62474">
        <ele>328</ele>
        <time>2024-03-13T15:11:53Z</time>
      </trkpt>
      <trkpt lat="44.43162" lon="1.62473">
        <ele>329</ele>
        <time>2024-03-13T15:11:54Z</time>
      </trkpt>
      <trkpt lat="44.43163" lon="1.62472">
        <ele>329</ele>
        <time>2024-03-13T15:11:55Z</time>
      </trkpt>
      <trkpt lat="44.43163" lon="1.62471">
        <ele>329</ele>
        <time>2024-03-13T15:11:56Z</time>
      </trkpt>
      <trkpt lat="44.43164" lon="1.6247">
        <ele>329</ele>
        <time>2024-03-13T15:11:57Z</time>
      </trkpt>
      <trkpt lat="44.43165" lon="1.62469">
        <ele>330</ele>
        <time>2024-03-13T15:11:58Z</time>
      </trkpt>
      <trkpt lat="44.43166" lon="1.62468">
        <ele>329</ele>
        <time>2024-03-13T15:11:59Z</time>
      </trkpt>
      <trkpt lat="44.43167" lon="1.62467">
        <ele>329</ele>
        <time>2024-03-13T15:12:00Z</time>
      </trkpt>
      <trkpt lat="44.43168" lon="1.62466">
        <ele>329</ele>
        <time>2024-03-13T15:12:01Z</time>
      </trkpt>
      <trkpt lat="44.43169" lon="1.62465">
        <ele>329</ele>
        <time>2024-03-13T15:12:02Z</time>
      </trkpt>
      <trkpt lat="44.43169" lon="1.62464">
        <ele>330</ele>
        <time>2024-03-13T15:12:03Z</time>
      </trkpt>
      <trkpt lat="44.4317" lon="1.62463">
        <ele>329</ele>
        <time>2024-03-13T15:12:04Z</time>
      </trkpt>
      <trkpt lat="44.43171" lon="1.62463">
        <ele>329</ele>
        <time>2024-03-13T15:12:05Z</time>
      </trkpt>
      <trkpt lat="44.43172" lon="1.62461">
        <ele>330</ele>
        <time>2024-03-13T15:12:06Z</time>
      </trkpt>
      <trkpt lat="44.43173" lon="1.6246">
        <ele>330</ele>
        <time>2024-03-13T15:12:07Z</time>
      </trkpt>
      <trkpt lat="44.43174" lon="1.62458">
        <ele>330</ele>
        <time>2024-03-13T15:12:08Z</time>
      </trkpt>
      <trkpt lat="44.43175" lon="1.62457">
        <ele>330</ele>
        <time>2024-03-13T15:12:09Z</time>
      </trkpt>
      <trkpt lat="44.43176" lon="1.62457">
        <ele>330</ele>
        <time>2024-03-13T15:12:10Z</time>
      </trkpt>
      <trkpt lat="44.43176" lon="1.62457">
        <ele>330</ele>
        <time>2024-03-13T15:12:11Z</time>
      </trkpt>
      <trkpt lat="44.43176" lon="1.62456">
        <ele>330</ele>
        <time>2024-03-13T15:12:12Z</time>
      </trkpt>
      <trkpt lat="44.43177" lon="1.62455">
        <ele>330</ele>
        <time>2024-03-13T15:12:13Z</time>
      </trkpt>
      <trkpt lat="44.43177" lon="1.62454">
        <ele>330</ele>
        <time>2024-03-13T15:12:14Z</time>
      </trkpt>
      <trkpt lat="44.43178" lon="1.62453">
        <ele>330</ele>
        <time>2024-03-13T15:12:15Z</time>
      </trkpt>
      <trkpt lat="44.43179" lon="1.62452">
        <ele>330</ele>
        <time>2024-03-13T15:12:16Z</time>
      </trkpt>
      <trkpt lat="44.4318" lon="1.62451">
        <ele>331</ele>
        <time>2024-03-13T15:12:17Z</time>
      </trkpt>
      <trkpt lat="44.43181" lon="1.6245">
        <ele>331</ele>
        <time>2024-03-13T15:12:18Z</time>
      </trkpt>
      <trkpt lat="44.43181" lon="1.62449">
        <ele>331</ele>
        <time>2024-03-13T15:12:19Z</time>
      </trkpt>
      <trkpt lat="44.43182" lon="1.62448">
        <ele>331</ele>
        <time>2024-03-13T15:12:20Z</time>
      </trkpt>
      <trkpt lat="44.43183" lon="1.62447">
        <ele>331</ele>
        <time>2024-03-13T15:12:21Z</time>
      </trkpt>
      <trkpt lat="44.43183" lon="1.62446">
        <ele>331</ele>
        <time>2024-03-13T15:12:22Z</time>
      </trkpt>
      <trkpt lat="44.43184" lon="1.62446">
        <ele>331</ele>
        <time>2024-03-13T15:12:23Z</time>
      </trkpt>
      <trkpt lat="44.43184" lon="1.62444">
        <ele>332</ele>
        <time>2024-03-13T15:12:24Z</time>
      </trkpt>
      <trkpt lat="44.43185" lon="1.62443">
        <ele>332</ele>
        <time>2024-03-13T15:12:25Z</time>
      </trkpt>
      <trkpt lat="44.43185" lon="1.62443">
        <ele>332</ele>
        <time>2024-03-13T15:12:26Z</time>
      </trkpt>
      <trkpt lat="44.43186" lon="1.62442">
        <ele>332</ele>
        <time>2024-03-13T15:12:27Z</time>
      </trkpt>
      <trkpt lat="44.43187" lon="1.6244">
        <ele>332</ele>
        <time>2024-03-13T15:12:28Z</time>
      </trkpt>
      <trkpt lat="44.43187" lon="1.62439">
        <ele>333</ele>
        <time>2024-03-13T15:12:29Z</time>
      </trkpt>
      <trkpt lat="44.43188" lon="1.62438">
        <ele>333</ele>
        <time>2024-03-13T15:12:30Z</time>
      </trkpt>
      <trkpt lat="44.43189" lon="1.62437">
        <ele>333</ele>
        <time>2024-03-13T15:12:31Z</time>
      </trkpt>
      <trkpt lat="44.4319" lon="1.62436">
        <ele>332</ele>
        <time>2024-03-13T15:12:32Z</time>
      </trkpt>
      <trkpt lat="44.43191" lon="1.62435">
        <ele>332</ele>
        <time>2024-03-13T15:12:33Z</time>
      </trkpt>
      <trkpt lat="44.43192" lon="1.62434">
        <ele>333</ele>
        <time>2024-03-13T15:12:34Z</time>
      </trkpt>
      <trkpt lat="44.43193" lon="1.62433">
        <ele>333</ele>
        <time>2024-03-13T15:12:35Z</time>
      </trkpt>
      <trkpt lat="44.43193" lon="1.62432">
        <ele>333</ele>
        <time>2024-03-13T15:12:36Z</time>
      </trkpt>
      <trkpt lat="44.43195" lon="1.62431">
        <ele>333</ele>
        <time>2024-03-13T15:12:37Z</time>
      </trkpt>
      <trkpt lat="44.43195" lon="1.6243">
        <ele>333</ele>
        <time>2024-03-13T15:12:38Z</time>
      </trkpt>
      <trkpt lat="44.43196" lon="1.6243">
        <ele>334</ele>
        <time>2024-03-13T15:12:39Z</time>
      </trkpt>
      <trkpt lat="44.43197" lon="1.62429">
        <ele>333</ele>
        <time>2024-03-13T15:12:40Z</time>
      </trkpt>
      <trkpt lat="44.43198" lon="1.62428">
        <ele>333</ele>
        <time>2024-03-13T15:12:41Z</time>
      </trkpt>
      <trkpt lat="44.43199" lon="1.62427">
        <ele>333</ele>
        <time>2024-03-13T15:12:42Z</time>
      </trkpt>
      <trkpt lat="44.432" lon="1.62426">
        <ele>333</ele>
        <time>2024-03-13T15:12:43Z</time>
      </trkpt>
      <trkpt lat="44.43201" lon="1.62425">
        <ele>333</ele>
        <time>2024-03-13T15:12:44Z</time>
      </trkpt>
      <trkpt lat="44.43202" lon="1.62424">
        <ele>333</ele>
        <time>2024-03-13T15:12:45Z</time>
      </trkpt>
      <trkpt lat="44.43203" lon="1.62423">
        <ele>334</ele>
        <time>2024-03-13T15:12:46Z</time>
      </trkpt>
      <trkpt lat="44.43203" lon="1.62422">
        <ele>334</ele>
        <time>2024-03-13T15:12:47Z</time>
      </trkpt>
      <trkpt lat="44.43204" lon="1.62421">
        <ele>334</ele>
        <time>2024-03-13T15:12:48Z</time>
      </trkpt>
      <trkpt lat="44.43204" lon="1.6242">
        <ele>334</ele>
        <time>2024-03-13T15:12:49Z</time>
      </trkpt>
      <trkpt lat="44.43205" lon="1.62419">
        <ele>334</ele>
        <time>2024-03-13T15:12:50Z</time>
      </trkpt>
      <trkpt lat="44.43206" lon="1.62418">
        <ele>334</ele>
        <time>2024-03-13T15:12:51Z</time>
      </trkpt>
      <trkpt lat="44.43206" lon="1.62416">
        <ele>334</ele>
        <time>2024-03-13T15:12:52Z</time>
      </trkpt>
      <trkpt lat="44.43207" lon="1.62415">
        <ele>334</ele>
        <time>2024-03-13T15:12:53Z</time>
      </trkpt>
      <trkpt lat="44.43208" lon="1.62413">
        <ele>335</ele>
        <time>2024-03-13T15:12:54Z</time>
      </trkpt>
      <trkpt lat="44.43208" lon="1.62412">
        <ele>335</ele>
        <time>2024-03-13T15:12:55Z</time>
      </trkpt>
      <trkpt lat="44.43208" lon="1.62411">
        <ele>335</ele>
        <time>2024-03-13T15:12:56Z</time>
      </trkpt>
      <trkpt lat="44.43209" lon="1.6241">
        <ele>335</ele>
        <time>2024-03-13T15:12:57Z</time>
      </trkpt>
      <trkpt lat="44.43209" lon="1.62409">
        <ele>335</ele>
        <time>2024-03-13T15:12:58Z</time>
      </trkpt>
      <trkpt lat="44.4321" lon="1.62408">
        <ele>335</ele>
        <time>2024-03-13T15:12:59Z</time>
      </trkpt>
      <trkpt lat="44.43211" lon="1.62407">
        <ele>335</ele>
        <time>2024-03-13T15:13:00Z</time>
      </trkpt>
      <trkpt lat="44.43211" lon="1.62406">
        <ele>335</ele>
        <time>2024-03-13T15:13:01Z</time>
      </trkpt>
      <trkpt lat="44.43212" lon="1.62404">
        <ele>335</ele>
        <time>2024-03-13T15:13:02Z</time>
      </trkpt>
      <trkpt lat="44.43212" lon="1.62403">
        <ele>335</ele>
        <time>2024-03-13T15:13:03Z</time>
      </trkpt>
      <trkpt lat="44.43212" lon="1.62401">
        <ele>335</ele>
        <time>2024-03-13T15:13:04Z</time>
      </trkpt>
      <trkpt lat="44.43212" lon="1.624">
        <ele>335</ele>
        <time>2024-03-13T15:13:05Z</time>
      </trkpt>
      <trkpt lat="44.43212" lon="1.62399">
        <ele>336</ele>
        <time>2024-03-13T15:13:06Z</time>
      </trkpt>
      <trkpt lat="44.43212" lon="1.62397">
        <ele>336</ele>
        <time>2024-03-13T15:13:07Z</time>
      </trkpt>
      <trkpt lat="44.43213" lon="1.62396">
        <ele>336</ele>
        <time>2024-03-13T15:13:08Z</time>
      </trkpt>
      <trkpt lat="44.43213" lon="1.62394">
        <ele>336</ele>
        <time>2024-03-13T15:13:09Z</time>
      </trkpt>
      <trkpt lat="44.43213" lon="1.62393">
        <ele>336</ele>
        <time>2024-03-13T15:13:10Z</time>
      </trkpt>
      <trkpt lat="44.43213" lon="1.62391">
        <ele>336</ele>
        <time>2024-03-13T15:13:11Z</time>
      </trkpt>
      <trkpt lat="44.43212" lon="1.62389">
        <ele>336</ele>
        <time>2024-03-13T15:13:12Z</time>
      </trkpt>
      <trkpt lat="44.43212" lon="1.62388">
        <ele>337</ele>
        <time>2024-03-13T15:13:13Z</time>
      </trkpt>
      <trkpt lat="44.43212" lon="1.62386">
        <ele>337</ele>
        <time>2024-03-13T15:13:14Z</time>
      </trkpt>
      <trkpt lat="44.43213" lon="1.62385">
        <ele>336</ele>
        <time>2024-03-13T15:13:15Z</time>
      </trkpt>
      <trkpt lat="44.43213" lon="1.62383">
        <ele>336</ele>
        <time>2024-03-13T15:13:16Z</time>
      </trkpt>
      <trkpt lat="44.43213" lon="1.62382">
        <ele>336</ele>
        <time>2024-03-13T15:13:17Z</time>
      </trkpt>
      <trkpt lat="44.43213" lon="1.62381">
        <ele>336</ele>
        <time>2024-03-13T15:13:18Z</time>
      </trkpt>
      <trkpt lat="44.43213" lon="1.6238">
        <ele>336</ele>
        <time>2024-03-13T15:13:19Z</time>
      </trkpt>
      <trkpt lat="44.43213" lon="1.62378">
        <ele>336</ele>
        <time>2024-03-13T15:13:20Z</time>
      </trkpt>
      <trkpt lat="44.43213" lon="1.62377">
        <ele>337</ele>
        <time>2024-03-13T15:13:21Z</time>
      </trkpt>
      <trkpt lat="44.43213" lon="1.62375">
        <ele>337</ele>
        <time>2024-03-13T15:13:22Z</time>
      </trkpt>
      <trkpt lat="44.43213" lon="1.62374">
        <ele>337</ele>
        <time>2024-03-13T15:13:23Z</time>
      </trkpt>
      <trkpt lat="44.43213" lon="1.62372">
        <ele>338</ele>
        <time>2024-03-13T15:13:24Z</time>
      </trkpt>
      <trkpt lat="44.43213" lon="1.62371">
        <ele>338</ele>
        <time>2024-03-13T15:13:25Z</time>
      </trkpt>
      <trkpt lat="44.43213" lon="1.62369">
        <ele>338</ele>
        <time>2024-03-13T15:13:26Z</time>
      </trkpt>
      <trkpt lat="44.43213" lon="1.62367">
        <ele>338</ele>
        <time>2024-03-13T15:13:27Z</time>
      </trkpt>
      <trkpt lat="44.43213" lon="1.62365">
        <ele>338</ele>
        <time>2024-03-13T15:13:28Z</time>
      </trkpt>
      <trkpt lat="44.43213" lon="1.62364">
        <ele>338</ele>
        <time>2024-03-13T15:13:29Z</time>
      </trkpt>
      <trkpt lat="44.43213" lon="1.62362">
        <ele>337</ele>
        <time>2024-03-13T15:13:30Z</time>
      </trkpt>
      <trkpt lat="44.43213" lon="1.62361">
        <ele>337</ele>
        <time>2024-03-13T15:13:31Z</time>
      </trkpt>
      <trkpt lat="44.43213" lon="1.62359">
        <ele>338</ele>
        <time>2024-03-13T15:13:32Z</time>
      </trkpt>
      <trkpt lat="44.43213" lon="1.62358">
        <ele>338</ele>
        <time>2024-03-13T15:13:33Z</time>
      </trkpt>
      <trkpt lat="44.43213" lon="1.62357">
        <ele>338</ele>
        <time>2024-03-13T15:13:34Z</time>
      </trkpt>
      <trkpt lat="44.43213" lon="1.62356">
        <ele>338</ele>
        <time>2024-03-13T15:13:35Z</time>
      </trkpt>
      <trkpt lat="44.43212" lon="1.62355">
        <ele>340</ele>
        <time>2024-03-13T15:13:36Z</time>
      </trkpt>
      <trkpt lat="44.43212" lon="1.62354">
        <ele>340</ele>
        <time>2024-03-13T15:13:37Z</time>
      </trkpt>
      <trkpt lat="44.43211" lon="1.62353">
        <ele>340</ele>
        <time>2024-03-13T15:13:38Z</time>
      </trkpt>
      <trkpt lat="44.43211" lon="1.62351">
        <ele>339</ele>
        <time>2024-03-13T15:13:39Z</time>
      </trkpt>
      <trkpt lat="44.4321" lon="1.6235">
        <ele>339</ele>
        <time>2024-03-13T15:13:40Z</time>
      </trkpt>
      <trkpt lat="44.4321" lon="1.62349">
        <ele>340</ele>
        <time>2024-03-13T15:13:41Z</time>
      </trkpt>
      <trkpt lat="44.4321" lon="1.62347">
        <ele>340</ele>
        <time>2024-03-13T15:13:42Z</time>
      </trkpt>
      <trkpt lat="44.43209" lon="1.62346">
        <ele>340</ele>
        <time>2024-03-13T15:13:43Z</time>
      </trkpt>
      <trkpt lat="44.43209" lon="1.62345">
        <ele>340</ele>
        <time>2024-03-13T15:13:44Z</time>
      </trkpt>
      <trkpt lat="44.43209" lon="1.62344">
        <ele>340</ele>
        <time>2024-03-13T15:13:45Z</time>
      </trkpt>
      <trkpt lat="44.43209" lon="1.62343">
        <ele>340</ele>
        <time>2024-03-13T15:13:46Z</time>
      </trkpt>
      <trkpt lat="44.43208" lon="1.62342">
        <ele>340</ele>
        <time>2024-03-13T15:13:47Z</time>
      </trkpt>
      <trkpt lat="44.43208" lon="1.62341">
        <ele>341</ele>
        <time>2024-03-13T15:13:48Z</time>
      </trkpt>
      <trkpt lat="44.43208" lon="1.6234">
        <ele>341</ele>
        <time>2024-03-13T15:13:49Z</time>
      </trkpt>
      <trkpt lat="44.43208" lon="1.62339">
        <ele>340</ele>
        <time>2024-03-13T15:13:50Z</time>
      </trkpt>
      <trkpt lat="44.43208" lon="1.62337">
        <ele>341</ele>
        <time>2024-03-13T15:13:51Z</time>
      </trkpt>
      <trkpt lat="44.43207" lon="1.62336">
        <ele>341</ele>
        <time>2024-03-13T15:13:52Z</time>
      </trkpt>
      <trkpt lat="44.43206" lon="1.62335">
        <ele>341</ele>
        <time>2024-03-13T15:13:53Z</time>
      </trkpt>
      <trkpt lat="44.43206" lon="1.62333">
        <ele>341</ele>
        <time>2024-03-13T15:13:54Z</time>
      </trkpt>
      <trkpt lat="44.43206" lon="1.62332">
        <ele>341</ele>
        <time>2024-03-13T15:13:55Z</time>
      </trkpt>
      <trkpt lat="44.43205" lon="1.62331">
        <ele>341</ele>
        <time>2024-03-13T15:13:56Z</time>
      </trkpt>
      <trkpt lat="44.43204" lon="1.6233">
        <ele>341</ele>
        <time>2024-03-13T15:13:57Z</time>
      </trkpt>
      <trkpt lat="44.43204" lon="1.62329">
        <ele>341</ele>
        <time>2024-03-13T15:13:58Z</time>
      </trkpt>
      <trkpt lat="44.43204" lon="1.62327">
        <ele>341</ele>
        <time>2024-03-13T15:13:59Z</time>
      </trkpt>
      <trkpt lat="44.43204" lon="1.62326">
        <ele>341</ele>
        <time>2024-03-13T15:14:00Z</time>
      </trkpt>
      <trkpt lat="44.43204" lon="1.62324">
        <ele>341</ele>
        <time>2024-03-13T15:14:01Z</time>
      </trkpt>
      <trkpt lat="44.43204" lon="1.62323">
        <ele>341</ele>
        <time>2024-03-13T15:14:02Z</time>
      </trkpt>
      <trkpt lat="44.43203" lon="1.62322">
        <ele>341</ele>
        <time>2024-03-13T15:14:03Z</time>
      </trkpt>
      <trkpt lat="44.43203" lon="1.62321">
        <ele>341</ele>
        <time>2024-03-13T15:14:04Z</time>
      </trkpt>
      <trkpt lat="44.43203" lon="1.62319">
        <ele>342</ele>
        <time>2024-03-13T15:14:05Z</time>
      </trkpt>
      <trkpt lat="44.43203" lon="1.62318">
        <ele>342</ele>
        <time>2024-03-13T15:14:06Z</time>
      </trkpt>
      <trkpt lat="44.43203" lon="1.62317">
        <ele>342</ele>
        <time>2024-03-13T15:14:07Z</time>
      </trkpt>
      <trkpt lat="44.43203" lon="1.62316">
        <ele>342</ele>
        <time>2024-03-13T15:14:08Z</time>
      </trkpt>
      <trkpt lat="44.43202" lon="1.62316">
        <ele>342</ele>
        <time>2024-03-13T15:14:09Z</time>
      </trkpt>
      <trkpt lat="44.43202" lon="1.62315">
        <ele>342</ele>
        <time>2024-03-13T15:14:10Z</time>
      </trkpt>
      <trkpt lat="44.43202" lon="1.62314">
        <ele>342</ele>
        <time>2024-03-13T15:14:11Z</time>
      </trkpt>
      <trkpt lat="44.43202" lon="1.62313">
        <ele>342</ele>
        <time>2024-03-13T15:14:12Z</time>
      </trkpt>
      <trkpt lat="44.43202" lon="1.62312">
        <ele>342</ele>
        <time>2024-03-13T15:14:13Z</time>
      </trkpt>
      <trkpt lat="44.43201" lon="1.62312">
        <ele>342</ele>
        <time>2024-03-13T15:14:14Z</time>
      </trkpt>
      <trkpt lat="44.43201" lon="1.62312">
        <ele>342</ele>
        <time>2024-03-13T15:14:15Z</time>
      </trkpt>
      <trkpt lat="44.43201" lon="1.62312">
        <ele>342</ele>
        <time>2024-03-13T15:14:16Z</time>
      </trkpt>
      <trkpt lat="44.43201" lon="1.62312">
        <ele>342</ele>
        <time>2024-03-13T15:14:17Z</time>
      </trkpt>
      <trkpt lat="44.43201" lon="1.62312">
        <ele>342</ele>
        <time>2024-03-13T15:14:18Z</time>
      </trkpt>
      <trkpt lat="44.43201" lon="1.62312">
        <ele>342</ele>
        <time>2024-03-13T15:14:19Z</time>
      </trkpt>
      <trkpt lat="44.43201" lon="1.62312">
        <ele>342</ele>
        <time>2024-03-13T15:14:20Z</time>
      </trkpt>
      <trkpt lat="44.43201" lon="1.62312">
        <ele>342</ele>
        <time>2024-03-13T15:14:21Z</time>
      </trkpt>
      <trkpt lat="44.43201" lon="1.62312">
        <ele>342</ele>
        <time>2024-03-13T15:14:22Z</time>
      </trkpt>
      <trkpt lat="44.43201" lon="1.62312">
        <ele>342</ele>
        <time>2024-03-13T15:14:23Z</time>
      </trkpt>
      <trkpt lat="44.43201" lon="1.62312">
        <ele>342</ele>
        <time>2024-03-13T15:14:24Z</time>
      </trkpt>
      <trkpt lat="44.43201" lon="1.62312">
        <ele>342</ele>
        <time>2024-03-13T15:14:25Z</time>
      </trkpt>
      <trkpt lat="44.43201" lon="1.62312">
        <ele>342</ele>
        <time>2024-03-13T15:14:26Z</time>
      </trkpt>
      <trkpt lat="44.43201" lon="1.62312">
        <ele>342</ele>
        <time>2024-03-13T15:14:27Z</time>
      </trkpt>
      <trkpt lat="44.43201" lon="1.62312">
        <ele>342</ele>
        <time>2024-03-13T15:14:28Z</time>
      </trkpt>
      <trkpt lat="44.43201" lon="1.62312">
        <ele>342</ele>
        <time>2024-03-13T15:14:29Z</time>
      </trkpt>
      <trkpt lat="44.43201" lon="1.62312">
        <ele>343</ele>
        <time>2024-03-13T15:14:30Z</time>
      </trkpt>
      <trkpt lat="44.43201" lon="1.6231">
        <ele>343</ele>
        <time>2024-03-13T15:14:31Z</time>
      </trkpt>
      <trkpt lat="44.43201" lon="1.62309">
        <ele>343</ele>
        <time>2024-03-13T15:14:32Z</time>
      </trkpt>
      <trkpt lat="44.43201" lon="1.62308">
        <ele>343</ele>
        <time>2024-03-13T15:14:33Z</time>
      </trkpt>
      <trkpt lat="44.43201" lon="1.62307">
        <ele>343</ele>
        <time>2024-03-13T15:14:34Z</time>
      </trkpt>
      <trkpt lat="44.43201" lon="1.62306">
        <ele>343</ele>
        <time>2024-03-13T15:14:35Z</time>
      </trkpt>
      <trkpt lat="44.432" lon="1.62305">
        <ele>343</ele>
        <time>2024-03-13T15:14:36Z</time>
      </trkpt>
      <trkpt lat="44.432" lon="1.62304">
        <ele>343</ele>
        <time>2024-03-13T15:14:37Z</time>
      </trkpt>
      <trkpt lat="44.432" lon="1.62303">
        <ele>344</ele>
        <time>2024-03-13T15:14:38Z</time>
      </trkpt>
      <trkpt lat="44.432" lon="1.62301">
        <ele>344</ele>
        <time>2024-03-13T15:14:39Z</time>
      </trkpt>
      <trkpt lat="44.43201" lon="1.623">
        <ele>344</ele>
        <time>2024-03-13T15:14:40Z</time>
      </trkpt>
      <trkpt lat="44.43201" lon="1.62299">
        <ele>344</ele>
        <time>2024-03-13T15:14:41Z</time>
      </trkpt>
      <trkpt lat="44.43201" lon="1.62298">
        <ele>344</ele>
        <time>2024-03-13T15:14:42Z</time>
      </trkpt>
      <trkpt lat="44.43201" lon="1.62296">
        <ele>344</ele>
        <time>2024-03-13T15:14:43Z</time>
      </trkpt>
      <trkpt lat="44.43201" lon="1.62295">
        <ele>344</ele>
        <time>2024-03-13T15:14:44Z</time>
      </trkpt>
      <trkpt lat="44.43201" lon="1.62294">
        <ele>345</ele>
        <time>2024-03-13T15:14:45Z</time>
      </trkpt>
      <trkpt lat="44.43201" lon="1.62292">
        <ele>344</ele>
        <time>2024-03-13T15:14:46Z</time>
      </trkpt>
      <trkpt lat="44.43201" lon="1.62291">
        <ele>345</ele>
        <time>2024-03-13T15:14:47Z</time>
      </trkpt>
      <trkpt lat="44.43201" lon="1.6229">
        <ele>345</ele>
        <time>2024-03-13T15:14:48Z</time>
      </trkpt>
      <trkpt lat="44.43202" lon="1.62288">
        <ele>345</ele>
        <time>2024-03-13T15:14:49Z</time>
      </trkpt>
      <trkpt lat="44.43202" lon="1.62287">
        <ele>345</ele>
        <time>2024-03-13T15:14:50Z</time>
      </trkpt>
      <trkpt lat="44.43202" lon="1.62286">
        <ele>345</ele>
        <time>2024-03-13T15:14:51Z</time>
      </trkpt>
      <trkpt lat="44.43202" lon="1.62284">
        <ele>345</ele>
        <time>2024-03-13T15:14:52Z</time>
      </trkpt>
      <trkpt lat="44.43202" lon="1.62283">
        <ele>346</ele>
        <time>2024-03-13T15:14:53Z</time>
      </trkpt>
      <trkpt lat="44.43202" lon="1.62281">
        <ele>346</ele>
        <time>2024-03-13T15:14:54Z</time>
      </trkpt>
      <trkpt lat="44.43203" lon="1.6228">
        <ele>346</ele>
        <time>2024-03-13T15:14:55Z</time>
      </trkpt>
      <trkpt lat="44.43202" lon="1.62279">
        <ele>346</ele>
        <time>2024-03-13T15:14:56Z</time>
      </trkpt>
      <trkpt lat="44.43202" lon="1.62277">
        <ele>346</ele>
        <time>2024-03-13T15:14:57Z</time>
      </trkpt>
      <trkpt lat="44.43202" lon="1.62276">
        <ele>347</ele>
        <time>2024-03-13T15:14:58Z</time>
      </trkpt>
      <trkpt lat="44.43202" lon="1.62275">
        <ele>347</ele>
        <time>2024-03-13T15:14:59Z</time>
      </trkpt>
      <trkpt lat="44.43202" lon="1.62274">
        <ele>347</ele>
        <time>2024-03-13T15:15:00Z</time>
      </trkpt>
      <trkpt lat="44.43203" lon="1.62272">
        <ele>347</ele>
        <time>2024-03-13T15:15:01Z</time>
      </trkpt>
      <trkpt lat="44.43203" lon="1.62271">
        <ele>347</ele>
        <time>2024-03-13T15:15:02Z</time>
      </trkpt>
      <trkpt lat="44.43203" lon="1.6227">
        <ele>348</ele>
        <time>2024-03-13T15:15:03Z</time>
      </trkpt>
      <trkpt lat="44.43203" lon="1.62268">
        <ele>348</ele>
        <time>2024-03-13T15:15:04Z</time>
      </trkpt>
      <trkpt lat="44.43203" lon="1.62267">
        <ele>348</ele>
        <time>2024-03-13T15:15:05Z</time>
      </trkpt>
      <trkpt lat="44.43203" lon="1.62265">
        <ele>348</ele>
        <time>2024-03-13T15:15:06Z</time>
      </trkpt>
      <trkpt lat="44.43204" lon="1.62264">
        <ele>348</ele>
        <time>2024-03-13T15:15:07Z</time>
      </trkpt>
      <trkpt lat="44.43204" lon="1.62262">
        <ele>348</ele>
        <time>2024-03-13T15:15:08Z</time>
      </trkpt>
      <trkpt lat="44.43204" lon="1.62261">
        <ele>348</ele>
        <time>2024-03-13T15:15:09Z</time>
      </trkpt>
      <trkpt lat="44.43204" lon="1.6226">
        <ele>348</ele>
        <time>2024-03-13T15:15:10Z</time>
      </trkpt>
      <trkpt lat="44.43204" lon="1.62259">
        <ele>349</ele>
        <time>2024-03-13T15:15:11Z</time>
      </trkpt>
      <trkpt lat="44.43204" lon="1.62257">
        <ele>349</ele>
        <time>2024-03-13T15:15:12Z</time>
      </trkpt>
      <trkpt lat="44.43204" lon="1.62256">
        <ele>350</ele>
        <time>2024-03-13T15:15:13Z</time>
      </trkpt>
      <trkpt lat="44.43204" lon="1.62255">
        <ele>350</ele>
        <time>2024-03-13T15:15:14Z</time>
      </trkpt>
      <trkpt lat="44.43204" lon="1.62254">
        <ele>350</ele>
        <time>2024-03-13T15:15:15Z</time>
      </trkpt>
      <trkpt lat="44.43204" lon="1.62253">
        <ele>350</ele>
        <time>2024-03-13T15:15:16Z</time>
      </trkpt>
      <trkpt lat="44.43204" lon="1.62251">
        <ele>350</ele>
        <time>2024-03-13T15:15:17Z</time>
      </trkpt>
      <trkpt lat="44.43205" lon="1.6225">
        <ele>351</ele>
        <time>2024-03-13T15:15:18Z</time>
      </trkpt>
      <trkpt lat="44.43205" lon="1.62248">
        <ele>351</ele>
        <time>2024-03-13T15:15:19Z</time>
      </trkpt>
      <trkpt lat="44.43205" lon="1.62247">
        <ele>351</ele>
        <time>2024-03-13T15:15:20Z</time>
      </trkpt>
      <trkpt lat="44.43206" lon="1.62246">
        <ele>351</ele>
        <time>2024-03-13T15:15:21Z</time>
      </trkpt>
      <trkpt lat="44.43206" lon="1.62245">
        <ele>351</ele>
        <time>2024-03-13T15:15:22Z</time>
      </trkpt>
      <trkpt lat="44.43206" lon="1.62244">
        <ele>351</ele>
        <time>2024-03-13T15:15:23Z</time>
      </trkpt>
      <trkpt lat="44.43207" lon="1.62243">
        <ele>351</ele>
        <time>2024-03-13T15:15:24Z</time>
      </trkpt>
      <trkpt lat="44.43207" lon="1.62242">
        <ele>351</ele>
        <time>2024-03-13T15:15:25Z</time>
      </trkpt>
      <trkpt lat="44.43207" lon="1.62241">
        <ele>351</ele>
        <time>2024-03-13T15:15:26Z</time>
      </trkpt>
      <trkpt lat="44.43208" lon="1.6224">
        <ele>351</ele>
        <time>2024-03-13T15:15:27Z</time>
      </trkpt>
      <trkpt lat="44.43208" lon="1.62239">
        <ele>351</ele>
        <time>2024-03-13T15:15:28Z</time>
      </trkpt>
      <trkpt lat="44.43208" lon="1.62238">
        <ele>351</ele>
        <time>2024-03-13T15:15:29Z</time>
      </trkpt>
      <trkpt lat="44.43208" lon="1.62236">
        <ele>351</ele>
        <time>2024-03-13T15:15:30Z</time>
      </trkpt>
      <trkpt lat="44.43208" lon="1.62235">
        <ele>352</ele>
        <time>2024-03-13T15:15:31Z</time>
      </trkpt>
      <trkpt lat="44.43209" lon="1.62233">
        <ele>352</ele>
        <time>2024-03-13T15:15:32Z</time>
      </trkpt>
      <trkpt lat="44.43209" lon="1.62232">
        <ele>353</ele>
        <time>2024-03-13T15:15:33Z</time>
      </trkpt>
      <trkpt lat="44.43209" lon="1.62231">
        <ele>353</ele>
        <time>2024-03-13T15:15:34Z</time>
      </trkpt>
      <trkpt lat="44.43209" lon="1.62229">
        <ele>353</ele>
        <time>2024-03-13T15:15:35Z</time>
      </trkpt>
      <trkpt lat="44.43209" lon="1.62228">
        <ele>353</ele>
        <time>2024-03-13T15:15:36Z</time>
      </trkpt>
      <trkpt lat="44.4321" lon="1.62227">
        <ele>353</ele>
        <time>2024-03-13T15:15:37Z</time>
      </trkpt>
      <trkpt lat="44.4321" lon="1.62226">
        <ele>353</ele>
        <time>2024-03-13T15:15:38Z</time>
      </trkpt>
      <trkpt lat="44.4321" lon="1.62226">
        <ele>353</ele>
        <time>2024-03-13T15:15:39Z</time>
      </trkpt>
      <trkpt lat="44.4321" lon="1.62226">
        <ele>353</ele>
        <time>2024-03-13T15:15:40Z</time>
      </trkpt>
      <trkpt lat="44.43211" lon="1.62224">
        <ele>353</ele>
        <time>2024-03-13T15:15:41Z</time>
      </trkpt>
      <trkpt lat="44.43211" lon="1.62223">
        <ele>354</ele>
        <time>2024-03-13T15:15:42Z</time>
      </trkpt>
      <trkpt lat="44.43211" lon="1.62222">
        <ele>354</ele>
        <time>2024-03-13T15:15:43Z</time>
      </trkpt>
      <trkpt lat="44.43211" lon="1.62221">
        <ele>354</ele>
        <time>2024-03-13T15:15:44Z</time>
      </trkpt>
      <trkpt lat="44.43211" lon="1.6222">
        <ele>354</ele>
        <time>2024-03-13T15:15:45Z</time>
      </trkpt>
      <trkpt lat="44.43212" lon="1.62219">
        <ele>354</ele>
        <time>2024-03-13T15:15:46Z</time>
      </trkpt>
      <trkpt lat="44.43212" lon="1.62218">
        <ele>353</ele>
        <time>2024-03-13T15:15:47Z</time>
      </trkpt>
      <trkpt lat="44.43212" lon="1.62217">
        <ele>353</ele>
        <time>2024-03-13T15:15:48Z</time>
      </trkpt>
      <trkpt lat="44.43212" lon="1.62217">
        <ele>353</ele>
        <time>2024-03-13T15:15:49Z</time>
      </trkpt>
      <trkpt lat="44.43212" lon="1.62216">
        <ele>353</ele>
        <time>2024-03-13T15:15:50Z</time>
      </trkpt>
      <trkpt lat="44.43212" lon="1.62216">
        <ele>353</ele>
        <time>2024-03-13T15:15:51Z</time>
      </trkpt>
      <trkpt lat="44.43212" lon="1.62216">
        <ele>353</ele>
        <time>2024-03-13T15:15:52Z</time>
      </trkpt>
      <trkpt lat="44.43212" lon="1.62213">
        <ele>355</ele>
        <time>2024-03-13T15:15:53Z</time>
      </trkpt>
      <trkpt lat="44.43212" lon="1.62212">
        <ele>355</ele>
        <time>2024-03-13T15:15:54Z</time>
      </trkpt>
      <trkpt lat="44.43213" lon="1.62211">
        <ele>355</ele>
        <time>2024-03-13T15:15:55Z</time>
      </trkpt>
      <trkpt lat="44.43213" lon="1.6221">
        <ele>354</ele>
        <time>2024-03-13T15:15:56Z</time>
      </trkpt>
      <trkpt lat="44.43213" lon="1.62209">
        <ele>355</ele>
        <time>2024-03-13T15:15:57Z</time>
      </trkpt>
      <trkpt lat="44.43213" lon="1.62208">
        <ele>355</ele>
        <time>2024-03-13T15:15:58Z</time>
      </trkpt>
      <trkpt lat="44.43214" lon="1.62206">
        <ele>355</ele>
        <time>2024-03-13T15:15:59Z</time>
      </trkpt>
      <trkpt lat="44.43214" lon="1.62205">
        <ele>355</ele>
        <time>2024-03-13T15:16:00Z</time>
      </trkpt>
      <trkpt lat="44.43215" lon="1.62203">
        <ele>355</ele>
        <time>2024-03-13T15:16:01Z</time>
      </trkpt>
      <trkpt lat="44.43215" lon="1.62202">
        <ele>356</ele>
        <time>2024-03-13T15:16:02Z</time>
      </trkpt>
      <trkpt lat="44.43215" lon="1.62202">
        <ele>355</ele>
        <time>2024-03-13T15:16:03Z</time>
      </trkpt>
      <trkpt lat="44.43215" lon="1.62202">
        <ele>355</ele>
        <time>2024-03-13T15:16:04Z</time>
      </trkpt>
      <trkpt lat="44.43214" lon="1.62201">
        <ele>354</ele>
        <time>2024-03-13T15:16:05Z</time>
      </trkpt>
      <trkpt lat="44.43214" lon="1.62201">
        <ele>354</ele>
        <time>2024-03-13T15:16:06Z</time>
      </trkpt>
      <trkpt lat="44.43214" lon="1.62201">
        <ele>354</ele>
        <time>2024-03-13T15:16:07Z</time>
      </trkpt>
      <trkpt lat="44.43214" lon="1.62201">
        <ele>354</ele>
        <time>2024-03-13T15:16:08Z</time>
      </trkpt>
      <trkpt lat="44.43214" lon="1.62201">
        <ele>354</ele>
        <time>2024-03-13T15:16:09Z</time>
      </trkpt>
      <trkpt lat="44.43214" lon="1.62201">
        <ele>354</ele>
        <time>2024-03-13T15:16:10Z</time>
      </trkpt>
      <trkpt lat="44.43214" lon="1.62201">
        <ele>354</ele>
        <time>2024-03-13T15:16:11Z</time>
      </trkpt>
      <trkpt lat="44.43214" lon="1.62201">
        <ele>354</ele>
        <time>2024-03-13T15:16:12Z</time>
      </trkpt>
      <trkpt lat="44.43214" lon="1.62201">
        <ele>354</ele>
        <time>2024-03-13T15:16:13Z</time>
      </trkpt>
      <trkpt lat="44.43214" lon="1.62201">
        <ele>354</ele>
        <time>2024-03-13T15:16:14Z</time>
      </trkpt>
      <trkpt lat="44.43215" lon="1.62198">
        <ele>355</ele>
        <time>2024-03-13T15:16:15Z</time>
      </trkpt>
      <trkpt lat="44.43216" lon="1.62197">
        <ele>355</ele>
        <time>2024-03-13T15:16:16Z</time>
      </trkpt>
      <trkpt lat="44.43216" lon="1.62196">
        <ele>355</ele>
        <time>2024-03-13T15:16:17Z</time>
      </trkpt>
      <trkpt lat="44.43216" lon="1.62195">
        <ele>355</ele>
        <time>2024-03-13T15:16:18Z</time>
      </trkpt>
      <trkpt lat="44.43216" lon="1.62195">
        <ele>355</ele>
        <time>2024-03-13T15:16:19Z</time>
      </trkpt>
      <trkpt lat="44.43216" lon="1.62195">
        <ele>355</ele>
        <time>2024-03-13T15:16:20Z</time>
      </trkpt>
      <trkpt lat="44.43216" lon="1.62195">
        <ele>355</ele>
        <time>2024-03-13T15:16:21Z</time>
      </trkpt>
      <trkpt lat="44.43216" lon="1.62193">
        <ele>356</ele>
        <time>2024-03-13T15:16:22Z</time>
      </trkpt>
      <trkpt lat="44.43216" lon="1.62192">
        <ele>356</ele>
        <time>2024-03-13T15:16:23Z</time>
      </trkpt>
      <trkpt lat="44.43217" lon="1.62191">
        <ele>355</ele>
        <time>2024-03-13T15:16:24Z</time>
      </trkpt>
      <trkpt lat="44.43217" lon="1.6219">
        <ele>356</ele>
        <time>2024-03-13T15:16:25Z</time>
      </trkpt>
      <trkpt lat="44.43217" lon="1.62189">
        <ele>356</ele>
        <time>2024-03-13T15:16:26Z</time>
      </trkpt>
      <trkpt lat="44.43217" lon="1.62188">
        <ele>356</ele>
        <time>2024-03-13T15:16:27Z</time>
      </trkpt>
      <trkpt lat="44.43217" lon="1.62188">
        <ele>356</ele>
        <time>2024-03-13T15:16:28Z</time>
      </trkpt>
      <trkpt lat="44.43217" lon="1.62188">
        <ele>356</ele>
        <time>2024-03-13T15:16:29Z</time>
      </trkpt>
      <trkpt lat="44.43217" lon="1.62186">
        <ele>356</ele>
        <time>2024-03-13T15:16:30Z</time>
      </trkpt>
      <trkpt lat="44.43217" lon="1.62185">
        <ele>356</ele>
        <time>2024-03-13T15:16:31Z</time>
      </trkpt>
      <trkpt lat="44.43218" lon="1.62183">
        <ele>357</ele>
        <time>2024-03-13T15:16:32Z</time>
      </trkpt>
      <trkpt lat="44.43217" lon="1.62182">
        <ele>357</ele>
        <time>2024-03-13T15:16:33Z</time>
      </trkpt>
      <trkpt lat="44.43218" lon="1.62181">
        <ele>357</ele>
        <time>2024-03-13T15:16:34Z</time>
      </trkpt>
      <trkpt lat="44.43218" lon="1.6218">
        <ele>357</ele>
        <time>2024-03-13T15:16:35Z</time>
      </trkpt>
      <trkpt lat="44.43218" lon="1.62178">
        <ele>358</ele>
        <time>2024-03-13T15:16:36Z</time>
      </trkpt>
      <trkpt lat="44.43219" lon="1.62177">
        <ele>358</ele>
        <time>2024-03-13T15:16:37Z</time>
      </trkpt>
      <trkpt lat="44.43219" lon="1.62175">
        <ele>358</ele>
        <time>2024-03-13T15:16:38Z</time>
      </trkpt>
      <trkpt lat="44.43219" lon="1.62174">
        <ele>358</ele>
        <time>2024-03-13T15:16:39Z</time>
      </trkpt>
      <trkpt lat="44.43219" lon="1.62172">
        <ele>358</ele>
        <time>2024-03-13T15:16:40Z</time>
      </trkpt>
      <trkpt lat="44.43219" lon="1.6217">
        <ele>358</ele>
        <time>2024-03-13T15:16:41Z</time>
      </trkpt>
      <trkpt lat="44.4322" lon="1.62169">
        <ele>359</ele>
        <time>2024-03-13T15:16:42Z</time>
      </trkpt>
      <trkpt lat="44.4322" lon="1.62167">
        <ele>359</ele>
        <time>2024-03-13T15:16:43Z</time>
      </trkpt>
      <trkpt lat="44.43219" lon="1.62166">
        <ele>360</ele>
        <time>2024-03-13T15:16:44Z</time>
      </trkpt>
      <trkpt lat="44.4322" lon="1.62165">
        <ele>359</ele>
        <time>2024-03-13T15:16:45Z</time>
      </trkpt>
      <trkpt lat="44.4322" lon="1.62163">
        <ele>360</ele>
        <time>2024-03-13T15:16:46Z</time>
      </trkpt>
      <trkpt lat="44.4322" lon="1.62161">
        <ele>360</ele>
        <time>2024-03-13T15:16:47Z</time>
      </trkpt>
      <trkpt lat="44.4322" lon="1.62159">
        <ele>360</ele>
        <time>2024-03-13T15:16:48Z</time>
      </trkpt>
      <trkpt lat="44.4322" lon="1.62158">
        <ele>360</ele>
        <time>2024-03-13T15:16:49Z</time>
      </trkpt>
      <trkpt lat="44.4322" lon="1.62156">
        <ele>360</ele>
        <time>2024-03-13T15:16:50Z</time>
      </trkpt>
      <trkpt lat="44.43219" lon="1.62155">
        <ele>360</ele>
        <time>2024-03-13T15:16:51Z</time>
      </trkpt>
      <trkpt lat="44.4322" lon="1.62153">
        <ele>360</ele>
        <time>2024-03-13T15:16:52Z</time>
      </trkpt>
      <trkpt lat="44.43219" lon="1.62152">
        <ele>360</ele>
        <time>2024-03-13T15:16:53Z</time>
      </trkpt>
      <trkpt lat="44.43219" lon="1.62151">
        <ele>361</ele>
        <time>2024-03-13T15:16:54Z</time>
      </trkpt>
      <trkpt lat="44.43219" lon="1.6215">
        <ele>361</ele>
        <time>2024-03-13T15:16:55Z</time>
      </trkpt>
      <trkpt lat="44.43219" lon="1.62148">
        <ele>361</ele>
        <time>2024-03-13T15:16:56Z</time>
      </trkpt>
      <trkpt lat="44.43219" lon="1.62147">
        <ele>360</ele>
        <time>2024-03-13T15:16:57Z</time>
      </trkpt>
      <trkpt lat="44.43219" lon="1.62146">
        <ele>361</ele>
        <time>2024-03-13T15:16:58Z</time>
      </trkpt>
      <trkpt lat="44.43219" lon="1.62145">
        <ele>361</ele>
        <time>2024-03-13T15:16:59Z</time>
      </trkpt>
      <trkpt lat="44.43219" lon="1.62143">
        <ele>361</ele>
        <time>2024-03-13T15:17:00Z</time>
      </trkpt>
      <trkpt lat="44.43219" lon="1.62142">
        <ele>361</ele>
        <time>2024-03-13T15:17:01Z</time>
      </trkpt>
      <trkpt lat="44.43219" lon="1.62141">
        <ele>361</ele>
        <time>2024-03-13T15:17:02Z</time>
      </trkpt>
      <trkpt lat="44.43219" lon="1.6214">
        <ele>360</ele>
        <time>2024-03-13T15:17:03Z</time>
      </trkpt>
      <trkpt lat="44.43219" lon="1.62139">
        <ele>360</ele>
        <time>2024-03-13T15:17:04Z</time>
      </trkpt>
      <trkpt lat="44.43219" lon="1.62137">
        <ele>360</ele>
        <time>2024-03-13T15:17:05Z</time>
      </trkpt>
      <trkpt lat="44.43219" lon="1.62136">
        <ele>360</ele>
        <time>2024-03-13T15:17:06Z</time>
      </trkpt>
      <trkpt lat="44.43218" lon="1.62134">
        <ele>361</ele>
        <time>2024-03-13T15:17:07Z</time>
      </trkpt>
      <trkpt lat="44.43218" lon="1.62133">
        <ele>361</ele>
        <time>2024-03-13T15:17:08Z</time>
      </trkpt>
      <trkpt lat="44.43217" lon="1.62131">
        <ele>361</ele>
        <time>2024-03-13T15:17:09Z</time>
      </trkpt>
      <trkpt lat="44.43217" lon="1.6213">
        <ele>362</ele>
        <time>2024-03-13T15:17:10Z</time>
      </trkpt>
      <trkpt lat="44.43217" lon="1.62129">
        <ele>362</ele>
        <time>2024-03-13T15:17:11Z</time>
      </trkpt>
      <trkpt lat="44.43217" lon="1.62128">
        <ele>363</ele>
        <time>2024-03-13T15:17:12Z</time>
      </trkpt>
      <trkpt lat="44.43217" lon="1.62126">
        <ele>362</ele>
        <time>2024-03-13T15:17:13Z</time>
      </trkpt>
      <trkpt lat="44.43217" lon="1.62124">
        <ele>362</ele>
        <time>2024-03-13T15:17:14Z</time>
      </trkpt>
      <trkpt lat="44.43217" lon="1.62122">
        <ele>362</ele>
        <time>2024-03-13T15:17:15Z</time>
      </trkpt>
      <trkpt lat="44.43217" lon="1.62121">
        <ele>363</ele>
        <time>2024-03-13T15:17:16Z</time>
      </trkpt>
      <trkpt lat="44.43217" lon="1.6212">
        <ele>362</ele>
        <time>2024-03-13T15:17:17Z</time>
      </trkpt>
      <trkpt lat="44.43216" lon="1.62119">
        <ele>363</ele>
        <time>2024-03-13T15:17:18Z</time>
      </trkpt>
      <trkpt lat="44.43216" lon="1.62117">
        <ele>362</ele>
        <time>2024-03-13T15:17:19Z</time>
      </trkpt>
      <trkpt lat="44.43216" lon="1.62116">
        <ele>362</ele>
        <time>2024-03-13T15:17:20Z</time>
      </trkpt>
      <trkpt lat="44.43215" lon="1.62114">
        <ele>363</ele>
        <time>2024-03-13T15:17:21Z</time>
      </trkpt>
      <trkpt lat="44.43215" lon="1.62113">
        <ele>363</ele>
        <time>2024-03-13T15:17:22Z</time>
      </trkpt>
      <trkpt lat="44.43214" lon="1.62112">
        <ele>363</ele>
        <time>2024-03-13T15:17:23Z</time>
      </trkpt>
      <trkpt lat="44.43214" lon="1.62111">
        <ele>363</ele>
        <time>2024-03-13T15:17:24Z</time>
      </trkpt>
      <trkpt lat="44.43214" lon="1.6211">
        <ele>363</ele>
        <time>2024-03-13T15:17:25Z</time>
      </trkpt>
      <trkpt lat="44.43214" lon="1.62108">
        <ele>363</ele>
        <time>2024-03-13T15:17:26Z</time>
      </trkpt>
      <trkpt lat="44.43214" lon="1.62107">
        <ele>363</ele>
        <time>2024-03-13T15:17:27Z</time>
      </trkpt>
      <trkpt lat="44.43213" lon="1.62106">
        <ele>363</ele>
        <time>2024-03-13T15:17:28Z</time>
      </trkpt>
      <trkpt lat="44.43213" lon="1.62105">
        <ele>363</ele>
        <time>2024-03-13T15:17:29Z</time>
      </trkpt>
      <trkpt lat="44.43213" lon="1.62104">
        <ele>362</ele>
        <time>2024-03-13T15:17:30Z</time>
      </trkpt>
      <trkpt lat="44.43212" lon="1.62103">
        <ele>362</ele>
        <time>2024-03-13T15:17:31Z</time>
      </trkpt>
      <trkpt lat="44.43212" lon="1.62102">
        <ele>362</ele>
        <time>2024-03-13T15:17:32Z</time>
      </trkpt>
      <trkpt lat="44.43212" lon="1.62101">
        <ele>362</ele>
        <time>2024-03-13T15:17:33Z</time>
      </trkpt>
      <trkpt lat="44.43211" lon="1.62099">
        <ele>362</ele>
        <time>2024-03-13T15:17:34Z</time>
      </trkpt>
      <trkpt lat="44.4321" lon="1.62098">
        <ele>362</ele>
        <time>2024-03-13T15:17:35Z</time>
      </trkpt>
      <trkpt lat="44.43209" lon="1.62097">
        <ele>362</ele>
        <time>2024-03-13T15:17:36Z</time>
      </trkpt>
      <trkpt lat="44.43209" lon="1.62097">
        <ele>363</ele>
        <time>2024-03-13T15:17:37Z</time>
      </trkpt>
      <trkpt lat="44.43209" lon="1.62096">
        <ele>363</ele>
        <time>2024-03-13T15:17:38Z</time>
      </trkpt>
      <trkpt lat="44.43209" lon="1.62095">
        <ele>363</ele>
        <time>2024-03-13T15:17:39Z</time>
      </trkpt>
      <trkpt lat="44.43208" lon="1.62094">
        <ele>363</ele>
        <time>2024-03-13T15:17:40Z</time>
      </trkpt>
      <trkpt lat="44.43208" lon="1.62093">
        <ele>363</ele>
        <time>2024-03-13T15:17:41Z</time>
      </trkpt>
      <trkpt lat="44.43208" lon="1.62092">
        <ele>362</ele>
        <time>2024-03-13T15:17:42Z</time>
      </trkpt>
      <trkpt lat="44.43207" lon="1.62091">
        <ele>362</ele>
        <time>2024-03-13T15:17:43Z</time>
      </trkpt>
      <trkpt lat="44.43207" lon="1.62089">
        <ele>363</ele>
        <time>2024-03-13T15:17:44Z</time>
      </trkpt>
      <trkpt lat="44.43206" lon="1.62088">
        <ele>363</ele>
        <time>2024-03-13T15:17:45Z</time>
      </trkpt>
      <trkpt lat="44.43206" lon="1.62087">
        <ele>364</ele>
        <time>2024-03-13T15:17:46Z</time>
      </trkpt>
      <trkpt lat="44.43206" lon="1.62085">
        <ele>364</ele>
        <time>2024-03-13T15:17:47Z</time>
      </trkpt>
      <trkpt lat="44.43207" lon="1.62085">
        <ele>365</ele>
        <time>2024-03-13T15:17:48Z</time>
      </trkpt>
      <trkpt lat="44.43207" lon="1.62083">
        <ele>365</ele>
        <time>2024-03-13T15:17:49Z</time>
      </trkpt>
      <trkpt lat="44.43206" lon="1.62082">
        <ele>365</ele>
        <time>2024-03-13T15:17:50Z</time>
      </trkpt>
      <trkpt lat="44.43206" lon="1.62081">
        <ele>365</ele>
        <time>2024-03-13T15:17:51Z</time>
      </trkpt>
      <trkpt lat="44.43206" lon="1.6208">
        <ele>365</ele>
        <time>2024-03-13T15:17:52Z</time>
      </trkpt>
      <trkpt lat="44.43205" lon="1.62079">
        <ele>365</ele>
        <time>2024-03-13T15:17:53Z</time>
      </trkpt>
      <trkpt lat="44.43205" lon="1.62078">
        <ele>365</ele>
        <time>2024-03-13T15:17:54Z</time>
      </trkpt>
      <trkpt lat="44.43204" lon="1.62077">
        <ele>365</ele>
        <time>2024-03-13T15:17:55Z</time>
      </trkpt>
      <trkpt lat="44.43204" lon="1.62076">
        <ele>365</ele>
        <time>2024-03-13T15:17:56Z</time>
      </trkpt>
      <trkpt lat="44.43204" lon="1.62074">
        <ele>366</ele>
        <time>2024-03-13T15:17:57Z</time>
      </trkpt>
      <trkpt lat="44.43203" lon="1.62073">
        <ele>365</ele>
        <time>2024-03-13T15:17:58Z</time>
      </trkpt>
      <trkpt lat="44.43203" lon="1.62072">
        <ele>365</ele>
        <time>2024-03-13T15:17:59Z</time>
      </trkpt>
      <trkpt lat="44.43202" lon="1.6207">
        <ele>365</ele>
        <time>2024-03-13T15:18:00Z</time>
      </trkpt>
      <trkpt lat="44.43202" lon="1.62069">
        <ele>366</ele>
        <time>2024-03-13T15:18:01Z</time>
      </trkpt>
      <trkpt lat="44.43201" lon="1.62068">
        <ele>366</ele>
        <time>2024-03-13T15:18:02Z</time>
      </trkpt>
      <trkpt lat="44.43201" lon="1.62067">
        <ele>366</ele>
        <time>2024-03-13T15:18:03Z</time>
      </trkpt>
      <trkpt lat="44.432" lon="1.62066">
        <ele>366</ele>
        <time>2024-03-13T15:18:04Z</time>
      </trkpt>
      <trkpt lat="44.432" lon="1.62064">
        <ele>366</ele>
        <time>2024-03-13T15:18:05Z</time>
      </trkpt>
      <trkpt lat="44.432" lon="1.62063">
        <ele>366</ele>
        <time>2024-03-13T15:18:06Z</time>
      </trkpt>
      <trkpt lat="44.432" lon="1.62062">
        <ele>366</ele>
        <time>2024-03-13T15:18:07Z</time>
      </trkpt>
      <trkpt lat="44.43199" lon="1.6206">
        <ele>366</ele>
        <time>2024-03-13T15:18:08Z</time>
      </trkpt>
      <trkpt lat="44.43199" lon="1.6206">
        <ele>366</ele>
        <time>2024-03-13T15:18:09Z</time>
      </trkpt>
      <trkpt lat="44.43198" lon="1.62058">
        <ele>366</ele>
        <time>2024-03-13T15:18:10Z</time>
      </trkpt>
      <trkpt lat="44.43198" lon="1.62058">
        <ele>366</ele>
        <time>2024-03-13T15:18:11Z</time>
      </trkpt>
      <trkpt lat="44.43197" lon="1.62057">
        <ele>367</ele>
        <time>2024-03-13T15:18:12Z</time>
      </trkpt>
      <trkpt lat="44.43196" lon="1.62056">
        <ele>367</ele>
        <time>2024-03-13T15:18:13Z</time>
      </trkpt>
      <trkpt lat="44.43196" lon="1.62055">
        <ele>367</ele>
        <time>2024-03-13T15:18:14Z</time>
      </trkpt>
      <trkpt lat="44.43196" lon="1.62053">
        <ele>367</ele>
        <time>2024-03-13T15:18:15Z</time>
      </trkpt>
      <trkpt lat="44.43196" lon="1.62052">
        <ele>367</ele>
        <time>2024-03-13T15:18:16Z</time>
      </trkpt>
      <trkpt lat="44.43196" lon="1.62051">
        <ele>367</ele>
        <time>2024-03-13T15:18:17Z</time>
      </trkpt>
      <trkpt lat="44.43196" lon="1.6205">
        <ele>367</ele>
        <time>2024-03-13T15:18:18Z</time>
      </trkpt>
      <trkpt lat="44.43196" lon="1.62049">
        <ele>368</ele>
        <time>2024-03-13T15:18:19Z</time>
      </trkpt>
      <trkpt lat="44.43195" lon="1.62048">
        <ele>367</ele>
        <time>2024-03-13T15:18:20Z</time>
      </trkpt>
      <trkpt lat="44.43195" lon="1.62047">
        <ele>367</ele>
        <time>2024-03-13T15:18:21Z</time>
      </trkpt>
      <trkpt lat="44.43195" lon="1.62046">
        <ele>368</ele>
        <time>2024-03-13T15:18:22Z</time>
      </trkpt>
      <trkpt lat="44.43195" lon="1.62044">
        <ele>368</ele>
        <time>2024-03-13T15:18:23Z</time>
      </trkpt>
      <trkpt lat="44.43195" lon="1.62043">
        <ele>367</ele>
        <time>2024-03-13T15:18:24Z</time>
      </trkpt>
      <trkpt lat="44.43194" lon="1.62042">
        <ele>368</ele>
        <time>2024-03-13T15:18:25Z</time>
      </trkpt>
      <trkpt lat="44.43194" lon="1.62041">
        <ele>368</ele>
        <time>2024-03-13T15:18:26Z</time>
      </trkpt>
      <trkpt lat="44.43193" lon="1.6204">
        <ele>368</ele>
        <time>2024-03-13T15:18:27Z</time>
      </trkpt>
      <trkpt lat="44.43193" lon="1.62039">
        <ele>368</ele>
        <time>2024-03-13T15:18:28Z</time>
      </trkpt>
      <trkpt lat="44.43192" lon="1.62038">
        <ele>368</ele>
        <time>2024-03-13T15:18:29Z</time>
      </trkpt>
      <trkpt lat="44.43192" lon="1.62037">
        <ele>369</ele>
        <time>2024-03-13T15:18:30Z</time>
      </trkpt>
      <trkpt lat="44.43191" lon="1.62036">
        <ele>369</ele>
        <time>2024-03-13T15:18:31Z</time>
      </trkpt>
      <trkpt lat="44.43191" lon="1.62035">
        <ele>369</ele>
        <time>2024-03-13T15:18:32Z</time>
      </trkpt>
      <trkpt lat="44.43191" lon="1.62033">
        <ele>370</ele>
        <time>2024-03-13T15:18:33Z</time>
      </trkpt>
      <trkpt lat="44.4319" lon="1.62032">
        <ele>370</ele>
        <time>2024-03-13T15:18:34Z</time>
      </trkpt>
      <trkpt lat="44.4319" lon="1.62031">
        <ele>370</ele>
        <time>2024-03-13T15:18:35Z</time>
      </trkpt>
      <trkpt lat="44.43189" lon="1.6203">
        <ele>370</ele>
        <time>2024-03-13T15:18:36Z</time>
      </trkpt>
      <trkpt lat="44.43188" lon="1.62028">
        <ele>370</ele>
        <time>2024-03-13T15:18:37Z</time>
      </trkpt>
      <trkpt lat="44.43187" lon="1.62027">
        <ele>369</ele>
        <time>2024-03-13T15:18:38Z</time>
      </trkpt>
      <trkpt lat="44.43187" lon="1.62026">
        <ele>369</ele>
        <time>2024-03-13T15:18:39Z</time>
      </trkpt>
      <trkpt lat="44.43186" lon="1.62025">
        <ele>370</ele>
        <time>2024-03-13T15:18:40Z</time>
      </trkpt>
      <trkpt lat="44.43185" lon="1.62024">
        <ele>370</ele>
        <time>2024-03-13T15:18:41Z</time>
      </trkpt>
      <trkpt lat="44.43185" lon="1.62023">
        <ele>370</ele>
        <time>2024-03-13T15:18:42Z</time>
      </trkpt>
      <trkpt lat="44.43184" lon="1.62022">
        <ele>370</ele>
        <time>2024-03-13T15:18:43Z</time>
      </trkpt>
      <trkpt lat="44.43184" lon="1.62021">
        <ele>370</ele>
        <time>2024-03-13T15:18:44Z</time>
      </trkpt>
      <trkpt lat="44.43183" lon="1.6202">
        <ele>370</ele>
        <time>2024-03-13T15:18:45Z</time>
      </trkpt>
      <trkpt lat="44.43183" lon="1.62019">
        <ele>370</ele>
        <time>2024-03-13T15:18:46Z</time>
      </trkpt>
      <trkpt lat="44.43182" lon="1.62018">
        <ele>370</ele>
        <time>2024-03-13T15:18:47Z</time>
      </trkpt>
      <trkpt lat="44.43182" lon="1.62017">
        <ele>370</ele>
        <time>2024-03-13T15:18:48Z</time>
      </trkpt>
      <trkpt lat="44.43181" lon="1.62017">
        <ele>371</ele>
        <time>2024-03-13T15:18:49Z</time>
      </trkpt>
      <trkpt lat="44.4318" lon="1.62016">
        <ele>371</ele>
        <time>2024-03-13T15:18:50Z</time>
      </trkpt>
      <trkpt lat="44.4318" lon="1.62015">
        <ele>370</ele>
        <time>2024-03-13T15:18:51Z</time>
      </trkpt>
      <trkpt lat="44.43179" lon="1.62014">
        <ele>371</ele>
        <time>2024-03-13T15:18:52Z</time>
      </trkpt>
      <trkpt lat="44.43179" lon="1.62012">
        <ele>372</ele>
        <time>2024-03-13T15:18:53Z</time>
      </trkpt>
      <trkpt lat="44.43178" lon="1.62011">
        <ele>372</ele>
        <time>2024-03-13T15:18:54Z</time>
      </trkpt>
      <trkpt lat="44.43177" lon="1.6201">
        <ele>372</ele>
        <time>2024-03-13T15:18:55Z</time>
      </trkpt>
      <trkpt lat="44.43177" lon="1.62009">
        <ele>372</ele>
        <time>2024-03-13T15:18:56Z</time>
      </trkpt>
      <trkpt lat="44.43176" lon="1.62008">
        <ele>372</ele>
        <time>2024-03-13T15:18:57Z</time>
      </trkpt>
      <trkpt lat="44.43175" lon="1.62007">
        <ele>372</ele>
        <time>2024-03-13T15:18:58Z</time>
      </trkpt>
      <trkpt lat="44.43174" lon="1.62006">
        <ele>372</ele>
        <time>2024-03-13T15:18:59Z</time>
      </trkpt>
      <trkpt lat="44.43174" lon="1.62005">
        <ele>372</ele>
        <time>2024-03-13T15:19:00Z</time>
      </trkpt>
      <trkpt lat="44.43173" lon="1.62003">
        <ele>371</ele>
        <time>2024-03-13T15:19:01Z</time>
      </trkpt>
      <trkpt lat="44.43172" lon="1.62002">
        <ele>372</ele>
        <time>2024-03-13T15:19:02Z</time>
      </trkpt>
      <trkpt lat="44.43172" lon="1.62">
        <ele>372</ele>
        <time>2024-03-13T15:19:03Z</time>
      </trkpt>
      <trkpt lat="44.43171" lon="1.61999">
        <ele>372</ele>
        <time>2024-03-13T15:19:04Z</time>
      </trkpt>
      <trkpt lat="44.43171" lon="1.61997">
        <ele>372</ele>
        <time>2024-03-13T15:19:05Z</time>
      </trkpt>
      <trkpt lat="44.4317" lon="1.61996">
        <ele>372</ele>
        <time>2024-03-13T15:19:06Z</time>
      </trkpt>
      <trkpt lat="44.43169" lon="1.61995">
        <ele>372</ele>
        <time>2024-03-13T15:19:07Z</time>
      </trkpt>
      <trkpt lat="44.43169" lon="1.61994">
        <ele>372</ele>
        <time>2024-03-13T15:19:08Z</time>
      </trkpt>
      <trkpt lat="44.43169" lon="1.61993">
        <ele>372</ele>
        <time>2024-03-13T15:19:09Z</time>
      </trkpt>
      <trkpt lat="44.43168" lon="1.61991">
        <ele>372</ele>
        <time>2024-03-13T15:19:10Z</time>
      </trkpt>
      <trkpt lat="44.43167" lon="1.6199">
        <ele>372</ele>
        <time>2024-03-13T15:19:11Z</time>
      </trkpt>
      <trkpt lat="44.43167" lon="1.61989">
        <ele>373</ele>
        <time>2024-03-13T15:19:12Z</time>
      </trkpt>
      <trkpt lat="44.43166" lon="1.61988">
        <ele>373</ele>
        <time>2024-03-13T15:19:13Z</time>
      </trkpt>
      <trkpt lat="44.43166" lon="1.61987">
        <ele>373</ele>
        <time>2024-03-13T15:19:14Z</time>
      </trkpt>
      <trkpt lat="44.43165" lon="1.61986">
        <ele>374</ele>
        <time>2024-03-13T15:19:15Z</time>
      </trkpt>
      <trkpt lat="44.43164" lon="1.61985">
        <ele>373</ele>
        <time>2024-03-13T15:19:16Z</time>
      </trkpt>
      <trkpt lat="44.43164" lon="1.61984">
        <ele>374</ele>
        <time>2024-03-13T15:19:17Z</time>
      </trkpt>
      <trkpt lat="44.43163" lon="1.61983">
        <ele>375</ele>
        <time>2024-03-13T15:19:18Z</time>
      </trkpt>
      <trkpt lat="44.43162" lon="1.61982">
        <ele>375</ele>
        <time>2024-03-13T15:19:19Z</time>
      </trkpt>
      <trkpt lat="44.43161" lon="1.61981">
        <ele>375</ele>
        <time>2024-03-13T15:19:20Z</time>
      </trkpt>
      <trkpt lat="44.43161" lon="1.6198">
        <ele>375</ele>
        <time>2024-03-13T15:19:21Z</time>
      </trkpt>
      <trkpt lat="44.4316" lon="1.61979">
        <ele>375</ele>
        <time>2024-03-13T15:19:22Z</time>
      </trkpt>
      <trkpt lat="44.4316" lon="1.61978">
        <ele>375</ele>
        <time>2024-03-13T15:19:23Z</time>
      </trkpt>
      <trkpt lat="44.43159" lon="1.61977">
        <ele>375</ele>
        <time>2024-03-13T15:19:24Z</time>
      </trkpt>
      <trkpt lat="44.43158" lon="1.61976">
        <ele>375</ele>
        <time>2024-03-13T15:19:25Z</time>
      </trkpt>
      <trkpt lat="44.43158" lon="1.61975">
        <ele>376</ele>
        <time>2024-03-13T15:19:26Z</time>
      </trkpt>
      <trkpt lat="44.43157" lon="1.61974">
        <ele>375</ele>
        <time>2024-03-13T15:19:27Z</time>
      </trkpt>
      <trkpt lat="44.43156" lon="1.61973">
        <ele>375</ele>
        <time>2024-03-13T15:19:28Z</time>
      </trkpt>
      <trkpt lat="44.43156" lon="1.61972">
        <ele>375</ele>
        <time>2024-03-13T15:19:29Z</time>
      </trkpt>
      <trkpt lat="44.43155" lon="1.61971">
        <ele>375</ele>
        <time>2024-03-13T15:19:30Z</time>
      </trkpt>
      <trkpt lat="44.43155" lon="1.61969">
        <ele>376</ele>
        <time>2024-03-13T15:19:31Z</time>
      </trkpt>
      <trkpt lat="44.43154" lon="1.61969">
        <ele>375</ele>
        <time>2024-03-13T15:19:32Z</time>
      </trkpt>
      <trkpt lat="44.43153" lon="1.61968">
        <ele>375</ele>
        <time>2024-03-13T15:19:33Z</time>
      </trkpt>
      <trkpt lat="44.43153" lon="1.61967">
        <ele>375</ele>
        <time>2024-03-13T15:19:34Z</time>
      </trkpt>
      <trkpt lat="44.43152" lon="1.61966">
        <ele>375</ele>
        <time>2024-03-13T15:19:35Z</time>
      </trkpt>
      <trkpt lat="44.43152" lon="1.61965">
        <ele>375</ele>
        <time>2024-03-13T15:19:36Z</time>
      </trkpt>
      <trkpt lat="44.43151" lon="1.61964">
        <ele>375</ele>
        <time>2024-03-13T15:19:37Z</time>
      </trkpt>
      <trkpt lat="44.43151" lon="1.61963">
        <ele>375</ele>
        <time>2024-03-13T15:19:38Z</time>
      </trkpt>
      <trkpt lat="44.4315" lon="1.61962">
        <ele>376</ele>
        <time>2024-03-13T15:19:39Z</time>
      </trkpt>
      <trkpt lat="44.4315" lon="1.61961">
        <ele>376</ele>
        <time>2024-03-13T15:19:40Z</time>
      </trkpt>
      <trkpt lat="44.4315" lon="1.61961">
        <ele>376</ele>
        <time>2024-03-13T15:19:41Z</time>
      </trkpt>
      <trkpt lat="44.4315" lon="1.61959">
        <ele>377</ele>
        <time>2024-03-13T15:19:42Z</time>
      </trkpt>
      <trkpt lat="44.4315" lon="1.61958">
        <ele>377</ele>
        <time>2024-03-13T15:19:43Z</time>
      </trkpt>
      <trkpt lat="44.4315" lon="1.61958">
        <ele>377</ele>
        <time>2024-03-13T15:19:44Z</time>
      </trkpt>
      <trkpt lat="44.43149" lon="1.61958">
        <ele>378</ele>
        <time>2024-03-13T15:19:45Z</time>
      </trkpt>
      <trkpt lat="44.43149" lon="1.61958">
        <ele>378</ele>
        <time>2024-03-13T15:19:46Z</time>
      </trkpt>
      <trkpt lat="44.43149" lon="1.61958">
        <ele>378</ele>
        <time>2024-03-13T15:19:47Z</time>
      </trkpt>
      <trkpt lat="44.43149" lon="1.61958">
        <ele>378</ele>
        <time>2024-03-13T15:19:48Z</time>
      </trkpt>
      <trkpt lat="44.43149" lon="1.61958">
        <ele>378</ele>
        <time>2024-03-13T15:19:49Z</time>
      </trkpt>
      <trkpt lat="44.43149" lon="1.61958">
        <ele>378</ele>
        <time>2024-03-13T15:19:50Z</time>
      </trkpt>
      <trkpt lat="44.43149" lon="1.61958">
        <ele>378</ele>
        <time>2024-03-13T15:19:51Z</time>
      </trkpt>
      <trkpt lat="44.43149" lon="1.61958">
        <ele>378</ele>
        <time>2024-03-13T15:19:52Z</time>
      </trkpt>
      <trkpt lat="44.43149" lon="1.61958">
        <ele>378</ele>
        <time>2024-03-13T15:19:53Z</time>
      </trkpt>
      <trkpt lat="44.43149" lon="1.61958">
        <ele>378</ele>
        <time>2024-03-13T15:19:54Z</time>
      </trkpt>
      <trkpt lat="44.43149" lon="1.61958">
        <ele>378</ele>
        <time>2024-03-13T15:19:55Z</time>
      </trkpt>
      <trkpt lat="44.43149" lon="1.61958">
        <ele>378</ele>
        <time>2024-03-13T15:19:56Z</time>
      </trkpt>
      <trkpt lat="44.43149" lon="1.61958">
        <ele>378</ele>
        <time>2024-03-13T15:19:57Z</time>
      </trkpt>
      <trkpt lat="44.43149" lon="1.61958">
        <ele>378</ele>
        <time>2024-03-13T15:19:58Z</time>
      </trkpt>
      <trkpt lat="44.43148" lon="1.61955">
        <ele>378</ele>
        <time>2024-03-13T15:19:59Z</time>
      </trkpt>
      <trkpt lat="44.43148" lon="1.61954">
        <ele>378</ele>
        <time>2024-03-13T15:20:00Z</time>
      </trkpt>
      <trkpt lat="44.43148" lon="1.61953">
        <ele>378</ele>
        <time>2024-03-13T15:20:01Z</time>
      </trkpt>
      <trkpt lat="44.43148" lon="1.61953">
        <ele>378</ele>
        <time>2024-03-13T15:20:02Z</time>
      </trkpt>
      <trkpt lat="44.43148" lon="1.61952">
        <ele>377</ele>
        <time>2024-03-13T15:20:03Z</time>
      </trkpt>
      <trkpt lat="44.43148" lon="1.61952">
        <ele>377</ele>
        <time>2024-03-13T15:20:04Z</time>
      </trkpt>
      <trkpt lat="44.43148" lon="1.61952">
        <ele>377</ele>
        <time>2024-03-13T15:20:05Z</time>
      </trkpt>
      <trkpt lat="44.43148" lon="1.61952">
        <ele>377</ele>
        <time>2024-03-13T15:20:06Z</time>
      </trkpt>
      <trkpt lat="44.43148" lon="1.61952">
        <ele>377</ele>
        <time>2024-03-13T15:20:07Z</time>
      </trkpt>
      <trkpt lat="44.43148" lon="1.61952">
        <ele>377</ele>
        <time>2024-03-13T15:20:08Z</time>
      </trkpt>
      <trkpt lat="44.43148" lon="1.61952">
        <ele>377</ele>
        <time>2024-03-13T15:20:09Z</time>
      </trkpt>
      <trkpt lat="44.43148" lon="1.61952">
        <ele>377</ele>
        <time>2024-03-13T15:20:10Z</time>
      </trkpt>
      <trkpt lat="44.43148" lon="1.61952">
        <ele>377</ele>
        <time>2024-03-13T15:20:11Z</time>
      </trkpt>
      <trkpt lat="44.43148" lon="1.61952">
        <ele>377</ele>
        <time>2024-03-13T15:20:12Z</time>
      </trkpt>
      <trkpt lat="44.43148" lon="1.61952">
        <ele>377</ele>
        <time>2024-03-13T15:20:13Z</time>
      </trkpt>
      <trkpt lat="44.43148" lon="1.61952">
        <ele>377</ele>
        <time>2024-03-13T15:20:14Z</time>
      </trkpt>
      <trkpt lat="44.43148" lon="1.61952">
        <ele>377</ele>
        <time>2024-03-13T15:20:15Z</time>
      </trkpt>
      <trkpt lat="44.43148" lon="1.61952">
        <ele>377</ele>
        <time>2024-03-13T15:20:16Z</time>
      </trkpt>
      <trkpt lat="44.43149" lon="1.61951">
        <ele>377</ele>
        <time>2024-03-13T15:20:17Z</time>
      </trkpt>
      <trkpt lat="44.43149" lon="1.6195">
        <ele>377</ele>
        <time>2024-03-13T15:20:18Z</time>
      </trkpt>
      <trkpt lat="44.4315" lon="1.61949">
        <ele>377</ele>
        <time>2024-03-13T15:20:19Z</time>
      </trkpt>
      <trkpt lat="44.4315" lon="1.61948">
        <ele>378</ele>
        <time>2024-03-13T15:20:20Z</time>
      </trkpt>
      <trkpt lat="44.43151" lon="1.61948">
        <ele>378</ele>
        <time>2024-03-13T15:20:21Z</time>
      </trkpt>
      <trkpt lat="44.43151" lon="1.61947">
        <ele>377</ele>
        <time>2024-03-13T15:20:22Z</time>
      </trkpt>
      <trkpt lat="44.43151" lon="1.61946">
        <ele>377</ele>
        <time>2024-03-13T15:20:23Z</time>
      </trkpt>
      <trkpt lat="44.43151" lon="1.61945">
        <ele>378</ele>
        <time>2024-03-13T15:20:24Z</time>
      </trkpt>
      <trkpt lat="44.43151" lon="1.61944">
        <ele>378</ele>
        <time>2024-03-13T15:20:25Z</time>
      </trkpt>
      <trkpt lat="44.43152" lon="1.61943">
        <ele>378</ele>
        <time>2024-03-13T15:20:26Z</time>
      </trkpt>
      <trkpt lat="44.43153" lon="1.61943">
        <ele>378</ele>
        <time>2024-03-13T15:20:27Z</time>
      </trkpt>
      <trkpt lat="44.43153" lon="1.61942">
        <ele>378</ele>
        <time>2024-03-13T15:20:28Z</time>
      </trkpt>
      <trkpt lat="44.43153" lon="1.61942">
        <ele>378</ele>
        <time>2024-03-13T15:20:29Z</time>
      </trkpt>
      <trkpt lat="44.43153" lon="1.61942">
        <ele>378</ele>
        <time>2024-03-13T15:20:30Z</time>
      </trkpt>
      <trkpt lat="44.43154" lon="1.61939">
        <ele>378</ele>
        <time>2024-03-13T15:20:31Z</time>
      </trkpt>
      <trkpt lat="44.43154" lon="1.61938">
        <ele>378</ele>
        <time>2024-03-13T15:20:32Z</time>
      </trkpt>
      <trkpt lat="44.43155" lon="1.61937">
        <ele>378</ele>
        <time>2024-03-13T15:20:33Z</time>
      </trkpt>
      <trkpt lat="44.43155" lon="1.61936">
        <ele>378</ele>
        <time>2024-03-13T15:20:34Z</time>
      </trkpt>
      <trkpt lat="44.43155" lon="1.61936">
        <ele>378</ele>
        <time>2024-03-13T15:20:35Z</time>
      </trkpt>
      <trkpt lat="44.43156" lon="1.61935">
        <ele>378</ele>
        <time>2024-03-13T15:20:36Z</time>
      </trkpt>
      <trkpt lat="44.43156" lon="1.61934">
        <ele>378</ele>
        <time>2024-03-13T15:20:37Z</time>
      </trkpt>
      <trkpt lat="44.43157" lon="1.61933">
        <ele>378</ele>
        <time>2024-03-13T15:20:38Z</time>
      </trkpt>
      <trkpt lat="44.43157" lon="1.61932">
        <ele>378</ele>
        <time>2024-03-13T15:20:39Z</time>
      </trkpt>
      <trkpt lat="44.43158" lon="1.61931">
        <ele>378</ele>
        <time>2024-03-13T15:20:40Z</time>
      </trkpt>
      <trkpt lat="44.43158" lon="1.6193">
        <ele>379</ele>
        <time>2024-03-13T15:20:41Z</time>
      </trkpt>
      <trkpt lat="44.43158" lon="1.61928">
        <ele>379</ele>
        <time>2024-03-13T15:20:42Z</time>
      </trkpt>
      <trkpt lat="44.43159" lon="1.61927">
        <ele>379</ele>
        <time>2024-03-13T15:20:43Z</time>
      </trkpt>
      <trkpt lat="44.43159" lon="1.61926">
        <ele>379</ele>
        <time>2024-03-13T15:20:44Z</time>
      </trkpt>
      <trkpt lat="44.4316" lon="1.61925">
        <ele>380</ele>
        <time>2024-03-13T15:20:45Z</time>
      </trkpt>
      <trkpt lat="44.43161" lon="1.61924">
        <ele>380</ele>
        <time>2024-03-13T15:20:46Z</time>
      </trkpt>
      <trkpt lat="44.43161" lon="1.61923">
        <ele>380</ele>
        <time>2024-03-13T15:20:47Z</time>
      </trkpt>
      <trkpt lat="44.43161" lon="1.61922">
        <ele>380</ele>
        <time>2024-03-13T15:20:48Z</time>
      </trkpt>
      <trkpt lat="44.43162" lon="1.61922">
        <ele>379</ele>
        <time>2024-03-13T15:20:49Z</time>
      </trkpt>
      <trkpt lat="44.43162" lon="1.61921">
        <ele>380</ele>
        <time>2024-03-13T15:20:50Z</time>
      </trkpt>
      <trkpt lat="44.43162" lon="1.6192">
        <ele>380</ele>
        <time>2024-03-13T15:20:51Z</time>
      </trkpt>
      <trkpt lat="44.43162" lon="1.61918">
        <ele>379</ele>
        <time>2024-03-13T15:20:52Z</time>
      </trkpt>
      <trkpt lat="44.43162" lon="1.61917">
        <ele>379</ele>
        <time>2024-03-13T15:20:53Z</time>
      </trkpt>
      <trkpt lat="44.43162" lon="1.61916">
        <ele>379</ele>
        <time>2024-03-13T15:20:54Z</time>
      </trkpt>
      <trkpt lat="44.43162" lon="1.61914">
        <ele>379</ele>
        <time>2024-03-13T15:20:55Z</time>
      </trkpt>
      <trkpt lat="44.43161" lon="1.61913">
        <ele>380</ele>
        <time>2024-03-13T15:20:56Z</time>
      </trkpt>
      <trkpt lat="44.43161" lon="1.61912">
        <ele>379</ele>
        <time>2024-03-13T15:20:57Z</time>
      </trkpt>
      <trkpt lat="44.4316" lon="1.61911">
        <ele>379</ele>
        <time>2024-03-13T15:20:58Z</time>
      </trkpt>
      <trkpt lat="44.4316" lon="1.61911">
        <ele>379</ele>
        <time>2024-03-13T15:20:59Z</time>
      </trkpt>
      <trkpt lat="44.43159" lon="1.61911">
        <ele>379</ele>
        <time>2024-03-13T15:21:00Z</time>
      </trkpt>
      <trkpt lat="44.43159" lon="1.61911">
        <ele>379</ele>
        <time>2024-03-13T15:21:01Z</time>
      </trkpt>
      <trkpt lat="44.43159" lon="1.61911">
        <ele>379</ele>
        <time>2024-03-13T15:21:02Z</time>
      </trkpt>
      <trkpt lat="44.43159" lon="1.61911">
        <ele>379</ele>
        <time>2024-03-13T15:21:03Z</time>
      </trkpt>
      <trkpt lat="44.43159" lon="1.61911">
        <ele>379</ele>
        <time>2024-03-13T15:21:04Z</time>
      </trkpt>
      <trkpt lat="44.43159" lon="1.61911">
        <ele>379</ele>
        <time>2024-03-13T15:21:05Z</time>
      </trkpt>
      <trkpt lat="44.43159" lon="1.61911">
        <ele>379</ele>
        <time>2024-03-13T15:21:06Z</time>
      </trkpt>
      <trkpt lat="44.43159" lon="1.61911">
        <ele>379</ele>
        <time>2024-03-13T15:21:07Z</time>
      </trkpt>
      <trkpt lat="44.43159" lon="1.61911">
        <ele>379</ele>
        <time>2024-03-13T15:21:08Z</time>
      </trkpt>
      <trkpt lat="44.43159" lon="1.61911">
        <ele>379</ele>
        <time>2024-03-13T15:21:09Z</time>
      </trkpt>
      <trkpt lat="44.43159" lon="1.6191">
        <ele>379</ele>
        <time>2024-03-13T15:21:10Z</time>
      </trkpt>
      <trkpt lat="44.43158" lon="1.61909">
        <ele>379</ele>
        <time>2024-03-13T15:21:11Z</time>
      </trkpt>
      <trkpt lat="44.43158" lon="1.61908">
        <ele>379</ele>
        <time>2024-03-13T15:21:12Z</time>
      </trkpt>
      <trkpt lat="44.43158" lon="1.61908">
        <ele>379</ele>
        <time>2024-03-13T15:21:13Z</time>
      </trkpt>
      <trkpt lat="44.43157" lon="1.61908">
        <ele>379</ele>
        <time>2024-03-13T15:21:14Z</time>
      </trkpt>
      <trkpt lat="44.43157" lon="1.61908">
        <ele>379</ele>
        <time>2024-03-13T15:21:15Z</time>
      </trkpt>
      <trkpt lat="44.43156" lon="1.61908">
        <ele>379</ele>
        <time>2024-03-13T15:21:16Z</time>
      </trkpt>
      <trkpt lat="44.43156" lon="1.61907">
        <ele>379</ele>
        <time>2024-03-13T15:21:17Z</time>
      </trkpt>
      <trkpt lat="44.43155" lon="1.61906">
        <ele>379</ele>
        <time>2024-03-13T15:21:18Z</time>
      </trkpt>
      <trkpt lat="44.43155" lon="1.61905">
        <ele>379</ele>
        <time>2024-03-13T15:21:19Z</time>
      </trkpt>
      <trkpt lat="44.43154" lon="1.61904">
        <ele>379</ele>
        <time>2024-03-13T15:21:20Z</time>
      </trkpt>
      <trkpt lat="44.43153" lon="1.61904">
        <ele>380</ele>
        <time>2024-03-13T15:21:21Z</time>
      </trkpt>
      <trkpt lat="44.43153" lon="1.61903">
        <ele>380</ele>
        <time>2024-03-13T15:21:22Z</time>
      </trkpt>
      <trkpt lat="44.43152" lon="1.61902">
        <ele>380</ele>
        <time>2024-03-13T15:21:23Z</time>
      </trkpt>
      <trkpt lat="44.43151" lon="1.61901">
        <ele>379</ele>
        <time>2024-03-13T15:21:24Z</time>
      </trkpt>
      <trkpt lat="44.4315" lon="1.619">
        <ele>379</ele>
        <time>2024-03-13T15:21:25Z</time>
      </trkpt>
      <trkpt lat="44.43149" lon="1.61899">
        <ele>379</ele>
        <time>2024-03-13T15:21:26Z</time>
      </trkpt>
      <trkpt lat="44.43149" lon="1.61898">
        <ele>380</ele>
        <time>2024-03-13T15:21:27Z</time>
      </trkpt>
      <trkpt lat="44.43148" lon="1.61897">
        <ele>380</ele>
        <time>2024-03-13T15:21:28Z</time>
      </trkpt>
      <trkpt lat="44.43148" lon="1.61896">
        <ele>380</ele>
        <time>2024-03-13T15:21:29Z</time>
      </trkpt>
      <trkpt lat="44.43148" lon="1.61895">
        <ele>380</ele>
        <time>2024-03-13T15:21:30Z</time>
      </trkpt>
      <trkpt lat="44.43147" lon="1.61894">
        <ele>380</ele>
        <time>2024-03-13T15:21:31Z</time>
      </trkpt>
      <trkpt lat="44.43147" lon="1.61892">
        <ele>381</ele>
        <time>2024-03-13T15:21:32Z</time>
      </trkpt>
      <trkpt lat="44.43147" lon="1.61891">
        <ele>381</ele>
        <time>2024-03-13T15:21:33Z</time>
      </trkpt>
      <trkpt lat="44.43147" lon="1.61889">
        <ele>381</ele>
        <time>2024-03-13T15:21:34Z</time>
      </trkpt>
      <trkpt lat="44.43147" lon="1.61888">
        <ele>381</ele>
        <time>2024-03-13T15:21:35Z</time>
      </trkpt>
      <trkpt lat="44.43147" lon="1.61887">
        <ele>381</ele>
        <time>2024-03-13T15:21:36Z</time>
      </trkpt>
      <trkpt lat="44.43147" lon="1.61886">
        <ele>381</ele>
        <time>2024-03-13T15:21:37Z</time>
      </trkpt>
      <trkpt lat="44.43146" lon="1.61885">
        <ele>381</ele>
        <time>2024-03-13T15:21:38Z</time>
      </trkpt>
      <trkpt lat="44.43146" lon="1.61883">
        <ele>380</ele>
        <time>2024-03-13T15:21:39Z</time>
      </trkpt>
      <trkpt lat="44.43146" lon="1.61882">
        <ele>381</ele>
        <time>2024-03-13T15:21:40Z</time>
      </trkpt>
      <trkpt lat="44.43146" lon="1.61881">
        <ele>381</ele>
        <time>2024-03-13T15:21:41Z</time>
      </trkpt>
      <trkpt lat="44.43146" lon="1.61879">
        <ele>381</ele>
        <time>2024-03-13T15:21:42Z</time>
      </trkpt>
      <trkpt lat="44.43145" lon="1.61878">
        <ele>381</ele>
        <time>2024-03-13T15:21:43Z</time>
      </trkpt>
      <trkpt lat="44.43145" lon="1.61877">
        <ele>382</ele>
        <time>2024-03-13T15:21:44Z</time>
      </trkpt>
      <trkpt lat="44.43145" lon="1.61876">
        <ele>382</ele>
        <time>2024-03-13T15:21:45Z</time>
      </trkpt>
      <trkpt lat="44.43144" lon="1.61875">
        <ele>382</ele>
        <time>2024-03-13T15:21:46Z</time>
      </trkpt>
      <trkpt lat="44.43144" lon="1.61873">
        <ele>382</ele>
        <time>2024-03-13T15:21:47Z</time>
      </trkpt>
      <trkpt lat="44.43144" lon="1.61871">
        <ele>382</ele>
        <time>2024-03-13T15:21:48Z</time>
      </trkpt>
      <trkpt lat="44.43143" lon="1.6187">
        <ele>382</ele>
        <time>2024-03-13T15:21:49Z</time>
      </trkpt>
      <trkpt lat="44.43143" lon="1.61869">
        <ele>382</ele>
        <time>2024-03-13T15:21:50Z</time>
      </trkpt>
      <trkpt lat="44.43143" lon="1.61867">
        <ele>382</ele>
        <time>2024-03-13T15:21:51Z</time>
      </trkpt>
      <trkpt lat="44.43143" lon="1.61866">
        <ele>382</ele>
        <time>2024-03-13T15:21:52Z</time>
      </trkpt>
      <trkpt lat="44.43142" lon="1.61865">
        <ele>382</ele>
        <time>2024-03-13T15:21:53Z</time>
      </trkpt>
      <trkpt lat="44.43142" lon="1.61864">
        <ele>382</ele>
        <time>2024-03-13T15:21:54Z</time>
      </trkpt>
      <trkpt lat="44.43142" lon="1.61862">
        <ele>382</ele>
        <time>2024-03-13T15:21:55Z</time>
      </trkpt>
      <trkpt lat="44.43141" lon="1.61861">
        <ele>383</ele>
        <time>2024-03-13T15:21:56Z</time>
      </trkpt>
      <trkpt lat="44.43141" lon="1.6186">
        <ele>383</ele>
        <time>2024-03-13T15:21:57Z</time>
      </trkpt>
      <trkpt lat="44.43141" lon="1.61858">
        <ele>383</ele>
        <time>2024-03-13T15:21:58Z</time>
      </trkpt>
      <trkpt lat="44.4314" lon="1.61856">
        <ele>383</ele>
        <time>2024-03-13T15:21:59Z</time>
      </trkpt>
      <trkpt lat="44.4314" lon="1.61855">
        <ele>383</ele>
        <time>2024-03-13T15:22:00Z</time>
      </trkpt>
      <trkpt lat="44.4314" lon="1.61854">
        <ele>383</ele>
        <time>2024-03-13T15:22:01Z</time>
      </trkpt>
      <trkpt lat="44.4314" lon="1.61852">
        <ele>384</ele>
        <time>2024-03-13T15:22:02Z</time>
      </trkpt>
      <trkpt lat="44.4314" lon="1.61851">
        <ele>385</ele>
        <time>2024-03-13T15:22:03Z</time>
      </trkpt>
      <trkpt lat="44.4314" lon="1.6185">
        <ele>385</ele>
        <time>2024-03-13T15:22:04Z</time>
      </trkpt>
      <trkpt lat="44.4314" lon="1.61848">
        <ele>385</ele>
        <time>2024-03-13T15:22:05Z</time>
      </trkpt>
      <trkpt lat="44.43139" lon="1.61847">
        <ele>385</ele>
        <time>2024-03-13T15:22:06Z</time>
      </trkpt>
      <trkpt lat="44.4314" lon="1.61845">
        <ele>385</ele>
        <time>2024-03-13T15:22:07Z</time>
      </trkpt>
      <trkpt lat="44.4314" lon="1.61843">
        <ele>386</ele>
        <time>2024-03-13T15:22:08Z</time>
      </trkpt>
      <trkpt lat="44.43139" lon="1.61842">
        <ele>386</ele>
        <time>2024-03-13T15:22:09Z</time>
      </trkpt>
      <trkpt lat="44.4314" lon="1.61841">
        <ele>386</ele>
        <time>2024-03-13T15:22:10Z</time>
      </trkpt>
      <trkpt lat="44.43139" lon="1.61839">
        <ele>386</ele>
        <time>2024-03-13T15:22:11Z</time>
      </trkpt>
      <trkpt lat="44.43139" lon="1.61838">
        <ele>386</ele>
        <time>2024-03-13T15:22:12Z</time>
      </trkpt>
      <trkpt lat="44.43139" lon="1.61836">
        <ele>386</ele>
        <time>2024-03-13T15:22:13Z</time>
      </trkpt>
      <trkpt lat="44.43139" lon="1.61835">
        <ele>386</ele>
        <time>2024-03-13T15:22:14Z</time>
      </trkpt>
      <trkpt lat="44.43138" lon="1.61834">
        <ele>386</ele>
        <time>2024-03-13T15:22:15Z</time>
      </trkpt>
      <trkpt lat="44.43138" lon="1.61833">
        <ele>386</ele>
        <time>2024-03-13T15:22:16Z</time>
      </trkpt>
      <trkpt lat="44.43138" lon="1.61831">
        <ele>387</ele>
        <time>2024-03-13T15:22:17Z</time>
      </trkpt>
      <trkpt lat="44.43138" lon="1.6183">
        <ele>388</ele>
        <time>2024-03-13T15:22:18Z</time>
      </trkpt>
      <trkpt lat="44.43138" lon="1.61828">
        <ele>388</ele>
        <time>2024-03-13T15:22:19Z</time>
      </trkpt>
      <trkpt lat="44.43137" lon="1.61827">
        <ele>388</ele>
        <time>2024-03-13T15:22:20Z</time>
      </trkpt>
      <trkpt lat="44.43137" lon="1.61826">
        <ele>388</ele>
        <time>2024-03-13T15:22:21Z</time>
      </trkpt>
      <trkpt lat="44.43137" lon="1.61824">
        <ele>388</ele>
        <time>2024-03-13T15:22:22Z</time>
      </trkpt>
      <trkpt lat="44.43137" lon="1.61824">
        <ele>388</ele>
        <time>2024-03-13T15:22:23Z</time>
      </trkpt>
      <trkpt lat="44.43137" lon="1.61823">
        <ele>388</ele>
        <time>2024-03-13T15:22:24Z</time>
      </trkpt>
      <trkpt lat="44.43137" lon="1.61821">
        <ele>388</ele>
        <time>2024-03-13T15:22:25Z</time>
      </trkpt>
      <trkpt lat="44.43137" lon="1.6182">
        <ele>389</ele>
        <time>2024-03-13T15:22:26Z</time>
      </trkpt>
      <trkpt lat="44.43136" lon="1.61818">
        <ele>388</ele>
        <time>2024-03-13T15:22:27Z</time>
      </trkpt>
      <trkpt lat="44.43136" lon="1.61817">
        <ele>388</ele>
        <time>2024-03-13T15:22:28Z</time>
      </trkpt>
      <trkpt lat="44.43135" lon="1.61816">
        <ele>388</ele>
        <time>2024-03-13T15:22:29Z</time>
      </trkpt>
      <trkpt lat="44.43135" lon="1.61814">
        <ele>388</ele>
        <time>2024-03-13T15:22:30Z</time>
      </trkpt>
      <trkpt lat="44.43135" lon="1.61813">
        <ele>388</ele>
        <time>2024-03-13T15:22:31Z</time>
      </trkpt>
      <trkpt lat="44.43134" lon="1.61812">
        <ele>388</ele>
        <time>2024-03-13T15:22:32Z</time>
      </trkpt>
      <trkpt lat="44.43134" lon="1.6181">
        <ele>388</ele>
        <time>2024-03-13T15:22:33Z</time>
      </trkpt>
      <trkpt lat="44.43134" lon="1.61809">
        <ele>388</ele>
        <time>2024-03-13T15:22:34Z</time>
      </trkpt>
      <trkpt lat="44.43133" lon="1.61807">
        <ele>388</ele>
        <time>2024-03-13T15:22:35Z</time>
      </trkpt>
      <trkpt lat="44.43132" lon="1.61806">
        <ele>388</ele>
        <time>2024-03-13T15:22:36Z</time>
      </trkpt>
      <trkpt lat="44.43132" lon="1.61805">
        <ele>388</ele>
        <time>2024-03-13T15:22:37Z</time>
      </trkpt>
      <trkpt lat="44.43132" lon="1.61804">
        <ele>389</ele>
        <time>2024-03-13T15:22:38Z</time>
      </trkpt>
      <trkpt lat="44.43132" lon="1.61803">
        <ele>389</ele>
        <time>2024-03-13T15:22:39Z</time>
      </trkpt>
      <trkpt lat="44.43132" lon="1.61801">
        <ele>389</ele>
        <time>2024-03-13T15:22:40Z</time>
      </trkpt>
      <trkpt lat="44.43131" lon="1.618">
        <ele>389</ele>
        <time>2024-03-13T15:22:41Z</time>
      </trkpt>
      <trkpt lat="44.43131" lon="1.61798">
        <ele>389</ele>
        <time>2024-03-13T15:22:42Z</time>
      </trkpt>
      <trkpt lat="44.43131" lon="1.61797">
        <ele>389</ele>
        <time>2024-03-13T15:22:43Z</time>
      </trkpt>
      <trkpt lat="44.4313" lon="1.61796">
        <ele>389</ele>
        <time>2024-03-13T15:22:44Z</time>
      </trkpt>
      <trkpt lat="44.4313" lon="1.61794">
        <ele>389</ele>
        <time>2024-03-13T15:22:45Z</time>
      </trkpt>
      <trkpt lat="44.4313" lon="1.61792">
        <ele>389</ele>
        <time>2024-03-13T15:22:46Z</time>
      </trkpt>
      <trkpt lat="44.43129" lon="1.6179">
        <ele>390</ele>
        <time>2024-03-13T15:22:47Z</time>
      </trkpt>
      <trkpt lat="44.43129" lon="1.61789">
        <ele>389</ele>
        <time>2024-03-13T15:22:48Z</time>
      </trkpt>
      <trkpt lat="44.43129" lon="1.61787">
        <ele>389</ele>
        <time>2024-03-13T15:22:49Z</time>
      </trkpt>
      <trkpt lat="44.43128" lon="1.61786">
        <ele>390</ele>
        <time>2024-03-13T15:22:50Z</time>
      </trkpt>
      <trkpt lat="44.43128" lon="1.61784">
        <ele>390</ele>
        <time>2024-03-13T15:22:51Z</time>
      </trkpt>
      <trkpt lat="44.43128" lon="1.61782">
        <ele>389</ele>
        <time>2024-03-13T15:22:52Z</time>
      </trkpt>
      <trkpt lat="44.43127" lon="1.61781">
        <ele>389</ele>
        <time>2024-03-13T15:22:53Z</time>
      </trkpt>
      <trkpt lat="44.43127" lon="1.61779">
        <ele>389</ele>
        <time>2024-03-13T15:22:54Z</time>
      </trkpt>
      <trkpt lat="44.43126" lon="1.61778">
        <ele>389</ele>
        <time>2024-03-13T15:22:55Z</time>
      </trkpt>
      <trkpt lat="44.43126" lon="1.61776">
        <ele>389</ele>
        <time>2024-03-13T15:22:56Z</time>
      </trkpt>
      <trkpt lat="44.43125" lon="1.61775">
        <ele>389</ele>
        <time>2024-03-13T15:22:57Z</time>
      </trkpt>
      <trkpt lat="44.43125" lon="1.61774">
        <ele>389</ele>
        <time>2024-03-13T15:22:58Z</time>
      </trkpt>
      <trkpt lat="44.43124" lon="1.61773">
        <ele>389</ele>
        <time>2024-03-13T15:22:59Z</time>
      </trkpt>
      <trkpt lat="44.43124" lon="1.61771">
        <ele>389</ele>
        <time>2024-03-13T15:23:00Z</time>
      </trkpt>
      <trkpt lat="44.43123" lon="1.61769">
        <ele>388</ele>
        <time>2024-03-13T15:23:01Z</time>
      </trkpt>
      <trkpt lat="44.43122" lon="1.61766">
        <ele>389</ele>
        <time>2024-03-13T15:23:03Z</time>
      </trkpt>
      <trkpt lat="44.43122" lon="1.61765">
        <ele>389</ele>
        <time>2024-03-13T15:23:04Z</time>
      </trkpt>
      <trkpt lat="44.43122" lon="1.61763">
        <ele>389</ele>
        <time>2024-03-13T15:23:05Z</time>
      </trkpt>
      <trkpt lat="44.43122" lon="1.61762">
        <ele>389</ele>
        <time>2024-03-13T15:23:06Z</time>
      </trkpt>
      <trkpt lat="44.43122" lon="1.6176">
        <ele>389</ele>
        <time>2024-03-13T15:23:07Z</time>
      </trkpt>
      <trkpt lat="44.43121" lon="1.61759">
        <ele>388</ele>
        <time>2024-03-13T15:23:08Z</time>
      </trkpt>
      <trkpt lat="44.43121" lon="1.61757">
        <ele>388</ele>
        <time>2024-03-13T15:23:09Z</time>
      </trkpt>
      <trkpt lat="44.4312" lon="1.61756">
        <ele>388</ele>
        <time>2024-03-13T15:23:10Z</time>
      </trkpt>
      <trkpt lat="44.43119" lon="1.61755">
        <ele>388</ele>
        <time>2024-03-13T15:23:11Z</time>
      </trkpt>
      <trkpt lat="44.43119" lon="1.61753">
        <ele>388</ele>
        <time>2024-03-13T15:23:12Z</time>
      </trkpt>
      <trkpt lat="44.43119" lon="1.61751">
        <ele>389</ele>
        <time>2024-03-13T15:23:13Z</time>
      </trkpt>
      <trkpt lat="44.43119" lon="1.6175">
        <ele>389</ele>
        <time>2024-03-13T15:23:14Z</time>
      </trkpt>
      <trkpt lat="44.43118" lon="1.61748">
        <ele>389</ele>
        <time>2024-03-13T15:23:15Z</time>
      </trkpt>
      <trkpt lat="44.43118" lon="1.61746">
        <ele>389</ele>
        <time>2024-03-13T15:23:16Z</time>
      </trkpt>
      <trkpt lat="44.43118" lon="1.61745">
        <ele>388</ele>
        <time>2024-03-13T15:23:17Z</time>
      </trkpt>
      <trkpt lat="44.43118" lon="1.61743">
        <ele>388</ele>
        <time>2024-03-13T15:23:18Z</time>
      </trkpt>
      <trkpt lat="44.43117" lon="1.61741">
        <ele>388</ele>
        <time>2024-03-13T15:23:19Z</time>
      </trkpt>
      <trkpt lat="44.43117" lon="1.6174">
        <ele>389</ele>
        <time>2024-03-13T15:23:20Z</time>
      </trkpt>
      <trkpt lat="44.43116" lon="1.61738">
        <ele>389</ele>
        <time>2024-03-13T15:23:21Z</time>
      </trkpt>
      <trkpt lat="44.43116" lon="1.61737">
        <ele>388</ele>
        <time>2024-03-13T15:23:22Z</time>
      </trkpt>
      <trkpt lat="44.43116" lon="1.61735">
        <ele>388</ele>
        <time>2024-03-13T15:23:23Z</time>
      </trkpt>
      <trkpt lat="44.43116" lon="1.61733">
        <ele>388</ele>
        <time>2024-03-13T15:23:24Z</time>
      </trkpt>
      <trkpt lat="44.43116" lon="1.61732">
        <ele>389</ele>
        <time>2024-03-13T15:23:25Z</time>
      </trkpt>
      <trkpt lat="44.43115" lon="1.6173">
        <ele>389</ele>
        <time>2024-03-13T15:23:26Z</time>
      </trkpt>
      <trkpt lat="44.43114" lon="1.61728">
        <ele>389</ele>
        <time>2024-03-13T15:23:27Z</time>
      </trkpt>
      <trkpt lat="44.43114" lon="1.61727">
        <ele>389</ele>
        <time>2024-03-13T15:23:28Z</time>
      </trkpt>
      <trkpt lat="44.43114" lon="1.61726">
        <ele>389</ele>
        <time>2024-03-13T15:23:29Z</time>
      </trkpt>
      <trkpt lat="44.43113" lon="1.61724">
        <ele>389</ele>
        <time>2024-03-13T15:23:30Z</time>
      </trkpt>
      <trkpt lat="44.43113" lon="1.61723">
        <ele>388</ele>
        <time>2024-03-13T15:23:31Z</time>
      </trkpt>
      <trkpt lat="44.43112" lon="1.61722">
        <ele>389</ele>
        <time>2024-03-13T15:23:32Z</time>
      </trkpt>
      <trkpt lat="44.43112" lon="1.6172">
        <ele>389</ele>
        <time>2024-03-13T15:23:33Z</time>
      </trkpt>
      <trkpt lat="44.43112" lon="1.61718">
        <ele>389</ele>
        <time>2024-03-13T15:23:34Z</time>
      </trkpt>
      <trkpt lat="44.43112" lon="1.61716">
        <ele>389</ele>
        <time>2024-03-13T15:23:35Z</time>
      </trkpt>
      <trkpt lat="44.43112" lon="1.61714">
        <ele>390</ele>
        <time>2024-03-13T15:23:36Z</time>
      </trkpt>
      <trkpt lat="44.43111" lon="1.61712">
        <ele>390</ele>
        <time>2024-03-13T15:23:37Z</time>
      </trkpt>
      <trkpt lat="44.43111" lon="1.6171">
        <ele>390</ele>
        <time>2024-03-13T15:23:38Z</time>
      </trkpt>
      <trkpt lat="44.43111" lon="1.61709">
        <ele>390</ele>
        <time>2024-03-13T15:23:39Z</time>
      </trkpt>
      <trkpt lat="44.43111" lon="1.61707">
        <ele>390</ele>
        <time>2024-03-13T15:23:40Z</time>
      </trkpt>
      <trkpt lat="44.43111" lon="1.61705">
        <ele>390</ele>
        <time>2024-03-13T15:23:41Z</time>
      </trkpt>
      <trkpt lat="44.43111" lon="1.61704">
        <ele>390</ele>
        <time>2024-03-13T15:23:42Z</time>
      </trkpt>
      <trkpt lat="44.43111" lon="1.61703">
        <ele>390</ele>
        <time>2024-03-13T15:23:43Z</time>
      </trkpt>
      <trkpt lat="44.43111" lon="1.61701">
        <ele>390</ele>
        <time>2024-03-13T15:23:44Z</time>
      </trkpt>
      <trkpt lat="44.43111" lon="1.617">
        <ele>390</ele>
        <time>2024-03-13T15:23:45Z</time>
      </trkpt>
      <trkpt lat="44.43111" lon="1.61698">
        <ele>390</ele>
        <time>2024-03-13T15:23:46Z</time>
      </trkpt>
      <trkpt lat="44.4311" lon="1.61697">
        <ele>389</ele>
        <time>2024-03-13T15:23:47Z</time>
      </trkpt>
      <trkpt lat="44.4311" lon="1.61697">
        <ele>389</ele>
        <time>2024-03-13T15:23:48Z</time>
      </trkpt>
      <trkpt lat="44.4311" lon="1.61696">
        <ele>388</ele>
        <time>2024-03-13T15:23:49Z</time>
      </trkpt>
      <trkpt lat="44.4311" lon="1.61696">
        <ele>388</ele>
        <time>2024-03-13T15:23:50Z</time>
      </trkpt>
      <trkpt lat="44.4311" lon="1.61696">
        <ele>388</ele>
        <time>2024-03-13T15:23:51Z</time>
      </trkpt>
      <trkpt lat="44.4311" lon="1.61696">
        <ele>388</ele>
        <time>2024-03-13T15:23:52Z</time>
      </trkpt>
      <trkpt lat="44.4311" lon="1.61696">
        <ele>388</ele>
        <time>2024-03-13T15:23:53Z</time>
      </trkpt>
      <trkpt lat="44.4311" lon="1.61696">
        <ele>388</ele>
        <time>2024-03-13T15:23:54Z</time>
      </trkpt>
      <trkpt lat="44.4311" lon="1.61696">
        <ele>388</ele>
        <time>2024-03-13T15:23:55Z</time>
      </trkpt>
      <trkpt lat="44.4311" lon="1.61696">
        <ele>388</ele>
        <time>2024-03-13T15:23:56Z</time>
      </trkpt>
      <trkpt lat="44.4311" lon="1.61696">
        <ele>388</ele>
        <time>2024-03-13T15:23:57Z</time>
      </trkpt>
      <trkpt lat="44.4311" lon="1.61696">
        <ele>388</ele>
        <time>2024-03-13T15:23:58Z</time>
      </trkpt>
      <trkpt lat="44.4311" lon="1.61696">
        <ele>388</ele>
        <time>2024-03-13T15:23:59Z</time>
      </trkpt>
      <trkpt lat="44.4311" lon="1.61696">
        <ele>388</ele>
        <time>2024-03-13T15:24:00Z</time>
      </trkpt>
      <trkpt lat="44.4311" lon="1.61696">
        <ele>388</ele>
        <time>2024-03-13T15:24:01Z</time>
      </trkpt>
      <trkpt lat="44.4311" lon="1.61696">
        <ele>388</ele>
        <time>2024-03-13T15:24:02Z</time>
      </trkpt>
      <trkpt lat="44.4311" lon="1.61696">
        <ele>388</ele>
        <time>2024-03-13T15:24:03Z</time>
      </trkpt>
      <trkpt lat="44.4311" lon="1.61696">
        <ele>388</ele>
        <time>2024-03-13T15:24:04Z</time>
      </trkpt>
      <trkpt lat="44.4311" lon="1.61696">
        <ele>388</ele>
        <time>2024-03-13T15:24:05Z</time>
      </trkpt>
      <trkpt lat="44.4311" lon="1.61696">
        <ele>388</ele>
        <time>2024-03-13T15:24:06Z</time>
      </trkpt>
      <trkpt lat="44.4311" lon="1.61696">
        <ele>388</ele>
        <time>2024-03-13T15:24:07Z</time>
      </trkpt>
      <trkpt lat="44.4311" lon="1.61696">
        <ele>388</ele>
        <time>2024-03-13T15:24:08Z</time>
      </trkpt>
      <trkpt lat="44.4311" lon="1.61696">
        <ele>388</ele>
        <time>2024-03-13T15:24:09Z</time>
      </trkpt>
      <trkpt lat="44.4311" lon="1.61696">
        <ele>388</ele>
        <time>2024-03-13T15:24:10Z</time>
      </trkpt>
      <trkpt lat="44.4311" lon="1.61696">
        <ele>388</ele>
        <time>2024-03-13T15:24:11Z</time>
      </trkpt>
      <trkpt lat="44.4311" lon="1.61696">
        <ele>388</ele>
        <time>2024-03-13T15:24:12Z</time>
      </trkpt>
      <trkpt lat="44.4311" lon="1.61696">
        <ele>388</ele>
        <time>2024-03-13T15:24:13Z</time>
      </trkpt>
      <trkpt lat="44.4311" lon="1.61696">
        <ele>388</ele>
        <time>2024-03-13T15:24:14Z</time>
      </trkpt>
      <trkpt lat="44.4311" lon="1.61696">
        <ele>388</ele>
        <time>2024-03-13T15:24:15Z</time>
      </trkpt>
      <trkpt lat="44.4311" lon="1.61696">
        <ele>388</ele>
        <time>2024-03-13T15:24:16Z</time>
      </trkpt>
      <trkpt lat="44.4311" lon="1.61696">
        <ele>388</ele>
        <time>2024-03-13T15:24:17Z</time>
      </trkpt>
      <trkpt lat="44.4311" lon="1.61696">
        <ele>388</ele>
        <time>2024-03-13T15:24:18Z</time>
      </trkpt>
      <trkpt lat="44.4311" lon="1.61696">
        <ele>388</ele>
        <time>2024-03-13T15:24:19Z</time>
      </trkpt>
      <trkpt lat="44.4311" lon="1.61696">
        <ele>388</ele>
        <time>2024-03-13T15:24:20Z</time>
      </trkpt>
      <trkpt lat="44.4311" lon="1.61696">
        <ele>388</ele>
        <time>2024-03-13T15:24:21Z</time>
      </trkpt>
      <trkpt lat="44.4311" lon="1.61696">
        <ele>388</ele>
        <time>2024-03-13T15:24:22Z</time>
      </trkpt>
      <trkpt lat="44.4311" lon="1.61696">
        <ele>388</ele>
        <time>2024-03-13T15:24:23Z</time>
      </trkpt>
      <trkpt lat="44.4311" lon="1.61696">
        <ele>388</ele>
        <time>2024-03-13T15:24:24Z</time>
      </trkpt>
      <trkpt lat="44.4311" lon="1.61696">
        <ele>388</ele>
        <time>2024-03-13T15:24:25Z</time>
      </trkpt>
      <trkpt lat="44.4311" lon="1.61696">
        <ele>388</ele>
        <time>2024-03-13T15:24:26Z</time>
      </trkpt>
      <trkpt lat="44.4311" lon="1.61696">
        <ele>388</ele>
        <time>2024-03-13T15:24:27Z</time>
      </trkpt>
      <trkpt lat="44.4311" lon="1.61696">
        <ele>388</ele>
        <time>2024-03-13T15:24:28Z</time>
      </trkpt>
      <trkpt lat="44.4311" lon="1.61696">
        <ele>388</ele>
        <time>2024-03-13T15:24:29Z</time>
      </trkpt>
      <trkpt lat="44.4311" lon="1.61696">
        <ele>388</ele>
        <time>2024-03-13T15:24:30Z</time>
      </trkpt>
      <trkpt lat="44.4311" lon="1.61696">
        <ele>388</ele>
        <time>2024-03-13T15:24:31Z</time>
      </trkpt>
      <trkpt lat="44.4311" lon="1.61696">
        <ele>388</ele>
        <time>2024-03-13T15:24:32Z</time>
      </trkpt>
      <trkpt lat="44.4311" lon="1.61696">
        <ele>388</ele>
        <time>2024-03-13T15:24:33Z</time>
      </trkpt>
      <trkpt lat="44.4311" lon="1.61696">
        <ele>388</ele>
        <time>2024-03-13T15:24:34Z</time>
      </trkpt>
      <trkpt lat="44.4311" lon="1.61696">
        <ele>388</ele>
        <time>2024-03-13T15:24:35Z</time>
      </trkpt>
      <trkpt lat="44.4311" lon="1.61696">
        <ele>388</ele>
        <time>2024-03-13T15:24:36Z</time>
      </trkpt>
      <trkpt lat="44.4311" lon="1.61696">
        <ele>388</ele>
        <time>2024-03-13T15:24:37Z</time>
      </trkpt>
      <trkpt lat="44.4311" lon="1.61696">
        <ele>388</ele>
        <time>2024-03-13T15:24:38Z</time>
      </trkpt>
      <trkpt lat="44.4311" lon="1.61696">
        <ele>388</ele>
        <time>2024-03-13T15:24:39Z</time>
      </trkpt>
      <trkpt lat="44.4311" lon="1.61696">
        <ele>388</ele>
        <time>2024-03-13T15:24:40Z</time>
      </trkpt>
      <trkpt lat="44.4311" lon="1.61696">
        <ele>388</ele>
        <time>2024-03-13T15:24:41Z</time>
      </trkpt>
      <trkpt lat="44.4311" lon="1.61696">
        <ele>388</ele>
        <time>2024-03-13T15:24:42Z</time>
      </trkpt>
      <trkpt lat="44.4311" lon="1.61696">
        <ele>388</ele>
        <time>2024-03-13T15:24:43Z</time>
      </trkpt>
      <trkpt lat="44.4311" lon="1.61696">
        <ele>388</ele>
        <time>2024-03-13T15:24:44Z</time>
      </trkpt>
      <trkpt lat="44.4311" lon="1.61696">
        <ele>388</ele>
        <time>2024-03-13T15:24:45Z</time>
      </trkpt>
      <trkpt lat="44.4311" lon="1.61696">
        <ele>388</ele>
        <time>2024-03-13T15:24:46Z</time>
      </trkpt>
      <trkpt lat="44.4311" lon="1.61696">
        <ele>388</ele>
        <time>2024-03-13T15:24:47Z</time>
      </trkpt>
      <trkpt lat="44.4311" lon="1.61696">
        <ele>388</ele>
        <time>2024-03-13T15:24:48Z</time>
      </trkpt>
      <trkpt lat="44.4311" lon="1.61696">
        <ele>388</ele>
        <time>2024-03-13T15:24:49Z</time>
      </trkpt>
      <trkpt lat="44.4311" lon="1.61696">
        <ele>388</ele>
        <time>2024-03-13T15:24:50Z</time>
      </trkpt>
      <trkpt lat="44.4311" lon="1.61696">
        <ele>388</ele>
        <time>2024-03-13T15:24:51Z</time>
      </trkpt>
      <trkpt lat="44.4311" lon="1.61696">
        <ele>388</ele>
        <time>2024-03-13T15:24:52Z</time>
      </trkpt>
      <trkpt lat="44.4311" lon="1.61696">
        <ele>388</ele>
        <time>2024-03-13T15:24:53Z</time>
      </trkpt>
      <trkpt lat="44.4311" lon="1.61696">
        <ele>388</ele>
        <time>2024-03-13T15:24:54Z</time>
      </trkpt>
      <trkpt lat="44.4311" lon="1.61696">
        <ele>388</ele>
        <time>2024-03-13T15:24:55Z</time>
      </trkpt>
      <trkpt lat="44.4311" lon="1.61696">
        <ele>388</ele>
        <time>2024-03-13T15:24:56Z</time>
      </trkpt>
      <trkpt lat="44.4311" lon="1.61696">
        <ele>388</ele>
        <time>2024-03-13T15:24:57Z</time>
      </trkpt>
      <trkpt lat="44.4311" lon="1.61696">
        <ele>388</ele>
        <time>2024-03-13T15:24:58Z</time>
      </trkpt>
      <trkpt lat="44.4311" lon="1.61696">
        <ele>388</ele>
        <time>2024-03-13T15:24:59Z</time>
      </trkpt>
      <trkpt lat="44.4311" lon="1.61696">
        <ele>388</ele>
        <time>2024-03-13T15:25:00Z</time>
      </trkpt>
      <trkpt lat="44.4311" lon="1.61696">
        <ele>388</ele>
        <time>2024-03-13T15:25:01Z</time>
      </trkpt>
      <trkpt lat="44.4311" lon="1.61696">
        <ele>388</ele>
        <time>2024-03-13T15:25:02Z</time>
      </trkpt>
      <trkpt lat="44.4311" lon="1.61696">
        <ele>388</ele>
        <time>2024-03-13T15:25:03Z</time>
      </trkpt>
      <trkpt lat="44.4311" lon="1.61696">
        <ele>388</ele>
        <time>2024-03-13T15:25:04Z</time>
      </trkpt>
      <trkpt lat="44.4311" lon="1.61696">
        <ele>388</ele>
        <time>2024-03-13T15:25:05Z</time>
      </trkpt>
      <trkpt lat="44.4311" lon="1.61696">
        <ele>388</ele>
        <time>2024-03-13T15:25:06Z</time>
      </trkpt>
      <trkpt lat="44.4311" lon="1.61696">
        <ele>388</ele>
        <time>2024-03-13T15:25:07Z</time>
      </trkpt>
      <trkpt lat="44.4311" lon="1.61696">
        <ele>388</ele>
        <time>2024-03-13T15:25:08Z</time>
      </trkpt>
      <trkpt lat="44.4311" lon="1.61696">
        <ele>388</ele>
        <time>2024-03-13T15:25:09Z</time>
      </trkpt>
      <trkpt lat="44.4311" lon="1.61696">
        <ele>388</ele>
        <time>2024-03-13T15:25:10Z</time>
      </trkpt>
      <trkpt lat="44.4311" lon="1.61696">
        <ele>388</ele>
        <time>2024-03-13T15:25:11Z</time>
      </trkpt>
      <trkpt lat="44.4311" lon="1.61696">
        <ele>388</ele>
        <time>2024-03-13T15:25:12Z</time>
      </trkpt>
      <trkpt lat="44.4311" lon="1.61696">
        <ele>388</ele>
        <time>2024-03-13T15:25:13Z</time>
      </trkpt>
      <trkpt lat="44.4311" lon="1.61696">
        <ele>388</ele>
        <time>2024-03-13T15:25:14Z</time>
      </trkpt>
      <trkpt lat="44.4311" lon="1.61696">
        <ele>388</ele>
        <time>2024-03-13T15:25:15Z</time>
      </trkpt>
      <trkpt lat="44.4311" lon="1.61696">
        <ele>388</ele>
        <time>2024-03-13T15:25:16Z</time>
      </trkpt>
      <trkpt lat="44.4311" lon="1.61696">
        <ele>388</ele>
        <time>2024-03-13T15:25:17Z</time>
      </trkpt>
      <trkpt lat="44.4311" lon="1.61696">
        <ele>388</ele>
        <time>2024-03-13T15:25:18Z</time>
      </trkpt>
      <trkpt lat="44.4311" lon="1.61696">
        <ele>388</ele>
        <time>2024-03-13T15:25:19Z</time>
      </trkpt>
      <trkpt lat="44.4311" lon="1.61696">
        <ele>388</ele>
        <time>2024-03-13T15:25:20Z</time>
      </trkpt>
      <trkpt lat="44.4311" lon="1.61696">
        <ele>388</ele>
        <time>2024-03-13T15:25:21Z</time>
      </trkpt>
      <trkpt lat="44.4311" lon="1.61696">
        <ele>388</ele>
        <time>2024-03-13T15:25:22Z</time>
      </trkpt>
      <trkpt lat="44.4311" lon="1.61696">
        <ele>388</ele>
        <time>2024-03-13T15:25:23Z</time>
      </trkpt>
      <trkpt lat="44.4311" lon="1.61696">
        <ele>388</ele>
        <time>2024-03-13T15:25:24Z</time>
      </trkpt>
      <trkpt lat="44.4311" lon="1.61696">
        <ele>388</ele>
        <time>2024-03-13T15:25:25Z</time>
      </trkpt>
      <trkpt lat="44.4311" lon="1.61696">
        <ele>388</ele>
        <time>2024-03-13T15:25:26Z</time>
      </trkpt>
      <trkpt lat="44.4311" lon="1.61696">
        <ele>388</ele>
        <time>2024-03-13T15:25:27Z</time>
      </trkpt>
      <trkpt lat="44.4311" lon="1.61696">
        <ele>388</ele>
        <time>2024-03-13T15:25:28Z</time>
      </trkpt>
      <trkpt lat="44.4311" lon="1.61696">
        <ele>388</ele>
        <time>2024-03-13T15:25:29Z</time>
      </trkpt>
      <trkpt lat="44.4311" lon="1.61696">
        <ele>388</ele>
        <time>2024-03-13T15:25:30Z</time>
      </trkpt>
      <trkpt lat="44.4311" lon="1.61695">
        <ele>387</ele>
        <time>2024-03-13T15:25:31Z</time>
      </trkpt>
      <trkpt lat="44.4311" lon="1.61694">
        <ele>388</ele>
        <time>2024-03-13T15:25:32Z</time>
      </trkpt>
      <trkpt lat="44.43111" lon="1.61693">
        <ele>388</ele>
        <time>2024-03-13T15:25:33Z</time>
      </trkpt>
      <trkpt lat="44.43112" lon="1.61692">
        <ele>387</ele>
        <time>2024-03-13T15:25:34Z</time>
      </trkpt>
      <trkpt lat="44.43112" lon="1.61691">
        <ele>387</ele>
        <time>2024-03-13T15:25:35Z</time>
      </trkpt>
      <trkpt lat="44.43113" lon="1.61691">
        <ele>387</ele>
        <time>2024-03-13T15:25:36Z</time>
      </trkpt>
      <trkpt lat="44.43113" lon="1.6169">
        <ele>387</ele>
        <time>2024-03-13T15:25:37Z</time>
      </trkpt>
      <trkpt lat="44.43114" lon="1.6169">
        <ele>387</ele>
        <time>2024-03-13T15:25:38Z</time>
      </trkpt>
      <trkpt lat="44.43115" lon="1.61689">
        <ele>386</ele>
        <time>2024-03-13T15:25:39Z</time>
      </trkpt>
      <trkpt lat="44.43116" lon="1.61689">
        <ele>386</ele>
        <time>2024-03-13T15:25:40Z</time>
      </trkpt>
      <trkpt lat="44.43117" lon="1.61689">
        <ele>386</ele>
        <time>2024-03-13T15:25:41Z</time>
      </trkpt>
      <trkpt lat="44.43118" lon="1.61688">
        <ele>386</ele>
        <time>2024-03-13T15:25:42Z</time>
      </trkpt>
      <trkpt lat="44.43119" lon="1.61687">
        <ele>386</ele>
        <time>2024-03-13T15:25:43Z</time>
      </trkpt>
      <trkpt lat="44.4312" lon="1.61687">
        <ele>385</ele>
        <time>2024-03-13T15:25:44Z</time>
      </trkpt>
      <trkpt lat="44.43121" lon="1.61686">
        <ele>385</ele>
        <time>2024-03-13T15:25:45Z</time>
      </trkpt>
      <trkpt lat="44.43121" lon="1.61685">
        <ele>385</ele>
        <time>2024-03-13T15:25:46Z</time>
      </trkpt>
      <trkpt lat="44.43122" lon="1.61685">
        <ele>385</ele>
        <time>2024-03-13T15:25:47Z</time>
      </trkpt>
      <trkpt lat="44.43123" lon="1.61684">
        <ele>385</ele>
        <time>2024-03-13T15:25:48Z</time>
      </trkpt>
      <trkpt lat="44.43124" lon="1.61683">
        <ele>384</ele>
        <time>2024-03-13T15:25:49Z</time>
      </trkpt>
      <trkpt lat="44.43124" lon="1.61683">
        <ele>384</ele>
        <time>2024-03-13T15:25:50Z</time>
      </trkpt>
      <trkpt lat="44.43125" lon="1.61682">
        <ele>384</ele>
        <time>2024-03-13T15:25:51Z</time>
      </trkpt>
      <trkpt lat="44.43126" lon="1.61681">
        <ele>385</ele>
        <time>2024-03-13T15:25:52Z</time>
      </trkpt>
      <trkpt lat="44.43127" lon="1.6168">
        <ele>384</ele>
        <time>2024-03-13T15:25:53Z</time>
      </trkpt>
      <trkpt lat="44.43128" lon="1.61679">
        <ele>385</ele>
        <time>2024-03-13T15:25:54Z</time>
      </trkpt>
      <trkpt lat="44.43129" lon="1.61678">
        <ele>385</ele>
        <time>2024-03-13T15:25:55Z</time>
      </trkpt>
      <trkpt lat="44.4313" lon="1.61677">
        <ele>385</ele>
        <time>2024-03-13T15:25:56Z</time>
      </trkpt>
      <trkpt lat="44.43131" lon="1.61677">
        <ele>385</ele>
        <time>2024-03-13T15:25:57Z</time>
      </trkpt>
      <trkpt lat="44.43132" lon="1.61676">
        <ele>385</ele>
        <time>2024-03-13T15:25:58Z</time>
      </trkpt>
      <trkpt lat="44.43132" lon="1.61675">
        <ele>385</ele>
        <time>2024-03-13T15:25:59Z</time>
      </trkpt>
      <trkpt lat="44.43133" lon="1.61674">
        <ele>385</ele>
        <time>2024-03-13T15:26:00Z</time>
      </trkpt>
      <trkpt lat="44.43134" lon="1.61672">
        <ele>384</ele>
        <time>2024-03-13T15:26:01Z</time>
      </trkpt>
      <trkpt lat="44.43135" lon="1.61671">
        <ele>384</ele>
        <time>2024-03-13T15:26:02Z</time>
      </trkpt>
      <trkpt lat="44.43136" lon="1.6167">
        <ele>384</ele>
        <time>2024-03-13T15:26:03Z</time>
      </trkpt>
      <trkpt lat="44.43137" lon="1.61669">
        <ele>384</ele>
        <time>2024-03-13T15:26:04Z</time>
      </trkpt>
      <trkpt lat="44.43137" lon="1.61668">
        <ele>384</ele>
        <time>2024-03-13T15:26:05Z</time>
      </trkpt>
      <trkpt lat="44.43138" lon="1.61666">
        <ele>383</ele>
        <time>2024-03-13T15:26:06Z</time>
      </trkpt>
      <trkpt lat="44.43139" lon="1.61665">
        <ele>383</ele>
        <time>2024-03-13T15:26:07Z</time>
      </trkpt>
      <trkpt lat="44.4314" lon="1.61664">
        <ele>383</ele>
        <time>2024-03-13T15:26:08Z</time>
      </trkpt>
      <trkpt lat="44.4314" lon="1.61663">
        <ele>383</ele>
        <time>2024-03-13T15:26:09Z</time>
      </trkpt>
      <trkpt lat="44.43141" lon="1.61662">
        <ele>383</ele>
        <time>2024-03-13T15:26:10Z</time>
      </trkpt>
      <trkpt lat="44.43142" lon="1.61661">
        <ele>383</ele>
        <time>2024-03-13T15:26:11Z</time>
      </trkpt>
      <trkpt lat="44.43142" lon="1.61659">
        <ele>383</ele>
        <time>2024-03-13T15:26:12Z</time>
      </trkpt>
      <trkpt lat="44.43143" lon="1.61658">
        <ele>383</ele>
        <time>2024-03-13T15:26:13Z</time>
      </trkpt>
      <trkpt lat="44.43143" lon="1.61656">
        <ele>383</ele>
        <time>2024-03-13T15:26:14Z</time>
      </trkpt>
      <trkpt lat="44.43144" lon="1.61655">
        <ele>383</ele>
        <time>2024-03-13T15:26:15Z</time>
      </trkpt>
      <trkpt lat="44.43144" lon="1.61654">
        <ele>383</ele>
        <time>2024-03-13T15:26:16Z</time>
      </trkpt>
      <trkpt lat="44.43145" lon="1.61652">
        <ele>383</ele>
        <time>2024-03-13T15:26:17Z</time>
      </trkpt>
      <trkpt lat="44.43146" lon="1.61651">
        <ele>383</ele>
        <time>2024-03-13T15:26:18Z</time>
      </trkpt>
      <trkpt lat="44.43147" lon="1.6165">
        <ele>382</ele>
        <time>2024-03-13T15:26:19Z</time>
      </trkpt>
      <trkpt lat="44.43147" lon="1.61649">
        <ele>382</ele>
        <time>2024-03-13T15:26:20Z</time>
      </trkpt>
      <trkpt lat="44.43148" lon="1.61648">
        <ele>382</ele>
        <time>2024-03-13T15:26:21Z</time>
      </trkpt>
      <trkpt lat="44.43148" lon="1.61646">
        <ele>381</ele>
        <time>2024-03-13T15:26:22Z</time>
      </trkpt>
      <trkpt lat="44.43149" lon="1.61645">
        <ele>382</ele>
        <time>2024-03-13T15:26:23Z</time>
      </trkpt>
      <trkpt lat="44.43149" lon="1.61644">
        <ele>381</ele>
        <time>2024-03-13T15:26:24Z</time>
      </trkpt>
      <trkpt lat="44.4315" lon="1.61642">
        <ele>381</ele>
        <time>2024-03-13T15:26:25Z</time>
      </trkpt>
      <trkpt lat="44.4315" lon="1.61641">
        <ele>381</ele>
        <time>2024-03-13T15:26:26Z</time>
      </trkpt>
      <trkpt lat="44.4315" lon="1.6164">
        <ele>381</ele>
        <time>2024-03-13T15:26:27Z</time>
      </trkpt>
      <trkpt lat="44.43151" lon="1.61638">
        <ele>381</ele>
        <time>2024-03-13T15:26:28Z</time>
      </trkpt>
      <trkpt lat="44.43151" lon="1.61636">
        <ele>381</ele>
        <time>2024-03-13T15:26:29Z</time>
      </trkpt>
      <trkpt lat="44.43152" lon="1.61635">
        <ele>381</ele>
        <time>2024-03-13T15:26:30Z</time>
      </trkpt>
      <trkpt lat="44.43152" lon="1.61633">
        <ele>381</ele>
        <time>2024-03-13T15:26:31Z</time>
      </trkpt>
      <trkpt lat="44.43153" lon="1.61632">
        <ele>380</ele>
        <time>2024-03-13T15:26:32Z</time>
      </trkpt>
      <trkpt lat="44.43153" lon="1.61631">
        <ele>380</ele>
        <time>2024-03-13T15:26:33Z</time>
      </trkpt>
      <trkpt lat="44.43153" lon="1.61629">
        <ele>380</ele>
        <time>2024-03-13T15:26:34Z</time>
      </trkpt>
      <trkpt lat="44.43154" lon="1.61628">
        <ele>380</ele>
        <time>2024-03-13T15:26:35Z</time>
      </trkpt>
      <trkpt lat="44.43155" lon="1.61626">
        <ele>380</ele>
        <time>2024-03-13T15:26:36Z</time>
      </trkpt>
      <trkpt lat="44.43155" lon="1.61625">
        <ele>379</ele>
        <time>2024-03-13T15:26:37Z</time>
      </trkpt>
      <trkpt lat="44.43156" lon="1.61623">
        <ele>379</ele>
        <time>2024-03-13T15:26:38Z</time>
      </trkpt>
      <trkpt lat="44.43156" lon="1.61622">
        <ele>379</ele>
        <time>2024-03-13T15:26:39Z</time>
      </trkpt>
      <trkpt lat="44.43156" lon="1.61621">
        <ele>378</ele>
        <time>2024-03-13T15:26:40Z</time>
      </trkpt>
      <trkpt lat="44.43157" lon="1.6162">
        <ele>378</ele>
        <time>2024-03-13T15:26:41Z</time>
      </trkpt>
      <trkpt lat="44.43158" lon="1.61618">
        <ele>378</ele>
        <time>2024-03-13T15:26:42Z</time>
      </trkpt>
      <trkpt lat="44.43158" lon="1.61617">
        <ele>378</ele>
        <time>2024-03-13T15:26:43Z</time>
      </trkpt>
      <trkpt lat="44.43159" lon="1.61616">
        <ele>378</ele>
        <time>2024-03-13T15:26:44Z</time>
      </trkpt>
      <trkpt lat="44.4316" lon="1.61615">
        <ele>378</ele>
        <time>2024-03-13T15:26:45Z</time>
      </trkpt>
      <trkpt lat="44.43161" lon="1.61613">
        <ele>377</ele>
        <time>2024-03-13T15:26:46Z</time>
      </trkpt>
      <trkpt lat="44.43162" lon="1.61612">
        <ele>378</ele>
        <time>2024-03-13T15:26:47Z</time>
      </trkpt>
      <trkpt lat="44.43163" lon="1.61611">
        <ele>378</ele>
        <time>2024-03-13T15:26:48Z</time>
      </trkpt>
      <trkpt lat="44.43163" lon="1.6161">
        <ele>377</ele>
        <time>2024-03-13T15:26:49Z</time>
      </trkpt>
      <trkpt lat="44.43164" lon="1.61608">
        <ele>378</ele>
        <time>2024-03-13T15:26:50Z</time>
      </trkpt>
      <trkpt lat="44.43165" lon="1.61607">
        <ele>378</ele>
        <time>2024-03-13T15:26:51Z</time>
      </trkpt>
      <trkpt lat="44.43166" lon="1.61606">
        <ele>378</ele>
        <time>2024-03-13T15:26:52Z</time>
      </trkpt>
      <trkpt lat="44.43166" lon="1.61605">
        <ele>378</ele>
        <time>2024-03-13T15:26:53Z</time>
      </trkpt>
      <trkpt lat="44.43166" lon="1.61604">
        <ele>378</ele>
        <time>2024-03-13T15:26:54Z</time>
      </trkpt>
      <trkpt lat="44.43166" lon="1.61603">
        <ele>378</ele>
        <time>2024-03-13T15:26:55Z</time>
      </trkpt>
      <trkpt lat="44.43166" lon="1.61601">
        <ele>377</ele>
        <time>2024-03-13T15:26:56Z</time>
      </trkpt>
      <trkpt lat="44.43166" lon="1.616">
        <ele>377</ele>
        <time>2024-03-13T15:26:57Z</time>
      </trkpt>
      <trkpt lat="44.43166" lon="1.61599">
        <ele>377</ele>
        <time>2024-03-13T15:26:58Z</time>
      </trkpt>
      <trkpt lat="44.43165" lon="1.61598">
        <ele>376</ele>
        <time>2024-03-13T15:26:59Z</time>
      </trkpt>
      <trkpt lat="44.43164" lon="1.61597">
        <ele>376</ele>
        <time>2024-03-13T15:27:00Z</time>
      </trkpt>
      <trkpt lat="44.43164" lon="1.61597">
        <ele>376</ele>
        <time>2024-03-13T15:27:01Z</time>
      </trkpt>
      <trkpt lat="44.43164" lon="1.61597">
        <ele>376</ele>
        <time>2024-03-13T15:27:02Z</time>
      </trkpt>
      <trkpt lat="44.43164" lon="1.61597">
        <ele>376</ele>
        <time>2024-03-13T15:27:03Z</time>
      </trkpt>
      <trkpt lat="44.43164" lon="1.61597">
        <ele>376</ele>
        <time>2024-03-13T15:27:04Z</time>
      </trkpt>
      <trkpt lat="44.43164" lon="1.61597">
        <ele>376</ele>
        <time>2024-03-13T15:27:05Z</time>
      </trkpt>
      <trkpt lat="44.43164" lon="1.61597">
        <ele>376</ele>
        <time>2024-03-13T15:27:06Z</time>
      </trkpt>
      <trkpt lat="44.43164" lon="1.61597">
        <ele>376</ele>
        <time>2024-03-13T15:27:07Z</time>
      </trkpt>
      <trkpt lat="44.43164" lon="1.61597">
        <ele>376</ele>
        <time>2024-03-13T15:27:08Z</time>
      </trkpt>
      <trkpt lat="44.43164" lon="1.61597">
        <ele>376</ele>
        <time>2024-03-13T15:27:09Z</time>
      </trkpt>
      <trkpt lat="44.43164" lon="1.61597">
        <ele>376</ele>
        <time>2024-03-13T15:27:10Z</time>
      </trkpt>
      <trkpt lat="44.43163" lon="1.61595">
        <ele>375</ele>
        <time>2024-03-13T15:27:11Z</time>
      </trkpt>
      <trkpt lat="44.43162" lon="1.61595">
        <ele>376</ele>
        <time>2024-03-13T15:27:12Z</time>
      </trkpt>
      <trkpt lat="44.43162" lon="1.61595">
        <ele>376</ele>
        <time>2024-03-13T15:27:13Z</time>
      </trkpt>
      <trkpt lat="44.43162" lon="1.61595">
        <ele>376</ele>
        <time>2024-03-13T15:27:14Z</time>
      </trkpt>
      <trkpt lat="44.43162" lon="1.61595">
        <ele>376</ele>
        <time>2024-03-13T15:27:15Z</time>
      </trkpt>
      <trkpt lat="44.43162" lon="1.61595">
        <ele>376</ele>
        <time>2024-03-13T15:27:16Z</time>
      </trkpt>
      <trkpt lat="44.43162" lon="1.61595">
        <ele>376</ele>
        <time>2024-03-13T15:27:17Z</time>
      </trkpt>
      <trkpt lat="44.43162" lon="1.61595">
        <ele>376</ele>
        <time>2024-03-13T15:27:18Z</time>
      </trkpt>
      <trkpt lat="44.43162" lon="1.61595">
        <ele>376</ele>
        <time>2024-03-13T15:27:19Z</time>
      </trkpt>
      <trkpt lat="44.43162" lon="1.61595">
        <ele>376</ele>
        <time>2024-03-13T15:27:20Z</time>
      </trkpt>
      <trkpt lat="44.43162" lon="1.61595">
        <ele>376</ele>
        <time>2024-03-13T15:27:21Z</time>
      </trkpt>
      <trkpt lat="44.43162" lon="1.61595">
        <ele>376</ele>
        <time>2024-03-13T15:27:22Z</time>
      </trkpt>
      <trkpt lat="44.43162" lon="1.61595">
        <ele>376</ele>
        <time>2024-03-13T15:27:23Z</time>
      </trkpt>
      <trkpt lat="44.43162" lon="1.61595">
        <ele>376</ele>
        <time>2024-03-13T15:27:24Z</time>
      </trkpt>
      <trkpt lat="44.43162" lon="1.61595">
        <ele>376</ele>
        <time>2024-03-13T15:27:25Z</time>
      </trkpt>
      <trkpt lat="44.43162" lon="1.61595">
        <ele>376</ele>
        <time>2024-03-13T15:27:26Z</time>
      </trkpt>
      <trkpt lat="44.43162" lon="1.61595">
        <ele>376</ele>
        <time>2024-03-13T15:27:27Z</time>
      </trkpt>
      <trkpt lat="44.43162" lon="1.61595">
        <ele>376</ele>
        <time>2024-03-13T15:27:28Z</time>
      </trkpt>
      <trkpt lat="44.43162" lon="1.61595">
        <ele>376</ele>
        <time>2024-03-13T15:27:29Z</time>
      </trkpt>
      <trkpt lat="44.43162" lon="1.61595">
        <ele>376</ele>
        <time>2024-03-13T15:27:30Z</time>
      </trkpt>
      <trkpt lat="44.43162" lon="1.61595">
        <ele>376</ele>
        <time>2024-03-13T15:27:31Z</time>
      </trkpt>
      <trkpt lat="44.43162" lon="1.61595">
        <ele>376</ele>
        <time>2024-03-13T15:27:32Z</time>
      </trkpt>
      <trkpt lat="44.43162" lon="1.61595">
        <ele>376</ele>
        <time>2024-03-13T15:27:33Z</time>
      </trkpt>
      <trkpt lat="44.43162" lon="1.61594">
        <ele>376</ele>
        <time>2024-03-13T15:27:34Z</time>
      </trkpt>
      <trkpt lat="44.43162" lon="1.61593">
        <ele>376</ele>
        <time>2024-03-13T15:27:35Z</time>
      </trkpt>
      <trkpt lat="44.43161" lon="1.61592">
        <ele>376</ele>
        <time>2024-03-13T15:27:36Z</time>
      </trkpt>
      <trkpt lat="44.43161" lon="1.61592">
        <ele>375</ele>
        <time>2024-03-13T15:27:37Z</time>
      </trkpt>
      <trkpt lat="44.43161" lon="1.61592">
        <ele>375</ele>
        <time>2024-03-13T15:27:38Z</time>
      </trkpt>
      <trkpt lat="44.43161" lon="1.61592">
        <ele>375</ele>
        <time>2024-03-13T15:27:39Z</time>
      </trkpt>
      <trkpt lat="44.43161" lon="1.61592">
        <ele>375</ele>
        <time>2024-03-13T15:27:40Z</time>
      </trkpt>
      <trkpt lat="44.43161" lon="1.61592">
        <ele>375</ele>
        <time>2024-03-13T15:27:41Z</time>
      </trkpt>
      <trkpt lat="44.43161" lon="1.61592">
        <ele>375</ele>
        <time>2024-03-13T15:27:42Z</time>
      </trkpt>
      <trkpt lat="44.43161" lon="1.61592">
        <ele>375</ele>
        <time>2024-03-13T15:27:43Z</time>
      </trkpt>
      <trkpt lat="44.43161" lon="1.61592">
        <ele>375</ele>
        <time>2024-03-13T15:27:44Z</time>
      </trkpt>
      <trkpt lat="44.43161" lon="1.61592">
        <ele>375</ele>
        <time>2024-03-13T15:27:45Z</time>
      </trkpt>
      <trkpt lat="44.43161" lon="1.61592">
        <ele>375</ele>
        <time>2024-03-13T15:27:46Z</time>
      </trkpt>
      <trkpt lat="44.43161" lon="1.61592">
        <ele>375</ele>
        <time>2024-03-13T15:27:47Z</time>
      </trkpt>
      <trkpt lat="44.43159" lon="1.61592">
        <ele>374</ele>
        <time>2024-03-13T15:27:48Z</time>
      </trkpt>
      <trkpt lat="44.43158" lon="1.61591">
        <ele>374</ele>
        <time>2024-03-13T15:27:49Z</time>
      </trkpt>
      <trkpt lat="44.43158" lon="1.61591">
        <ele>374</ele>
        <time>2024-03-13T15:27:50Z</time>
      </trkpt>
      <trkpt lat="44.43157" lon="1.6159">
        <ele>374</ele>
        <time>2024-03-13T15:27:51Z</time>
      </trkpt>
      <trkpt lat="44.43156" lon="1.61589">
        <ele>374</ele>
        <time>2024-03-13T15:27:52Z</time>
      </trkpt>
      <trkpt lat="44.43156" lon="1.61589">
        <ele>374</ele>
        <time>2024-03-13T15:27:53Z</time>
      </trkpt>
      <trkpt lat="44.43155" lon="1.61588">
        <ele>373</ele>
        <time>2024-03-13T15:27:54Z</time>
      </trkpt>
      <trkpt lat="44.43154" lon="1.61587">
        <ele>373</ele>
        <time>2024-03-13T15:27:55Z</time>
      </trkpt>
      <trkpt lat="44.43153" lon="1.61587">
        <ele>373</ele>
        <time>2024-03-13T15:27:56Z</time>
      </trkpt>
      <trkpt lat="44.43151" lon="1.61586">
        <ele>373</ele>
        <time>2024-03-13T15:27:57Z</time>
      </trkpt>
      <trkpt lat="44.4315" lon="1.61586">
        <ele>373</ele>
        <time>2024-03-13T15:27:58Z</time>
      </trkpt>
      <trkpt lat="44.43149" lon="1.61585">
        <ele>373</ele>
        <time>2024-03-13T15:27:59Z</time>
      </trkpt>
      <trkpt lat="44.43148" lon="1.61585">
        <ele>372</ele>
        <time>2024-03-13T15:28:00Z</time>
      </trkpt>
      <trkpt lat="44.43146" lon="1.61585">
        <ele>372</ele>
        <time>2024-03-13T15:28:01Z</time>
      </trkpt>
      <trkpt lat="44.43145" lon="1.61584">
        <ele>372</ele>
        <time>2024-03-13T15:28:02Z</time>
      </trkpt>
      <trkpt lat="44.43144" lon="1.61584">
        <ele>372</ele>
        <time>2024-03-13T15:28:03Z</time>
      </trkpt>
      <trkpt lat="44.43142" lon="1.61584">
        <ele>372</ele>
        <time>2024-03-13T15:28:04Z</time>
      </trkpt>
      <trkpt lat="44.43141" lon="1.61584">
        <ele>372</ele>
        <time>2024-03-13T15:28:05Z</time>
      </trkpt>
      <trkpt lat="44.4314" lon="1.61583">
        <ele>372</ele>
        <time>2024-03-13T15:28:06Z</time>
      </trkpt>
      <trkpt lat="44.43139" lon="1.61583">
        <ele>372</ele>
        <time>2024-03-13T15:28:07Z</time>
      </trkpt>
      <trkpt lat="44.43138" lon="1.61582">
        <ele>372</ele>
        <time>2024-03-13T15:28:08Z</time>
      </trkpt>
      <trkpt lat="44.43137" lon="1.61582">
        <ele>372</ele>
        <time>2024-03-13T15:28:09Z</time>
      </trkpt>
      <trkpt lat="44.43135" lon="1.61581">
        <ele>372</ele>
        <time>2024-03-13T15:28:10Z</time>
      </trkpt>
      <trkpt lat="44.43134" lon="1.61581">
        <ele>372</ele>
        <time>2024-03-13T15:28:11Z</time>
      </trkpt>
      <trkpt lat="44.43134" lon="1.61581">
        <ele>372</ele>
        <time>2024-03-13T15:28:12Z</time>
      </trkpt>
      <trkpt lat="44.43133" lon="1.61581">
        <ele>372</ele>
        <time>2024-03-13T15:28:13Z</time>
      </trkpt>
      <trkpt lat="44.43132" lon="1.61581">
        <ele>372</ele>
        <time>2024-03-13T15:28:14Z</time>
      </trkpt>
      <trkpt lat="44.4313" lon="1.6158">
        <ele>371</ele>
        <time>2024-03-13T15:28:15Z</time>
      </trkpt>
      <trkpt lat="44.4313" lon="1.6158">
        <ele>371</ele>
        <time>2024-03-13T15:28:16Z</time>
      </trkpt>
      <trkpt lat="44.4313" lon="1.6158">
        <ele>372</ele>
        <time>2024-03-13T15:28:17Z</time>
      </trkpt>
      <trkpt lat="44.43129" lon="1.6158">
        <ele>371</ele>
        <time>2024-03-13T15:28:18Z</time>
      </trkpt>
      <trkpt lat="44.4313" lon="1.6158">
        <ele>372</ele>
        <time>2024-03-13T15:28:19Z</time>
      </trkpt>
      <trkpt lat="44.4313" lon="1.6158">
        <ele>372</ele>
        <time>2024-03-13T15:28:20Z</time>
      </trkpt>
      <trkpt lat="44.4313" lon="1.6158">
        <ele>372</ele>
        <time>2024-03-13T15:28:21Z</time>
      </trkpt>
      <trkpt lat="44.4313" lon="1.6158">
        <ele>372</ele>
        <time>2024-03-13T15:28:22Z</time>
      </trkpt>
      <trkpt lat="44.4313" lon="1.6158">
        <ele>372</ele>
        <time>2024-03-13T15:28:23Z</time>
      </trkpt>
      <trkpt lat="44.4313" lon="1.6158">
        <ele>372</ele>
        <time>2024-03-13T15:28:24Z</time>
      </trkpt>
      <trkpt lat="44.4313" lon="1.6158">
        <ele>372</ele>
        <time>2024-03-13T15:28:25Z</time>
      </trkpt>
      <trkpt lat="44.4313" lon="1.6158">
        <ele>372</ele>
        <time>2024-03-13T15:28:26Z</time>
      </trkpt>
      <trkpt lat="44.4313" lon="1.6158">
        <ele>372</ele>
        <time>2024-03-13T15:28:27Z</time>
      </trkpt>
      <trkpt lat="44.4313" lon="1.6158">
        <ele>372</ele>
        <time>2024-03-13T15:28:28Z</time>
      </trkpt>
      <trkpt lat="44.4313" lon="1.6158">
        <ele>372</ele>
        <time>2024-03-13T15:28:29Z</time>
      </trkpt>
      <trkpt lat="44.4313" lon="1.6158">
        <ele>372</ele>
        <time>2024-03-13T15:28:30Z</time>
      </trkpt>
      <trkpt lat="44.4313" lon="1.6158">
        <ele>372</ele>
        <time>2024-03-13T15:28:31Z</time>
      </trkpt>
      <trkpt lat="44.4313" lon="1.6158">
        <ele>372</ele>
        <time>2024-03-13T15:28:32Z</time>
      </trkpt>
      <trkpt lat="44.4313" lon="1.6158">
        <ele>372</ele>
        <time>2024-03-13T15:28:33Z</time>
      </trkpt>
      <trkpt lat="44.4313" lon="1.6158">
        <ele>372</ele>
        <time>2024-03-13T15:28:34Z</time>
      </trkpt>
      <trkpt lat="44.4313" lon="1.6158">
        <ele>372</ele>
        <time>2024-03-13T15:28:35Z</time>
      </trkpt>
      <trkpt lat="44.4313" lon="1.6158">
        <ele>372</ele>
        <time>2024-03-13T15:28:36Z</time>
      </trkpt>
      <trkpt lat="44.4313" lon="1.6158">
        <ele>372</ele>
        <time>2024-03-13T15:28:37Z</time>
      </trkpt>
      <trkpt lat="44.4313" lon="1.6158">
        <ele>372</ele>
        <time>2024-03-13T15:28:38Z</time>
      </trkpt>
      <trkpt lat="44.4313" lon="1.6158">
        <ele>372</ele>
        <time>2024-03-13T15:28:39Z</time>
      </trkpt>
      <trkpt lat="44.4313" lon="1.6158">
        <ele>372</ele>
        <time>2024-03-13T15:28:40Z</time>
      </trkpt>
      <trkpt lat="44.4313" lon="1.6158">
        <ele>372</ele>
        <time>2024-03-13T15:28:41Z</time>
      </trkpt>
      <trkpt lat="44.4313" lon="1.6158">
        <ele>372</ele>
        <time>2024-03-13T15:28:42Z</time>
      </trkpt>
      <trkpt lat="44.43129" lon="1.61579">
        <ele>372</ele>
        <time>2024-03-13T15:28:43Z</time>
      </trkpt>
      <trkpt lat="44.4313" lon="1.61578">
        <ele>372</ele>
        <time>2024-03-13T15:28:44Z</time>
      </trkpt>
      <trkpt lat="44.43131" lon="1.61578">
        <ele>372</ele>
        <time>2024-03-13T15:28:45Z</time>
      </trkpt>
      <trkpt lat="44.43132" lon="1.61578">
        <ele>372</ele>
        <time>2024-03-13T15:28:46Z</time>
      </trkpt>
      <trkpt lat="44.43132" lon="1.61577">
        <ele>372</ele>
        <time>2024-03-13T15:28:47Z</time>
      </trkpt>
      <trkpt lat="44.43134" lon="1.61577">
        <ele>372</ele>
        <time>2024-03-13T15:28:48Z</time>
      </trkpt>
      <trkpt lat="44.43134" lon="1.61576">
        <ele>372</ele>
        <time>2024-03-13T15:28:49Z</time>
      </trkpt>
      <trkpt lat="44.43135" lon="1.61576">
        <ele>372</ele>
        <time>2024-03-13T15:28:50Z</time>
      </trkpt>
      <trkpt lat="44.43135" lon="1.61575">
        <ele>372</ele>
        <time>2024-03-13T15:28:51Z</time>
      </trkpt>
      <trkpt lat="44.43136" lon="1.61575">
        <ele>372</ele>
        <time>2024-03-13T15:28:52Z</time>
      </trkpt>
      <trkpt lat="44.43137" lon="1.61574">
        <ele>372</ele>
        <time>2024-03-13T15:28:53Z</time>
      </trkpt>
      <trkpt lat="44.43137" lon="1.61573">
        <ele>372</ele>
        <time>2024-03-13T15:28:54Z</time>
      </trkpt>
      <trkpt lat="44.43137" lon="1.61573">
        <ele>372</ele>
        <time>2024-03-13T15:28:55Z</time>
      </trkpt>
      <trkpt lat="44.43137" lon="1.61572">
        <ele>372</ele>
        <time>2024-03-13T15:28:56Z</time>
      </trkpt>
      <trkpt lat="44.43137" lon="1.61572">
        <ele>372</ele>
        <time>2024-03-13T15:28:57Z</time>
      </trkpt>
      <trkpt lat="44.43137" lon="1.61572">
        <ele>372</ele>
        <time>2024-03-13T15:28:58Z</time>
      </trkpt>
      <trkpt lat="44.43137" lon="1.61572">
        <ele>372</ele>
        <time>2024-03-13T15:28:59Z</time>
      </trkpt>
      <trkpt lat="44.43137" lon="1.61572">
        <ele>372</ele>
        <time>2024-03-13T15:29:00Z</time>
      </trkpt>
      <trkpt lat="44.43137" lon="1.61572">
        <ele>372</ele>
        <time>2024-03-13T15:29:01Z</time>
      </trkpt>
      <trkpt lat="44.43137" lon="1.61572">
        <ele>372</ele>
        <time>2024-03-13T15:29:02Z</time>
      </trkpt>
      <trkpt lat="44.43137" lon="1.61572">
        <ele>372</ele>
        <time>2024-03-13T15:29:03Z</time>
      </trkpt>
      <trkpt lat="44.43137" lon="1.61571">
        <ele>372</ele>
        <time>2024-03-13T15:29:04Z</time>
      </trkpt>
      <trkpt lat="44.43137" lon="1.6157">
        <ele>372</ele>
        <time>2024-03-13T15:29:05Z</time>
      </trkpt>
      <trkpt lat="44.43137" lon="1.6157">
        <ele>372</ele>
        <time>2024-03-13T15:29:06Z</time>
      </trkpt>
      <trkpt lat="44.43137" lon="1.61569">
        <ele>372</ele>
        <time>2024-03-13T15:29:07Z</time>
      </trkpt>
      <trkpt lat="44.43137" lon="1.61568">
        <ele>372</ele>
        <time>2024-03-13T15:29:08Z</time>
      </trkpt>
      <trkpt lat="44.43137" lon="1.61567">
        <ele>372</ele>
        <time>2024-03-13T15:29:09Z</time>
      </trkpt>
      <trkpt lat="44.43137" lon="1.61565">
        <ele>372</ele>
        <time>2024-03-13T15:29:10Z</time>
      </trkpt>
      <trkpt lat="44.43137" lon="1.61563">
        <ele>372</ele>
        <time>2024-03-13T15:29:11Z</time>
      </trkpt>
      <trkpt lat="44.43137" lon="1.61561">
        <ele>372</ele>
        <time>2024-03-13T15:29:12Z</time>
      </trkpt>
      <trkpt lat="44.43137" lon="1.6156">
        <ele>372</ele>
        <time>2024-03-13T15:29:14Z</time>
      </trkpt>
      <trkpt lat="44.43137" lon="1.61559">
        <ele>372</ele>
        <time>2024-03-13T15:29:15Z</time>
      </trkpt>
      <trkpt lat="44.43137" lon="1.61558">
        <ele>372</ele>
        <time>2024-03-13T15:29:16Z</time>
      </trkpt>
      <trkpt lat="44.43137" lon="1.61557">
        <ele>372</ele>
        <time>2024-03-13T15:29:17Z</time>
      </trkpt>
      <trkpt lat="44.43138" lon="1.61555">
        <ele>372</ele>
        <time>2024-03-13T15:29:18Z</time>
      </trkpt>
      <trkpt lat="44.43138" lon="1.61554">
        <ele>372</ele>
        <time>2024-03-13T15:29:19Z</time>
      </trkpt>
      <trkpt lat="44.43138" lon="1.61553">
        <ele>372</ele>
        <time>2024-03-13T15:29:20Z</time>
      </trkpt>
      <trkpt lat="44.43139" lon="1.6155">
        <ele>372</ele>
        <time>2024-03-13T15:29:21Z</time>
      </trkpt>
      <trkpt lat="44.43139" lon="1.61549">
        <ele>372</ele>
        <time>2024-03-13T15:29:23Z</time>
      </trkpt>
      <trkpt lat="44.43139" lon="1.61546">
        <ele>373</ele>
        <time>2024-03-13T15:29:24Z</time>
      </trkpt>
      <trkpt lat="44.43139" lon="1.61545">
        <ele>373</ele>
        <time>2024-03-13T15:29:26Z</time>
      </trkpt>
      <trkpt lat="44.43139" lon="1.61544">
        <ele>372</ele>
        <time>2024-03-13T15:29:27Z</time>
      </trkpt>
      <trkpt lat="44.43139" lon="1.61543">
        <ele>372</ele>
        <time>2024-03-13T15:29:28Z</time>
      </trkpt>
      <trkpt lat="44.43139" lon="1.61541">
        <ele>373</ele>
        <time>2024-03-13T15:29:29Z</time>
      </trkpt>
      <trkpt lat="44.43138" lon="1.6154">
        <ele>373</ele>
        <time>2024-03-13T15:29:31Z</time>
      </trkpt>
      <trkpt lat="44.43138" lon="1.61539">
        <ele>373</ele>
        <time>2024-03-13T15:29:32Z</time>
      </trkpt>
      <trkpt lat="44.43137" lon="1.61538">
        <ele>373</ele>
        <time>2024-03-13T15:29:33Z</time>
      </trkpt>
      <trkpt lat="44.43137" lon="1.61538">
        <ele>373</ele>
        <time>2024-03-13T15:29:35Z</time>
      </trkpt>
      <trkpt lat="44.43135" lon="1.61535">
        <ele>373</ele>
        <time>2024-03-13T15:29:36Z</time>
      </trkpt>
      <trkpt lat="44.43135" lon="1.61535">
        <ele>373</ele>
        <time>2024-03-13T15:29:38Z</time>
      </trkpt>
      <trkpt lat="44.43133" lon="1.61534">
        <ele>372</ele>
        <time>2024-03-13T15:29:39Z</time>
      </trkpt>
      <trkpt lat="44.43132" lon="1.61534">
        <ele>372</ele>
        <time>2024-03-13T15:29:41Z</time>
      </trkpt>
      <trkpt lat="44.43132" lon="1.61532">
        <ele>373</ele>
        <time>2024-03-13T15:29:42Z</time>
      </trkpt>
      <trkpt lat="44.43132" lon="1.61532">
        <ele>373</ele>
        <time>2024-03-13T15:29:43Z</time>
      </trkpt>
      <trkpt lat="44.43132" lon="1.61532">
        <ele>373</ele>
        <time>2024-03-13T15:29:45Z</time>
      </trkpt>
      <trkpt lat="44.43129" lon="1.61529">
        <ele>373</ele>
        <time>2024-03-13T15:29:46Z</time>
      </trkpt>
      <trkpt lat="44.43129" lon="1.61529">
        <ele>373</ele>
        <time>2024-03-13T15:29:47Z</time>
      </trkpt>
      <trkpt lat="44.43128" lon="1.61529">
        <ele>373</ele>
        <time>2024-03-13T15:29:48Z</time>
      </trkpt>
      <trkpt lat="44.43126" lon="1.61528">
        <ele>373</ele>
        <time>2024-03-13T15:29:50Z</time>
      </trkpt>
      <trkpt lat="44.43125" lon="1.61528">
        <ele>373</ele>
        <time>2024-03-13T15:29:52Z</time>
      </trkpt>
      <trkpt lat="44.43124" lon="1.61527">
        <ele>374</ele>
        <time>2024-03-13T15:29:53Z</time>
      </trkpt>
      <trkpt lat="44.43123" lon="1.61527">
        <ele>374</ele>
        <time>2024-03-13T15:29:54Z</time>
      </trkpt>
      <trkpt lat="44.43123" lon="1.61527">
        <ele>375</ele>
        <time>2024-03-13T15:29:55Z</time>
      </trkpt>
      <trkpt lat="44.43123" lon="1.61527">
        <ele>375</ele>
        <time>2024-03-13T15:29:56Z</time>
      </trkpt>
      <trkpt lat="44.43123" lon="1.61527">
        <ele>375</ele>
        <time>2024-03-13T15:29:57Z</time>
      </trkpt>
      <trkpt lat="44.43121" lon="1.61526">
        <ele>375</ele>
        <time>2024-03-13T15:29:58Z</time>
      </trkpt>
      <trkpt lat="44.43121" lon="1.61526">
        <ele>375</ele>
        <time>2024-03-13T15:29:59Z</time>
      </trkpt>
      <trkpt lat="44.43119" lon="1.61526">
        <ele>376</ele>
        <time>2024-03-13T15:30:01Z</time>
      </trkpt>
      <trkpt lat="44.43119" lon="1.61526">
        <ele>376</ele>
        <time>2024-03-13T15:30:02Z</time>
      </trkpt>
      <trkpt lat="44.43118" lon="1.61525">
        <ele>376</ele>
        <time>2024-03-13T15:30:03Z</time>
      </trkpt>
      <trkpt lat="44.43117" lon="1.61524">
        <ele>376</ele>
        <time>2024-03-13T15:30:04Z</time>
      </trkpt>
      <trkpt lat="44.43117" lon="1.61524">
        <ele>376</ele>
        <time>2024-03-13T15:30:05Z</time>
      </trkpt>
      <trkpt lat="44.43116" lon="1.61523">
        <ele>376</ele>
        <time>2024-03-13T15:30:06Z</time>
      </trkpt>
      <trkpt lat="44.43115" lon="1.61522">
        <ele>376</ele>
        <time>2024-03-13T15:30:07Z</time>
      </trkpt>
      <trkpt lat="44.43114" lon="1.61522">
        <ele>376</ele>
        <time>2024-03-13T15:30:08Z</time>
      </trkpt>
      <trkpt lat="44.43113" lon="1.61521">
        <ele>376</ele>
        <time>2024-03-13T15:30:09Z</time>
      </trkpt>
      <trkpt lat="44.43112" lon="1.61521">
        <ele>376</ele>
        <time>2024-03-13T15:30:10Z</time>
      </trkpt>
      <trkpt lat="44.43111" lon="1.61521">
        <ele>376</ele>
        <time>2024-03-13T15:30:11Z</time>
      </trkpt>
      <trkpt lat="44.43111" lon="1.61521">
        <ele>376</ele>
        <time>2024-03-13T15:30:12Z</time>
      </trkpt>
      <trkpt lat="44.43111" lon="1.61521">
        <ele>376</ele>
        <time>2024-03-13T15:30:13Z</time>
      </trkpt>
      <trkpt lat="44.4311" lon="1.61521">
        <ele>377</ele>
        <time>2024-03-13T15:30:14Z</time>
      </trkpt>
      <trkpt lat="44.4311" lon="1.61521">
        <ele>377</ele>
        <time>2024-03-13T15:30:15Z</time>
      </trkpt>
      <trkpt lat="44.4311" lon="1.61521">
        <ele>377</ele>
        <time>2024-03-13T15:30:16Z</time>
      </trkpt>
      <trkpt lat="44.43109" lon="1.6152">
        <ele>377</ele>
        <time>2024-03-13T15:30:17Z</time>
      </trkpt>
      <trkpt lat="44.43108" lon="1.61519">
        <ele>377</ele>
        <time>2024-03-13T15:30:18Z</time>
      </trkpt>
      <trkpt lat="44.43108" lon="1.61519">
        <ele>377</ele>
        <time>2024-03-13T15:30:19Z</time>
      </trkpt>
      <trkpt lat="44.43108" lon="1.61518">
        <ele>377</ele>
        <time>2024-03-13T15:30:20Z</time>
      </trkpt>
      <trkpt lat="44.43108" lon="1.61517">
        <ele>377</ele>
        <time>2024-03-13T15:30:21Z</time>
      </trkpt>
      <trkpt lat="44.43107" lon="1.61516">
        <ele>377</ele>
        <time>2024-03-13T15:30:22Z</time>
      </trkpt>
      <trkpt lat="44.43107" lon="1.61515">
        <ele>377</ele>
        <time>2024-03-13T15:30:23Z</time>
      </trkpt>
      <trkpt lat="44.43106" lon="1.61514">
        <ele>378</ele>
        <time>2024-03-13T15:30:24Z</time>
      </trkpt>
      <trkpt lat="44.43106" lon="1.61514">
        <ele>379</ele>
        <time>2024-03-13T15:30:25Z</time>
      </trkpt>
      <trkpt lat="44.43105" lon="1.61513">
        <ele>379</ele>
        <time>2024-03-13T15:30:26Z</time>
      </trkpt>
      <trkpt lat="44.43104" lon="1.61512">
        <ele>379</ele>
        <time>2024-03-13T15:30:27Z</time>
      </trkpt>
      <trkpt lat="44.43103" lon="1.61511">
        <ele>379</ele>
        <time>2024-03-13T15:30:28Z</time>
      </trkpt>
      <trkpt lat="44.43103" lon="1.61511">
        <ele>379</ele>
        <time>2024-03-13T15:30:29Z</time>
      </trkpt>
      <trkpt lat="44.43102" lon="1.6151">
        <ele>379</ele>
        <time>2024-03-13T15:30:30Z</time>
      </trkpt>
      <trkpt lat="44.43101" lon="1.6151">
        <ele>379</ele>
        <time>2024-03-13T15:30:31Z</time>
      </trkpt>
      <trkpt lat="44.431" lon="1.61509">
        <ele>379</ele>
        <time>2024-03-13T15:30:32Z</time>
      </trkpt>
      <trkpt lat="44.431" lon="1.61509">
        <ele>379</ele>
        <time>2024-03-13T15:30:33Z</time>
      </trkpt>
      <trkpt lat="44.431" lon="1.61509">
        <ele>379</ele>
        <time>2024-03-13T15:30:34Z</time>
      </trkpt>
      <trkpt lat="44.43099" lon="1.61507">
        <ele>380</ele>
        <time>2024-03-13T15:30:35Z</time>
      </trkpt>
      <trkpt lat="44.43098" lon="1.61506">
        <ele>381</ele>
        <time>2024-03-13T15:30:36Z</time>
      </trkpt>
      <trkpt lat="44.43098" lon="1.61506">
        <ele>381</ele>
        <time>2024-03-13T15:30:37Z</time>
      </trkpt>
      <trkpt lat="44.43097" lon="1.61505">
        <ele>381</ele>
        <time>2024-03-13T15:30:38Z</time>
      </trkpt>
      <trkpt lat="44.43097" lon="1.61504">
        <ele>381</ele>
        <time>2024-03-13T15:30:39Z</time>
      </trkpt>
      <trkpt lat="44.43095" lon="1.61504">
        <ele>381</ele>
        <time>2024-03-13T15:30:40Z</time>
      </trkpt>
      <trkpt lat="44.43094" lon="1.61503">
        <ele>381</ele>
        <time>2024-03-13T15:30:41Z</time>
      </trkpt>
      <trkpt lat="44.43093" lon="1.61503">
        <ele>381</ele>
        <time>2024-03-13T15:30:42Z</time>
      </trkpt>
      <trkpt lat="44.43092" lon="1.61502">
        <ele>381</ele>
        <time>2024-03-13T15:30:43Z</time>
      </trkpt>
      <trkpt lat="44.43092" lon="1.61502">
        <ele>382</ele>
        <time>2024-03-13T15:30:44Z</time>
      </trkpt>
      <trkpt lat="44.43092" lon="1.61501">
        <ele>383</ele>
        <time>2024-03-13T15:30:45Z</time>
      </trkpt>
      <trkpt lat="44.43091" lon="1.61501">
        <ele>383</ele>
        <time>2024-03-13T15:30:46Z</time>
      </trkpt>
      <trkpt lat="44.43091" lon="1.61501">
        <ele>383</ele>
        <time>2024-03-13T15:30:47Z</time>
      </trkpt>
      <trkpt lat="44.43091" lon="1.61501">
        <ele>383</ele>
        <time>2024-03-13T15:30:48Z</time>
      </trkpt>
      <trkpt lat="44.43089" lon="1.615">
        <ele>382</ele>
        <time>2024-03-13T15:30:49Z</time>
      </trkpt>
      <trkpt lat="44.43089" lon="1.615">
        <ele>382</ele>
        <time>2024-03-13T15:30:50Z</time>
      </trkpt>
      <trkpt lat="44.43087" lon="1.615">
        <ele>382</ele>
        <time>2024-03-13T15:30:51Z</time>
      </trkpt>
      <trkpt lat="44.43086" lon="1.615">
        <ele>382</ele>
        <time>2024-03-13T15:30:52Z</time>
      </trkpt>
      <trkpt lat="44.43086" lon="1.615">
        <ele>382</ele>
        <time>2024-03-13T15:30:53Z</time>
      </trkpt>
      <trkpt lat="44.43086" lon="1.615">
        <ele>382</ele>
        <time>2024-03-13T15:30:54Z</time>
      </trkpt>
      <trkpt lat="44.43084" lon="1.615">
        <ele>382</ele>
        <time>2024-03-13T15:30:55Z</time>
      </trkpt>
      <trkpt lat="44.43083" lon="1.615">
        <ele>382</ele>
        <time>2024-03-13T15:30:56Z</time>
      </trkpt>
      <trkpt lat="44.43082" lon="1.615">
        <ele>382</ele>
        <time>2024-03-13T15:30:57Z</time>
      </trkpt>
      <trkpt lat="44.43081" lon="1.615">
        <ele>383</ele>
        <time>2024-03-13T15:30:58Z</time>
      </trkpt>
      <trkpt lat="44.43081" lon="1.615">
        <ele>383</ele>
        <time>2024-03-13T15:30:59Z</time>
      </trkpt>
      <trkpt lat="44.43081" lon="1.615">
        <ele>383</ele>
        <time>2024-03-13T15:31:00Z</time>
      </trkpt>
      <trkpt lat="44.43079" lon="1.61499">
        <ele>382</ele>
        <time>2024-03-13T15:31:01Z</time>
      </trkpt>
      <trkpt lat="44.43079" lon="1.61499">
        <ele>383</ele>
        <time>2024-03-13T15:31:02Z</time>
      </trkpt>
      <trkpt lat="44.43078" lon="1.61499">
        <ele>383</ele>
        <time>2024-03-13T15:31:03Z</time>
      </trkpt>
      <trkpt lat="44.43077" lon="1.61499">
        <ele>383</ele>
        <time>2024-03-13T15:31:04Z</time>
      </trkpt>
      <trkpt lat="44.43077" lon="1.61499">
        <ele>384</ele>
        <time>2024-03-13T15:31:05Z</time>
      </trkpt>
      <trkpt lat="44.43077" lon="1.61499">
        <ele>384</ele>
        <time>2024-03-13T15:31:06Z</time>
      </trkpt>
      <trkpt lat="44.43077" lon="1.61499">
        <ele>384</ele>
        <time>2024-03-13T15:31:07Z</time>
      </trkpt>
      <trkpt lat="44.43075" lon="1.61498">
        <ele>384</ele>
        <time>2024-03-13T15:31:08Z</time>
      </trkpt>
      <trkpt lat="44.43074" lon="1.61498">
        <ele>384</ele>
        <time>2024-03-13T15:31:09Z</time>
      </trkpt>
      <trkpt lat="44.43073" lon="1.61498">
        <ele>384</ele>
        <time>2024-03-13T15:31:10Z</time>
      </trkpt>
      <trkpt lat="44.43072" lon="1.61498">
        <ele>384</ele>
        <time>2024-03-13T15:31:11Z</time>
      </trkpt>
      <trkpt lat="44.43072" lon="1.61498">
        <ele>384</ele>
        <time>2024-03-13T15:31:12Z</time>
      </trkpt>
      <trkpt lat="44.43071" lon="1.61498">
        <ele>385</ele>
        <time>2024-03-13T15:31:13Z</time>
      </trkpt>
      <trkpt lat="44.43071" lon="1.61498">
        <ele>385</ele>
        <time>2024-03-13T15:31:14Z</time>
      </trkpt>
      <trkpt lat="44.43071" lon="1.61498">
        <ele>385</ele>
        <time>2024-03-13T15:31:15Z</time>
      </trkpt>
      <trkpt lat="44.4307" lon="1.61497">
        <ele>384</ele>
        <time>2024-03-13T15:31:16Z</time>
      </trkpt>
      <trkpt lat="44.43069" lon="1.61497">
        <ele>384</ele>
        <time>2024-03-13T15:31:17Z</time>
      </trkpt>
      <trkpt lat="44.43069" lon="1.61497">
        <ele>385</ele>
        <time>2024-03-13T15:31:18Z</time>
      </trkpt>
      <trkpt lat="44.43068" lon="1.61496">
        <ele>385</ele>
        <time>2024-03-13T15:31:19Z</time>
      </trkpt>
      <trkpt lat="44.43068" lon="1.61496">
        <ele>385</ele>
        <time>2024-03-13T15:31:20Z</time>
      </trkpt>
      <trkpt lat="44.43068" lon="1.61496">
        <ele>385</ele>
        <time>2024-03-13T15:31:21Z</time>
      </trkpt>
      <trkpt lat="44.43067" lon="1.61496">
        <ele>385</ele>
        <time>2024-03-13T15:31:22Z</time>
      </trkpt>
      <trkpt lat="44.43067" lon="1.61496">
        <ele>385</ele>
        <time>2024-03-13T15:31:23Z</time>
      </trkpt>
      <trkpt lat="44.43065" lon="1.61496">
        <ele>386</ele>
        <time>2024-03-13T15:31:24Z</time>
      </trkpt>
      <trkpt lat="44.43064" lon="1.61496">
        <ele>386</ele>
        <time>2024-03-13T15:31:25Z</time>
      </trkpt>
      <trkpt lat="44.43063" lon="1.61496">
        <ele>386</ele>
        <time>2024-03-13T15:31:26Z</time>
      </trkpt>
      <trkpt lat="44.43062" lon="1.61496">
        <ele>386</ele>
        <time>2024-03-13T15:31:27Z</time>
      </trkpt>
      <trkpt lat="44.43062" lon="1.61496">
        <ele>386</ele>
        <time>2024-03-13T15:31:28Z</time>
      </trkpt>
      <trkpt lat="44.43062" lon="1.61496">
        <ele>386</ele>
        <time>2024-03-13T15:31:29Z</time>
      </trkpt>
      <trkpt lat="44.4306" lon="1.61495">
        <ele>386</ele>
        <time>2024-03-13T15:31:30Z</time>
      </trkpt>
      <trkpt lat="44.4306" lon="1.61495">
        <ele>386</ele>
        <time>2024-03-13T15:31:31Z</time>
      </trkpt>
      <trkpt lat="44.43059" lon="1.61494">
        <ele>387</ele>
        <time>2024-03-13T15:31:32Z</time>
      </trkpt>
      <trkpt lat="44.43058" lon="1.61494">
        <ele>387</ele>
        <time>2024-03-13T15:31:33Z</time>
      </trkpt>
      <trkpt lat="44.43057" lon="1.61493">
        <ele>386</ele>
        <time>2024-03-13T15:31:34Z</time>
      </trkpt>
      <trkpt lat="44.43056" lon="1.61493">
        <ele>387</ele>
        <time>2024-03-13T15:31:35Z</time>
      </trkpt>
      <trkpt lat="44.43055" lon="1.61493">
        <ele>387</ele>
        <time>2024-03-13T15:31:36Z</time>
      </trkpt>
      <trkpt lat="44.43055" lon="1.61492">
        <ele>387</ele>
        <time>2024-03-13T15:31:37Z</time>
      </trkpt>
      <trkpt lat="44.43054" lon="1.61492">
        <ele>387</ele>
        <time>2024-03-13T15:31:38Z</time>
      </trkpt>
      <trkpt lat="44.43054" lon="1.61492">
        <ele>387</ele>
        <time>2024-03-13T15:31:39Z</time>
      </trkpt>
      <trkpt lat="44.43054" lon="1.61492">
        <ele>387</ele>
        <time>2024-03-13T15:31:40Z</time>
      </trkpt>
      <trkpt lat="44.43052" lon="1.61493">
        <ele>387</ele>
        <time>2024-03-13T15:31:41Z</time>
      </trkpt>
      <trkpt lat="44.43051" lon="1.61493">
        <ele>387</ele>
        <time>2024-03-13T15:31:42Z</time>
      </trkpt>
      <trkpt lat="44.4305" lon="1.61492">
        <ele>387</ele>
        <time>2024-03-13T15:31:43Z</time>
      </trkpt>
      <trkpt lat="44.43049" lon="1.61492">
        <ele>387</ele>
        <time>2024-03-13T15:31:44Z</time>
      </trkpt>
      <trkpt lat="44.43048" lon="1.61492">
        <ele>387</ele>
        <time>2024-03-13T15:31:45Z</time>
      </trkpt>
      <trkpt lat="44.43048" lon="1.61492">
        <ele>387</ele>
        <time>2024-03-13T15:31:46Z</time>
      </trkpt>
      <trkpt lat="44.43048" lon="1.61492">
        <ele>387</ele>
        <time>2024-03-13T15:31:47Z</time>
      </trkpt>
      <trkpt lat="44.43045" lon="1.61491">
        <ele>387</ele>
        <time>2024-03-13T15:31:48Z</time>
      </trkpt>
      <trkpt lat="44.43044" lon="1.6149">
        <ele>387</ele>
        <time>2024-03-13T15:31:49Z</time>
      </trkpt>
      <trkpt lat="44.43044" lon="1.6149">
        <ele>387</ele>
        <time>2024-03-13T15:31:50Z</time>
      </trkpt>
      <trkpt lat="44.43043" lon="1.61489">
        <ele>387</ele>
        <time>2024-03-13T15:31:51Z</time>
      </trkpt>
      <trkpt lat="44.43043" lon="1.61489">
        <ele>387</ele>
        <time>2024-03-13T15:31:52Z</time>
      </trkpt>
      <trkpt lat="44.43043" lon="1.61489">
        <ele>387</ele>
        <time>2024-03-13T15:31:53Z</time>
      </trkpt>
      <trkpt lat="44.43041" lon="1.61488">
        <ele>387</ele>
        <time>2024-03-13T15:31:54Z</time>
      </trkpt>
      <trkpt lat="44.4304" lon="1.61488">
        <ele>387</ele>
        <time>2024-03-13T15:31:55Z</time>
      </trkpt>
      <trkpt lat="44.4304" lon="1.61488">
        <ele>387</ele>
        <time>2024-03-13T15:31:56Z</time>
      </trkpt>
      <trkpt lat="44.43039" lon="1.61488">
        <ele>387</ele>
        <time>2024-03-13T15:31:57Z</time>
      </trkpt>
      <trkpt lat="44.43039" lon="1.61488">
        <ele>387</ele>
        <time>2024-03-13T15:31:58Z</time>
      </trkpt>
      <trkpt lat="44.43039" lon="1.61488">
        <ele>387</ele>
        <time>2024-03-13T15:31:59Z</time>
      </trkpt>
      <trkpt lat="44.43036" lon="1.61488">
        <ele>387</ele>
        <time>2024-03-13T15:32:00Z</time>
      </trkpt>
      <trkpt lat="44.43035" lon="1.61488">
        <ele>387</ele>
        <time>2024-03-13T15:32:01Z</time>
      </trkpt>
      <trkpt lat="44.43034" lon="1.61488">
        <ele>387</ele>
        <time>2024-03-13T15:32:02Z</time>
      </trkpt>
      <trkpt lat="44.43033" lon="1.61488">
        <ele>387</ele>
        <time>2024-03-13T15:32:03Z</time>
      </trkpt>
      <trkpt lat="44.43033" lon="1.61488">
        <ele>387</ele>
        <time>2024-03-13T15:32:04Z</time>
      </trkpt>
      <trkpt lat="44.43033" lon="1.61488">
        <ele>387</ele>
        <time>2024-03-13T15:32:05Z</time>
      </trkpt>
      <trkpt lat="44.43032" lon="1.61488">
        <ele>386</ele>
        <time>2024-03-13T15:32:06Z</time>
      </trkpt>
      <trkpt lat="44.43032" lon="1.61488">
        <ele>386</ele>
        <time>2024-03-13T15:32:07Z</time>
      </trkpt>
      <trkpt lat="44.43031" lon="1.61488">
        <ele>386</ele>
        <time>2024-03-13T15:32:08Z</time>
      </trkpt>
      <trkpt lat="44.43029" lon="1.61488">
        <ele>386</ele>
        <time>2024-03-13T15:32:09Z</time>
      </trkpt>
      <trkpt lat="44.43028" lon="1.61487">
        <ele>387</ele>
        <time>2024-03-13T15:32:10Z</time>
      </trkpt>
      <trkpt lat="44.43027" lon="1.61487">
        <ele>386</ele>
        <time>2024-03-13T15:32:11Z</time>
      </trkpt>
      <trkpt lat="44.43026" lon="1.61487">
        <ele>386</ele>
        <time>2024-03-13T15:32:12Z</time>
      </trkpt>
      <trkpt lat="44.43027" lon="1.61487">
        <ele>386</ele>
        <time>2024-03-13T15:32:13Z</time>
      </trkpt>
      <trkpt lat="44.43026" lon="1.61487">
        <ele>386</ele>
        <time>2024-03-13T15:32:14Z</time>
      </trkpt>
      <trkpt lat="44.43026" lon="1.61487">
        <ele>386</ele>
        <time>2024-03-13T15:32:15Z</time>
      </trkpt>
      <trkpt lat="44.43026" lon="1.61487">
        <ele>386</ele>
        <time>2024-03-13T15:32:16Z</time>
      </trkpt>
      <trkpt lat="44.43024" lon="1.61486">
        <ele>387</ele>
        <time>2024-03-13T15:32:17Z</time>
      </trkpt>
      <trkpt lat="44.43023" lon="1.61485">
        <ele>387</ele>
        <time>2024-03-13T15:32:18Z</time>
      </trkpt>
      <trkpt lat="44.43022" lon="1.61485">
        <ele>387</ele>
        <time>2024-03-13T15:32:19Z</time>
      </trkpt>
      <trkpt lat="44.43021" lon="1.61484">
        <ele>387</ele>
        <time>2024-03-13T15:32:20Z</time>
      </trkpt>
      <trkpt lat="44.4302" lon="1.61484">
        <ele>386</ele>
        <time>2024-03-13T15:32:21Z</time>
      </trkpt>
      <trkpt lat="44.43019" lon="1.61484">
        <ele>386</ele>
        <time>2024-03-13T15:32:22Z</time>
      </trkpt>
      <trkpt lat="44.43018" lon="1.61483">
        <ele>386</ele>
        <time>2024-03-13T15:32:23Z</time>
      </trkpt>
      <trkpt lat="44.43017" lon="1.61482">
        <ele>386</ele>
        <time>2024-03-13T15:32:24Z</time>
      </trkpt>
      <trkpt lat="44.43016" lon="1.61481">
        <ele>387</ele>
        <time>2024-03-13T15:32:25Z</time>
      </trkpt>
      <trkpt lat="44.43015" lon="1.61482">
        <ele>387</ele>
        <time>2024-03-13T15:32:26Z</time>
      </trkpt>
      <trkpt lat="44.43013" lon="1.61482">
        <ele>387</ele>
        <time>2024-03-13T15:32:27Z</time>
      </trkpt>
      <trkpt lat="44.43013" lon="1.61482">
        <ele>387</ele>
        <time>2024-03-13T15:32:28Z</time>
      </trkpt>
      <trkpt lat="44.43012" lon="1.61482">
        <ele>387</ele>
        <time>2024-03-13T15:32:29Z</time>
      </trkpt>
      <trkpt lat="44.43011" lon="1.61482">
        <ele>387</ele>
        <time>2024-03-13T15:32:30Z</time>
      </trkpt>
      <trkpt lat="44.4301" lon="1.61482">
        <ele>387</ele>
        <time>2024-03-13T15:32:31Z</time>
      </trkpt>
      <trkpt lat="44.43009" lon="1.61482">
        <ele>386</ele>
        <time>2024-03-13T15:32:32Z</time>
      </trkpt>
      <trkpt lat="44.43009" lon="1.61483">
        <ele>387</ele>
        <time>2024-03-13T15:32:33Z</time>
      </trkpt>
      <trkpt lat="44.43008" lon="1.61483">
        <ele>387</ele>
        <time>2024-03-13T15:32:34Z</time>
      </trkpt>
      <trkpt lat="44.43008" lon="1.61483">
        <ele>387</ele>
        <time>2024-03-13T15:32:35Z</time>
      </trkpt>
      <trkpt lat="44.43008" lon="1.61483">
        <ele>387</ele>
        <time>2024-03-13T15:32:36Z</time>
      </trkpt>
      <trkpt lat="44.43008" lon="1.61483">
        <ele>387</ele>
        <time>2024-03-13T15:32:37Z</time>
      </trkpt>
      <trkpt lat="44.43008" lon="1.61483">
        <ele>387</ele>
        <time>2024-03-13T15:32:38Z</time>
      </trkpt>
      <trkpt lat="44.43008" lon="1.61483">
        <ele>387</ele>
        <time>2024-03-13T15:32:39Z</time>
      </trkpt>
      <trkpt lat="44.43008" lon="1.61483">
        <ele>387</ele>
        <time>2024-03-13T15:32:40Z</time>
      </trkpt>
      <trkpt lat="44.43008" lon="1.61483">
        <ele>387</ele>
        <time>2024-03-13T15:32:41Z</time>
      </trkpt>
      <trkpt lat="44.43008" lon="1.61483">
        <ele>387</ele>
        <time>2024-03-13T15:32:42Z</time>
      </trkpt>
      <trkpt lat="44.43008" lon="1.61483">
        <ele>387</ele>
        <time>2024-03-13T15:32:43Z</time>
      </trkpt>
      <trkpt lat="44.43008" lon="1.61483">
        <ele>387</ele>
        <time>2024-03-13T15:32:44Z</time>
      </trkpt>
      <trkpt lat="44.43008" lon="1.61483">
        <ele>387</ele>
        <time>2024-03-13T15:32:45Z</time>
      </trkpt>
      <trkpt lat="44.43008" lon="1.61483">
        <ele>387</ele>
        <time>2024-03-13T15:32:46Z</time>
      </trkpt>
      <trkpt lat="44.43008" lon="1.61483">
        <ele>387</ele>
        <time>2024-03-13T15:32:47Z</time>
      </trkpt>
      <trkpt lat="44.43008" lon="1.61483">
        <ele>387</ele>
        <time>2024-03-13T15:32:48Z</time>
      </trkpt>
      <trkpt lat="44.43007" lon="1.61482">
        <ele>386</ele>
        <time>2024-03-13T15:32:49Z</time>
      </trkpt>
      <trkpt lat="44.43007" lon="1.61481">
        <ele>387</ele>
        <time>2024-03-13T15:32:50Z</time>
      </trkpt>
      <trkpt lat="44.43006" lon="1.61481">
        <ele>386</ele>
        <time>2024-03-13T15:32:51Z</time>
      </trkpt>
      <trkpt lat="44.43005" lon="1.61481">
        <ele>386</ele>
        <time>2024-03-13T15:32:52Z</time>
      </trkpt>
      <trkpt lat="44.43004" lon="1.6148">
        <ele>386</ele>
        <time>2024-03-13T15:32:53Z</time>
      </trkpt>
      <trkpt lat="44.43003" lon="1.61479">
        <ele>386</ele>
        <time>2024-03-13T15:32:54Z</time>
      </trkpt>
      <trkpt lat="44.43003" lon="1.61478">
        <ele>386</ele>
        <time>2024-03-13T15:32:55Z</time>
      </trkpt>
      <trkpt lat="44.43002" lon="1.61478">
        <ele>386</ele>
        <time>2024-03-13T15:32:56Z</time>
      </trkpt>
      <trkpt lat="44.43001" lon="1.61478">
        <ele>386</ele>
        <time>2024-03-13T15:32:57Z</time>
      </trkpt>
      <trkpt lat="44.43" lon="1.61477">
        <ele>386</ele>
        <time>2024-03-13T15:32:58Z</time>
      </trkpt>
      <trkpt lat="44.42999" lon="1.61477">
        <ele>387</ele>
        <time>2024-03-13T15:32:59Z</time>
      </trkpt>
      <trkpt lat="44.42998" lon="1.61476">
        <ele>387</ele>
        <time>2024-03-13T15:33:00Z</time>
      </trkpt>
      <trkpt lat="44.42997" lon="1.61475">
        <ele>387</ele>
        <time>2024-03-13T15:33:01Z</time>
      </trkpt>
      <trkpt lat="44.42996" lon="1.61475">
        <ele>387</ele>
        <time>2024-03-13T15:33:02Z</time>
      </trkpt>
      <trkpt lat="44.42995" lon="1.61474">
        <ele>387</ele>
        <time>2024-03-13T15:33:03Z</time>
      </trkpt>
      <trkpt lat="44.42994" lon="1.61474">
        <ele>387</ele>
        <time>2024-03-13T15:33:04Z</time>
      </trkpt>
      <trkpt lat="44.42993" lon="1.61473">
        <ele>387</ele>
        <time>2024-03-13T15:33:05Z</time>
      </trkpt>
      <trkpt lat="44.42992" lon="1.61473">
        <ele>387</ele>
        <time>2024-03-13T15:33:06Z</time>
      </trkpt>
      <trkpt lat="44.42991" lon="1.61472">
        <ele>387</ele>
        <time>2024-03-13T15:33:07Z</time>
      </trkpt>
      <trkpt lat="44.4299" lon="1.61471">
        <ele>387</ele>
        <time>2024-03-13T15:33:08Z</time>
      </trkpt>
      <trkpt lat="44.42989" lon="1.6147">
        <ele>387</ele>
        <time>2024-03-13T15:33:09Z</time>
      </trkpt>
      <trkpt lat="44.42989" lon="1.61469">
        <ele>387</ele>
        <time>2024-03-13T15:33:10Z</time>
      </trkpt>
      <trkpt lat="44.42988" lon="1.61468">
        <ele>387</ele>
        <time>2024-03-13T15:33:11Z</time>
      </trkpt>
      <trkpt lat="44.42987" lon="1.61468">
        <ele>388</ele>
        <time>2024-03-13T15:33:12Z</time>
      </trkpt>
      <trkpt lat="44.42986" lon="1.61467">
        <ele>388</ele>
        <time>2024-03-13T15:33:13Z</time>
      </trkpt>
      <trkpt lat="44.42986" lon="1.61467">
        <ele>388</ele>
        <time>2024-03-13T15:33:14Z</time>
      </trkpt>
      <trkpt lat="44.42986" lon="1.61467">
        <ele>388</ele>
        <time>2024-03-13T15:33:15Z</time>
      </trkpt>
      <trkpt lat="44.42984" lon="1.61466">
        <ele>388</ele>
        <time>2024-03-13T15:33:16Z</time>
      </trkpt>
      <trkpt lat="44.42982" lon="1.61465">
        <ele>388</ele>
        <time>2024-03-13T15:33:17Z</time>
      </trkpt>
      <trkpt lat="44.42981" lon="1.61465">
        <ele>387</ele>
        <time>2024-03-13T15:33:18Z</time>
      </trkpt>
      <trkpt lat="44.4298" lon="1.61465">
        <ele>387</ele>
        <time>2024-03-13T15:33:19Z</time>
      </trkpt>
      <trkpt lat="44.4298" lon="1.61465">
        <ele>387</ele>
        <time>2024-03-13T15:33:20Z</time>
      </trkpt>
      <trkpt lat="44.4298" lon="1.61465">
        <ele>387</ele>
        <time>2024-03-13T15:33:21Z</time>
      </trkpt>
      <trkpt lat="44.4298" lon="1.61465">
        <ele>387</ele>
        <time>2024-03-13T15:33:22Z</time>
      </trkpt>
      <trkpt lat="44.4298" lon="1.61465">
        <ele>387</ele>
        <time>2024-03-13T15:33:23Z</time>
      </trkpt>
      <trkpt lat="44.4298" lon="1.61465">
        <ele>387</ele>
        <time>2024-03-13T15:33:24Z</time>
      </trkpt>
      <trkpt lat="44.42979" lon="1.61466">
        <ele>387</ele>
        <time>2024-03-13T15:33:25Z</time>
      </trkpt>
      <trkpt lat="44.42978" lon="1.61467">
        <ele>387</ele>
        <time>2024-03-13T15:33:26Z</time>
      </trkpt>
      <trkpt lat="44.42978" lon="1.61467">
        <ele>387</ele>
        <time>2024-03-13T15:33:27Z</time>
      </trkpt>
      <trkpt lat="44.42977" lon="1.61468">
        <ele>386</ele>
        <time>2024-03-13T15:33:28Z</time>
      </trkpt>
      <trkpt lat="44.42977" lon="1.61468">
        <ele>386</ele>
        <time>2024-03-13T15:33:29Z</time>
      </trkpt>
      <trkpt lat="44.42977" lon="1.61468">
        <ele>386</ele>
        <time>2024-03-13T15:33:30Z</time>
      </trkpt>
      <trkpt lat="44.42977" lon="1.61468">
        <ele>386</ele>
        <time>2024-03-13T15:33:31Z</time>
      </trkpt>
      <trkpt lat="44.42977" lon="1.61468">
        <ele>386</ele>
        <time>2024-03-13T15:33:32Z</time>
      </trkpt>
      <trkpt lat="44.42977" lon="1.61468">
        <ele>386</ele>
        <time>2024-03-13T15:33:33Z</time>
      </trkpt>
      <trkpt lat="44.42977" lon="1.61468">
        <ele>386</ele>
        <time>2024-03-13T15:33:34Z</time>
      </trkpt>
      <trkpt lat="44.42977" lon="1.61468">
        <ele>386</ele>
        <time>2024-03-13T15:33:35Z</time>
      </trkpt>
      <trkpt lat="44.42977" lon="1.61468">
        <ele>386</ele>
        <time>2024-03-13T15:33:36Z</time>
      </trkpt>
      <trkpt lat="44.42976" lon="1.61468">
        <ele>386</ele>
        <time>2024-03-13T15:33:37Z</time>
      </trkpt>
      <trkpt lat="44.42975" lon="1.61467">
        <ele>386</ele>
        <time>2024-03-13T15:33:38Z</time>
      </trkpt>
      <trkpt lat="44.42974" lon="1.61466">
        <ele>386</ele>
        <time>2024-03-13T15:33:39Z</time>
      </trkpt>
      <trkpt lat="44.42974" lon="1.61466">
        <ele>386</ele>
        <time>2024-03-13T15:33:40Z</time>
      </trkpt>
      <trkpt lat="44.42973" lon="1.61465">
        <ele>386</ele>
        <time>2024-03-13T15:33:41Z</time>
      </trkpt>
      <trkpt lat="44.42973" lon="1.61465">
        <ele>387</ele>
        <time>2024-03-13T15:33:42Z</time>
      </trkpt>
      <trkpt lat="44.42973" lon="1.61465">
        <ele>387</ele>
        <time>2024-03-13T15:33:43Z</time>
      </trkpt>
      <trkpt lat="44.42972" lon="1.61465">
        <ele>388</ele>
        <time>2024-03-13T15:33:44Z</time>
      </trkpt>
      <trkpt lat="44.42972" lon="1.61465">
        <ele>388</ele>
        <time>2024-03-13T15:33:45Z</time>
      </trkpt>
      <trkpt lat="44.42971" lon="1.61464">
        <ele>387</ele>
        <time>2024-03-13T15:33:46Z</time>
      </trkpt>
      <trkpt lat="44.4297" lon="1.61463">
        <ele>387</ele>
        <time>2024-03-13T15:33:47Z</time>
      </trkpt>
      <trkpt lat="44.4297" lon="1.61462">
        <ele>388</ele>
        <time>2024-03-13T15:33:48Z</time>
      </trkpt>
      <trkpt lat="44.42969" lon="1.61461">
        <ele>388</ele>
        <time>2024-03-13T15:33:49Z</time>
      </trkpt>
      <trkpt lat="44.42968" lon="1.6146">
        <ele>388</ele>
        <time>2024-03-13T15:33:50Z</time>
      </trkpt>
      <trkpt lat="44.42967" lon="1.61459">
        <ele>388</ele>
        <time>2024-03-13T15:33:51Z</time>
      </trkpt>
      <trkpt lat="44.42966" lon="1.61458">
        <ele>388</ele>
        <time>2024-03-13T15:33:52Z</time>
      </trkpt>
      <trkpt lat="44.42965" lon="1.61457">
        <ele>388</ele>
        <time>2024-03-13T15:33:53Z</time>
      </trkpt>
      <trkpt lat="44.42964" lon="1.61457">
        <ele>388</ele>
        <time>2024-03-13T15:33:54Z</time>
      </trkpt>
      <trkpt lat="44.42963" lon="1.61456">
        <ele>388</ele>
        <time>2024-03-13T15:33:55Z</time>
      </trkpt>
      <trkpt lat="44.42963" lon="1.61456">
        <ele>388</ele>
        <time>2024-03-13T15:33:56Z</time>
      </trkpt>
      <trkpt lat="44.42962" lon="1.61456">
        <ele>388</ele>
        <time>2024-03-13T15:33:57Z</time>
      </trkpt>
      <trkpt lat="44.42962" lon="1.61456">
        <ele>388</ele>
        <time>2024-03-13T15:33:58Z</time>
      </trkpt>
      <trkpt lat="44.42961" lon="1.61456">
        <ele>388</ele>
        <time>2024-03-13T15:33:59Z</time>
      </trkpt>
      <trkpt lat="44.4296" lon="1.61456">
        <ele>388</ele>
        <time>2024-03-13T15:34:00Z</time>
      </trkpt>
      <trkpt lat="44.4296" lon="1.61456">
        <ele>388</ele>
        <time>2024-03-13T15:34:01Z</time>
      </trkpt>
      <trkpt lat="44.4296" lon="1.61456">
        <ele>388</ele>
        <time>2024-03-13T15:34:02Z</time>
      </trkpt>
      <trkpt lat="44.4296" lon="1.61456">
        <ele>388</ele>
        <time>2024-03-13T15:34:03Z</time>
      </trkpt>
      <trkpt lat="44.42958" lon="1.61454">
        <ele>388</ele>
        <time>2024-03-13T15:34:04Z</time>
      </trkpt>
      <trkpt lat="44.42957" lon="1.61454">
        <ele>389</ele>
        <time>2024-03-13T15:34:05Z</time>
      </trkpt>
      <trkpt lat="44.42956" lon="1.61453">
        <ele>389</ele>
        <time>2024-03-13T15:34:06Z</time>
      </trkpt>
      <trkpt lat="44.42955" lon="1.61453">
        <ele>389</ele>
        <time>2024-03-13T15:34:07Z</time>
      </trkpt>
      <trkpt lat="44.42954" lon="1.61452">
        <ele>389</ele>
        <time>2024-03-13T15:34:08Z</time>
      </trkpt>
      <trkpt lat="44.42953" lon="1.61451">
        <ele>388</ele>
        <time>2024-03-13T15:34:09Z</time>
      </trkpt>
      <trkpt lat="44.42952" lon="1.61451">
        <ele>388</ele>
        <time>2024-03-13T15:34:10Z</time>
      </trkpt>
      <trkpt lat="44.42951" lon="1.61451">
        <ele>388</ele>
        <time>2024-03-13T15:34:11Z</time>
      </trkpt>
      <trkpt lat="44.4295" lon="1.6145">
        <ele>388</ele>
        <time>2024-03-13T15:34:12Z</time>
      </trkpt>
      <trkpt lat="44.42949" lon="1.6145">
        <ele>388</ele>
        <time>2024-03-13T15:34:13Z</time>
      </trkpt>
      <trkpt lat="44.42947" lon="1.6145">
        <ele>388</ele>
        <time>2024-03-13T15:34:14Z</time>
      </trkpt>
      <trkpt lat="44.42946" lon="1.61449">
        <ele>388</ele>
        <time>2024-03-13T15:34:15Z</time>
      </trkpt>
      <trkpt lat="44.42945" lon="1.61448">
        <ele>389</ele>
        <time>2024-03-13T15:34:16Z</time>
      </trkpt>
      <trkpt lat="44.42945" lon="1.61448">
        <ele>389</ele>
        <time>2024-03-13T15:34:17Z</time>
      </trkpt>
      <trkpt lat="44.42944" lon="1.61447">
        <ele>389</ele>
        <time>2024-03-13T15:34:18Z</time>
      </trkpt>
      <trkpt lat="44.42942" lon="1.61447">
        <ele>389</ele>
        <time>2024-03-13T15:34:19Z</time>
      </trkpt>
      <trkpt lat="44.42941" lon="1.61447">
        <ele>389</ele>
        <time>2024-03-13T15:34:20Z</time>
      </trkpt>
      <trkpt lat="44.42941" lon="1.61446">
        <ele>389</ele>
        <time>2024-03-13T15:34:21Z</time>
      </trkpt>
      <trkpt lat="44.42939" lon="1.61446">
        <ele>389</ele>
        <time>2024-03-13T15:34:22Z</time>
      </trkpt>
      <trkpt lat="44.42938" lon="1.61446">
        <ele>389</ele>
        <time>2024-03-13T15:34:23Z</time>
      </trkpt>
      <trkpt lat="44.42937" lon="1.61446">
        <ele>389</ele>
        <time>2024-03-13T15:34:24Z</time>
      </trkpt>
      <trkpt lat="44.42936" lon="1.61446">
        <ele>389</ele>
        <time>2024-03-13T15:34:25Z</time>
      </trkpt>
      <trkpt lat="44.42934" lon="1.61445">
        <ele>388</ele>
        <time>2024-03-13T15:34:26Z</time>
      </trkpt>
      <trkpt lat="44.42933" lon="1.61444">
        <ele>388</ele>
        <time>2024-03-13T15:34:27Z</time>
      </trkpt>
      <trkpt lat="44.42933" lon="1.61444">
        <ele>388</ele>
        <time>2024-03-13T15:34:28Z</time>
      </trkpt>
      <trkpt lat="44.42932" lon="1.61444">
        <ele>388</ele>
        <time>2024-03-13T15:34:29Z</time>
      </trkpt>
      <trkpt lat="44.42931" lon="1.61444">
        <ele>388</ele>
        <time>2024-03-13T15:34:30Z</time>
      </trkpt>
      <trkpt lat="44.4293" lon="1.61443">
        <ele>388</ele>
        <time>2024-03-13T15:34:31Z</time>
      </trkpt>
      <trkpt lat="44.42928" lon="1.61443">
        <ele>388</ele>
        <time>2024-03-13T15:34:32Z</time>
      </trkpt>
      <trkpt lat="44.42928" lon="1.61443">
        <ele>388</ele>
        <time>2024-03-13T15:34:33Z</time>
      </trkpt>
      <trkpt lat="44.42926" lon="1.61443">
        <ele>388</ele>
        <time>2024-03-13T15:34:34Z</time>
      </trkpt>
      <trkpt lat="44.42925" lon="1.61442">
        <ele>388</ele>
        <time>2024-03-13T15:34:35Z</time>
      </trkpt>
      <trkpt lat="44.42924" lon="1.61442">
        <ele>388</ele>
        <time>2024-03-13T15:34:36Z</time>
      </trkpt>
      <trkpt lat="44.42923" lon="1.61442">
        <ele>388</ele>
        <time>2024-03-13T15:34:37Z</time>
      </trkpt>
      <trkpt lat="44.42921" lon="1.61441">
        <ele>388</ele>
        <time>2024-03-13T15:34:38Z</time>
      </trkpt>
      <trkpt lat="44.4292" lon="1.61441">
        <ele>388</ele>
        <time>2024-03-13T15:34:39Z</time>
      </trkpt>
      <trkpt lat="44.42919" lon="1.61441">
        <ele>388</ele>
        <time>2024-03-13T15:34:40Z</time>
      </trkpt>
      <trkpt lat="44.42917" lon="1.6144">
        <ele>388</ele>
        <time>2024-03-13T15:34:41Z</time>
      </trkpt>
      <trkpt lat="44.42916" lon="1.6144">
        <ele>388</ele>
        <time>2024-03-13T15:34:42Z</time>
      </trkpt>
      <trkpt lat="44.42915" lon="1.6144">
        <ele>388</ele>
        <time>2024-03-13T15:34:43Z</time>
      </trkpt>
      <trkpt lat="44.42914" lon="1.6144">
        <ele>388</ele>
        <time>2024-03-13T15:34:44Z</time>
      </trkpt>
      <trkpt lat="44.42913" lon="1.6144">
        <ele>388</ele>
        <time>2024-03-13T15:34:45Z</time>
      </trkpt>
      <trkpt lat="44.42912" lon="1.6144">
        <ele>388</ele>
        <time>2024-03-13T15:34:46Z</time>
      </trkpt>
      <trkpt lat="44.42911" lon="1.61439">
        <ele>388</ele>
        <time>2024-03-13T15:34:47Z</time>
      </trkpt>
      <trkpt lat="44.4291" lon="1.61439">
        <ele>388</ele>
        <time>2024-03-13T15:34:48Z</time>
      </trkpt>
      <trkpt lat="44.42908" lon="1.61439">
        <ele>388</ele>
        <time>2024-03-13T15:34:49Z</time>
      </trkpt>
      <trkpt lat="44.42907" lon="1.61439">
        <ele>388</ele>
        <time>2024-03-13T15:34:50Z</time>
      </trkpt>
      <trkpt lat="44.42905" lon="1.61439">
        <ele>388</ele>
        <time>2024-03-13T15:34:51Z</time>
      </trkpt>
      <trkpt lat="44.42904" lon="1.61439">
        <ele>388</ele>
        <time>2024-03-13T15:34:52Z</time>
      </trkpt>
      <trkpt lat="44.42903" lon="1.61439">
        <ele>388</ele>
        <time>2024-03-13T15:34:53Z</time>
      </trkpt>
      <trkpt lat="44.42902" lon="1.61439">
        <ele>388</ele>
        <time>2024-03-13T15:34:54Z</time>
      </trkpt>
      <trkpt lat="44.42901" lon="1.61439">
        <ele>388</ele>
        <time>2024-03-13T15:34:55Z</time>
      </trkpt>
      <trkpt lat="44.429" lon="1.61439">
        <ele>388</ele>
        <time>2024-03-13T15:34:56Z</time>
      </trkpt>
      <trkpt lat="44.42899" lon="1.61438">
        <ele>388</ele>
        <time>2024-03-13T15:34:57Z</time>
      </trkpt>
      <trkpt lat="44.42898" lon="1.61438">
        <ele>388</ele>
        <time>2024-03-13T15:34:58Z</time>
      </trkpt>
      <trkpt lat="44.42897" lon="1.61438">
        <ele>388</ele>
        <time>2024-03-13T15:34:59Z</time>
      </trkpt>
      <trkpt lat="44.42896" lon="1.61439">
        <ele>388</ele>
        <time>2024-03-13T15:35:00Z</time>
      </trkpt>
      <trkpt lat="44.42895" lon="1.61439">
        <ele>388</ele>
        <time>2024-03-13T15:35:01Z</time>
      </trkpt>
      <trkpt lat="44.42894" lon="1.61439">
        <ele>388</ele>
        <time>2024-03-13T15:35:02Z</time>
      </trkpt>
      <trkpt lat="44.42894" lon="1.61439">
        <ele>388</ele>
        <time>2024-03-13T15:35:03Z</time>
      </trkpt>
      <trkpt lat="44.42894" lon="1.61439">
        <ele>388</ele>
        <time>2024-03-13T15:35:04Z</time>
      </trkpt>
      <trkpt lat="44.42892" lon="1.61438">
        <ele>388</ele>
        <time>2024-03-13T15:35:05Z</time>
      </trkpt>
      <trkpt lat="44.42891" lon="1.61438">
        <ele>388</ele>
        <time>2024-03-13T15:35:06Z</time>
      </trkpt>
      <trkpt lat="44.4289" lon="1.61439">
        <ele>388</ele>
        <time>2024-03-13T15:35:07Z</time>
      </trkpt>
      <trkpt lat="44.42889" lon="1.61439">
        <ele>388</ele>
        <time>2024-03-13T15:35:08Z</time>
      </trkpt>
      <trkpt lat="44.42889" lon="1.61439">
        <ele>388</ele>
        <time>2024-03-13T15:35:09Z</time>
      </trkpt>
      <trkpt lat="44.42889" lon="1.61439">
        <ele>388</ele>
        <time>2024-03-13T15:35:10Z</time>
      </trkpt>
      <trkpt lat="44.42887" lon="1.6144">
        <ele>388</ele>
        <time>2024-03-13T15:35:11Z</time>
      </trkpt>
      <trkpt lat="44.42886" lon="1.6144">
        <ele>388</ele>
        <time>2024-03-13T15:35:12Z</time>
      </trkpt>
      <trkpt lat="44.42885" lon="1.6144">
        <ele>388</ele>
        <time>2024-03-13T15:35:13Z</time>
      </trkpt>
      <trkpt lat="44.42884" lon="1.6144">
        <ele>388</ele>
        <time>2024-03-13T15:35:14Z</time>
      </trkpt>
      <trkpt lat="44.42884" lon="1.6144">
        <ele>388</ele>
        <time>2024-03-13T15:35:15Z</time>
      </trkpt>
      <trkpt lat="44.42884" lon="1.6144">
        <ele>388</ele>
        <time>2024-03-13T15:35:16Z</time>
      </trkpt>
      <trkpt lat="44.42882" lon="1.6144">
        <ele>388</ele>
        <time>2024-03-13T15:35:17Z</time>
      </trkpt>
      <trkpt lat="44.42881" lon="1.61441">
        <ele>387</ele>
        <time>2024-03-13T15:35:18Z</time>
      </trkpt>
      <trkpt lat="44.42879" lon="1.61441">
        <ele>387</ele>
        <time>2024-03-13T15:35:19Z</time>
      </trkpt>
      <trkpt lat="44.42878" lon="1.61441">
        <ele>387</ele>
        <time>2024-03-13T15:35:20Z</time>
      </trkpt>
      <trkpt lat="44.42878" lon="1.61441">
        <ele>387</ele>
        <time>2024-03-13T15:35:21Z</time>
      </trkpt>
      <trkpt lat="44.42878" lon="1.61441">
        <ele>387</ele>
        <time>2024-03-13T15:35:22Z</time>
      </trkpt>
      <trkpt lat="44.42876" lon="1.61442">
        <ele>388</ele>
        <time>2024-03-13T15:35:23Z</time>
      </trkpt>
      <trkpt lat="44.42875" lon="1.61442">
        <ele>388</ele>
        <time>2024-03-13T15:35:24Z</time>
      </trkpt>
      <trkpt lat="44.42874" lon="1.61442">
        <ele>388</ele>
        <time>2024-03-13T15:35:25Z</time>
      </trkpt>
      <trkpt lat="44.42872" lon="1.61442">
        <ele>387</ele>
        <time>2024-03-13T15:35:26Z</time>
      </trkpt>
      <trkpt lat="44.42871" lon="1.61443">
        <ele>387</ele>
        <time>2024-03-13T15:35:27Z</time>
      </trkpt>
      <trkpt lat="44.42869" lon="1.61443">
        <ele>387</ele>
        <time>2024-03-13T15:35:28Z</time>
      </trkpt>
      <trkpt lat="44.42868" lon="1.61443">
        <ele>387</ele>
        <time>2024-03-13T15:35:29Z</time>
      </trkpt>
      <trkpt lat="44.42867" lon="1.61443">
        <ele>387</ele>
        <time>2024-03-13T15:35:30Z</time>
      </trkpt>
      <trkpt lat="44.42865" lon="1.61443">
        <ele>387</ele>
        <time>2024-03-13T15:35:31Z</time>
      </trkpt>
      <trkpt lat="44.42863" lon="1.61443">
        <ele>387</ele>
        <time>2024-03-13T15:35:32Z</time>
      </trkpt>
      <trkpt lat="44.42862" lon="1.61444">
        <ele>387</ele>
        <time>2024-03-13T15:35:33Z</time>
      </trkpt>
      <trkpt lat="44.42861" lon="1.61444">
        <ele>386</ele>
        <time>2024-03-13T15:35:35Z</time>
      </trkpt>
      <trkpt lat="44.4286" lon="1.61445">
        <ele>386</ele>
        <time>2024-03-13T15:35:36Z</time>
      </trkpt>
      <trkpt lat="44.42858" lon="1.61445">
        <ele>386</ele>
        <time>2024-03-13T15:35:37Z</time>
      </trkpt>
      <trkpt lat="44.42857" lon="1.61445">
        <ele>386</ele>
        <time>2024-03-13T15:35:38Z</time>
      </trkpt>
      <trkpt lat="44.42855" lon="1.61445">
        <ele>386</ele>
        <time>2024-03-13T15:35:39Z</time>
      </trkpt>
      <trkpt lat="44.42854" lon="1.61445">
        <ele>386</ele>
        <time>2024-03-13T15:35:40Z</time>
      </trkpt>
      <trkpt lat="44.42853" lon="1.61446">
        <ele>386</ele>
        <time>2024-03-13T15:35:41Z</time>
      </trkpt>
      <trkpt lat="44.42852" lon="1.61446">
        <ele>385</ele>
        <time>2024-03-13T15:35:42Z</time>
      </trkpt>
      <trkpt lat="44.4285" lon="1.61447">
        <ele>385</ele>
        <time>2024-03-13T15:35:43Z</time>
      </trkpt>
      <trkpt lat="44.42849" lon="1.61447">
        <ele>385</ele>
        <time>2024-03-13T15:35:44Z</time>
      </trkpt>
      <trkpt lat="44.42848" lon="1.61447">
        <ele>385</ele>
        <time>2024-03-13T15:35:45Z</time>
      </trkpt>
      <trkpt lat="44.42847" lon="1.61447">
        <ele>385</ele>
        <time>2024-03-13T15:35:46Z</time>
      </trkpt>
      <trkpt lat="44.42846" lon="1.61447">
        <ele>385</ele>
        <time>2024-03-13T15:35:47Z</time>
      </trkpt>
      <trkpt lat="44.42845" lon="1.61447">
        <ele>385</ele>
        <time>2024-03-13T15:35:48Z</time>
      </trkpt>
      <trkpt lat="44.42844" lon="1.61447">
        <ele>385</ele>
        <time>2024-03-13T15:35:49Z</time>
      </trkpt>
      <trkpt lat="44.42842" lon="1.61447">
        <ele>385</ele>
        <time>2024-03-13T15:35:50Z</time>
      </trkpt>
      <trkpt lat="44.42841" lon="1.61447">
        <ele>385</ele>
        <time>2024-03-13T15:35:51Z</time>
      </trkpt>
      <trkpt lat="44.42841" lon="1.61447">
        <ele>385</ele>
        <time>2024-03-13T15:35:52Z</time>
      </trkpt>
      <trkpt lat="44.42839" lon="1.61447">
        <ele>385</ele>
        <time>2024-03-13T15:35:53Z</time>
      </trkpt>
      <trkpt lat="44.42838" lon="1.61448">
        <ele>385</ele>
        <time>2024-03-13T15:35:54Z</time>
      </trkpt>
      <trkpt lat="44.42836" lon="1.61448">
        <ele>385</ele>
        <time>2024-03-13T15:35:55Z</time>
      </trkpt>
      <trkpt lat="44.42835" lon="1.61448">
        <ele>385</ele>
        <time>2024-03-13T15:35:56Z</time>
      </trkpt>
      <trkpt lat="44.42834" lon="1.61447">
        <ele>385</ele>
        <time>2024-03-13T15:35:57Z</time>
      </trkpt>
      <trkpt lat="44.42833" lon="1.61447">
        <ele>384</ele>
        <time>2024-03-13T15:35:58Z</time>
      </trkpt>
      <trkpt lat="44.42832" lon="1.61447">
        <ele>384</ele>
        <time>2024-03-13T15:35:59Z</time>
      </trkpt>
      <trkpt lat="44.42831" lon="1.61447">
        <ele>384</ele>
        <time>2024-03-13T15:36:00Z</time>
      </trkpt>
      <trkpt lat="44.4283" lon="1.61447">
        <ele>384</ele>
        <time>2024-03-13T15:36:01Z</time>
      </trkpt>
      <trkpt lat="44.42829" lon="1.61447">
        <ele>384</ele>
        <time>2024-03-13T15:36:02Z</time>
      </trkpt>
      <trkpt lat="44.42828" lon="1.61447">
        <ele>384</ele>
        <time>2024-03-13T15:36:03Z</time>
      </trkpt>
      <trkpt lat="44.42826" lon="1.61447">
        <ele>384</ele>
        <time>2024-03-13T15:36:04Z</time>
      </trkpt>
      <trkpt lat="44.42825" lon="1.61447">
        <ele>384</ele>
        <time>2024-03-13T15:36:05Z</time>
      </trkpt>
      <trkpt lat="44.42825" lon="1.61447">
        <ele>384</ele>
        <time>2024-03-13T15:36:06Z</time>
      </trkpt>
      <trkpt lat="44.42823" lon="1.61448">
        <ele>383</ele>
        <time>2024-03-13T15:36:07Z</time>
      </trkpt>
      <trkpt lat="44.42822" lon="1.61448">
        <ele>383</ele>
        <time>2024-03-13T15:36:08Z</time>
      </trkpt>
      <trkpt lat="44.42821" lon="1.61449">
        <ele>384</ele>
        <time>2024-03-13T15:36:09Z</time>
      </trkpt>
      <trkpt lat="44.42819" lon="1.61449">
        <ele>384</ele>
        <time>2024-03-13T15:36:10Z</time>
      </trkpt>
      <trkpt lat="44.42818" lon="1.61448">
        <ele>383</ele>
        <time>2024-03-13T15:36:11Z</time>
      </trkpt>
      <trkpt lat="44.42817" lon="1.61448">
        <ele>384</ele>
        <time>2024-03-13T15:36:12Z</time>
      </trkpt>
      <trkpt lat="44.42815" lon="1.61449">
        <ele>384</ele>
        <time>2024-03-13T15:36:13Z</time>
      </trkpt>
      <trkpt lat="44.42814" lon="1.61449">
        <ele>384</ele>
        <time>2024-03-13T15:36:14Z</time>
      </trkpt>
      <trkpt lat="44.42813" lon="1.6145">
        <ele>384</ele>
        <time>2024-03-13T15:36:15Z</time>
      </trkpt>
      <trkpt lat="44.42813" lon="1.6145">
        <ele>384</ele>
        <time>2024-03-13T15:36:16Z</time>
      </trkpt>
      <trkpt lat="44.42813" lon="1.6145">
        <ele>384</ele>
        <time>2024-03-13T15:36:17Z</time>
      </trkpt>
      <trkpt lat="44.42813" lon="1.6145">
        <ele>384</ele>
        <time>2024-03-13T15:36:18Z</time>
      </trkpt>
      <trkpt lat="44.4281" lon="1.61452">
        <ele>383</ele>
        <time>2024-03-13T15:36:19Z</time>
      </trkpt>
      <trkpt lat="44.42809" lon="1.61453">
        <ele>383</ele>
        <time>2024-03-13T15:36:20Z</time>
      </trkpt>
      <trkpt lat="44.42807" lon="1.61453">
        <ele>383</ele>
        <time>2024-03-13T15:36:21Z</time>
      </trkpt>
      <trkpt lat="44.42806" lon="1.61453">
        <ele>383</ele>
        <time>2024-03-13T15:36:22Z</time>
      </trkpt>
      <trkpt lat="44.42805" lon="1.61454">
        <ele>383</ele>
        <time>2024-03-13T15:36:23Z</time>
      </trkpt>
      <trkpt lat="44.42804" lon="1.61454">
        <ele>384</ele>
        <time>2024-03-13T15:36:24Z</time>
      </trkpt>
      <trkpt lat="44.42804" lon="1.61454">
        <ele>384</ele>
        <time>2024-03-13T15:36:25Z</time>
      </trkpt>
      <trkpt lat="44.42804" lon="1.61454">
        <ele>384</ele>
        <time>2024-03-13T15:36:26Z</time>
      </trkpt>
      <trkpt lat="44.42801" lon="1.61455">
        <ele>383</ele>
        <time>2024-03-13T15:36:27Z</time>
      </trkpt>
      <trkpt lat="44.428" lon="1.61455">
        <ele>383</ele>
        <time>2024-03-13T15:36:28Z</time>
      </trkpt>
      <trkpt lat="44.42799" lon="1.61456">
        <ele>383</ele>
        <time>2024-03-13T15:36:29Z</time>
      </trkpt>
      <trkpt lat="44.42798" lon="1.61456">
        <ele>383</ele>
        <time>2024-03-13T15:36:30Z</time>
      </trkpt>
      <trkpt lat="44.42796" lon="1.61457">
        <ele>383</ele>
        <time>2024-03-13T15:36:31Z</time>
      </trkpt>
      <trkpt lat="44.42794" lon="1.61457">
        <ele>382</ele>
        <time>2024-03-13T15:36:32Z</time>
      </trkpt>
      <trkpt lat="44.42794" lon="1.61457">
        <ele>382</ele>
        <time>2024-03-13T15:36:33Z</time>
      </trkpt>
      <trkpt lat="44.42792" lon="1.61458">
        <ele>382</ele>
        <time>2024-03-13T15:36:34Z</time>
      </trkpt>
      <trkpt lat="44.42791" lon="1.61459">
        <ele>381</ele>
        <time>2024-03-13T15:36:35Z</time>
      </trkpt>
      <trkpt lat="44.42791" lon="1.61459">
        <ele>381</ele>
        <time>2024-03-13T15:36:36Z</time>
      </trkpt>
      <trkpt lat="44.42791" lon="1.61459">
        <ele>381</ele>
        <time>2024-03-13T15:36:37Z</time>
      </trkpt>
      <trkpt lat="44.42789" lon="1.6146">
        <ele>381</ele>
        <time>2024-03-13T15:36:38Z</time>
      </trkpt>
      <trkpt lat="44.42788" lon="1.6146">
        <ele>381</ele>
        <time>2024-03-13T15:36:39Z</time>
      </trkpt>
      <trkpt lat="44.42787" lon="1.61461">
        <ele>381</ele>
        <time>2024-03-13T15:36:40Z</time>
      </trkpt>
      <trkpt lat="44.42786" lon="1.61461">
        <ele>380</ele>
        <time>2024-03-13T15:36:41Z</time>
      </trkpt>
      <trkpt lat="44.42785" lon="1.61462">
        <ele>381</ele>
        <time>2024-03-13T15:36:42Z</time>
      </trkpt>
      <trkpt lat="44.42784" lon="1.61463">
        <ele>381</ele>
        <time>2024-03-13T15:36:43Z</time>
      </trkpt>
      <trkpt lat="44.42783" lon="1.61463">
        <ele>380</ele>
        <time>2024-03-13T15:36:44Z</time>
      </trkpt>
      <trkpt lat="44.42782" lon="1.61464">
        <ele>381</ele>
        <time>2024-03-13T15:36:45Z</time>
      </trkpt>
      <trkpt lat="44.42781" lon="1.61464">
        <ele>381</ele>
        <time>2024-03-13T15:36:46Z</time>
      </trkpt>
      <trkpt lat="44.42781" lon="1.61464">
        <ele>381</ele>
        <time>2024-03-13T15:36:47Z</time>
      </trkpt>
      <trkpt lat="44.42781" lon="1.61464">
        <ele>381</ele>
        <time>2024-03-13T15:36:48Z</time>
      </trkpt>
      <trkpt lat="44.42778" lon="1.61465">
        <ele>381</ele>
        <time>2024-03-13T15:36:49Z</time>
      </trkpt>
      <trkpt lat="44.42776" lon="1.61465">
        <ele>381</ele>
        <time>2024-03-13T15:36:50Z</time>
      </trkpt>
      <trkpt lat="44.42775" lon="1.61466">
        <ele>381</ele>
        <time>2024-03-13T15:36:51Z</time>
      </trkpt>
      <trkpt lat="44.42773" lon="1.61466">
        <ele>381</ele>
        <time>2024-03-13T15:36:52Z</time>
      </trkpt>
      <trkpt lat="44.42772" lon="1.61467">
        <ele>381</ele>
        <time>2024-03-13T15:36:53Z</time>
      </trkpt>
      <trkpt lat="44.42771" lon="1.61468">
        <ele>381</ele>
        <time>2024-03-13T15:36:54Z</time>
      </trkpt>
      <trkpt lat="44.4277" lon="1.61469">
        <ele>381</ele>
        <time>2024-03-13T15:36:55Z</time>
      </trkpt>
      <trkpt lat="44.42768" lon="1.6147">
        <ele>380</ele>
        <time>2024-03-13T15:36:56Z</time>
      </trkpt>
      <trkpt lat="44.42767" lon="1.6147">
        <ele>380</ele>
        <time>2024-03-13T15:36:57Z</time>
      </trkpt>
      <trkpt lat="44.42765" lon="1.6147">
        <ele>380</ele>
        <time>2024-03-13T15:36:58Z</time>
      </trkpt>
      <trkpt lat="44.42764" lon="1.61471">
        <ele>380</ele>
        <time>2024-03-13T15:36:59Z</time>
      </trkpt>
      <trkpt lat="44.42762" lon="1.61471">
        <ele>379</ele>
        <time>2024-03-13T15:37:00Z</time>
      </trkpt>
      <trkpt lat="44.42761" lon="1.61472">
        <ele>379</ele>
        <time>2024-03-13T15:37:01Z</time>
      </trkpt>
      <trkpt lat="44.4276" lon="1.61473">
        <ele>379</ele>
        <time>2024-03-13T15:37:02Z</time>
      </trkpt>
      <trkpt lat="44.42759" lon="1.61473">
        <ele>379</ele>
        <time>2024-03-13T15:37:03Z</time>
      </trkpt>
      <trkpt lat="44.42757" lon="1.61474">
        <ele>379</ele>
        <time>2024-03-13T15:37:04Z</time>
      </trkpt>
      <trkpt lat="44.42756" lon="1.61475">
        <ele>379</ele>
        <time>2024-03-13T15:37:05Z</time>
      </trkpt>
      <trkpt lat="44.42756" lon="1.61475">
        <ele>379</ele>
        <time>2024-03-13T15:37:06Z</time>
      </trkpt>
      <trkpt lat="44.42755" lon="1.61475">
        <ele>378</ele>
        <time>2024-03-13T15:37:07Z</time>
      </trkpt>
      <trkpt lat="44.42754" lon="1.61475">
        <ele>378</ele>
        <time>2024-03-13T15:37:08Z</time>
      </trkpt>
      <trkpt lat="44.42752" lon="1.61476">
        <ele>379</ele>
        <time>2024-03-13T15:37:09Z</time>
      </trkpt>
      <trkpt lat="44.42751" lon="1.61476">
        <ele>379</ele>
        <time>2024-03-13T15:37:10Z</time>
      </trkpt>
      <trkpt lat="44.4275" lon="1.61477">
        <ele>379</ele>
        <time>2024-03-13T15:37:11Z</time>
      </trkpt>
      <trkpt lat="44.42749" lon="1.61477">
        <ele>378</ele>
        <time>2024-03-13T15:37:12Z</time>
      </trkpt>
      <trkpt lat="44.42748" lon="1.61477">
        <ele>378</ele>
        <time>2024-03-13T15:37:13Z</time>
      </trkpt>
      <trkpt lat="44.42747" lon="1.61478">
        <ele>378</ele>
        <time>2024-03-13T15:37:14Z</time>
      </trkpt>
      <trkpt lat="44.42746" lon="1.61479">
        <ele>378</ele>
        <time>2024-03-13T15:37:15Z</time>
      </trkpt>
      <trkpt lat="44.42744" lon="1.6148">
        <ele>378</ele>
        <time>2024-03-13T15:37:16Z</time>
      </trkpt>
      <trkpt lat="44.42743" lon="1.6148">
        <ele>378</ele>
        <time>2024-03-13T15:37:17Z</time>
      </trkpt>
      <trkpt lat="44.42743" lon="1.6148">
        <ele>378</ele>
        <time>2024-03-13T15:37:18Z</time>
      </trkpt>
      <trkpt lat="44.42741" lon="1.61479">
        <ele>378</ele>
        <time>2024-03-13T15:37:19Z</time>
      </trkpt>
      <trkpt lat="44.42741" lon="1.6148">
        <ele>378</ele>
        <time>2024-03-13T15:37:20Z</time>
      </trkpt>
      <trkpt lat="44.42741" lon="1.6148">
        <ele>378</ele>
        <time>2024-03-13T15:37:21Z</time>
      </trkpt>
      <trkpt lat="44.42741" lon="1.6148">
        <ele>378</ele>
        <time>2024-03-13T15:37:22Z</time>
      </trkpt>
      <trkpt lat="44.42738" lon="1.6148">
        <ele>377</ele>
        <time>2024-03-13T15:37:23Z</time>
      </trkpt>
      <trkpt lat="44.42737" lon="1.61481">
        <ele>377</ele>
        <time>2024-03-13T15:37:24Z</time>
      </trkpt>
      <trkpt lat="44.42736" lon="1.61481">
        <ele>377</ele>
        <time>2024-03-13T15:37:25Z</time>
      </trkpt>
      <trkpt lat="44.42735" lon="1.61481">
        <ele>377</ele>
        <time>2024-03-13T15:37:26Z</time>
      </trkpt>
      <trkpt lat="44.42734" lon="1.61481">
        <ele>377</ele>
        <time>2024-03-13T15:37:27Z</time>
      </trkpt>
      <trkpt lat="44.42732" lon="1.61482">
        <ele>377</ele>
        <time>2024-03-13T15:37:28Z</time>
      </trkpt>
      <trkpt lat="44.42731" lon="1.61482">
        <ele>377</ele>
        <time>2024-03-13T15:37:29Z</time>
      </trkpt>
      <trkpt lat="44.4273" lon="1.61483">
        <ele>377</ele>
        <time>2024-03-13T15:37:30Z</time>
      </trkpt>
      <trkpt lat="44.4273" lon="1.61483">
        <ele>377</ele>
        <time>2024-03-13T15:37:31Z</time>
      </trkpt>
      <trkpt lat="44.42728" lon="1.61484">
        <ele>377</ele>
        <time>2024-03-13T15:37:32Z</time>
      </trkpt>
      <trkpt lat="44.42727" lon="1.61484">
        <ele>377</ele>
        <time>2024-03-13T15:37:33Z</time>
      </trkpt>
      <trkpt lat="44.42725" lon="1.61485">
        <ele>376</ele>
        <time>2024-03-13T15:37:34Z</time>
      </trkpt>
      <trkpt lat="44.42724" lon="1.61485">
        <ele>376</ele>
        <time>2024-03-13T15:37:35Z</time>
      </trkpt>
      <trkpt lat="44.42723" lon="1.61486">
        <ele>376</ele>
        <time>2024-03-13T15:37:36Z</time>
      </trkpt>
      <trkpt lat="44.42722" lon="1.61487">
        <ele>376</ele>
        <time>2024-03-13T15:37:37Z</time>
      </trkpt>
      <trkpt lat="44.42721" lon="1.61488">
        <ele>375</ele>
        <time>2024-03-13T15:37:38Z</time>
      </trkpt>
      <trkpt lat="44.4272" lon="1.61489">
        <ele>375</ele>
        <time>2024-03-13T15:37:39Z</time>
      </trkpt>
      <trkpt lat="44.42719" lon="1.6149">
        <ele>375</ele>
        <time>2024-03-13T15:37:40Z</time>
      </trkpt>
      <trkpt lat="44.42718" lon="1.6149">
        <ele>375</ele>
        <time>2024-03-13T15:37:41Z</time>
      </trkpt>
      <trkpt lat="44.42717" lon="1.61491">
        <ele>375</ele>
        <time>2024-03-13T15:37:42Z</time>
      </trkpt>
      <trkpt lat="44.42717" lon="1.61491">
        <ele>375</ele>
        <time>2024-03-13T15:37:43Z</time>
      </trkpt>
      <trkpt lat="44.42715" lon="1.61492">
        <ele>375</ele>
        <time>2024-03-13T15:37:44Z</time>
      </trkpt>
      <trkpt lat="44.42714" lon="1.61492">
        <ele>375</ele>
        <time>2024-03-13T15:37:45Z</time>
      </trkpt>
      <trkpt lat="44.42712" lon="1.61492">
        <ele>375</ele>
        <time>2024-03-13T15:37:46Z</time>
      </trkpt>
      <trkpt lat="44.4271" lon="1.61492">
        <ele>375</ele>
        <time>2024-03-13T15:37:47Z</time>
      </trkpt>
      <trkpt lat="44.4271" lon="1.61493">
        <ele>376</ele>
        <time>2024-03-13T15:37:48Z</time>
      </trkpt>
      <trkpt lat="44.4271" lon="1.61493">
        <ele>376</ele>
        <time>2024-03-13T15:37:49Z</time>
      </trkpt>
      <trkpt lat="44.4271" lon="1.61493">
        <ele>376</ele>
        <time>2024-03-13T15:37:50Z</time>
      </trkpt>
      <trkpt lat="44.42707" lon="1.61494">
        <ele>375</ele>
        <time>2024-03-13T15:37:51Z</time>
      </trkpt>
      <trkpt lat="44.42707" lon="1.61494">
        <ele>375</ele>
        <time>2024-03-13T15:37:52Z</time>
      </trkpt>
      <trkpt lat="44.42706" lon="1.61494">
        <ele>375</ele>
        <time>2024-03-13T15:37:53Z</time>
      </trkpt>
      <trkpt lat="44.42706" lon="1.61494">
        <ele>375</ele>
        <time>2024-03-13T15:37:54Z</time>
      </trkpt>
      <trkpt lat="44.42706" lon="1.61494">
        <ele>375</ele>
        <time>2024-03-13T15:37:55Z</time>
      </trkpt>
      <trkpt lat="44.42706" lon="1.61494">
        <ele>375</ele>
        <time>2024-03-13T15:37:56Z</time>
      </trkpt>
      <trkpt lat="44.42703" lon="1.61494">
        <ele>375</ele>
        <time>2024-03-13T15:37:57Z</time>
      </trkpt>
      <trkpt lat="44.42702" lon="1.61494">
        <ele>374</ele>
        <time>2024-03-13T15:37:58Z</time>
      </trkpt>
      <trkpt lat="44.42701" lon="1.61494">
        <ele>375</ele>
        <time>2024-03-13T15:37:59Z</time>
      </trkpt>
      <trkpt lat="44.42699" lon="1.61495">
        <ele>374</ele>
        <time>2024-03-13T15:38:00Z</time>
      </trkpt>
      <trkpt lat="44.42699" lon="1.61495">
        <ele>374</ele>
        <time>2024-03-13T15:38:01Z</time>
      </trkpt>
      <trkpt lat="44.42699" lon="1.61495">
        <ele>374</ele>
        <time>2024-03-13T15:38:02Z</time>
      </trkpt>
      <trkpt lat="44.42697" lon="1.61496">
        <ele>373</ele>
        <time>2024-03-13T15:38:03Z</time>
      </trkpt>
      <trkpt lat="44.42696" lon="1.61497">
        <ele>374</ele>
        <time>2024-03-13T15:38:04Z</time>
      </trkpt>
      <trkpt lat="44.42695" lon="1.61497">
        <ele>373</ele>
        <time>2024-03-13T15:38:05Z</time>
      </trkpt>
      <trkpt lat="44.42694" lon="1.61498">
        <ele>373</ele>
        <time>2024-03-13T15:38:06Z</time>
      </trkpt>
      <trkpt lat="44.42693" lon="1.61499">
        <ele>373</ele>
        <time>2024-03-13T15:38:07Z</time>
      </trkpt>
      <trkpt lat="44.42692" lon="1.61499">
        <ele>373</ele>
        <time>2024-03-13T15:38:08Z</time>
      </trkpt>
      <trkpt lat="44.42691" lon="1.61499">
        <ele>373</ele>
        <time>2024-03-13T15:38:09Z</time>
      </trkpt>
      <trkpt lat="44.4269" lon="1.615">
        <ele>374</ele>
        <time>2024-03-13T15:38:10Z</time>
      </trkpt>
      <trkpt lat="44.42689" lon="1.615">
        <ele>374</ele>
        <time>2024-03-13T15:38:11Z</time>
      </trkpt>
      <trkpt lat="44.42688" lon="1.615">
        <ele>374</ele>
        <time>2024-03-13T15:38:12Z</time>
      </trkpt>
      <trkpt lat="44.42686" lon="1.615">
        <ele>373</ele>
        <time>2024-03-13T15:38:13Z</time>
      </trkpt>
      <trkpt lat="44.42685" lon="1.615">
        <ele>374</ele>
        <time>2024-03-13T15:38:14Z</time>
      </trkpt>
      <trkpt lat="44.42684" lon="1.61501">
        <ele>373</ele>
        <time>2024-03-13T15:38:15Z</time>
      </trkpt>
      <trkpt lat="44.42682" lon="1.61501">
        <ele>373</ele>
        <time>2024-03-13T15:38:16Z</time>
      </trkpt>
      <trkpt lat="44.42681" lon="1.61502">
        <ele>373</ele>
        <time>2024-03-13T15:38:17Z</time>
      </trkpt>
      <trkpt lat="44.4268" lon="1.61502">
        <ele>373</ele>
        <time>2024-03-13T15:38:18Z</time>
      </trkpt>
      <trkpt lat="44.42678" lon="1.61502">
        <ele>373</ele>
        <time>2024-03-13T15:38:19Z</time>
      </trkpt>
      <trkpt lat="44.42677" lon="1.61503">
        <ele>373</ele>
        <time>2024-03-13T15:38:20Z</time>
      </trkpt>
      <trkpt lat="44.42677" lon="1.61503">
        <ele>373</ele>
        <time>2024-03-13T15:38:21Z</time>
      </trkpt>
      <trkpt lat="44.42675" lon="1.61503">
        <ele>373</ele>
        <time>2024-03-13T15:38:22Z</time>
      </trkpt>
      <trkpt lat="44.42675" lon="1.61504">
        <ele>373</ele>
        <time>2024-03-13T15:38:23Z</time>
      </trkpt>
      <trkpt lat="44.42673" lon="1.61504">
        <ele>373</ele>
        <time>2024-03-13T15:38:24Z</time>
      </trkpt>
      <trkpt lat="44.42672" lon="1.61505">
        <ele>373</ele>
        <time>2024-03-13T15:38:25Z</time>
      </trkpt>
      <trkpt lat="44.42671" lon="1.61506">
        <ele>373</ele>
        <time>2024-03-13T15:38:26Z</time>
      </trkpt>
      <trkpt lat="44.4267" lon="1.61506">
        <ele>373</ele>
        <time>2024-03-13T15:38:27Z</time>
      </trkpt>
      <trkpt lat="44.42669" lon="1.61506">
        <ele>373</ele>
        <time>2024-03-13T15:38:28Z</time>
      </trkpt>
      <trkpt lat="44.42668" lon="1.61507">
        <ele>373</ele>
        <time>2024-03-13T15:38:29Z</time>
      </trkpt>
      <trkpt lat="44.42667" lon="1.61508">
        <ele>372</ele>
        <time>2024-03-13T15:38:30Z</time>
      </trkpt>
      <trkpt lat="44.42665" lon="1.61508">
        <ele>372</ele>
        <time>2024-03-13T15:38:31Z</time>
      </trkpt>
      <trkpt lat="44.42664" lon="1.61509">
        <ele>372</ele>
        <time>2024-03-13T15:38:32Z</time>
      </trkpt>
      <trkpt lat="44.42663" lon="1.61509">
        <ele>372</ele>
        <time>2024-03-13T15:38:33Z</time>
      </trkpt>
      <trkpt lat="44.42662" lon="1.6151">
        <ele>372</ele>
        <time>2024-03-13T15:38:34Z</time>
      </trkpt>
      <trkpt lat="44.42661" lon="1.61511">
        <ele>372</ele>
        <time>2024-03-13T15:38:35Z</time>
      </trkpt>
      <trkpt lat="44.42659" lon="1.61512">
        <ele>372</ele>
        <time>2024-03-13T15:38:36Z</time>
      </trkpt>
      <trkpt lat="44.42658" lon="1.61513">
        <ele>372</ele>
        <time>2024-03-13T15:38:37Z</time>
      </trkpt>
      <trkpt lat="44.42657" lon="1.61513">
        <ele>372</ele>
        <time>2024-03-13T15:38:38Z</time>
      </trkpt>
      <trkpt lat="44.42656" lon="1.61514">
        <ele>372</ele>
        <time>2024-03-13T15:38:39Z</time>
      </trkpt>
      <trkpt lat="44.42655" lon="1.61514">
        <ele>371</ele>
        <time>2024-03-13T15:38:40Z</time>
      </trkpt>
      <trkpt lat="44.42654" lon="1.61514">
        <ele>371</ele>
        <time>2024-03-13T15:38:41Z</time>
      </trkpt>
      <trkpt lat="44.42652" lon="1.61515">
        <ele>371</ele>
        <time>2024-03-13T15:38:42Z</time>
      </trkpt>
      <trkpt lat="44.4265" lon="1.61516">
        <ele>371</ele>
        <time>2024-03-13T15:38:43Z</time>
      </trkpt>
      <trkpt lat="44.42649" lon="1.61517">
        <ele>371</ele>
        <time>2024-03-13T15:38:44Z</time>
      </trkpt>
      <trkpt lat="44.42647" lon="1.61517">
        <ele>371</ele>
        <time>2024-03-13T15:38:45Z</time>
      </trkpt>
      <trkpt lat="44.42646" lon="1.61518">
        <ele>372</ele>
        <time>2024-03-13T15:38:46Z</time>
      </trkpt>
      <trkpt lat="44.42645" lon="1.61518">
        <ele>372</ele>
        <time>2024-03-13T15:38:47Z</time>
      </trkpt>
      <trkpt lat="44.42644" lon="1.61519">
        <ele>372</ele>
        <time>2024-03-13T15:38:48Z</time>
      </trkpt>
      <trkpt lat="44.42643" lon="1.61519">
        <ele>372</ele>
        <time>2024-03-13T15:38:49Z</time>
      </trkpt>
      <trkpt lat="44.42641" lon="1.61519">
        <ele>371</ele>
        <time>2024-03-13T15:38:50Z</time>
      </trkpt>
      <trkpt lat="44.4264" lon="1.6152">
        <ele>372</ele>
        <time>2024-03-13T15:38:51Z</time>
      </trkpt>
      <trkpt lat="44.42639" lon="1.6152">
        <ele>372</ele>
        <time>2024-03-13T15:38:52Z</time>
      </trkpt>
      <trkpt lat="44.42638" lon="1.6152">
        <ele>372</ele>
        <time>2024-03-13T15:38:53Z</time>
      </trkpt>
      <trkpt lat="44.42636" lon="1.6152">
        <ele>371</ele>
        <time>2024-03-13T15:38:54Z</time>
      </trkpt>
      <trkpt lat="44.42635" lon="1.61521">
        <ele>372</ele>
        <time>2024-03-13T15:38:55Z</time>
      </trkpt>
      <trkpt lat="44.42633" lon="1.61522">
        <ele>372</ele>
        <time>2024-03-13T15:38:56Z</time>
      </trkpt>
      <trkpt lat="44.42632" lon="1.61522">
        <ele>371</ele>
        <time>2024-03-13T15:38:57Z</time>
      </trkpt>
      <trkpt lat="44.42631" lon="1.61522">
        <ele>371</ele>
        <time>2024-03-13T15:38:58Z</time>
      </trkpt>
      <trkpt lat="44.4263" lon="1.61523">
        <ele>372</ele>
        <time>2024-03-13T15:38:59Z</time>
      </trkpt>
      <trkpt lat="44.42628" lon="1.61523">
        <ele>371</ele>
        <time>2024-03-13T15:39:00Z</time>
      </trkpt>
      <trkpt lat="44.42627" lon="1.61524">
        <ele>371</ele>
        <time>2024-03-13T15:39:01Z</time>
      </trkpt>
      <trkpt lat="44.42626" lon="1.61525">
        <ele>371</ele>
        <time>2024-03-13T15:39:02Z</time>
      </trkpt>
      <trkpt lat="44.42625" lon="1.61526">
        <ele>371</ele>
        <time>2024-03-13T15:39:03Z</time>
      </trkpt>
      <trkpt lat="44.42624" lon="1.61527">
        <ele>372</ele>
        <time>2024-03-13T15:39:04Z</time>
      </trkpt>
      <trkpt lat="44.42622" lon="1.61528">
        <ele>372</ele>
        <time>2024-03-13T15:39:05Z</time>
      </trkpt>
      <trkpt lat="44.42621" lon="1.61529">
        <ele>372</ele>
        <time>2024-03-13T15:39:06Z</time>
      </trkpt>
      <trkpt lat="44.4262" lon="1.6153">
        <ele>372</ele>
        <time>2024-03-13T15:39:07Z</time>
      </trkpt>
      <trkpt lat="44.42619" lon="1.6153">
        <ele>372</ele>
        <time>2024-03-13T15:39:08Z</time>
      </trkpt>
      <trkpt lat="44.42618" lon="1.61531">
        <ele>372</ele>
        <time>2024-03-13T15:39:09Z</time>
      </trkpt>
      <trkpt lat="44.42617" lon="1.61532">
        <ele>372</ele>
        <time>2024-03-13T15:39:10Z</time>
      </trkpt>
      <trkpt lat="44.42616" lon="1.61533">
        <ele>372</ele>
        <time>2024-03-13T15:39:11Z</time>
      </trkpt>
      <trkpt lat="44.42614" lon="1.61533">
        <ele>371</ele>
        <time>2024-03-13T15:39:12Z</time>
      </trkpt>
      <trkpt lat="44.42614" lon="1.61533">
        <ele>372</ele>
        <time>2024-03-13T15:39:13Z</time>
      </trkpt>
      <trkpt lat="44.42613" lon="1.61534">
        <ele>371</ele>
        <time>2024-03-13T15:39:14Z</time>
      </trkpt>
      <trkpt lat="44.42611" lon="1.61534">
        <ele>371</ele>
        <time>2024-03-13T15:39:15Z</time>
      </trkpt>
      <trkpt lat="44.4261" lon="1.61535">
        <ele>371</ele>
        <time>2024-03-13T15:39:16Z</time>
      </trkpt>
      <trkpt lat="44.42609" lon="1.61535">
        <ele>370</ele>
        <time>2024-03-13T15:39:17Z</time>
      </trkpt>
      <trkpt lat="44.42607" lon="1.61536">
        <ele>370</ele>
        <time>2024-03-13T15:39:18Z</time>
      </trkpt>
      <trkpt lat="44.42606" lon="1.61537">
        <ele>370</ele>
        <time>2024-03-13T15:39:19Z</time>
      </trkpt>
      <trkpt lat="44.42605" lon="1.61537">
        <ele>370</ele>
        <time>2024-03-13T15:39:20Z</time>
      </trkpt>
      <trkpt lat="44.42604" lon="1.61538">
        <ele>370</ele>
        <time>2024-03-13T15:39:21Z</time>
      </trkpt>
      <trkpt lat="44.42603" lon="1.61538">
        <ele>370</ele>
        <time>2024-03-13T15:39:22Z</time>
      </trkpt>
      <trkpt lat="44.42601" lon="1.61539">
        <ele>370</ele>
        <time>2024-03-13T15:39:23Z</time>
      </trkpt>
      <trkpt lat="44.426" lon="1.61539">
        <ele>369</ele>
        <time>2024-03-13T15:39:24Z</time>
      </trkpt>
      <trkpt lat="44.42598" lon="1.61539">
        <ele>369</ele>
        <time>2024-03-13T15:39:25Z</time>
      </trkpt>
      <trkpt lat="44.42597" lon="1.6154">
        <ele>369</ele>
        <time>2024-03-13T15:39:26Z</time>
      </trkpt>
      <trkpt lat="44.42596" lon="1.6154">
        <ele>369</ele>
        <time>2024-03-13T15:39:27Z</time>
      </trkpt>
      <trkpt lat="44.42595" lon="1.6154">
        <ele>369</ele>
        <time>2024-03-13T15:39:28Z</time>
      </trkpt>
      <trkpt lat="44.42594" lon="1.6154">
        <ele>369</ele>
        <time>2024-03-13T15:39:29Z</time>
      </trkpt>
      <trkpt lat="44.42593" lon="1.61541">
        <ele>369</ele>
        <time>2024-03-13T15:39:30Z</time>
      </trkpt>
      <trkpt lat="44.42592" lon="1.61541">
        <ele>368</ele>
        <time>2024-03-13T15:39:31Z</time>
      </trkpt>
      <trkpt lat="44.42591" lon="1.61542">
        <ele>368</ele>
        <time>2024-03-13T15:39:32Z</time>
      </trkpt>
      <trkpt lat="44.4259" lon="1.61542">
        <ele>368</ele>
        <time>2024-03-13T15:39:33Z</time>
      </trkpt>
      <trkpt lat="44.42589" lon="1.61543">
        <ele>368</ele>
        <time>2024-03-13T15:39:34Z</time>
      </trkpt>
      <trkpt lat="44.42588" lon="1.61544">
        <ele>368</ele>
        <time>2024-03-13T15:39:35Z</time>
      </trkpt>
      <trkpt lat="44.42588" lon="1.61544">
        <ele>368</ele>
        <time>2024-03-13T15:39:36Z</time>
      </trkpt>
      <trkpt lat="44.42588" lon="1.61544">
        <ele>368</ele>
        <time>2024-03-13T15:39:37Z</time>
      </trkpt>
      <trkpt lat="44.42587" lon="1.61545">
        <ele>368</ele>
        <time>2024-03-13T15:39:38Z</time>
      </trkpt>
      <trkpt lat="44.42586" lon="1.61545">
        <ele>368</ele>
        <time>2024-03-13T15:39:39Z</time>
      </trkpt>
      <trkpt lat="44.42585" lon="1.61546">
        <ele>368</ele>
        <time>2024-03-13T15:39:40Z</time>
      </trkpt>
      <trkpt lat="44.42585" lon="1.61546">
        <ele>368</ele>
        <time>2024-03-13T15:39:41Z</time>
      </trkpt>
      <trkpt lat="44.42585" lon="1.61546">
        <ele>368</ele>
        <time>2024-03-13T15:39:42Z</time>
      </trkpt>
      <trkpt lat="44.42585" lon="1.61546">
        <ele>368</ele>
        <time>2024-03-13T15:39:43Z</time>
      </trkpt>
      <trkpt lat="44.42582" lon="1.61546">
        <ele>368</ele>
        <time>2024-03-13T15:39:44Z</time>
      </trkpt>
      <trkpt lat="44.42581" lon="1.61547">
        <ele>368</ele>
        <time>2024-03-13T15:39:45Z</time>
      </trkpt>
      <trkpt lat="44.4258" lon="1.61547">
        <ele>368</ele>
        <time>2024-03-13T15:39:46Z</time>
      </trkpt>
      <trkpt lat="44.42579" lon="1.61548">
        <ele>368</ele>
        <time>2024-03-13T15:39:47Z</time>
      </trkpt>
      <trkpt lat="44.42579" lon="1.61548">
        <ele>368</ele>
        <time>2024-03-13T15:39:48Z</time>
      </trkpt>
      <trkpt lat="44.42578" lon="1.61549">
        <ele>367</ele>
        <time>2024-03-13T15:39:49Z</time>
      </trkpt>
      <trkpt lat="44.42578" lon="1.61549">
        <ele>367</ele>
        <time>2024-03-13T15:39:50Z</time>
      </trkpt>
      <trkpt lat="44.42578" lon="1.61549">
        <ele>367</ele>
        <time>2024-03-13T15:39:51Z</time>
      </trkpt>
      <trkpt lat="44.42576" lon="1.61549">
        <ele>367</ele>
        <time>2024-03-13T15:39:52Z</time>
      </trkpt>
      <trkpt lat="44.42575" lon="1.6155">
        <ele>367</ele>
        <time>2024-03-13T15:39:53Z</time>
      </trkpt>
      <trkpt lat="44.42574" lon="1.61551">
        <ele>367</ele>
        <time>2024-03-13T15:39:54Z</time>
      </trkpt>
      <trkpt lat="44.42573" lon="1.61552">
        <ele>368</ele>
        <time>2024-03-13T15:39:55Z</time>
      </trkpt>
      <trkpt lat="44.42573" lon="1.61552">
        <ele>368</ele>
        <time>2024-03-13T15:39:56Z</time>
      </trkpt>
      <trkpt lat="44.42573" lon="1.61552">
        <ele>368</ele>
        <time>2024-03-13T15:39:57Z</time>
      </trkpt>
      <trkpt lat="44.42571" lon="1.61553">
        <ele>368</ele>
        <time>2024-03-13T15:39:58Z</time>
      </trkpt>
      <trkpt lat="44.4257" lon="1.61554">
        <ele>368</ele>
        <time>2024-03-13T15:39:59Z</time>
      </trkpt>
      <trkpt lat="44.42569" lon="1.61555">
        <ele>368</ele>
        <time>2024-03-13T15:40:00Z</time>
      </trkpt>
      <trkpt lat="44.42567" lon="1.61555">
        <ele>368</ele>
        <time>2024-03-13T15:40:01Z</time>
      </trkpt>
      <trkpt lat="44.42566" lon="1.61555">
        <ele>368</ele>
        <time>2024-03-13T15:40:02Z</time>
      </trkpt>
      <trkpt lat="44.42564" lon="1.61556">
        <ele>367</ele>
        <time>2024-03-13T15:40:03Z</time>
      </trkpt>
      <trkpt lat="44.42563" lon="1.61556">
        <ele>367</ele>
        <time>2024-03-13T15:40:04Z</time>
      </trkpt>
      <trkpt lat="44.42562" lon="1.61557">
        <ele>367</ele>
        <time>2024-03-13T15:40:05Z</time>
      </trkpt>
      <trkpt lat="44.42561" lon="1.61557">
        <ele>367</ele>
        <time>2024-03-13T15:40:06Z</time>
      </trkpt>
      <trkpt lat="44.42561" lon="1.61557">
        <ele>367</ele>
        <time>2024-03-13T15:40:07Z</time>
      </trkpt>
      <trkpt lat="44.42561" lon="1.61557">
        <ele>367</ele>
        <time>2024-03-13T15:40:08Z</time>
      </trkpt>
      <trkpt lat="44.42558" lon="1.61558">
        <ele>366</ele>
        <time>2024-03-13T15:40:09Z</time>
      </trkpt>
      <trkpt lat="44.42557" lon="1.61558">
        <ele>366</ele>
        <time>2024-03-13T15:40:10Z</time>
      </trkpt>
      <trkpt lat="44.42556" lon="1.61559">
        <ele>366</ele>
        <time>2024-03-13T15:40:11Z</time>
      </trkpt>
      <trkpt lat="44.42554" lon="1.61559">
        <ele>365</ele>
        <time>2024-03-13T15:40:12Z</time>
      </trkpt>
      <trkpt lat="44.42553" lon="1.6156">
        <ele>365</ele>
        <time>2024-03-13T15:40:13Z</time>
      </trkpt>
      <trkpt lat="44.42553" lon="1.61561">
        <ele>366</ele>
        <time>2024-03-13T15:40:14Z</time>
      </trkpt>
      <trkpt lat="44.42552" lon="1.61561">
        <ele>366</ele>
        <time>2024-03-13T15:40:15Z</time>
      </trkpt>
      <trkpt lat="44.4255" lon="1.61561">
        <ele>366</ele>
        <time>2024-03-13T15:40:16Z</time>
      </trkpt>
      <trkpt lat="44.42549" lon="1.61561">
        <ele>365</ele>
        <time>2024-03-13T15:40:17Z</time>
      </trkpt>
      <trkpt lat="44.42548" lon="1.61561">
        <ele>365</ele>
        <time>2024-03-13T15:40:18Z</time>
      </trkpt>
      <trkpt lat="44.42546" lon="1.6156">
        <ele>365</ele>
        <time>2024-03-13T15:40:19Z</time>
      </trkpt>
      <trkpt lat="44.42545" lon="1.61561">
        <ele>365</ele>
        <time>2024-03-13T15:40:20Z</time>
      </trkpt>
      <trkpt lat="44.42545" lon="1.61561">
        <ele>365</ele>
        <time>2024-03-13T15:40:21Z</time>
      </trkpt>
      <trkpt lat="44.42544" lon="1.61561">
        <ele>364</ele>
        <time>2024-03-13T15:40:22Z</time>
      </trkpt>
      <trkpt lat="44.42544" lon="1.61561">
        <ele>364</ele>
        <time>2024-03-13T15:40:23Z</time>
      </trkpt>
      <trkpt lat="44.42544" lon="1.61561">
        <ele>364</ele>
        <time>2024-03-13T15:40:24Z</time>
      </trkpt>
      <trkpt lat="44.42541" lon="1.61561">
        <ele>364</ele>
        <time>2024-03-13T15:40:25Z</time>
      </trkpt>
      <trkpt lat="44.4254" lon="1.6156">
        <ele>364</ele>
        <time>2024-03-13T15:40:26Z</time>
      </trkpt>
      <trkpt lat="44.42538" lon="1.6156">
        <ele>364</ele>
        <time>2024-03-13T15:40:27Z</time>
      </trkpt>
      <trkpt lat="44.42537" lon="1.6156">
        <ele>364</ele>
        <time>2024-03-13T15:40:28Z</time>
      </trkpt>
      <trkpt lat="44.42536" lon="1.61561">
        <ele>364</ele>
        <time>2024-03-13T15:40:29Z</time>
      </trkpt>
      <trkpt lat="44.42534" lon="1.61561">
        <ele>364</ele>
        <time>2024-03-13T15:40:30Z</time>
      </trkpt>
      <trkpt lat="44.42533" lon="1.61561">
        <ele>364</ele>
        <time>2024-03-13T15:40:31Z</time>
      </trkpt>
      <trkpt lat="44.42532" lon="1.61561">
        <ele>364</ele>
        <time>2024-03-13T15:40:32Z</time>
      </trkpt>
      <trkpt lat="44.42532" lon="1.6156">
        <ele>364</ele>
        <time>2024-03-13T15:40:33Z</time>
      </trkpt>
      <trkpt lat="44.4253" lon="1.6156">
        <ele>364</ele>
        <time>2024-03-13T15:40:34Z</time>
      </trkpt>
      <trkpt lat="44.42529" lon="1.6156">
        <ele>364</ele>
        <time>2024-03-13T15:40:35Z</time>
      </trkpt>
      <trkpt lat="44.42528" lon="1.6156">
        <ele>364</ele>
        <time>2024-03-13T15:40:36Z</time>
      </trkpt>
      <trkpt lat="44.42527" lon="1.6156">
        <ele>364</ele>
        <time>2024-03-13T15:40:37Z</time>
      </trkpt>
      <trkpt lat="44.42527" lon="1.61559">
        <ele>364</ele>
        <time>2024-03-13T15:40:38Z</time>
      </trkpt>
      <trkpt lat="44.42526" lon="1.61559">
        <ele>364</ele>
        <time>2024-03-13T15:40:39Z</time>
      </trkpt>
      <trkpt lat="44.42524" lon="1.61559">
        <ele>364</ele>
        <time>2024-03-13T15:40:40Z</time>
      </trkpt>
      <trkpt lat="44.42523" lon="1.61559">
        <ele>363</ele>
        <time>2024-03-13T15:40:41Z</time>
      </trkpt>
      <trkpt lat="44.42522" lon="1.61559">
        <ele>363</ele>
        <time>2024-03-13T15:40:42Z</time>
      </trkpt>
      <trkpt lat="44.42522" lon="1.61558">
        <ele>363</ele>
        <time>2024-03-13T15:40:43Z</time>
      </trkpt>
      <trkpt lat="44.42521" lon="1.61558">
        <ele>363</ele>
        <time>2024-03-13T15:40:44Z</time>
      </trkpt>
      <trkpt lat="44.42521" lon="1.61558">
        <ele>363</ele>
        <time>2024-03-13T15:40:45Z</time>
      </trkpt>
      <trkpt lat="44.42521" lon="1.61558">
        <ele>363</ele>
        <time>2024-03-13T15:40:46Z</time>
      </trkpt>
      <trkpt lat="44.42519" lon="1.61558">
        <ele>363</ele>
        <time>2024-03-13T15:40:47Z</time>
      </trkpt>
      <trkpt lat="44.42518" lon="1.61557">
        <ele>363</ele>
        <time>2024-03-13T15:40:48Z</time>
      </trkpt>
      <trkpt lat="44.42517" lon="1.61557">
        <ele>362</ele>
        <time>2024-03-13T15:40:49Z</time>
      </trkpt>
      <trkpt lat="44.42516" lon="1.61557">
        <ele>362</ele>
        <time>2024-03-13T15:40:50Z</time>
      </trkpt>
      <trkpt lat="44.42516" lon="1.61557">
        <ele>362</ele>
        <time>2024-03-13T15:40:51Z</time>
      </trkpt>
      <trkpt lat="44.42516" lon="1.61557">
        <ele>362</ele>
        <time>2024-03-13T15:40:52Z</time>
      </trkpt>
      <trkpt lat="44.42514" lon="1.61557">
        <ele>363</ele>
        <time>2024-03-13T15:40:53Z</time>
      </trkpt>
      <trkpt lat="44.42512" lon="1.61557">
        <ele>362</ele>
        <time>2024-03-13T15:40:54Z</time>
      </trkpt>
      <trkpt lat="44.42511" lon="1.61557">
        <ele>362</ele>
        <time>2024-03-13T15:40:55Z</time>
      </trkpt>
      <trkpt lat="44.4251" lon="1.61556">
        <ele>362</ele>
        <time>2024-03-13T15:40:56Z</time>
      </trkpt>
      <trkpt lat="44.4251" lon="1.61556">
        <ele>362</ele>
        <time>2024-03-13T15:40:57Z</time>
      </trkpt>
      <trkpt lat="44.4251" lon="1.61556">
        <ele>362</ele>
        <time>2024-03-13T15:40:58Z</time>
      </trkpt>
      <trkpt lat="44.42507" lon="1.61556">
        <ele>362</ele>
        <time>2024-03-13T15:40:59Z</time>
      </trkpt>
      <trkpt lat="44.42506" lon="1.61556">
        <ele>361</ele>
        <time>2024-03-13T15:41:00Z</time>
      </trkpt>
      <trkpt lat="44.42505" lon="1.61556">
        <ele>361</ele>
        <time>2024-03-13T15:41:01Z</time>
      </trkpt>
      <trkpt lat="44.42503" lon="1.61556">
        <ele>361</ele>
        <time>2024-03-13T15:41:02Z</time>
      </trkpt>
      <trkpt lat="44.42503" lon="1.61556">
        <ele>362</ele>
        <time>2024-03-13T15:41:03Z</time>
      </trkpt>
      <trkpt lat="44.42501" lon="1.61556">
        <ele>362</ele>
        <time>2024-03-13T15:41:04Z</time>
      </trkpt>
      <trkpt lat="44.425" lon="1.61556">
        <ele>362</ele>
        <time>2024-03-13T15:41:05Z</time>
      </trkpt>
      <trkpt lat="44.42499" lon="1.61556">
        <ele>361</ele>
        <time>2024-03-13T15:41:06Z</time>
      </trkpt>
      <trkpt lat="44.42498" lon="1.61555">
        <ele>361</ele>
        <time>2024-03-13T15:41:07Z</time>
      </trkpt>
      <trkpt lat="44.42497" lon="1.61555">
        <ele>360</ele>
        <time>2024-03-13T15:41:08Z</time>
      </trkpt>
      <trkpt lat="44.42496" lon="1.61554">
        <ele>360</ele>
        <time>2024-03-13T15:41:09Z</time>
      </trkpt>
      <trkpt lat="44.42496" lon="1.61554">
        <ele>360</ele>
        <time>2024-03-13T15:41:10Z</time>
      </trkpt>
      <trkpt lat="44.42496" lon="1.61554">
        <ele>360</ele>
        <time>2024-03-13T15:41:11Z</time>
      </trkpt>
      <trkpt lat="44.42493" lon="1.61554">
        <ele>360</ele>
        <time>2024-03-13T15:41:12Z</time>
      </trkpt>
      <trkpt lat="44.42492" lon="1.61554">
        <ele>360</ele>
        <time>2024-03-13T15:41:13Z</time>
      </trkpt>
      <trkpt lat="44.4249" lon="1.61554">
        <ele>359</ele>
        <time>2024-03-13T15:41:15Z</time>
      </trkpt>
      <trkpt lat="44.4249" lon="1.61554">
        <ele>359</ele>
        <time>2024-03-13T15:41:16Z</time>
      </trkpt>
      <trkpt lat="44.4249" lon="1.61554">
        <ele>359</ele>
        <time>2024-03-13T15:41:17Z</time>
      </trkpt>
      <trkpt lat="44.42488" lon="1.61554">
        <ele>359</ele>
        <time>2024-03-13T15:41:18Z</time>
      </trkpt>
      <trkpt lat="44.42487" lon="1.61554">
        <ele>359</ele>
        <time>2024-03-13T15:41:19Z</time>
      </trkpt>
      <trkpt lat="44.42486" lon="1.61554">
        <ele>359</ele>
        <time>2024-03-13T15:41:20Z</time>
      </trkpt>
      <trkpt lat="44.42485" lon="1.61555">
        <ele>359</ele>
        <time>2024-03-13T15:41:21Z</time>
      </trkpt>
      <trkpt lat="44.42485" lon="1.61555">
        <ele>359</ele>
        <time>2024-03-13T15:41:22Z</time>
      </trkpt>
      <trkpt lat="44.42485" lon="1.61555">
        <ele>359</ele>
        <time>2024-03-13T15:41:23Z</time>
      </trkpt>
      <trkpt lat="44.42482" lon="1.61555">
        <ele>358</ele>
        <time>2024-03-13T15:41:24Z</time>
      </trkpt>
      <trkpt lat="44.42481" lon="1.61555">
        <ele>358</ele>
        <time>2024-03-13T15:41:25Z</time>
      </trkpt>
      <trkpt lat="44.4248" lon="1.61555">
        <ele>358</ele>
        <time>2024-03-13T15:41:26Z</time>
      </trkpt>
      <trkpt lat="44.42479" lon="1.61555">
        <ele>358</ele>
        <time>2024-03-13T15:41:27Z</time>
      </trkpt>
      <trkpt lat="44.42479" lon="1.61555">
        <ele>358</ele>
        <time>2024-03-13T15:41:28Z</time>
      </trkpt>
      <trkpt lat="44.42479" lon="1.61555">
        <ele>358</ele>
        <time>2024-03-13T15:41:29Z</time>
      </trkpt>
      <trkpt lat="44.42476" lon="1.61554">
        <ele>357</ele>
        <time>2024-03-13T15:41:30Z</time>
      </trkpt>
      <trkpt lat="44.42476" lon="1.61553">
        <ele>356</ele>
        <time>2024-03-13T15:41:31Z</time>
      </trkpt>
      <trkpt lat="44.42475" lon="1.61553">
        <ele>356</ele>
        <time>2024-03-13T15:41:32Z</time>
      </trkpt>
      <trkpt lat="44.42474" lon="1.61554">
        <ele>356</ele>
        <time>2024-03-13T15:41:33Z</time>
      </trkpt>
      <trkpt lat="44.42474" lon="1.61554">
        <ele>356</ele>
        <time>2024-03-13T15:41:34Z</time>
      </trkpt>
      <trkpt lat="44.42474" lon="1.61554">
        <ele>356</ele>
        <time>2024-03-13T15:41:35Z</time>
      </trkpt>
      <trkpt lat="44.42471" lon="1.61554">
        <ele>355</ele>
        <time>2024-03-13T15:41:36Z</time>
      </trkpt>
      <trkpt lat="44.4247" lon="1.61554">
        <ele>355</ele>
        <time>2024-03-13T15:41:37Z</time>
      </trkpt>
      <trkpt lat="44.42468" lon="1.61554">
        <ele>355</ele>
        <time>2024-03-13T15:41:38Z</time>
      </trkpt>
      <trkpt lat="44.42467" lon="1.61554">
        <ele>355</ele>
        <time>2024-03-13T15:41:39Z</time>
      </trkpt>
      <trkpt lat="44.42467" lon="1.61554">
        <ele>355</ele>
        <time>2024-03-13T15:41:40Z</time>
      </trkpt>
      <trkpt lat="44.42467" lon="1.61554">
        <ele>355</ele>
        <time>2024-03-13T15:41:41Z</time>
      </trkpt>
      <trkpt lat="44.42465" lon="1.61554">
        <ele>354</ele>
        <time>2024-03-13T15:41:42Z</time>
      </trkpt>
      <trkpt lat="44.42463" lon="1.61554">
        <ele>354</ele>
        <time>2024-03-13T15:41:43Z</time>
      </trkpt>
      <trkpt lat="44.42462" lon="1.61555">
        <ele>353</ele>
        <time>2024-03-13T15:41:44Z</time>
      </trkpt>
      <trkpt lat="44.42461" lon="1.61555">
        <ele>353</ele>
        <time>2024-03-13T15:41:45Z</time>
      </trkpt>
      <trkpt lat="44.4246" lon="1.61556">
        <ele>353</ele>
        <time>2024-03-13T15:41:46Z</time>
      </trkpt>
      <trkpt lat="44.42459" lon="1.61556">
        <ele>352</ele>
        <time>2024-03-13T15:41:47Z</time>
      </trkpt>
      <trkpt lat="44.42457" lon="1.61556">
        <ele>352</ele>
        <time>2024-03-13T15:41:48Z</time>
      </trkpt>
      <trkpt lat="44.42456" lon="1.61556">
        <ele>352</ele>
        <time>2024-03-13T15:41:49Z</time>
      </trkpt>
      <trkpt lat="44.42455" lon="1.61555">
        <ele>352</ele>
        <time>2024-03-13T15:41:50Z</time>
      </trkpt>
      <trkpt lat="44.42453" lon="1.61555">
        <ele>351</ele>
        <time>2024-03-13T15:41:51Z</time>
      </trkpt>
      <trkpt lat="44.42451" lon="1.61555">
        <ele>351</ele>
        <time>2024-03-13T15:41:52Z</time>
      </trkpt>
      <trkpt lat="44.4245" lon="1.61555">
        <ele>351</ele>
        <time>2024-03-13T15:41:53Z</time>
      </trkpt>
      <trkpt lat="44.42449" lon="1.61555">
        <ele>351</ele>
        <time>2024-03-13T15:41:54Z</time>
      </trkpt>
      <trkpt lat="44.42448" lon="1.61555">
        <ele>350</ele>
        <time>2024-03-13T15:41:55Z</time>
      </trkpt>
      <trkpt lat="44.42447" lon="1.61555">
        <ele>349</ele>
        <time>2024-03-13T15:41:56Z</time>
      </trkpt>
      <trkpt lat="44.42447" lon="1.61555">
        <ele>349</ele>
        <time>2024-03-13T15:41:57Z</time>
      </trkpt>
      <trkpt lat="44.42447" lon="1.61555">
        <ele>349</ele>
        <time>2024-03-13T15:41:58Z</time>
      </trkpt>
      <trkpt lat="44.42445" lon="1.61555">
        <ele>349</ele>
        <time>2024-03-13T15:41:59Z</time>
      </trkpt>
      <trkpt lat="44.42444" lon="1.61555">
        <ele>349</ele>
        <time>2024-03-13T15:42:00Z</time>
      </trkpt>
      <trkpt lat="44.42443" lon="1.61554">
        <ele>348</ele>
        <time>2024-03-13T15:42:01Z</time>
      </trkpt>
      <trkpt lat="44.42443" lon="1.61554">
        <ele>348</ele>
        <time>2024-03-13T15:42:02Z</time>
      </trkpt>
      <trkpt lat="44.42443" lon="1.61554">
        <ele>348</ele>
        <time>2024-03-13T15:42:03Z</time>
      </trkpt>
      <trkpt lat="44.42443" lon="1.61554">
        <ele>348</ele>
        <time>2024-03-13T15:42:04Z</time>
      </trkpt>
      <trkpt lat="44.4244" lon="1.61554">
        <ele>348</ele>
        <time>2024-03-13T15:42:05Z</time>
      </trkpt>
      <trkpt lat="44.42439" lon="1.61553">
        <ele>348</ele>
        <time>2024-03-13T15:42:06Z</time>
      </trkpt>
      <trkpt lat="44.42438" lon="1.61553">
        <ele>347</ele>
        <time>2024-03-13T15:42:07Z</time>
      </trkpt>
      <trkpt lat="44.42437" lon="1.61554">
        <ele>347</ele>
        <time>2024-03-13T15:42:08Z</time>
      </trkpt>
      <trkpt lat="44.42437" lon="1.61554">
        <ele>347</ele>
        <time>2024-03-13T15:42:09Z</time>
      </trkpt>
      <trkpt lat="44.42437" lon="1.61554">
        <ele>347</ele>
        <time>2024-03-13T15:42:10Z</time>
      </trkpt>
      <trkpt lat="44.42435" lon="1.61554">
        <ele>347</ele>
        <time>2024-03-13T15:42:11Z</time>
      </trkpt>
      <trkpt lat="44.42434" lon="1.61554">
        <ele>347</ele>
        <time>2024-03-13T15:42:12Z</time>
      </trkpt>
      <trkpt lat="44.42433" lon="1.61553">
        <ele>346</ele>
        <time>2024-03-13T15:42:13Z</time>
      </trkpt>
      <trkpt lat="44.42432" lon="1.61553">
        <ele>346</ele>
        <time>2024-03-13T15:42:14Z</time>
      </trkpt>
      <trkpt lat="44.42432" lon="1.61553">
        <ele>346</ele>
        <time>2024-03-13T15:42:15Z</time>
      </trkpt>
      <trkpt lat="44.42432" lon="1.61553">
        <ele>346</ele>
        <time>2024-03-13T15:42:16Z</time>
      </trkpt>
      <trkpt lat="44.42429" lon="1.61553">
        <ele>346</ele>
        <time>2024-03-13T15:42:17Z</time>
      </trkpt>
      <trkpt lat="44.42428" lon="1.61554">
        <ele>346</ele>
        <time>2024-03-13T15:42:18Z</time>
      </trkpt>
      <trkpt lat="44.42427" lon="1.61554">
        <ele>346</ele>
        <time>2024-03-13T15:42:19Z</time>
      </trkpt>
      <trkpt lat="44.42426" lon="1.61554">
        <ele>345</ele>
        <time>2024-03-13T15:42:20Z</time>
      </trkpt>
      <trkpt lat="44.42425" lon="1.61554">
        <ele>345</ele>
        <time>2024-03-13T15:42:21Z</time>
      </trkpt>
      <trkpt lat="44.42423" lon="1.61555">
        <ele>345</ele>
        <time>2024-03-13T15:42:22Z</time>
      </trkpt>
      <trkpt lat="44.42422" lon="1.61555">
        <ele>345</ele>
        <time>2024-03-13T15:42:23Z</time>
      </trkpt>
      <trkpt lat="44.42421" lon="1.61555">
        <ele>345</ele>
        <time>2024-03-13T15:42:24Z</time>
      </trkpt>
      <trkpt lat="44.42421" lon="1.61555">
        <ele>345</ele>
        <time>2024-03-13T15:42:25Z</time>
      </trkpt>
      <trkpt lat="44.42421" lon="1.61555">
        <ele>345</ele>
        <time>2024-03-13T15:42:26Z</time>
      </trkpt>
      <trkpt lat="44.42418" lon="1.61556">
        <ele>344</ele>
        <time>2024-03-13T15:42:27Z</time>
      </trkpt>
      <trkpt lat="44.42417" lon="1.61556">
        <ele>344</ele>
        <time>2024-03-13T15:42:28Z</time>
      </trkpt>
      <trkpt lat="44.42416" lon="1.61556">
        <ele>344</ele>
        <time>2024-03-13T15:42:29Z</time>
      </trkpt>
      <trkpt lat="44.42415" lon="1.61557">
        <ele>343</ele>
        <time>2024-03-13T15:42:30Z</time>
      </trkpt>
      <trkpt lat="44.42415" lon="1.61557">
        <ele>343</ele>
        <time>2024-03-13T15:42:31Z</time>
      </trkpt>
      <trkpt lat="44.42415" lon="1.61557">
        <ele>343</ele>
        <time>2024-03-13T15:42:32Z</time>
      </trkpt>
      <trkpt lat="44.42413" lon="1.61557">
        <ele>342</ele>
        <time>2024-03-13T15:42:33Z</time>
      </trkpt>
      <trkpt lat="44.42412" lon="1.61557">
        <ele>342</ele>
        <time>2024-03-13T15:42:34Z</time>
      </trkpt>
      <trkpt lat="44.42411" lon="1.61558">
        <ele>342</ele>
        <time>2024-03-13T15:42:35Z</time>
      </trkpt>
      <trkpt lat="44.4241" lon="1.61558">
        <ele>342</ele>
        <time>2024-03-13T15:42:36Z</time>
      </trkpt>
      <trkpt lat="44.4241" lon="1.61558">
        <ele>342</ele>
        <time>2024-03-13T15:42:37Z</time>
      </trkpt>
      <trkpt lat="44.4241" lon="1.61558">
        <ele>342</ele>
        <time>2024-03-13T15:42:38Z</time>
      </trkpt>
      <trkpt lat="44.42408" lon="1.61558">
        <ele>343</ele>
        <time>2024-03-13T15:42:39Z</time>
      </trkpt>
      <trkpt lat="44.42408" lon="1.61558">
        <ele>343</ele>
        <time>2024-03-13T15:42:40Z</time>
      </trkpt>
      <trkpt lat="44.42406" lon="1.61559">
        <ele>343</ele>
        <time>2024-03-13T15:42:41Z</time>
      </trkpt>
      <trkpt lat="44.42406" lon="1.61559">
        <ele>343</ele>
        <time>2024-03-13T15:42:42Z</time>
      </trkpt>
      <trkpt lat="44.42406" lon="1.61559">
        <ele>343</ele>
        <time>2024-03-13T15:42:43Z</time>
      </trkpt>
      <trkpt lat="44.42406" lon="1.61559">
        <ele>343</ele>
        <time>2024-03-13T15:42:44Z</time>
      </trkpt>
      <trkpt lat="44.42404" lon="1.61559">
        <ele>342</ele>
        <time>2024-03-13T15:42:45Z</time>
      </trkpt>
      <trkpt lat="44.42403" lon="1.61559">
        <ele>342</ele>
        <time>2024-03-13T15:42:46Z</time>
      </trkpt>
      <trkpt lat="44.42402" lon="1.61558">
        <ele>342</ele>
        <time>2024-03-13T15:42:47Z</time>
      </trkpt>
      <trkpt lat="44.42401" lon="1.61559">
        <ele>341</ele>
        <time>2024-03-13T15:42:48Z</time>
      </trkpt>
      <trkpt lat="44.424" lon="1.61559">
        <ele>341</ele>
        <time>2024-03-13T15:42:49Z</time>
      </trkpt>
      <trkpt lat="44.42398" lon="1.61559">
        <ele>340</ele>
        <time>2024-03-13T15:42:50Z</time>
      </trkpt>
      <trkpt lat="44.42397" lon="1.61559">
        <ele>340</ele>
        <time>2024-03-13T15:42:51Z</time>
      </trkpt>
      <trkpt lat="44.42396" lon="1.61559">
        <ele>340</ele>
        <time>2024-03-13T15:42:52Z</time>
      </trkpt>
      <trkpt lat="44.42395" lon="1.61558">
        <ele>340</ele>
        <time>2024-03-13T15:42:53Z</time>
      </trkpt>
      <trkpt lat="44.42395" lon="1.61558">
        <ele>339</ele>
        <time>2024-03-13T15:42:54Z</time>
      </trkpt>
      <trkpt lat="44.42394" lon="1.61559">
        <ele>339</ele>
        <time>2024-03-13T15:42:55Z</time>
      </trkpt>
      <trkpt lat="44.42393" lon="1.61559">
        <ele>339</ele>
        <time>2024-03-13T15:42:56Z</time>
      </trkpt>
      <trkpt lat="44.42392" lon="1.6156">
        <ele>338</ele>
        <time>2024-03-13T15:42:57Z</time>
      </trkpt>
      <trkpt lat="44.42392" lon="1.61561">
        <ele>339</ele>
        <time>2024-03-13T15:42:58Z</time>
      </trkpt>
      <trkpt lat="44.42391" lon="1.61562">
        <ele>338</ele>
        <time>2024-03-13T15:42:59Z</time>
      </trkpt>
      <trkpt lat="44.4239" lon="1.61563">
        <ele>338</ele>
        <time>2024-03-13T15:43:00Z</time>
      </trkpt>
      <trkpt lat="44.42389" lon="1.61564">
        <ele>337</ele>
        <time>2024-03-13T15:43:01Z</time>
      </trkpt>
      <trkpt lat="44.42388" lon="1.61566">
        <ele>336</ele>
        <time>2024-03-13T15:43:02Z</time>
      </trkpt>
      <trkpt lat="44.42388" lon="1.61567">
        <ele>336</ele>
        <time>2024-03-13T15:43:03Z</time>
      </trkpt>
      <trkpt lat="44.42387" lon="1.61569">
        <ele>335</ele>
        <time>2024-03-13T15:43:04Z</time>
      </trkpt>
      <trkpt lat="44.42387" lon="1.6157">
        <ele>335</ele>
        <time>2024-03-13T15:43:05Z</time>
      </trkpt>
      <trkpt lat="44.42387" lon="1.61571">
        <ele>335</ele>
        <time>2024-03-13T15:43:06Z</time>
      </trkpt>
      <trkpt lat="44.42386" lon="1.61572">
        <ele>334</ele>
        <time>2024-03-13T15:43:07Z</time>
      </trkpt>
      <trkpt lat="44.42386" lon="1.61573">
        <ele>334</ele>
        <time>2024-03-13T15:43:08Z</time>
      </trkpt>
      <trkpt lat="44.42386" lon="1.61574">
        <ele>334</ele>
        <time>2024-03-13T15:43:09Z</time>
      </trkpt>
      <trkpt lat="44.42386" lon="1.61575">
        <ele>333</ele>
        <time>2024-03-13T15:43:10Z</time>
      </trkpt>
      <trkpt lat="44.42385" lon="1.61576">
        <ele>333</ele>
        <time>2024-03-13T15:43:11Z</time>
      </trkpt>
      <trkpt lat="44.42385" lon="1.61577">
        <ele>333</ele>
        <time>2024-03-13T15:43:12Z</time>
      </trkpt>
      <trkpt lat="44.42385" lon="1.61578">
        <ele>333</ele>
        <time>2024-03-13T15:43:13Z</time>
      </trkpt>
      <trkpt lat="44.42385" lon="1.61578">
        <ele>333</ele>
        <time>2024-03-13T15:43:14Z</time>
      </trkpt>
      <trkpt lat="44.42385" lon="1.61578">
        <ele>333</ele>
        <time>2024-03-13T15:43:15Z</time>
      </trkpt>
      <trkpt lat="44.42384" lon="1.6158">
        <ele>332</ele>
        <time>2024-03-13T15:43:16Z</time>
      </trkpt>
      <trkpt lat="44.42384" lon="1.61581">
        <ele>332</ele>
        <time>2024-03-13T15:43:17Z</time>
      </trkpt>
      <trkpt lat="44.42384" lon="1.61581">
        <ele>332</ele>
        <time>2024-03-13T15:43:18Z</time>
      </trkpt>
      <trkpt lat="44.42384" lon="1.61582">
        <ele>332</ele>
        <time>2024-03-13T15:43:19Z</time>
      </trkpt>
      <trkpt lat="44.42384" lon="1.61582">
        <ele>332</ele>
        <time>2024-03-13T15:43:20Z</time>
      </trkpt>
      <trkpt lat="44.42384" lon="1.61582">
        <ele>332</ele>
        <time>2024-03-13T15:43:21Z</time>
      </trkpt>
      <trkpt lat="44.42382" lon="1.61584">
        <ele>331</ele>
        <time>2024-03-13T15:43:22Z</time>
      </trkpt>
      <trkpt lat="44.42382" lon="1.61584">
        <ele>331</ele>
        <time>2024-03-13T15:43:23Z</time>
      </trkpt>
      <trkpt lat="44.42382" lon="1.61585">
        <ele>330</ele>
        <time>2024-03-13T15:43:24Z</time>
      </trkpt>
      <trkpt lat="44.42381" lon="1.61586">
        <ele>330</ele>
        <time>2024-03-13T15:43:25Z</time>
      </trkpt>
      <trkpt lat="44.42381" lon="1.61586">
        <ele>330</ele>
        <time>2024-03-13T15:43:26Z</time>
      </trkpt>
      <trkpt lat="44.42381" lon="1.61587">
        <ele>329</ele>
        <time>2024-03-13T15:43:27Z</time>
      </trkpt>
      <trkpt lat="44.4238" lon="1.61588">
        <ele>329</ele>
        <time>2024-03-13T15:43:28Z</time>
      </trkpt>
      <trkpt lat="44.42379" lon="1.61588">
        <ele>329</ele>
        <time>2024-03-13T15:43:29Z</time>
      </trkpt>
      <trkpt lat="44.42379" lon="1.61589">
        <ele>329</ele>
        <time>2024-03-13T15:43:30Z</time>
      </trkpt>
      <trkpt lat="44.42378" lon="1.6159">
        <ele>329</ele>
        <time>2024-03-13T15:43:31Z</time>
      </trkpt>
      <trkpt lat="44.42377" lon="1.6159">
        <ele>329</ele>
        <time>2024-03-13T15:43:32Z</time>
      </trkpt>
      <trkpt lat="44.42377" lon="1.61591">
        <ele>329</ele>
        <time>2024-03-13T15:43:33Z</time>
      </trkpt>
      <trkpt lat="44.42376" lon="1.61591">
        <ele>328</ele>
        <time>2024-03-13T15:43:34Z</time>
      </trkpt>
      <trkpt lat="44.42376" lon="1.61591">
        <ele>328</ele>
        <time>2024-03-13T15:43:35Z</time>
      </trkpt>
      <trkpt lat="44.42376" lon="1.61591">
        <ele>328</ele>
        <time>2024-03-13T15:43:36Z</time>
      </trkpt>
      <trkpt lat="44.42374" lon="1.61592">
        <ele>326</ele>
        <time>2024-03-13T15:43:37Z</time>
      </trkpt>
      <trkpt lat="44.42373" lon="1.61592">
        <ele>326</ele>
        <time>2024-03-13T15:43:38Z</time>
      </trkpt>
      <trkpt lat="44.42372" lon="1.61593">
        <ele>326</ele>
        <time>2024-03-13T15:43:39Z</time>
      </trkpt>
      <trkpt lat="44.42371" lon="1.61594">
        <ele>326</ele>
        <time>2024-03-13T15:43:40Z</time>
      </trkpt>
      <trkpt lat="44.42371" lon="1.61595">
        <ele>326</ele>
        <time>2024-03-13T15:43:41Z</time>
      </trkpt>
      <trkpt lat="44.4237" lon="1.61595">
        <ele>326</ele>
        <time>2024-03-13T15:43:42Z</time>
      </trkpt>
      <trkpt lat="44.42369" lon="1.61596">
        <ele>326</ele>
        <time>2024-03-13T15:43:43Z</time>
      </trkpt>
      <trkpt lat="44.42369" lon="1.61596">
        <ele>326</ele>
        <time>2024-03-13T15:43:44Z</time>
      </trkpt>
      <trkpt lat="44.42368" lon="1.61597">
        <ele>326</ele>
        <time>2024-03-13T15:43:45Z</time>
      </trkpt>
      <trkpt lat="44.42368" lon="1.61598">
        <ele>326</ele>
        <time>2024-03-13T15:43:46Z</time>
      </trkpt>
      <trkpt lat="44.42368" lon="1.61599">
        <ele>326</ele>
        <time>2024-03-13T15:43:47Z</time>
      </trkpt>
      <trkpt lat="44.42368" lon="1.616">
        <ele>326</ele>
        <time>2024-03-13T15:43:48Z</time>
      </trkpt>
      <trkpt lat="44.42368" lon="1.61602">
        <ele>326</ele>
        <time>2024-03-13T15:43:49Z</time>
      </trkpt>
      <trkpt lat="44.42369" lon="1.61603">
        <ele>325</ele>
        <time>2024-03-13T15:43:50Z</time>
      </trkpt>
      <trkpt lat="44.42369" lon="1.61604">
        <ele>325</ele>
        <time>2024-03-13T15:43:51Z</time>
      </trkpt>
      <trkpt lat="44.4237" lon="1.61605">
        <ele>325</ele>
        <time>2024-03-13T15:43:52Z</time>
      </trkpt>
      <trkpt lat="44.42371" lon="1.61606">
        <ele>325</ele>
        <time>2024-03-13T15:43:53Z</time>
      </trkpt>
      <trkpt lat="44.42371" lon="1.61607">
        <ele>324</ele>
        <time>2024-03-13T15:43:54Z</time>
      </trkpt>
      <trkpt lat="44.42372" lon="1.61608">
        <ele>324</ele>
        <time>2024-03-13T15:43:55Z</time>
      </trkpt>
      <trkpt lat="44.42373" lon="1.61609">
        <ele>324</ele>
        <time>2024-03-13T15:43:56Z</time>
      </trkpt>
      <trkpt lat="44.42374" lon="1.61611">
        <ele>323</ele>
        <time>2024-03-13T15:43:57Z</time>
      </trkpt>
      <trkpt lat="44.42374" lon="1.61612">
        <ele>323</ele>
        <time>2024-03-13T15:43:58Z</time>
      </trkpt>
      <trkpt lat="44.42375" lon="1.61613">
        <ele>323</ele>
        <time>2024-03-13T15:43:59Z</time>
      </trkpt>
      <trkpt lat="44.42376" lon="1.61613">
        <ele>324</ele>
        <time>2024-03-13T15:44:00Z</time>
      </trkpt>
      <trkpt lat="44.42377" lon="1.61614">
        <ele>324</ele>
        <time>2024-03-13T15:44:01Z</time>
      </trkpt>
      <trkpt lat="44.42379" lon="1.61615">
        <ele>324</ele>
        <time>2024-03-13T15:44:02Z</time>
      </trkpt>
      <trkpt lat="44.42379" lon="1.61616">
        <ele>323</ele>
        <time>2024-03-13T15:44:03Z</time>
      </trkpt>
      <trkpt lat="44.42381" lon="1.61617">
        <ele>323</ele>
        <time>2024-03-13T15:44:04Z</time>
      </trkpt>
      <trkpt lat="44.42381" lon="1.61618">
        <ele>323</ele>
        <time>2024-03-13T15:44:05Z</time>
      </trkpt>
      <trkpt lat="44.42382" lon="1.61619">
        <ele>323</ele>
        <time>2024-03-13T15:44:06Z</time>
      </trkpt>
      <trkpt lat="44.42383" lon="1.6162">
        <ele>323</ele>
        <time>2024-03-13T15:44:07Z</time>
      </trkpt>
      <trkpt lat="44.42384" lon="1.61621">
        <ele>322</ele>
        <time>2024-03-13T15:44:08Z</time>
      </trkpt>
      <trkpt lat="44.42385" lon="1.61622">
        <ele>322</ele>
        <time>2024-03-13T15:44:09Z</time>
      </trkpt>
      <trkpt lat="44.42386" lon="1.61623">
        <ele>322</ele>
        <time>2024-03-13T15:44:10Z</time>
      </trkpt>
      <trkpt lat="44.42387" lon="1.61624">
        <ele>322</ele>
        <time>2024-03-13T15:44:11Z</time>
      </trkpt>
      <trkpt lat="44.42388" lon="1.61625">
        <ele>322</ele>
        <time>2024-03-13T15:44:12Z</time>
      </trkpt>
      <trkpt lat="44.42389" lon="1.61626">
        <ele>322</ele>
        <time>2024-03-13T15:44:13Z</time>
      </trkpt>
      <trkpt lat="44.42389" lon="1.61627">
        <ele>322</ele>
        <time>2024-03-13T15:44:14Z</time>
      </trkpt>
      <trkpt lat="44.4239" lon="1.61628">
        <ele>321</ele>
        <time>2024-03-13T15:44:15Z</time>
      </trkpt>
      <trkpt lat="44.4239" lon="1.61629">
        <ele>321</ele>
        <time>2024-03-13T15:44:16Z</time>
      </trkpt>
      <trkpt lat="44.42391" lon="1.6163">
        <ele>321</ele>
        <time>2024-03-13T15:44:17Z</time>
      </trkpt>
      <trkpt lat="44.42392" lon="1.61632">
        <ele>321</ele>
        <time>2024-03-13T15:44:18Z</time>
      </trkpt>
      <trkpt lat="44.42392" lon="1.61633">
        <ele>321</ele>
        <time>2024-03-13T15:44:19Z</time>
      </trkpt>
      <trkpt lat="44.42392" lon="1.61634">
        <ele>321</ele>
        <time>2024-03-13T15:44:20Z</time>
      </trkpt>
      <trkpt lat="44.42392" lon="1.61635">
        <ele>321</ele>
        <time>2024-03-13T15:44:21Z</time>
      </trkpt>
      <trkpt lat="44.42393" lon="1.61637">
        <ele>321</ele>
        <time>2024-03-13T15:44:22Z</time>
      </trkpt>
      <trkpt lat="44.42393" lon="1.61638">
        <ele>321</ele>
        <time>2024-03-13T15:44:23Z</time>
      </trkpt>
      <trkpt lat="44.42393" lon="1.6164">
        <ele>321</ele>
        <time>2024-03-13T15:44:24Z</time>
      </trkpt>
      <trkpt lat="44.42394" lon="1.61641">
        <ele>321</ele>
        <time>2024-03-13T15:44:25Z</time>
      </trkpt>
      <trkpt lat="44.42393" lon="1.61643">
        <ele>321</ele>
        <time>2024-03-13T15:44:26Z</time>
      </trkpt>
      <trkpt lat="44.42393" lon="1.61644">
        <ele>320</ele>
        <time>2024-03-13T15:44:27Z</time>
      </trkpt>
      <trkpt lat="44.42393" lon="1.61645">
        <ele>321</ele>
        <time>2024-03-13T15:44:28Z</time>
      </trkpt>
      <trkpt lat="44.42394" lon="1.61647">
        <ele>321</ele>
        <time>2024-03-13T15:44:29Z</time>
      </trkpt>
      <trkpt lat="44.42394" lon="1.61649">
        <ele>321</ele>
        <time>2024-03-13T15:44:30Z</time>
      </trkpt>
      <trkpt lat="44.42393" lon="1.6165">
        <ele>321</ele>
        <time>2024-03-13T15:44:31Z</time>
      </trkpt>
      <trkpt lat="44.42393" lon="1.61652">
        <ele>321</ele>
        <time>2024-03-13T15:44:32Z</time>
      </trkpt>
      <trkpt lat="44.42394" lon="1.61653">
        <ele>322</ele>
        <time>2024-03-13T15:44:33Z</time>
      </trkpt>
      <trkpt lat="44.42393" lon="1.61654">
        <ele>322</ele>
        <time>2024-03-13T15:44:34Z</time>
      </trkpt>
      <trkpt lat="44.42393" lon="1.61656">
        <ele>322</ele>
        <time>2024-03-13T15:44:35Z</time>
      </trkpt>
      <trkpt lat="44.42393" lon="1.61657">
        <ele>322</ele>
        <time>2024-03-13T15:44:36Z</time>
      </trkpt>
      <trkpt lat="44.42392" lon="1.61658">
        <ele>322</ele>
        <time>2024-03-13T15:44:37Z</time>
      </trkpt>
      <trkpt lat="44.42392" lon="1.6166">
        <ele>322</ele>
        <time>2024-03-13T15:44:38Z</time>
      </trkpt>
      <trkpt lat="44.42391" lon="1.61661">
        <ele>322</ele>
        <time>2024-03-13T15:44:39Z</time>
      </trkpt>
      <trkpt lat="44.4239" lon="1.61662">
        <ele>323</ele>
        <time>2024-03-13T15:44:40Z</time>
      </trkpt>
      <trkpt lat="44.4239" lon="1.61663">
        <ele>322</ele>
        <time>2024-03-13T15:44:41Z</time>
      </trkpt>
      <trkpt lat="44.42389" lon="1.61664">
        <ele>322</ele>
        <time>2024-03-13T15:44:42Z</time>
      </trkpt>
      <trkpt lat="44.42389" lon="1.61665">
        <ele>323</ele>
        <time>2024-03-13T15:44:43Z</time>
      </trkpt>
      <trkpt lat="44.42388" lon="1.61666">
        <ele>323</ele>
        <time>2024-03-13T15:44:44Z</time>
      </trkpt>
      <trkpt lat="44.42387" lon="1.61667">
        <ele>323</ele>
        <time>2024-03-13T15:44:45Z</time>
      </trkpt>
      <trkpt lat="44.42386" lon="1.61668">
        <ele>323</ele>
        <time>2024-03-13T15:44:46Z</time>
      </trkpt>
      <trkpt lat="44.42385" lon="1.61669">
        <ele>323</ele>
        <time>2024-03-13T15:44:47Z</time>
      </trkpt>
      <trkpt lat="44.42384" lon="1.6167">
        <ele>322</ele>
        <time>2024-03-13T15:44:48Z</time>
      </trkpt>
      <trkpt lat="44.42383" lon="1.61671">
        <ele>323</ele>
        <time>2024-03-13T15:44:49Z</time>
      </trkpt>
      <trkpt lat="44.42382" lon="1.61672">
        <ele>323</ele>
        <time>2024-03-13T15:44:50Z</time>
      </trkpt>
      <trkpt lat="44.42381" lon="1.61673">
        <ele>323</ele>
        <time>2024-03-13T15:44:51Z</time>
      </trkpt>
      <trkpt lat="44.42381" lon="1.61674">
        <ele>324</ele>
        <time>2024-03-13T15:44:52Z</time>
      </trkpt>
      <trkpt lat="44.4238" lon="1.61675">
        <ele>324</ele>
        <time>2024-03-13T15:44:53Z</time>
      </trkpt>
      <trkpt lat="44.42379" lon="1.61675">
        <ele>324</ele>
        <time>2024-03-13T15:44:54Z</time>
      </trkpt>
      <trkpt lat="44.42379" lon="1.61676">
        <ele>324</ele>
        <time>2024-03-13T15:44:55Z</time>
      </trkpt>
      <trkpt lat="44.42378" lon="1.61677">
        <ele>324</ele>
        <time>2024-03-13T15:44:56Z</time>
      </trkpt>
      <trkpt lat="44.42378" lon="1.61677">
        <ele>324</ele>
        <time>2024-03-13T15:44:57Z</time>
      </trkpt>
      <trkpt lat="44.42378" lon="1.61677">
        <ele>324</ele>
        <time>2024-03-13T15:44:58Z</time>
      </trkpt>
      <trkpt lat="44.42377" lon="1.61678">
        <ele>324</ele>
        <time>2024-03-13T15:44:59Z</time>
      </trkpt>
      <trkpt lat="44.42377" lon="1.61678">
        <ele>324</ele>
        <time>2024-03-13T15:45:00Z</time>
      </trkpt>
      <trkpt lat="44.42377" lon="1.61678">
        <ele>324</ele>
        <time>2024-03-13T15:45:01Z</time>
      </trkpt>
      <trkpt lat="44.42377" lon="1.61678">
        <ele>324</ele>
        <time>2024-03-13T15:45:02Z</time>
      </trkpt>
      <trkpt lat="44.42377" lon="1.61678">
        <ele>324</ele>
        <time>2024-03-13T15:45:03Z</time>
      </trkpt>
      <trkpt lat="44.42377" lon="1.61678">
        <ele>324</ele>
        <time>2024-03-13T15:45:04Z</time>
      </trkpt>
      <trkpt lat="44.42377" lon="1.61678">
        <ele>324</ele>
        <time>2024-03-13T15:45:05Z</time>
      </trkpt>
      <trkpt lat="44.42377" lon="1.61678">
        <ele>324</ele>
        <time>2024-03-13T15:45:06Z</time>
      </trkpt>
      <trkpt lat="44.42377" lon="1.6168">
        <ele>324</ele>
        <time>2024-03-13T15:45:07Z</time>
      </trkpt>
      <trkpt lat="44.42377" lon="1.6168">
        <ele>324</ele>
        <time>2024-03-13T15:45:08Z</time>
      </trkpt>
      <trkpt lat="44.42376" lon="1.61681">
        <ele>324</ele>
        <time>2024-03-13T15:45:09Z</time>
      </trkpt>
      <trkpt lat="44.42375" lon="1.61682">
        <ele>324</ele>
        <time>2024-03-13T15:45:10Z</time>
      </trkpt>
      <trkpt lat="44.42375" lon="1.61683">
        <ele>324</ele>
        <time>2024-03-13T15:45:11Z</time>
      </trkpt>
      <trkpt lat="44.42374" lon="1.61684">
        <ele>324</ele>
        <time>2024-03-13T15:45:12Z</time>
      </trkpt>
      <trkpt lat="44.42373" lon="1.61684">
        <ele>323</ele>
        <time>2024-03-13T15:45:13Z</time>
      </trkpt>
      <trkpt lat="44.42372" lon="1.61685">
        <ele>324</ele>
        <time>2024-03-13T15:45:14Z</time>
      </trkpt>
      <trkpt lat="44.42371" lon="1.61685">
        <ele>324</ele>
        <time>2024-03-13T15:45:15Z</time>
      </trkpt>
      <trkpt lat="44.4237" lon="1.61686">
        <ele>324</ele>
        <time>2024-03-13T15:45:16Z</time>
      </trkpt>
      <trkpt lat="44.42369" lon="1.61687">
        <ele>323</ele>
        <time>2024-03-13T15:45:17Z</time>
      </trkpt>
      <trkpt lat="44.42369" lon="1.61688">
        <ele>323</ele>
        <time>2024-03-13T15:45:18Z</time>
      </trkpt>
      <trkpt lat="44.42369" lon="1.61689">
        <ele>324</ele>
        <time>2024-03-13T15:45:19Z</time>
      </trkpt>
      <trkpt lat="44.42368" lon="1.61689">
        <ele>324</ele>
        <time>2024-03-13T15:45:20Z</time>
      </trkpt>
      <trkpt lat="44.42368" lon="1.61689">
        <ele>324</ele>
        <time>2024-03-13T15:45:21Z</time>
      </trkpt>
      <trkpt lat="44.42368" lon="1.61689">
        <ele>324</ele>
        <time>2024-03-13T15:45:22Z</time>
      </trkpt>
      <trkpt lat="44.42368" lon="1.61689">
        <ele>324</ele>
        <time>2024-03-13T15:45:23Z</time>
      </trkpt>
      <trkpt lat="44.42368" lon="1.61689">
        <ele>324</ele>
        <time>2024-03-13T15:45:24Z</time>
      </trkpt>
      <trkpt lat="44.42367" lon="1.61691">
        <ele>323</ele>
        <time>2024-03-13T15:45:25Z</time>
      </trkpt>
      <trkpt lat="44.42366" lon="1.61692">
        <ele>323</ele>
        <time>2024-03-13T15:45:26Z</time>
      </trkpt>
      <trkpt lat="44.42366" lon="1.61692">
        <ele>324</ele>
        <time>2024-03-13T15:45:27Z</time>
      </trkpt>
      <trkpt lat="44.42365" lon="1.61693">
        <ele>324</ele>
        <time>2024-03-13T15:45:28Z</time>
      </trkpt>
      <trkpt lat="44.42365" lon="1.61694">
        <ele>324</ele>
        <time>2024-03-13T15:45:29Z</time>
      </trkpt>
      <trkpt lat="44.42364" lon="1.61694">
        <ele>324</ele>
        <time>2024-03-13T15:45:30Z</time>
      </trkpt>
      <trkpt lat="44.42364" lon="1.61695">
        <ele>324</ele>
        <time>2024-03-13T15:45:31Z</time>
      </trkpt>
      <trkpt lat="44.42363" lon="1.61696">
        <ele>324</ele>
        <time>2024-03-13T15:45:32Z</time>
      </trkpt>
      <trkpt lat="44.42363" lon="1.61697">
        <ele>324</ele>
        <time>2024-03-13T15:45:33Z</time>
      </trkpt>
      <trkpt lat="44.42363" lon="1.61698">
        <ele>324</ele>
        <time>2024-03-13T15:45:34Z</time>
      </trkpt>
      <trkpt lat="44.42363" lon="1.61699">
        <ele>324</ele>
        <time>2024-03-13T15:45:35Z</time>
      </trkpt>
      <trkpt lat="44.42362" lon="1.617">
        <ele>324</ele>
        <time>2024-03-13T15:45:36Z</time>
      </trkpt>
      <trkpt lat="44.42361" lon="1.617">
        <ele>324</ele>
        <time>2024-03-13T15:45:37Z</time>
      </trkpt>
      <trkpt lat="44.42361" lon="1.617">
        <ele>324</ele>
        <time>2024-03-13T15:45:38Z</time>
      </trkpt>
      <trkpt lat="44.4236" lon="1.61701">
        <ele>324</ele>
        <time>2024-03-13T15:45:39Z</time>
      </trkpt>
      <trkpt lat="44.4236" lon="1.61701">
        <ele>324</ele>
        <time>2024-03-13T15:45:40Z</time>
      </trkpt>
      <trkpt lat="44.4236" lon="1.61701">
        <ele>324</ele>
        <time>2024-03-13T15:45:41Z</time>
      </trkpt>
      <trkpt lat="44.4236" lon="1.61701">
        <ele>324</ele>
        <time>2024-03-13T15:45:42Z</time>
      </trkpt>
      <trkpt lat="44.4236" lon="1.61701">
        <ele>324</ele>
        <time>2024-03-13T15:45:43Z</time>
      </trkpt>
      <trkpt lat="44.4236" lon="1.61701">
        <ele>324</ele>
        <time>2024-03-13T15:45:44Z</time>
      </trkpt>
      <trkpt lat="44.4236" lon="1.61701">
        <ele>324</ele>
        <time>2024-03-13T15:45:45Z</time>
      </trkpt>
      <trkpt lat="44.4236" lon="1.61701">
        <ele>324</ele>
        <time>2024-03-13T15:45:46Z</time>
      </trkpt>
      <trkpt lat="44.4236" lon="1.61701">
        <ele>324</ele>
        <time>2024-03-13T15:45:47Z</time>
      </trkpt>
      <trkpt lat="44.4236" lon="1.61701">
        <ele>324</ele>
        <time>2024-03-13T15:45:48Z</time>
      </trkpt>
      <trkpt lat="44.4236" lon="1.61703">
        <ele>323</ele>
        <time>2024-03-13T15:45:49Z</time>
      </trkpt>
      <trkpt lat="44.4236" lon="1.61704">
        <ele>323</ele>
        <time>2024-03-13T15:45:50Z</time>
      </trkpt>
      <trkpt lat="44.42359" lon="1.61705">
        <ele>323</ele>
        <time>2024-03-13T15:45:51Z</time>
      </trkpt>
      <trkpt lat="44.42359" lon="1.61706">
        <ele>323</ele>
        <time>2024-03-13T15:45:52Z</time>
      </trkpt>
      <trkpt lat="44.42358" lon="1.61707">
        <ele>323</ele>
        <time>2024-03-13T15:45:53Z</time>
      </trkpt>
      <trkpt lat="44.42358" lon="1.61708">
        <ele>323</ele>
        <time>2024-03-13T15:45:54Z</time>
      </trkpt>
      <trkpt lat="44.42357" lon="1.61708">
        <ele>324</ele>
        <time>2024-03-13T15:45:55Z</time>
      </trkpt>
      <trkpt lat="44.42357" lon="1.61709">
        <ele>324</ele>
        <time>2024-03-13T15:45:56Z</time>
      </trkpt>
      <trkpt lat="44.42356" lon="1.6171">
        <ele>325</ele>
        <time>2024-03-13T15:45:57Z</time>
      </trkpt>
      <trkpt lat="44.42356" lon="1.61712">
        <ele>325</ele>
        <time>2024-03-13T15:45:58Z</time>
      </trkpt>
      <trkpt lat="44.42356" lon="1.61713">
        <ele>325</ele>
        <time>2024-03-13T15:45:59Z</time>
      </trkpt>
      <trkpt lat="44.42355" lon="1.61714">
        <ele>325</ele>
        <time>2024-03-13T15:46:00Z</time>
      </trkpt>
      <trkpt lat="44.42355" lon="1.61715">
        <ele>324</ele>
        <time>2024-03-13T15:46:01Z</time>
      </trkpt>
      <trkpt lat="44.42354" lon="1.61716">
        <ele>324</ele>
        <time>2024-03-13T15:46:02Z</time>
      </trkpt>
      <trkpt lat="44.42354" lon="1.61718">
        <ele>324</ele>
        <time>2024-03-13T15:46:03Z</time>
      </trkpt>
      <trkpt lat="44.42353" lon="1.61719">
        <ele>324</ele>
        <time>2024-03-13T15:46:04Z</time>
      </trkpt>
      <trkpt lat="44.42353" lon="1.6172">
        <ele>324</ele>
        <time>2024-03-13T15:46:05Z</time>
      </trkpt>
      <trkpt lat="44.42353" lon="1.61721">
        <ele>324</ele>
        <time>2024-03-13T15:46:06Z</time>
      </trkpt>
      <trkpt lat="44.42352" lon="1.61722">
        <ele>324</ele>
        <time>2024-03-13T15:46:07Z</time>
      </trkpt>
      <trkpt lat="44.42352" lon="1.61724">
        <ele>324</ele>
        <time>2024-03-13T15:46:08Z</time>
      </trkpt>
      <trkpt lat="44.42352" lon="1.61725">
        <ele>324</ele>
        <time>2024-03-13T15:46:09Z</time>
      </trkpt>
      <trkpt lat="44.42351" lon="1.61726">
        <ele>325</ele>
        <time>2024-03-13T15:46:10Z</time>
      </trkpt>
      <trkpt lat="44.42351" lon="1.61727">
        <ele>325</ele>
        <time>2024-03-13T15:46:11Z</time>
      </trkpt>
      <trkpt lat="44.42351" lon="1.61729">
        <ele>325</ele>
        <time>2024-03-13T15:46:12Z</time>
      </trkpt>
      <trkpt lat="44.42351" lon="1.6173">
        <ele>325</ele>
        <time>2024-03-13T15:46:13Z</time>
      </trkpt>
      <trkpt lat="44.42351" lon="1.61731">
        <ele>325</ele>
        <time>2024-03-13T15:46:14Z</time>
      </trkpt>
      <trkpt lat="44.42351" lon="1.61732">
        <ele>325</ele>
        <time>2024-03-13T15:46:15Z</time>
      </trkpt>
      <trkpt lat="44.42351" lon="1.61733">
        <ele>326</ele>
        <time>2024-03-13T15:46:16Z</time>
      </trkpt>
      <trkpt lat="44.42351" lon="1.61734">
        <ele>326</ele>
        <time>2024-03-13T15:46:17Z</time>
      </trkpt>
      <trkpt lat="44.42351" lon="1.61736">
        <ele>326</ele>
        <time>2024-03-13T15:46:18Z</time>
      </trkpt>
      <trkpt lat="44.42351" lon="1.61737">
        <ele>326</ele>
        <time>2024-03-13T15:46:19Z</time>
      </trkpt>
      <trkpt lat="44.42351" lon="1.61738">
        <ele>326</ele>
        <time>2024-03-13T15:46:20Z</time>
      </trkpt>
      <trkpt lat="44.42351" lon="1.61739">
        <ele>326</ele>
        <time>2024-03-13T15:46:21Z</time>
      </trkpt>
      <trkpt lat="44.42351" lon="1.61741">
        <ele>326</ele>
        <time>2024-03-13T15:46:22Z</time>
      </trkpt>
      <trkpt lat="44.42351" lon="1.61742">
        <ele>326</ele>
        <time>2024-03-13T15:46:23Z</time>
      </trkpt>
      <trkpt lat="44.42351" lon="1.61743">
        <ele>326</ele>
        <time>2024-03-13T15:46:24Z</time>
      </trkpt>
      <trkpt lat="44.42352" lon="1.61744">
        <ele>326</ele>
        <time>2024-03-13T15:46:25Z</time>
      </trkpt>
      <trkpt lat="44.42352" lon="1.61745">
        <ele>326</ele>
        <time>2024-03-13T15:46:26Z</time>
      </trkpt>
      <trkpt lat="44.42352" lon="1.61747">
        <ele>326</ele>
        <time>2024-03-13T15:46:27Z</time>
      </trkpt>
      <trkpt lat="44.42352" lon="1.61748">
        <ele>326</ele>
        <time>2024-03-13T15:46:28Z</time>
      </trkpt>
      <trkpt lat="44.42352" lon="1.61749">
        <ele>326</ele>
        <time>2024-03-13T15:46:29Z</time>
      </trkpt>
      <trkpt lat="44.42353" lon="1.6175">
        <ele>326</ele>
        <time>2024-03-13T15:46:30Z</time>
      </trkpt>
      <trkpt lat="44.42353" lon="1.6175">
        <ele>326</ele>
        <time>2024-03-13T15:46:31Z</time>
      </trkpt>
      <trkpt lat="44.42354" lon="1.61751">
        <ele>326</ele>
        <time>2024-03-13T15:46:32Z</time>
      </trkpt>
      <trkpt lat="44.42354" lon="1.61751">
        <ele>326</ele>
        <time>2024-03-13T15:46:33Z</time>
      </trkpt>
      <trkpt lat="44.42354" lon="1.61751">
        <ele>326</ele>
        <time>2024-03-13T15:46:34Z</time>
      </trkpt>
      <trkpt lat="44.42354" lon="1.61751">
        <ele>326</ele>
        <time>2024-03-13T15:46:35Z</time>
      </trkpt>
      <trkpt lat="44.42354" lon="1.61751">
        <ele>326</ele>
        <time>2024-03-13T15:46:36Z</time>
      </trkpt>
      <trkpt lat="44.42354" lon="1.61751">
        <ele>326</ele>
        <time>2024-03-13T15:46:37Z</time>
      </trkpt>
      <trkpt lat="44.42354" lon="1.61751">
        <ele>326</ele>
        <time>2024-03-13T15:46:38Z</time>
      </trkpt>
      <trkpt lat="44.42354" lon="1.61751">
        <ele>327</ele>
        <time>2024-03-13T15:46:39Z</time>
      </trkpt>
      <trkpt lat="44.42354" lon="1.61752">
        <ele>327</ele>
        <time>2024-03-13T15:46:40Z</time>
      </trkpt>
      <trkpt lat="44.42354" lon="1.61752">
        <ele>327</ele>
        <time>2024-03-13T15:46:41Z</time>
      </trkpt>
      <trkpt lat="44.42354" lon="1.61752">
        <ele>327</ele>
        <time>2024-03-13T15:46:42Z</time>
      </trkpt>
      <trkpt lat="44.42354" lon="1.61752">
        <ele>327</ele>
        <time>2024-03-13T15:46:43Z</time>
      </trkpt>
      <trkpt lat="44.42354" lon="1.61752">
        <ele>327</ele>
        <time>2024-03-13T15:46:44Z</time>
      </trkpt>
      <trkpt lat="44.42354" lon="1.61752">
        <ele>327</ele>
        <time>2024-03-13T15:46:45Z</time>
      </trkpt>
      <trkpt lat="44.42354" lon="1.61752">
        <ele>327</ele>
        <time>2024-03-13T15:46:46Z</time>
      </trkpt>
      <trkpt lat="44.42354" lon="1.61752">
        <ele>327</ele>
        <time>2024-03-13T15:46:47Z</time>
      </trkpt>
      <trkpt lat="44.42354" lon="1.61752">
        <ele>327</ele>
        <time>2024-03-13T15:46:48Z</time>
      </trkpt>
      <trkpt lat="44.42354" lon="1.61752">
        <ele>327</ele>
        <time>2024-03-13T15:46:49Z</time>
      </trkpt>
      <trkpt lat="44.42354" lon="1.61752">
        <ele>327</ele>
        <time>2024-03-13T15:46:50Z</time>
      </trkpt>
      <trkpt lat="44.42354" lon="1.61752">
        <ele>327</ele>
        <time>2024-03-13T15:46:51Z</time>
      </trkpt>
      <trkpt lat="44.42354" lon="1.61752">
        <ele>327</ele>
        <time>2024-03-13T15:46:52Z</time>
      </trkpt>
      <trkpt lat="44.42354" lon="1.61752">
        <ele>327</ele>
        <time>2024-03-13T15:46:53Z</time>
      </trkpt>
      <trkpt lat="44.42354" lon="1.61752">
        <ele>327</ele>
        <time>2024-03-13T15:46:54Z</time>
      </trkpt>
      <trkpt lat="44.42354" lon="1.61752">
        <ele>327</ele>
        <time>2024-03-13T15:46:55Z</time>
      </trkpt>
      <trkpt lat="44.42354" lon="1.61752">
        <ele>327</ele>
        <time>2024-03-13T15:46:56Z</time>
      </trkpt>
      <trkpt lat="44.42354" lon="1.61752">
        <ele>327</ele>
        <time>2024-03-13T15:46:57Z</time>
      </trkpt>
      <trkpt lat="44.42353" lon="1.61753">
        <ele>326</ele>
        <time>2024-03-13T15:46:58Z</time>
      </trkpt>
      <trkpt lat="44.42353" lon="1.61754">
        <ele>327</ele>
        <time>2024-03-13T15:46:59Z</time>
      </trkpt>
      <trkpt lat="44.42353" lon="1.61755">
        <ele>327</ele>
        <time>2024-03-13T15:47:00Z</time>
      </trkpt>
      <trkpt lat="44.42354" lon="1.61756">
        <ele>327</ele>
        <time>2024-03-13T15:47:01Z</time>
      </trkpt>
      <trkpt lat="44.42354" lon="1.61757">
        <ele>327</ele>
        <time>2024-03-13T15:47:02Z</time>
      </trkpt>
      <trkpt lat="44.42354" lon="1.61758">
        <ele>327</ele>
        <time>2024-03-13T15:47:03Z</time>
      </trkpt>
      <trkpt lat="44.42355" lon="1.61759">
        <ele>327</ele>
        <time>2024-03-13T15:47:04Z</time>
      </trkpt>
      <trkpt lat="44.42355" lon="1.61759">
        <ele>326</ele>
        <time>2024-03-13T15:47:05Z</time>
      </trkpt>
      <trkpt lat="44.42355" lon="1.61759">
        <ele>326</ele>
        <time>2024-03-13T15:47:06Z</time>
      </trkpt>
      <trkpt lat="44.42355" lon="1.61759">
        <ele>326</ele>
        <time>2024-03-13T15:47:07Z</time>
      </trkpt>
      <trkpt lat="44.42355" lon="1.61759">
        <ele>326</ele>
        <time>2024-03-13T15:47:08Z</time>
      </trkpt>
      <trkpt lat="44.42355" lon="1.61759">
        <ele>326</ele>
        <time>2024-03-13T15:47:09Z</time>
      </trkpt>
      <trkpt lat="44.42355" lon="1.61759">
        <ele>326</ele>
        <time>2024-03-13T15:47:10Z</time>
      </trkpt>
      <trkpt lat="44.42355" lon="1.61759">
        <ele>326</ele>
        <time>2024-03-13T15:47:11Z</time>
      </trkpt>
      <trkpt lat="44.42355" lon="1.61759">
        <ele>326</ele>
        <time>2024-03-13T15:47:12Z</time>
      </trkpt>
      <trkpt lat="44.42355" lon="1.61761">
        <ele>326</ele>
        <time>2024-03-13T15:47:13Z</time>
      </trkpt>
      <trkpt lat="44.42354" lon="1.61762">
        <ele>326</ele>
        <time>2024-03-13T15:47:14Z</time>
      </trkpt>
      <trkpt lat="44.42354" lon="1.61763">
        <ele>326</ele>
        <time>2024-03-13T15:47:15Z</time>
      </trkpt>
      <trkpt lat="44.42354" lon="1.61765">
        <ele>327</ele>
        <time>2024-03-13T15:47:16Z</time>
      </trkpt>
      <trkpt lat="44.42353" lon="1.61766">
        <ele>326</ele>
        <time>2024-03-13T15:47:17Z</time>
      </trkpt>
      <trkpt lat="44.42353" lon="1.61767">
        <ele>326</ele>
        <time>2024-03-13T15:47:18Z</time>
      </trkpt>
      <trkpt lat="44.42354" lon="1.61767">
        <ele>326</ele>
        <time>2024-03-13T15:47:19Z</time>
      </trkpt>
      <trkpt lat="44.42354" lon="1.61767">
        <ele>326</ele>
        <time>2024-03-13T15:47:20Z</time>
      </trkpt>
      <trkpt lat="44.42355" lon="1.61767">
        <ele>326</ele>
        <time>2024-03-13T15:47:21Z</time>
      </trkpt>
      <trkpt lat="44.42355" lon="1.61767">
        <ele>326</ele>
        <time>2024-03-13T15:47:22Z</time>
      </trkpt>
      <trkpt lat="44.42355" lon="1.61767">
        <ele>326</ele>
        <time>2024-03-13T15:47:23Z</time>
      </trkpt>
      <trkpt lat="44.42355" lon="1.61767">
        <ele>326</ele>
        <time>2024-03-13T15:47:24Z</time>
      </trkpt>
      <trkpt lat="44.42355" lon="1.61767">
        <ele>326</ele>
        <time>2024-03-13T15:47:25Z</time>
      </trkpt>
      <trkpt lat="44.42355" lon="1.61767">
        <ele>326</ele>
        <time>2024-03-13T15:47:26Z</time>
      </trkpt>
      <trkpt lat="44.42355" lon="1.61767">
        <ele>326</ele>
        <time>2024-03-13T15:47:27Z</time>
      </trkpt>
      <trkpt lat="44.42355" lon="1.61767">
        <ele>326</ele>
        <time>2024-03-13T15:47:28Z</time>
      </trkpt>
      <trkpt lat="44.42355" lon="1.61767">
        <ele>326</ele>
        <time>2024-03-13T15:47:29Z</time>
      </trkpt>
      <trkpt lat="44.42355" lon="1.61767">
        <ele>326</ele>
        <time>2024-03-13T15:47:30Z</time>
      </trkpt>
      <trkpt lat="44.42355" lon="1.61767">
        <ele>326</ele>
        <time>2024-03-13T15:47:31Z</time>
      </trkpt>
      <trkpt lat="44.42355" lon="1.61767">
        <ele>326</ele>
        <time>2024-03-13T15:47:32Z</time>
      </trkpt>
      <trkpt lat="44.42355" lon="1.61767">
        <ele>326</ele>
        <time>2024-03-13T15:47:33Z</time>
      </trkpt>
      <trkpt lat="44.42355" lon="1.61767">
        <ele>326</ele>
        <time>2024-03-13T15:47:34Z</time>
      </trkpt>
      <trkpt lat="44.42355" lon="1.61767">
        <ele>326</ele>
        <time>2024-03-13T15:47:35Z</time>
      </trkpt>
      <trkpt lat="44.42355" lon="1.61767">
        <ele>326</ele>
        <time>2024-03-13T15:47:36Z</time>
      </trkpt>
      <trkpt lat="44.42355" lon="1.61767">
        <ele>326</ele>
        <time>2024-03-13T15:47:37Z</time>
      </trkpt>
      <trkpt lat="44.42355" lon="1.61767">
        <ele>326</ele>
        <time>2024-03-13T15:47:38Z</time>
      </trkpt>
      <trkpt lat="44.42355" lon="1.61767">
        <ele>326</ele>
        <time>2024-03-13T15:47:39Z</time>
      </trkpt>
      <trkpt lat="44.42355" lon="1.61767">
        <ele>326</ele>
        <time>2024-03-13T15:47:40Z</time>
      </trkpt>
      <trkpt lat="44.42355" lon="1.61767">
        <ele>326</ele>
        <time>2024-03-13T15:47:41Z</time>
      </trkpt>
      <trkpt lat="44.42355" lon="1.61767">
        <ele>326</ele>
        <time>2024-03-13T15:47:42Z</time>
      </trkpt>
      <trkpt lat="44.42355" lon="1.61767">
        <ele>326</ele>
        <time>2024-03-13T15:47:43Z</time>
      </trkpt>
      <trkpt lat="44.42355" lon="1.61767">
        <ele>326</ele>
        <time>2024-03-13T15:47:44Z</time>
      </trkpt>
      <trkpt lat="44.42355" lon="1.61767">
        <ele>326</ele>
        <time>2024-03-13T15:47:45Z</time>
      </trkpt>
      <trkpt lat="44.42355" lon="1.61767">
        <ele>326</ele>
        <time>2024-03-13T15:47:46Z</time>
      </trkpt>
      <trkpt lat="44.42355" lon="1.61767">
        <ele>326</ele>
        <time>2024-03-13T15:47:47Z</time>
      </trkpt>
      <trkpt lat="44.42355" lon="1.61767">
        <ele>326</ele>
        <time>2024-03-13T15:47:48Z</time>
      </trkpt>
      <trkpt lat="44.42355" lon="1.61767">
        <ele>326</ele>
        <time>2024-03-13T15:47:49Z</time>
      </trkpt>
      <trkpt lat="44.42355" lon="1.61769">
        <ele>327</ele>
        <time>2024-03-13T15:47:50Z</time>
      </trkpt>
      <trkpt lat="44.42355" lon="1.6177">
        <ele>327</ele>
        <time>2024-03-13T15:47:51Z</time>
      </trkpt>
      <trkpt lat="44.42355" lon="1.61771">
        <ele>326</ele>
        <time>2024-03-13T15:47:52Z</time>
      </trkpt>
      <trkpt lat="44.42354" lon="1.61773">
        <ele>326</ele>
        <time>2024-03-13T15:47:53Z</time>
      </trkpt>
      <trkpt lat="44.42354" lon="1.61774">
        <ele>327</ele>
        <time>2024-03-13T15:47:54Z</time>
      </trkpt>
      <trkpt lat="44.42354" lon="1.61775">
        <ele>327</ele>
        <time>2024-03-13T15:47:55Z</time>
      </trkpt>
      <trkpt lat="44.42354" lon="1.61777">
        <ele>326</ele>
        <time>2024-03-13T15:47:56Z</time>
      </trkpt>
      <trkpt lat="44.42354" lon="1.61777">
        <ele>327</ele>
        <time>2024-03-13T15:47:57Z</time>
      </trkpt>
      <trkpt lat="44.42354" lon="1.61779">
        <ele>327</ele>
        <time>2024-03-13T15:47:58Z</time>
      </trkpt>
      <trkpt lat="44.42355" lon="1.6178">
        <ele>327</ele>
        <time>2024-03-13T15:47:59Z</time>
      </trkpt>
      <trkpt lat="44.42355" lon="1.61781">
        <ele>326</ele>
        <time>2024-03-13T15:48:00Z</time>
      </trkpt>
      <trkpt lat="44.42355" lon="1.61782">
        <ele>326</ele>
        <time>2024-03-13T15:48:01Z</time>
      </trkpt>
      <trkpt lat="44.42356" lon="1.61784">
        <ele>326</ele>
        <time>2024-03-13T15:48:02Z</time>
      </trkpt>
      <trkpt lat="44.42356" lon="1.61786">
        <ele>326</ele>
        <time>2024-03-13T15:48:03Z</time>
      </trkpt>
      <trkpt lat="44.42356" lon="1.61788">
        <ele>326</ele>
        <time>2024-03-13T15:48:04Z</time>
      </trkpt>
      <trkpt lat="44.42356" lon="1.6179">
        <ele>326</ele>
        <time>2024-03-13T15:48:05Z</time>
      </trkpt>
      <trkpt lat="44.42356" lon="1.61791">
        <ele>327</ele>
        <time>2024-03-13T15:48:06Z</time>
      </trkpt>
      <trkpt lat="44.42356" lon="1.61793">
        <ele>327</ele>
        <time>2024-03-13T15:48:07Z</time>
      </trkpt>
      <trkpt lat="44.42356" lon="1.61794">
        <ele>327</ele>
        <time>2024-03-13T15:48:08Z</time>
      </trkpt>
      <trkpt lat="44.42356" lon="1.61795">
        <ele>327</ele>
        <time>2024-03-13T15:48:09Z</time>
      </trkpt>
      <trkpt lat="44.42356" lon="1.61797">
        <ele>328</ele>
        <time>2024-03-13T15:48:10Z</time>
      </trkpt>
      <trkpt lat="44.42356" lon="1.61798">
        <ele>328</ele>
        <time>2024-03-13T15:48:11Z</time>
      </trkpt>
      <trkpt lat="44.42356" lon="1.618">
        <ele>328</ele>
        <time>2024-03-13T15:48:12Z</time>
      </trkpt>
      <trkpt lat="44.42356" lon="1.61801">
        <ele>328</ele>
        <time>2024-03-13T15:48:13Z</time>
      </trkpt>
      <trkpt lat="44.42356" lon="1.61802">
        <ele>328</ele>
        <time>2024-03-13T15:48:14Z</time>
      </trkpt>
      <trkpt lat="44.42356" lon="1.61803">
        <ele>328</ele>
        <time>2024-03-13T15:48:15Z</time>
      </trkpt>
      <trkpt lat="44.42356" lon="1.61805">
        <ele>328</ele>
        <time>2024-03-13T15:48:16Z</time>
      </trkpt>
      <trkpt lat="44.42355" lon="1.61806">
        <ele>328</ele>
        <time>2024-03-13T15:48:17Z</time>
      </trkpt>
      <trkpt lat="44.42355" lon="1.61807">
        <ele>328</ele>
        <time>2024-03-13T15:48:18Z</time>
      </trkpt>
      <trkpt lat="44.42355" lon="1.61809">
        <ele>328</ele>
        <time>2024-03-13T15:48:19Z</time>
      </trkpt>
      <trkpt lat="44.42355" lon="1.61811">
        <ele>328</ele>
        <time>2024-03-13T15:48:20Z</time>
      </trkpt>
      <trkpt lat="44.42355" lon="1.61812">
        <ele>328</ele>
        <time>2024-03-13T15:48:21Z</time>
      </trkpt>
      <trkpt lat="44.42355" lon="1.61813">
        <ele>328</ele>
        <time>2024-03-13T15:48:22Z</time>
      </trkpt>
      <trkpt lat="44.42355" lon="1.61815">
        <ele>329</ele>
        <time>2024-03-13T15:48:23Z</time>
      </trkpt>
      <trkpt lat="44.42354" lon="1.61816">
        <ele>329</ele>
        <time>2024-03-13T15:48:24Z</time>
      </trkpt>
      <trkpt lat="44.42354" lon="1.61817">
        <ele>329</ele>
        <time>2024-03-13T15:48:25Z</time>
      </trkpt>
      <trkpt lat="44.42354" lon="1.61819">
        <ele>329</ele>
        <time>2024-03-13T15:48:26Z</time>
      </trkpt>
      <trkpt lat="44.42353" lon="1.6182">
        <ele>329</ele>
        <time>2024-03-13T15:48:27Z</time>
      </trkpt>
      <trkpt lat="44.42353" lon="1.61822">
        <ele>329</ele>
        <time>2024-03-13T15:48:28Z</time>
      </trkpt>
      <trkpt lat="44.42353" lon="1.61823">
        <ele>329</ele>
        <time>2024-03-13T15:48:29Z</time>
      </trkpt>
      <trkpt lat="44.42353" lon="1.61825">
        <ele>329</ele>
        <time>2024-03-13T15:48:30Z</time>
      </trkpt>
      <trkpt lat="44.42352" lon="1.61826">
        <ele>329</ele>
        <time>2024-03-13T15:48:31Z</time>
      </trkpt>
      <trkpt lat="44.42352" lon="1.61827">
        <ele>330</ele>
        <time>2024-03-13T15:48:32Z</time>
      </trkpt>
      <trkpt lat="44.42352" lon="1.61828">
        <ele>330</ele>
        <time>2024-03-13T15:48:33Z</time>
      </trkpt>
      <trkpt lat="44.42351" lon="1.6183">
        <ele>330</ele>
        <time>2024-03-13T15:48:34Z</time>
      </trkpt>
      <trkpt lat="44.4235" lon="1.61832">
        <ele>330</ele>
        <time>2024-03-13T15:48:35Z</time>
      </trkpt>
      <trkpt lat="44.4235" lon="1.61833">
        <ele>330</ele>
        <time>2024-03-13T15:48:36Z</time>
      </trkpt>
      <trkpt lat="44.4235" lon="1.61835">
        <ele>330</ele>
        <time>2024-03-13T15:48:37Z</time>
      </trkpt>
      <trkpt lat="44.42349" lon="1.61836">
        <ele>330</ele>
        <time>2024-03-13T15:48:38Z</time>
      </trkpt>
      <trkpt lat="44.42348" lon="1.61838">
        <ele>330</ele>
        <time>2024-03-13T15:48:39Z</time>
      </trkpt>
      <trkpt lat="44.42348" lon="1.61839">
        <ele>330</ele>
        <time>2024-03-13T15:48:40Z</time>
      </trkpt>
      <trkpt lat="44.42348" lon="1.6184">
        <ele>330</ele>
        <time>2024-03-13T15:48:41Z</time>
      </trkpt>
      <trkpt lat="44.42348" lon="1.61841">
        <ele>330</ele>
        <time>2024-03-13T15:48:42Z</time>
      </trkpt>
      <trkpt lat="44.42347" lon="1.61843">
        <ele>330</ele>
        <time>2024-03-13T15:48:43Z</time>
      </trkpt>
      <trkpt lat="44.42347" lon="1.61844">
        <ele>331</ele>
        <time>2024-03-13T15:48:44Z</time>
      </trkpt>
      <trkpt lat="44.42346" lon="1.61845">
        <ele>330</ele>
        <time>2024-03-13T15:48:45Z</time>
      </trkpt>
      <trkpt lat="44.42346" lon="1.61846">
        <ele>331</ele>
        <time>2024-03-13T15:48:46Z</time>
      </trkpt>
      <trkpt lat="44.42345" lon="1.61847">
        <ele>331</ele>
        <time>2024-03-13T15:48:47Z</time>
      </trkpt>
      <trkpt lat="44.42345" lon="1.61849">
        <ele>331</ele>
        <time>2024-03-13T15:48:48Z</time>
      </trkpt>
      <trkpt lat="44.42344" lon="1.6185">
        <ele>332</ele>
        <time>2024-03-13T15:48:49Z</time>
      </trkpt>
      <trkpt lat="44.42344" lon="1.61851">
        <ele>331</ele>
        <time>2024-03-13T15:48:50Z</time>
      </trkpt>
      <trkpt lat="44.42344" lon="1.61853">
        <ele>331</ele>
        <time>2024-03-13T15:48:51Z</time>
      </trkpt>
      <trkpt lat="44.42343" lon="1.61854">
        <ele>331</ele>
        <time>2024-03-13T15:48:52Z</time>
      </trkpt>
      <trkpt lat="44.42342" lon="1.61856">
        <ele>332</ele>
        <time>2024-03-13T15:48:53Z</time>
      </trkpt>
      <trkpt lat="44.42342" lon="1.61857">
        <ele>332</ele>
        <time>2024-03-13T15:48:54Z</time>
      </trkpt>
      <trkpt lat="44.42341" lon="1.61858">
        <ele>332</ele>
        <time>2024-03-13T15:48:55Z</time>
      </trkpt>
      <trkpt lat="44.42341" lon="1.61859">
        <ele>332</ele>
        <time>2024-03-13T15:48:56Z</time>
      </trkpt>
      <trkpt lat="44.4234" lon="1.6186">
        <ele>332</ele>
        <time>2024-03-13T15:48:57Z</time>
      </trkpt>
      <trkpt lat="44.4234" lon="1.61861">
        <ele>332</ele>
        <time>2024-03-13T15:48:58Z</time>
      </trkpt>
      <trkpt lat="44.42339" lon="1.61862">
        <ele>332</ele>
        <time>2024-03-13T15:48:59Z</time>
      </trkpt>
      <trkpt lat="44.42339" lon="1.61864">
        <ele>332</ele>
        <time>2024-03-13T15:49:00Z</time>
      </trkpt>
      <trkpt lat="44.42338" lon="1.61865">
        <ele>333</ele>
        <time>2024-03-13T15:49:01Z</time>
      </trkpt>
      <trkpt lat="44.42338" lon="1.61866">
        <ele>332</ele>
        <time>2024-03-13T15:49:02Z</time>
      </trkpt>
      <trkpt lat="44.42338" lon="1.61867">
        <ele>333</ele>
        <time>2024-03-13T15:49:03Z</time>
      </trkpt>
      <trkpt lat="44.42337" lon="1.61868">
        <ele>333</ele>
        <time>2024-03-13T15:49:04Z</time>
      </trkpt>
      <trkpt lat="44.42337" lon="1.6187">
        <ele>333</ele>
        <time>2024-03-13T15:49:05Z</time>
      </trkpt>
      <trkpt lat="44.42336" lon="1.61871">
        <ele>333</ele>
        <time>2024-03-13T15:49:06Z</time>
      </trkpt>
      <trkpt lat="44.42336" lon="1.61872">
        <ele>333</ele>
        <time>2024-03-13T15:49:07Z</time>
      </trkpt>
      <trkpt lat="44.42335" lon="1.61873">
        <ele>333</ele>
        <time>2024-03-13T15:49:08Z</time>
      </trkpt>
      <trkpt lat="44.42335" lon="1.61874">
        <ele>333</ele>
        <time>2024-03-13T15:49:09Z</time>
      </trkpt>
      <trkpt lat="44.42334" lon="1.61875">
        <ele>333</ele>
        <time>2024-03-13T15:49:10Z</time>
      </trkpt>
      <trkpt lat="44.42334" lon="1.61877">
        <ele>333</ele>
        <time>2024-03-13T15:49:11Z</time>
      </trkpt>
      <trkpt lat="44.42334" lon="1.61878">
        <ele>333</ele>
        <time>2024-03-13T15:49:12Z</time>
      </trkpt>
      <trkpt lat="44.42333" lon="1.6188">
        <ele>333</ele>
        <time>2024-03-13T15:49:13Z</time>
      </trkpt>
      <trkpt lat="44.42332" lon="1.61881">
        <ele>333</ele>
        <time>2024-03-13T15:49:14Z</time>
      </trkpt>
      <trkpt lat="44.42332" lon="1.61883">
        <ele>334</ele>
        <time>2024-03-13T15:49:15Z</time>
      </trkpt>
      <trkpt lat="44.42332" lon="1.61884">
        <ele>334</ele>
        <time>2024-03-13T15:49:16Z</time>
      </trkpt>
      <trkpt lat="44.42331" lon="1.61885">
        <ele>334</ele>
        <time>2024-03-13T15:49:17Z</time>
      </trkpt>
      <trkpt lat="44.42331" lon="1.61886">
        <ele>334</ele>
        <time>2024-03-13T15:49:18Z</time>
      </trkpt>
      <trkpt lat="44.4233" lon="1.61888">
        <ele>334</ele>
        <time>2024-03-13T15:49:19Z</time>
      </trkpt>
      <trkpt lat="44.42329" lon="1.61889">
        <ele>334</ele>
        <time>2024-03-13T15:49:20Z</time>
      </trkpt>
      <trkpt lat="44.42329" lon="1.6189">
        <ele>334</ele>
        <time>2024-03-13T15:49:21Z</time>
      </trkpt>
      <trkpt lat="44.42329" lon="1.61891">
        <ele>334</ele>
        <time>2024-03-13T15:49:22Z</time>
      </trkpt>
      <trkpt lat="44.42329" lon="1.61893">
        <ele>334</ele>
        <time>2024-03-13T15:49:23Z</time>
      </trkpt>
      <trkpt lat="44.42328" lon="1.61894">
        <ele>334</ele>
        <time>2024-03-13T15:49:24Z</time>
      </trkpt>
      <trkpt lat="44.42327" lon="1.61895">
        <ele>334</ele>
        <time>2024-03-13T15:49:25Z</time>
      </trkpt>
      <trkpt lat="44.42326" lon="1.61896">
        <ele>334</ele>
        <time>2024-03-13T15:49:26Z</time>
      </trkpt>
      <trkpt lat="44.42326" lon="1.61897">
        <ele>334</ele>
        <time>2024-03-13T15:49:27Z</time>
      </trkpt>
      <trkpt lat="44.42326" lon="1.61898">
        <ele>334</ele>
        <time>2024-03-13T15:49:28Z</time>
      </trkpt>
      <trkpt lat="44.42325" lon="1.619">
        <ele>334</ele>
        <time>2024-03-13T15:49:29Z</time>
      </trkpt>
      <trkpt lat="44.42324" lon="1.61901">
        <ele>334</ele>
        <time>2024-03-13T15:49:30Z</time>
      </trkpt>
      <trkpt lat="44.42324" lon="1.61902">
        <ele>335</ele>
        <time>2024-03-13T15:49:31Z</time>
      </trkpt>
      <trkpt lat="44.42323" lon="1.61903">
        <ele>335</ele>
        <time>2024-03-13T15:49:32Z</time>
      </trkpt>
      <trkpt lat="44.42323" lon="1.61904">
        <ele>335</ele>
        <time>2024-03-13T15:49:33Z</time>
      </trkpt>
      <trkpt lat="44.42322" lon="1.61905">
        <ele>335</ele>
        <time>2024-03-13T15:49:34Z</time>
      </trkpt>
      <trkpt lat="44.42321" lon="1.61906">
        <ele>335</ele>
        <time>2024-03-13T15:49:35Z</time>
      </trkpt>
      <trkpt lat="44.42321" lon="1.61907">
        <ele>335</ele>
        <time>2024-03-13T15:49:36Z</time>
      </trkpt>
      <trkpt lat="44.4232" lon="1.61908">
        <ele>335</ele>
        <time>2024-03-13T15:49:37Z</time>
      </trkpt>
      <trkpt lat="44.4232" lon="1.61909">
        <ele>335</ele>
        <time>2024-03-13T15:49:38Z</time>
      </trkpt>
      <trkpt lat="44.42319" lon="1.6191">
        <ele>336</ele>
        <time>2024-03-13T15:49:39Z</time>
      </trkpt>
      <trkpt lat="44.42318" lon="1.61911">
        <ele>336</ele>
        <time>2024-03-13T15:49:40Z</time>
      </trkpt>
      <trkpt lat="44.42317" lon="1.61912">
        <ele>336</ele>
        <time>2024-03-13T15:49:41Z</time>
      </trkpt>
      <trkpt lat="44.42316" lon="1.61913">
        <ele>336</ele>
        <time>2024-03-13T15:49:42Z</time>
      </trkpt>
      <trkpt lat="44.42316" lon="1.61914">
        <ele>336</ele>
        <time>2024-03-13T15:49:43Z</time>
      </trkpt>
      <trkpt lat="44.42315" lon="1.61915">
        <ele>336</ele>
        <time>2024-03-13T15:49:44Z</time>
      </trkpt>
      <trkpt lat="44.42315" lon="1.61916">
        <ele>336</ele>
        <time>2024-03-13T15:49:45Z</time>
      </trkpt>
      <trkpt lat="44.42315" lon="1.61917">
        <ele>336</ele>
        <time>2024-03-13T15:49:46Z</time>
      </trkpt>
      <trkpt lat="44.42314" lon="1.61918">
        <ele>336</ele>
        <time>2024-03-13T15:49:47Z</time>
      </trkpt>
      <trkpt lat="44.42313" lon="1.61919">
        <ele>336</ele>
        <time>2024-03-13T15:49:48Z</time>
      </trkpt>
      <trkpt lat="44.42313" lon="1.61921">
        <ele>336</ele>
        <time>2024-03-13T15:49:49Z</time>
      </trkpt>
      <trkpt lat="44.42312" lon="1.61922">
        <ele>337</ele>
        <time>2024-03-13T15:49:50Z</time>
      </trkpt>
      <trkpt lat="44.42311" lon="1.61923">
        <ele>337</ele>
        <time>2024-03-13T15:49:51Z</time>
      </trkpt>
      <trkpt lat="44.42311" lon="1.61925">
        <ele>337</ele>
        <time>2024-03-13T15:49:52Z</time>
      </trkpt>
      <trkpt lat="44.4231" lon="1.61925">
        <ele>337</ele>
        <time>2024-03-13T15:49:53Z</time>
      </trkpt>
      <trkpt lat="44.4231" lon="1.61926">
        <ele>337</ele>
        <time>2024-03-13T15:49:54Z</time>
      </trkpt>
      <trkpt lat="44.42309" lon="1.61927">
        <ele>337</ele>
        <time>2024-03-13T15:49:55Z</time>
      </trkpt>
      <trkpt lat="44.42308" lon="1.61928">
        <ele>337</ele>
        <time>2024-03-13T15:49:56Z</time>
      </trkpt>
      <trkpt lat="44.42308" lon="1.61929">
        <ele>337</ele>
        <time>2024-03-13T15:49:57Z</time>
      </trkpt>
      <trkpt lat="44.42307" lon="1.61929">
        <ele>338</ele>
        <time>2024-03-13T15:49:58Z</time>
      </trkpt>
      <trkpt lat="44.42306" lon="1.61928">
        <ele>338</ele>
        <time>2024-03-13T15:49:59Z</time>
      </trkpt>
      <trkpt lat="44.42305" lon="1.61929">
        <ele>338</ele>
        <time>2024-03-13T15:50:00Z</time>
      </trkpt>
      <trkpt lat="44.42305" lon="1.61929">
        <ele>338</ele>
        <time>2024-03-13T15:50:01Z</time>
      </trkpt>
      <trkpt lat="44.42304" lon="1.6193">
        <ele>339</ele>
        <time>2024-03-13T15:50:02Z</time>
      </trkpt>
      <trkpt lat="44.42303" lon="1.61931">
        <ele>339</ele>
        <time>2024-03-13T15:50:03Z</time>
      </trkpt>
      <trkpt lat="44.42302" lon="1.61932">
        <ele>339</ele>
        <time>2024-03-13T15:50:04Z</time>
      </trkpt>
      <trkpt lat="44.42301" lon="1.61933">
        <ele>339</ele>
        <time>2024-03-13T15:50:05Z</time>
      </trkpt>
      <trkpt lat="44.42301" lon="1.61934">
        <ele>339</ele>
        <time>2024-03-13T15:50:06Z</time>
      </trkpt>
      <trkpt lat="44.423" lon="1.61935">
        <ele>340</ele>
        <time>2024-03-13T15:50:07Z</time>
      </trkpt>
      <trkpt lat="44.42299" lon="1.61936">
        <ele>340</ele>
        <time>2024-03-13T15:50:08Z</time>
      </trkpt>
      <trkpt lat="44.42298" lon="1.61937">
        <ele>340</ele>
        <time>2024-03-13T15:50:09Z</time>
      </trkpt>
      <trkpt lat="44.42297" lon="1.61938">
        <ele>340</ele>
        <time>2024-03-13T15:50:10Z</time>
      </trkpt>
      <trkpt lat="44.42297" lon="1.61939">
        <ele>341</ele>
        <time>2024-03-13T15:50:11Z</time>
      </trkpt>
      <trkpt lat="44.42296" lon="1.6194">
        <ele>341</ele>
        <time>2024-03-13T15:50:12Z</time>
      </trkpt>
      <trkpt lat="44.42295" lon="1.61941">
        <ele>341</ele>
        <time>2024-03-13T15:50:13Z</time>
      </trkpt>
      <trkpt lat="44.42294" lon="1.61942">
        <ele>342</ele>
        <time>2024-03-13T15:50:14Z</time>
      </trkpt>
      <trkpt lat="44.42294" lon="1.61943">
        <ele>342</ele>
        <time>2024-03-13T15:50:15Z</time>
      </trkpt>
      <trkpt lat="44.42293" lon="1.61944">
        <ele>341</ele>
        <time>2024-03-13T15:50:16Z</time>
      </trkpt>
      <trkpt lat="44.42292" lon="1.61945">
        <ele>341</ele>
        <time>2024-03-13T15:50:17Z</time>
      </trkpt>
      <trkpt lat="44.42292" lon="1.61947">
        <ele>341</ele>
        <time>2024-03-13T15:50:18Z</time>
      </trkpt>
      <trkpt lat="44.42291" lon="1.61947">
        <ele>341</ele>
        <time>2024-03-13T15:50:19Z</time>
      </trkpt>
      <trkpt lat="44.4229" lon="1.61948">
        <ele>341</ele>
        <time>2024-03-13T15:50:20Z</time>
      </trkpt>
      <trkpt lat="44.42289" lon="1.61949">
        <ele>341</ele>
        <time>2024-03-13T15:50:21Z</time>
      </trkpt>
      <trkpt lat="44.42289" lon="1.61949">
        <ele>341</ele>
        <time>2024-03-13T15:50:22Z</time>
      </trkpt>
      <trkpt lat="44.42288" lon="1.6195">
        <ele>341</ele>
        <time>2024-03-13T15:50:23Z</time>
      </trkpt>
      <trkpt lat="44.42287" lon="1.61951">
        <ele>341</ele>
        <time>2024-03-13T15:50:24Z</time>
      </trkpt>
      <trkpt lat="44.42286" lon="1.61952">
        <ele>341</ele>
        <time>2024-03-13T15:50:25Z</time>
      </trkpt>
      <trkpt lat="44.42285" lon="1.61952">
        <ele>341</ele>
        <time>2024-03-13T15:50:26Z</time>
      </trkpt>
      <trkpt lat="44.42284" lon="1.61953">
        <ele>342</ele>
        <time>2024-03-13T15:50:27Z</time>
      </trkpt>
      <trkpt lat="44.42283" lon="1.61954">
        <ele>341</ele>
        <time>2024-03-13T15:50:28Z</time>
      </trkpt>
      <trkpt lat="44.42282" lon="1.61955">
        <ele>342</ele>
        <time>2024-03-13T15:50:29Z</time>
      </trkpt>
      <trkpt lat="44.42281" lon="1.61956">
        <ele>342</ele>
        <time>2024-03-13T15:50:30Z</time>
      </trkpt>
      <trkpt lat="44.42281" lon="1.61957">
        <ele>342</ele>
        <time>2024-03-13T15:50:31Z</time>
      </trkpt>
      <trkpt lat="44.4228" lon="1.61958">
        <ele>342</ele>
        <time>2024-03-13T15:50:32Z</time>
      </trkpt>
      <trkpt lat="44.42279" lon="1.61959">
        <ele>342</ele>
        <time>2024-03-13T15:50:33Z</time>
      </trkpt>
      <trkpt lat="44.42278" lon="1.6196">
        <ele>342</ele>
        <time>2024-03-13T15:50:34Z</time>
      </trkpt>
      <trkpt lat="44.42277" lon="1.6196">
        <ele>342</ele>
        <time>2024-03-13T15:50:35Z</time>
      </trkpt>
      <trkpt lat="44.42276" lon="1.61961">
        <ele>342</ele>
        <time>2024-03-13T15:50:36Z</time>
      </trkpt>
      <trkpt lat="44.42275" lon="1.61962">
        <ele>343</ele>
        <time>2024-03-13T15:50:37Z</time>
      </trkpt>
      <trkpt lat="44.42274" lon="1.61963">
        <ele>342</ele>
        <time>2024-03-13T15:50:38Z</time>
      </trkpt>
      <trkpt lat="44.42274" lon="1.61964">
        <ele>342</ele>
        <time>2024-03-13T15:50:39Z</time>
      </trkpt>
      <trkpt lat="44.42273" lon="1.61965">
        <ele>342</ele>
        <time>2024-03-13T15:50:40Z</time>
      </trkpt>
      <trkpt lat="44.42272" lon="1.61966">
        <ele>343</ele>
        <time>2024-03-13T15:50:41Z</time>
      </trkpt>
      <trkpt lat="44.42271" lon="1.61966">
        <ele>343</ele>
        <time>2024-03-13T15:50:42Z</time>
      </trkpt>
      <trkpt lat="44.4227" lon="1.61967">
        <ele>343</ele>
        <time>2024-03-13T15:50:43Z</time>
      </trkpt>
      <trkpt lat="44.4227" lon="1.61968">
        <ele>343</ele>
        <time>2024-03-13T15:50:44Z</time>
      </trkpt>
      <trkpt lat="44.42269" lon="1.61969">
        <ele>343</ele>
        <time>2024-03-13T15:50:45Z</time>
      </trkpt>
      <trkpt lat="44.42268" lon="1.6197">
        <ele>342</ele>
        <time>2024-03-13T15:50:46Z</time>
      </trkpt>
      <trkpt lat="44.42267" lon="1.6197">
        <ele>342</ele>
        <time>2024-03-13T15:50:47Z</time>
      </trkpt>
      <trkpt lat="44.42267" lon="1.61971">
        <ele>342</ele>
        <time>2024-03-13T15:50:48Z</time>
      </trkpt>
      <trkpt lat="44.42267" lon="1.61972">
        <ele>342</ele>
        <time>2024-03-13T15:50:49Z</time>
      </trkpt>
      <trkpt lat="44.42266" lon="1.61973">
        <ele>343</ele>
        <time>2024-03-13T15:50:50Z</time>
      </trkpt>
      <trkpt lat="44.42265" lon="1.61974">
        <ele>343</ele>
        <time>2024-03-13T15:50:51Z</time>
      </trkpt>
      <trkpt lat="44.42265" lon="1.61974">
        <ele>343</ele>
        <time>2024-03-13T15:50:52Z</time>
      </trkpt>
      <trkpt lat="44.42264" lon="1.61975">
        <ele>343</ele>
        <time>2024-03-13T15:50:53Z</time>
      </trkpt>
      <trkpt lat="44.42263" lon="1.61975">
        <ele>343</ele>
        <time>2024-03-13T15:50:54Z</time>
      </trkpt>
      <trkpt lat="44.42263" lon="1.61976">
        <ele>343</ele>
        <time>2024-03-13T15:50:55Z</time>
      </trkpt>
      <trkpt lat="44.42262" lon="1.61976">
        <ele>343</ele>
        <time>2024-03-13T15:50:56Z</time>
      </trkpt>
      <trkpt lat="44.42262" lon="1.61976">
        <ele>343</ele>
        <time>2024-03-13T15:50:57Z</time>
      </trkpt>
      <trkpt lat="44.42261" lon="1.61977">
        <ele>343</ele>
        <time>2024-03-13T15:50:59Z</time>
      </trkpt>
      <trkpt lat="44.4226" lon="1.61977">
        <ele>343</ele>
        <time>2024-03-13T15:51:00Z</time>
      </trkpt>
      <trkpt lat="44.4226" lon="1.61978">
        <ele>344</ele>
        <time>2024-03-13T15:51:01Z</time>
      </trkpt>
      <trkpt lat="44.42259" lon="1.61978">
        <ele>344</ele>
        <time>2024-03-13T15:51:02Z</time>
      </trkpt>
      <trkpt lat="44.42258" lon="1.61979">
        <ele>344</ele>
        <time>2024-03-13T15:51:03Z</time>
      </trkpt>
      <trkpt lat="44.42258" lon="1.61979">
        <ele>345</ele>
        <time>2024-03-13T15:51:05Z</time>
      </trkpt>
      <trkpt lat="44.42258" lon="1.61979">
        <ele>345</ele>
        <time>2024-03-13T15:51:06Z</time>
      </trkpt>
      <trkpt lat="44.42258" lon="1.61979">
        <ele>345</ele>
        <time>2024-03-13T15:51:07Z</time>
      </trkpt>
      <trkpt lat="44.42258" lon="1.61979">
        <ele>345</ele>
        <time>2024-03-13T15:51:08Z</time>
      </trkpt>
      <trkpt lat="44.42258" lon="1.61979">
        <ele>345</ele>
        <time>2024-03-13T15:51:09Z</time>
      </trkpt>
      <trkpt lat="44.42258" lon="1.61979">
        <ele>345</ele>
        <time>2024-03-13T15:51:11Z</time>
      </trkpt>
      <trkpt lat="44.42258" lon="1.61979">
        <ele>345</ele>
        <time>2024-03-13T15:51:13Z</time>
      </trkpt>
      <trkpt lat="44.42258" lon="1.61979">
        <ele>345</ele>
        <time>2024-03-13T15:51:14Z</time>
      </trkpt>
      <trkpt lat="44.42258" lon="1.61979">
        <ele>345</ele>
        <time>2024-03-13T15:51:15Z</time>
      </trkpt>
      <trkpt lat="44.42258" lon="1.61979">
        <ele>345</ele>
        <time>2024-03-13T15:51:16Z</time>
      </trkpt>
      <trkpt lat="44.42258" lon="1.61979">
        <ele>345</ele>
        <time>2024-03-13T15:51:17Z</time>
      </trkpt>
      <trkpt lat="44.42258" lon="1.61979">
        <ele>345</ele>
        <time>2024-03-13T15:51:18Z</time>
      </trkpt>
      <trkpt lat="44.42258" lon="1.61979">
        <ele>345</ele>
        <time>2024-03-13T15:51:19Z</time>
      </trkpt>
      <trkpt lat="44.42258" lon="1.61979">
        <ele>345</ele>
        <time>2024-03-13T15:51:20Z</time>
      </trkpt>
      <trkpt lat="44.42258" lon="1.61979">
        <ele>345</ele>
        <time>2024-03-13T15:51:21Z</time>
      </trkpt>
      <trkpt lat="44.42258" lon="1.61979">
        <ele>345</ele>
        <time>2024-03-13T15:51:22Z</time>
      </trkpt>
      <trkpt lat="44.42258" lon="1.61979">
        <ele>345</ele>
        <time>2024-03-13T15:51:23Z</time>
      </trkpt>
      <trkpt lat="44.42258" lon="1.61979">
        <ele>345</ele>
        <time>2024-03-13T15:51:24Z</time>
      </trkpt>
      <trkpt lat="44.42258" lon="1.61979">
        <ele>345</ele>
        <time>2024-03-13T15:51:25Z</time>
      </trkpt>
      <trkpt lat="44.42257" lon="1.61979">
        <ele>345</ele>
        <time>2024-03-13T15:51:26Z</time>
      </trkpt>
      <trkpt lat="44.42256" lon="1.61979">
        <ele>345</ele>
        <time>2024-03-13T15:51:27Z</time>
      </trkpt>
      <trkpt lat="44.42255" lon="1.6198">
        <ele>345</ele>
        <time>2024-03-13T15:51:28Z</time>
      </trkpt>
      <trkpt lat="44.42255" lon="1.61981">
        <ele>345</ele>
        <time>2024-03-13T15:51:29Z</time>
      </trkpt>
      <trkpt lat="44.42255" lon="1.61982">
        <ele>345</ele>
        <time>2024-03-13T15:51:30Z</time>
      </trkpt>
      <trkpt lat="44.42255" lon="1.61983">
        <ele>346</ele>
        <time>2024-03-13T15:51:31Z</time>
      </trkpt>
      <trkpt lat="44.42255" lon="1.61985">
        <ele>346</ele>
        <time>2024-03-13T15:51:32Z</time>
      </trkpt>
      <trkpt lat="44.42254" lon="1.61986">
        <ele>346</ele>
        <time>2024-03-13T15:51:33Z</time>
      </trkpt>
      <trkpt lat="44.42254" lon="1.61987">
        <ele>346</ele>
        <time>2024-03-13T15:51:34Z</time>
      </trkpt>
      <trkpt lat="44.42254" lon="1.61989">
        <ele>346</ele>
        <time>2024-03-13T15:51:35Z</time>
      </trkpt>
      <trkpt lat="44.42253" lon="1.6199">
        <ele>347</ele>
        <time>2024-03-13T15:51:36Z</time>
      </trkpt>
      <trkpt lat="44.42253" lon="1.61991">
        <ele>347</ele>
        <time>2024-03-13T15:51:37Z</time>
      </trkpt>
      <trkpt lat="44.42253" lon="1.61992">
        <ele>347</ele>
        <time>2024-03-13T15:51:38Z</time>
      </trkpt>
      <trkpt lat="44.42253" lon="1.61994">
        <ele>347</ele>
        <time>2024-03-13T15:51:39Z</time>
      </trkpt>
      <trkpt lat="44.42252" lon="1.61995">
        <ele>347</ele>
        <time>2024-03-13T15:51:40Z</time>
      </trkpt>
      <trkpt lat="44.42252" lon="1.61997">
        <ele>347</ele>
        <time>2024-03-13T15:51:41Z</time>
      </trkpt>
      <trkpt lat="44.42252" lon="1.61999">
        <ele>347</ele>
        <time>2024-03-13T15:51:42Z</time>
      </trkpt>
      <trkpt lat="44.42252" lon="1.62001">
        <ele>347</ele>
        <time>2024-03-13T15:51:43Z</time>
      </trkpt>
      <trkpt lat="44.42252" lon="1.62002">
        <ele>347</ele>
        <time>2024-03-13T15:51:44Z</time>
      </trkpt>
      <trkpt lat="44.42251" lon="1.62004">
        <ele>347</ele>
        <time>2024-03-13T15:51:45Z</time>
      </trkpt>
      <trkpt lat="44.42251" lon="1.62006">
        <ele>347</ele>
        <time>2024-03-13T15:51:46Z</time>
      </trkpt>
      <trkpt lat="44.4225" lon="1.62007">
        <ele>347</ele>
        <time>2024-03-13T15:51:47Z</time>
      </trkpt>
      <trkpt lat="44.4225" lon="1.62009">
        <ele>348</ele>
        <time>2024-03-13T15:51:48Z</time>
      </trkpt>
      <trkpt lat="44.4225" lon="1.62011">
        <ele>348</ele>
        <time>2024-03-13T15:51:49Z</time>
      </trkpt>
      <trkpt lat="44.42249" lon="1.62012">
        <ele>348</ele>
        <time>2024-03-13T15:51:50Z</time>
      </trkpt>
      <trkpt lat="44.42249" lon="1.62014">
        <ele>348</ele>
        <time>2024-03-13T15:51:51Z</time>
      </trkpt>
      <trkpt lat="44.42249" lon="1.62016">
        <ele>349</ele>
        <time>2024-03-13T15:51:52Z</time>
      </trkpt>
      <trkpt lat="44.42248" lon="1.62017">
        <ele>349</ele>
        <time>2024-03-13T15:51:53Z</time>
      </trkpt>
      <trkpt lat="44.42248" lon="1.62019">
        <ele>349</ele>
        <time>2024-03-13T15:51:54Z</time>
      </trkpt>
      <trkpt lat="44.42248" lon="1.6202">
        <ele>349</ele>
        <time>2024-03-13T15:51:55Z</time>
      </trkpt>
      <trkpt lat="44.42248" lon="1.62022">
        <ele>349</ele>
        <time>2024-03-13T15:51:56Z</time>
      </trkpt>
      <trkpt lat="44.42247" lon="1.62023">
        <ele>349</ele>
        <time>2024-03-13T15:51:57Z</time>
      </trkpt>
      <trkpt lat="44.42247" lon="1.62024">
        <ele>349</ele>
        <time>2024-03-13T15:51:58Z</time>
      </trkpt>
      <trkpt lat="44.42246" lon="1.62025">
        <ele>349</ele>
        <time>2024-03-13T15:51:59Z</time>
      </trkpt>
      <trkpt lat="44.42246" lon="1.62027">
        <ele>349</ele>
        <time>2024-03-13T15:52:00Z</time>
      </trkpt>
      <trkpt lat="44.42245" lon="1.62028">
        <ele>349</ele>
        <time>2024-03-13T15:52:01Z</time>
      </trkpt>
      <trkpt lat="44.42245" lon="1.62029">
        <ele>349</ele>
        <time>2024-03-13T15:52:02Z</time>
      </trkpt>
      <trkpt lat="44.42244" lon="1.62029">
        <ele>350</ele>
        <time>2024-03-13T15:52:03Z</time>
      </trkpt>
      <trkpt lat="44.42243" lon="1.6203">
        <ele>349</ele>
        <time>2024-03-13T15:52:04Z</time>
      </trkpt>
      <trkpt lat="44.42243" lon="1.62031">
        <ele>349</ele>
        <time>2024-03-13T15:52:05Z</time>
      </trkpt>
      <trkpt lat="44.42242" lon="1.62032">
        <ele>349</ele>
        <time>2024-03-13T15:52:06Z</time>
      </trkpt>
      <trkpt lat="44.42242" lon="1.62033">
        <ele>350</ele>
        <time>2024-03-13T15:52:07Z</time>
      </trkpt>
      <trkpt lat="44.42242" lon="1.62034">
        <ele>350</ele>
        <time>2024-03-13T15:52:08Z</time>
      </trkpt>
      <trkpt lat="44.42241" lon="1.62036">
        <ele>350</ele>
        <time>2024-03-13T15:52:09Z</time>
      </trkpt>
      <trkpt lat="44.42241" lon="1.62037">
        <ele>350</ele>
        <time>2024-03-13T15:52:10Z</time>
      </trkpt>
      <trkpt lat="44.42241" lon="1.62038">
        <ele>350</ele>
        <time>2024-03-13T15:52:11Z</time>
      </trkpt>
      <trkpt lat="44.42241" lon="1.6204">
        <ele>350</ele>
        <time>2024-03-13T15:52:12Z</time>
      </trkpt>
      <trkpt lat="44.42241" lon="1.62041">
        <ele>350</ele>
        <time>2024-03-13T15:52:13Z</time>
      </trkpt>
      <trkpt lat="44.42241" lon="1.62042">
        <ele>350</ele>
        <time>2024-03-13T15:52:14Z</time>
      </trkpt>
      <trkpt lat="44.42241" lon="1.62043">
        <ele>350</ele>
        <time>2024-03-13T15:52:15Z</time>
      </trkpt>
      <trkpt lat="44.42241" lon="1.62043">
        <ele>350</ele>
        <time>2024-03-13T15:52:16Z</time>
      </trkpt>
      <trkpt lat="44.42241" lon="1.62043">
        <ele>350</ele>
        <time>2024-03-13T15:52:17Z</time>
      </trkpt>
      <trkpt lat="44.4224" lon="1.62044">
        <ele>350</ele>
        <time>2024-03-13T15:52:18Z</time>
      </trkpt>
      <trkpt lat="44.42239" lon="1.62045">
        <ele>350</ele>
        <time>2024-03-13T15:52:19Z</time>
      </trkpt>
      <trkpt lat="44.42239" lon="1.62046">
        <ele>350</ele>
        <time>2024-03-13T15:52:20Z</time>
      </trkpt>
      <trkpt lat="44.42239" lon="1.62046">
        <ele>350</ele>
        <time>2024-03-13T15:52:21Z</time>
      </trkpt>
      <trkpt lat="44.42239" lon="1.62046">
        <ele>350</ele>
        <time>2024-03-13T15:52:22Z</time>
      </trkpt>
      <trkpt lat="44.42239" lon="1.62046">
        <ele>350</ele>
        <time>2024-03-13T15:52:23Z</time>
      </trkpt>
      <trkpt lat="44.42239" lon="1.62048">
        <ele>349</ele>
        <time>2024-03-13T15:52:24Z</time>
      </trkpt>
      <trkpt lat="44.42238" lon="1.62048">
        <ele>349</ele>
        <time>2024-03-13T15:52:25Z</time>
      </trkpt>
      <trkpt lat="44.42238" lon="1.62049">
        <ele>349</ele>
        <time>2024-03-13T15:52:26Z</time>
      </trkpt>
      <trkpt lat="44.42237" lon="1.62049">
        <ele>349</ele>
        <time>2024-03-13T15:52:27Z</time>
      </trkpt>
      <trkpt lat="44.42237" lon="1.62049">
        <ele>349</ele>
        <time>2024-03-13T15:52:28Z</time>
      </trkpt>
      <trkpt lat="44.42237" lon="1.62049">
        <ele>349</ele>
        <time>2024-03-13T15:52:29Z</time>
      </trkpt>
      <trkpt lat="44.42235" lon="1.62048">
        <ele>349</ele>
        <time>2024-03-13T15:52:30Z</time>
      </trkpt>
      <trkpt lat="44.42234" lon="1.62047">
        <ele>348</ele>
        <time>2024-03-13T15:52:31Z</time>
      </trkpt>
      <trkpt lat="44.42233" lon="1.62048">
        <ele>349</ele>
        <time>2024-03-13T15:52:33Z</time>
      </trkpt>
      <trkpt lat="44.42232" lon="1.62048">
        <ele>349</ele>
        <time>2024-03-13T15:52:34Z</time>
      </trkpt>
      <trkpt lat="44.42231" lon="1.62048">
        <ele>349</ele>
        <time>2024-03-13T15:52:35Z</time>
      </trkpt>
      <trkpt lat="44.42231" lon="1.62048">
        <ele>349</ele>
        <time>2024-03-13T15:52:36Z</time>
      </trkpt>
      <trkpt lat="44.4223" lon="1.62049">
        <ele>349</ele>
        <time>2024-03-13T15:52:37Z</time>
      </trkpt>
      <trkpt lat="44.4223" lon="1.62049">
        <ele>349</ele>
        <time>2024-03-13T15:52:38Z</time>
      </trkpt>
      <trkpt lat="44.4223" lon="1.62049">
        <ele>349</ele>
        <time>2024-03-13T15:52:39Z</time>
      </trkpt>
    </trkseg>
  </trk>
</gpx>